<?xml version='1.0' encoding='UTF-8'?><gpx version="1.1" creator="JPX - https://github.com/jenetics/jpx" xmlns="http://www.topografix.com/GPX/1/1"><trk><trkseg><trkpt lat="33.4344783" lon="9.0165083"><ele>66.0</ele><time>2026-04-23T07:41:06.377Z</time></trkpt><trkpt lat="33.43436" lon="9.0165083"><ele>66.0</ele><time>2026-04-23T07:41:08.377Z</time></trkpt><trkpt lat="33.434295" lon="9.0165433"><ele>66.0</ele><time>2026-04-23T07:41:09.377Z</time></trkpt><trkpt lat="33.4341883" lon="9.0166583"><ele>66.0</ele><time>2026-04-23T07:41:11.378Z</time></trkpt><trkpt lat="33.4341567" lon="9.0167283"><ele>66.0</ele><time>2026-04-23T07:41:12.377Z</time></trkpt><trkpt lat="33.4342467" lon="9.01684"><ele>65.85714285714286</ele><time>2026-04-23T07:41:14.378Z</time></trkpt><trkpt lat="33.434325" lon="9.01687"><ele>65.71428571428572</ele><time>2026-04-23T07:41:15.377Z</time></trkpt><trkpt lat="33.4344017" lon="9.01689"><ele>65.57142857142858</ele><time>2026-04-23T07:41:16.377Z</time></trkpt><trkpt lat="33.4344683" lon="9.0169267"><ele>65.42857142857143</ele><time>2026-04-23T07:41:17.378Z</time></trkpt><trkpt lat="33.4345217" lon="9.0169683"><ele>65.28571428571429</ele><time>2026-04-23T07:41:18.377Z</time></trkpt><trkpt lat="33.434565" lon="9.0170317"><ele>65.14285714285715</ele><time>2026-04-23T07:41:19.378Z</time></trkpt><trkpt lat="33.4346033" lon="9.0171133"><ele>65.0</ele><time>2026-04-23T07:41:20.377Z</time></trkpt><trkpt lat="33.43464" lon="9.0172017"><ele>64.5</ele><time>2026-04-23T07:41:21.376Z</time></trkpt><trkpt lat="33.4346883" lon="9.0172983"><ele>64.0</ele><time>2026-04-23T07:41:22.377Z</time></trkpt><trkpt lat="33.43474" lon="9.01739"><ele>63.5</ele><time>2026-04-23T07:41:23.377Z</time></trkpt><trkpt lat="33.4347833" lon="9.0174717"><ele>63.0</ele><time>2026-04-23T07:41:24.377Z</time></trkpt><trkpt lat="33.43482" lon="9.0175433"><ele>62.50000000000001</ele><time>2026-04-23T07:41:25.376Z</time></trkpt><trkpt lat="33.4348733" lon="9.0176367"><ele>62.0</ele><time>2026-04-23T07:41:27.376Z</time></trkpt><trkpt lat="33.4348767" lon="9.0177367"><ele>61.400000000000006</ele><time>2026-04-23T07:41:29.376Z</time></trkpt><trkpt lat="33.4349567" lon="9.017815"><ele>60.800000000000004</ele><time>2026-04-23T07:41:54.376Z</time></trkpt><trkpt lat="33.43508" lon="9.01783"><ele>60.2</ele><time>2026-04-23T07:41:56.377Z</time></trkpt><trkpt lat="33.4351567" lon="9.017805"><ele>59.6</ele><time>2026-04-23T07:41:57.377Z</time></trkpt><trkpt lat="33.4352367" lon="9.01777"><ele>59.0</ele><time>2026-04-23T07:41:58.377Z</time></trkpt><trkpt lat="33.4353183" lon="9.0177317"><ele>59.0</ele><time>2026-04-23T07:41:59.376Z</time></trkpt><trkpt lat="33.435405" lon="9.017685"><ele>59.00000000000001</ele><time>2026-04-23T07:42:00.376Z</time></trkpt><trkpt lat="33.4355067" lon="9.017635"><ele>59.00000000000001</ele><time>2026-04-23T07:42:01.376Z</time></trkpt><trkpt lat="33.4356067" lon="9.0175833"><ele>59.0</ele><time>2026-04-23T07:42:02.376Z</time></trkpt><trkpt lat="33.43571" lon="9.0175317"><ele>59.0</ele><time>2026-04-23T07:42:03.376Z</time></trkpt><trkpt lat="33.4358167" lon="9.01748"><ele>59.5</ele><time>2026-04-23T07:42:04.376Z</time></trkpt><trkpt lat="33.43592" lon="9.0174233"><ele>60.0</ele><time>2026-04-23T07:42:05.377Z</time></trkpt><trkpt lat="33.436025" lon="9.0173717"><ele>60.5</ele><time>2026-04-23T07:42:06.376Z</time></trkpt><trkpt lat="33.4361317" lon="9.017315"><ele>61.0</ele><time>2026-04-23T07:42:07.377Z</time></trkpt><trkpt lat="33.4362333" lon="9.01726"><ele>60.5</ele><time>2026-04-23T07:42:08.377Z</time></trkpt><trkpt lat="33.4363467" lon="9.0172017"><ele>60.0</ele><time>2026-04-23T07:42:09.377Z</time></trkpt><trkpt lat="33.436455" lon="9.017145"><ele>59.5</ele><time>2026-04-23T07:42:10.376Z</time></trkpt><trkpt lat="33.43656" lon="9.0170933"><ele>59.0</ele><time>2026-04-23T07:42:11.376Z</time></trkpt><trkpt lat="33.4366683" lon="9.0170367"><ele>59.0</ele><time>2026-04-23T07:42:12.377Z</time></trkpt><trkpt lat="33.436775" lon="9.01698"><ele>59.0</ele><time>2026-04-23T07:42:13.376Z</time></trkpt><trkpt lat="33.436885" lon="9.0169217"><ele>59.0</ele><time>2026-04-23T07:42:14.376Z</time></trkpt><trkpt lat="33.43699" lon="9.0168667"><ele>59.0</ele><time>2026-04-23T07:42:15.377Z</time></trkpt><trkpt lat="33.4370917" lon="9.01681"><ele>58.5</ele><time>2026-04-23T07:42:16.377Z</time></trkpt><trkpt lat="33.4371967" lon="9.0167533"><ele>58.0</ele><time>2026-04-23T07:42:17.377Z</time></trkpt><trkpt lat="33.4373067" lon="9.0166917"><ele>57.5</ele><time>2026-04-23T07:42:18.376Z</time></trkpt><trkpt lat="33.4374267" lon="9.0166283"><ele>57.0</ele><time>2026-04-23T07:42:19.377Z</time></trkpt><trkpt lat="33.4375417" lon="9.0165783"><ele>56.8</ele><time>2026-04-23T07:42:20.377Z</time></trkpt><trkpt lat="33.4376417" lon="9.0165283"><ele>56.6</ele><time>2026-04-23T07:42:21.376Z</time></trkpt><trkpt lat="33.4377367" lon="9.0164867"><ele>56.39999999999999</ele><time>2026-04-23T07:42:22.376Z</time></trkpt><trkpt lat="33.4378333" lon="9.01644"><ele>56.199999999999996</ele><time>2026-04-23T07:42:23.376Z</time></trkpt><trkpt lat="33.4379317" lon="9.0163867"><ele>56.0</ele><time>2026-04-23T07:42:24.376Z</time></trkpt><trkpt lat="33.4380267" lon="9.01633"><ele>55.5</ele><time>2026-04-23T07:42:25.376Z</time></trkpt><trkpt lat="33.438125" lon="9.0162783"><ele>55.0</ele><time>2026-04-23T07:42:26.377Z</time></trkpt><trkpt lat="33.4382317" lon="9.0162267"><ele>54.5</ele><time>2026-04-23T07:42:27.377Z</time></trkpt><trkpt lat="33.43834" lon="9.0161683"><ele>54.0</ele><time>2026-04-23T07:42:28.377Z</time></trkpt><trkpt lat="33.4384467" lon="9.0161117"><ele>54.0</ele><time>2026-04-23T07:42:29.377Z</time></trkpt><trkpt lat="33.4385633" lon="9.0160533"><ele>54.0</ele><time>2026-04-23T07:42:30.376Z</time></trkpt><trkpt lat="33.4386783" lon="9.0159883"><ele>54.0</ele><time>2026-04-23T07:42:31.376Z</time></trkpt><trkpt lat="33.4387967" lon="9.0159317"><ele>54.0</ele><time>2026-04-23T07:42:32.377Z</time></trkpt><trkpt lat="33.43892" lon="9.015875"><ele>54.25</ele><time>2026-04-23T07:42:33.377Z</time></trkpt><trkpt lat="33.4390367" lon="9.015815"><ele>54.5</ele><time>2026-04-23T07:42:34.377Z</time></trkpt><trkpt lat="33.4391533" lon="9.0157433"><ele>54.75</ele><time>2026-04-23T07:42:35.377Z</time></trkpt><trkpt lat="33.4392633" lon="9.0156767"><ele>55.0</ele><time>2026-04-23T07:42:36.376Z</time></trkpt><trkpt lat="33.439385" lon="9.015615"><ele>55.0</ele><time>2026-04-23T07:42:37.377Z</time></trkpt><trkpt lat="33.4394967" lon="9.0155533"><ele>55.0</ele><time>2026-04-23T07:42:38.377Z</time></trkpt><trkpt lat="33.4395933" lon="9.0154917"><ele>55.0</ele><time>2026-04-23T07:42:39.377Z</time></trkpt><trkpt lat="33.4396817" lon="9.0154433"><ele>55.0</ele><time>2026-04-23T07:42:40.377Z</time></trkpt><trkpt lat="33.4397633" lon="9.0153967"><ele>55.0</ele><time>2026-04-23T07:42:41.377Z</time></trkpt><trkpt lat="33.43984" lon="9.0153567"><ele>55.166666666666664</ele><time>2026-04-23T07:42:42.376Z</time></trkpt><trkpt lat="33.43992" lon="9.0153217"><ele>55.33333333333333</ele><time>2026-04-23T07:42:43.377Z</time></trkpt><trkpt lat="33.4399983" lon="9.0153017"><ele>55.5</ele><time>2026-04-23T07:42:44.377Z</time></trkpt><trkpt lat="33.4400767" lon="9.0152883"><ele>55.66666666666667</ele><time>2026-04-23T07:42:45.376Z</time></trkpt><trkpt lat="33.4401567" lon="9.0152867"><ele>55.833333333333336</ele><time>2026-04-23T07:42:46.377Z</time></trkpt><trkpt lat="33.4402483" lon="9.0152883"><ele>56.0</ele><time>2026-04-23T07:42:47.377Z</time></trkpt><trkpt lat="33.4403383" lon="9.0152933"><ele>56.0</ele><time>2026-04-23T07:42:48.376Z</time></trkpt><trkpt lat="33.4404317" lon="9.015305"><ele>55.99999999999999</ele><time>2026-04-23T07:42:49.376Z</time></trkpt><trkpt lat="33.4405283" lon="9.0153183"><ele>55.99999999999999</ele><time>2026-04-23T07:42:50.377Z</time></trkpt><trkpt lat="33.4406267" lon="9.0153267"><ele>56.0</ele><time>2026-04-23T07:42:51.377Z</time></trkpt><trkpt lat="33.4407317" lon="9.0153267"><ele>56.0</ele><time>2026-04-23T07:42:52.377Z</time></trkpt><trkpt lat="33.44083" lon="9.015335"><ele>56.199999999999996</ele><time>2026-04-23T07:42:53.376Z</time></trkpt><trkpt lat="33.4409333" lon="9.0153533"><ele>56.39999999999999</ele><time>2026-04-23T07:42:54.376Z</time></trkpt><trkpt lat="33.44103" lon="9.01537"><ele>56.6</ele><time>2026-04-23T07:42:55.376Z</time></trkpt><trkpt lat="33.4411333" lon="9.0153833"><ele>56.8</ele><time>2026-04-23T07:42:56.376Z</time></trkpt><trkpt lat="33.44123" lon="9.0154067"><ele>57.0</ele><time>2026-04-23T07:42:57.376Z</time></trkpt><trkpt lat="33.441325" lon="9.0154233"><ele>57.0</ele><time>2026-04-23T07:42:58.376Z</time></trkpt><trkpt lat="33.441425" lon="9.0154383"><ele>57.0</ele><time>2026-04-23T07:42:59.377Z</time></trkpt><trkpt lat="33.44152" lon="9.0154583"><ele>57.0</ele><time>2026-04-23T07:43:00.376Z</time></trkpt><trkpt lat="33.4416133" lon="9.0154833"><ele>57.0</ele><time>2026-04-23T07:43:01.376Z</time></trkpt><trkpt lat="33.44171" lon="9.015505"><ele>57.0</ele><time>2026-04-23T07:43:02.377Z</time></trkpt><trkpt lat="33.4418017" lon="9.0155283"><ele>57.0</ele><time>2026-04-23T07:43:03.377Z</time></trkpt><trkpt lat="33.4419083" lon="9.0155583"><ele>57.0</ele><time>2026-04-23T07:43:04.377Z</time></trkpt><trkpt lat="33.442005" lon="9.01559"><ele>57.0</ele><time>2026-04-23T07:43:05.377Z</time></trkpt><trkpt lat="33.4420933" lon="9.0156117"><ele>57.0</ele><time>2026-04-23T07:43:06.377Z</time></trkpt><trkpt lat="33.442185" lon="9.0156267"><ele>57.0</ele><time>2026-04-23T07:43:07.376Z</time></trkpt><trkpt lat="33.4422817" lon="9.01565"><ele>56.6</ele><time>2026-04-23T07:43:08.376Z</time></trkpt><trkpt lat="33.442385" lon="9.015665"><ele>56.2</ele><time>2026-04-23T07:43:09.377Z</time></trkpt><trkpt lat="33.442495" lon="9.015685"><ele>55.8</ele><time>2026-04-23T07:43:10.377Z</time></trkpt><trkpt lat="33.4426033" lon="9.0157067"><ele>55.4</ele><time>2026-04-23T07:43:11.376Z</time></trkpt><trkpt lat="33.4427083" lon="9.0157233"><ele>55.0</ele><time>2026-04-23T07:43:12.377Z</time></trkpt><trkpt lat="33.44281" lon="9.0157383"><ele>55.0</ele><time>2026-04-23T07:43:13.377Z</time></trkpt><trkpt lat="33.4429017" lon="9.0157617"><ele>55.0</ele><time>2026-04-23T07:43:14.377Z</time></trkpt><trkpt lat="33.4429983" lon="9.015785"><ele>55.0</ele><time>2026-04-23T07:43:15.377Z</time></trkpt><trkpt lat="33.4430883" lon="9.0157983"><ele>55.0</ele><time>2026-04-23T07:43:16.376Z</time></trkpt><trkpt lat="33.44317" lon="9.015815"><ele>55.0</ele><time>2026-04-23T07:43:17.376Z</time></trkpt><trkpt lat="33.443255" lon="9.01583"><ele>54.99999999999999</ele><time>2026-04-23T07:43:18.376Z</time></trkpt><trkpt lat="33.44333" lon="9.015845"><ele>55.0</ele><time>2026-04-23T07:43:19.377Z</time></trkpt><trkpt lat="33.443405" lon="9.015865"><ele>55.0</ele><time>2026-04-23T07:43:20.376Z</time></trkpt><trkpt lat="33.4434833" lon="9.0158867"><ele>55.0</ele><time>2026-04-23T07:43:21.377Z</time></trkpt><trkpt lat="33.443565" lon="9.0159133"><ele>54.99999999999999</ele><time>2026-04-23T07:43:22.376Z</time></trkpt><trkpt lat="33.4436467" lon="9.0159383"><ele>55.0</ele><time>2026-04-23T07:43:23.376Z</time></trkpt><trkpt lat="33.4437317" lon="9.0159717"><ele>55.0</ele><time>2026-04-23T07:43:24.376Z</time></trkpt><trkpt lat="33.4438217" lon="9.0160033"><ele>55.0</ele><time>2026-04-23T07:43:25.377Z</time></trkpt><trkpt lat="33.44392" lon="9.0160417"><ele>55.0</ele><time>2026-04-23T07:43:26.376Z</time></trkpt><trkpt lat="33.4440217" lon="9.0160783"><ele>55.0</ele><time>2026-04-23T07:43:27.376Z</time></trkpt><trkpt lat="33.444115" lon="9.016115"><ele>55.0</ele><time>2026-04-23T07:43:28.377Z</time></trkpt><trkpt lat="33.444215" lon="9.0161533"><ele>55.0</ele><time>2026-04-23T07:43:29.376Z</time></trkpt><trkpt lat="33.4443183" lon="9.0161867"><ele>55.0</ele><time>2026-04-23T07:43:30.377Z</time></trkpt><trkpt lat="33.444425" lon="9.0162267"><ele>55.0</ele><time>2026-04-23T07:43:31.377Z</time></trkpt><trkpt lat="33.4445333" lon="9.0162517"><ele>55.0</ele><time>2026-04-23T07:43:32.377Z</time></trkpt><trkpt lat="33.444635" lon="9.01628"><ele>55.0</ele><time>2026-04-23T07:43:33.377Z</time></trkpt><trkpt lat="33.444745" lon="9.0163117"><ele>54.8</ele><time>2026-04-23T07:43:34.376Z</time></trkpt><trkpt lat="33.4448433" lon="9.016345"><ele>54.6</ele><time>2026-04-23T07:43:35.376Z</time></trkpt><trkpt lat="33.444935" lon="9.01638"><ele>54.400000000000006</ele><time>2026-04-23T07:43:36.377Z</time></trkpt><trkpt lat="33.44502" lon="9.0164167"><ele>54.2</ele><time>2026-04-23T07:43:37.377Z</time></trkpt><trkpt lat="33.4451117" lon="9.0164517"><ele>54.0</ele><time>2026-04-23T07:43:38.376Z</time></trkpt><trkpt lat="33.4452067" lon="9.01649"><ele>54.0</ele><time>2026-04-23T07:43:39.376Z</time></trkpt><trkpt lat="33.445295" lon="9.0165283"><ele>54.00000000000001</ele><time>2026-04-23T07:43:40.376Z</time></trkpt><trkpt lat="33.4453917" lon="9.016565"><ele>54.00000000000001</ele><time>2026-04-23T07:43:41.376Z</time></trkpt><trkpt lat="33.4454917" lon="9.01659"><ele>54.0</ele><time>2026-04-23T07:43:42.377Z</time></trkpt><trkpt lat="33.4455867" lon="9.0166067"><ele>54.0</ele><time>2026-04-23T07:43:43.377Z</time></trkpt><trkpt lat="33.4456783" lon="9.0166167"><ele>54.2</ele><time>2026-04-23T07:43:44.376Z</time></trkpt><trkpt lat="33.4457833" lon="9.01663"><ele>54.400000000000006</ele><time>2026-04-23T07:43:45.376Z</time></trkpt><trkpt lat="33.445885" lon="9.0166417"><ele>54.6</ele><time>2026-04-23T07:43:46.376Z</time></trkpt><trkpt lat="33.445975" lon="9.0166467"><ele>54.8</ele><time>2026-04-23T07:43:47.377Z</time></trkpt><trkpt lat="33.4460717" lon="9.0166517"><ele>55.0</ele><time>2026-04-23T07:43:48.376Z</time></trkpt><trkpt lat="33.4461683" lon="9.0166517"><ele>55.4</ele><time>2026-04-23T07:43:49.377Z</time></trkpt><trkpt lat="33.44626" lon="9.0166583"><ele>55.8</ele><time>2026-04-23T07:43:50.377Z</time></trkpt><trkpt lat="33.4463567" lon="9.0166667"><ele>56.2</ele><time>2026-04-23T07:43:51.377Z</time></trkpt><trkpt lat="33.4464567" lon="9.0166683"><ele>56.6</ele><time>2026-04-23T07:43:52.376Z</time></trkpt><trkpt lat="33.446565" lon="9.0166717"><ele>57.0</ele><time>2026-04-23T07:43:53.376Z</time></trkpt><trkpt lat="33.4466617" lon="9.0166833"><ele>57.0</ele><time>2026-04-23T07:43:54.376Z</time></trkpt><trkpt lat="33.4467533" lon="9.0166867"><ele>57.0</ele><time>2026-04-23T07:43:55.377Z</time></trkpt><trkpt lat="33.4468417" lon="9.0166883"><ele>57.0</ele><time>2026-04-23T07:43:56.376Z</time></trkpt><trkpt lat="33.446925" lon="9.0166867"><ele>57.0</ele><time>2026-04-23T07:43:57.377Z</time></trkpt><trkpt lat="33.44701" lon="9.0166933"><ele>57.0</ele><time>2026-04-23T07:43:58.376Z</time></trkpt><trkpt lat="33.4470983" lon="9.0166983"><ele>57.0</ele><time>2026-04-23T07:43:59.377Z</time></trkpt><trkpt lat="33.4471933" lon="9.0167017"><ele>57.0</ele><time>2026-04-23T07:44:00.376Z</time></trkpt><trkpt lat="33.4472867" lon="9.0167017"><ele>57.0</ele><time>2026-04-23T07:44:01.376Z</time></trkpt><trkpt lat="33.4473717" lon="9.0167083"><ele>57.0</ele><time>2026-04-23T07:44:02.376Z</time></trkpt><trkpt lat="33.4474583" lon="9.0167067"><ele>57.0</ele><time>2026-04-23T07:44:03.377Z</time></trkpt><trkpt lat="33.4475533" lon="9.0167033"><ele>57.0</ele><time>2026-04-23T07:44:04.376Z</time></trkpt><trkpt lat="33.4476517" lon="9.0167"><ele>57.0</ele><time>2026-04-23T07:44:05.376Z</time></trkpt><trkpt lat="33.44775" lon="9.0166867"><ele>57.0</ele><time>2026-04-23T07:44:06.377Z</time></trkpt><trkpt lat="33.4478583" lon="9.0166667"><ele>57.0</ele><time>2026-04-23T07:44:07.377Z</time></trkpt><trkpt lat="33.4479633" lon="9.0166533"><ele>57.0</ele><time>2026-04-23T07:44:08.376Z</time></trkpt><trkpt lat="33.44807" lon="9.0166433"><ele>57.0</ele><time>2026-04-23T07:44:09.376Z</time></trkpt><trkpt lat="33.448175" lon="9.0166317"><ele>57.0</ele><time>2026-04-23T07:44:10.377Z</time></trkpt><trkpt lat="33.448285" lon="9.01662"><ele>57.0</ele><time>2026-04-23T07:44:11.377Z</time></trkpt><trkpt lat="33.4484" lon="9.01661"><ele>57.0</ele><time>2026-04-23T07:44:12.377Z</time></trkpt><trkpt lat="33.4485117" lon="9.0165917"><ele>57.0</ele><time>2026-04-23T07:44:13.376Z</time></trkpt><trkpt lat="33.44862" lon="9.016575"><ele>57.0</ele><time>2026-04-23T07:44:14.376Z</time></trkpt><trkpt lat="33.4487333" lon="9.016565"><ele>57.25</ele><time>2026-04-23T07:44:15.376Z</time></trkpt><trkpt lat="33.4488433" lon="9.0165517"><ele>57.5</ele><time>2026-04-23T07:44:16.376Z</time></trkpt><trkpt lat="33.448955" lon="9.0165483"><ele>57.75</ele><time>2026-04-23T07:44:17.376Z</time></trkpt><trkpt lat="33.4490733" lon="9.0165333"><ele>58.0</ele><time>2026-04-23T07:44:18.377Z</time></trkpt><trkpt lat="33.4491933" lon="9.0165267"><ele>58.0</ele><time>2026-04-23T07:44:19.377Z</time></trkpt><trkpt lat="33.4493083" lon="9.0165217"><ele>58.0</ele><time>2026-04-23T07:44:20.376Z</time></trkpt><trkpt lat="33.449435" lon="9.0165217"><ele>58.0</ele><time>2026-04-23T07:44:21.376Z</time></trkpt><trkpt lat="33.4495567" lon="9.0165267"><ele>58.0</ele><time>2026-04-23T07:44:22.376Z</time></trkpt><trkpt lat="33.4496717" lon="9.0165233"><ele>57.99999999999999</ele><time>2026-04-23T07:44:23.376Z</time></trkpt><trkpt lat="33.44977" lon="9.0165183"><ele>58.0</ele><time>2026-04-23T07:44:24.377Z</time></trkpt><trkpt lat="33.449855" lon="9.016515"><ele>58.0</ele><time>2026-04-23T07:44:25.377Z</time></trkpt><trkpt lat="33.4499383" lon="9.01651"><ele>58.0</ele><time>2026-04-23T07:44:26.376Z</time></trkpt><trkpt lat="33.45003" lon="9.0165017"><ele>57.99999999999999</ele><time>2026-04-23T07:44:27.377Z</time></trkpt><trkpt lat="33.45012" lon="9.0164917"><ele>58.0</ele><time>2026-04-23T07:44:28.376Z</time></trkpt><trkpt lat="33.450215" lon="9.0164783"><ele>58.0</ele><time>2026-04-23T07:44:29.377Z</time></trkpt><trkpt lat="33.4503133" lon="9.0164667"><ele>58.0</ele><time>2026-04-23T07:44:30.376Z</time></trkpt><trkpt lat="33.45041" lon="9.0164533"><ele>58.0</ele><time>2026-04-23T07:44:31.377Z</time></trkpt><trkpt lat="33.4505083" lon="9.0164383"><ele>58.0</ele><time>2026-04-23T07:44:32.376Z</time></trkpt><trkpt lat="33.4506067" lon="9.016405"><ele>58.0</ele><time>2026-04-23T07:44:33.376Z</time></trkpt><trkpt lat="33.450705" lon="9.0163833"><ele>58.0</ele><time>2026-04-23T07:44:34.376Z</time></trkpt><trkpt lat="33.4508033" lon="9.0163617"><ele>58.0</ele><time>2026-04-23T07:44:35.376Z</time></trkpt><trkpt lat="33.4508983" lon="9.016345"><ele>58.0</ele><time>2026-04-23T07:44:36.376Z</time></trkpt><trkpt lat="33.451" lon="9.0163217"><ele>58.0</ele><time>2026-04-23T07:44:37.376Z</time></trkpt><trkpt lat="33.4511017" lon="9.0163033"><ele>58.0</ele><time>2026-04-23T07:44:38.377Z</time></trkpt><trkpt lat="33.45119" lon="9.0162917"><ele>57.99999999999999</ele><time>2026-04-23T07:44:39.376Z</time></trkpt><trkpt lat="33.451265" lon="9.0162717"><ele>58.0</ele><time>2026-04-23T07:44:40.377Z</time></trkpt><trkpt lat="33.451345" lon="9.0162583"><ele>58.0</ele><time>2026-04-23T07:44:41.377Z</time></trkpt><trkpt lat="33.4514217" lon="9.016245"><ele>58.0</ele><time>2026-04-23T07:44:42.376Z</time></trkpt><trkpt lat="33.4514883" lon="9.0162383"><ele>57.99999999999999</ele><time>2026-04-23T07:44:43.376Z</time></trkpt><trkpt lat="33.451615" lon="9.0162117"><ele>58.0</ele><time>2026-04-23T07:44:45.377Z</time></trkpt><trkpt lat="33.4516817" lon="9.0162033"><ele>58.166666666666664</ele><time>2026-04-23T07:44:46.376Z</time></trkpt><trkpt lat="33.4517483" lon="9.0161867"><ele>58.33333333333333</ele><time>2026-04-23T07:44:47.377Z</time></trkpt><trkpt lat="33.45181" lon="9.0161667"><ele>58.5</ele><time>2026-04-23T07:44:48.377Z</time></trkpt><trkpt lat="33.4519233" lon="9.0161333"><ele>58.66666666666667</ele><time>2026-04-23T07:44:50.377Z</time></trkpt><trkpt lat="33.4520133" lon="9.0161133"><ele>58.833333333333336</ele><time>2026-04-23T07:44:52.376Z</time></trkpt><trkpt lat="33.4521" lon="9.01609"><ele>59.0</ele><time>2026-04-23T07:44:54.377Z</time></trkpt><trkpt lat="33.452195" lon="9.0160733"><ele>59.400000000000006</ele><time>2026-04-23T07:44:56.377Z</time></trkpt><trkpt lat="33.45231" lon="9.0160333"><ele>59.800000000000004</ele><time>2026-04-23T07:44:58.377Z</time></trkpt><trkpt lat="33.4523817" lon="9.0160067"><ele>60.199999999999996</ele><time>2026-04-23T07:44:59.377Z</time></trkpt><trkpt lat="33.4524583" lon="9.0159767"><ele>60.599999999999994</ele><time>2026-04-23T07:45:00.376Z</time></trkpt><trkpt lat="33.4525417" lon="9.0159467"><ele>61.0</ele><time>2026-04-23T07:45:01.376Z</time></trkpt><trkpt lat="33.45263" lon="9.01592"><ele>60.99999999999999</ele><time>2026-04-23T07:45:02.376Z</time></trkpt><trkpt lat="33.4527183" lon="9.01588"><ele>61.0</ele><time>2026-04-23T07:45:03.377Z</time></trkpt><trkpt lat="33.4528" lon="9.0158383"><ele>61.0</ele><time>2026-04-23T07:45:04.376Z</time></trkpt><trkpt lat="33.45287" lon="9.0158067"><ele>61.0</ele><time>2026-04-23T07:45:05.376Z</time></trkpt><trkpt lat="33.452935" lon="9.0157683"><ele>60.99999999999999</ele><time>2026-04-23T07:45:06.376Z</time></trkpt><trkpt lat="33.4530183" lon="9.0157133"><ele>61.0</ele><time>2026-04-23T07:45:08.376Z</time></trkpt><trkpt lat="33.4530783" lon="9.0156617"><ele>60.8</ele><time>2026-04-23T07:45:11.377Z</time></trkpt><trkpt lat="33.4531667" lon="9.0156133"><ele>60.599999999999994</ele><time>2026-04-23T07:45:13.376Z</time></trkpt><trkpt lat="33.453235" lon="9.0155783"><ele>60.4</ele><time>2026-04-23T07:45:14.376Z</time></trkpt><trkpt lat="33.4533033" lon="9.0155383"><ele>60.2</ele><time>2026-04-23T07:45:15.376Z</time></trkpt><trkpt lat="33.453405" lon="9.0154733"><ele>60.0</ele><time>2026-04-23T07:45:17.375Z</time></trkpt><trkpt lat="33.45351" lon="9.0154117"><ele>60.0</ele><time>2026-04-23T07:45:19.376Z</time></trkpt><trkpt lat="33.45357" lon="9.015375"><ele>60.0</ele><time>2026-04-23T07:45:20.375Z</time></trkpt><trkpt lat="33.4536417" lon="9.015325"><ele>60.0</ele><time>2026-04-23T07:45:21.375Z</time></trkpt><trkpt lat="33.4537083" lon="9.0152767"><ele>60.0</ele><time>2026-04-23T07:45:22.376Z</time></trkpt><trkpt lat="33.453775" lon="9.0152433"><ele>60.0</ele><time>2026-04-23T07:45:23.376Z</time></trkpt><trkpt lat="33.4538333" lon="9.01521"><ele>60.0</ele><time>2026-04-23T07:45:24.376Z</time></trkpt><trkpt lat="33.4538967" lon="9.0151783"><ele>60.0</ele><time>2026-04-23T07:45:25.375Z</time></trkpt><trkpt lat="33.453955" lon="9.015145"><ele>59.5</ele><time>2026-04-23T07:45:26.375Z</time></trkpt><trkpt lat="33.454015" lon="9.0151117"><ele>59.0</ele><time>2026-04-23T07:45:27.376Z</time></trkpt><trkpt lat="33.4540767" lon="9.0150733"><ele>58.5</ele><time>2026-04-23T07:45:28.376Z</time></trkpt><trkpt lat="33.4541667" lon="9.0150033"><ele>58.0</ele><time>2026-04-23T07:45:30.375Z</time></trkpt><trkpt lat="33.4542533" lon="9.0149483"><ele>57.5</ele><time>2026-04-23T07:45:32.376Z</time></trkpt><trkpt lat="33.4543483" lon="9.0148983"><ele>57.0</ele><time>2026-04-23T07:45:34.376Z</time></trkpt><trkpt lat="33.4544517" lon="9.0148417"><ele>56.8</ele><time>2026-04-23T07:45:36.375Z</time></trkpt><trkpt lat="33.4545683" lon="9.0147683"><ele>56.6</ele><time>2026-04-23T07:45:38.375Z</time></trkpt><trkpt lat="33.454635" lon="9.0147317"><ele>56.39999999999999</ele><time>2026-04-23T07:45:39.375Z</time></trkpt><trkpt lat="33.4547133" lon="9.0146867"><ele>56.199999999999996</ele><time>2026-04-23T07:45:40.375Z</time></trkpt><trkpt lat="33.454795" lon="9.014645"><ele>56.0</ele><time>2026-04-23T07:45:41.375Z</time></trkpt><trkpt lat="33.4548783" lon="9.014605"><ele>56.333333333333336</ele><time>2026-04-23T07:45:42.375Z</time></trkpt><trkpt lat="33.45495" lon="9.0145717"><ele>56.66666666666667</ele><time>2026-04-23T07:45:43.376Z</time></trkpt><trkpt lat="33.4550233" lon="9.0145433"><ele>57.0</ele><time>2026-04-23T07:45:44.375Z</time></trkpt><trkpt lat="33.4550983" lon="9.0145067"><ele>57.33333333333333</ele><time>2026-04-23T07:45:45.376Z</time></trkpt><trkpt lat="33.4551733" lon="9.014485"><ele>57.666666666666664</ele><time>2026-04-23T07:45:46.376Z</time></trkpt><trkpt lat="33.4552483" lon="9.0144517"><ele>58.0</ele><time>2026-04-23T07:45:47.375Z</time></trkpt><trkpt lat="33.45532" lon="9.0144133"><ele>58.00000000000001</ele><time>2026-04-23T07:45:48.375Z</time></trkpt><trkpt lat="33.455385" lon="9.0143783"><ele>58.0</ele><time>2026-04-23T07:45:49.375Z</time></trkpt><trkpt lat="33.4554567" lon="9.0143567"><ele>58.00000000000001</ele><time>2026-04-23T07:45:50.376Z</time></trkpt><trkpt lat="33.4555217" lon="9.0143367"><ele>58.00000000000001</ele><time>2026-04-23T07:45:51.376Z</time></trkpt><trkpt lat="33.455585" lon="9.01431"><ele>58.0</ele><time>2026-04-23T07:45:52.376Z</time></trkpt><trkpt lat="33.4556517" lon="9.0142833"><ele>58.00000000000001</ele><time>2026-04-23T07:45:53.375Z</time></trkpt><trkpt lat="33.45572" lon="9.014255"><ele>58.00000000000001</ele><time>2026-04-23T07:45:54.375Z</time></trkpt><trkpt lat="33.45579" lon="9.01423"><ele>57.99999999999999</ele><time>2026-04-23T07:45:55.375Z</time></trkpt><trkpt lat="33.4558667" lon="9.0142033"><ele>58.0</ele><time>2026-04-23T07:45:56.376Z</time></trkpt><trkpt lat="33.4559383" lon="9.014165"><ele>58.0</ele><time>2026-04-23T07:45:57.375Z</time></trkpt><trkpt lat="33.4560317" lon="9.0141133"><ele>58.0</ele><time>2026-04-23T07:45:59.376Z</time></trkpt><trkpt lat="33.4561017" lon="9.0141117"><ele>57.99999999999999</ele><time>2026-04-23T07:46:02.376Z</time></trkpt><trkpt lat="33.45615" lon="9.014045"><ele>58.0</ele><time>2026-04-23T07:53:30.374Z</time></trkpt><trkpt lat="33.4562233" lon="9.0140233"><ele>58.166666666666664</ele><time>2026-04-23T07:53:32.374Z</time></trkpt><trkpt lat="33.45633" lon="9.0139783"><ele>58.33333333333333</ele><time>2026-04-23T07:53:34.375Z</time></trkpt><trkpt lat="33.456395" lon="9.0139517"><ele>58.5</ele><time>2026-04-23T07:53:35.375Z</time></trkpt><trkpt lat="33.4564567" lon="9.013915"><ele>58.66666666666667</ele><time>2026-04-23T07:53:36.374Z</time></trkpt><trkpt lat="33.4565267" lon="9.0138767"><ele>58.833333333333336</ele><time>2026-04-23T07:53:37.375Z</time></trkpt><trkpt lat="33.4566" lon="9.01385"><ele>59.0</ele><time>2026-04-23T07:53:38.375Z</time></trkpt><trkpt lat="33.4566633" lon="9.0138383"><ele>59.0</ele><time>2026-04-23T07:53:39.374Z</time></trkpt><trkpt lat="33.4567467" lon="9.013845"><ele>59.00000000000001</ele><time>2026-04-23T07:53:41.375Z</time></trkpt><trkpt lat="33.4568517" lon="9.0138033"><ele>59.00000000000001</ele><time>2026-04-23T07:53:48.375Z</time></trkpt><trkpt lat="33.45691" lon="9.01368"><ele>59.0</ele><time>2026-04-23T07:53:50.374Z</time></trkpt><trkpt lat="33.4569367" lon="9.0135883"><ele>59.0</ele><time>2026-04-23T07:53:51.375Z</time></trkpt><trkpt lat="33.4569583" lon="9.0134883"><ele>59.0</ele><time>2026-04-23T07:53:52.374Z</time></trkpt><trkpt lat="33.4569767" lon="9.013385"><ele>59.00000000000001</ele><time>2026-04-23T07:53:53.375Z</time></trkpt><trkpt lat="33.4570017" lon="9.0132833"><ele>59.00000000000001</ele><time>2026-04-23T07:53:54.375Z</time></trkpt><trkpt lat="33.4570117" lon="9.0131767"><ele>59.0</ele><time>2026-04-23T07:53:55.374Z</time></trkpt><trkpt lat="33.4570083" lon="9.0130667"><ele>59.0</ele><time>2026-04-23T07:53:56.374Z</time></trkpt><trkpt lat="33.4569967" lon="9.0129517"><ele>58.6</ele><time>2026-04-23T07:53:57.375Z</time></trkpt><trkpt lat="33.456985" lon="9.0128383"><ele>58.2</ele><time>2026-04-23T07:53:58.374Z</time></trkpt><trkpt lat="33.4569717" lon="9.0127183"><ele>57.800000000000004</ele><time>2026-04-23T07:53:59.374Z</time></trkpt><trkpt lat="33.4569617" lon="9.0126"><ele>57.400000000000006</ele><time>2026-04-23T07:54:00.375Z</time></trkpt><trkpt lat="33.4569517" lon="9.0124967"><ele>57.0</ele><time>2026-04-23T07:54:01.374Z</time></trkpt><trkpt lat="33.4569483" lon="9.0124083"><ele>56.666666666666664</ele><time>2026-04-23T07:54:02.375Z</time></trkpt><trkpt lat="33.4569467" lon="9.0123183"><ele>56.33333333333333</ele><time>2026-04-23T07:54:03.374Z</time></trkpt><trkpt lat="33.45694" lon="9.01222"><ele>56.0</ele><time>2026-04-23T07:54:04.374Z</time></trkpt><trkpt lat="33.4569333" lon="9.012115"><ele>55.666666666666664</ele><time>2026-04-23T07:54:05.374Z</time></trkpt><trkpt lat="33.4569217" lon="9.012005"><ele>55.33333333333333</ele><time>2026-04-23T07:54:06.374Z</time></trkpt><trkpt lat="33.4569117" lon="9.011895"><ele>55.0</ele><time>2026-04-23T07:54:07.375Z</time></trkpt><trkpt lat="33.4569" lon="9.0117867"><ele>54.99999999999999</ele><time>2026-04-23T07:54:08.373Z</time></trkpt><trkpt lat="33.4569" lon="9.0116817"><ele>55.0</ele><time>2026-04-23T07:54:09.373Z</time></trkpt><trkpt lat="33.4568933" lon="9.01158"><ele>55.0</ele><time>2026-04-23T07:54:10.373Z</time></trkpt><trkpt lat="33.4568783" lon="9.0114717"><ele>55.0</ele><time>2026-04-23T07:54:11.373Z</time></trkpt><trkpt lat="33.45687" lon="9.011355"><ele>54.99999999999999</ele><time>2026-04-23T07:54:12.374Z</time></trkpt><trkpt lat="33.456855" lon="9.011255"><ele>55.0</ele><time>2026-04-23T07:54:13.374Z</time></trkpt><trkpt lat="33.456845" lon="9.0111233"><ele>54.6</ele><time>2026-04-23T07:54:14.373Z</time></trkpt><trkpt lat="33.4568367" lon="9.0109967"><ele>54.2</ele><time>2026-04-23T07:54:15.373Z</time></trkpt><trkpt lat="33.456835" lon="9.010875"><ele>53.8</ele><time>2026-04-23T07:54:16.373Z</time></trkpt><trkpt lat="33.45683" lon="9.010755"><ele>53.4</ele><time>2026-04-23T07:54:17.373Z</time></trkpt><trkpt lat="33.45683" lon="9.010635"><ele>53.0</ele><time>2026-04-23T07:54:18.373Z</time></trkpt><trkpt lat="33.4568167" lon="9.0105217"><ele>53.0</ele><time>2026-04-23T07:54:19.374Z</time></trkpt><trkpt lat="33.4568117" lon="9.0104267"><ele>53.0</ele><time>2026-04-23T07:54:20.374Z</time></trkpt><trkpt lat="33.456815" lon="9.010345"><ele>53.0</ele><time>2026-04-23T07:54:21.373Z</time></trkpt><trkpt lat="33.456815" lon="9.0102217"><ele>53.0</ele><time>2026-04-23T07:54:23.373Z</time></trkpt><trkpt lat="33.4568167" lon="9.01007"><ele>53.0</ele><time>2026-04-23T07:54:25.374Z</time></trkpt><trkpt lat="33.4568267" lon="9.0099767"><ele>52.833333333333336</ele><time>2026-04-23T07:54:26.374Z</time></trkpt><trkpt lat="33.4568417" lon="9.00988"><ele>52.66666666666667</ele><time>2026-04-23T07:54:27.374Z</time></trkpt><trkpt lat="33.4568617" lon="9.0097767"><ele>52.5</ele><time>2026-04-23T07:54:28.374Z</time></trkpt><trkpt lat="33.4568983" lon="9.0096783"><ele>52.33333333333333</ele><time>2026-04-23T07:54:29.373Z</time></trkpt><trkpt lat="33.4569417" lon="9.0095817"><ele>52.166666666666664</ele><time>2026-04-23T07:54:30.374Z</time></trkpt><trkpt lat="33.4569767" lon="9.0094733"><ele>52.0</ele><time>2026-04-23T07:54:31.374Z</time></trkpt><trkpt lat="33.4570133" lon="9.0093717"><ele>52.0</ele><time>2026-04-23T07:54:32.374Z</time></trkpt><trkpt lat="33.4570517" lon="9.0092667"><ele>52.0</ele><time>2026-04-23T07:54:33.373Z</time></trkpt><trkpt lat="33.4570967" lon="9.0091733"><ele>52.0</ele><time>2026-04-23T07:54:34.373Z</time></trkpt><trkpt lat="33.4571433" lon="9.0090717"><ele>52.0</ele><time>2026-04-23T07:54:35.373Z</time></trkpt><trkpt lat="33.45719" lon="9.0089717"><ele>52.0</ele><time>2026-04-23T07:54:36.373Z</time></trkpt><trkpt lat="33.4572283" lon="9.0088667"><ele>52.0</ele><time>2026-04-23T07:54:37.374Z</time></trkpt><trkpt lat="33.4572717" lon="9.0087567"><ele>52.0</ele><time>2026-04-23T07:54:38.373Z</time></trkpt><trkpt lat="33.457315" lon="9.0086433"><ele>52.0</ele><time>2026-04-23T07:54:39.374Z</time></trkpt><trkpt lat="33.45736" lon="9.0085283"><ele>52.0</ele><time>2026-04-23T07:54:40.374Z</time></trkpt><trkpt lat="33.4574067" lon="9.0084117"><ele>52.0</ele><time>2026-04-23T07:54:41.373Z</time></trkpt><trkpt lat="33.4574583" lon="9.00829"><ele>52.0</ele><time>2026-04-23T07:54:42.373Z</time></trkpt><trkpt lat="33.4575117" lon="9.0081733"><ele>52.0</ele><time>2026-04-23T07:54:43.374Z</time></trkpt><trkpt lat="33.4575667" lon="9.0080567"><ele>52.0</ele><time>2026-04-23T07:54:44.373Z</time></trkpt><trkpt lat="33.4576267" lon="9.0079417"><ele>52.0</ele><time>2026-04-23T07:54:45.374Z</time></trkpt><trkpt lat="33.45768" lon="9.0078217"><ele>52.0</ele><time>2026-04-23T07:54:46.374Z</time></trkpt><trkpt lat="33.457735" lon="9.0076983"><ele>52.0</ele><time>2026-04-23T07:54:47.374Z</time></trkpt><trkpt lat="33.457785" lon="9.0075783"><ele>52.0</ele><time>2026-04-23T07:54:48.373Z</time></trkpt><trkpt lat="33.4578317" lon="9.0074633"><ele>52.0</ele><time>2026-04-23T07:54:49.374Z</time></trkpt><trkpt lat="33.457875" lon="9.007375"><ele>52.0</ele><time>2026-04-23T07:54:50.374Z</time></trkpt><trkpt lat="33.457915" lon="9.0073067"><ele>52.0</ele><time>2026-04-23T07:54:51.374Z</time></trkpt><trkpt lat="33.4579617" lon="9.00721"><ele>51.83333333333333</ele><time>2026-04-23T07:54:53.373Z</time></trkpt><trkpt lat="33.4580133" lon="9.0071083"><ele>51.666666666666664</ele><time>2026-04-23T07:54:55.374Z</time></trkpt><trkpt lat="33.4580383" lon="9.0070367"><ele>51.5</ele><time>2026-04-23T07:54:56.374Z</time></trkpt><trkpt lat="33.458065" lon="9.0069517"><ele>51.33333333333333</ele><time>2026-04-23T07:54:57.373Z</time></trkpt><trkpt lat="33.4581" lon="9.0068517"><ele>51.166666666666664</ele><time>2026-04-23T07:54:58.374Z</time></trkpt><trkpt lat="33.45814" lon="9.0067517"><ele>51.0</ele><time>2026-04-23T07:54:59.373Z</time></trkpt><trkpt lat="33.4581833" lon="9.0066517"><ele>51.0</ele><time>2026-04-23T07:55:00.374Z</time></trkpt><trkpt lat="33.4582283" lon="9.00655"><ele>51.0</ele><time>2026-04-23T07:55:01.373Z</time></trkpt><trkpt lat="33.4582733" lon="9.0064517"><ele>51.0</ele><time>2026-04-23T07:55:02.374Z</time></trkpt><trkpt lat="33.4583233" lon="9.0063533"><ele>51.0</ele><time>2026-04-23T07:55:03.373Z</time></trkpt><trkpt lat="33.4583767" lon="9.00625"><ele>51.0</ele><time>2026-04-23T07:55:04.373Z</time></trkpt><trkpt lat="33.458425" lon="9.0061467"><ele>51.0</ele><time>2026-04-23T07:55:05.373Z</time></trkpt><trkpt lat="33.4584783" lon="9.00604"><ele>51.0</ele><time>2026-04-23T07:55:06.373Z</time></trkpt><trkpt lat="33.4585267" lon="9.0059233"><ele>51.0</ele><time>2026-04-23T07:55:07.374Z</time></trkpt><trkpt lat="33.45858" lon="9.0058017"><ele>51.0</ele><time>2026-04-23T07:55:08.373Z</time></trkpt><trkpt lat="33.458635" lon="9.0056833"><ele>51.0</ele><time>2026-04-23T07:55:09.373Z</time></trkpt><trkpt lat="33.45869" lon="9.0055583"><ele>51.0</ele><time>2026-04-23T07:55:10.374Z</time></trkpt><trkpt lat="33.4587433" lon="9.0054383"><ele>51.0</ele><time>2026-04-23T07:55:11.373Z</time></trkpt><trkpt lat="33.4588017" lon="9.005305"><ele>51.0</ele><time>2026-04-23T07:55:12.374Z</time></trkpt><trkpt lat="33.4588583" lon="9.0051717"><ele>51.0</ele><time>2026-04-23T07:55:13.374Z</time></trkpt><trkpt lat="33.4589167" lon="9.005035"><ele>50.75</ele><time>2026-04-23T07:55:14.373Z</time></trkpt><trkpt lat="33.4589767" lon="9.004895"><ele>50.5</ele><time>2026-04-23T07:55:15.373Z</time></trkpt><trkpt lat="33.4590467" lon="9.004755"><ele>50.25</ele><time>2026-04-23T07:55:16.373Z</time></trkpt><trkpt lat="33.4591033" lon="9.004605"><ele>50.0</ele><time>2026-04-23T07:55:17.374Z</time></trkpt><trkpt lat="33.459165" lon="9.0044517"><ele>50.0</ele><time>2026-04-23T07:55:18.374Z</time></trkpt><trkpt lat="33.45922" lon="9.0043083"><ele>50.0</ele><time>2026-04-23T07:55:19.373Z</time></trkpt><trkpt lat="33.45928" lon="9.004165"><ele>50.0</ele><time>2026-04-23T07:55:20.373Z</time></trkpt><trkpt lat="33.459345" lon="9.0040167"><ele>50.0</ele><time>2026-04-23T07:55:21.373Z</time></trkpt><trkpt lat="33.4594067" lon="9.003865"><ele>50.0</ele><time>2026-04-23T07:55:22.374Z</time></trkpt><trkpt lat="33.459475" lon="9.0037067"><ele>50.0</ele><time>2026-04-23T07:55:23.373Z</time></trkpt><trkpt lat="33.45955" lon="9.0035483"><ele>50.0</ele><time>2026-04-23T07:55:24.374Z</time></trkpt><trkpt lat="33.45962" lon="9.0033883"><ele>49.66666666666667</ele><time>2026-04-23T07:55:25.373Z</time></trkpt><trkpt lat="33.4596933" lon="9.0032317"><ele>49.33333333333333</ele><time>2026-04-23T07:55:26.374Z</time></trkpt><trkpt lat="33.4597633" lon="9.0030683"><ele>49.0</ele><time>2026-04-23T07:55:27.373Z</time></trkpt><trkpt lat="33.459835" lon="9.0029067"><ele>49.0</ele><time>2026-04-23T07:55:28.373Z</time></trkpt><trkpt lat="33.45991" lon="9.0027417"><ele>49.0</ele><time>2026-04-23T07:55:29.373Z</time></trkpt><trkpt lat="33.459985" lon="9.002575"><ele>49.0</ele><time>2026-04-23T07:55:30.373Z</time></trkpt><trkpt lat="33.460055" lon="9.0024033"><ele>49.0</ele><time>2026-04-23T07:55:31.373Z</time></trkpt><trkpt lat="33.4601267" lon="9.0022333"><ele>49.0</ele><time>2026-04-23T07:55:32.374Z</time></trkpt><trkpt lat="33.4602" lon="9.0020583"><ele>49.0</ele><time>2026-04-23T07:55:33.373Z</time></trkpt><trkpt lat="33.4602817" lon="9.0018783"><ele>49.0</ele><time>2026-04-23T07:55:34.374Z</time></trkpt><trkpt lat="33.4603483" lon="9.0016983"><ele>49.0</ele><time>2026-04-23T07:55:35.373Z</time></trkpt><trkpt lat="33.4604133" lon="9.0015167"><ele>49.0</ele><time>2026-04-23T07:55:36.373Z</time></trkpt><trkpt lat="33.4604833" lon="9.0013333"><ele>49.0</ele><time>2026-04-23T07:55:37.373Z</time></trkpt><trkpt lat="33.46054" lon="9.0011567"><ele>49.0</ele><time>2026-04-23T07:55:38.374Z</time></trkpt><trkpt lat="33.4606067" lon="9.0009817"><ele>49.0</ele><time>2026-04-23T07:55:39.374Z</time></trkpt><trkpt lat="33.4606833" lon="9.0008067"><ele>49.0</ele><time>2026-04-23T07:55:40.373Z</time></trkpt><trkpt lat="33.4607533" lon="9.0006233"><ele>49.0</ele><time>2026-04-23T07:55:41.374Z</time></trkpt><trkpt lat="33.460835" lon="9.000435"><ele>49.0</ele><time>2026-04-23T07:55:42.374Z</time></trkpt><trkpt lat="33.4609033" lon="9.0002483"><ele>49.0</ele><time>2026-04-23T07:55:43.374Z</time></trkpt><trkpt lat="33.4609733" lon="9.0000633"><ele>49.0</ele><time>2026-04-23T07:55:44.373Z</time></trkpt><trkpt lat="33.4610367" lon="8.9998683"><ele>49.0</ele><time>2026-04-23T07:55:45.373Z</time></trkpt><trkpt lat="33.461105" lon="8.9996767"><ele>49.0</ele><time>2026-04-23T07:55:46.374Z</time></trkpt><trkpt lat="33.4611783" lon="8.9994817"><ele>49.0</ele><time>2026-04-23T07:55:47.374Z</time></trkpt><trkpt lat="33.46125" lon="8.9992783"><ele>49.0</ele><time>2026-04-23T07:55:48.374Z</time></trkpt><trkpt lat="33.461325" lon="8.9990783"><ele>49.33333333333333</ele><time>2026-04-23T07:55:49.374Z</time></trkpt><trkpt lat="33.4614033" lon="8.9988717"><ele>49.66666666666667</ele><time>2026-04-23T07:55:50.373Z</time></trkpt><trkpt lat="33.4614733" lon="8.9986583"><ele>50.0</ele><time>2026-04-23T07:55:51.374Z</time></trkpt><trkpt lat="33.461545" lon="8.9984417"><ele>49.333333333333336</ele><time>2026-04-23T07:55:52.374Z</time></trkpt><trkpt lat="33.4616067" lon="8.9982317"><ele>48.66666666666667</ele><time>2026-04-23T07:55:53.374Z</time></trkpt><trkpt lat="33.461665" lon="8.998015"><ele>48.0</ele><time>2026-04-23T07:55:54.373Z</time></trkpt><trkpt lat="33.461725" lon="8.9978"><ele>48.0</ele><time>2026-04-23T07:55:55.374Z</time></trkpt><trkpt lat="33.4617867" lon="8.997595"><ele>48.0</ele><time>2026-04-23T07:55:56.374Z</time></trkpt><trkpt lat="33.4618467" lon="8.9973783"><ele>48.0</ele><time>2026-04-23T07:55:57.374Z</time></trkpt><trkpt lat="33.4619033" lon="8.9971567"><ele>48.33333333333333</ele><time>2026-04-23T07:55:58.374Z</time></trkpt><trkpt lat="33.4619617" lon="8.996935"><ele>48.666666666666664</ele><time>2026-04-23T07:55:59.374Z</time></trkpt><trkpt lat="33.46202" lon="8.99672"><ele>49.0</ele><time>2026-04-23T07:56:00.374Z</time></trkpt><trkpt lat="33.46208" lon="8.9964967"><ele>49.0</ele><time>2026-04-23T07:56:01.374Z</time></trkpt><trkpt lat="33.462135" lon="8.99627"><ele>49.0</ele><time>2026-04-23T07:56:02.373Z</time></trkpt><trkpt lat="33.4621967" lon="8.99605"><ele>49.0</ele><time>2026-04-23T07:56:03.374Z</time></trkpt><trkpt lat="33.4622667" lon="8.9958233"><ele>48.666666666666664</ele><time>2026-04-23T07:56:04.373Z</time></trkpt><trkpt lat="33.4623383" lon="8.9955967"><ele>48.33333333333333</ele><time>2026-04-23T07:56:05.374Z</time></trkpt><trkpt lat="33.4623983" lon="8.9953667"><ele>48.0</ele><time>2026-04-23T07:56:06.373Z</time></trkpt><trkpt lat="33.4624567" lon="8.9951283"><ele>47.333333333333336</ele><time>2026-04-23T07:56:07.373Z</time></trkpt><trkpt lat="33.4625217" lon="8.9948917"><ele>46.66666666666667</ele><time>2026-04-23T07:56:08.373Z</time></trkpt><trkpt lat="33.4625933" lon="8.9946617"><ele>46.0</ele><time>2026-04-23T07:56:09.374Z</time></trkpt><trkpt lat="33.4626667" lon="8.9944383"><ele>46.0</ele><time>2026-04-23T07:56:10.373Z</time></trkpt><trkpt lat="33.46273" lon="8.9942067"><ele>46.0</ele><time>2026-04-23T07:56:11.374Z</time></trkpt><trkpt lat="33.4627933" lon="8.9939683"><ele>46.0</ele><time>2026-04-23T07:56:12.373Z</time></trkpt><trkpt lat="33.4628567" lon="8.99372"><ele>46.0</ele><time>2026-04-23T07:56:13.373Z</time></trkpt><trkpt lat="33.4629233" lon="8.99348"><ele>46.0</ele><time>2026-04-23T07:56:14.374Z</time></trkpt><trkpt lat="33.4629833" lon="8.9932367"><ele>46.0</ele><time>2026-04-23T07:56:15.373Z</time></trkpt><trkpt lat="33.4630483" lon="8.99299"><ele>45.66666666666667</ele><time>2026-04-23T07:56:16.373Z</time></trkpt><trkpt lat="33.46311" lon="8.99274"><ele>45.333333333333336</ele><time>2026-04-23T07:56:17.374Z</time></trkpt><trkpt lat="33.46318" lon="8.9924933"><ele>45.0</ele><time>2026-04-23T07:56:18.374Z</time></trkpt><trkpt lat="33.4632367" lon="8.992255"><ele>45.0</ele><time>2026-04-23T07:56:19.373Z</time></trkpt><trkpt lat="33.4632917" lon="8.9920383"><ele>45.0</ele><time>2026-04-23T07:56:20.373Z</time></trkpt><trkpt lat="33.46334" lon="8.99183"><ele>45.0</ele><time>2026-04-23T07:56:21.373Z</time></trkpt><trkpt lat="33.463395" lon="8.9916417"><ele>45.333333333333336</ele><time>2026-04-23T07:56:22.373Z</time></trkpt><trkpt lat="33.4634583" lon="8.9914617"><ele>45.66666666666667</ele><time>2026-04-23T07:56:23.373Z</time></trkpt><trkpt lat="33.4635133" lon="8.991275"><ele>46.0</ele><time>2026-04-23T07:56:24.373Z</time></trkpt><trkpt lat="33.4635683" lon="8.991085"><ele>46.0</ele><time>2026-04-23T07:56:25.374Z</time></trkpt><trkpt lat="33.4636233" lon="8.9908883"><ele>46.0</ele><time>2026-04-23T07:56:26.373Z</time></trkpt><trkpt lat="33.463685" lon="8.9906883"><ele>46.0</ele><time>2026-04-23T07:56:27.373Z</time></trkpt><trkpt lat="33.4637517" lon="8.990485"><ele>46.333333333333336</ele><time>2026-04-23T07:56:28.374Z</time></trkpt><trkpt lat="33.4638267" lon="8.9902767"><ele>46.666666666666664</ele><time>2026-04-23T07:56:29.373Z</time></trkpt><trkpt lat="33.463905" lon="8.9900717"><ele>47.0</ele><time>2026-04-23T07:56:30.374Z</time></trkpt><trkpt lat="33.4639917" lon="8.9898667"><ele>47.0</ele><time>2026-04-23T07:56:31.374Z</time></trkpt><trkpt lat="33.4640817" lon="8.9896517"><ele>47.0</ele><time>2026-04-23T07:56:32.374Z</time></trkpt><trkpt lat="33.4641833" lon="8.9894417"><ele>47.0</ele><time>2026-04-23T07:56:33.373Z</time></trkpt><trkpt lat="33.4642833" lon="8.9892267"><ele>46.666666666666664</ele><time>2026-04-23T07:56:34.374Z</time></trkpt><trkpt lat="33.464385" lon="8.9890083"><ele>46.333333333333336</ele><time>2026-04-23T07:56:35.374Z</time></trkpt><trkpt lat="33.4644767" lon="8.98878"><ele>46.0</ele><time>2026-04-23T07:56:36.373Z</time></trkpt><trkpt lat="33.464575" lon="8.98856"><ele>45.333333333333336</ele><time>2026-04-23T07:56:37.374Z</time></trkpt><trkpt lat="33.4646783" lon="8.9883383"><ele>44.666666666666664</ele><time>2026-04-23T07:56:38.373Z</time></trkpt><trkpt lat="33.4647833" lon="8.98811"><ele>44.0</ele><time>2026-04-23T07:56:39.374Z</time></trkpt><trkpt lat="33.46489" lon="8.9878783"><ele>44.0</ele><time>2026-04-23T07:56:40.373Z</time></trkpt><trkpt lat="33.465" lon="8.9876483"><ele>44.0</ele><time>2026-04-23T07:56:41.373Z</time></trkpt><trkpt lat="33.46511" lon="8.9874217"><ele>44.0</ele><time>2026-04-23T07:56:42.374Z</time></trkpt><trkpt lat="33.4652183" lon="8.9871967"><ele>44.33333333333333</ele><time>2026-04-23T07:56:43.373Z</time></trkpt><trkpt lat="33.465325" lon="8.98697"><ele>44.666666666666664</ele><time>2026-04-23T07:56:44.374Z</time></trkpt><trkpt lat="33.4654317" lon="8.9867333"><ele>45.0</ele><time>2026-04-23T07:56:45.373Z</time></trkpt><trkpt lat="33.4655367" lon="8.9864967"><ele>44.0</ele><time>2026-04-23T07:56:46.373Z</time></trkpt><trkpt lat="33.4656417" lon="8.98626"><ele>43.0</ele><time>2026-04-23T07:56:47.374Z</time></trkpt><trkpt lat="33.465755" lon="8.98603"><ele>42.0</ele><time>2026-04-23T07:56:48.373Z</time></trkpt><trkpt lat="33.4658583" lon="8.9857917"><ele>42.0</ele><time>2026-04-23T07:56:49.374Z</time></trkpt><trkpt lat="33.4659667" lon="8.985555"><ele>42.0</ele><time>2026-04-23T07:56:50.374Z</time></trkpt><trkpt lat="33.46607" lon="8.985315"><ele>42.0</ele><time>2026-04-23T07:56:51.373Z</time></trkpt><trkpt lat="33.4661833" lon="8.9850767"><ele>42.0</ele><time>2026-04-23T07:56:52.373Z</time></trkpt><trkpt lat="33.4662967" lon="8.98484"><ele>42.0</ele><time>2026-04-23T07:56:53.373Z</time></trkpt><trkpt lat="33.466405" lon="8.9845983"><ele>42.0</ele><time>2026-04-23T07:56:54.373Z</time></trkpt><trkpt lat="33.466515" lon="8.9843667"><ele>41.5</ele><time>2026-04-23T07:56:55.373Z</time></trkpt><trkpt lat="33.4666233" lon="8.98412"><ele>41.0</ele><time>2026-04-23T07:56:56.374Z</time></trkpt><trkpt lat="33.4667333" lon="8.9838733"><ele>41.0</ele><time>2026-04-23T07:56:57.374Z</time></trkpt><trkpt lat="33.4668417" lon="8.98363"><ele>41.0</ele><time>2026-04-23T07:56:58.373Z</time></trkpt><trkpt lat="33.466955" lon="8.9833983"><ele>41.666666666666664</ele><time>2026-04-23T07:56:59.373Z</time></trkpt><trkpt lat="33.46705" lon="8.9831583"><ele>42.333333333333336</ele><time>2026-04-23T07:57:00.374Z</time></trkpt><trkpt lat="33.4671567" lon="8.982925"><ele>43.0</ele><time>2026-04-23T07:57:01.373Z</time></trkpt><trkpt lat="33.4672667" lon="8.9826933"><ele>42.333333333333336</ele><time>2026-04-23T07:57:02.373Z</time></trkpt><trkpt lat="33.4673717" lon="8.98246"><ele>41.666666666666664</ele><time>2026-04-23T07:57:03.373Z</time></trkpt><trkpt lat="33.4674817" lon="8.9822267"><ele>41.0</ele><time>2026-04-23T07:57:04.373Z</time></trkpt><trkpt lat="33.467595" lon="8.98199"><ele>41.0</ele><time>2026-04-23T07:57:05.374Z</time></trkpt><trkpt lat="33.4677067" lon="8.9817533"><ele>41.0</ele><time>2026-04-23T07:57:06.373Z</time></trkpt><trkpt lat="33.46781" lon="8.9815167"><ele>41.0</ele><time>2026-04-23T07:57:07.374Z</time></trkpt><trkpt lat="33.4679117" lon="8.9812933"><ele>41.0</ele><time>2026-04-23T07:57:08.373Z</time></trkpt><trkpt lat="33.46801" lon="8.981075"><ele>41.0</ele><time>2026-04-23T07:57:09.374Z</time></trkpt><trkpt lat="33.468115" lon="8.98087"><ele>41.666666666666664</ele><time>2026-04-23T07:57:10.374Z</time></trkpt><trkpt lat="33.4682033" lon="8.9806717"><ele>42.333333333333336</ele><time>2026-04-23T07:57:11.373Z</time></trkpt><trkpt lat="33.46829" lon="8.9804833"><ele>43.0</ele><time>2026-04-23T07:57:12.374Z</time></trkpt><trkpt lat="33.4683683" lon="8.980295"><ele>43.0</ele><time>2026-04-23T07:57:13.373Z</time></trkpt><trkpt lat="33.4684533" lon="8.9801217"><ele>43.0</ele><time>2026-04-23T07:57:14.374Z</time></trkpt><trkpt lat="33.4685367" lon="8.9799467"><ele>43.0</ele><time>2026-04-23T07:57:15.373Z</time></trkpt><trkpt lat="33.4686117" lon="8.9797767"><ele>42.66666666666667</ele><time>2026-04-23T07:57:16.374Z</time></trkpt><trkpt lat="33.4686833" lon="8.9796133"><ele>42.333333333333336</ele><time>2026-04-23T07:57:17.374Z</time></trkpt><trkpt lat="33.468755" lon="8.9794483"><ele>42.0</ele><time>2026-04-23T07:57:18.373Z</time></trkpt><trkpt lat="33.4688267" lon="8.9792783"><ele>41.666666666666664</ele><time>2026-04-23T07:57:19.373Z</time></trkpt><trkpt lat="33.468895" lon="8.9791117"><ele>41.33333333333333</ele><time>2026-04-23T07:57:20.374Z</time></trkpt><trkpt lat="33.46896" lon="8.978945"><ele>41.0</ele><time>2026-04-23T07:57:21.374Z</time></trkpt><trkpt lat="33.4690217" lon="8.9787867"><ele>41.0</ele><time>2026-04-23T07:57:22.373Z</time></trkpt><trkpt lat="33.4690983" lon="8.9786333"><ele>41.0</ele><time>2026-04-23T07:57:23.373Z</time></trkpt><trkpt lat="33.4691783" lon="8.978475"><ele>41.0</ele><time>2026-04-23T07:57:24.374Z</time></trkpt><trkpt lat="33.4692467" lon="8.9783083"><ele>41.33333333333333</ele><time>2026-04-23T07:57:25.374Z</time></trkpt><trkpt lat="33.469325" lon="8.97815"><ele>41.666666666666664</ele><time>2026-04-23T07:57:26.373Z</time></trkpt><trkpt lat="33.4693983" lon="8.9779933"><ele>42.0</ele><time>2026-04-23T07:57:27.374Z</time></trkpt><trkpt lat="33.4694683" lon="8.977835"><ele>42.0</ele><time>2026-04-23T07:57:28.373Z</time></trkpt><trkpt lat="33.4695317" lon="8.9776783"><ele>42.0</ele><time>2026-04-23T07:57:29.373Z</time></trkpt><trkpt lat="33.469605" lon="8.9775317"><ele>42.0</ele><time>2026-04-23T07:57:30.374Z</time></trkpt><trkpt lat="33.46968" lon="8.9773867"><ele>42.0</ele><time>2026-04-23T07:57:31.373Z</time></trkpt><trkpt lat="33.4697517" lon="8.9772317"><ele>42.333333333333336</ele><time>2026-04-23T07:57:32.374Z</time></trkpt><trkpt lat="33.4698267" lon="8.97708"><ele>42.66666666666667</ele><time>2026-04-23T07:57:33.374Z</time></trkpt><trkpt lat="33.469905" lon="8.9769133"><ele>43.0</ele><time>2026-04-23T07:57:34.374Z</time></trkpt><trkpt lat="33.4699967" lon="8.9767417"><ele>43.0</ele><time>2026-04-23T07:57:35.374Z</time></trkpt><trkpt lat="33.4700833" lon="8.976565"><ele>43.0</ele><time>2026-04-23T07:57:36.373Z</time></trkpt><trkpt lat="33.4701717" lon="8.97638"><ele>43.0</ele><time>2026-04-23T07:57:37.374Z</time></trkpt><trkpt lat="33.4702733" lon="8.9761933"><ele>43.0</ele><time>2026-04-23T07:57:38.374Z</time></trkpt><trkpt lat="33.4703867" lon="8.9760083"><ele>43.0</ele><time>2026-04-23T07:57:39.373Z</time></trkpt><trkpt lat="33.4704967" lon="8.97582"><ele>43.0</ele><time>2026-04-23T07:57:40.373Z</time></trkpt><trkpt lat="33.4706083" lon="8.9756233"><ele>43.0</ele><time>2026-04-23T07:57:41.374Z</time></trkpt><trkpt lat="33.4707167" lon="8.9754217"><ele>43.0</ele><time>2026-04-23T07:57:42.373Z</time></trkpt><trkpt lat="33.470815" lon="8.97522"><ele>43.0</ele><time>2026-04-23T07:57:43.373Z</time></trkpt><trkpt lat="33.470905" lon="8.975015"><ele>43.66666666666667</ele><time>2026-04-23T07:57:44.374Z</time></trkpt><trkpt lat="33.4709883" lon="8.9748183"><ele>44.333333333333336</ele><time>2026-04-23T07:57:45.373Z</time></trkpt><trkpt lat="33.4710733" lon="8.9746283"><ele>45.0</ele><time>2026-04-23T07:57:46.373Z</time></trkpt><trkpt lat="33.4711533" lon="8.974425"><ele>45.0</ele><time>2026-04-23T07:57:47.373Z</time></trkpt><trkpt lat="33.47124" lon="8.9742283"><ele>45.0</ele><time>2026-04-23T07:57:48.374Z</time></trkpt><trkpt lat="33.4713167" lon="8.9740417"><ele>45.0</ele><time>2026-04-23T07:57:49.374Z</time></trkpt><trkpt lat="33.4713933" lon="8.97385"><ele>45.0</ele><time>2026-04-23T07:57:50.374Z</time></trkpt><trkpt lat="33.4714717" lon="8.9736567"><ele>45.0</ele><time>2026-04-23T07:57:51.373Z</time></trkpt><trkpt lat="33.4715533" lon="8.9734567"><ele>45.0</ele><time>2026-04-23T07:57:52.373Z</time></trkpt><trkpt lat="33.47163" lon="8.97327"><ele>44.666666666666664</ele><time>2026-04-23T07:57:53.374Z</time></trkpt><trkpt lat="33.4717017" lon="8.9730817"><ele>44.33333333333333</ele><time>2026-04-23T07:57:54.373Z</time></trkpt><trkpt lat="33.471775" lon="8.97291"><ele>44.0</ele><time>2026-04-23T07:57:55.374Z</time></trkpt><trkpt lat="33.4718283" lon="8.97275"><ele>44.0</ele><time>2026-04-23T07:57:56.374Z</time></trkpt><trkpt lat="33.471875" lon="8.9726167"><ele>44.0</ele><time>2026-04-23T07:57:57.374Z</time></trkpt><trkpt lat="33.471915" lon="8.9724933"><ele>44.0</ele><time>2026-04-23T07:57:58.374Z</time></trkpt><trkpt lat="33.4719583" lon="8.9723783"><ele>44.0</ele><time>2026-04-23T07:57:59.373Z</time></trkpt><trkpt lat="33.47199" lon="8.9722733"><ele>44.0</ele><time>2026-04-23T07:58:00.373Z</time></trkpt><trkpt lat="33.4720167" lon="8.972185"><ele>43.83333333333333</ele><time>2026-04-23T07:58:01.373Z</time></trkpt><trkpt lat="33.472055" lon="8.9721017"><ele>43.666666666666664</ele><time>2026-04-23T07:58:02.374Z</time></trkpt><trkpt lat="33.4720883" lon="8.9720233"><ele>43.5</ele><time>2026-04-23T07:58:03.374Z</time></trkpt><trkpt lat="33.4721183" lon="8.9719433"><ele>43.333333333333336</ele><time>2026-04-23T07:58:04.374Z</time></trkpt><trkpt lat="33.4721517" lon="8.971855"><ele>43.16666666666667</ele><time>2026-04-23T07:58:05.373Z</time></trkpt><trkpt lat="33.4721917" lon="8.971765"><ele>43.0</ele><time>2026-04-23T07:58:06.374Z</time></trkpt><trkpt lat="33.4722417" lon="8.9716783"><ele>43.4</ele><time>2026-04-23T07:58:07.373Z</time></trkpt><trkpt lat="33.4722867" lon="8.9715817"><ele>43.8</ele><time>2026-04-23T07:58:08.373Z</time></trkpt><trkpt lat="33.472335" lon="8.9714733"><ele>44.2</ele><time>2026-04-23T07:58:09.374Z</time></trkpt><trkpt lat="33.472385" lon="8.971355"><ele>44.6</ele><time>2026-04-23T07:58:10.374Z</time></trkpt><trkpt lat="33.4724333" lon="8.9712267"><ele>45.0</ele><time>2026-04-23T07:58:11.374Z</time></trkpt><trkpt lat="33.4724833" lon="8.97109"><ele>45.0</ele><time>2026-04-23T07:58:12.374Z</time></trkpt><trkpt lat="33.4725383" lon="8.9709433"><ele>45.0</ele><time>2026-04-23T07:58:13.373Z</time></trkpt><trkpt lat="33.4726" lon="8.9708067"><ele>45.0</ele><time>2026-04-23T07:58:14.373Z</time></trkpt><trkpt lat="33.4726467" lon="8.9706467"><ele>45.0</ele><time>2026-04-23T07:58:15.374Z</time></trkpt><trkpt lat="33.47269" lon="8.970485"><ele>44.666666666666664</ele><time>2026-04-23T07:58:16.374Z</time></trkpt><trkpt lat="33.4727233" lon="8.97032"><ele>44.33333333333333</ele><time>2026-04-23T07:58:17.374Z</time></trkpt><trkpt lat="33.47276" lon="8.9701383"><ele>44.0</ele><time>2026-04-23T07:58:18.373Z</time></trkpt><trkpt lat="33.4727983" lon="8.9699533"><ele>44.666666666666664</ele><time>2026-04-23T07:58:19.374Z</time></trkpt><trkpt lat="33.4728383" lon="8.9697717"><ele>45.333333333333336</ele><time>2026-04-23T07:58:20.373Z</time></trkpt><trkpt lat="33.4728767" lon="8.9695783"><ele>46.0</ele><time>2026-04-23T07:58:21.373Z</time></trkpt><trkpt lat="33.4729117" lon="8.969385"><ele>45.333333333333336</ele><time>2026-04-23T07:58:22.373Z</time></trkpt><trkpt lat="33.4729517" lon="8.969185"><ele>44.666666666666664</ele><time>2026-04-23T07:58:23.374Z</time></trkpt><trkpt lat="33.4729833" lon="8.9689867"><ele>44.0</ele><time>2026-04-23T07:58:24.374Z</time></trkpt><trkpt lat="33.4730267" lon="8.9687883"><ele>44.0</ele><time>2026-04-23T07:58:25.374Z</time></trkpt><trkpt lat="33.4730667" lon="8.9685867"><ele>44.0</ele><time>2026-04-23T07:58:26.374Z</time></trkpt><trkpt lat="33.4731117" lon="8.9683867"><ele>44.0</ele><time>2026-04-23T07:58:27.373Z</time></trkpt><trkpt lat="33.473155" lon="8.9681783"><ele>43.666666666666664</ele><time>2026-04-23T07:58:28.373Z</time></trkpt><trkpt lat="33.4732017" lon="8.9679683"><ele>43.333333333333336</ele><time>2026-04-23T07:58:29.373Z</time></trkpt><trkpt lat="33.47324" lon="8.967755"><ele>43.0</ele><time>2026-04-23T07:58:30.373Z</time></trkpt><trkpt lat="33.47328" lon="8.9675383"><ele>43.0</ele><time>2026-04-23T07:58:31.374Z</time></trkpt><trkpt lat="33.4733233" lon="8.9673233"><ele>43.0</ele><time>2026-04-23T07:58:32.373Z</time></trkpt><trkpt lat="33.4733667" lon="8.967105"><ele>43.0</ele><time>2026-04-23T07:58:33.373Z</time></trkpt><trkpt lat="33.4734217" lon="8.9668817"><ele>43.66666666666667</ele><time>2026-04-23T07:58:34.374Z</time></trkpt><trkpt lat="33.4734617" lon="8.9666533"><ele>44.333333333333336</ele><time>2026-04-23T07:58:35.373Z</time></trkpt><trkpt lat="33.4735" lon="8.9664267"><ele>45.0</ele><time>2026-04-23T07:58:36.373Z</time></trkpt><trkpt lat="33.47355" lon="8.9661983"><ele>45.0</ele><time>2026-04-23T07:58:37.372Z</time></trkpt><trkpt lat="33.4735867" lon="8.9659717"><ele>45.0</ele><time>2026-04-23T07:58:38.372Z</time></trkpt><trkpt lat="33.4736383" lon="8.96574"><ele>45.0</ele><time>2026-04-23T07:58:39.372Z</time></trkpt><trkpt lat="33.4736867" lon="8.9655033"><ele>44.333333333333336</ele><time>2026-04-23T07:58:40.372Z</time></trkpt><trkpt lat="33.4737333" lon="8.9652667"><ele>43.66666666666667</ele><time>2026-04-23T07:58:41.372Z</time></trkpt><trkpt lat="33.47378" lon="8.9650283"><ele>43.0</ele><time>2026-04-23T07:58:42.372Z</time></trkpt><trkpt lat="33.47382" lon="8.9647867"><ele>43.0</ele><time>2026-04-23T07:58:43.372Z</time></trkpt><trkpt lat="33.47387" lon="8.9645367"><ele>43.0</ele><time>2026-04-23T07:58:44.373Z</time></trkpt><trkpt lat="33.4739267" lon="8.9642933"><ele>43.0</ele><time>2026-04-23T07:58:45.373Z</time></trkpt><trkpt lat="33.474" lon="8.9640533"><ele>43.0</ele><time>2026-04-23T07:58:46.372Z</time></trkpt><trkpt lat="33.4740667" lon="8.9638117"><ele>43.0</ele><time>2026-04-23T07:58:47.372Z</time></trkpt><trkpt lat="33.474125" lon="8.96357"><ele>43.0</ele><time>2026-04-23T07:58:48.372Z</time></trkpt><trkpt lat="33.4741817" lon="8.963325"><ele>43.0</ele><time>2026-04-23T07:58:49.373Z</time></trkpt><trkpt lat="33.4742383" lon="8.9630817"><ele>43.0</ele><time>2026-04-23T07:58:50.372Z</time></trkpt><trkpt lat="33.4743033" lon="8.96284"><ele>43.0</ele><time>2026-04-23T07:58:51.373Z</time></trkpt><trkpt lat="33.4743617" lon="8.9625967"><ele>43.333333333333336</ele><time>2026-04-23T07:58:52.372Z</time></trkpt><trkpt lat="33.4744233" lon="8.9623383"><ele>43.666666666666664</ele><time>2026-04-23T07:58:53.373Z</time></trkpt><trkpt lat="33.474485" lon="8.9620833"><ele>44.0</ele><time>2026-04-23T07:58:54.372Z</time></trkpt><trkpt lat="33.4745517" lon="8.9618283"><ele>42.666666666666664</ele><time>2026-04-23T07:58:55.373Z</time></trkpt><trkpt lat="33.47463" lon="8.96158"><ele>41.333333333333336</ele><time>2026-04-23T07:58:56.372Z</time></trkpt><trkpt lat="33.474705" lon="8.96133"><ele>40.0</ele><time>2026-04-23T07:58:57.373Z</time></trkpt><trkpt lat="33.4747783" lon="8.961085"><ele>40.333333333333336</ele><time>2026-04-23T07:58:58.372Z</time></trkpt><trkpt lat="33.4748683" lon="8.9608367"><ele>40.666666666666664</ele><time>2026-04-23T07:58:59.372Z</time></trkpt><trkpt lat="33.4749483" lon="8.96059"><ele>41.0</ele><time>2026-04-23T07:59:00.372Z</time></trkpt><trkpt lat="33.4750167" lon="8.9603383"><ele>41.0</ele><time>2026-04-23T07:59:01.372Z</time></trkpt><trkpt lat="33.4750933" lon="8.9600933"><ele>41.0</ele><time>2026-04-23T07:59:02.372Z</time></trkpt><trkpt lat="33.47517" lon="8.9598583"><ele>41.0</ele><time>2026-04-23T07:59:03.372Z</time></trkpt><trkpt lat="33.4752433" lon="8.9596317"><ele>41.0</ele><time>2026-04-23T07:59:04.373Z</time></trkpt><trkpt lat="33.475315" lon="8.9593933"><ele>41.0</ele><time>2026-04-23T07:59:05.372Z</time></trkpt><trkpt lat="33.4753967" lon="8.9591633"><ele>41.0</ele><time>2026-04-23T07:59:06.373Z</time></trkpt><trkpt lat="33.4754733" lon="8.9589217"><ele>40.33333333333333</ele><time>2026-04-23T07:59:07.373Z</time></trkpt><trkpt lat="33.4755383" lon="8.958675"><ele>39.666666666666664</ele><time>2026-04-23T07:59:08.373Z</time></trkpt><trkpt lat="33.4756017" lon="8.95843"><ele>39.0</ele><time>2026-04-23T07:59:09.372Z</time></trkpt><trkpt lat="33.4756617" lon="8.9581967"><ele>39.0</ele><time>2026-04-23T07:59:10.373Z</time></trkpt><trkpt lat="33.4757183" lon="8.95795"><ele>39.0</ele><time>2026-04-23T07:59:11.373Z</time></trkpt><trkpt lat="33.475775" lon="8.9576983"><ele>39.0</ele><time>2026-04-23T07:59:12.372Z</time></trkpt><trkpt lat="33.4758283" lon="8.9574433"><ele>39.0</ele><time>2026-04-23T07:59:13.373Z</time></trkpt><trkpt lat="33.4758683" lon="8.95719"><ele>39.0</ele><time>2026-04-23T07:59:14.373Z</time></trkpt><trkpt lat="33.47591" lon="8.9569367"><ele>39.0</ele><time>2026-04-23T07:59:15.373Z</time></trkpt><trkpt lat="33.4759467" lon="8.9566833"><ele>38.666666666666664</ele><time>2026-04-23T07:59:16.372Z</time></trkpt><trkpt lat="33.4759883" lon="8.9564283"><ele>38.33333333333333</ele><time>2026-04-23T07:59:17.373Z</time></trkpt><trkpt lat="33.47603" lon="8.95617"><ele>38.0</ele><time>2026-04-23T07:59:18.373Z</time></trkpt><trkpt lat="33.47608" lon="8.9559183"><ele>38.666666666666664</ele><time>2026-04-23T07:59:19.372Z</time></trkpt><trkpt lat="33.4761283" lon="8.9556617"><ele>39.333333333333336</ele><time>2026-04-23T07:59:20.373Z</time></trkpt><trkpt lat="33.4761817" lon="8.9554117"><ele>40.0</ele><time>2026-04-23T07:59:21.372Z</time></trkpt><trkpt lat="33.47623" lon="8.95517"><ele>40.0</ele><time>2026-04-23T07:59:22.373Z</time></trkpt><trkpt lat="33.476275" lon="8.954945"><ele>40.0</ele><time>2026-04-23T07:59:23.372Z</time></trkpt><trkpt lat="33.47632" lon="8.9547267"><ele>40.0</ele><time>2026-04-23T07:59:24.372Z</time></trkpt><trkpt lat="33.4763633" lon="8.95453"><ele>40.0</ele><time>2026-04-23T07:59:25.372Z</time></trkpt><trkpt lat="33.4764017" lon="8.9543633"><ele>40.0</ele><time>2026-04-23T07:59:26.372Z</time></trkpt><trkpt lat="33.47643" lon="8.9542117"><ele>40.0</ele><time>2026-04-23T07:59:27.373Z</time></trkpt><trkpt lat="33.47645" lon="8.954085"><ele>40.0</ele><time>2026-04-23T07:59:28.372Z</time></trkpt><trkpt lat="33.4764683" lon="8.953975"><ele>40.16666666666667</ele><time>2026-04-23T07:59:29.372Z</time></trkpt><trkpt lat="33.47649" lon="8.9538833"><ele>40.333333333333336</ele><time>2026-04-23T07:59:30.372Z</time></trkpt><trkpt lat="33.4765133" lon="8.9537633"><ele>40.5</ele><time>2026-04-23T07:59:32.373Z</time></trkpt><trkpt lat="33.4765217" lon="8.95367"><ele>40.666666666666664</ele><time>2026-04-23T08:00:01.373Z</time></trkpt><trkpt lat="33.4765383" lon="8.9535467"><ele>40.83333333333333</ele><time>2026-04-23T08:00:03.372Z</time></trkpt><trkpt lat="33.4765533" lon="8.953465"><ele>41.0</ele><time>2026-04-23T08:00:04.373Z</time></trkpt><trkpt lat="33.4765733" lon="8.953365"><ele>41.0</ele><time>2026-04-23T08:00:05.373Z</time></trkpt><trkpt lat="33.4766017" lon="8.9532533"><ele>41.0</ele><time>2026-04-23T08:00:06.373Z</time></trkpt><trkpt lat="33.4766317" lon="8.95314"><ele>41.0</ele><time>2026-04-23T08:00:07.373Z</time></trkpt><trkpt lat="33.476665" lon="8.95302"><ele>41.0</ele><time>2026-04-23T08:00:08.372Z</time></trkpt><trkpt lat="33.4766967" lon="8.9528867"><ele>41.0</ele><time>2026-04-23T08:00:09.372Z</time></trkpt><trkpt lat="33.4767283" lon="8.9527467"><ele>41.0</ele><time>2026-04-23T08:00:10.373Z</time></trkpt><trkpt lat="33.4767617" lon="8.9525917"><ele>41.0</ele><time>2026-04-23T08:00:11.373Z</time></trkpt><trkpt lat="33.4768033" lon="8.9524383"><ele>41.0</ele><time>2026-04-23T08:00:12.373Z</time></trkpt><trkpt lat="33.476845" lon="8.9522817"><ele>41.0</ele><time>2026-04-23T08:00:13.373Z</time></trkpt><trkpt lat="33.4768817" lon="8.9521083"><ele>40.33333333333333</ele><time>2026-04-23T08:00:14.373Z</time></trkpt><trkpt lat="33.4769183" lon="8.9519283"><ele>39.666666666666664</ele><time>2026-04-23T08:00:15.372Z</time></trkpt><trkpt lat="33.476965" lon="8.95175"><ele>39.0</ele><time>2026-04-23T08:00:16.372Z</time></trkpt><trkpt lat="33.4770167" lon="8.9515683"><ele>39.0</ele><time>2026-04-23T08:00:17.373Z</time></trkpt><trkpt lat="33.4770767" lon="8.9513817"><ele>39.0</ele><time>2026-04-23T08:00:18.373Z</time></trkpt><trkpt lat="33.4771333" lon="8.95119"><ele>39.0</ele><time>2026-04-23T08:00:19.373Z</time></trkpt><trkpt lat="33.4771833" lon="8.9509983"><ele>38.333333333333336</ele><time>2026-04-23T08:00:20.372Z</time></trkpt><trkpt lat="33.4772367" lon="8.9508017"><ele>37.66666666666667</ele><time>2026-04-23T08:00:21.372Z</time></trkpt><trkpt lat="33.47729" lon="8.9506133"><ele>37.0</ele><time>2026-04-23T08:00:22.373Z</time></trkpt><trkpt lat="33.477355" lon="8.9504067"><ele>37.0</ele><time>2026-04-23T08:00:23.373Z</time></trkpt><trkpt lat="33.477415" lon="8.9502067"><ele>37.0</ele><time>2026-04-23T08:00:24.372Z</time></trkpt><trkpt lat="33.477475" lon="8.95"><ele>37.0</ele><time>2026-04-23T08:00:25.372Z</time></trkpt><trkpt lat="33.47754" lon="8.9497867"><ele>36.66666666666667</ele><time>2026-04-23T08:00:26.373Z</time></trkpt><trkpt lat="33.4776067" lon="8.9495733"><ele>36.333333333333336</ele><time>2026-04-23T08:00:27.373Z</time></trkpt><trkpt lat="33.477675" lon="8.9493583"><ele>36.0</ele><time>2026-04-23T08:00:28.373Z</time></trkpt><trkpt lat="33.4777417" lon="8.9491333"><ele>35.666666666666664</ele><time>2026-04-23T08:00:29.372Z</time></trkpt><trkpt lat="33.4778167" lon="8.94891"><ele>35.33333333333333</ele><time>2026-04-23T08:00:30.372Z</time></trkpt><trkpt lat="33.4778833" lon="8.9486917"><ele>35.0</ele><time>2026-04-23T08:00:31.373Z</time></trkpt><trkpt lat="33.4779533" lon="8.9484683"><ele>34.666666666666664</ele><time>2026-04-23T08:00:32.372Z</time></trkpt><trkpt lat="33.47803" lon="8.9482517"><ele>34.333333333333336</ele><time>2026-04-23T08:00:33.372Z</time></trkpt><trkpt lat="33.47811" lon="8.9480267"><ele>34.0</ele><time>2026-04-23T08:00:34.372Z</time></trkpt><trkpt lat="33.478195" lon="8.9478"><ele>34.0</ele><time>2026-04-23T08:00:35.373Z</time></trkpt><trkpt lat="33.4782817" lon="8.9475667"><ele>34.0</ele><time>2026-04-23T08:00:36.372Z</time></trkpt><trkpt lat="33.4783633" lon="8.94733"><ele>34.0</ele><time>2026-04-23T08:00:37.373Z</time></trkpt><trkpt lat="33.4784333" lon="8.947085"><ele>34.333333333333336</ele><time>2026-04-23T08:00:38.372Z</time></trkpt><trkpt lat="33.47851" lon="8.94684"><ele>34.666666666666664</ele><time>2026-04-23T08:00:39.372Z</time></trkpt><trkpt lat="33.4785883" lon="8.9465983"><ele>35.0</ele><time>2026-04-23T08:00:40.373Z</time></trkpt><trkpt lat="33.4786617" lon="8.946355"><ele>35.0</ele><time>2026-04-23T08:00:41.372Z</time></trkpt><trkpt lat="33.4787417" lon="8.9461167"><ele>35.0</ele><time>2026-04-23T08:00:42.372Z</time></trkpt><trkpt lat="33.4788267" lon="8.9458717"><ele>35.0</ele><time>2026-04-23T08:00:43.372Z</time></trkpt><trkpt lat="33.47891" lon="8.94564"><ele>35.0</ele><time>2026-04-23T08:00:44.373Z</time></trkpt><trkpt lat="33.4789983" lon="8.9454067"><ele>35.0</ele><time>2026-04-23T08:00:45.372Z</time></trkpt><trkpt lat="33.4791" lon="8.94518"><ele>35.0</ele><time>2026-04-23T08:00:46.372Z</time></trkpt><trkpt lat="33.479205" lon="8.9449567"><ele>35.666666666666664</ele><time>2026-04-23T08:00:47.373Z</time></trkpt><trkpt lat="33.4792917" lon="8.9447267"><ele>36.333333333333336</ele><time>2026-04-23T08:00:48.373Z</time></trkpt><trkpt lat="33.479375" lon="8.944485"><ele>37.0</ele><time>2026-04-23T08:00:49.373Z</time></trkpt><trkpt lat="33.4794567" lon="8.9442417"><ele>37.0</ele><time>2026-04-23T08:00:50.372Z</time></trkpt><trkpt lat="33.4795267" lon="8.943995"><ele>37.0</ele><time>2026-04-23T08:00:51.372Z</time></trkpt><trkpt lat="33.479585" lon="8.9437483"><ele>37.0</ele><time>2026-04-23T08:00:52.373Z</time></trkpt><trkpt lat="33.47965" lon="8.9434983"><ele>36.66666666666667</ele><time>2026-04-23T08:00:53.372Z</time></trkpt><trkpt lat="33.4797133" lon="8.9432433"><ele>36.333333333333336</ele><time>2026-04-23T08:00:54.372Z</time></trkpt><trkpt lat="33.4797817" lon="8.9429933"><ele>36.0</ele><time>2026-04-23T08:00:55.373Z</time></trkpt><trkpt lat="33.4798517" lon="8.9427517"><ele>36.333333333333336</ele><time>2026-04-23T08:00:56.373Z</time></trkpt><trkpt lat="33.4799333" lon="8.942505"><ele>36.66666666666667</ele><time>2026-04-23T08:00:57.372Z</time></trkpt><trkpt lat="33.4799967" lon="8.9422483"><ele>37.0</ele><time>2026-04-23T08:00:58.372Z</time></trkpt><trkpt lat="33.4800567" lon="8.9419883"><ele>37.0</ele><time>2026-04-23T08:00:59.373Z</time></trkpt><trkpt lat="33.4801233" lon="8.94173"><ele>37.0</ele><time>2026-04-23T08:01:00.373Z</time></trkpt><trkpt lat="33.480175" lon="8.941475"><ele>37.0</ele><time>2026-04-23T08:01:01.372Z</time></trkpt><trkpt lat="33.48024" lon="8.941215"><ele>37.0</ele><time>2026-04-23T08:01:02.372Z</time></trkpt><trkpt lat="33.4803" lon="8.940965"><ele>37.0</ele><time>2026-04-23T08:01:03.372Z</time></trkpt><trkpt lat="33.4803667" lon="8.9407167"><ele>37.0</ele><time>2026-04-23T08:01:04.372Z</time></trkpt><trkpt lat="33.4804333" lon="8.94044"><ele>36.5</ele><time>2026-04-23T08:01:05.372Z</time></trkpt><trkpt lat="33.4804983" lon="8.9401783"><ele>36.0</ele><time>2026-04-23T08:01:06.372Z</time></trkpt><trkpt lat="33.480555" lon="8.9399167"><ele>36.0</ele><time>2026-04-23T08:01:07.372Z</time></trkpt><trkpt lat="33.4806167" lon="8.939655"><ele>36.0</ele><time>2026-04-23T08:01:08.372Z</time></trkpt><trkpt lat="33.48067" lon="8.9393933"><ele>35.5</ele><time>2026-04-23T08:01:09.373Z</time></trkpt><trkpt lat="33.4807117" lon="8.93913"><ele>35.0</ele><time>2026-04-23T08:01:10.372Z</time></trkpt><trkpt lat="33.4807517" lon="8.9388633"><ele>35.0</ele><time>2026-04-23T08:01:11.372Z</time></trkpt><trkpt lat="33.4808033" lon="8.9385983"><ele>35.0</ele><time>2026-04-23T08:01:12.373Z</time></trkpt><trkpt lat="33.48086" lon="8.93833"><ele>34.666666666666664</ele><time>2026-04-23T08:01:13.372Z</time></trkpt><trkpt lat="33.48091" lon="8.9380767"><ele>34.333333333333336</ele><time>2026-04-23T08:01:14.373Z</time></trkpt><trkpt lat="33.4809617" lon="8.937815"><ele>34.0</ele><time>2026-04-23T08:01:15.372Z</time></trkpt><trkpt lat="33.481015" lon="8.9375533"><ele>34.333333333333336</ele><time>2026-04-23T08:01:16.372Z</time></trkpt><trkpt lat="33.4810567" lon="8.9372883"><ele>34.666666666666664</ele><time>2026-04-23T08:01:17.372Z</time></trkpt><trkpt lat="33.4810983" lon="8.937025"><ele>35.0</ele><time>2026-04-23T08:01:18.372Z</time></trkpt><trkpt lat="33.481145" lon="8.9367567"><ele>35.5</ele><time>2026-04-23T08:01:19.372Z</time></trkpt><trkpt lat="33.4811917" lon="8.93649"><ele>36.0</ele><time>2026-04-23T08:01:20.373Z</time></trkpt><trkpt lat="33.4812517" lon="8.9362233"><ele>35.5</ele><time>2026-04-23T08:01:21.372Z</time></trkpt><trkpt lat="33.4813267" lon="8.93597"><ele>35.0</ele><time>2026-04-23T08:01:22.372Z</time></trkpt><trkpt lat="33.481415" lon="8.9357133"><ele>35.0</ele><time>2026-04-23T08:01:23.372Z</time></trkpt><trkpt lat="33.481515" lon="8.9354733"><ele>35.0</ele><time>2026-04-23T08:01:24.372Z</time></trkpt><trkpt lat="33.481635" lon="8.9352417"><ele>35.0</ele><time>2026-04-23T08:01:25.372Z</time></trkpt><trkpt lat="33.4817517" lon="8.9350117"><ele>35.0</ele><time>2026-04-23T08:01:26.373Z</time></trkpt><trkpt lat="33.4818717" lon="8.9347933"><ele>35.0</ele><time>2026-04-23T08:01:27.372Z</time></trkpt><trkpt lat="33.4819983" lon="8.9345767"><ele>35.33333333333333</ele><time>2026-04-23T08:01:28.372Z</time></trkpt><trkpt lat="33.4821217" lon="8.934355"><ele>35.666666666666664</ele><time>2026-04-23T08:01:29.372Z</time></trkpt><trkpt lat="33.4822467" lon="8.9341367"><ele>36.0</ele><time>2026-04-23T08:01:30.372Z</time></trkpt><trkpt lat="33.48237" lon="8.9339233"><ele>36.0</ele><time>2026-04-23T08:01:31.373Z</time></trkpt><trkpt lat="33.4824917" lon="8.93371"><ele>36.0</ele><time>2026-04-23T08:01:32.372Z</time></trkpt><trkpt lat="33.4826083" lon="8.9334883"><ele>36.0</ele><time>2026-04-23T08:01:33.373Z</time></trkpt><trkpt lat="33.4827267" lon="8.9332733"><ele>36.333333333333336</ele><time>2026-04-23T08:01:34.373Z</time></trkpt><trkpt lat="33.482845" lon="8.93306"><ele>36.66666666666667</ele><time>2026-04-23T08:01:35.373Z</time></trkpt><trkpt lat="33.4829667" lon="8.9328417"><ele>37.0</ele><time>2026-04-23T08:01:36.372Z</time></trkpt><trkpt lat="33.483085" lon="8.93262"><ele>36.0</ele><time>2026-04-23T08:01:37.373Z</time></trkpt><trkpt lat="33.483205" lon="8.9324"><ele>35.0</ele><time>2026-04-23T08:01:38.373Z</time></trkpt><trkpt lat="33.4833233" lon="8.9321783"><ele>34.0</ele><time>2026-04-23T08:01:39.373Z</time></trkpt><trkpt lat="33.483435" lon="8.9319517"><ele>34.0</ele><time>2026-04-23T08:01:40.372Z</time></trkpt><trkpt lat="33.48355" lon="8.9317317"><ele>34.0</ele><time>2026-04-23T08:01:41.372Z</time></trkpt><trkpt lat="33.4836717" lon="8.931515"><ele>34.0</ele><time>2026-04-23T08:01:42.372Z</time></trkpt><trkpt lat="33.483795" lon="8.931305"><ele>34.0</ele><time>2026-04-23T08:01:43.372Z</time></trkpt><trkpt lat="33.4839283" lon="8.9311"><ele>34.0</ele><time>2026-04-23T08:01:44.372Z</time></trkpt><trkpt lat="33.484055" lon="8.93088"><ele>34.0</ele><time>2026-04-23T08:01:45.373Z</time></trkpt><trkpt lat="33.4841783" lon="8.9306583"><ele>34.0</ele><time>2026-04-23T08:01:46.373Z</time></trkpt><trkpt lat="33.484305" lon="8.9304383"><ele>34.0</ele><time>2026-04-23T08:01:47.373Z</time></trkpt><trkpt lat="33.4844317" lon="8.930235"><ele>34.0</ele><time>2026-04-23T08:01:48.373Z</time></trkpt><trkpt lat="33.4845517" lon="8.93003"><ele>34.0</ele><time>2026-04-23T08:01:49.373Z</time></trkpt><trkpt lat="33.484675" lon="8.9298233"><ele>34.0</ele><time>2026-04-23T08:01:50.373Z</time></trkpt><trkpt lat="33.4848" lon="8.9296017"><ele>34.0</ele><time>2026-04-23T08:01:51.372Z</time></trkpt><trkpt lat="33.4849283" lon="8.92939"><ele>34.333333333333336</ele><time>2026-04-23T08:01:52.372Z</time></trkpt><trkpt lat="33.4850533" lon="8.92918"><ele>34.666666666666664</ele><time>2026-04-23T08:01:53.373Z</time></trkpt><trkpt lat="33.48518" lon="8.9289733"><ele>35.0</ele><time>2026-04-23T08:01:54.373Z</time></trkpt><trkpt lat="33.4853117" lon="8.92877"><ele>34.666666666666664</ele><time>2026-04-23T08:01:55.373Z</time></trkpt><trkpt lat="33.4854417" lon="8.9285533"><ele>34.333333333333336</ele><time>2026-04-23T08:01:56.372Z</time></trkpt><trkpt lat="33.48557" lon="8.92834"><ele>34.0</ele><time>2026-04-23T08:01:57.373Z</time></trkpt><trkpt lat="33.4857017" lon="8.9281267"><ele>34.333333333333336</ele><time>2026-04-23T08:01:58.373Z</time></trkpt><trkpt lat="33.4858317" lon="8.92792"><ele>34.666666666666664</ele><time>2026-04-23T08:01:59.373Z</time></trkpt><trkpt lat="33.4859683" lon="8.9277217"><ele>35.0</ele><time>2026-04-23T08:02:00.372Z</time></trkpt><trkpt lat="33.486105" lon="8.927505"><ele>35.0</ele><time>2026-04-23T08:02:01.372Z</time></trkpt><trkpt lat="33.48623" lon="8.9272967"><ele>35.0</ele><time>2026-04-23T08:02:02.372Z</time></trkpt><trkpt lat="33.48636" lon="8.9270917"><ele>35.0</ele><time>2026-04-23T08:02:03.372Z</time></trkpt><trkpt lat="33.4864883" lon="8.9268817"><ele>35.666666666666664</ele><time>2026-04-23T08:02:04.372Z</time></trkpt><trkpt lat="33.4866183" lon="8.9266767"><ele>36.333333333333336</ele><time>2026-04-23T08:02:05.372Z</time></trkpt><trkpt lat="33.4867533" lon="8.9264717"><ele>37.0</ele><time>2026-04-23T08:02:06.372Z</time></trkpt><trkpt lat="33.4868867" lon="8.9262717"><ele>37.0</ele><time>2026-04-23T08:02:07.372Z</time></trkpt><trkpt lat="33.487015" lon="8.926065"><ele>37.0</ele><time>2026-04-23T08:02:08.373Z</time></trkpt><trkpt lat="33.4871333" lon="8.9258567"><ele>37.0</ele><time>2026-04-23T08:02:09.373Z</time></trkpt><trkpt lat="33.487255" lon="8.9256417"><ele>37.0</ele><time>2026-04-23T08:02:10.372Z</time></trkpt><trkpt lat="33.4873683" lon="8.9254233"><ele>37.0</ele><time>2026-04-23T08:02:11.373Z</time></trkpt><trkpt lat="33.4874683" lon="8.925205"><ele>37.0</ele><time>2026-04-23T08:02:12.372Z</time></trkpt><trkpt lat="33.4875467" lon="8.92498"><ele>37.0</ele><time>2026-04-23T08:02:13.372Z</time></trkpt><trkpt lat="33.4875967" lon="8.9247717"><ele>37.0</ele><time>2026-04-23T08:02:14.372Z</time></trkpt><trkpt lat="33.4876167" lon="8.9245667"><ele>37.0</ele><time>2026-04-23T08:02:15.373Z</time></trkpt><trkpt lat="33.4876033" lon="8.924365"><ele>36.66666666666667</ele><time>2026-04-23T08:02:16.373Z</time></trkpt><trkpt lat="33.4875833" lon="8.9241667"><ele>36.333333333333336</ele><time>2026-04-23T08:02:17.373Z</time></trkpt><trkpt lat="33.4875483" lon="8.9239717"><ele>36.0</ele><time>2026-04-23T08:02:18.373Z</time></trkpt><trkpt lat="33.4875033" lon="8.9237717"><ele>36.0</ele><time>2026-04-23T08:02:19.372Z</time></trkpt><trkpt lat="33.48746" lon="8.92356"><ele>36.0</ele><time>2026-04-23T08:02:20.372Z</time></trkpt><trkpt lat="33.4874133" lon="8.9233583"><ele>36.0</ele><time>2026-04-23T08:02:21.372Z</time></trkpt><trkpt lat="33.487355" lon="8.9231467"><ele>36.333333333333336</ele><time>2026-04-23T08:02:22.373Z</time></trkpt><trkpt lat="33.48729" lon="8.9229317"><ele>36.66666666666667</ele><time>2026-04-23T08:02:23.372Z</time></trkpt><trkpt lat="33.4872233" lon="8.9227117"><ele>37.0</ele><time>2026-04-23T08:02:24.373Z</time></trkpt><trkpt lat="33.4871567" lon="8.9224867"><ele>37.0</ele><time>2026-04-23T08:02:25.373Z</time></trkpt><trkpt lat="33.4870933" lon="8.92226"><ele>37.0</ele><time>2026-04-23T08:02:26.372Z</time></trkpt><trkpt lat="33.4870317" lon="8.92204"><ele>37.0</ele><time>2026-04-23T08:02:27.373Z</time></trkpt><trkpt lat="33.4869683" lon="8.9218167"><ele>36.66666666666667</ele><time>2026-04-23T08:02:28.373Z</time></trkpt><trkpt lat="33.486895" lon="8.9215867"><ele>36.333333333333336</ele><time>2026-04-23T08:02:29.372Z</time></trkpt><trkpt lat="33.4868317" lon="8.9213583"><ele>36.0</ele><time>2026-04-23T08:02:30.373Z</time></trkpt><trkpt lat="33.4867667" lon="8.9211233"><ele>35.333333333333336</ele><time>2026-04-23T08:02:31.373Z</time></trkpt><trkpt lat="33.486705" lon="8.9208833"><ele>34.66666666666667</ele><time>2026-04-23T08:02:32.373Z</time></trkpt><trkpt lat="33.4866333" lon="8.9206383"><ele>34.0</ele><time>2026-04-23T08:02:33.372Z</time></trkpt><trkpt lat="33.4865633" lon="8.9203933"><ele>34.0</ele><time>2026-04-23T08:02:34.372Z</time></trkpt><trkpt lat="33.4864933" lon="8.92015"><ele>34.0</ele><time>2026-04-23T08:02:35.372Z</time></trkpt><trkpt lat="33.4864183" lon="8.9199033"><ele>34.0</ele><time>2026-04-23T08:02:36.372Z</time></trkpt><trkpt lat="33.4863517" lon="8.9196583"><ele>34.0</ele><time>2026-04-23T08:02:37.373Z</time></trkpt><trkpt lat="33.4862867" lon="8.91941"><ele>34.0</ele><time>2026-04-23T08:02:38.372Z</time></trkpt><trkpt lat="33.486225" lon="8.9191717"><ele>34.0</ele><time>2026-04-23T08:02:39.373Z</time></trkpt><trkpt lat="33.486165" lon="8.9189383"><ele>34.0</ele><time>2026-04-23T08:02:40.373Z</time></trkpt><trkpt lat="33.4860933" lon="8.91871"><ele>34.0</ele><time>2026-04-23T08:02:41.373Z</time></trkpt><trkpt lat="33.4860283" lon="8.9184833"><ele>34.0</ele><time>2026-04-23T08:02:42.373Z</time></trkpt><trkpt lat="33.4859667" lon="8.9182433"><ele>34.0</ele><time>2026-04-23T08:02:43.372Z</time></trkpt><trkpt lat="33.4859117" lon="8.91801"><ele>34.0</ele><time>2026-04-23T08:02:44.373Z</time></trkpt><trkpt lat="33.48585" lon="8.9177883"><ele>34.0</ele><time>2026-04-23T08:02:45.372Z</time></trkpt><trkpt lat="33.485785" lon="8.91756"><ele>33.66666666666667</ele><time>2026-04-23T08:02:46.371Z</time></trkpt><trkpt lat="33.48572" lon="8.917335"><ele>33.333333333333336</ele><time>2026-04-23T08:02:47.372Z</time></trkpt><trkpt lat="33.485655" lon="8.9171067"><ele>33.0</ele><time>2026-04-23T08:02:48.372Z</time></trkpt><trkpt lat="33.4855867" lon="8.916875"><ele>33.333333333333336</ele><time>2026-04-23T08:02:49.372Z</time></trkpt><trkpt lat="33.4855217" lon="8.9166433"><ele>33.66666666666667</ele><time>2026-04-23T08:02:50.371Z</time></trkpt><trkpt lat="33.4854517" lon="8.91641"><ele>34.0</ele><time>2026-04-23T08:02:51.371Z</time></trkpt><trkpt lat="33.4853833" lon="8.9161733"><ele>34.0</ele><time>2026-04-23T08:02:52.372Z</time></trkpt><trkpt lat="33.4853217" lon="8.9159517"><ele>34.0</ele><time>2026-04-23T08:02:53.372Z</time></trkpt><trkpt lat="33.4852733" lon="8.9157383"><ele>34.0</ele><time>2026-04-23T08:02:54.371Z</time></trkpt><trkpt lat="33.4852233" lon="8.915545"><ele>34.0</ele><time>2026-04-23T08:02:55.371Z</time></trkpt><trkpt lat="33.4851667" lon="8.9153433"><ele>34.0</ele><time>2026-04-23T08:02:56.371Z</time></trkpt><trkpt lat="33.485115" lon="8.9151567"><ele>34.0</ele><time>2026-04-23T08:02:57.372Z</time></trkpt><trkpt lat="33.485075" lon="8.9149617"><ele>34.0</ele><time>2026-04-23T08:02:58.371Z</time></trkpt><trkpt lat="33.48504" lon="8.91476"><ele>34.0</ele><time>2026-04-23T08:02:59.372Z</time></trkpt><trkpt lat="33.485005" lon="8.9145483"><ele>34.0</ele><time>2026-04-23T08:03:00.372Z</time></trkpt><trkpt lat="33.4849783" lon="8.9143317"><ele>34.0</ele><time>2026-04-23T08:03:01.372Z</time></trkpt><trkpt lat="33.4849567" lon="8.9141117"><ele>34.0</ele><time>2026-04-23T08:03:02.372Z</time></trkpt><trkpt lat="33.4849467" lon="8.9138917"><ele>34.0</ele><time>2026-04-23T08:03:03.372Z</time></trkpt><trkpt lat="33.484935" lon="8.9136633"><ele>34.0</ele><time>2026-04-23T08:03:04.371Z</time></trkpt><trkpt lat="33.4849333" lon="8.9134283"><ele>34.0</ele><time>2026-04-23T08:03:05.371Z</time></trkpt><trkpt lat="33.4849317" lon="8.9131883"><ele>34.0</ele><time>2026-04-23T08:03:06.371Z</time></trkpt><trkpt lat="33.48493" lon="8.9129383"><ele>34.0</ele><time>2026-04-23T08:03:07.372Z</time></trkpt><trkpt lat="33.48494" lon="8.9126933"><ele>34.0</ele><time>2026-04-23T08:03:08.372Z</time></trkpt><trkpt lat="33.4849483" lon="8.9124517"><ele>34.0</ele><time>2026-04-23T08:03:09.371Z</time></trkpt><trkpt lat="33.4849567" lon="8.91221"><ele>34.66666666666667</ele><time>2026-04-23T08:03:10.371Z</time></trkpt><trkpt lat="33.4849633" lon="8.9119683"><ele>35.333333333333336</ele><time>2026-04-23T08:03:11.372Z</time></trkpt><trkpt lat="33.4849767" lon="8.911725"><ele>36.0</ele><time>2026-04-23T08:03:12.372Z</time></trkpt><trkpt lat="33.4850033" lon="8.911485"><ele>36.0</ele><time>2026-04-23T08:03:13.372Z</time></trkpt><trkpt lat="33.4850367" lon="8.9112333"><ele>36.0</ele><time>2026-04-23T08:03:14.371Z</time></trkpt><trkpt lat="33.4850733" lon="8.9109783"><ele>36.0</ele><time>2026-04-23T08:03:15.372Z</time></trkpt><trkpt lat="33.4851083" lon="8.910725"><ele>36.0</ele><time>2026-04-23T08:03:16.371Z</time></trkpt><trkpt lat="33.4851483" lon="8.9104733"><ele>36.0</ele><time>2026-04-23T08:03:17.371Z</time></trkpt><trkpt lat="33.4851883" lon="8.9102233"><ele>36.0</ele><time>2026-04-23T08:03:18.371Z</time></trkpt><trkpt lat="33.4852317" lon="8.9099767"><ele>35.666666666666664</ele><time>2026-04-23T08:03:19.371Z</time></trkpt><trkpt lat="33.4852733" lon="8.9097317"><ele>35.33333333333333</ele><time>2026-04-23T08:03:20.372Z</time></trkpt><trkpt lat="33.4853117" lon="8.90948"><ele>35.0</ele><time>2026-04-23T08:03:21.371Z</time></trkpt><trkpt lat="33.4853483" lon="8.9092217"><ele>35.0</ele><time>2026-04-23T08:03:22.371Z</time></trkpt><trkpt lat="33.4853883" lon="8.9089717"><ele>35.0</ele><time>2026-04-23T08:03:23.372Z</time></trkpt><trkpt lat="33.48543" lon="8.90872"><ele>35.0</ele><time>2026-04-23T08:03:24.371Z</time></trkpt><trkpt lat="33.4854717" lon="8.9084567"><ele>35.5</ele><time>2026-04-23T08:03:25.372Z</time></trkpt><trkpt lat="33.4855233" lon="8.9081883"><ele>36.0</ele><time>2026-04-23T08:03:26.371Z</time></trkpt><trkpt lat="33.4855767" lon="8.9079233"><ele>36.0</ele><time>2026-04-23T08:03:27.371Z</time></trkpt><trkpt lat="33.4856267" lon="8.9076633"><ele>36.0</ele><time>2026-04-23T08:03:28.372Z</time></trkpt><trkpt lat="33.4856717" lon="8.9074083"><ele>36.0</ele><time>2026-04-23T08:03:29.371Z</time></trkpt><trkpt lat="33.4857167" lon="8.907145"><ele>37.0</ele><time>2026-04-23T08:03:30.371Z</time></trkpt><trkpt lat="33.4857617" lon="8.9068783"><ele>38.0</ele><time>2026-04-23T08:03:31.372Z</time></trkpt><trkpt lat="33.48581" lon="8.9066117"><ele>38.5</ele><time>2026-04-23T08:03:32.371Z</time></trkpt><trkpt lat="33.4858583" lon="8.9063483"><ele>39.0</ele><time>2026-04-23T08:03:33.372Z</time></trkpt><trkpt lat="33.48591" lon="8.9060833"><ele>39.0</ele><time>2026-04-23T08:03:34.372Z</time></trkpt><trkpt lat="33.4859583" lon="8.9058133"><ele>39.0</ele><time>2026-04-23T08:03:35.372Z</time></trkpt><trkpt lat="33.486005" lon="8.905545"><ele>39.0</ele><time>2026-04-23T08:03:36.371Z</time></trkpt><trkpt lat="33.4860517" lon="8.90527"><ele>39.0</ele><time>2026-04-23T08:03:37.372Z</time></trkpt><trkpt lat="33.4861033" lon="8.905"><ele>39.5</ele><time>2026-04-23T08:03:38.372Z</time></trkpt><trkpt lat="33.4861533" lon="8.9047267"><ele>40.0</ele><time>2026-04-23T08:03:39.371Z</time></trkpt><trkpt lat="33.4862" lon="8.9044583"><ele>39.0</ele><time>2026-04-23T08:03:40.372Z</time></trkpt><trkpt lat="33.48624" lon="8.9041933"><ele>38.0</ele><time>2026-04-23T08:03:41.371Z</time></trkpt><trkpt lat="33.486285" lon="8.9039233"><ele>38.0</ele><time>2026-04-23T08:03:42.372Z</time></trkpt><trkpt lat="33.48633" lon="8.90365"><ele>38.0</ele><time>2026-04-23T08:03:43.371Z</time></trkpt><trkpt lat="33.486375" lon="8.9033783"><ele>38.0</ele><time>2026-04-23T08:03:44.371Z</time></trkpt><trkpt lat="33.4864233" lon="8.9031067"><ele>38.0</ele><time>2026-04-23T08:03:45.372Z</time></trkpt><trkpt lat="33.4864733" lon="8.9028333"><ele>39.5</ele><time>2026-04-23T08:03:46.371Z</time></trkpt><trkpt lat="33.486515" lon="8.9025667"><ele>41.0</ele><time>2026-04-23T08:03:47.371Z</time></trkpt><trkpt lat="33.4865433" lon="8.9023"><ele>41.0</ele><time>2026-04-23T08:03:48.371Z</time></trkpt><trkpt lat="33.486585" lon="8.9020317"><ele>41.0</ele><time>2026-04-23T08:03:49.371Z</time></trkpt><trkpt lat="33.486625" lon="8.90176"><ele>41.5</ele><time>2026-04-23T08:03:50.371Z</time></trkpt><trkpt lat="33.4866733" lon="8.9014883"><ele>42.0</ele><time>2026-04-23T08:03:51.372Z</time></trkpt><trkpt lat="33.48673" lon="8.9012233"><ele>42.0</ele><time>2026-04-23T08:03:52.372Z</time></trkpt><trkpt lat="33.4867817" lon="8.9009683"><ele>42.0</ele><time>2026-04-23T08:03:53.371Z</time></trkpt><trkpt lat="33.4868317" lon="8.900705"><ele>42.0</ele><time>2026-04-23T08:03:54.371Z</time></trkpt><trkpt lat="33.48688" lon="8.9004467"><ele>42.5</ele><time>2026-04-23T08:03:55.372Z</time></trkpt><trkpt lat="33.4869283" lon="8.90018"><ele>43.0</ele><time>2026-04-23T08:03:56.372Z</time></trkpt><trkpt lat="33.4869767" lon="8.899915"><ele>41.66666666666667</ele><time>2026-04-23T08:03:57.371Z</time></trkpt><trkpt lat="33.4870283" lon="8.899655"><ele>40.333333333333336</ele><time>2026-04-23T08:03:58.372Z</time></trkpt><trkpt lat="33.4870783" lon="8.899405"><ele>39.0</ele><time>2026-04-23T08:03:59.372Z</time></trkpt><trkpt lat="33.48712" lon="8.8991683"><ele>38.333333333333336</ele><time>2026-04-23T08:04:00.371Z</time></trkpt><trkpt lat="33.48716" lon="8.8989467"><ele>37.66666666666667</ele><time>2026-04-23T08:04:01.371Z</time></trkpt><trkpt lat="33.4872" lon="8.8987383"><ele>37.0</ele><time>2026-04-23T08:04:02.371Z</time></trkpt><trkpt lat="33.48724" lon="8.8985333"><ele>37.333333333333336</ele><time>2026-04-23T08:04:03.371Z</time></trkpt><trkpt lat="33.4872783" lon="8.898345"><ele>37.666666666666664</ele><time>2026-04-23T08:04:04.371Z</time></trkpt><trkpt lat="33.4873117" lon="8.898165"><ele>38.0</ele><time>2026-04-23T08:04:05.372Z</time></trkpt><trkpt lat="33.48734" lon="8.89799"><ele>38.0</ele><time>2026-04-23T08:04:06.371Z</time></trkpt><trkpt lat="33.4873683" lon="8.8978233"><ele>38.0</ele><time>2026-04-23T08:04:07.372Z</time></trkpt><trkpt lat="33.4873883" lon="8.8976667"><ele>38.0</ele><time>2026-04-23T08:04:08.372Z</time></trkpt><trkpt lat="33.4874117" lon="8.897515"><ele>38.0</ele><time>2026-04-23T08:04:09.372Z</time></trkpt><trkpt lat="33.4874317" lon="8.8973667"><ele>36.75</ele><time>2026-04-23T08:04:10.372Z</time></trkpt><trkpt lat="33.487455" lon="8.8972317"><ele>35.5</ele><time>2026-04-23T08:04:11.372Z</time></trkpt><trkpt lat="33.487485" lon="8.8970883"><ele>34.25</ele><time>2026-04-23T08:04:12.371Z</time></trkpt><trkpt lat="33.4875117" lon="8.8969333"><ele>33.0</ele><time>2026-04-23T08:04:13.372Z</time></trkpt><trkpt lat="33.4875417" lon="8.8967733"><ele>33.666666666666664</ele><time>2026-04-23T08:04:14.372Z</time></trkpt><trkpt lat="33.4875733" lon="8.8965967"><ele>34.33333333333333</ele><time>2026-04-23T08:04:15.372Z</time></trkpt><trkpt lat="33.487595" lon="8.8964067"><ele>35.0</ele><time>2026-04-23T08:04:16.372Z</time></trkpt><trkpt lat="33.48762" lon="8.8962067"><ele>35.0</ele><time>2026-04-23T08:04:17.371Z</time></trkpt><trkpt lat="33.4876517" lon="8.8960067"><ele>35.0</ele><time>2026-04-23T08:04:18.371Z</time></trkpt><trkpt lat="33.4876867" lon="8.8957917"><ele>35.0</ele><time>2026-04-23T08:04:19.372Z</time></trkpt><trkpt lat="33.4877283" lon="8.895575"><ele>34.666666666666664</ele><time>2026-04-23T08:04:20.372Z</time></trkpt><trkpt lat="33.487765" lon="8.8953483"><ele>34.333333333333336</ele><time>2026-04-23T08:04:21.372Z</time></trkpt><trkpt lat="33.4878083" lon="8.89511"><ele>34.0</ele><time>2026-04-23T08:04:22.372Z</time></trkpt><trkpt lat="33.4878467" lon="8.8948717"><ele>34.333333333333336</ele><time>2026-04-23T08:04:23.371Z</time></trkpt><trkpt lat="33.4878917" lon="8.8946233"><ele>34.666666666666664</ele><time>2026-04-23T08:04:24.371Z</time></trkpt><trkpt lat="33.4879367" lon="8.894385"><ele>35.0</ele><time>2026-04-23T08:04:25.371Z</time></trkpt><trkpt lat="33.4879817" lon="8.8941467"><ele>35.0</ele><time>2026-04-23T08:04:26.371Z</time></trkpt><trkpt lat="33.4880217" lon="8.89392"><ele>35.0</ele><time>2026-04-23T08:04:27.372Z</time></trkpt><trkpt lat="33.4880567" lon="8.8936967"><ele>35.0</ele><time>2026-04-23T08:04:28.371Z</time></trkpt><trkpt lat="33.48809" lon="8.8934733"><ele>35.33333333333333</ele><time>2026-04-23T08:04:29.372Z</time></trkpt><trkpt lat="33.4881317" lon="8.89326"><ele>35.666666666666664</ele><time>2026-04-23T08:04:30.372Z</time></trkpt><trkpt lat="33.4881717" lon="8.89304"><ele>36.0</ele><time>2026-04-23T08:04:31.372Z</time></trkpt><trkpt lat="33.488205" lon="8.8928217"><ele>36.0</ele><time>2026-04-23T08:04:32.371Z</time></trkpt><trkpt lat="33.4882417" lon="8.892605"><ele>36.0</ele><time>2026-04-23T08:04:33.371Z</time></trkpt><trkpt lat="33.4882783" lon="8.892385"><ele>36.0</ele><time>2026-04-23T08:04:34.372Z</time></trkpt><trkpt lat="33.48831" lon="8.892165"><ele>37.0</ele><time>2026-04-23T08:04:35.372Z</time></trkpt><trkpt lat="33.48834" lon="8.891975"><ele>38.0</ele><time>2026-04-23T08:04:36.372Z</time></trkpt><trkpt lat="33.4883717" lon="8.89179"><ele>39.0</ele><time>2026-04-23T08:04:37.371Z</time></trkpt><trkpt lat="33.4883983" lon="8.89161"><ele>39.25</ele><time>2026-04-23T08:04:38.372Z</time></trkpt><trkpt lat="33.4884267" lon="8.8914283"><ele>39.5</ele><time>2026-04-23T08:04:39.372Z</time></trkpt><trkpt lat="33.488455" lon="8.89126"><ele>39.75</ele><time>2026-04-23T08:04:40.371Z</time></trkpt><trkpt lat="33.4884783" lon="8.8910833"><ele>40.0</ele><time>2026-04-23T08:04:41.371Z</time></trkpt><trkpt lat="33.4885133" lon="8.8909217"><ele>40.0</ele><time>2026-04-23T08:04:42.372Z</time></trkpt><trkpt lat="33.4885367" lon="8.890755"><ele>40.0</ele><time>2026-04-23T08:04:43.372Z</time></trkpt><trkpt lat="33.48856" lon="8.890605"><ele>40.0</ele><time>2026-04-23T08:04:44.372Z</time></trkpt><trkpt lat="33.4885833" lon="8.890465"><ele>40.0</ele><time>2026-04-23T08:04:45.372Z</time></trkpt><trkpt lat="33.4886017" lon="8.8903367"><ele>40.0</ele><time>2026-04-23T08:04:46.371Z</time></trkpt><trkpt lat="33.4886133" lon="8.89022"><ele>40.0</ele><time>2026-04-23T08:04:47.371Z</time></trkpt><trkpt lat="33.48863" lon="8.8901267"><ele>40.0</ele><time>2026-04-23T08:04:48.372Z</time></trkpt><trkpt lat="33.488645" lon="8.8900483"><ele>40.0</ele><time>2026-04-23T08:04:49.372Z</time></trkpt><trkpt lat="33.488665" lon="8.88993"><ele>40.0</ele><time>2026-04-23T08:04:51.372Z</time></trkpt><trkpt lat="33.4886783" lon="8.889855"><ele>40.0</ele><time>2026-04-23T08:04:53.371Z</time></trkpt><trkpt lat="33.4886883" lon="8.8897767"><ele>40.2</ele><time>2026-04-23T08:06:46.371Z</time></trkpt><trkpt lat="33.4887117" lon="8.8896333"><ele>40.4</ele><time>2026-04-23T08:06:48.372Z</time></trkpt><trkpt lat="33.4887233" lon="8.8895433"><ele>40.599999999999994</ele><time>2026-04-23T08:06:49.371Z</time></trkpt><trkpt lat="33.4887333" lon="8.8894333"><ele>40.8</ele><time>2026-04-23T08:06:50.372Z</time></trkpt><trkpt lat="33.4887383" lon="8.8893083"><ele>41.0</ele><time>2026-04-23T08:06:51.371Z</time></trkpt><trkpt lat="33.48875" lon="8.889175"><ele>40.0</ele><time>2026-04-23T08:06:52.371Z</time></trkpt><trkpt lat="33.48876" lon="8.8890383"><ele>39.0</ele><time>2026-04-23T08:06:53.37Z</time></trkpt><trkpt lat="33.4887717" lon="8.8888933"><ele>38.0</ele><time>2026-04-23T08:06:54.37Z</time></trkpt><trkpt lat="33.4887733" lon="8.8887367"><ele>37.0</ele><time>2026-04-23T08:06:55.371Z</time></trkpt><trkpt lat="33.4887667" lon="8.8885733"><ele>37.0</ele><time>2026-04-23T08:06:56.37Z</time></trkpt><trkpt lat="33.4887633" lon="8.8883967"><ele>37.0</ele><time>2026-04-23T08:06:57.371Z</time></trkpt><trkpt lat="33.48876" lon="8.8882167"><ele>37.0</ele><time>2026-04-23T08:06:58.371Z</time></trkpt><trkpt lat="33.4887567" lon="8.8880283"><ele>37.0</ele><time>2026-04-23T08:06:59.37Z</time></trkpt><trkpt lat="33.48875" lon="8.8878333"><ele>37.0</ele><time>2026-04-23T08:07:00.371Z</time></trkpt><trkpt lat="33.488755" lon="8.887635"><ele>37.0</ele><time>2026-04-23T08:07:01.37Z</time></trkpt><trkpt lat="33.4887533" lon="8.887435"><ele>36.0</ele><time>2026-04-23T08:07:02.371Z</time></trkpt><trkpt lat="33.4887533" lon="8.88723"><ele>35.0</ele><time>2026-04-23T08:07:03.371Z</time></trkpt><trkpt lat="33.4887517" lon="8.8870233"><ele>34.0</ele><time>2026-04-23T08:07:04.37Z</time></trkpt><trkpt lat="33.4887467" lon="8.8868067"><ele>34.333333333333336</ele><time>2026-04-23T08:07:05.371Z</time></trkpt><trkpt lat="33.4887417" lon="8.8865917"><ele>34.666666666666664</ele><time>2026-04-23T08:07:06.371Z</time></trkpt><trkpt lat="33.48874" lon="8.8863767"><ele>35.0</ele><time>2026-04-23T08:07:07.37Z</time></trkpt><trkpt lat="33.48873" lon="8.8861583"><ele>35.0</ele><time>2026-04-23T08:07:08.37Z</time></trkpt><trkpt lat="33.488715" lon="8.8859383"><ele>35.0</ele><time>2026-04-23T08:07:09.371Z</time></trkpt><trkpt lat="33.4886967" lon="8.88571"><ele>35.0</ele><time>2026-04-23T08:07:10.37Z</time></trkpt><trkpt lat="33.4886817" lon="8.885485"><ele>35.33333333333333</ele><time>2026-04-23T08:07:11.37Z</time></trkpt><trkpt lat="33.4886633" lon="8.8852583"><ele>35.666666666666664</ele><time>2026-04-23T08:07:12.371Z</time></trkpt><trkpt lat="33.4886383" lon="8.88503"><ele>36.0</ele><time>2026-04-23T08:07:13.371Z</time></trkpt><trkpt lat="33.4886067" lon="8.8847933"><ele>35.0</ele><time>2026-04-23T08:07:14.37Z</time></trkpt><trkpt lat="33.4885767" lon="8.8845567"><ele>34.0</ele><time>2026-04-23T08:07:15.37Z</time></trkpt><trkpt lat="33.488545" lon="8.8843067"><ele>33.0</ele><time>2026-04-23T08:07:16.37Z</time></trkpt><trkpt lat="33.4885067" lon="8.884055"><ele>32.333333333333336</ele><time>2026-04-23T08:07:17.371Z</time></trkpt><trkpt lat="33.488475" lon="8.883805"><ele>31.666666666666668</ele><time>2026-04-23T08:07:18.37Z</time></trkpt><trkpt lat="33.4884417" lon="8.8835583"><ele>31.0</ele><time>2026-04-23T08:07:19.37Z</time></trkpt><trkpt lat="33.4884117" lon="8.8833167"><ele>30.666666666666668</ele><time>2026-04-23T08:07:20.371Z</time></trkpt><trkpt lat="33.4883783" lon="8.8830683"><ele>30.333333333333336</ele><time>2026-04-23T08:07:21.371Z</time></trkpt><trkpt lat="33.48834" lon="8.8828183"><ele>30.0</ele><time>2026-04-23T08:07:22.37Z</time></trkpt><trkpt lat="33.4883" lon="8.88256"><ele>30.0</ele><time>2026-04-23T08:07:23.37Z</time></trkpt><trkpt lat="33.488265" lon="8.8823017"><ele>30.0</ele><time>2026-04-23T08:07:24.371Z</time></trkpt><trkpt lat="33.4882233" lon="8.882045"><ele>30.0</ele><time>2026-04-23T08:07:25.371Z</time></trkpt><trkpt lat="33.4881867" lon="8.8817833"><ele>29.333333333333336</ele><time>2026-04-23T08:07:26.37Z</time></trkpt><trkpt lat="33.4881533" lon="8.88152"><ele>28.666666666666668</ele><time>2026-04-23T08:07:27.37Z</time></trkpt><trkpt lat="33.4881183" lon="8.8812633"><ele>28.0</ele><time>2026-04-23T08:07:28.371Z</time></trkpt><trkpt lat="33.4880833" lon="8.8810083"><ele>28.333333333333336</ele><time>2026-04-23T08:07:29.371Z</time></trkpt><trkpt lat="33.4880533" lon="8.8807467"><ele>28.666666666666664</ele><time>2026-04-23T08:07:30.371Z</time></trkpt><trkpt lat="33.488015" lon="8.8804833"><ele>29.0</ele><time>2026-04-23T08:07:31.37Z</time></trkpt><trkpt lat="33.4879833" lon="8.8802217"><ele>29.5</ele><time>2026-04-23T08:07:32.37Z</time></trkpt><trkpt lat="33.4879417" lon="8.8799567"><ele>30.0</ele><time>2026-04-23T08:07:33.37Z</time></trkpt><trkpt lat="33.4879033" lon="8.8796883"><ele>30.0</ele><time>2026-04-23T08:07:34.37Z</time></trkpt><trkpt lat="33.4878717" lon="8.879415"><ele>30.0</ele><time>2026-04-23T08:07:35.37Z</time></trkpt><trkpt lat="33.48783" lon="8.8791467"><ele>29.5</ele><time>2026-04-23T08:07:36.37Z</time></trkpt><trkpt lat="33.4877933" lon="8.8788767"><ele>29.0</ele><time>2026-04-23T08:07:37.37Z</time></trkpt><trkpt lat="33.4877533" lon="8.8786117"><ele>30.0</ele><time>2026-04-23T08:07:38.371Z</time></trkpt><trkpt lat="33.48772" lon="8.8783233"><ele>31.0</ele><time>2026-04-23T08:07:39.371Z</time></trkpt><trkpt lat="33.4876867" lon="8.8780483"><ele>31.0</ele><time>2026-04-23T08:07:40.37Z</time></trkpt><trkpt lat="33.4876567" lon="8.877775"><ele>31.0</ele><time>2026-04-23T08:07:41.37Z</time></trkpt><trkpt lat="33.4876233" lon="8.8775"><ele>31.5</ele><time>2026-04-23T08:07:42.371Z</time></trkpt><trkpt lat="33.4875867" lon="8.877225"><ele>32.0</ele><time>2026-04-23T08:07:43.37Z</time></trkpt><trkpt lat="33.4875483" lon="8.8769483"><ele>31.5</ele><time>2026-04-23T08:07:44.37Z</time></trkpt><trkpt lat="33.48751" lon="8.876675"><ele>31.0</ele><time>2026-04-23T08:07:45.37Z</time></trkpt><trkpt lat="33.4874783" lon="8.8763933"><ele>31.0</ele><time>2026-04-23T08:07:46.37Z</time></trkpt><trkpt lat="33.4874417" lon="8.876115"><ele>31.0</ele><time>2026-04-23T08:07:47.371Z</time></trkpt><trkpt lat="33.4874033" lon="8.8758433"><ele>30.0</ele><time>2026-04-23T08:07:48.371Z</time></trkpt><trkpt lat="33.4873667" lon="8.8755633"><ele>29.0</ele><time>2026-04-23T08:07:49.371Z</time></trkpt><trkpt lat="33.48732" lon="8.87528"><ele>30.5</ele><time>2026-04-23T08:07:50.371Z</time></trkpt><trkpt lat="33.4872767" lon="8.8749983"><ele>32.0</ele><time>2026-04-23T08:07:51.37Z</time></trkpt><trkpt lat="33.48724" lon="8.874715"><ele>32.0</ele><time>2026-04-23T08:07:52.37Z</time></trkpt><trkpt lat="33.4872067" lon="8.8744317"><ele>32.0</ele><time>2026-04-23T08:07:53.37Z</time></trkpt><trkpt lat="33.4871783" lon="8.8741517"><ele>33.0</ele><time>2026-04-23T08:07:54.371Z</time></trkpt><trkpt lat="33.487155" lon="8.8738667"><ele>34.0</ele><time>2026-04-23T08:07:55.37Z</time></trkpt><trkpt lat="33.4871333" lon="8.8735883"><ele>34.5</ele><time>2026-04-23T08:07:56.37Z</time></trkpt><trkpt lat="33.4871183" lon="8.87331"><ele>35.0</ele><time>2026-04-23T08:07:57.37Z</time></trkpt><trkpt lat="33.4871067" lon="8.8730267"><ele>35.0</ele><time>2026-04-23T08:07:58.37Z</time></trkpt><trkpt lat="33.487095" lon="8.8727467"><ele>35.0</ele><time>2026-04-23T08:07:59.37Z</time></trkpt><trkpt lat="33.48708" lon="8.8724683"><ele>34.33333333333333</ele><time>2026-04-23T08:08:00.37Z</time></trkpt><trkpt lat="33.487065" lon="8.8721967"><ele>33.666666666666664</ele><time>2026-04-23T08:08:01.371Z</time></trkpt><trkpt lat="33.4870567" lon="8.8719333"><ele>33.0</ele><time>2026-04-23T08:08:02.371Z</time></trkpt><trkpt lat="33.4870417" lon="8.8716717"><ele>33.0</ele><time>2026-04-23T08:08:03.371Z</time></trkpt><trkpt lat="33.4870267" lon="8.8714167"><ele>33.0</ele><time>2026-04-23T08:08:04.371Z</time></trkpt><trkpt lat="33.4870067" lon="8.8711633"><ele>33.0</ele><time>2026-04-23T08:08:05.37Z</time></trkpt><trkpt lat="33.48699" lon="8.8709217"><ele>33.0</ele><time>2026-04-23T08:08:06.371Z</time></trkpt><trkpt lat="33.4869783" lon="8.8706783"><ele>33.0</ele><time>2026-04-23T08:08:07.37Z</time></trkpt><trkpt lat="33.4869817" lon="8.8704533"><ele>33.0</ele><time>2026-04-23T08:08:08.37Z</time></trkpt><trkpt lat="33.48697" lon="8.870225"><ele>33.0</ele><time>2026-04-23T08:08:09.37Z</time></trkpt><trkpt lat="33.4869783" lon="8.87002"><ele>33.0</ele><time>2026-04-23T08:08:10.37Z</time></trkpt><trkpt lat="33.4870167" lon="8.8698467"><ele>33.0</ele><time>2026-04-23T08:08:11.37Z</time></trkpt><trkpt lat="33.487075" lon="8.869665"><ele>33.75</ele><time>2026-04-23T08:08:12.37Z</time></trkpt><trkpt lat="33.4871583" lon="8.869515"><ele>34.5</ele><time>2026-04-23T08:08:13.37Z</time></trkpt><trkpt lat="33.48726" lon="8.86941"><ele>35.25</ele><time>2026-04-23T08:08:14.37Z</time></trkpt><trkpt lat="33.48737" lon="8.8693183"><ele>36.0</ele><time>2026-04-23T08:08:15.371Z</time></trkpt><trkpt lat="33.4874783" lon="8.86925"><ele>36.0</ele><time>2026-04-23T08:08:16.371Z</time></trkpt><trkpt lat="33.48757" lon="8.8691983"><ele>36.0</ele><time>2026-04-23T08:08:17.371Z</time></trkpt><trkpt lat="33.4876617" lon="8.8691583"><ele>36.0</ele><time>2026-04-23T08:08:18.37Z</time></trkpt><trkpt lat="33.4877617" lon="8.8691267"><ele>36.0</ele><time>2026-04-23T08:08:19.37Z</time></trkpt><trkpt lat="33.48787" lon="8.8691"><ele>36.0</ele><time>2026-04-23T08:08:20.37Z</time></trkpt><trkpt lat="33.487995" lon="8.8690683"><ele>36.0</ele><time>2026-04-23T08:08:21.37Z</time></trkpt><trkpt lat="33.4881133" lon="8.8690383"><ele>36.0</ele><time>2026-04-23T08:08:22.37Z</time></trkpt><trkpt lat="33.488225" lon="8.8689983"><ele>36.0</ele><time>2026-04-23T08:08:23.371Z</time></trkpt><trkpt lat="33.4883317" lon="8.8689633"><ele>36.0</ele><time>2026-04-23T08:08:24.37Z</time></trkpt><trkpt lat="33.4884417" lon="8.868935"><ele>36.0</ele><time>2026-04-23T08:08:25.371Z</time></trkpt><trkpt lat="33.4885467" lon="8.868905"><ele>36.0</ele><time>2026-04-23T08:08:26.371Z</time></trkpt><trkpt lat="33.4886567" lon="8.868865"><ele>36.0</ele><time>2026-04-23T08:08:27.37Z</time></trkpt><trkpt lat="33.48877" lon="8.8688233"><ele>36.0</ele><time>2026-04-23T08:08:28.371Z</time></trkpt><trkpt lat="33.48889" lon="8.8687883"><ele>36.0</ele><time>2026-04-23T08:08:29.37Z</time></trkpt><trkpt lat="33.4890117" lon="8.8687467"><ele>36.0</ele><time>2026-04-23T08:08:30.371Z</time></trkpt><trkpt lat="33.4891333" lon="8.86871"><ele>36.0</ele><time>2026-04-23T08:08:31.37Z</time></trkpt><trkpt lat="33.4892583" lon="8.86867"><ele>36.0</ele><time>2026-04-23T08:08:32.37Z</time></trkpt><trkpt lat="33.4893817" lon="8.8686217"><ele>36.0</ele><time>2026-04-23T08:08:33.37Z</time></trkpt><trkpt lat="33.489495" lon="8.8685583"><ele>36.0</ele><time>2026-04-23T08:08:34.371Z</time></trkpt><trkpt lat="33.489615" lon="8.8684933"><ele>36.0</ele><time>2026-04-23T08:08:35.371Z</time></trkpt><trkpt lat="33.48973" lon="8.8684167"><ele>36.0</ele><time>2026-04-23T08:08:36.37Z</time></trkpt><trkpt lat="33.48983" lon="8.8683533"><ele>36.4</ele><time>2026-04-23T08:08:37.371Z</time></trkpt><trkpt lat="33.4899217" lon="8.8682933"><ele>36.8</ele><time>2026-04-23T08:08:38.371Z</time></trkpt><trkpt lat="33.4900133" lon="8.868235"><ele>37.199999999999996</ele><time>2026-04-23T08:08:39.371Z</time></trkpt><trkpt lat="33.4900967" lon="8.868175"><ele>37.6</ele><time>2026-04-23T08:08:40.37Z</time></trkpt><trkpt lat="33.49019" lon="8.8681233"><ele>38.0</ele><time>2026-04-23T08:08:41.37Z</time></trkpt><trkpt lat="33.4902833" lon="8.8680633"><ele>38.0</ele><time>2026-04-23T08:08:42.371Z</time></trkpt><trkpt lat="33.49038" lon="8.8680067"><ele>38.0</ele><time>2026-04-23T08:08:43.371Z</time></trkpt><trkpt lat="33.4904817" lon="8.8679467"><ele>38.0</ele><time>2026-04-23T08:08:44.37Z</time></trkpt><trkpt lat="33.4905917" lon="8.8678817"><ele>38.0</ele><time>2026-04-23T08:08:45.37Z</time></trkpt><trkpt lat="33.4906967" lon="8.8678117"><ele>39.0</ele><time>2026-04-23T08:08:46.37Z</time></trkpt><trkpt lat="33.49081" lon="8.8677383"><ele>40.0</ele><time>2026-04-23T08:08:47.37Z</time></trkpt><trkpt lat="33.490925" lon="8.8676567"><ele>41.0</ele><time>2026-04-23T08:08:48.371Z</time></trkpt><trkpt lat="33.4910283" lon="8.867585"><ele>42.0</ele><time>2026-04-23T08:08:49.37Z</time></trkpt><trkpt lat="33.4911267" lon="8.8675217"><ele>42.0</ele><time>2026-04-23T08:08:50.37Z</time></trkpt><trkpt lat="33.49123" lon="8.8674733"><ele>42.0</ele><time>2026-04-23T08:08:51.37Z</time></trkpt><trkpt lat="33.491335" lon="8.8674233"><ele>42.0</ele><time>2026-04-23T08:08:52.371Z</time></trkpt><trkpt lat="33.4914367" lon="8.86737"><ele>42.0</ele><time>2026-04-23T08:08:53.37Z</time></trkpt><trkpt lat="33.49153" lon="8.8673033"><ele>42.0</ele><time>2026-04-23T08:08:54.37Z</time></trkpt><trkpt lat="33.491635" lon="8.86724"><ele>42.0</ele><time>2026-04-23T08:08:55.37Z</time></trkpt><trkpt lat="33.491735" lon="8.8671833"><ele>42.0</ele><time>2026-04-23T08:08:56.371Z</time></trkpt><trkpt lat="33.491825" lon="8.867125"><ele>42.0</ele><time>2026-04-23T08:08:57.37Z</time></trkpt><trkpt lat="33.4919233" lon="8.8670633"><ele>42.0</ele><time>2026-04-23T08:08:58.37Z</time></trkpt><trkpt lat="33.49202" lon="8.86701"><ele>42.0</ele><time>2026-04-23T08:08:59.37Z</time></trkpt><trkpt lat="33.4921233" lon="8.866945"><ele>42.0</ele><time>2026-04-23T08:09:00.371Z</time></trkpt><trkpt lat="33.4922217" lon="8.86689"><ele>42.0</ele><time>2026-04-23T08:09:01.371Z</time></trkpt><trkpt lat="33.492325" lon="8.8668367"><ele>42.0</ele><time>2026-04-23T08:09:02.37Z</time></trkpt><trkpt lat="33.4924333" lon="8.86678"><ele>42.0</ele><time>2026-04-23T08:09:03.371Z</time></trkpt><trkpt lat="33.49254" lon="8.8667117"><ele>42.25</ele><time>2026-04-23T08:09:04.37Z</time></trkpt><trkpt lat="33.4926433" lon="8.8666433"><ele>42.5</ele><time>2026-04-23T08:09:05.371Z</time></trkpt><trkpt lat="33.4927467" lon="8.8665783"><ele>42.75</ele><time>2026-04-23T08:09:06.37Z</time></trkpt><trkpt lat="33.4928517" lon="8.8665167"><ele>43.0</ele><time>2026-04-23T08:09:07.37Z</time></trkpt><trkpt lat="33.4929633" lon="8.866455"><ele>43.5</ele><time>2026-04-23T08:09:08.37Z</time></trkpt><trkpt lat="33.4930683" lon="8.8663983"><ele>44.0</ele><time>2026-04-23T08:09:09.371Z</time></trkpt><trkpt lat="33.493175" lon="8.8663417"><ele>44.5</ele><time>2026-04-23T08:09:10.371Z</time></trkpt><trkpt lat="33.4932817" lon="8.8662833"><ele>45.0</ele><time>2026-04-23T08:09:11.37Z</time></trkpt><trkpt lat="33.4933833" lon="8.866225"><ele>45.0</ele><time>2026-04-23T08:09:12.37Z</time></trkpt><trkpt lat="33.4934883" lon="8.866165"><ele>45.0</ele><time>2026-04-23T08:09:13.371Z</time></trkpt><trkpt lat="33.4935867" lon="8.86611"><ele>45.0</ele><time>2026-04-23T08:09:14.371Z</time></trkpt><trkpt lat="33.493685" lon="8.86606"><ele>45.0</ele><time>2026-04-23T08:09:15.37Z</time></trkpt><trkpt lat="33.4937717" lon="8.86601"><ele>45.0</ele><time>2026-04-23T08:09:16.371Z</time></trkpt><trkpt lat="33.4938433" lon="8.8659633"><ele>45.0</ele><time>2026-04-23T08:09:17.37Z</time></trkpt><trkpt lat="33.4938983" lon="8.8659217"><ele>45.0</ele><time>2026-04-23T08:09:18.371Z</time></trkpt><trkpt lat="33.4939683" lon="8.8658633"><ele>45.0</ele><time>2026-04-23T08:09:20.37Z</time></trkpt><trkpt lat="33.4940617" lon="8.86581"><ele>45.0</ele><time>2026-04-23T08:09:22.371Z</time></trkpt><trkpt lat="33.4941283" lon="8.8657867"><ele>45.0</ele><time>2026-04-23T08:09:23.37Z</time></trkpt><trkpt lat="33.494215" lon="8.8657517"><ele>45.0</ele><time>2026-04-23T08:09:24.371Z</time></trkpt><trkpt lat="33.494315" lon="8.8657083"><ele>45.0</ele><time>2026-04-23T08:09:25.371Z</time></trkpt><trkpt lat="33.4944083" lon="8.86566"><ele>45.0</ele><time>2026-04-23T08:09:26.371Z</time></trkpt><trkpt lat="33.4945083" lon="8.8656017"><ele>45.0</ele><time>2026-04-23T08:09:27.37Z</time></trkpt><trkpt lat="33.4946083" lon="8.8655367"><ele>45.0</ele><time>2026-04-23T08:09:28.37Z</time></trkpt><trkpt lat="33.4947083" lon="8.865455"><ele>45.0</ele><time>2026-04-23T08:09:29.371Z</time></trkpt><trkpt lat="33.49481" lon="8.8653717"><ele>44.5</ele><time>2026-04-23T08:09:30.371Z</time></trkpt><trkpt lat="33.4949167" lon="8.8652817"><ele>44.0</ele><time>2026-04-23T08:09:31.371Z</time></trkpt><trkpt lat="33.4950183" lon="8.8652"><ele>43.5</ele><time>2026-04-23T08:09:32.37Z</time></trkpt><trkpt lat="33.4951167" lon="8.86511"><ele>43.0</ele><time>2026-04-23T08:09:33.37Z</time></trkpt><trkpt lat="33.4952167" lon="8.865005"><ele>42.75</ele><time>2026-04-23T08:09:34.371Z</time></trkpt><trkpt lat="33.49531" lon="8.8648917"><ele>42.5</ele><time>2026-04-23T08:09:35.37Z</time></trkpt><trkpt lat="33.4953983" lon="8.8647667"><ele>42.25</ele><time>2026-04-23T08:09:36.37Z</time></trkpt><trkpt lat="33.4954917" lon="8.8646367"><ele>42.0</ele><time>2026-04-23T08:09:37.37Z</time></trkpt><trkpt lat="33.49558" lon="8.8645067"><ele>41.25</ele><time>2026-04-23T08:09:38.371Z</time></trkpt><trkpt lat="33.4956617" lon="8.8643633"><ele>40.5</ele><time>2026-04-23T08:09:39.37Z</time></trkpt><trkpt lat="33.4957283" lon="8.8642117"><ele>39.75</ele><time>2026-04-23T08:09:40.371Z</time></trkpt><trkpt lat="33.4958" lon="8.8640617"><ele>39.0</ele><time>2026-04-23T08:09:41.37Z</time></trkpt><trkpt lat="33.4958533" lon="8.86389"><ele>39.0</ele><time>2026-04-23T08:09:42.371Z</time></trkpt><trkpt lat="33.495895" lon="8.8637117"><ele>39.0</ele><time>2026-04-23T08:09:43.371Z</time></trkpt><trkpt lat="33.49593" lon="8.863525"><ele>39.0</ele><time>2026-04-23T08:09:44.371Z</time></trkpt><trkpt lat="33.4959783" lon="8.8633567"><ele>39.75</ele><time>2026-04-23T08:09:45.37Z</time></trkpt><trkpt lat="33.4960183" lon="8.8631817"><ele>40.5</ele><time>2026-04-23T08:09:46.37Z</time></trkpt><trkpt lat="33.4960517" lon="8.8630133"><ele>41.25</ele><time>2026-04-23T08:09:47.37Z</time></trkpt><trkpt lat="33.4960867" lon="8.86284"><ele>42.0</ele><time>2026-04-23T08:09:48.37Z</time></trkpt><trkpt lat="33.4961217" lon="8.8626583"><ele>42.0</ele><time>2026-04-23T08:09:49.371Z</time></trkpt><trkpt lat="33.4961617" lon="8.86248"><ele>42.0</ele><time>2026-04-23T08:09:50.37Z</time></trkpt><trkpt lat="33.4962083" lon="8.862305"><ele>42.0</ele><time>2026-04-23T08:09:51.371Z</time></trkpt><trkpt lat="33.4962417" lon="8.8621467"><ele>42.0</ele><time>2026-04-23T08:09:52.371Z</time></trkpt><trkpt lat="33.496285" lon="8.861985"><ele>41.5</ele><time>2026-04-23T08:09:53.37Z</time></trkpt><trkpt lat="33.4963267" lon="8.8618233"><ele>41.0</ele><time>2026-04-23T08:09:54.37Z</time></trkpt><trkpt lat="33.496355" lon="8.86168"><ele>40.5</ele><time>2026-04-23T08:09:55.371Z</time></trkpt><trkpt lat="33.4963867" lon="8.8615383"><ele>40.0</ele><time>2026-04-23T08:09:56.37Z</time></trkpt><trkpt lat="33.4964183" lon="8.8613917"><ele>39.8</ele><time>2026-04-23T08:09:57.37Z</time></trkpt><trkpt lat="33.4964433" lon="8.8612583"><ele>39.6</ele><time>2026-04-23T08:09:58.37Z</time></trkpt><trkpt lat="33.4964683" lon="8.86114"><ele>39.4</ele><time>2026-04-23T08:09:59.37Z</time></trkpt><trkpt lat="33.4965033" lon="8.8610417"><ele>39.2</ele><time>2026-04-23T08:10:00.37Z</time></trkpt><trkpt lat="33.4965383" lon="8.8609367"><ele>39.0</ele><time>2026-04-23T08:10:01.371Z</time></trkpt><trkpt lat="33.4965683" lon="8.8608383"><ele>38.8</ele><time>2026-04-23T08:10:02.371Z</time></trkpt><trkpt lat="33.4965933" lon="8.8607383"><ele>38.599999999999994</ele><time>2026-04-23T08:10:03.371Z</time></trkpt><trkpt lat="33.4966217" lon="8.8606283"><ele>38.4</ele><time>2026-04-23T08:10:04.37Z</time></trkpt><trkpt lat="33.496655" lon="8.8605067"><ele>38.199999999999996</ele><time>2026-04-23T08:10:05.37Z</time></trkpt><trkpt lat="33.496695" lon="8.8603767"><ele>38.0</ele><time>2026-04-23T08:10:06.371Z</time></trkpt><trkpt lat="33.4967467" lon="8.8602467"><ele>37.75</ele><time>2026-04-23T08:10:07.371Z</time></trkpt><trkpt lat="33.4967983" lon="8.860095"><ele>37.5</ele><time>2026-04-23T08:10:08.371Z</time></trkpt><trkpt lat="33.4968467" lon="8.8599317"><ele>37.25</ele><time>2026-04-23T08:10:09.371Z</time></trkpt><trkpt lat="33.4969067" lon="8.8597783"><ele>37.0</ele><time>2026-04-23T08:10:10.37Z</time></trkpt><trkpt lat="33.4969733" lon="8.85962"><ele>37.0</ele><time>2026-04-23T08:10:11.37Z</time></trkpt><trkpt lat="33.497045" lon="8.8594617"><ele>37.0</ele><time>2026-04-23T08:10:12.37Z</time></trkpt><trkpt lat="33.4971167" lon="8.859295"><ele>37.0</ele><time>2026-04-23T08:10:13.371Z</time></trkpt><trkpt lat="33.4972" lon="8.85914"><ele>36.0</ele><time>2026-04-23T08:10:14.37Z</time></trkpt><trkpt lat="33.4972917" lon="8.8589783"><ele>35.0</ele><time>2026-04-23T08:10:15.371Z</time></trkpt><trkpt lat="33.4973833" lon="8.858815"><ele>34.0</ele><time>2026-04-23T08:10:16.371Z</time></trkpt><trkpt lat="33.4974783" lon="8.85865"><ele>34.0</ele><time>2026-04-23T08:10:17.37Z</time></trkpt><trkpt lat="33.4975767" lon="8.8584783"><ele>34.0</ele><time>2026-04-23T08:10:18.37Z</time></trkpt><trkpt lat="33.4976683" lon="8.8583133"><ele>34.0</ele><time>2026-04-23T08:10:19.37Z</time></trkpt><trkpt lat="33.4977633" lon="8.8581417"><ele>33.66666666666667</ele><time>2026-04-23T08:10:20.37Z</time></trkpt><trkpt lat="33.4978583" lon="8.857965"><ele>33.333333333333336</ele><time>2026-04-23T08:10:21.371Z</time></trkpt><trkpt lat="33.4979567" lon="8.8577967"><ele>33.0</ele><time>2026-04-23T08:10:22.37Z</time></trkpt><trkpt lat="33.4980583" lon="8.85763"><ele>32.666666666666664</ele><time>2026-04-23T08:10:23.371Z</time></trkpt><trkpt lat="33.49817" lon="8.85747"><ele>32.33333333333333</ele><time>2026-04-23T08:10:24.371Z</time></trkpt><trkpt lat="33.4982783" lon="8.85729"><ele>32.0</ele><time>2026-04-23T08:10:25.37Z</time></trkpt><trkpt lat="33.4983833" lon="8.8571067"><ele>32.0</ele><time>2026-04-23T08:10:26.371Z</time></trkpt><trkpt lat="33.498495" lon="8.8569183"><ele>32.0</ele><time>2026-04-23T08:10:27.371Z</time></trkpt><trkpt lat="33.4986083" lon="8.8567383"><ele>32.0</ele><time>2026-04-23T08:10:28.37Z</time></trkpt><trkpt lat="33.4987133" lon="8.8565467"><ele>30.666666666666664</ele><time>2026-04-23T08:10:29.371Z</time></trkpt><trkpt lat="33.4988233" lon="8.8563717"><ele>29.333333333333336</ele><time>2026-04-23T08:10:30.37Z</time></trkpt><trkpt lat="33.498935" lon="8.8561967"><ele>28.0</ele><time>2026-04-23T08:10:31.37Z</time></trkpt><trkpt lat="33.4990483" lon="8.8560167"><ele>28.0</ele><time>2026-04-23T08:10:32.37Z</time></trkpt><trkpt lat="33.49917" lon="8.85584"><ele>28.0</ele><time>2026-04-23T08:10:33.371Z</time></trkpt><trkpt lat="33.4992817" lon="8.8556533"><ele>28.0</ele><time>2026-04-23T08:10:34.371Z</time></trkpt><trkpt lat="33.49939" lon="8.8554717"><ele>28.0</ele><time>2026-04-23T08:10:35.371Z</time></trkpt><trkpt lat="33.4995017" lon="8.8552833"><ele>28.0</ele><time>2026-04-23T08:10:36.37Z</time></trkpt><trkpt lat="33.4996067" lon="8.8550867"><ele>28.0</ele><time>2026-04-23T08:10:37.371Z</time></trkpt><trkpt lat="33.4997167" lon="8.854895"><ele>29.333333333333336</ele><time>2026-04-23T08:10:38.37Z</time></trkpt><trkpt lat="33.4998367" lon="8.8546983"><ele>30.666666666666664</ele><time>2026-04-23T08:10:39.371Z</time></trkpt><trkpt lat="33.4999517" lon="8.854495"><ele>32.0</ele><time>2026-04-23T08:10:40.37Z</time></trkpt><trkpt lat="33.50007" lon="8.8542967"><ele>31.333333333333332</ele><time>2026-04-23T08:10:41.371Z</time></trkpt><trkpt lat="33.5001883" lon="8.854105"><ele>30.666666666666664</ele><time>2026-04-23T08:10:42.37Z</time></trkpt><trkpt lat="33.500305" lon="8.8539067"><ele>30.0</ele><time>2026-04-23T08:10:43.37Z</time></trkpt><trkpt lat="33.5004217" lon="8.8537117"><ele>29.333333333333336</ele><time>2026-04-23T08:10:44.371Z</time></trkpt><trkpt lat="33.5005467" lon="8.8535117"><ele>28.666666666666668</ele><time>2026-04-23T08:10:45.371Z</time></trkpt><trkpt lat="33.50066" lon="8.8533117"><ele>28.0</ele><time>2026-04-23T08:10:46.371Z</time></trkpt><trkpt lat="33.5007817" lon="8.85311"><ele>28.0</ele><time>2026-04-23T08:10:47.371Z</time></trkpt><trkpt lat="33.5009017" lon="8.8529083"><ele>28.0</ele><time>2026-04-23T08:10:48.37Z</time></trkpt><trkpt lat="33.5010283" lon="8.8527083"><ele>28.0</ele><time>2026-04-23T08:10:49.371Z</time></trkpt><trkpt lat="33.5011483" lon="8.8525067"><ele>27.666666666666668</ele><time>2026-04-23T08:10:50.371Z</time></trkpt><trkpt lat="33.5012667" lon="8.852305"><ele>27.333333333333336</ele><time>2026-04-23T08:10:51.37Z</time></trkpt><trkpt lat="33.501385" lon="8.8521033"><ele>27.0</ele><time>2026-04-23T08:10:52.37Z</time></trkpt><trkpt lat="33.50151" lon="8.8519017"><ele>26.666666666666664</ele><time>2026-04-23T08:10:53.371Z</time></trkpt><trkpt lat="33.5016317" lon="8.8517033"><ele>26.333333333333332</ele><time>2026-04-23T08:10:54.37Z</time></trkpt><trkpt lat="33.501755" lon="8.8514983"><ele>26.0</ele><time>2026-04-23T08:10:55.371Z</time></trkpt><trkpt lat="33.5018833" lon="8.851295"><ele>26.0</ele><time>2026-04-23T08:10:56.371Z</time></trkpt><trkpt lat="33.5020117" lon="8.85109"><ele>26.0</ele><time>2026-04-23T08:10:57.369Z</time></trkpt><trkpt lat="33.50214" lon="8.8508983"><ele>26.0</ele><time>2026-04-23T08:10:58.37Z</time></trkpt><trkpt lat="33.5022617" lon="8.8506917"><ele>26.0</ele><time>2026-04-23T08:10:59.37Z</time></trkpt><trkpt lat="33.50239" lon="8.8504783"><ele>26.0</ele><time>2026-04-23T08:11:00.37Z</time></trkpt><trkpt lat="33.5025117" lon="8.8502733"><ele>26.0</ele><time>2026-04-23T08:11:01.369Z</time></trkpt><trkpt lat="33.5026333" lon="8.85007"><ele>26.0</ele><time>2026-04-23T08:11:02.37Z</time></trkpt><trkpt lat="33.5027583" lon="8.8498667"><ele>26.0</ele><time>2026-04-23T08:11:03.369Z</time></trkpt><trkpt lat="33.5028817" lon="8.8496567"><ele>26.0</ele><time>2026-04-23T08:11:04.369Z</time></trkpt><trkpt lat="33.5030033" lon="8.8494483"><ele>26.666666666666664</ele><time>2026-04-23T08:11:05.369Z</time></trkpt><trkpt lat="33.503125" lon="8.8492483"><ele>27.333333333333336</ele><time>2026-04-23T08:11:06.369Z</time></trkpt><trkpt lat="33.503245" lon="8.8490417"><ele>28.0</ele><time>2026-04-23T08:11:07.369Z</time></trkpt><trkpt lat="33.50337" lon="8.8488333"><ele>28.0</ele><time>2026-04-23T08:11:08.37Z</time></trkpt><trkpt lat="33.5034933" lon="8.8486283"><ele>28.0</ele><time>2026-04-23T08:11:09.37Z</time></trkpt><trkpt lat="33.5036217" lon="8.848425"><ele>28.0</ele><time>2026-04-23T08:11:10.369Z</time></trkpt><trkpt lat="33.5037567" lon="8.8482267"><ele>28.0</ele><time>2026-04-23T08:11:11.369Z</time></trkpt><trkpt lat="33.5038967" lon="8.8480333"><ele>28.0</ele><time>2026-04-23T08:11:12.37Z</time></trkpt><trkpt lat="33.50402" lon="8.8478283"><ele>28.0</ele><time>2026-04-23T08:11:13.37Z</time></trkpt><trkpt lat="33.5041467" lon="8.8476267"><ele>27.666666666666668</ele><time>2026-04-23T08:11:14.369Z</time></trkpt><trkpt lat="33.5042667" lon="8.84742"><ele>27.333333333333336</ele><time>2026-04-23T08:11:15.37Z</time></trkpt><trkpt lat="33.5043817" lon="8.8472067"><ele>27.0</ele><time>2026-04-23T08:11:16.369Z</time></trkpt><trkpt lat="33.5044983" lon="8.8470017"><ele>27.0</ele><time>2026-04-23T08:11:17.369Z</time></trkpt><trkpt lat="33.5046233" lon="8.8467983"><ele>27.0</ele><time>2026-04-23T08:11:18.369Z</time></trkpt><trkpt lat="33.5047517" lon="8.84659"><ele>27.0</ele><time>2026-04-23T08:11:19.37Z</time></trkpt><trkpt lat="33.504875" lon="8.8463883"><ele>27.0</ele><time>2026-04-23T08:11:20.369Z</time></trkpt><trkpt lat="33.5049933" lon="8.8461767"><ele>27.0</ele><time>2026-04-23T08:11:21.369Z</time></trkpt><trkpt lat="33.505115" lon="8.845965"><ele>27.0</ele><time>2026-04-23T08:11:22.369Z</time></trkpt><trkpt lat="33.5052383" lon="8.84576"><ele>26.666666666666664</ele><time>2026-04-23T08:11:23.369Z</time></trkpt><trkpt lat="33.50536" lon="8.8455567"><ele>26.333333333333332</ele><time>2026-04-23T08:11:24.369Z</time></trkpt><trkpt lat="33.5054783" lon="8.84535"><ele>26.0</ele><time>2026-04-23T08:11:25.369Z</time></trkpt><trkpt lat="33.505595" lon="8.845145"><ele>25.666666666666664</ele><time>2026-04-23T08:11:26.369Z</time></trkpt><trkpt lat="33.5057233" lon="8.8449567"><ele>25.333333333333336</ele><time>2026-04-23T08:11:27.37Z</time></trkpt><trkpt lat="33.5058417" lon="8.8447533"><ele>25.0</ele><time>2026-04-23T08:11:28.369Z</time></trkpt><trkpt lat="33.50596" lon="8.8445567"><ele>25.0</ele><time>2026-04-23T08:11:29.37Z</time></trkpt><trkpt lat="33.5060817" lon="8.8443567"><ele>25.0</ele><time>2026-04-23T08:11:30.37Z</time></trkpt><trkpt lat="33.5062033" lon="8.8441633"><ele>25.0</ele><time>2026-04-23T08:11:31.37Z</time></trkpt><trkpt lat="33.50633" lon="8.8439683"><ele>25.333333333333336</ele><time>2026-04-23T08:11:32.37Z</time></trkpt><trkpt lat="33.5064517" lon="8.843765"><ele>25.666666666666664</ele><time>2026-04-23T08:11:33.369Z</time></trkpt><trkpt lat="33.50657" lon="8.8435717"><ele>26.0</ele><time>2026-04-23T08:11:34.37Z</time></trkpt><trkpt lat="33.50669" lon="8.84337"><ele>26.666666666666664</ele><time>2026-04-23T08:11:35.37Z</time></trkpt><trkpt lat="33.5068067" lon="8.8431717"><ele>27.333333333333336</ele><time>2026-04-23T08:11:36.37Z</time></trkpt><trkpt lat="33.506935" lon="8.8429783"><ele>28.0</ele><time>2026-04-23T08:11:37.369Z</time></trkpt><trkpt lat="33.50706" lon="8.842775"><ele>28.333333333333336</ele><time>2026-04-23T08:11:38.37Z</time></trkpt><trkpt lat="33.50718" lon="8.84257"><ele>28.666666666666664</ele><time>2026-04-23T08:11:39.37Z</time></trkpt><trkpt lat="33.5072917" lon="8.8423683"><ele>29.0</ele><time>2026-04-23T08:11:40.37Z</time></trkpt><trkpt lat="33.5074083" lon="8.842175"><ele>29.0</ele><time>2026-04-23T08:11:41.369Z</time></trkpt><trkpt lat="33.5075333" lon="8.8419867"><ele>29.0</ele><time>2026-04-23T08:11:42.369Z</time></trkpt><trkpt lat="33.5076567" lon="8.841795"><ele>29.0</ele><time>2026-04-23T08:11:43.369Z</time></trkpt><trkpt lat="33.50778" lon="8.8415983"><ele>28.666666666666664</ele><time>2026-04-23T08:11:44.37Z</time></trkpt><trkpt lat="33.5079" lon="8.8413967"><ele>28.333333333333336</ele><time>2026-04-23T08:11:45.37Z</time></trkpt><trkpt lat="33.5080183" lon="8.8411933"><ele>28.0</ele><time>2026-04-23T08:11:46.37Z</time></trkpt><trkpt lat="33.5081383" lon="8.84099"><ele>27.333333333333336</ele><time>2026-04-23T08:11:47.369Z</time></trkpt><trkpt lat="33.5082533" lon="8.8407833"><ele>26.666666666666664</ele><time>2026-04-23T08:11:48.37Z</time></trkpt><trkpt lat="33.5083717" lon="8.8405817"><ele>26.0</ele><time>2026-04-23T08:11:49.37Z</time></trkpt><trkpt lat="33.5084883" lon="8.8403817"><ele>26.0</ele><time>2026-04-23T08:11:50.37Z</time></trkpt><trkpt lat="33.5086067" lon="8.8401817"><ele>26.0</ele><time>2026-04-23T08:11:51.37Z</time></trkpt><trkpt lat="33.5087317" lon="8.8399833"><ele>26.0</ele><time>2026-04-23T08:11:52.369Z</time></trkpt><trkpt lat="33.50886" lon="8.83979"><ele>26.666666666666664</ele><time>2026-04-23T08:11:53.37Z</time></trkpt><trkpt lat="33.5089833" lon="8.839585"><ele>27.333333333333336</ele><time>2026-04-23T08:11:54.37Z</time></trkpt><trkpt lat="33.5091067" lon="8.83939"><ele>28.0</ele><time>2026-04-23T08:11:55.37Z</time></trkpt><trkpt lat="33.5092267" lon="8.8391833"><ele>28.0</ele><time>2026-04-23T08:11:56.37Z</time></trkpt><trkpt lat="33.50935" lon="8.8389883"><ele>28.0</ele><time>2026-04-23T08:11:57.369Z</time></trkpt><trkpt lat="33.5094717" lon="8.8387817"><ele>28.0</ele><time>2026-04-23T08:11:58.369Z</time></trkpt><trkpt lat="33.509595" lon="8.8385783"><ele>28.333333333333336</ele><time>2026-04-23T08:11:59.37Z</time></trkpt><trkpt lat="33.5097317" lon="8.83838"><ele>28.666666666666664</ele><time>2026-04-23T08:12:00.37Z</time></trkpt><trkpt lat="33.5098617" lon="8.8381817"><ele>29.0</ele><time>2026-04-23T08:12:01.369Z</time></trkpt><trkpt lat="33.5099983" lon="8.8379867"><ele>29.0</ele><time>2026-04-23T08:12:02.37Z</time></trkpt><trkpt lat="33.510145" lon="8.8378217"><ele>29.0</ele><time>2026-04-23T08:12:03.369Z</time></trkpt><trkpt lat="33.5102983" lon="8.83764"><ele>29.0</ele><time>2026-04-23T08:12:04.37Z</time></trkpt><trkpt lat="33.5104433" lon="8.8374633"><ele>28.333333333333332</ele><time>2026-04-23T08:12:05.369Z</time></trkpt><trkpt lat="33.5106" lon="8.8373033"><ele>27.666666666666664</ele><time>2026-04-23T08:12:06.37Z</time></trkpt><trkpt lat="33.5107567" lon="8.8371417"><ele>27.0</ele><time>2026-04-23T08:12:07.369Z</time></trkpt><trkpt lat="33.5109217" lon="8.8369983"><ele>27.0</ele><time>2026-04-23T08:12:08.369Z</time></trkpt><trkpt lat="33.511085" lon="8.8368583"><ele>27.0</ele><time>2026-04-23T08:12:09.37Z</time></trkpt><trkpt lat="33.51125" lon="8.8367033"><ele>27.0</ele><time>2026-04-23T08:12:10.37Z</time></trkpt><trkpt lat="33.5114183" lon="8.8365567"><ele>28.666666666666664</ele><time>2026-04-23T08:12:11.37Z</time></trkpt><trkpt lat="33.5115933" lon="8.8364133"><ele>30.333333333333332</ele><time>2026-04-23T08:12:12.37Z</time></trkpt><trkpt lat="33.5117667" lon="8.8362683"><ele>32.0</ele><time>2026-04-23T08:12:13.369Z</time></trkpt><trkpt lat="33.511935" lon="8.83612"><ele>32.0</ele><time>2026-04-23T08:12:14.369Z</time></trkpt><trkpt lat="33.5121" lon="8.8359767"><ele>32.0</ele><time>2026-04-23T08:12:15.37Z</time></trkpt><trkpt lat="33.5122683" lon="8.8358267"><ele>32.0</ele><time>2026-04-23T08:12:16.369Z</time></trkpt><trkpt lat="33.5124317" lon="8.835675"><ele>31.333333333333332</ele><time>2026-04-23T08:12:17.369Z</time></trkpt><trkpt lat="33.5126033" lon="8.8355283"><ele>30.666666666666664</ele><time>2026-04-23T08:12:18.369Z</time></trkpt><trkpt lat="33.5127667" lon="8.83538"><ele>30.0</ele><time>2026-04-23T08:12:19.369Z</time></trkpt><trkpt lat="33.51293" lon="8.83524"><ele>29.666666666666664</ele><time>2026-04-23T08:12:20.37Z</time></trkpt><trkpt lat="33.5130917" lon="8.8350883"><ele>29.333333333333332</ele><time>2026-04-23T08:12:21.369Z</time></trkpt><trkpt lat="33.5132583" lon="8.83494"><ele>29.0</ele><time>2026-04-23T08:12:22.369Z</time></trkpt><trkpt lat="33.5134283" lon="8.8347983"><ele>29.0</ele><time>2026-04-23T08:12:23.369Z</time></trkpt><trkpt lat="33.5135983" lon="8.834655"><ele>29.0</ele><time>2026-04-23T08:12:24.369Z</time></trkpt><trkpt lat="33.5137685" lon="8.8345097"><ele>29.0</ele><time>2026-04-23T08:12:25.369Z</time></trkpt><trkpt lat="33.5139386" lon="8.834367"><ele>29.333333333333332</ele><time>2026-04-23T08:12:26.369Z</time></trkpt><trkpt lat="33.5141085" lon="8.8342286"><ele>29.666666666666664</ele><time>2026-04-23T08:12:27.369Z</time></trkpt><trkpt lat="33.5142755" lon="8.8340897"><ele>30.0</ele><time>2026-04-23T08:12:28.369Z</time></trkpt><trkpt lat="33.5144419" lon="8.8339504"><ele>31.333333333333336</ele><time>2026-04-23T08:12:29.369Z</time></trkpt><trkpt lat="33.5146038" lon="8.8338095"><ele>32.66666666666667</ele><time>2026-04-23T08:12:30.37Z</time></trkpt><trkpt lat="33.5147653" lon="8.833666"><ele>34.0</ele><time>2026-04-23T08:12:31.369Z</time></trkpt><trkpt lat="33.5149373" lon="8.8335297"><ele>34.0</ele><time>2026-04-23T08:12:32.37Z</time></trkpt><trkpt lat="33.5151052" lon="8.8334008"><ele>34.0</ele><time>2026-04-23T08:12:33.369Z</time></trkpt><trkpt lat="33.5152726" lon="8.8332758"><ele>34.0</ele><time>2026-04-23T08:12:34.369Z</time></trkpt><trkpt lat="33.5154353" lon="8.8331509"><ele>34.0</ele><time>2026-04-23T08:12:35.37Z</time></trkpt><trkpt lat="33.5155979" lon="8.8330305"><ele>34.0</ele><time>2026-04-23T08:12:36.369Z</time></trkpt><trkpt lat="33.5157638" lon="8.8329116"><ele>34.0</ele><time>2026-04-23T08:12:37.37Z</time></trkpt><trkpt lat="33.5159333" lon="8.8327932"><ele>34.0</ele><time>2026-04-23T08:12:38.37Z</time></trkpt><trkpt lat="33.5160999" lon="8.8326856"><ele>34.0</ele><time>2026-04-23T08:12:39.37Z</time></trkpt><trkpt lat="33.5162729" lon="8.8325972"><ele>34.0</ele><time>2026-04-23T08:12:40.369Z</time></trkpt><trkpt lat="33.5164538" lon="8.8325111"><ele>34.333333333333336</ele><time>2026-04-23T08:12:41.37Z</time></trkpt><trkpt lat="33.5166404" lon="8.8324269"><ele>34.666666666666664</ele><time>2026-04-23T08:12:42.37Z</time></trkpt><trkpt lat="33.5168296" lon="8.8323481"><ele>35.0</ele><time>2026-04-23T08:12:43.369Z</time></trkpt><trkpt lat="33.517021" lon="8.8322742"><ele>36.33333333333333</ele><time>2026-04-23T08:12:44.37Z</time></trkpt><trkpt lat="33.5172102" lon="8.8322005"><ele>37.666666666666664</ele><time>2026-04-23T08:12:45.369Z</time></trkpt><trkpt lat="33.517397" lon="8.832136"><ele>39.0</ele><time>2026-04-23T08:12:46.369Z</time></trkpt><trkpt lat="33.5175893" lon="8.8320761"><ele>39.0</ele><time>2026-04-23T08:12:47.37Z</time></trkpt><trkpt lat="33.5177862" lon="8.8320193"><ele>39.0</ele><time>2026-04-23T08:12:48.37Z</time></trkpt><trkpt lat="33.5179806" lon="8.8319582"><ele>39.0</ele><time>2026-04-23T08:12:49.37Z</time></trkpt><trkpt lat="33.5181747" lon="8.8318931"><ele>38.666666666666664</ele><time>2026-04-23T08:12:50.369Z</time></trkpt><trkpt lat="33.5183664" lon="8.8318279"><ele>38.33333333333333</ele><time>2026-04-23T08:12:51.37Z</time></trkpt><trkpt lat="33.5185565" lon="8.831759"><ele>38.0</ele><time>2026-04-23T08:12:52.37Z</time></trkpt><trkpt lat="33.5187492" lon="8.8316869"><ele>36.33333333333333</ele><time>2026-04-23T08:12:53.369Z</time></trkpt><trkpt lat="33.5189482" lon="8.8316091"><ele>34.666666666666664</ele><time>2026-04-23T08:12:54.37Z</time></trkpt><trkpt lat="33.5191429" lon="8.8315328"><ele>33.0</ele><time>2026-04-23T08:12:55.37Z</time></trkpt><trkpt lat="33.5193342" lon="8.8314379"><ele>33.0</ele><time>2026-04-23T08:12:56.369Z</time></trkpt><trkpt lat="33.5195219" lon="8.831322"><ele>33.0</ele><time>2026-04-23T08:12:57.37Z</time></trkpt><trkpt lat="33.5196988" lon="8.8311871"><ele>33.0</ele><time>2026-04-23T08:12:58.369Z</time></trkpt><trkpt lat="33.5198625" lon="8.8310435"><ele>32.333333333333336</ele><time>2026-04-23T08:12:59.37Z</time></trkpt><trkpt lat="33.5200226" lon="8.8308947"><ele>31.666666666666668</ele><time>2026-04-23T08:13:00.369Z</time></trkpt><trkpt lat="33.520168" lon="8.8307504"><ele>31.0</ele><time>2026-04-23T08:13:01.369Z</time></trkpt><trkpt lat="33.5203034" lon="8.8306075"><ele>30.75</ele><time>2026-04-23T08:13:02.369Z</time></trkpt><trkpt lat="33.5204247" lon="8.8304765"><ele>30.5</ele><time>2026-04-23T08:13:03.37Z</time></trkpt><trkpt lat="33.5205183" lon="8.8303567"><ele>30.25</ele><time>2026-04-23T08:13:04.37Z</time></trkpt><trkpt lat="33.5205983" lon="8.8302417"><ele>30.0</ele><time>2026-04-23T08:13:05.369Z</time></trkpt><trkpt lat="33.5206583" lon="8.8301433"><ele>30.2</ele><time>2026-04-23T08:13:06.369Z</time></trkpt><trkpt lat="33.5207117" lon="8.83006"><ele>30.4</ele><time>2026-04-23T08:13:07.37Z</time></trkpt><trkpt lat="33.5207567" lon="8.8299867"><ele>30.6</ele><time>2026-04-23T08:13:08.37Z</time></trkpt><trkpt lat="33.520815" lon="8.8298817"><ele>30.8</ele><time>2026-04-23T08:13:10.37Z</time></trkpt><trkpt lat="33.5208717" lon="8.8297967"><ele>31.0</ele><time>2026-04-23T08:13:12.37Z</time></trkpt><trkpt lat="33.5209567" lon="8.8296667"><ele>31.0</ele><time>2026-04-23T08:13:14.369Z</time></trkpt><trkpt lat="33.5210183" lon="8.8295767"><ele>31.0</ele><time>2026-04-23T08:13:15.369Z</time></trkpt><trkpt lat="33.5210883" lon="8.8294717"><ele>31.0</ele><time>2026-04-23T08:13:16.37Z</time></trkpt><trkpt lat="33.52116" lon="8.8293617"><ele>31.0</ele><time>2026-04-23T08:13:17.369Z</time></trkpt><trkpt lat="33.5212417" lon="8.8292433"><ele>30.75</ele><time>2026-04-23T08:13:18.37Z</time></trkpt><trkpt lat="33.5213167" lon="8.8291217"><ele>30.5</ele><time>2026-04-23T08:13:19.369Z</time></trkpt><trkpt lat="33.521405" lon="8.8290017"><ele>30.25</ele><time>2026-04-23T08:13:20.369Z</time></trkpt><trkpt lat="33.5215" lon="8.8288717"><ele>30.0</ele><time>2026-04-23T08:13:21.37Z</time></trkpt><trkpt lat="33.5215867" lon="8.828755"><ele>30.0</ele><time>2026-04-23T08:13:22.37Z</time></trkpt><trkpt lat="33.52166" lon="8.8286467"><ele>30.0</ele><time>2026-04-23T08:13:23.37Z</time></trkpt><trkpt lat="33.52173" lon="8.8285433"><ele>30.0</ele><time>2026-04-23T08:13:24.37Z</time></trkpt><trkpt lat="33.5218" lon="8.82845"><ele>30.0</ele><time>2026-04-23T08:13:25.369Z</time></trkpt><trkpt lat="33.52186" lon="8.82835"><ele>30.0</ele><time>2026-04-23T08:13:26.37Z</time></trkpt><trkpt lat="33.5219233" lon="8.828255"><ele>30.0</ele><time>2026-04-23T08:13:27.37Z</time></trkpt><trkpt lat="33.5219867" lon="8.828155"><ele>30.0</ele><time>2026-04-23T08:13:28.369Z</time></trkpt><trkpt lat="33.52205" lon="8.8280433"><ele>30.0</ele><time>2026-04-23T08:13:29.37Z</time></trkpt><trkpt lat="33.5221183" lon="8.8279233"><ele>30.0</ele><time>2026-04-23T08:13:30.369Z</time></trkpt><trkpt lat="33.5221983" lon="8.8278"><ele>30.0</ele><time>2026-04-23T08:13:31.37Z</time></trkpt><trkpt lat="33.5222917" lon="8.8276767"><ele>30.0</ele><time>2026-04-23T08:13:32.369Z</time></trkpt><trkpt lat="33.5223833" lon="8.8275433"><ele>30.0</ele><time>2026-04-23T08:13:33.369Z</time></trkpt><trkpt lat="33.522495" lon="8.8274267"><ele>30.0</ele><time>2026-04-23T08:13:34.369Z</time></trkpt><trkpt lat="33.5225867" lon="8.8272983"><ele>30.0</ele><time>2026-04-23T08:13:35.37Z</time></trkpt><trkpt lat="33.522655" lon="8.8271717"><ele>30.0</ele><time>2026-04-23T08:13:36.369Z</time></trkpt><trkpt lat="33.522725" lon="8.8270633"><ele>30.0</ele><time>2026-04-23T08:13:37.369Z</time></trkpt><trkpt lat="33.52279" lon="8.8269683"><ele>30.0</ele><time>2026-04-23T08:13:38.369Z</time></trkpt><trkpt lat="33.522855" lon="8.8268683"><ele>30.0</ele><time>2026-04-23T08:13:39.37Z</time></trkpt><trkpt lat="33.5229167" lon="8.8267617"><ele>29.5</ele><time>2026-04-23T08:13:40.369Z</time></trkpt><trkpt lat="33.522985" lon="8.82665"><ele>29.0</ele><time>2026-04-23T08:13:41.369Z</time></trkpt><trkpt lat="33.5230533" lon="8.826525"><ele>28.5</ele><time>2026-04-23T08:13:42.369Z</time></trkpt><trkpt lat="33.5231283" lon="8.8263983"><ele>28.0</ele><time>2026-04-23T08:13:43.37Z</time></trkpt><trkpt lat="33.5232117" lon="8.82627"><ele>28.0</ele><time>2026-04-23T08:13:44.369Z</time></trkpt><trkpt lat="33.5233" lon="8.82614"><ele>28.0</ele><time>2026-04-23T08:13:45.37Z</time></trkpt><trkpt lat="33.5233833" lon="8.8259967"><ele>28.0</ele><time>2026-04-23T08:13:46.37Z</time></trkpt><trkpt lat="33.5234717" lon="8.82586"><ele>28.0</ele><time>2026-04-23T08:13:47.369Z</time></trkpt><trkpt lat="33.523555" lon="8.82571"><ele>28.333333333333336</ele><time>2026-04-23T08:13:48.37Z</time></trkpt><trkpt lat="33.5236467" lon="8.8255617"><ele>28.666666666666664</ele><time>2026-04-23T08:13:49.37Z</time></trkpt><trkpt lat="33.52374" lon="8.8254067"><ele>29.0</ele><time>2026-04-23T08:13:50.369Z</time></trkpt><trkpt lat="33.5238383" lon="8.825255"><ele>28.333333333333332</ele><time>2026-04-23T08:13:51.369Z</time></trkpt><trkpt lat="33.5239433" lon="8.82511"><ele>27.666666666666664</ele><time>2026-04-23T08:13:52.369Z</time></trkpt><trkpt lat="33.5240483" lon="8.82496"><ele>27.0</ele><time>2026-04-23T08:13:53.369Z</time></trkpt><trkpt lat="33.5241483" lon="8.824795"><ele>27.0</ele><time>2026-04-23T08:13:54.369Z</time></trkpt><trkpt lat="33.52425" lon="8.8246383"><ele>27.0</ele><time>2026-04-23T08:13:55.369Z</time></trkpt><trkpt lat="33.5243533" lon="8.8244733"><ele>27.0</ele><time>2026-04-23T08:13:56.369Z</time></trkpt><trkpt lat="33.5244583" lon="8.824305"><ele>26.666666666666664</ele><time>2026-04-23T08:13:57.369Z</time></trkpt><trkpt lat="33.5245633" lon="8.8241433"><ele>26.333333333333332</ele><time>2026-04-23T08:13:58.37Z</time></trkpt><trkpt lat="33.5246717" lon="8.82397"><ele>26.0</ele><time>2026-04-23T08:13:59.369Z</time></trkpt><trkpt lat="33.524775" lon="8.823785"><ele>26.0</ele><time>2026-04-23T08:14:00.37Z</time></trkpt><trkpt lat="33.5248733" lon="8.82361"><ele>26.0</ele><time>2026-04-23T08:14:01.37Z</time></trkpt><trkpt lat="33.5249717" lon="8.82343"><ele>26.0</ele><time>2026-04-23T08:14:02.369Z</time></trkpt><trkpt lat="33.525065" lon="8.823245"><ele>25.0</ele><time>2026-04-23T08:14:03.37Z</time></trkpt><trkpt lat="33.5251683" lon="8.8230683"><ele>24.0</ele><time>2026-04-23T08:14:04.37Z</time></trkpt><trkpt lat="33.5252683" lon="8.82288"><ele>23.0</ele><time>2026-04-23T08:14:05.369Z</time></trkpt><trkpt lat="33.5253667" lon="8.8226883"><ele>22.666666666666668</ele><time>2026-04-23T08:14:06.369Z</time></trkpt><trkpt lat="33.5254683" lon="8.8225"><ele>22.333333333333332</ele><time>2026-04-23T08:14:07.37Z</time></trkpt><trkpt lat="33.5255717" lon="8.8223167"><ele>22.0</ele><time>2026-04-23T08:14:08.369Z</time></trkpt><trkpt lat="33.5256717" lon="8.8221167"><ele>22.0</ele><time>2026-04-23T08:14:09.37Z</time></trkpt><trkpt lat="33.525775" lon="8.8219283"><ele>22.0</ele><time>2026-04-23T08:14:10.369Z</time></trkpt><trkpt lat="33.5258767" lon="8.8217417"><ele>22.0</ele><time>2026-04-23T08:14:11.37Z</time></trkpt><trkpt lat="33.525975" lon="8.8215567"><ele>21.666666666666664</ele><time>2026-04-23T08:14:12.37Z</time></trkpt><trkpt lat="33.5260683" lon="8.82139"><ele>21.333333333333332</ele><time>2026-04-23T08:14:13.369Z</time></trkpt><trkpt lat="33.526145" lon="8.8212317"><ele>21.0</ele><time>2026-04-23T08:14:14.369Z</time></trkpt><trkpt lat="33.526215" lon="8.82108"><ele>20.5</ele><time>2026-04-23T08:14:15.37Z</time></trkpt><trkpt lat="33.5262833" lon="8.8209417"><ele>20.0</ele><time>2026-04-23T08:14:16.369Z</time></trkpt><trkpt lat="33.5263383" lon="8.8208117"><ele>19.5</ele><time>2026-04-23T08:14:17.37Z</time></trkpt><trkpt lat="33.5264" lon="8.82069"><ele>19.0</ele><time>2026-04-23T08:14:18.369Z</time></trkpt><trkpt lat="33.5264667" lon="8.820565"><ele>19.0</ele><time>2026-04-23T08:14:19.369Z</time></trkpt><trkpt lat="33.5265367" lon="8.8204417"><ele>19.0</ele><time>2026-04-23T08:14:20.369Z</time></trkpt><trkpt lat="33.5266033" lon="8.8203217"><ele>19.0</ele><time>2026-04-23T08:14:21.37Z</time></trkpt><trkpt lat="33.52667" lon="8.8201967"><ele>19.0</ele><time>2026-04-23T08:14:22.37Z</time></trkpt><trkpt lat="33.52674" lon="8.8200717"><ele>19.25</ele><time>2026-04-23T08:14:23.369Z</time></trkpt><trkpt lat="33.5268067" lon="8.81994"><ele>19.5</ele><time>2026-04-23T08:14:24.369Z</time></trkpt><trkpt lat="33.526875" lon="8.8198117"><ele>19.75</ele><time>2026-04-23T08:14:25.369Z</time></trkpt><trkpt lat="33.5269467" lon="8.8196833"><ele>20.0</ele><time>2026-04-23T08:14:26.37Z</time></trkpt><trkpt lat="33.5270217" lon="8.8195617"><ele>20.0</ele><time>2026-04-23T08:14:27.369Z</time></trkpt><trkpt lat="33.5271" lon="8.8194317"><ele>20.0</ele><time>2026-04-23T08:14:28.369Z</time></trkpt><trkpt lat="33.5271683" lon="8.8192983"><ele>20.0</ele><time>2026-04-23T08:14:29.37Z</time></trkpt><trkpt lat="33.527235" lon="8.819165"><ele>20.0</ele><time>2026-04-23T08:14:30.37Z</time></trkpt><trkpt lat="33.5273167" lon="8.81904"><ele>20.0</ele><time>2026-04-23T08:14:31.37Z</time></trkpt><trkpt lat="33.527385" lon="8.8189067"><ele>20.0</ele><time>2026-04-23T08:14:32.369Z</time></trkpt><trkpt lat="33.52746" lon="8.8187667"><ele>20.0</ele><time>2026-04-23T08:14:33.369Z</time></trkpt><trkpt lat="33.52754" lon="8.8186283"><ele>20.0</ele><time>2026-04-23T08:14:34.369Z</time></trkpt><trkpt lat="33.5276167" lon="8.8185017"><ele>20.0</ele><time>2026-04-23T08:14:35.369Z</time></trkpt><trkpt lat="33.52769" lon="8.8183583"><ele>20.0</ele><time>2026-04-23T08:14:36.37Z</time></trkpt><trkpt lat="33.5277633" lon="8.8182083"><ele>20.0</ele><time>2026-04-23T08:14:37.37Z</time></trkpt><trkpt lat="33.5278483" lon="8.81806"><ele>20.0</ele><time>2026-04-23T08:14:38.369Z</time></trkpt><trkpt lat="33.5279217" lon="8.81791"><ele>20.0</ele><time>2026-04-23T08:14:39.37Z</time></trkpt><trkpt lat="33.528" lon="8.8177633"><ele>20.0</ele><time>2026-04-23T08:14:40.37Z</time></trkpt><trkpt lat="33.5280767" lon="8.81761"><ele>20.0</ele><time>2026-04-23T08:14:41.37Z</time></trkpt><trkpt lat="33.52816" lon="8.8174533"><ele>20.0</ele><time>2026-04-23T08:14:42.37Z</time></trkpt><trkpt lat="33.52824" lon="8.8172983"><ele>20.0</ele><time>2026-04-23T08:14:43.369Z</time></trkpt><trkpt lat="33.52832" lon="8.8171283"><ele>20.0</ele><time>2026-04-23T08:14:44.37Z</time></trkpt><trkpt lat="33.5284033" lon="8.81696"><ele>20.0</ele><time>2026-04-23T08:14:45.369Z</time></trkpt><trkpt lat="33.5284883" lon="8.8167917"><ele>19.666666666666668</ele><time>2026-04-23T08:14:46.37Z</time></trkpt><trkpt lat="33.5285717" lon="8.8166267"><ele>19.333333333333332</ele><time>2026-04-23T08:14:47.369Z</time></trkpt><trkpt lat="33.528665" lon="8.81645"><ele>19.0</ele><time>2026-04-23T08:14:48.369Z</time></trkpt><trkpt lat="33.5287517" lon="8.8162783"><ele>19.0</ele><time>2026-04-23T08:14:49.369Z</time></trkpt><trkpt lat="33.52885" lon="8.8161067"><ele>19.0</ele><time>2026-04-23T08:14:50.37Z</time></trkpt><trkpt lat="33.5289383" lon="8.8159283"><ele>19.0</ele><time>2026-04-23T08:14:51.369Z</time></trkpt><trkpt lat="33.5290367" lon="8.81576"><ele>19.0</ele><time>2026-04-23T08:14:52.37Z</time></trkpt><trkpt lat="33.52914" lon="8.815585"><ele>19.0</ele><time>2026-04-23T08:14:53.369Z</time></trkpt><trkpt lat="33.529235" lon="8.8154017"><ele>19.0</ele><time>2026-04-23T08:14:54.37Z</time></trkpt><trkpt lat="33.5293333" lon="8.815215"><ele>19.0</ele><time>2026-04-23T08:14:55.37Z</time></trkpt><trkpt lat="33.5294317" lon="8.8150267"><ele>19.0</ele><time>2026-04-23T08:14:56.369Z</time></trkpt><trkpt lat="33.5295483" lon="8.8148483"><ele>19.0</ele><time>2026-04-23T08:14:57.369Z</time></trkpt><trkpt lat="33.5296717" lon="8.814675"><ele>18.333333333333332</ele><time>2026-04-23T08:14:58.369Z</time></trkpt><trkpt lat="33.52981" lon="8.8145067"><ele>17.666666666666668</ele><time>2026-04-23T08:14:59.369Z</time></trkpt><trkpt lat="33.52995" lon="8.81435"><ele>17.0</ele><time>2026-04-23T08:15:00.37Z</time></trkpt><trkpt lat="33.5300967" lon="8.8141967"><ele>17.0</ele><time>2026-04-23T08:15:01.37Z</time></trkpt><trkpt lat="33.5302433" lon="8.8140467"><ele>17.0</ele><time>2026-04-23T08:15:02.369Z</time></trkpt><trkpt lat="33.5303933" lon="8.8139033"><ele>17.0</ele><time>2026-04-23T08:15:03.369Z</time></trkpt><trkpt lat="33.530545" lon="8.8137533"><ele>17.666666666666668</ele><time>2026-04-23T08:15:04.369Z</time></trkpt><trkpt lat="33.5306983" lon="8.8136017"><ele>18.333333333333332</ele><time>2026-04-23T08:15:05.368Z</time></trkpt><trkpt lat="33.5308567" lon="8.81345"><ele>19.0</ele><time>2026-04-23T08:15:06.368Z</time></trkpt><trkpt lat="33.5310133" lon="8.8133"><ele>19.0</ele><time>2026-04-23T08:15:07.368Z</time></trkpt><trkpt lat="33.5311717" lon="8.8131517"><ele>19.0</ele><time>2026-04-23T08:15:08.369Z</time></trkpt><trkpt lat="33.5313317" lon="8.8130067"><ele>19.0</ele><time>2026-04-23T08:15:09.368Z</time></trkpt><trkpt lat="33.5314883" lon="8.81286"><ele>19.0</ele><time>2026-04-23T08:15:10.368Z</time></trkpt><trkpt lat="33.5316383" lon="8.81271"><ele>19.0</ele><time>2026-04-23T08:15:11.368Z</time></trkpt><trkpt lat="33.531805" lon="8.8125533"><ele>19.0</ele><time>2026-04-23T08:15:12.369Z</time></trkpt><trkpt lat="33.5319533" lon="8.8124033"><ele>18.333333333333332</ele><time>2026-04-23T08:15:13.368Z</time></trkpt><trkpt lat="33.53211" lon="8.8122567"><ele>17.666666666666668</ele><time>2026-04-23T08:15:14.369Z</time></trkpt><trkpt lat="33.53226" lon="8.8121067"><ele>17.0</ele><time>2026-04-23T08:15:15.368Z</time></trkpt><trkpt lat="33.5324083" lon="8.811945"><ele>17.333333333333336</ele><time>2026-04-23T08:15:16.368Z</time></trkpt><trkpt lat="33.5325517" lon="8.811785"><ele>17.666666666666668</ele><time>2026-04-23T08:15:17.368Z</time></trkpt><trkpt lat="33.532695" lon="8.8116383"><ele>18.0</ele><time>2026-04-23T08:15:18.369Z</time></trkpt><trkpt lat="33.532835" lon="8.811505"><ele>18.0</ele><time>2026-04-23T08:15:19.368Z</time></trkpt><trkpt lat="33.532985" lon="8.8113717"><ele>18.0</ele><time>2026-04-23T08:15:20.368Z</time></trkpt><trkpt lat="33.5331267" lon="8.8112217"><ele>18.0</ele><time>2026-04-23T08:15:21.369Z</time></trkpt><trkpt lat="33.5332717" lon="8.8110883"><ele>18.0</ele><time>2026-04-23T08:15:22.369Z</time></trkpt><trkpt lat="33.5334133" lon="8.81096"><ele>18.0</ele><time>2026-04-23T08:15:23.368Z</time></trkpt><trkpt lat="33.5335433" lon="8.8108467"><ele>18.0</ele><time>2026-04-23T08:15:24.369Z</time></trkpt><trkpt lat="33.5336767" lon="8.810745"><ele>18.333333333333332</ele><time>2026-04-23T08:15:25.368Z</time></trkpt><trkpt lat="33.5338033" lon="8.8106367"><ele>18.666666666666664</ele><time>2026-04-23T08:15:26.369Z</time></trkpt><trkpt lat="33.5339183" lon="8.81052"><ele>19.0</ele><time>2026-04-23T08:15:27.368Z</time></trkpt><trkpt lat="33.5340417" lon="8.8103933"><ele>19.0</ele><time>2026-04-23T08:15:28.369Z</time></trkpt><trkpt lat="33.5341633" lon="8.81026"><ele>19.0</ele><time>2026-04-23T08:15:29.368Z</time></trkpt><trkpt lat="33.53429" lon="8.8101317"><ele>19.0</ele><time>2026-04-23T08:15:30.368Z</time></trkpt><trkpt lat="33.5344067" lon="8.8100067"><ele>19.0</ele><time>2026-04-23T08:15:31.369Z</time></trkpt><trkpt lat="33.5345383" lon="8.80987"><ele>19.0</ele><time>2026-04-23T08:15:32.368Z</time></trkpt><trkpt lat="33.5346733" lon="8.8097383"><ele>19.0</ele><time>2026-04-23T08:15:33.369Z</time></trkpt><trkpt lat="33.534815" lon="8.8096067"><ele>19.0</ele><time>2026-04-23T08:15:34.369Z</time></trkpt><trkpt lat="33.5349567" lon="8.8094783"><ele>19.0</ele><time>2026-04-23T08:15:35.369Z</time></trkpt><trkpt lat="33.5351017" lon="8.8093517"><ele>19.0</ele><time>2026-04-23T08:15:36.368Z</time></trkpt><trkpt lat="33.5352467" lon="8.8092133"><ele>19.666666666666664</ele><time>2026-04-23T08:15:37.368Z</time></trkpt><trkpt lat="33.5353967" lon="8.8090817"><ele>20.333333333333332</ele><time>2026-04-23T08:15:38.369Z</time></trkpt><trkpt lat="33.5355467" lon="8.8089617"><ele>21.0</ele><time>2026-04-23T08:15:39.368Z</time></trkpt><trkpt lat="33.5356967" lon="8.8088467"><ele>21.0</ele><time>2026-04-23T08:15:40.368Z</time></trkpt><trkpt lat="33.5358533" lon="8.8087417"><ele>21.0</ele><time>2026-04-23T08:15:41.368Z</time></trkpt><trkpt lat="33.5360133" lon="8.8086367"><ele>21.0</ele><time>2026-04-23T08:15:42.369Z</time></trkpt><trkpt lat="33.536185" lon="8.8085367"><ele>21.0</ele><time>2026-04-23T08:15:43.368Z</time></trkpt><trkpt lat="33.53636" lon="8.8084533"><ele>21.0</ele><time>2026-04-23T08:15:44.368Z</time></trkpt><trkpt lat="33.536535" lon="8.8083733"><ele>21.0</ele><time>2026-04-23T08:15:45.369Z</time></trkpt><trkpt lat="33.53671" lon="8.808295"><ele>21.0</ele><time>2026-04-23T08:15:46.368Z</time></trkpt><trkpt lat="33.5368983" lon="8.8082183"><ele>21.0</ele><time>2026-04-23T08:15:47.369Z</time></trkpt><trkpt lat="33.5370833" lon="8.80813"><ele>21.0</ele><time>2026-04-23T08:15:48.368Z</time></trkpt><trkpt lat="33.5372717" lon="8.8080467"><ele>21.0</ele><time>2026-04-23T08:15:49.369Z</time></trkpt><trkpt lat="33.5374517" lon="8.8079567"><ele>21.0</ele><time>2026-04-23T08:15:50.368Z</time></trkpt><trkpt lat="33.53764" lon="8.8078733"><ele>21.0</ele><time>2026-04-23T08:15:51.368Z</time></trkpt><trkpt lat="33.537825" lon="8.80779"><ele>21.0</ele><time>2026-04-23T08:15:52.369Z</time></trkpt><trkpt lat="33.5380133" lon="8.807715"><ele>21.0</ele><time>2026-04-23T08:15:53.369Z</time></trkpt><trkpt lat="33.5381983" lon="8.8076283"><ele>21.0</ele><time>2026-04-23T08:15:54.369Z</time></trkpt><trkpt lat="33.538385" lon="8.8075417"><ele>21.0</ele><time>2026-04-23T08:15:55.369Z</time></trkpt><trkpt lat="33.5385783" lon="8.8074617"><ele>21.0</ele><time>2026-04-23T08:15:56.369Z</time></trkpt><trkpt lat="33.5387667" lon="8.8073833"><ele>21.0</ele><time>2026-04-23T08:15:57.369Z</time></trkpt><trkpt lat="33.53896" lon="8.8073017"><ele>21.333333333333332</ele><time>2026-04-23T08:15:58.368Z</time></trkpt><trkpt lat="33.5391483" lon="8.8072267"><ele>21.666666666666664</ele><time>2026-04-23T08:15:59.368Z</time></trkpt><trkpt lat="33.5393433" lon="8.8071683"><ele>22.0</ele><time>2026-04-23T08:16:00.369Z</time></trkpt><trkpt lat="33.539535" lon="8.8071283"><ele>21.333333333333332</ele><time>2026-04-23T08:16:01.369Z</time></trkpt><trkpt lat="33.5397317" lon="8.8070933"><ele>20.666666666666668</ele><time>2026-04-23T08:16:02.368Z</time></trkpt><trkpt lat="33.53992" lon="8.8070717"><ele>20.0</ele><time>2026-04-23T08:16:03.369Z</time></trkpt><trkpt lat="33.54011" lon="8.8070717"><ele>20.0</ele><time>2026-04-23T08:16:04.369Z</time></trkpt><trkpt lat="33.540285" lon="8.8070983"><ele>20.0</ele><time>2026-04-23T08:16:05.369Z</time></trkpt><trkpt lat="33.5404683" lon="8.8071367"><ele>20.0</ele><time>2026-04-23T08:16:06.368Z</time></trkpt><trkpt lat="33.540645" lon="8.8071767"><ele>19.333333333333336</ele><time>2026-04-23T08:16:07.369Z</time></trkpt><trkpt lat="33.5408167" lon="8.8072167"><ele>18.666666666666668</ele><time>2026-04-23T08:16:08.369Z</time></trkpt><trkpt lat="33.54099" lon="8.80726"><ele>18.0</ele><time>2026-04-23T08:16:09.368Z</time></trkpt><trkpt lat="33.5411467" lon="8.807305"><ele>17.666666666666668</ele><time>2026-04-23T08:16:10.368Z</time></trkpt><trkpt lat="33.5413033" lon="8.807345"><ele>17.333333333333336</ele><time>2026-04-23T08:16:11.368Z</time></trkpt><trkpt lat="33.5414633" lon="8.8073833"><ele>17.0</ele><time>2026-04-23T08:16:12.369Z</time></trkpt><trkpt lat="33.5416183" lon="8.80742"><ele>17.0</ele><time>2026-04-23T08:16:13.369Z</time></trkpt><trkpt lat="33.5417683" lon="8.8074667"><ele>17.0</ele><time>2026-04-23T08:16:14.368Z</time></trkpt><trkpt lat="33.5419283" lon="8.8075133"><ele>17.0</ele><time>2026-04-23T08:16:15.369Z</time></trkpt><trkpt lat="33.5420683" lon="8.80756"><ele>17.0</ele><time>2026-04-23T08:16:16.368Z</time></trkpt><trkpt lat="33.54221" lon="8.8076083"><ele>17.0</ele><time>2026-04-23T08:16:17.368Z</time></trkpt><trkpt lat="33.5423617" lon="8.8076683"><ele>17.0</ele><time>2026-04-23T08:16:18.369Z</time></trkpt><trkpt lat="33.5425" lon="8.8077117"><ele>17.25</ele><time>2026-04-23T08:16:19.369Z</time></trkpt><trkpt lat="33.5426467" lon="8.8077517"><ele>17.5</ele><time>2026-04-23T08:16:20.369Z</time></trkpt><trkpt lat="33.5427917" lon="8.807795"><ele>17.75</ele><time>2026-04-23T08:16:21.369Z</time></trkpt><trkpt lat="33.5429317" lon="8.80784"><ele>18.0</ele><time>2026-04-23T08:16:22.369Z</time></trkpt><trkpt lat="33.5430633" lon="8.8078833"><ele>18.0</ele><time>2026-04-23T08:16:23.368Z</time></trkpt><trkpt lat="33.5431867" lon="8.8079183"><ele>18.0</ele><time>2026-04-23T08:16:24.368Z</time></trkpt><trkpt lat="33.5433" lon="8.80796"><ele>18.0</ele><time>2026-04-23T08:16:25.368Z</time></trkpt><trkpt lat="33.5434183" lon="8.8080017"><ele>18.0</ele><time>2026-04-23T08:16:26.369Z</time></trkpt><trkpt lat="33.5435317" lon="8.80805"><ele>18.0</ele><time>2026-04-23T08:16:27.368Z</time></trkpt><trkpt lat="33.5436383" lon="8.8080967"><ele>18.0</ele><time>2026-04-23T08:16:28.368Z</time></trkpt><trkpt lat="33.5437417" lon="8.808145"><ele>18.0</ele><time>2026-04-23T08:16:29.368Z</time></trkpt><trkpt lat="33.5438467" lon="8.8081967"><ele>18.0</ele><time>2026-04-23T08:16:30.369Z</time></trkpt><trkpt lat="33.5439467" lon="8.8082467"><ele>18.0</ele><time>2026-04-23T08:16:31.368Z</time></trkpt><trkpt lat="33.54405" lon="8.8082967"><ele>18.2</ele><time>2026-04-23T08:16:32.369Z</time></trkpt><trkpt lat="33.54415" lon="8.808355"><ele>18.4</ele><time>2026-04-23T08:16:33.368Z</time></trkpt><trkpt lat="33.5442367" lon="8.808415"><ele>18.599999999999998</ele><time>2026-04-23T08:16:34.368Z</time></trkpt><trkpt lat="33.544315" lon="8.8084717"><ele>18.8</ele><time>2026-04-23T08:16:35.369Z</time></trkpt><trkpt lat="33.54439" lon="8.8085167"><ele>19.0</ele><time>2026-04-23T08:16:36.369Z</time></trkpt><trkpt lat="33.5444517" lon="8.8085567"><ele>19.0</ele><time>2026-04-23T08:16:37.368Z</time></trkpt><trkpt lat="33.544545" lon="8.8086183"><ele>19.0</ele><time>2026-04-23T08:16:39.369Z</time></trkpt><trkpt lat="33.5446117" lon="8.8085767"><ele>19.0</ele><time>2026-04-23T08:16:42.369Z</time></trkpt><trkpt lat="33.5446117" lon="8.808475"><ele>19.0</ele><time>2026-04-23T08:16:45.369Z</time></trkpt><trkpt lat="33.5445283" lon="8.8083917"><ele>19.0</ele><time>2026-04-23T08:19:29.367Z</time></trkpt><trkpt lat="33.5444583" lon="8.80819"><ele>19.333333333333332</ele><time>2026-04-23T08:19:32.368Z</time></trkpt><trkpt lat="33.5444283" lon="8.80812"><ele>19.666666666666664</ele><time>2026-04-23T08:19:33.367Z</time></trkpt><trkpt lat="33.5443933" lon="8.8080433"><ele>20.0</ele><time>2026-04-23T08:19:34.367Z</time></trkpt><trkpt lat="33.5443567" lon="8.80796"><ele>20.333333333333332</ele><time>2026-04-23T08:19:35.367Z</time></trkpt><trkpt lat="33.5443183" lon="8.80787"><ele>20.666666666666668</ele><time>2026-04-23T08:19:36.368Z</time></trkpt><trkpt lat="33.5442833" lon="8.80778"><ele>21.0</ele><time>2026-04-23T08:19:37.368Z</time></trkpt><trkpt lat="33.5442517" lon="8.8076883"><ele>20.6</ele><time>2026-04-23T08:19:38.367Z</time></trkpt><trkpt lat="33.54422" lon="8.807585"><ele>20.200000000000003</ele><time>2026-04-23T08:19:39.368Z</time></trkpt><trkpt lat="33.54419" lon="8.8074733"><ele>19.799999999999997</ele><time>2026-04-23T08:19:40.367Z</time></trkpt><trkpt lat="33.5441617" lon="8.8073533"><ele>19.4</ele><time>2026-04-23T08:19:41.368Z</time></trkpt><trkpt lat="33.5441317" lon="8.80723"><ele>19.0</ele><time>2026-04-23T08:19:42.368Z</time></trkpt><trkpt lat="33.5441033" lon="8.8071117"><ele>19.0</ele><time>2026-04-23T08:19:43.368Z</time></trkpt><trkpt lat="33.5440833" lon="8.8069867"><ele>19.0</ele><time>2026-04-23T08:19:44.367Z</time></trkpt><trkpt lat="33.54406" lon="8.8068533"><ele>19.0</ele><time>2026-04-23T08:19:45.368Z</time></trkpt><trkpt lat="33.5440267" lon="8.806565"><ele>19.0</ele><time>2026-04-23T08:19:47.367Z</time></trkpt><trkpt lat="33.5440183" lon="8.806415"><ele>19.0</ele><time>2026-04-23T08:19:48.367Z</time></trkpt><trkpt lat="33.5440033" lon="8.8062717"><ele>19.0</ele><time>2026-04-23T08:19:49.368Z</time></trkpt><trkpt lat="33.5439933" lon="8.8061167"><ele>19.0</ele><time>2026-04-23T08:19:50.367Z</time></trkpt><trkpt lat="33.5439883" lon="8.8059633"><ele>19.0</ele><time>2026-04-23T08:19:51.368Z</time></trkpt><trkpt lat="33.543985" lon="8.805815"><ele>19.0</ele><time>2026-04-23T08:19:52.367Z</time></trkpt><trkpt lat="33.5439817" lon="8.805655"><ele>19.0</ele><time>2026-04-23T08:19:53.368Z</time></trkpt><trkpt lat="33.5439833" lon="8.8054933"><ele>19.0</ele><time>2026-04-23T08:19:54.367Z</time></trkpt><trkpt lat="33.5439733" lon="8.8053267"><ele>19.0</ele><time>2026-04-23T08:19:55.368Z</time></trkpt><trkpt lat="33.5439633" lon="8.8051583"><ele>19.0</ele><time>2026-04-23T08:19:56.368Z</time></trkpt><trkpt lat="33.5439583" lon="8.80499"><ele>19.0</ele><time>2026-04-23T08:19:57.367Z</time></trkpt><trkpt lat="33.5439583" lon="8.8048267"><ele>19.0</ele><time>2026-04-23T08:19:58.368Z</time></trkpt><trkpt lat="33.5439583" lon="8.8046567"><ele>19.0</ele><time>2026-04-23T08:19:59.367Z</time></trkpt><trkpt lat="33.54396" lon="8.8044883"><ele>19.0</ele><time>2026-04-23T08:20:00.368Z</time></trkpt><trkpt lat="33.5439667" lon="8.80431"><ele>19.0</ele><time>2026-04-23T08:20:01.368Z</time></trkpt><trkpt lat="33.543975" lon="8.8041383"><ele>19.0</ele><time>2026-04-23T08:20:02.368Z</time></trkpt><trkpt lat="33.5439767" lon="8.8039683"><ele>19.0</ele><time>2026-04-23T08:20:03.367Z</time></trkpt><trkpt lat="33.5439833" lon="8.8037983"><ele>19.0</ele><time>2026-04-23T08:20:04.367Z</time></trkpt><trkpt lat="33.5439933" lon="8.8036233"><ele>19.0</ele><time>2026-04-23T08:20:05.367Z</time></trkpt><trkpt lat="33.5440017" lon="8.8034483"><ele>19.0</ele><time>2026-04-23T08:20:06.368Z</time></trkpt><trkpt lat="33.5440083" lon="8.80327"><ele>19.333333333333332</ele><time>2026-04-23T08:20:07.367Z</time></trkpt><trkpt lat="33.5440083" lon="8.8030867"><ele>19.666666666666668</ele><time>2026-04-23T08:20:08.368Z</time></trkpt><trkpt lat="33.54401" lon="8.802905"><ele>20.0</ele><time>2026-04-23T08:20:09.367Z</time></trkpt><trkpt lat="33.5440117" lon="8.8027217"><ele>19.333333333333336</ele><time>2026-04-23T08:20:10.367Z</time></trkpt><trkpt lat="33.5440133" lon="8.8025433"><ele>18.666666666666668</ele><time>2026-04-23T08:20:11.367Z</time></trkpt><trkpt lat="33.5440183" lon="8.8023633"><ele>18.0</ele><time>2026-04-23T08:20:12.367Z</time></trkpt><trkpt lat="33.5440283" lon="8.8021817"><ele>18.0</ele><time>2026-04-23T08:20:13.367Z</time></trkpt><trkpt lat="33.5440367" lon="8.802"><ele>18.0</ele><time>2026-04-23T08:20:14.367Z</time></trkpt><trkpt lat="33.544045" lon="8.8018217"><ele>18.0</ele><time>2026-04-23T08:20:15.368Z</time></trkpt><trkpt lat="33.54405" lon="8.8016383"><ele>18.0</ele><time>2026-04-23T08:20:16.367Z</time></trkpt><trkpt lat="33.5440583" lon="8.8014633"><ele>18.0</ele><time>2026-04-23T08:20:17.368Z</time></trkpt><trkpt lat="33.5440717" lon="8.8012833"><ele>18.0</ele><time>2026-04-23T08:20:18.367Z</time></trkpt><trkpt lat="33.5440867" lon="8.801105"><ele>18.0</ele><time>2026-04-23T08:20:19.368Z</time></trkpt><trkpt lat="33.5441067" lon="8.80092"><ele>18.0</ele><time>2026-04-23T08:20:20.367Z</time></trkpt><trkpt lat="33.5441233" lon="8.8007367"><ele>18.0</ele><time>2026-04-23T08:20:21.367Z</time></trkpt><trkpt lat="33.5441367" lon="8.80055"><ele>18.0</ele><time>2026-04-23T08:20:22.368Z</time></trkpt><trkpt lat="33.5441533" lon="8.8003683"><ele>18.0</ele><time>2026-04-23T08:20:23.367Z</time></trkpt><trkpt lat="33.5441633" lon="8.800185"><ele>18.0</ele><time>2026-04-23T08:20:24.367Z</time></trkpt><trkpt lat="33.54418" lon="8.800005"><ele>18.0</ele><time>2026-04-23T08:20:25.368Z</time></trkpt><trkpt lat="33.5441967" lon="8.799835"><ele>18.0</ele><time>2026-04-23T08:20:26.367Z</time></trkpt><trkpt lat="33.54421" lon="8.7996683"><ele>18.0</ele><time>2026-04-23T08:20:27.367Z</time></trkpt><trkpt lat="33.5442233" lon="8.7994883"><ele>18.0</ele><time>2026-04-23T08:20:28.368Z</time></trkpt><trkpt lat="33.5442367" lon="8.799305"><ele>18.0</ele><time>2026-04-23T08:20:29.368Z</time></trkpt><trkpt lat="33.5442533" lon="8.79913"><ele>18.0</ele><time>2026-04-23T08:20:30.367Z</time></trkpt><trkpt lat="33.54427" lon="8.7989567"><ele>18.0</ele><time>2026-04-23T08:20:31.368Z</time></trkpt><trkpt lat="33.5442967" lon="8.7987817"><ele>18.0</ele><time>2026-04-23T08:20:32.367Z</time></trkpt><trkpt lat="33.5443183" lon="8.798615"><ele>18.0</ele><time>2026-04-23T08:20:33.367Z</time></trkpt><trkpt lat="33.544345" lon="8.7984483"><ele>18.25</ele><time>2026-04-23T08:20:34.367Z</time></trkpt><trkpt lat="33.544375" lon="8.798285"><ele>18.5</ele><time>2026-04-23T08:20:35.368Z</time></trkpt><trkpt lat="33.544415" lon="8.79812"><ele>18.75</ele><time>2026-04-23T08:20:36.367Z</time></trkpt><trkpt lat="33.5444517" lon="8.7979483"><ele>19.0</ele><time>2026-04-23T08:20:37.368Z</time></trkpt><trkpt lat="33.54449" lon="8.7977733"><ele>19.0</ele><time>2026-04-23T08:20:38.368Z</time></trkpt><trkpt lat="33.5445367" lon="8.7976033"><ele>19.0</ele><time>2026-04-23T08:20:39.368Z</time></trkpt><trkpt lat="33.544585" lon="8.7974317"><ele>19.0</ele><time>2026-04-23T08:20:40.368Z</time></trkpt><trkpt lat="33.5446333" lon="8.797265"><ele>19.0</ele><time>2026-04-23T08:20:41.368Z</time></trkpt><trkpt lat="33.544685" lon="8.7971017"><ele>18.5</ele><time>2026-04-23T08:20:42.367Z</time></trkpt><trkpt lat="33.5447333" lon="8.796935"><ele>18.0</ele><time>2026-04-23T08:20:43.367Z</time></trkpt><trkpt lat="33.5447817" lon="8.796765"><ele>17.5</ele><time>2026-04-23T08:20:44.367Z</time></trkpt><trkpt lat="33.5448267" lon="8.7965917"><ele>17.0</ele><time>2026-04-23T08:20:45.367Z</time></trkpt><trkpt lat="33.5448667" lon="8.79642"><ele>17.0</ele><time>2026-04-23T08:20:46.367Z</time></trkpt><trkpt lat="33.5448983" lon="8.7962483"><ele>17.0</ele><time>2026-04-23T08:20:47.368Z</time></trkpt><trkpt lat="33.5449267" lon="8.7960767"><ele>17.0</ele><time>2026-04-23T08:20:48.367Z</time></trkpt><trkpt lat="33.5449567" lon="8.7959017"><ele>17.0</ele><time>2026-04-23T08:20:49.367Z</time></trkpt><trkpt lat="33.5449867" lon="8.795725"><ele>17.25</ele><time>2026-04-23T08:20:50.367Z</time></trkpt><trkpt lat="33.5450133" lon="8.7955717"><ele>17.5</ele><time>2026-04-23T08:20:51.367Z</time></trkpt><trkpt lat="33.5450267" lon="8.795415"><ele>17.75</ele><time>2026-04-23T08:20:52.368Z</time></trkpt><trkpt lat="33.5450483" lon="8.7952567"><ele>18.0</ele><time>2026-04-23T08:20:53.368Z</time></trkpt><trkpt lat="33.5450717" lon="8.7951017"><ele>18.0</ele><time>2026-04-23T08:20:54.367Z</time></trkpt><trkpt lat="33.5450983" lon="8.794955"><ele>18.0</ele><time>2026-04-23T08:20:55.367Z</time></trkpt><trkpt lat="33.5451517" lon="8.7946467"><ele>18.0</ele><time>2026-04-23T08:20:57.367Z</time></trkpt><trkpt lat="33.545175" lon="8.7944867"><ele>18.0</ele><time>2026-04-23T08:20:58.367Z</time></trkpt><trkpt lat="33.54519" lon="8.7943217"><ele>18.0</ele><time>2026-04-23T08:20:59.368Z</time></trkpt><trkpt lat="33.5452017" lon="8.7941517"><ele>18.0</ele><time>2026-04-23T08:21:00.368Z</time></trkpt><trkpt lat="33.545215" lon="8.793985"><ele>18.0</ele><time>2026-04-23T08:21:01.368Z</time></trkpt><trkpt lat="33.5452233" lon="8.7938183"><ele>18.0</ele><time>2026-04-23T08:21:02.367Z</time></trkpt><trkpt lat="33.545225" lon="8.7936417"><ele>18.0</ele><time>2026-04-23T08:21:03.368Z</time></trkpt><trkpt lat="33.545225" lon="8.7934633"><ele>18.0</ele><time>2026-04-23T08:21:04.368Z</time></trkpt><trkpt lat="33.5452233" lon="8.7932867"><ele>18.0</ele><time>2026-04-23T08:21:05.367Z</time></trkpt><trkpt lat="33.5452317" lon="8.79312"><ele>17.75</ele><time>2026-04-23T08:21:06.367Z</time></trkpt><trkpt lat="33.5452383" lon="8.7929567"><ele>17.5</ele><time>2026-04-23T08:21:07.367Z</time></trkpt><trkpt lat="33.5452483" lon="8.7928017"><ele>17.25</ele><time>2026-04-23T08:21:08.367Z</time></trkpt><trkpt lat="33.54526" lon="8.7926517"><ele>17.0</ele><time>2026-04-23T08:21:09.367Z</time></trkpt><trkpt lat="33.5452717" lon="8.7925083"><ele>17.0</ele><time>2026-04-23T08:21:10.367Z</time></trkpt><trkpt lat="33.54529" lon="8.7923633"><ele>17.0</ele><time>2026-04-23T08:21:11.368Z</time></trkpt><trkpt lat="33.545305" lon="8.7922133"><ele>17.0</ele><time>2026-04-23T08:21:12.368Z</time></trkpt><trkpt lat="33.5453167" lon="8.7920617"><ele>17.0</ele><time>2026-04-23T08:21:13.367Z</time></trkpt><trkpt lat="33.5453333" lon="8.791915"><ele>17.2</ele><time>2026-04-23T08:21:14.368Z</time></trkpt><trkpt lat="33.545355" lon="8.7917733"><ele>17.4</ele><time>2026-04-23T08:21:15.367Z</time></trkpt><trkpt lat="33.5453717" lon="8.7916433"><ele>17.6</ele><time>2026-04-23T08:21:16.368Z</time></trkpt><trkpt lat="33.5453817" lon="8.7915283"><ele>17.8</ele><time>2026-04-23T08:21:17.367Z</time></trkpt><trkpt lat="33.545395" lon="8.7914217"><ele>18.0</ele><time>2026-04-23T08:21:18.367Z</time></trkpt><trkpt lat="33.545405" lon="8.7913183"><ele>18.0</ele><time>2026-04-23T08:21:19.368Z</time></trkpt><trkpt lat="33.5454217" lon="8.79124"><ele>18.0</ele><time>2026-04-23T08:21:20.367Z</time></trkpt><trkpt lat="33.5454333" lon="8.7910967"><ele>18.0</ele><time>2026-04-23T08:21:22.367Z</time></trkpt><trkpt lat="33.5454367" lon="8.791015"><ele>18.0</ele><time>2026-04-23T08:21:23.367Z</time></trkpt><trkpt lat="33.5454333" lon="8.7909333"><ele>18.0</ele><time>2026-04-23T08:21:24.368Z</time></trkpt><trkpt lat="33.545435" lon="8.7908567"><ele>18.0</ele><time>2026-04-23T08:21:25.367Z</time></trkpt><trkpt lat="33.54543" lon="8.7907217"><ele>18.0</ele><time>2026-04-23T08:21:27.367Z</time></trkpt><trkpt lat="33.54542" lon="8.7906333"><ele>18.0</ele><time>2026-04-23T08:21:29.368Z</time></trkpt><trkpt lat="33.5454583" lon="8.79054"><ele>18.0</ele><time>2026-04-23T08:22:04.368Z</time></trkpt><trkpt lat="33.5454717" lon="8.7904383"><ele>18.0</ele><time>2026-04-23T08:22:16.368Z</time></trkpt><trkpt lat="33.5454817" lon="8.7903617"><ele>18.0</ele><time>2026-04-23T08:22:18.368Z</time></trkpt><trkpt lat="33.5454767" lon="8.7902517"><ele>18.0</ele><time>2026-04-23T08:22:21.368Z</time></trkpt><trkpt lat="33.54546" lon="8.7901583"><ele>18.0</ele><time>2026-04-23T08:22:23.368Z</time></trkpt><trkpt lat="33.54543" lon="8.79005"><ele>18.0</ele><time>2026-04-23T08:22:25.367Z</time></trkpt><trkpt lat="33.5454617" lon="8.7899"><ele>18.0</ele><time>2026-04-23T08:22:28.366Z</time></trkpt><trkpt lat="33.5455267" lon="8.7898217"><ele>18.0</ele><time>2026-04-23T08:22:30.366Z</time></trkpt><trkpt lat="33.5456083" lon="8.7897533"><ele>18.0</ele><time>2026-04-23T08:22:32.366Z</time></trkpt><trkpt lat="33.5457067" lon="8.7896867"><ele>18.0</ele><time>2026-04-23T08:22:34.366Z</time></trkpt><trkpt lat="33.5457917" lon="8.7896417"><ele>18.0</ele><time>2026-04-23T08:22:36.367Z</time></trkpt><trkpt lat="33.5458667" lon="8.7896417"><ele>18.0</ele><time>2026-04-23T08:22:39.367Z</time></trkpt><trkpt lat="33.54583" lon="8.7895633"><ele>18.0</ele><time>2026-04-23T08:23:08.366Z</time></trkpt><trkpt lat="33.5457833" lon="8.7894583"><ele>18.0</ele><time>2026-04-23T08:23:10.366Z</time></trkpt><trkpt lat="33.545745" lon="8.7893183"><ele>17.6</ele><time>2026-04-23T08:23:12.367Z</time></trkpt><trkpt lat="33.5457283" lon="8.789245"><ele>17.200000000000003</ele><time>2026-04-23T08:23:13.366Z</time></trkpt><trkpt lat="33.5457" lon="8.7891067"><ele>16.8</ele><time>2026-04-23T08:23:15.366Z</time></trkpt><trkpt lat="33.5456917" lon="8.7889617"><ele>16.400000000000002</ele><time>2026-04-23T08:23:17.367Z</time></trkpt><trkpt lat="33.5457117" lon="8.78882"><ele>16.0</ele><time>2026-04-23T08:23:19.367Z</time></trkpt><trkpt lat="33.54575" lon="8.7886883"><ele>16.0</ele><time>2026-04-23T08:23:21.367Z</time></trkpt><trkpt lat="33.5457983" lon="8.7885583"><ele>16.0</ele><time>2026-04-23T08:23:23.367Z</time></trkpt><trkpt lat="33.54585" lon="8.788435"><ele>16.0</ele><time>2026-04-23T08:23:25.366Z</time></trkpt><trkpt lat="33.5459217" lon="8.7883533"><ele>16.0</ele><time>2026-04-23T08:23:27.367Z</time></trkpt><trkpt lat="33.54601" lon="8.7882967"><ele>16.0</ele><time>2026-04-23T08:23:29.366Z</time></trkpt><trkpt lat="33.546105" lon="8.7882633"><ele>15.75</ele><time>2026-04-23T08:23:31.366Z</time></trkpt><trkpt lat="33.5462067" lon="8.7882933"><ele>15.5</ele><time>2026-04-23T08:23:33.367Z</time></trkpt><trkpt lat="33.546315" lon="8.7883317"><ele>15.25</ele><time>2026-04-23T08:23:35.366Z</time></trkpt><trkpt lat="33.546425" lon="8.78838"><ele>15.0</ele><time>2026-04-23T08:23:37.367Z</time></trkpt><trkpt lat="33.5465417" lon="8.788425"><ele>15.5</ele><time>2026-04-23T08:23:39.366Z</time></trkpt><trkpt lat="33.54663" lon="8.7884517"><ele>16.0</ele><time>2026-04-23T08:23:41.366Z</time></trkpt><trkpt lat="33.5467067" lon="8.788445"><ele>16.5</ele><time>2026-04-23T08:23:43.367Z</time></trkpt><trkpt lat="33.5468" lon="8.78842"><ele>17.0</ele><time>2026-04-23T08:23:45.367Z</time></trkpt><trkpt lat="33.5468567" lon="8.7883467"><ele>17.5</ele><time>2026-04-23T08:25:33.366Z</time></trkpt><trkpt lat="33.5469033" lon="8.7882783"><ele>18.0</ele><time>2026-04-23T08:25:34.367Z</time></trkpt><trkpt lat="33.5469533" lon="8.7881817"><ele>18.0</ele><time>2026-04-23T08:25:35.367Z</time></trkpt><trkpt lat="33.5469767" lon="8.7880567"><ele>18.0</ele><time>2026-04-23T08:25:36.366Z</time></trkpt><trkpt lat="33.5469683" lon="8.7879167"><ele>18.0</ele><time>2026-04-23T08:25:37.366Z</time></trkpt><trkpt lat="33.546935" lon="8.7877917"><ele>18.0</ele><time>2026-04-23T08:25:38.365Z</time></trkpt><trkpt lat="33.5468783" lon="8.7876767"><ele>18.0</ele><time>2026-04-23T08:25:39.366Z</time></trkpt><trkpt lat="33.5467983" lon="8.7875767"><ele>17.25</ele><time>2026-04-23T08:25:40.365Z</time></trkpt><trkpt lat="33.5466933" lon="8.7874733"><ele>16.5</ele><time>2026-04-23T08:25:41.366Z</time></trkpt><trkpt lat="33.54658" lon="8.7873883"><ele>15.75</ele><time>2026-04-23T08:25:42.366Z</time></trkpt><trkpt lat="33.546475" lon="8.78732"><ele>15.0</ele><time>2026-04-23T08:25:43.366Z</time></trkpt><trkpt lat="33.5463983" lon="8.7872467"><ele>15.0</ele><time>2026-04-23T08:25:44.365Z</time></trkpt><trkpt lat="33.54635" lon="8.787155"><ele>15.0</ele><time>2026-04-23T08:25:45.366Z</time></trkpt><trkpt lat="33.54633" lon="8.7870517"><ele>15.0</ele><time>2026-04-23T08:25:46.366Z</time></trkpt><trkpt lat="33.5463383" lon="8.78697"><ele>15.0</ele><time>2026-04-23T08:25:47.366Z</time></trkpt><trkpt lat="33.5464" lon="8.7868683"><ele>15.0</ele><time>2026-04-23T08:25:49.366Z</time></trkpt><trkpt lat="33.5465283" lon="8.78689"><ele>15.0</ele><time>2026-04-23T08:25:51.366Z</time></trkpt><trkpt lat="33.5465917" lon="8.7869417"><ele>15.0</ele><time>2026-04-23T08:25:52.366Z</time></trkpt><trkpt lat="33.5466517" lon="8.7870317"><ele>15.0</ele><time>2026-04-23T08:25:53.365Z</time></trkpt><trkpt lat="33.5466667" lon="8.7871517"><ele>15.0</ele><time>2026-04-23T08:25:54.366Z</time></trkpt><trkpt lat="33.546665" lon="8.7872717"><ele>15.0</ele><time>2026-04-23T08:25:55.365Z</time></trkpt><trkpt lat="33.546655" lon="8.7873583"><ele>15.0</ele><time>2026-04-23T08:25:56.365Z</time></trkpt><trkpt lat="33.5466467" lon="8.7874867"><ele>15.0</ele><time>2026-04-23T08:25:58.365Z</time></trkpt><trkpt lat="33.5466167" lon="8.787585"><ele>15.0</ele><time>2026-04-23T08:26:00.365Z</time></trkpt><trkpt lat="33.5465733" lon="8.7876933"><ele>15.0</ele><time>2026-04-23T08:26:02.365Z</time></trkpt><trkpt lat="33.546545" lon="8.787765"><ele>15.0</ele><time>2026-04-23T08:26:04.365Z</time></trkpt><trkpt lat="33.5465167" lon="8.7879067"><ele>15.0</ele><time>2026-04-23T08:36:42.363Z</time></trkpt><trkpt lat="33.54647" lon="8.7880433"><ele>15.0</ele><time>2026-04-23T08:36:44.363Z</time></trkpt><trkpt lat="33.5463967" lon="8.7881617"><ele>15.0</ele><time>2026-04-23T08:36:46.363Z</time></trkpt><trkpt lat="33.5463133" lon="8.788255"><ele>15.0</ele><time>2026-04-23T08:36:48.363Z</time></trkpt><trkpt lat="33.5462283" lon="8.7883567"><ele>15.0</ele><time>2026-04-23T08:36:50.362Z</time></trkpt><trkpt lat="33.54614" lon="8.7884567"><ele>15.0</ele><time>2026-04-23T08:36:52.362Z</time></trkpt><trkpt lat="33.54609" lon="8.7885067"><ele>15.0</ele><time>2026-04-23T08:36:53.363Z</time></trkpt><trkpt lat="33.546" lon="8.7885967"><ele>15.0</ele><time>2026-04-23T08:36:55.362Z</time></trkpt><trkpt lat="33.5459233" lon="8.7886967"><ele>15.0</ele><time>2026-04-23T08:36:57.362Z</time></trkpt><trkpt lat="33.545865" lon="8.7888033"><ele>15.0</ele><time>2026-04-23T08:36:59.363Z</time></trkpt><trkpt lat="33.5458267" lon="8.78892"><ele>15.2</ele><time>2026-04-23T08:37:01.362Z</time></trkpt><trkpt lat="33.5457867" lon="8.7890567"><ele>15.4</ele><time>2026-04-23T08:37:03.363Z</time></trkpt><trkpt lat="33.5457633" lon="8.78913"><ele>15.600000000000001</ele><time>2026-04-23T08:37:04.362Z</time></trkpt><trkpt lat="33.5457367" lon="8.7892"><ele>15.8</ele><time>2026-04-23T08:37:05.362Z</time></trkpt><trkpt lat="33.5456833" lon="8.7893283"><ele>16.0</ele><time>2026-04-23T08:37:07.363Z</time></trkpt><trkpt lat="33.545635" lon="8.7894633"><ele>16.333333333333332</ele><time>2026-04-23T08:37:09.362Z</time></trkpt><trkpt lat="33.5455933" lon="8.78955"><ele>16.666666666666664</ele><time>2026-04-23T08:37:10.362Z</time></trkpt><trkpt lat="33.5455683" lon="8.7896267"><ele>17.0</ele><time>2026-04-23T08:37:11.362Z</time></trkpt><trkpt lat="33.5455467" lon="8.7896983"><ele>17.333333333333332</ele><time>2026-04-23T08:37:12.363Z</time></trkpt><trkpt lat="33.545505" lon="8.7898383"><ele>17.666666666666668</ele><time>2026-04-23T08:37:14.362Z</time></trkpt><trkpt lat="33.5454817" lon="8.78991"><ele>18.0</ele><time>2026-04-23T08:37:15.363Z</time></trkpt><trkpt lat="33.5454567" lon="8.7899883"><ele>18.0</ele><time>2026-04-23T08:37:16.362Z</time></trkpt><trkpt lat="33.5454283" lon="8.7901267"><ele>18.0</ele><time>2026-04-23T08:37:18.362Z</time></trkpt><trkpt lat="33.54542" lon="8.7902017"><ele>18.0</ele><time>2026-04-23T08:37:19.363Z</time></trkpt><trkpt lat="33.54541" lon="8.7903483"><ele>18.0</ele><time>2026-04-23T08:37:21.363Z</time></trkpt><trkpt lat="33.54541" lon="8.79043"><ele>18.0</ele><time>2026-04-23T08:37:22.362Z</time></trkpt><trkpt lat="33.5454133" lon="8.79051"><ele>18.0</ele><time>2026-04-23T08:37:23.363Z</time></trkpt><trkpt lat="33.545425" lon="8.7905867"><ele>18.0</ele><time>2026-04-23T08:37:24.362Z</time></trkpt><trkpt lat="33.545435" lon="8.7906683"><ele>18.0</ele><time>2026-04-23T08:37:25.362Z</time></trkpt><trkpt lat="33.5454483" lon="8.79076"><ele>18.0</ele><time>2026-04-23T08:37:26.362Z</time></trkpt><trkpt lat="33.5454583" lon="8.7908533"><ele>18.0</ele><time>2026-04-23T08:37:27.362Z</time></trkpt><trkpt lat="33.54546" lon="8.7909533"><ele>18.0</ele><time>2026-04-23T08:37:28.362Z</time></trkpt><trkpt lat="33.545455" lon="8.7910483"><ele>18.0</ele><time>2026-04-23T08:37:29.363Z</time></trkpt><trkpt lat="33.5454533" lon="8.7911433"><ele>18.0</ele><time>2026-04-23T08:37:30.362Z</time></trkpt><trkpt lat="33.545445" lon="8.7912417"><ele>18.0</ele><time>2026-04-23T08:37:31.363Z</time></trkpt><trkpt lat="33.5454367" lon="8.7913417"><ele>18.0</ele><time>2026-04-23T08:37:32.362Z</time></trkpt><trkpt lat="33.5454283" lon="8.7914467"><ele>18.0</ele><time>2026-04-23T08:37:33.362Z</time></trkpt><trkpt lat="33.5454117" lon="8.7915483"><ele>18.0</ele><time>2026-04-23T08:37:34.362Z</time></trkpt><trkpt lat="33.5454017" lon="8.7916483"><ele>18.0</ele><time>2026-04-23T08:37:35.362Z</time></trkpt><trkpt lat="33.54539" lon="8.79173"><ele>18.2</ele><time>2026-04-23T08:37:36.363Z</time></trkpt><trkpt lat="33.54539" lon="8.7918417"><ele>18.4</ele><time>2026-04-23T08:37:38.362Z</time></trkpt><trkpt lat="33.54537" lon="8.7919517"><ele>18.599999999999998</ele><time>2026-04-23T08:39:09.362Z</time></trkpt><trkpt lat="33.5453483" lon="8.7921083"><ele>18.8</ele><time>2026-04-23T08:39:11.363Z</time></trkpt><trkpt lat="33.545345" lon="8.7922067"><ele>19.0</ele><time>2026-04-23T08:39:12.362Z</time></trkpt><trkpt lat="33.5453367" lon="8.79231"><ele>18.599999999999998</ele><time>2026-04-23T08:39:13.362Z</time></trkpt><trkpt lat="33.54533" lon="8.7924283"><ele>18.2</ele><time>2026-04-23T08:39:14.362Z</time></trkpt><trkpt lat="33.5453183" lon="8.79255"><ele>17.799999999999997</ele><time>2026-04-23T08:39:15.363Z</time></trkpt><trkpt lat="33.5453033" lon="8.7926783"><ele>17.4</ele><time>2026-04-23T08:39:16.362Z</time></trkpt><trkpt lat="33.5452967" lon="8.7928167"><ele>17.0</ele><time>2026-04-23T08:39:17.363Z</time></trkpt><trkpt lat="33.5452883" lon="8.7929467"><ele>17.0</ele><time>2026-04-23T08:39:18.363Z</time></trkpt><trkpt lat="33.54528" lon="8.7930717"><ele>17.0</ele><time>2026-04-23T08:39:19.362Z</time></trkpt><trkpt lat="33.5452717" lon="8.7932133"><ele>17.0</ele><time>2026-04-23T08:39:20.362Z</time></trkpt><trkpt lat="33.54526" lon="8.7933467"><ele>17.0</ele><time>2026-04-23T08:39:21.362Z</time></trkpt><trkpt lat="33.5452617" lon="8.7935067"><ele>17.25</ele><time>2026-04-23T08:39:22.362Z</time></trkpt><trkpt lat="33.54527" lon="8.7936633"><ele>17.5</ele><time>2026-04-23T08:39:23.362Z</time></trkpt><trkpt lat="33.5452717" lon="8.7938167"><ele>17.75</ele><time>2026-04-23T08:39:24.362Z</time></trkpt><trkpt lat="33.545265" lon="8.79397"><ele>18.0</ele><time>2026-04-23T08:39:25.363Z</time></trkpt><trkpt lat="33.54526" lon="8.7941217"><ele>18.0</ele><time>2026-04-23T08:39:26.362Z</time></trkpt><trkpt lat="33.5452483" lon="8.794265"><ele>18.0</ele><time>2026-04-23T08:39:27.363Z</time></trkpt><trkpt lat="33.545235" lon="8.7944167"><ele>18.0</ele><time>2026-04-23T08:39:28.362Z</time></trkpt><trkpt lat="33.5452117" lon="8.79457"><ele>18.0</ele><time>2026-04-23T08:39:29.363Z</time></trkpt><trkpt lat="33.5451917" lon="8.7947317"><ele>18.0</ele><time>2026-04-23T08:39:30.363Z</time></trkpt><trkpt lat="33.5451633" lon="8.794885"><ele>18.0</ele><time>2026-04-23T08:39:31.362Z</time></trkpt><trkpt lat="33.54514" lon="8.7950333"><ele>18.0</ele><time>2026-04-23T08:39:32.363Z</time></trkpt><trkpt lat="33.54511" lon="8.7951867"><ele>18.0</ele><time>2026-04-23T08:39:33.363Z</time></trkpt><trkpt lat="33.545085" lon="8.7953367"><ele>18.0</ele><time>2026-04-23T08:39:34.362Z</time></trkpt><trkpt lat="33.545065" lon="8.7954883"><ele>18.0</ele><time>2026-04-23T08:39:35.362Z</time></trkpt><trkpt lat="33.5450433" lon="8.7956433"><ele>18.0</ele><time>2026-04-23T08:39:36.363Z</time></trkpt><trkpt lat="33.545025" lon="8.7957967"><ele>18.0</ele><time>2026-04-23T08:39:37.363Z</time></trkpt><trkpt lat="33.545" lon="8.7959483"><ele>17.75</ele><time>2026-04-23T08:39:38.363Z</time></trkpt><trkpt lat="33.5449667" lon="8.7960983"><ele>17.5</ele><time>2026-04-23T08:39:39.362Z</time></trkpt><trkpt lat="33.5449317" lon="8.79625"><ele>17.25</ele><time>2026-04-23T08:39:40.362Z</time></trkpt><trkpt lat="33.5448917" lon="8.7964"><ele>17.0</ele><time>2026-04-23T08:39:41.363Z</time></trkpt><trkpt lat="33.5448533" lon="8.7965533"><ele>17.0</ele><time>2026-04-23T08:39:42.363Z</time></trkpt><trkpt lat="33.5448083" lon="8.7967"><ele>17.0</ele><time>2026-04-23T08:39:43.362Z</time></trkpt><trkpt lat="33.5447617" lon="8.7968583"><ele>17.0</ele><time>2026-04-23T08:39:44.362Z</time></trkpt><trkpt lat="33.5447133" lon="8.7970183"><ele>17.0</ele><time>2026-04-23T08:39:45.363Z</time></trkpt><trkpt lat="33.54467" lon="8.7971767"><ele>17.0</ele><time>2026-04-23T08:39:46.362Z</time></trkpt><trkpt lat="33.5446267" lon="8.7973417"><ele>17.0</ele><time>2026-04-23T08:39:47.362Z</time></trkpt><trkpt lat="33.544575" lon="8.797515"><ele>17.0</ele><time>2026-04-23T08:39:48.362Z</time></trkpt><trkpt lat="33.544525" lon="8.7976883"><ele>17.666666666666668</ele><time>2026-04-23T08:39:49.362Z</time></trkpt><trkpt lat="33.544475" lon="8.7978717"><ele>18.333333333333332</ele><time>2026-04-23T08:39:50.362Z</time></trkpt><trkpt lat="33.5444317" lon="8.798065"><ele>19.0</ele><time>2026-04-23T08:39:51.362Z</time></trkpt><trkpt lat="33.5443983" lon="8.7982583"><ele>19.0</ele><time>2026-04-23T08:39:52.363Z</time></trkpt><trkpt lat="33.5443717" lon="8.7984467"><ele>19.0</ele><time>2026-04-23T08:39:53.362Z</time></trkpt><trkpt lat="33.5443467" lon="8.798635"><ele>19.0</ele><time>2026-04-23T08:39:54.362Z</time></trkpt><trkpt lat="33.544325" lon="8.79882"><ele>18.666666666666664</ele><time>2026-04-23T08:39:55.362Z</time></trkpt><trkpt lat="33.5442983" lon="8.799015"><ele>18.333333333333332</ele><time>2026-04-23T08:39:56.362Z</time></trkpt><trkpt lat="33.5442683" lon="8.7992067"><ele>18.0</ele><time>2026-04-23T08:39:57.362Z</time></trkpt><trkpt lat="33.5442467" lon="8.79939"><ele>17.666666666666668</ele><time>2026-04-23T08:39:58.362Z</time></trkpt><trkpt lat="33.544225" lon="8.7995767"><ele>17.333333333333336</ele><time>2026-04-23T08:39:59.361Z</time></trkpt><trkpt lat="33.5442067" lon="8.799765"><ele>17.0</ele><time>2026-04-23T08:40:00.362Z</time></trkpt><trkpt lat="33.54419" lon="8.799955"><ele>17.0</ele><time>2026-04-23T08:40:01.362Z</time></trkpt><trkpt lat="33.544175" lon="8.8001533"><ele>17.0</ele><time>2026-04-23T08:40:02.362Z</time></trkpt><trkpt lat="33.544155" lon="8.8003483"><ele>17.0</ele><time>2026-04-23T08:40:03.362Z</time></trkpt><trkpt lat="33.544135" lon="8.8005433"><ele>17.333333333333336</ele><time>2026-04-23T08:40:04.362Z</time></trkpt><trkpt lat="33.5441133" lon="8.800735"><ele>17.666666666666668</ele><time>2026-04-23T08:40:05.361Z</time></trkpt><trkpt lat="33.5441" lon="8.8009217"><ele>18.0</ele><time>2026-04-23T08:40:06.361Z</time></trkpt><trkpt lat="33.5440867" lon="8.8011233"><ele>18.0</ele><time>2026-04-23T08:40:07.361Z</time></trkpt><trkpt lat="33.544075" lon="8.8013267"><ele>18.0</ele><time>2026-04-23T08:40:08.362Z</time></trkpt><trkpt lat="33.5440683" lon="8.8015317"><ele>18.0</ele><time>2026-04-23T08:40:09.362Z</time></trkpt><trkpt lat="33.5440567" lon="8.801725"><ele>18.0</ele><time>2026-04-23T08:40:10.361Z</time></trkpt><trkpt lat="33.5440467" lon="8.8019233"><ele>18.0</ele><time>2026-04-23T08:40:11.361Z</time></trkpt><trkpt lat="33.5440383" lon="8.8021317"><ele>18.0</ele><time>2026-04-23T08:40:12.361Z</time></trkpt><trkpt lat="33.54403" lon="8.8023367"><ele>18.0</ele><time>2026-04-23T08:40:13.361Z</time></trkpt><trkpt lat="33.5440283" lon="8.8025367"><ele>18.0</ele><time>2026-04-23T08:40:14.361Z</time></trkpt><trkpt lat="33.5440267" lon="8.8027383"><ele>18.0</ele><time>2026-04-23T08:40:15.362Z</time></trkpt><trkpt lat="33.54402" lon="8.802935"><ele>18.333333333333332</ele><time>2026-04-23T08:40:16.361Z</time></trkpt><trkpt lat="33.54401" lon="8.8031317"><ele>18.666666666666664</ele><time>2026-04-23T08:40:17.361Z</time></trkpt><trkpt lat="33.544005" lon="8.8033367"><ele>19.0</ele><time>2026-04-23T08:40:18.362Z</time></trkpt><trkpt lat="33.5440017" lon="8.8035417"><ele>19.0</ele><time>2026-04-23T08:40:19.361Z</time></trkpt><trkpt lat="33.5439967" lon="8.8037467"><ele>19.0</ele><time>2026-04-23T08:40:20.361Z</time></trkpt><trkpt lat="33.5439967" lon="8.803945"><ele>19.0</ele><time>2026-04-23T08:40:21.362Z</time></trkpt><trkpt lat="33.5439917" lon="8.80415"><ele>19.0</ele><time>2026-04-23T08:40:22.361Z</time></trkpt><trkpt lat="33.5439767" lon="8.8043483"><ele>19.0</ele><time>2026-04-23T08:40:23.361Z</time></trkpt><trkpt lat="33.5439717" lon="8.8045583"><ele>19.0</ele><time>2026-04-23T08:40:24.362Z</time></trkpt><trkpt lat="33.543975" lon="8.804765"><ele>19.0</ele><time>2026-04-23T08:40:25.362Z</time></trkpt><trkpt lat="33.5439783" lon="8.804975"><ele>19.0</ele><time>2026-04-23T08:40:26.361Z</time></trkpt><trkpt lat="33.5439717" lon="8.8051833"><ele>19.0</ele><time>2026-04-23T08:40:27.361Z</time></trkpt><trkpt lat="33.54397" lon="8.8053917"><ele>19.0</ele><time>2026-04-23T08:40:28.362Z</time></trkpt><trkpt lat="33.5439683" lon="8.805595"><ele>19.0</ele><time>2026-04-23T08:40:29.362Z</time></trkpt><trkpt lat="33.5439717" lon="8.8058017"><ele>19.0</ele><time>2026-04-23T08:40:30.362Z</time></trkpt><trkpt lat="33.5439817" lon="8.8060083"><ele>19.0</ele><time>2026-04-23T08:40:31.361Z</time></trkpt><trkpt lat="33.5439933" lon="8.8062217"><ele>19.0</ele><time>2026-04-23T08:40:32.362Z</time></trkpt><trkpt lat="33.5440083" lon="8.8064317"><ele>19.0</ele><time>2026-04-23T08:40:33.361Z</time></trkpt><trkpt lat="33.5440367" lon="8.80664"><ele>19.0</ele><time>2026-04-23T08:40:34.362Z</time></trkpt><trkpt lat="33.5440583" lon="8.8068367"><ele>19.0</ele><time>2026-04-23T08:40:35.361Z</time></trkpt><trkpt lat="33.544085" lon="8.80703"><ele>19.0</ele><time>2026-04-23T08:40:36.361Z</time></trkpt><trkpt lat="33.5441233" lon="8.80721"><ele>19.0</ele><time>2026-04-23T08:40:37.361Z</time></trkpt><trkpt lat="33.5441717" lon="8.8073933"><ele>19.0</ele><time>2026-04-23T08:40:38.362Z</time></trkpt><trkpt lat="33.5442217" lon="8.8075717"><ele>19.0</ele><time>2026-04-23T08:40:39.361Z</time></trkpt><trkpt lat="33.5442717" lon="8.8077333"><ele>19.5</ele><time>2026-04-23T08:40:40.362Z</time></trkpt><trkpt lat="33.5443267" lon="8.80789"><ele>20.0</ele><time>2026-04-23T08:40:41.362Z</time></trkpt><trkpt lat="33.5443867" lon="8.8080383"><ele>20.5</ele><time>2026-04-23T08:40:42.362Z</time></trkpt><trkpt lat="33.54444" lon="8.8081683"><ele>21.0</ele><time>2026-04-23T08:40:43.361Z</time></trkpt><trkpt lat="33.5444883" lon="8.8082817"><ele>21.0</ele><time>2026-04-23T08:40:44.361Z</time></trkpt><trkpt lat="33.5445367" lon="8.80839"><ele>21.0</ele><time>2026-04-23T08:40:45.362Z</time></trkpt><trkpt lat="33.544575" lon="8.8084833"><ele>21.0</ele><time>2026-04-23T08:40:46.361Z</time></trkpt><trkpt lat="33.54461" lon="8.8085717"><ele>21.0</ele><time>2026-04-23T08:40:47.361Z</time></trkpt><trkpt lat="33.5446567" lon="8.808655"><ele>21.0</ele><time>2026-04-23T08:40:48.361Z</time></trkpt><trkpt lat="33.5447217" lon="8.8087333"><ele>21.0</ele><time>2026-04-23T08:40:49.362Z</time></trkpt><trkpt lat="33.5447983" lon="8.808805"><ele>20.400000000000002</ele><time>2026-04-23T08:40:50.362Z</time></trkpt><trkpt lat="33.5448817" lon="8.808875"><ele>19.8</ele><time>2026-04-23T08:40:51.361Z</time></trkpt><trkpt lat="33.54497" lon="8.80894"><ele>19.200000000000003</ele><time>2026-04-23T08:40:52.361Z</time></trkpt><trkpt lat="33.5450667" lon="8.8090133"><ele>18.6</ele><time>2026-04-23T08:40:53.361Z</time></trkpt><trkpt lat="33.5451717" lon="8.80909"><ele>18.0</ele><time>2026-04-23T08:40:54.362Z</time></trkpt><trkpt lat="33.54528" lon="8.8091817"><ele>18.0</ele><time>2026-04-23T08:40:55.361Z</time></trkpt><trkpt lat="33.5453983" lon="8.8092733"><ele>18.0</ele><time>2026-04-23T08:40:56.362Z</time></trkpt><trkpt lat="33.5455167" lon="8.8093667"><ele>18.0</ele><time>2026-04-23T08:40:57.361Z</time></trkpt><trkpt lat="33.5456533" lon="8.809455"><ele>18.0</ele><time>2026-04-23T08:40:58.362Z</time></trkpt><trkpt lat="33.5457817" lon="8.8095417"><ele>18.666666666666668</ele><time>2026-04-23T08:40:59.361Z</time></trkpt><trkpt lat="33.545915" lon="8.80963"><ele>19.333333333333336</ele><time>2026-04-23T08:41:00.361Z</time></trkpt><trkpt lat="33.5460483" lon="8.8097217"><ele>20.0</ele><time>2026-04-23T08:41:01.361Z</time></trkpt><trkpt lat="33.5461767" lon="8.8098183"><ele>20.0</ele><time>2026-04-23T08:41:02.362Z</time></trkpt><trkpt lat="33.5463033" lon="8.8099117"><ele>20.0</ele><time>2026-04-23T08:41:03.361Z</time></trkpt><trkpt lat="33.546425" lon="8.8099967"><ele>20.0</ele><time>2026-04-23T08:41:04.362Z</time></trkpt><trkpt lat="33.546545" lon="8.810085"><ele>20.0</ele><time>2026-04-23T08:41:05.362Z</time></trkpt><trkpt lat="33.5466633" lon="8.8101733"><ele>20.0</ele><time>2026-04-23T08:41:06.362Z</time></trkpt><trkpt lat="33.546775" lon="8.81026"><ele>20.0</ele><time>2026-04-23T08:41:07.361Z</time></trkpt><trkpt lat="33.5468833" lon="8.8103417"><ele>20.0</ele><time>2026-04-23T08:41:08.361Z</time></trkpt><trkpt lat="33.5469917" lon="8.8104267"><ele>20.0</ele><time>2026-04-23T08:41:09.361Z</time></trkpt><trkpt lat="33.5471067" lon="8.810515"><ele>20.25</ele><time>2026-04-23T08:41:10.362Z</time></trkpt><trkpt lat="33.5472183" lon="8.8105933"><ele>20.5</ele><time>2026-04-23T08:41:11.361Z</time></trkpt><trkpt lat="33.5473283" lon="8.8106783"><ele>20.75</ele><time>2026-04-23T08:41:12.362Z</time></trkpt><trkpt lat="33.54744" lon="8.8107633"><ele>21.0</ele><time>2026-04-23T08:41:13.362Z</time></trkpt><trkpt lat="33.54755" lon="8.8108383"><ele>21.0</ele><time>2026-04-23T08:41:14.361Z</time></trkpt><trkpt lat="33.5476517" lon="8.8109033"><ele>21.0</ele><time>2026-04-23T08:41:15.361Z</time></trkpt><trkpt lat="33.54776" lon="8.81098"><ele>21.0</ele><time>2026-04-23T08:41:16.362Z</time></trkpt><trkpt lat="33.5478583" lon="8.8110517"><ele>21.0</ele><time>2026-04-23T08:41:17.362Z</time></trkpt><trkpt lat="33.5479583" lon="8.811125"><ele>20.5</ele><time>2026-04-23T08:41:18.362Z</time></trkpt><trkpt lat="33.54806" lon="8.8111917"><ele>20.0</ele><time>2026-04-23T08:41:19.362Z</time></trkpt><trkpt lat="33.54816" lon="8.811275"><ele>19.5</ele><time>2026-04-23T08:41:20.361Z</time></trkpt><trkpt lat="33.5482617" lon="8.81135"><ele>19.0</ele><time>2026-04-23T08:41:21.362Z</time></trkpt><trkpt lat="33.5483617" lon="8.8114367"><ele>19.0</ele><time>2026-04-23T08:41:22.361Z</time></trkpt><trkpt lat="33.5484667" lon="8.811515"><ele>19.0</ele><time>2026-04-23T08:41:23.362Z</time></trkpt><trkpt lat="33.5485583" lon="8.811605"><ele>19.0</ele><time>2026-04-23T08:41:24.361Z</time></trkpt><trkpt lat="33.5486617" lon="8.8116833"><ele>19.0</ele><time>2026-04-23T08:41:25.362Z</time></trkpt><trkpt lat="33.54877" lon="8.8117717"><ele>18.75</ele><time>2026-04-23T08:41:26.361Z</time></trkpt><trkpt lat="33.5488783" lon="8.8118567"><ele>18.5</ele><time>2026-04-23T08:41:27.362Z</time></trkpt><trkpt lat="33.5489867" lon="8.8119417"><ele>18.25</ele><time>2026-04-23T08:41:28.362Z</time></trkpt><trkpt lat="33.549095" lon="8.812025"><ele>18.0</ele><time>2026-04-23T08:41:29.361Z</time></trkpt><trkpt lat="33.5492017" lon="8.81211"><ele>18.0</ele><time>2026-04-23T08:41:30.361Z</time></trkpt><trkpt lat="33.5493167" lon="8.8122083"><ele>18.0</ele><time>2026-04-23T08:41:31.362Z</time></trkpt><trkpt lat="33.5494367" lon="8.8123"><ele>18.0</ele><time>2026-04-23T08:41:32.361Z</time></trkpt><trkpt lat="33.5495617" lon="8.8123867"><ele>18.0</ele><time>2026-04-23T08:41:33.361Z</time></trkpt><trkpt lat="33.5496733" lon="8.8124683"><ele>18.0</ele><time>2026-04-23T08:41:34.361Z</time></trkpt><trkpt lat="33.5497817" lon="8.8125583"><ele>18.0</ele><time>2026-04-23T08:41:35.361Z</time></trkpt><trkpt lat="33.5499" lon="8.81265"><ele>18.0</ele><time>2026-04-23T08:41:36.362Z</time></trkpt><trkpt lat="33.5500183" lon="8.8127417"><ele>18.0</ele><time>2026-04-23T08:41:37.361Z</time></trkpt><trkpt lat="33.550135" lon="8.8128367"><ele>18.75</ele><time>2026-04-23T08:41:38.361Z</time></trkpt><trkpt lat="33.550255" lon="8.8129367"><ele>19.5</ele><time>2026-04-23T08:41:39.361Z</time></trkpt><trkpt lat="33.55037" lon="8.813035"><ele>20.25</ele><time>2026-04-23T08:41:40.361Z</time></trkpt><trkpt lat="33.550485" lon="8.8131267"><ele>21.0</ele><time>2026-04-23T08:41:41.362Z</time></trkpt><trkpt lat="33.550595" lon="8.8132183"><ele>21.0</ele><time>2026-04-23T08:41:42.362Z</time></trkpt><trkpt lat="33.5507117" lon="8.81331"><ele>21.0</ele><time>2026-04-23T08:41:43.361Z</time></trkpt><trkpt lat="33.5508117" lon="8.8134017"><ele>21.0</ele><time>2026-04-23T08:41:44.362Z</time></trkpt><trkpt lat="33.55092" lon="8.8134883"><ele>21.0</ele><time>2026-04-23T08:41:45.361Z</time></trkpt><trkpt lat="33.551025" lon="8.8135817"><ele>21.25</ele><time>2026-04-23T08:41:46.362Z</time></trkpt><trkpt lat="33.5511333" lon="8.8136683"><ele>21.5</ele><time>2026-04-23T08:41:47.362Z</time></trkpt><trkpt lat="33.5512383" lon="8.8137533"><ele>21.75</ele><time>2026-04-23T08:41:48.361Z</time></trkpt><trkpt lat="33.551345" lon="8.8138333"><ele>22.0</ele><time>2026-04-23T08:41:49.362Z</time></trkpt><trkpt lat="33.5514533" lon="8.813925"><ele>21.5</ele><time>2026-04-23T08:41:50.362Z</time></trkpt><trkpt lat="33.5515667" lon="8.8140233"><ele>21.0</ele><time>2026-04-23T08:41:51.362Z</time></trkpt><trkpt lat="33.5516717" lon="8.8141217"><ele>20.5</ele><time>2026-04-23T08:41:52.361Z</time></trkpt><trkpt lat="33.551785" lon="8.8142233"><ele>20.0</ele><time>2026-04-23T08:41:53.361Z</time></trkpt><trkpt lat="33.5518983" lon="8.8143183"><ele>19.5</ele><time>2026-04-23T08:41:54.362Z</time></trkpt><trkpt lat="33.5520133" lon="8.8144117"><ele>19.0</ele><time>2026-04-23T08:41:55.362Z</time></trkpt><trkpt lat="33.5521283" lon="8.8145083"><ele>18.5</ele><time>2026-04-23T08:41:56.361Z</time></trkpt><trkpt lat="33.5522467" lon="8.8146183"><ele>18.0</ele><time>2026-04-23T08:41:57.362Z</time></trkpt><trkpt lat="33.5523617" lon="8.8147267"><ele>18.0</ele><time>2026-04-23T08:41:58.362Z</time></trkpt><trkpt lat="33.55248" lon="8.81483"><ele>18.0</ele><time>2026-04-23T08:41:59.362Z</time></trkpt><trkpt lat="33.5525867" lon="8.8149383"><ele>18.0</ele><time>2026-04-23T08:42:00.361Z</time></trkpt><trkpt lat="33.5527083" lon="8.8150467"><ele>18.0</ele><time>2026-04-23T08:42:01.362Z</time></trkpt><trkpt lat="33.5528333" lon="8.815155"><ele>18.0</ele><time>2026-04-23T08:42:02.362Z</time></trkpt><trkpt lat="33.5529583" lon="8.81527"><ele>18.0</ele><time>2026-04-23T08:42:03.361Z</time></trkpt><trkpt lat="33.55308" lon="8.8153883"><ele>18.0</ele><time>2026-04-23T08:42:04.362Z</time></trkpt><trkpt lat="33.5531983" lon="8.815505"><ele>18.0</ele><time>2026-04-23T08:42:05.361Z</time></trkpt><trkpt lat="33.5533167" lon="8.81563"><ele>18.0</ele><time>2026-04-23T08:42:06.362Z</time></trkpt><trkpt lat="33.5534417" lon="8.8157533"><ele>18.0</ele><time>2026-04-23T08:42:07.361Z</time></trkpt><trkpt lat="33.5535683" lon="8.815875"><ele>18.0</ele><time>2026-04-23T08:42:08.362Z</time></trkpt><trkpt lat="33.5537" lon="8.81601"><ele>18.0</ele><time>2026-04-23T08:42:09.362Z</time></trkpt><trkpt lat="33.55383" lon="8.816145"><ele>18.0</ele><time>2026-04-23T08:42:10.361Z</time></trkpt><trkpt lat="33.5539633" lon="8.8162767"><ele>18.0</ele><time>2026-04-23T08:42:11.361Z</time></trkpt><trkpt lat="33.5540983" lon="8.8164067"><ele>18.0</ele><time>2026-04-23T08:42:12.362Z</time></trkpt><trkpt lat="33.5542333" lon="8.81654"><ele>18.0</ele><time>2026-04-23T08:42:13.362Z</time></trkpt><trkpt lat="33.5543717" lon="8.81667"><ele>18.0</ele><time>2026-04-23T08:42:14.362Z</time></trkpt><trkpt lat="33.5545167" lon="8.8168"><ele>18.0</ele><time>2026-04-23T08:42:15.362Z</time></trkpt><trkpt lat="33.554665" lon="8.8169267"><ele>18.0</ele><time>2026-04-23T08:42:16.362Z</time></trkpt><trkpt lat="33.554805" lon="8.8170617"><ele>18.666666666666668</ele><time>2026-04-23T08:42:17.362Z</time></trkpt><trkpt lat="33.5549533" lon="8.8172017"><ele>19.333333333333336</ele><time>2026-04-23T08:42:18.362Z</time></trkpt><trkpt lat="33.5551" lon="8.8173417"><ele>20.0</ele><time>2026-04-23T08:42:19.361Z</time></trkpt><trkpt lat="33.5552467" lon="8.8174883"><ele>19.666666666666668</ele><time>2026-04-23T08:42:20.361Z</time></trkpt><trkpt lat="33.5554" lon="8.81764"><ele>19.333333333333332</ele><time>2026-04-23T08:42:21.361Z</time></trkpt><trkpt lat="33.5555483" lon="8.817795"><ele>19.0</ele><time>2026-04-23T08:42:22.361Z</time></trkpt><trkpt lat="33.5557017" lon="8.81795"><ele>19.0</ele><time>2026-04-23T08:42:23.361Z</time></trkpt><trkpt lat="33.5558583" lon="8.8180983"><ele>19.0</ele><time>2026-04-23T08:42:24.361Z</time></trkpt><trkpt lat="33.5560167" lon="8.81824"><ele>19.0</ele><time>2026-04-23T08:42:25.361Z</time></trkpt><trkpt lat="33.556175" lon="8.8183867"><ele>19.0</ele><time>2026-04-23T08:42:26.361Z</time></trkpt><trkpt lat="33.55633" lon="8.818535"><ele>19.0</ele><time>2026-04-23T08:42:27.361Z</time></trkpt><trkpt lat="33.5564817" lon="8.818685"><ele>19.0</ele><time>2026-04-23T08:42:28.361Z</time></trkpt><trkpt lat="33.55664" lon="8.8188267"><ele>19.0</ele><time>2026-04-23T08:42:29.361Z</time></trkpt><trkpt lat="33.5568017" lon="8.8189633"><ele>19.0</ele><time>2026-04-23T08:42:30.361Z</time></trkpt><trkpt lat="33.5569533" lon="8.8191167"><ele>19.0</ele><time>2026-04-23T08:42:31.361Z</time></trkpt><trkpt lat="33.557115" lon="8.81927"><ele>18.666666666666664</ele><time>2026-04-23T08:42:32.361Z</time></trkpt><trkpt lat="33.5572717" lon="8.8194233"><ele>18.333333333333332</ele><time>2026-04-23T08:42:33.361Z</time></trkpt><trkpt lat="33.557425" lon="8.8195733"><ele>18.0</ele><time>2026-04-23T08:42:34.361Z</time></trkpt><trkpt lat="33.5575867" lon="8.8197183"><ele>18.0</ele><time>2026-04-23T08:42:35.361Z</time></trkpt><trkpt lat="33.5577517" lon="8.8198633"><ele>18.0</ele><time>2026-04-23T08:42:36.361Z</time></trkpt><trkpt lat="33.55791" lon="8.8200117"><ele>18.0</ele><time>2026-04-23T08:42:37.361Z</time></trkpt><trkpt lat="33.558075" lon="8.8201617"><ele>18.0</ele><time>2026-04-23T08:42:38.361Z</time></trkpt><trkpt lat="33.5582367" lon="8.8203167"><ele>18.0</ele><time>2026-04-23T08:42:39.361Z</time></trkpt><trkpt lat="33.5584017" lon="8.8204717"><ele>18.0</ele><time>2026-04-23T08:42:40.361Z</time></trkpt><trkpt lat="33.5585667" lon="8.8206317"><ele>18.666666666666668</ele><time>2026-04-23T08:42:41.361Z</time></trkpt><trkpt lat="33.55873" lon="8.8208"><ele>19.333333333333336</ele><time>2026-04-23T08:42:42.361Z</time></trkpt><trkpt lat="33.558895" lon="8.8209583"><ele>20.0</ele><time>2026-04-23T08:42:43.361Z</time></trkpt><trkpt lat="33.5590633" lon="8.8211117"><ele>20.0</ele><time>2026-04-23T08:42:44.361Z</time></trkpt><trkpt lat="33.5592367" lon="8.8212617"><ele>20.0</ele><time>2026-04-23T08:42:45.362Z</time></trkpt><trkpt lat="33.5594117" lon="8.8214083"><ele>20.0</ele><time>2026-04-23T08:42:46.362Z</time></trkpt><trkpt lat="33.55958" lon="8.82156"><ele>20.0</ele><time>2026-04-23T08:42:47.362Z</time></trkpt><trkpt lat="33.5597533" lon="8.82171"><ele>20.0</ele><time>2026-04-23T08:42:48.361Z</time></trkpt><trkpt lat="33.5599367" lon="8.8218517"><ele>20.0</ele><time>2026-04-23T08:42:49.361Z</time></trkpt><trkpt lat="33.5601033" lon="8.8219967"><ele>19.666666666666668</ele><time>2026-04-23T08:42:50.361Z</time></trkpt><trkpt lat="33.5602767" lon="8.8221267"><ele>19.333333333333332</ele><time>2026-04-23T08:42:51.362Z</time></trkpt><trkpt lat="33.560465" lon="8.8222433"><ele>19.0</ele><time>2026-04-23T08:42:52.361Z</time></trkpt><trkpt lat="33.5606583" lon="8.822355"><ele>19.0</ele><time>2026-04-23T08:42:53.361Z</time></trkpt><trkpt lat="33.5608583" lon="8.8224533"><ele>19.0</ele><time>2026-04-23T08:42:54.361Z</time></trkpt><trkpt lat="33.561055" lon="8.8225417"><ele>19.0</ele><time>2026-04-23T08:42:55.361Z</time></trkpt><trkpt lat="33.5612483" lon="8.822625"><ele>19.333333333333332</ele><time>2026-04-23T08:42:56.361Z</time></trkpt><trkpt lat="33.5614633" lon="8.822675"><ele>19.666666666666668</ele><time>2026-04-23T08:42:57.361Z</time></trkpt><trkpt lat="33.5616783" lon="8.8227067"><ele>20.0</ele><time>2026-04-23T08:42:58.361Z</time></trkpt><trkpt lat="33.56189" lon="8.82274"><ele>19.666666666666668</ele><time>2026-04-23T08:42:59.361Z</time></trkpt><trkpt lat="33.5621117" lon="8.8227717"><ele>19.333333333333332</ele><time>2026-04-23T08:43:00.362Z</time></trkpt><trkpt lat="33.56233" lon="8.8228017"><ele>19.0</ele><time>2026-04-23T08:43:01.362Z</time></trkpt><trkpt lat="33.5625467" lon="8.8228283"><ele>19.0</ele><time>2026-04-23T08:43:02.362Z</time></trkpt><trkpt lat="33.5627667" lon="8.8228533"><ele>19.0</ele><time>2026-04-23T08:43:03.361Z</time></trkpt><trkpt lat="33.5629883" lon="8.82288"><ele>19.0</ele><time>2026-04-23T08:43:04.362Z</time></trkpt><trkpt lat="33.5632083" lon="8.8229117"><ele>19.0</ele><time>2026-04-23T08:43:05.361Z</time></trkpt><trkpt lat="33.563425" lon="8.82295"><ele>19.0</ele><time>2026-04-23T08:43:06.361Z</time></trkpt><trkpt lat="33.5636433" lon="8.8229733"><ele>19.0</ele><time>2026-04-23T08:43:07.361Z</time></trkpt><trkpt lat="33.56387" lon="8.822995"><ele>19.0</ele><time>2026-04-23T08:43:08.362Z</time></trkpt><trkpt lat="33.5640867" lon="8.8230083"><ele>19.0</ele><time>2026-04-23T08:43:09.361Z</time></trkpt><trkpt lat="33.564315" lon="8.8230183"><ele>19.0</ele><time>2026-04-23T08:43:10.362Z</time></trkpt><trkpt lat="33.5645367" lon="8.8230217"><ele>19.0</ele><time>2026-04-23T08:43:11.362Z</time></trkpt><trkpt lat="33.5647617" lon="8.822995"><ele>19.0</ele><time>2026-04-23T08:43:12.362Z</time></trkpt><trkpt lat="33.5649817" lon="8.822975"><ele>19.0</ele><time>2026-04-23T08:43:13.362Z</time></trkpt><trkpt lat="33.5651983" lon="8.8229433"><ele>19.0</ele><time>2026-04-23T08:43:14.361Z</time></trkpt><trkpt lat="33.5654167" lon="8.82292"><ele>19.0</ele><time>2026-04-23T08:43:15.361Z</time></trkpt><trkpt lat="33.5656333" lon="8.82289"><ele>19.0</ele><time>2026-04-23T08:43:16.361Z</time></trkpt><trkpt lat="33.56585" lon="8.82287"><ele>19.0</ele><time>2026-04-23T08:43:17.361Z</time></trkpt><trkpt lat="33.5660767" lon="8.8228617"><ele>19.0</ele><time>2026-04-23T08:43:18.361Z</time></trkpt><trkpt lat="33.5662983" lon="8.8228583"><ele>19.0</ele><time>2026-04-23T08:43:19.361Z</time></trkpt><trkpt lat="33.56652" lon="8.822865"><ele>18.666666666666664</ele><time>2026-04-23T08:43:20.362Z</time></trkpt><trkpt lat="33.566735" lon="8.822875"><ele>18.333333333333332</ele><time>2026-04-23T08:43:21.361Z</time></trkpt><trkpt lat="33.5669533" lon="8.8228767"><ele>18.0</ele><time>2026-04-23T08:43:22.361Z</time></trkpt><trkpt lat="33.5671683" lon="8.8228833"><ele>18.0</ele><time>2026-04-23T08:43:23.361Z</time></trkpt><trkpt lat="33.5673717" lon="8.8229"><ele>18.0</ele><time>2026-04-23T08:43:24.361Z</time></trkpt><trkpt lat="33.567575" lon="8.8229233"><ele>18.0</ele><time>2026-04-23T08:43:25.361Z</time></trkpt><trkpt lat="33.5677767" lon="8.8229433"><ele>18.666666666666668</ele><time>2026-04-23T08:43:26.361Z</time></trkpt><trkpt lat="33.5679783" lon="8.8229583"><ele>19.333333333333336</ele><time>2026-04-23T08:43:27.362Z</time></trkpt><trkpt lat="33.56819" lon="8.82298"><ele>20.0</ele><time>2026-04-23T08:43:28.362Z</time></trkpt><trkpt lat="33.5683933" lon="8.823"><ele>20.0</ele><time>2026-04-23T08:43:29.362Z</time></trkpt><trkpt lat="33.5686" lon="8.823025"><ele>20.0</ele><time>2026-04-23T08:43:30.361Z</time></trkpt><trkpt lat="33.5688" lon="8.8230533"><ele>20.0</ele><time>2026-04-23T08:43:31.362Z</time></trkpt><trkpt lat="33.569005" lon="8.8230833"><ele>19.333333333333336</ele><time>2026-04-23T08:43:32.362Z</time></trkpt><trkpt lat="33.5692067" lon="8.8231267"><ele>18.666666666666668</ele><time>2026-04-23T08:43:33.362Z</time></trkpt><trkpt lat="33.5694217" lon="8.8231733"><ele>18.0</ele><time>2026-04-23T08:43:34.361Z</time></trkpt><trkpt lat="33.5696233" lon="8.82322"><ele>18.0</ele><time>2026-04-23T08:43:35.362Z</time></trkpt><trkpt lat="33.5698267" lon="8.8232667"><ele>18.0</ele><time>2026-04-23T08:43:36.361Z</time></trkpt><trkpt lat="33.5700333" lon="8.8233183"><ele>18.0</ele><time>2026-04-23T08:43:37.361Z</time></trkpt><trkpt lat="33.570235" lon="8.8233717"><ele>18.0</ele><time>2026-04-23T08:43:38.362Z</time></trkpt><trkpt lat="33.5704433" lon="8.8234267"><ele>18.0</ele><time>2026-04-23T08:43:39.362Z</time></trkpt><trkpt lat="33.5706583" lon="8.8234767"><ele>18.0</ele><time>2026-04-23T08:43:40.362Z</time></trkpt><trkpt lat="33.5708683" lon="8.823525"><ele>18.0</ele><time>2026-04-23T08:43:41.361Z</time></trkpt><trkpt lat="33.571075" lon="8.8235783"><ele>18.0</ele><time>2026-04-23T08:43:42.361Z</time></trkpt><trkpt lat="33.57129" lon="8.823625"><ele>18.0</ele><time>2026-04-23T08:43:43.362Z</time></trkpt><trkpt lat="33.571495" lon="8.8236733"><ele>17.666666666666668</ele><time>2026-04-23T08:43:44.362Z</time></trkpt><trkpt lat="33.571695" lon="8.82373"><ele>17.333333333333336</ele><time>2026-04-23T08:43:45.361Z</time></trkpt><trkpt lat="33.5718967" lon="8.8237767"><ele>17.0</ele><time>2026-04-23T08:43:46.362Z</time></trkpt><trkpt lat="33.5720983" lon="8.8238333"><ele>17.0</ele><time>2026-04-23T08:43:47.361Z</time></trkpt><trkpt lat="33.572305" lon="8.8238833"><ele>17.0</ele><time>2026-04-23T08:43:48.36Z</time></trkpt><trkpt lat="33.5725067" lon="8.8239533"><ele>17.0</ele><time>2026-04-23T08:43:49.361Z</time></trkpt><trkpt lat="33.5727183" lon="8.824025"><ele>17.0</ele><time>2026-04-23T08:43:50.36Z</time></trkpt><trkpt lat="33.57292" lon="8.8241067"><ele>17.0</ele><time>2026-04-23T08:43:51.36Z</time></trkpt><trkpt lat="33.5731133" lon="8.8242033"><ele>17.0</ele><time>2026-04-23T08:43:52.361Z</time></trkpt><trkpt lat="33.5733" lon="8.82429"><ele>17.333333333333336</ele><time>2026-04-23T08:43:53.361Z</time></trkpt><trkpt lat="33.5735" lon="8.8243667"><ele>17.666666666666668</ele><time>2026-04-23T08:43:54.361Z</time></trkpt><trkpt lat="33.5736917" lon="8.8244417"><ele>18.0</ele><time>2026-04-23T08:43:55.36Z</time></trkpt><trkpt lat="33.5738983" lon="8.8245167"><ele>18.333333333333332</ele><time>2026-04-23T08:43:56.36Z</time></trkpt><trkpt lat="33.5741" lon="8.8245967"><ele>18.666666666666664</ele><time>2026-04-23T08:43:57.36Z</time></trkpt><trkpt lat="33.5743" lon="8.8246617"><ele>19.0</ele><time>2026-04-23T08:43:58.361Z</time></trkpt><trkpt lat="33.5744983" lon="8.8247383"><ele>19.0</ele><time>2026-04-23T08:43:59.361Z</time></trkpt><trkpt lat="33.5746967" lon="8.8248167"><ele>19.0</ele><time>2026-04-23T08:44:00.36Z</time></trkpt><trkpt lat="33.5749" lon="8.824895"><ele>19.0</ele><time>2026-04-23T08:44:01.36Z</time></trkpt><trkpt lat="33.5751" lon="8.82497"><ele>19.0</ele><time>2026-04-23T08:44:02.361Z</time></trkpt><trkpt lat="33.5753" lon="8.8250483"><ele>19.0</ele><time>2026-04-23T08:44:03.36Z</time></trkpt><trkpt lat="33.5755" lon="8.8251217"><ele>19.0</ele><time>2026-04-23T08:44:04.36Z</time></trkpt><trkpt lat="33.5757067" lon="8.8252017"><ele>18.333333333333332</ele><time>2026-04-23T08:44:05.36Z</time></trkpt><trkpt lat="33.5759117" lon="8.8252833"><ele>17.666666666666668</ele><time>2026-04-23T08:44:06.361Z</time></trkpt><trkpt lat="33.576125" lon="8.825355"><ele>17.0</ele><time>2026-04-23T08:44:07.36Z</time></trkpt><trkpt lat="33.5763167" lon="8.8254267"><ele>17.0</ele><time>2026-04-23T08:44:08.361Z</time></trkpt><trkpt lat="33.5765167" lon="8.8254867"><ele>17.0</ele><time>2026-04-23T08:44:09.36Z</time></trkpt><trkpt lat="33.5767183" lon="8.82555"><ele>17.0</ele><time>2026-04-23T08:44:10.36Z</time></trkpt><trkpt lat="33.5769217" lon="8.82561"><ele>17.0</ele><time>2026-04-23T08:44:11.36Z</time></trkpt><trkpt lat="33.577125" lon="8.8256733"><ele>17.0</ele><time>2026-04-23T08:44:12.361Z</time></trkpt><trkpt lat="33.5773333" lon="8.825735"><ele>17.0</ele><time>2026-04-23T08:44:13.361Z</time></trkpt><trkpt lat="33.5775333" lon="8.8258083"><ele>17.0</ele><time>2026-04-23T08:44:14.361Z</time></trkpt><trkpt lat="33.5777267" lon="8.825875"><ele>17.0</ele><time>2026-04-23T08:44:15.356Z</time></trkpt><trkpt lat="33.577925" lon="8.8259383"><ele>17.0</ele><time>2026-04-23T08:44:16.36Z</time></trkpt><trkpt lat="33.578125" lon="8.8259967"><ele>17.333333333333336</ele><time>2026-04-23T08:44:17.361Z</time></trkpt><trkpt lat="33.5783217" lon="8.826055"><ele>17.666666666666668</ele><time>2026-04-23T08:44:18.36Z</time></trkpt><trkpt lat="33.57851" lon="8.8261167"><ele>18.0</ele><time>2026-04-23T08:44:19.361Z</time></trkpt><trkpt lat="33.5786917" lon="8.826175"><ele>18.0</ele><time>2026-04-23T08:44:20.361Z</time></trkpt><trkpt lat="33.5788817" lon="8.8262417"><ele>18.0</ele><time>2026-04-23T08:44:21.361Z</time></trkpt><trkpt lat="33.57907" lon="8.8263033"><ele>18.0</ele><time>2026-04-23T08:44:22.361Z</time></trkpt><trkpt lat="33.579255" lon="8.8263783"><ele>18.0</ele><time>2026-04-23T08:44:23.36Z</time></trkpt><trkpt lat="33.5794433" lon="8.8264467"><ele>18.0</ele><time>2026-04-23T08:44:24.36Z</time></trkpt><trkpt lat="33.5796283" lon="8.82651"><ele>18.0</ele><time>2026-04-23T08:44:25.36Z</time></trkpt><trkpt lat="33.5798117" lon="8.8265833"><ele>18.0</ele><time>2026-04-23T08:44:26.361Z</time></trkpt><trkpt lat="33.5799983" lon="8.826655"><ele>18.0</ele><time>2026-04-23T08:44:27.361Z</time></trkpt><trkpt lat="33.58019" lon="8.8267133"><ele>18.0</ele><time>2026-04-23T08:44:28.361Z</time></trkpt><trkpt lat="33.5803917" lon="8.82676"><ele>19.0</ele><time>2026-04-23T08:44:29.361Z</time></trkpt><trkpt lat="33.5805967" lon="8.8268067"><ele>20.0</ele><time>2026-04-23T08:44:30.36Z</time></trkpt><trkpt lat="33.5807967" lon="8.8268367"><ele>21.0</ele><time>2026-04-23T08:44:31.36Z</time></trkpt><trkpt lat="33.5809983" lon="8.8268583"><ele>20.666666666666668</ele><time>2026-04-23T08:44:32.36Z</time></trkpt><trkpt lat="33.5812017" lon="8.8268733"><ele>20.333333333333336</ele><time>2026-04-23T08:44:33.361Z</time></trkpt><trkpt lat="33.5814033" lon="8.8268633"><ele>20.0</ele><time>2026-04-23T08:44:34.36Z</time></trkpt><trkpt lat="33.581605" lon="8.82685"><ele>20.0</ele><time>2026-04-23T08:44:35.361Z</time></trkpt><trkpt lat="33.5818133" lon="8.8268467"><ele>20.0</ele><time>2026-04-23T08:44:36.36Z</time></trkpt><trkpt lat="33.5820133" lon="8.8268533"><ele>20.0</ele><time>2026-04-23T08:44:37.36Z</time></trkpt><trkpt lat="33.5822183" lon="8.8268617"><ele>19.666666666666668</ele><time>2026-04-23T08:44:38.36Z</time></trkpt><trkpt lat="33.5824267" lon="8.8268767"><ele>19.333333333333332</ele><time>2026-04-23T08:44:39.361Z</time></trkpt><trkpt lat="33.5826367" lon="8.8269117"><ele>19.0</ele><time>2026-04-23T08:44:40.36Z</time></trkpt><trkpt lat="33.5828433" lon="8.82696"><ele>19.0</ele><time>2026-04-23T08:44:41.36Z</time></trkpt><trkpt lat="33.5830517" lon="8.82702"><ele>19.0</ele><time>2026-04-23T08:44:42.36Z</time></trkpt><trkpt lat="33.583255" lon="8.8270917"><ele>19.0</ele><time>2026-04-23T08:44:43.361Z</time></trkpt><trkpt lat="33.5834517" lon="8.82718"><ele>19.0</ele><time>2026-04-23T08:44:44.36Z</time></trkpt><trkpt lat="33.5836383" lon="8.82728"><ele>19.0</ele><time>2026-04-23T08:44:45.361Z</time></trkpt><trkpt lat="33.5838183" lon="8.827395"><ele>19.0</ele><time>2026-04-23T08:44:46.361Z</time></trkpt><trkpt lat="33.583995" lon="8.827515"><ele>19.0</ele><time>2026-04-23T08:44:47.36Z</time></trkpt><trkpt lat="33.58417" lon="8.8276433"><ele>19.0</ele><time>2026-04-23T08:44:48.36Z</time></trkpt><trkpt lat="33.5843467" lon="8.827775"><ele>19.0</ele><time>2026-04-23T08:44:49.36Z</time></trkpt><trkpt lat="33.584525" lon="8.8279017"><ele>19.0</ele><time>2026-04-23T08:44:50.361Z</time></trkpt><trkpt lat="33.5846967" lon="8.8280283"><ele>19.0</ele><time>2026-04-23T08:44:51.36Z</time></trkpt><trkpt lat="33.5848733" lon="8.828165"><ele>19.0</ele><time>2026-04-23T08:44:52.36Z</time></trkpt><trkpt lat="33.5850367" lon="8.8283067"><ele>19.0</ele><time>2026-04-23T08:44:53.361Z</time></trkpt><trkpt lat="33.5852033" lon="8.8284533"><ele>19.0</ele><time>2026-04-23T08:44:54.36Z</time></trkpt><trkpt lat="33.5853717" lon="8.8286"><ele>19.0</ele><time>2026-04-23T08:44:55.361Z</time></trkpt><trkpt lat="33.58554" lon="8.82875"><ele>19.0</ele><time>2026-04-23T08:44:56.36Z</time></trkpt><trkpt lat="33.5857033" lon="8.828905"><ele>19.0</ele><time>2026-04-23T08:44:57.36Z</time></trkpt><trkpt lat="33.585865" lon="8.829065"><ele>19.0</ele><time>2026-04-23T08:44:58.36Z</time></trkpt><trkpt lat="33.5860267" lon="8.82923"><ele>19.0</ele><time>2026-04-23T08:44:59.36Z</time></trkpt><trkpt lat="33.586185" lon="8.8293967"><ele>19.0</ele><time>2026-04-23T08:45:00.361Z</time></trkpt><trkpt lat="33.58634" lon="8.82956"><ele>19.0</ele><time>2026-04-23T08:45:01.36Z</time></trkpt><trkpt lat="33.5864967" lon="8.8297233"><ele>19.0</ele><time>2026-04-23T08:45:02.361Z</time></trkpt><trkpt lat="33.5866467" lon="8.829895"><ele>19.0</ele><time>2026-04-23T08:45:03.361Z</time></trkpt><trkpt lat="33.5868083" lon="8.8300617"><ele>19.0</ele><time>2026-04-23T08:45:04.361Z</time></trkpt><trkpt lat="33.5869517" lon="8.830235"><ele>19.333333333333332</ele><time>2026-04-23T08:45:05.361Z</time></trkpt><trkpt lat="33.5870917" lon="8.8304183"><ele>19.666666666666668</ele><time>2026-04-23T08:45:06.361Z</time></trkpt><trkpt lat="33.587225" lon="8.8306117"><ele>20.0</ele><time>2026-04-23T08:45:07.361Z</time></trkpt><trkpt lat="33.5873517" lon="8.8308033"><ele>19.666666666666668</ele><time>2026-04-23T08:45:08.361Z</time></trkpt><trkpt lat="33.587465" lon="8.831015"><ele>19.333333333333332</ele><time>2026-04-23T08:45:09.361Z</time></trkpt><trkpt lat="33.58756" lon="8.8312317"><ele>19.0</ele><time>2026-04-23T08:45:10.361Z</time></trkpt><trkpt lat="33.587655" lon="8.831455"><ele>19.0</ele><time>2026-04-23T08:45:11.361Z</time></trkpt><trkpt lat="33.58775" lon="8.8316783"><ele>19.0</ele><time>2026-04-23T08:45:12.361Z</time></trkpt><trkpt lat="33.587855" lon="8.8319267"><ele>19.0</ele><time>2026-04-23T08:45:13.36Z</time></trkpt><trkpt lat="33.5879317" lon="8.8321583"><ele>19.666666666666664</ele><time>2026-04-23T08:45:14.361Z</time></trkpt><trkpt lat="33.5880133" lon="8.8323917"><ele>20.333333333333332</ele><time>2026-04-23T08:45:15.361Z</time></trkpt><trkpt lat="33.58809" lon="8.8326183"><ele>21.0</ele><time>2026-04-23T08:45:16.361Z</time></trkpt><trkpt lat="33.5881483" lon="8.8328567"><ele>21.0</ele><time>2026-04-23T08:45:17.36Z</time></trkpt><trkpt lat="33.5882167" lon="8.8330983"><ele>21.0</ele><time>2026-04-23T08:45:18.361Z</time></trkpt><trkpt lat="33.5882733" lon="8.83334"><ele>21.0</ele><time>2026-04-23T08:45:19.36Z</time></trkpt><trkpt lat="33.5883233" lon="8.8335733"><ele>20.666666666666668</ele><time>2026-04-23T08:45:20.36Z</time></trkpt><trkpt lat="33.5883717" lon="8.8338117"><ele>20.333333333333336</ele><time>2026-04-23T08:45:21.361Z</time></trkpt><trkpt lat="33.5884267" lon="8.8340383"><ele>20.0</ele><time>2026-04-23T08:45:22.361Z</time></trkpt><trkpt lat="33.5884733" lon="8.8342683"><ele>19.666666666666668</ele><time>2026-04-23T08:45:23.361Z</time></trkpt><trkpt lat="33.5885267" lon="8.8344983"><ele>19.333333333333332</ele><time>2026-04-23T08:45:24.36Z</time></trkpt><trkpt lat="33.5885833" lon="8.8347317"><ele>19.0</ele><time>2026-04-23T08:45:25.36Z</time></trkpt><trkpt lat="33.58864" lon="8.8349633"><ele>19.666666666666664</ele><time>2026-04-23T08:45:26.361Z</time></trkpt><trkpt lat="33.5887" lon="8.8351967"><ele>20.333333333333332</ele><time>2026-04-23T08:45:27.36Z</time></trkpt><trkpt lat="33.5887567" lon="8.835425"><ele>21.0</ele><time>2026-04-23T08:45:28.36Z</time></trkpt><trkpt lat="33.5888183" lon="8.8356583"><ele>21.0</ele><time>2026-04-23T08:45:29.361Z</time></trkpt><trkpt lat="33.58887" lon="8.83589"><ele>21.0</ele><time>2026-04-23T08:45:30.36Z</time></trkpt><trkpt lat="33.588925" lon="8.8361233"><ele>21.0</ele><time>2026-04-23T08:45:31.36Z</time></trkpt><trkpt lat="33.5889917" lon="8.83636"><ele>20.666666666666668</ele><time>2026-04-23T08:45:32.36Z</time></trkpt><trkpt lat="33.589055" lon="8.836595"><ele>20.333333333333336</ele><time>2026-04-23T08:45:33.36Z</time></trkpt><trkpt lat="33.58912" lon="8.8368233"><ele>20.0</ele><time>2026-04-23T08:45:34.36Z</time></trkpt><trkpt lat="33.5891967" lon="8.8370467"><ele>20.0</ele><time>2026-04-23T08:45:35.36Z</time></trkpt><trkpt lat="33.5892767" lon="8.8372683"><ele>20.0</ele><time>2026-04-23T08:45:36.36Z</time></trkpt><trkpt lat="33.5893633" lon="8.8374833"><ele>20.0</ele><time>2026-04-23T08:45:37.36Z</time></trkpt><trkpt lat="33.5894617" lon="8.837685"><ele>20.333333333333336</ele><time>2026-04-23T08:45:38.361Z</time></trkpt><trkpt lat="33.5895717" lon="8.83788"><ele>20.666666666666668</ele><time>2026-04-23T08:45:39.361Z</time></trkpt><trkpt lat="33.5896867" lon="8.838075"><ele>21.0</ele><time>2026-04-23T08:45:40.36Z</time></trkpt><trkpt lat="33.5898" lon="8.83828"><ele>21.333333333333332</ele><time>2026-04-23T08:45:41.36Z</time></trkpt><trkpt lat="33.5899117" lon="8.83848"><ele>21.666666666666664</ele><time>2026-04-23T08:45:42.36Z</time></trkpt><trkpt lat="33.5900283" lon="8.8386833"><ele>22.0</ele><time>2026-04-23T08:45:43.36Z</time></trkpt><trkpt lat="33.5901467" lon="8.8388883"><ele>22.0</ele><time>2026-04-23T08:45:44.361Z</time></trkpt><trkpt lat="33.5902767" lon="8.8390883"><ele>22.0</ele><time>2026-04-23T08:45:45.361Z</time></trkpt><trkpt lat="33.5904017" lon="8.839285"><ele>22.0</ele><time>2026-04-23T08:45:46.36Z</time></trkpt><trkpt lat="33.5905217" lon="8.8394917"><ele>22.0</ele><time>2026-04-23T08:45:47.361Z</time></trkpt><trkpt lat="33.5906467" lon="8.839695"><ele>22.0</ele><time>2026-04-23T08:45:48.36Z</time></trkpt><trkpt lat="33.5907617" lon="8.8398983"><ele>22.0</ele><time>2026-04-23T08:45:49.361Z</time></trkpt><trkpt lat="33.590875" lon="8.8400967"><ele>21.666666666666664</ele><time>2026-04-23T08:45:50.361Z</time></trkpt><trkpt lat="33.5909933" lon="8.8403033"><ele>21.333333333333332</ele><time>2026-04-23T08:45:51.36Z</time></trkpt><trkpt lat="33.5911083" lon="8.8405067"><ele>21.0</ele><time>2026-04-23T08:45:52.361Z</time></trkpt><trkpt lat="33.5912333" lon="8.8407217"><ele>21.0</ele><time>2026-04-23T08:45:53.36Z</time></trkpt><trkpt lat="33.5913567" lon="8.840935"><ele>21.0</ele><time>2026-04-23T08:45:54.361Z</time></trkpt><trkpt lat="33.5914767" lon="8.8411433"><ele>21.0</ele><time>2026-04-23T08:45:55.36Z</time></trkpt><trkpt lat="33.5915917" lon="8.8413367"><ele>21.0</ele><time>2026-04-23T08:45:56.361Z</time></trkpt><trkpt lat="33.5917083" lon="8.841545"><ele>21.0</ele><time>2026-04-23T08:45:57.36Z</time></trkpt><trkpt lat="33.5918217" lon="8.8417467"><ele>21.0</ele><time>2026-04-23T08:45:58.361Z</time></trkpt><trkpt lat="33.5919483" lon="8.8419383"><ele>21.333333333333332</ele><time>2026-04-23T08:45:59.36Z</time></trkpt><trkpt lat="33.592095" lon="8.8421183"><ele>21.666666666666664</ele><time>2026-04-23T08:46:00.36Z</time></trkpt><trkpt lat="33.5922433" lon="8.84228"><ele>22.0</ele><time>2026-04-23T08:46:01.36Z</time></trkpt><trkpt lat="33.5924033" lon="8.8424267"><ele>22.0</ele><time>2026-04-23T08:46:02.361Z</time></trkpt><trkpt lat="33.5925783" lon="8.8425533"><ele>22.0</ele><time>2026-04-23T08:46:03.36Z</time></trkpt><trkpt lat="33.5927583" lon="8.8426633"><ele>22.0</ele><time>2026-04-23T08:46:04.361Z</time></trkpt><trkpt lat="33.592955" lon="8.84275"><ele>22.0</ele><time>2026-04-23T08:46:05.36Z</time></trkpt><trkpt lat="33.5931583" lon="8.84281"><ele>22.0</ele><time>2026-04-23T08:46:06.361Z</time></trkpt><trkpt lat="33.59337" lon="8.842855"><ele>22.0</ele><time>2026-04-23T08:46:07.361Z</time></trkpt><trkpt lat="33.5935767" lon="8.8428967"><ele>22.333333333333332</ele><time>2026-04-23T08:46:08.36Z</time></trkpt><trkpt lat="33.593785" lon="8.84293"><ele>22.666666666666668</ele><time>2026-04-23T08:46:09.361Z</time></trkpt><trkpt lat="33.5939917" lon="8.84297"><ele>23.0</ele><time>2026-04-23T08:46:10.36Z</time></trkpt><trkpt lat="33.5941967" lon="8.8430167"><ele>23.0</ele><time>2026-04-23T08:46:11.36Z</time></trkpt><trkpt lat="33.5944067" lon="8.8430633"><ele>23.0</ele><time>2026-04-23T08:46:12.361Z</time></trkpt><trkpt lat="33.59461" lon="8.8431083"><ele>23.0</ele><time>2026-04-23T08:46:13.361Z</time></trkpt><trkpt lat="33.5948133" lon="8.8431567"><ele>23.333333333333336</ele><time>2026-04-23T08:46:14.36Z</time></trkpt><trkpt lat="33.5950183" lon="8.843205"><ele>23.666666666666668</ele><time>2026-04-23T08:46:15.361Z</time></trkpt><trkpt lat="33.59521" lon="8.8432583"><ele>24.0</ele><time>2026-04-23T08:46:16.36Z</time></trkpt><trkpt lat="33.5954033" lon="8.8433133"><ele>24.333333333333336</ele><time>2026-04-23T08:46:17.361Z</time></trkpt><trkpt lat="33.5955933" lon="8.843365"><ele>24.666666666666668</ele><time>2026-04-23T08:46:18.361Z</time></trkpt><trkpt lat="33.5957883" lon="8.84341"><ele>25.0</ele><time>2026-04-23T08:46:19.36Z</time></trkpt><trkpt lat="33.5959883" lon="8.84346"><ele>24.333333333333336</ele><time>2026-04-23T08:46:20.36Z</time></trkpt><trkpt lat="33.596175" lon="8.8435133"><ele>23.666666666666668</ele><time>2026-04-23T08:46:21.36Z</time></trkpt><trkpt lat="33.59636" lon="8.84356"><ele>23.0</ele><time>2026-04-23T08:46:22.361Z</time></trkpt><trkpt lat="33.5965367" lon="8.8436133"><ele>23.0</ele><time>2026-04-23T08:46:23.36Z</time></trkpt><trkpt lat="33.5967017" lon="8.84368"><ele>23.0</ele><time>2026-04-23T08:46:24.36Z</time></trkpt><trkpt lat="33.5968517" lon="8.8437367"><ele>23.0</ele><time>2026-04-23T08:46:25.361Z</time></trkpt><trkpt lat="33.597" lon="8.843795"><ele>23.333333333333336</ele><time>2026-04-23T08:46:26.361Z</time></trkpt><trkpt lat="33.5971467" lon="8.8438583"><ele>23.666666666666668</ele><time>2026-04-23T08:46:27.36Z</time></trkpt><trkpt lat="33.5972917" lon="8.843925"><ele>24.0</ele><time>2026-04-23T08:46:28.361Z</time></trkpt><trkpt lat="33.59743" lon="8.8440083"><ele>24.0</ele><time>2026-04-23T08:46:29.361Z</time></trkpt><trkpt lat="33.597575" lon="8.8440867"><ele>24.0</ele><time>2026-04-23T08:46:30.361Z</time></trkpt><trkpt lat="33.59771" lon="8.84418"><ele>24.0</ele><time>2026-04-23T08:46:31.36Z</time></trkpt><trkpt lat="33.5978333" lon="8.8442783"><ele>22.666666666666668</ele><time>2026-04-23T08:46:32.36Z</time></trkpt><trkpt lat="33.5979483" lon="8.844385"><ele>21.333333333333336</ele><time>2026-04-23T08:46:33.36Z</time></trkpt><trkpt lat="33.5980783" lon="8.8444917"><ele>20.0</ele><time>2026-04-23T08:46:34.36Z</time></trkpt><trkpt lat="33.5982017" lon="8.8445983"><ele>20.0</ele><time>2026-04-23T08:46:35.361Z</time></trkpt><trkpt lat="33.5983267" lon="8.8447233"><ele>20.0</ele><time>2026-04-23T08:46:36.361Z</time></trkpt><trkpt lat="33.598465" lon="8.8448483"><ele>20.0</ele><time>2026-04-23T08:46:37.36Z</time></trkpt><trkpt lat="33.598605" lon="8.8449833"><ele>20.0</ele><time>2026-04-23T08:46:38.361Z</time></trkpt><trkpt lat="33.5987483" lon="8.845125"><ele>20.0</ele><time>2026-04-23T08:46:39.361Z</time></trkpt><trkpt lat="33.598885" lon="8.8452733"><ele>20.0</ele><time>2026-04-23T08:46:40.361Z</time></trkpt><trkpt lat="33.599025" lon="8.8454267"><ele>20.0</ele><time>2026-04-23T08:46:41.36Z</time></trkpt><trkpt lat="33.5991683" lon="8.8455883"><ele>20.0</ele><time>2026-04-23T08:46:42.36Z</time></trkpt><trkpt lat="33.5993167" lon="8.845745"><ele>20.0</ele><time>2026-04-23T08:46:43.361Z</time></trkpt><trkpt lat="33.5994667" lon="8.8458967"><ele>20.0</ele><time>2026-04-23T08:46:44.36Z</time></trkpt><trkpt lat="33.599615" lon="8.84605"><ele>20.0</ele><time>2026-04-23T08:46:45.361Z</time></trkpt><trkpt lat="33.5997633" lon="8.8462"><ele>20.0</ele><time>2026-04-23T08:46:46.361Z</time></trkpt><trkpt lat="33.5999133" lon="8.84635"><ele>20.0</ele><time>2026-04-23T08:46:47.361Z</time></trkpt><trkpt lat="33.6000633" lon="8.8465"><ele>20.0</ele><time>2026-04-23T08:46:48.36Z</time></trkpt><trkpt lat="33.60022" lon="8.8466533"><ele>20.0</ele><time>2026-04-23T08:46:49.36Z</time></trkpt><trkpt lat="33.60038" lon="8.8468017"><ele>20.333333333333336</ele><time>2026-04-23T08:46:50.36Z</time></trkpt><trkpt lat="33.60053" lon="8.846955"><ele>20.666666666666668</ele><time>2026-04-23T08:46:51.361Z</time></trkpt><trkpt lat="33.60069" lon="8.8471167"><ele>21.0</ele><time>2026-04-23T08:46:52.36Z</time></trkpt><trkpt lat="33.6008433" lon="8.8472767"><ele>21.0</ele><time>2026-04-23T08:46:53.361Z</time></trkpt><trkpt lat="33.6010033" lon="8.8474467"><ele>21.0</ele><time>2026-04-23T08:46:54.361Z</time></trkpt><trkpt lat="33.601165" lon="8.8476117"><ele>21.0</ele><time>2026-04-23T08:46:55.361Z</time></trkpt><trkpt lat="33.601325" lon="8.8477717"><ele>20.333333333333332</ele><time>2026-04-23T08:46:56.361Z</time></trkpt><trkpt lat="33.6014867" lon="8.8479233"><ele>19.666666666666664</ele><time>2026-04-23T08:46:57.36Z</time></trkpt><trkpt lat="33.6016467" lon="8.8480817"><ele>19.0</ele><time>2026-04-23T08:46:58.361Z</time></trkpt><trkpt lat="33.6018083" lon="8.8482467"><ele>19.0</ele><time>2026-04-23T08:46:59.36Z</time></trkpt><trkpt lat="33.601965" lon="8.8484"><ele>19.0</ele><time>2026-04-23T08:47:00.36Z</time></trkpt><trkpt lat="33.6021317" lon="8.84855"><ele>19.0</ele><time>2026-04-23T08:47:01.361Z</time></trkpt><trkpt lat="33.6022917" lon="8.84871"><ele>19.333333333333332</ele><time>2026-04-23T08:47:02.36Z</time></trkpt><trkpt lat="33.6024533" lon="8.848865"><ele>19.666666666666668</ele><time>2026-04-23T08:47:03.361Z</time></trkpt><trkpt lat="33.6026133" lon="8.8490317"><ele>20.0</ele><time>2026-04-23T08:47:04.361Z</time></trkpt><trkpt lat="33.602765" lon="8.84919"><ele>20.0</ele><time>2026-04-23T08:47:05.36Z</time></trkpt><trkpt lat="33.6029267" lon="8.849345"><ele>20.0</ele><time>2026-04-23T08:47:06.361Z</time></trkpt><trkpt lat="33.6030917" lon="8.8495067"><ele>20.0</ele><time>2026-04-23T08:47:07.361Z</time></trkpt><trkpt lat="33.6032567" lon="8.8496733"><ele>20.0</ele><time>2026-04-23T08:47:08.36Z</time></trkpt><trkpt lat="33.6034183" lon="8.849835"><ele>20.0</ele><time>2026-04-23T08:47:09.36Z</time></trkpt><trkpt lat="33.60358" lon="8.8499967"><ele>20.0</ele><time>2026-04-23T08:47:10.361Z</time></trkpt><trkpt lat="33.6037283" lon="8.8501617"><ele>19.666666666666668</ele><time>2026-04-23T08:47:11.36Z</time></trkpt><trkpt lat="33.6038667" lon="8.8503317"><ele>19.333333333333332</ele><time>2026-04-23T08:47:12.36Z</time></trkpt><trkpt lat="33.6039967" lon="8.8505117"><ele>19.0</ele><time>2026-04-23T08:47:13.36Z</time></trkpt><trkpt lat="33.6041067" lon="8.8507083"><ele>19.0</ele><time>2026-04-23T08:47:14.36Z</time></trkpt><trkpt lat="33.604205" lon="8.850915"><ele>19.0</ele><time>2026-04-23T08:47:15.361Z</time></trkpt><trkpt lat="33.604285" lon="8.8511267"><ele>19.0</ele><time>2026-04-23T08:47:16.361Z</time></trkpt><trkpt lat="33.6043667" lon="8.8513483"><ele>19.0</ele><time>2026-04-23T08:47:17.36Z</time></trkpt><trkpt lat="33.6044367" lon="8.8515683"><ele>19.0</ele><time>2026-04-23T08:47:18.36Z</time></trkpt><trkpt lat="33.604505" lon="8.8517883"><ele>19.0</ele><time>2026-04-23T08:47:19.361Z</time></trkpt><trkpt lat="33.604575" lon="8.8520117"><ele>19.0</ele><time>2026-04-23T08:47:20.36Z</time></trkpt><trkpt lat="33.6046517" lon="8.852235"><ele>19.0</ele><time>2026-04-23T08:47:21.361Z</time></trkpt><trkpt lat="33.604725" lon="8.852465"><ele>19.0</ele><time>2026-04-23T08:47:22.36Z</time></trkpt><trkpt lat="33.604795" lon="8.8526833"><ele>18.666666666666664</ele><time>2026-04-23T08:47:23.361Z</time></trkpt><trkpt lat="33.6048617" lon="8.8529"><ele>18.333333333333332</ele><time>2026-04-23T08:47:24.36Z</time></trkpt><trkpt lat="33.6049183" lon="8.85312"><ele>18.0</ele><time>2026-04-23T08:47:25.36Z</time></trkpt><trkpt lat="33.6049683" lon="8.85334"><ele>18.333333333333332</ele><time>2026-04-23T08:47:26.361Z</time></trkpt><trkpt lat="33.60501" lon="8.8535683"><ele>18.666666666666664</ele><time>2026-04-23T08:47:27.361Z</time></trkpt><trkpt lat="33.6050383" lon="8.8537917"><ele>19.0</ele><time>2026-04-23T08:47:28.361Z</time></trkpt><trkpt lat="33.605065" lon="8.854025"><ele>19.0</ele><time>2026-04-23T08:47:29.361Z</time></trkpt><trkpt lat="33.6050867" lon="8.854265"><ele>19.0</ele><time>2026-04-23T08:47:30.361Z</time></trkpt><trkpt lat="33.6051033" lon="8.85449"><ele>19.0</ele><time>2026-04-23T08:47:31.361Z</time></trkpt><trkpt lat="33.6051217" lon="8.854715"><ele>19.0</ele><time>2026-04-23T08:47:32.36Z</time></trkpt><trkpt lat="33.6051367" lon="8.8549433"><ele>19.0</ele><time>2026-04-23T08:47:33.361Z</time></trkpt><trkpt lat="33.60515" lon="8.8551783"><ele>19.0</ele><time>2026-04-23T08:47:34.36Z</time></trkpt><trkpt lat="33.6051567" lon="8.855415"><ele>19.0</ele><time>2026-04-23T08:47:35.36Z</time></trkpt><trkpt lat="33.60517" lon="8.85565"><ele>19.0</ele><time>2026-04-23T08:47:36.36Z</time></trkpt><trkpt lat="33.605185" lon="8.8558883"><ele>19.0</ele><time>2026-04-23T08:47:37.36Z</time></trkpt><trkpt lat="33.6051967" lon="8.8561317"><ele>19.0</ele><time>2026-04-23T08:47:38.36Z</time></trkpt><trkpt lat="33.6052117" lon="8.8563717"><ele>19.0</ele><time>2026-04-23T08:47:39.361Z</time></trkpt><trkpt lat="33.60523" lon="8.8566117"><ele>19.0</ele><time>2026-04-23T08:47:40.36Z</time></trkpt><trkpt lat="33.60525" lon="8.8568483"><ele>18.666666666666664</ele><time>2026-04-23T08:47:41.36Z</time></trkpt><trkpt lat="33.6052583" lon="8.857085"><ele>18.333333333333332</ele><time>2026-04-23T08:47:42.361Z</time></trkpt><trkpt lat="33.6052767" lon="8.8573183"><ele>18.0</ele><time>2026-04-23T08:47:43.36Z</time></trkpt><trkpt lat="33.6052933" lon="8.8575567"><ele>18.333333333333332</ele><time>2026-04-23T08:47:44.36Z</time></trkpt><trkpt lat="33.6053117" lon="8.85779"><ele>18.666666666666664</ele><time>2026-04-23T08:47:45.36Z</time></trkpt><trkpt lat="33.6053267" lon="8.8580267"><ele>19.0</ele><time>2026-04-23T08:47:46.361Z</time></trkpt><trkpt lat="33.6053417" lon="8.8582633"><ele>19.0</ele><time>2026-04-23T08:47:47.361Z</time></trkpt><trkpt lat="33.6053583" lon="8.8585033"><ele>19.0</ele><time>2026-04-23T08:47:48.36Z</time></trkpt><trkpt lat="33.6053717" lon="8.8587383"><ele>19.0</ele><time>2026-04-23T08:47:49.361Z</time></trkpt><trkpt lat="33.605385" lon="8.8589833"><ele>19.0</ele><time>2026-04-23T08:47:50.36Z</time></trkpt><trkpt lat="33.6054017" lon="8.8592217"><ele>19.0</ele><time>2026-04-23T08:47:51.36Z</time></trkpt><trkpt lat="33.6054133" lon="8.8594567"><ele>19.0</ele><time>2026-04-23T08:47:52.361Z</time></trkpt><trkpt lat="33.6054233" lon="8.8596933"><ele>19.0</ele><time>2026-04-23T08:47:53.36Z</time></trkpt><trkpt lat="33.60544" lon="8.859925"><ele>19.0</ele><time>2026-04-23T08:47:54.361Z</time></trkpt><trkpt lat="33.6054567" lon="8.860155"><ele>19.0</ele><time>2026-04-23T08:47:55.361Z</time></trkpt><trkpt lat="33.6054767" lon="8.86039"><ele>19.0</ele><time>2026-04-23T08:47:56.361Z</time></trkpt><trkpt lat="33.6054933" lon="8.8606217"><ele>19.0</ele><time>2026-04-23T08:47:57.36Z</time></trkpt><trkpt lat="33.6055133" lon="8.860855"><ele>19.0</ele><time>2026-04-23T08:47:58.36Z</time></trkpt><trkpt lat="33.6055283" lon="8.861095"><ele>19.0</ele><time>2026-04-23T08:47:59.36Z</time></trkpt><trkpt lat="33.6055317" lon="8.8613217"><ele>19.0</ele><time>2026-04-23T08:48:00.361Z</time></trkpt><trkpt lat="33.6055417" lon="8.86155"><ele>19.0</ele><time>2026-04-23T08:48:01.361Z</time></trkpt><trkpt lat="33.60555" lon="8.8617783"><ele>19.0</ele><time>2026-04-23T08:48:02.36Z</time></trkpt><trkpt lat="33.60555" lon="8.8620133"><ele>19.0</ele><time>2026-04-23T08:48:03.36Z</time></trkpt><trkpt lat="33.60555" lon="8.8622333"><ele>19.0</ele><time>2026-04-23T08:48:04.36Z</time></trkpt><trkpt lat="33.6055433" lon="8.8624617"><ele>18.666666666666664</ele><time>2026-04-23T08:48:05.361Z</time></trkpt><trkpt lat="33.6055333" lon="8.8626883"><ele>18.333333333333332</ele><time>2026-04-23T08:48:06.36Z</time></trkpt><trkpt lat="33.605515" lon="8.8629233"><ele>18.0</ele><time>2026-04-23T08:48:07.361Z</time></trkpt><trkpt lat="33.6054833" lon="8.8631517"><ele>18.0</ele><time>2026-04-23T08:48:08.36Z</time></trkpt><trkpt lat="33.6054267" lon="8.863375"><ele>18.0</ele><time>2026-04-23T08:48:09.361Z</time></trkpt><trkpt lat="33.605365" lon="8.863595"><ele>18.0</ele><time>2026-04-23T08:48:10.36Z</time></trkpt><trkpt lat="33.605295" lon="8.8638083"><ele>18.333333333333332</ele><time>2026-04-23T08:48:11.361Z</time></trkpt><trkpt lat="33.60523" lon="8.86402"><ele>18.666666666666664</ele><time>2026-04-23T08:48:12.361Z</time></trkpt><trkpt lat="33.60517" lon="8.8642283"><ele>19.0</ele><time>2026-04-23T08:48:13.36Z</time></trkpt><trkpt lat="33.6051117" lon="8.8644467"><ele>19.333333333333332</ele><time>2026-04-23T08:48:14.361Z</time></trkpt><trkpt lat="33.60506" lon="8.86466"><ele>19.666666666666668</ele><time>2026-04-23T08:48:15.36Z</time></trkpt><trkpt lat="33.605015" lon="8.86488"><ele>20.0</ele><time>2026-04-23T08:48:16.361Z</time></trkpt><trkpt lat="33.6049783" lon="8.8651033"><ele>20.333333333333336</ele><time>2026-04-23T08:48:17.361Z</time></trkpt><trkpt lat="33.6049483" lon="8.8653283"><ele>20.666666666666668</ele><time>2026-04-23T08:48:18.361Z</time></trkpt><trkpt lat="33.6049217" lon="8.865555"><ele>21.0</ele><time>2026-04-23T08:48:19.361Z</time></trkpt><trkpt lat="33.604895" lon="8.8657817"><ele>20.0</ele><time>2026-04-23T08:48:20.361Z</time></trkpt><trkpt lat="33.6048717" lon="8.866015"><ele>19.0</ele><time>2026-04-23T08:48:21.361Z</time></trkpt><trkpt lat="33.6048517" lon="8.8662517"><ele>18.0</ele><time>2026-04-23T08:48:22.36Z</time></trkpt><trkpt lat="33.6048333" lon="8.8664817"><ele>18.0</ele><time>2026-04-23T08:48:23.361Z</time></trkpt><trkpt lat="33.6048167" lon="8.866715"><ele>18.0</ele><time>2026-04-23T08:48:24.36Z</time></trkpt><trkpt lat="33.6048017" lon="8.8669533"><ele>18.0</ele><time>2026-04-23T08:48:25.36Z</time></trkpt><trkpt lat="33.60479" lon="8.867185"><ele>18.0</ele><time>2026-04-23T08:48:26.361Z</time></trkpt><trkpt lat="33.6047883" lon="8.8674233"><ele>18.0</ele><time>2026-04-23T08:48:27.361Z</time></trkpt><trkpt lat="33.6047817" lon="8.8676633"><ele>18.0</ele><time>2026-04-23T08:48:28.361Z</time></trkpt><trkpt lat="33.60478" lon="8.867895"><ele>18.0</ele><time>2026-04-23T08:48:29.361Z</time></trkpt><trkpt lat="33.6047867" lon="8.8681217"><ele>18.0</ele><time>2026-04-23T08:48:30.361Z</time></trkpt><trkpt lat="33.6048067" lon="8.8683533"><ele>18.0</ele><time>2026-04-23T08:48:31.36Z</time></trkpt><trkpt lat="33.6048333" lon="8.8685917"><ele>18.0</ele><time>2026-04-23T08:48:32.361Z</time></trkpt><trkpt lat="33.6048667" lon="8.8688367"><ele>18.0</ele><time>2026-04-23T08:48:33.36Z</time></trkpt><trkpt lat="33.6049083" lon="8.869085"><ele>18.0</ele><time>2026-04-23T08:48:34.36Z</time></trkpt><trkpt lat="33.6049467" lon="8.8693183"><ele>18.0</ele><time>2026-04-23T08:48:35.36Z</time></trkpt><trkpt lat="33.6049967" lon="8.86956"><ele>18.0</ele><time>2026-04-23T08:48:36.36Z</time></trkpt><trkpt lat="33.6050483" lon="8.8697917"><ele>18.0</ele><time>2026-04-23T08:48:37.36Z</time></trkpt><trkpt lat="33.60511" lon="8.87004"><ele>18.0</ele><time>2026-04-23T08:48:38.361Z</time></trkpt><trkpt lat="33.6051767" lon="8.8702783"><ele>18.0</ele><time>2026-04-23T08:48:39.36Z</time></trkpt><trkpt lat="33.6052433" lon="8.87051"><ele>18.0</ele><time>2026-04-23T08:48:40.361Z</time></trkpt><trkpt lat="33.60531" lon="8.8707383"><ele>17.666666666666668</ele><time>2026-04-23T08:48:41.36Z</time></trkpt><trkpt lat="33.60538" lon="8.87096"><ele>17.333333333333336</ele><time>2026-04-23T08:48:42.36Z</time></trkpt><trkpt lat="33.6054417" lon="8.87118"><ele>17.0</ele><time>2026-04-23T08:48:43.36Z</time></trkpt><trkpt lat="33.6055067" lon="8.8714067"><ele>17.0</ele><time>2026-04-23T08:48:44.36Z</time></trkpt><trkpt lat="33.6055733" lon="8.8716433"><ele>17.0</ele><time>2026-04-23T08:48:45.361Z</time></trkpt><trkpt lat="33.60565" lon="8.87188"><ele>17.0</ele><time>2026-04-23T08:48:46.361Z</time></trkpt><trkpt lat="33.6057333" lon="8.8721"><ele>17.333333333333336</ele><time>2026-04-23T08:48:47.361Z</time></trkpt><trkpt lat="33.605815" lon="8.8723133"><ele>17.666666666666668</ele><time>2026-04-23T08:48:48.361Z</time></trkpt><trkpt lat="33.6059067" lon="8.8725267"><ele>18.0</ele><time>2026-04-23T08:48:49.36Z</time></trkpt><trkpt lat="33.6060117" lon="8.87273"><ele>18.333333333333332</ele><time>2026-04-23T08:48:50.36Z</time></trkpt><trkpt lat="33.6061233" lon="8.872935"><ele>18.666666666666664</ele><time>2026-04-23T08:48:51.361Z</time></trkpt><trkpt lat="33.6062467" lon="8.8731283"><ele>19.0</ele><time>2026-04-23T08:48:52.361Z</time></trkpt><trkpt lat="33.6063867" lon="8.873325"><ele>19.333333333333332</ele><time>2026-04-23T08:48:53.361Z</time></trkpt><trkpt lat="33.60652" lon="8.8735183"><ele>19.666666666666668</ele><time>2026-04-23T08:48:54.361Z</time></trkpt><trkpt lat="33.606645" lon="8.8737183"><ele>20.0</ele><time>2026-04-23T08:48:55.36Z</time></trkpt><trkpt lat="33.60677" lon="8.87391"><ele>20.0</ele><time>2026-04-23T08:48:56.361Z</time></trkpt><trkpt lat="33.606895" lon="8.8741117"><ele>20.0</ele><time>2026-04-23T08:48:57.361Z</time></trkpt><trkpt lat="33.607025" lon="8.8743133"><ele>20.0</ele><time>2026-04-23T08:48:58.361Z</time></trkpt><trkpt lat="33.607145" lon="8.8745017"><ele>19.0</ele><time>2026-04-23T08:48:59.361Z</time></trkpt><trkpt lat="33.6072733" lon="8.8746917"><ele>18.0</ele><time>2026-04-23T08:49:00.36Z</time></trkpt><trkpt lat="33.6074033" lon="8.8748817"><ele>17.0</ele><time>2026-04-23T08:49:01.361Z</time></trkpt><trkpt lat="33.607535" lon="8.8750883"><ele>17.333333333333336</ele><time>2026-04-23T08:49:02.36Z</time></trkpt><trkpt lat="33.6076733" lon="8.8752883"><ele>17.666666666666668</ele><time>2026-04-23T08:49:03.361Z</time></trkpt><trkpt lat="33.60781" lon="8.87548"><ele>18.0</ele><time>2026-04-23T08:49:04.361Z</time></trkpt><trkpt lat="33.6079467" lon="8.8756733"><ele>18.0</ele><time>2026-04-23T08:49:05.361Z</time></trkpt><trkpt lat="33.6080817" lon="8.8758683"><ele>18.0</ele><time>2026-04-23T08:49:06.361Z</time></trkpt><trkpt lat="33.60821" lon="8.876065"><ele>18.0</ele><time>2026-04-23T08:49:07.36Z</time></trkpt><trkpt lat="33.6083317" lon="8.8762533"><ele>18.0</ele><time>2026-04-23T08:49:08.36Z</time></trkpt><trkpt lat="33.6084517" lon="8.87645"><ele>18.0</ele><time>2026-04-23T08:49:09.36Z</time></trkpt><trkpt lat="33.60858" lon="8.8766417"><ele>18.0</ele><time>2026-04-23T08:49:10.36Z</time></trkpt><trkpt lat="33.6087033" lon="8.8768283"><ele>18.0</ele><time>2026-04-23T08:49:11.36Z</time></trkpt><trkpt lat="33.6088167" lon="8.8770133"><ele>18.0</ele><time>2026-04-23T08:49:12.36Z</time></trkpt><trkpt lat="33.6089467" lon="8.8772067"><ele>18.0</ele><time>2026-04-23T08:49:13.36Z</time></trkpt><trkpt lat="33.6090817" lon="8.87739"><ele>18.0</ele><time>2026-04-23T08:49:14.361Z</time></trkpt><trkpt lat="33.6092167" lon="8.8775733"><ele>18.0</ele><time>2026-04-23T08:49:15.36Z</time></trkpt><trkpt lat="33.60934" lon="8.877755"><ele>18.0</ele><time>2026-04-23T08:49:16.361Z</time></trkpt><trkpt lat="33.6094583" lon="8.87794"><ele>18.0</ele><time>2026-04-23T08:49:17.36Z</time></trkpt><trkpt lat="33.60958" lon="8.8781267"><ele>18.0</ele><time>2026-04-23T08:49:18.361Z</time></trkpt><trkpt lat="33.6097117" lon="8.87832"><ele>18.0</ele><time>2026-04-23T08:49:19.361Z</time></trkpt><trkpt lat="33.6098467" lon="8.8785067"><ele>18.0</ele><time>2026-04-23T08:49:20.36Z</time></trkpt><trkpt lat="33.6099717" lon="8.8786983"><ele>18.0</ele><time>2026-04-23T08:49:21.361Z</time></trkpt><trkpt lat="33.610095" lon="8.87889"><ele>18.0</ele><time>2026-04-23T08:49:22.36Z</time></trkpt><trkpt lat="33.61021" lon="8.879075"><ele>17.666666666666668</ele><time>2026-04-23T08:49:23.36Z</time></trkpt><trkpt lat="33.6103333" lon="8.879255"><ele>17.333333333333336</ele><time>2026-04-23T08:49:24.361Z</time></trkpt><trkpt lat="33.610465" lon="8.879435"><ele>17.0</ele><time>2026-04-23T08:49:25.359Z</time></trkpt><trkpt lat="33.6105933" lon="8.8796233"><ele>17.333333333333336</ele><time>2026-04-23T08:49:26.359Z</time></trkpt><trkpt lat="33.61072" lon="8.879805"><ele>17.666666666666668</ele><time>2026-04-23T08:49:27.359Z</time></trkpt><trkpt lat="33.6108567" lon="8.879985"><ele>18.0</ele><time>2026-04-23T08:49:28.359Z</time></trkpt><trkpt lat="33.61098" lon="8.880175"><ele>18.0</ele><time>2026-04-23T08:49:29.36Z</time></trkpt><trkpt lat="33.6111033" lon="8.8803733"><ele>18.0</ele><time>2026-04-23T08:49:30.359Z</time></trkpt><trkpt lat="33.6112367" lon="8.88057"><ele>18.0</ele><time>2026-04-23T08:49:31.359Z</time></trkpt><trkpt lat="33.6113583" lon="8.88076"><ele>17.666666666666668</ele><time>2026-04-23T08:49:32.36Z</time></trkpt><trkpt lat="33.61149" lon="8.8809517"><ele>17.333333333333336</ele><time>2026-04-23T08:49:33.359Z</time></trkpt><trkpt lat="33.6116333" lon="8.8811417"><ele>17.0</ele><time>2026-04-23T08:49:34.36Z</time></trkpt><trkpt lat="33.6117683" lon="8.8813317"><ele>17.0</ele><time>2026-04-23T08:49:35.36Z</time></trkpt><trkpt lat="33.6118983" lon="8.8815233"><ele>17.0</ele><time>2026-04-23T08:49:36.359Z</time></trkpt><trkpt lat="33.61203" lon="8.8817067"><ele>17.0</ele><time>2026-04-23T08:49:37.359Z</time></trkpt><trkpt lat="33.6121617" lon="8.8818967"><ele>17.333333333333336</ele><time>2026-04-23T08:49:38.359Z</time></trkpt><trkpt lat="33.6122917" lon="8.88209"><ele>17.666666666666668</ele><time>2026-04-23T08:49:39.359Z</time></trkpt><trkpt lat="33.6124217" lon="8.8822817"><ele>18.0</ele><time>2026-04-23T08:49:40.36Z</time></trkpt><trkpt lat="33.6125483" lon="8.8824733"><ele>18.333333333333332</ele><time>2026-04-23T08:49:41.359Z</time></trkpt><trkpt lat="33.612675" lon="8.8826733"><ele>18.666666666666664</ele><time>2026-04-23T08:49:42.359Z</time></trkpt><trkpt lat="33.61281" lon="8.8828667"><ele>19.0</ele><time>2026-04-23T08:49:43.36Z</time></trkpt><trkpt lat="33.612955" lon="8.8830567"><ele>18.333333333333332</ele><time>2026-04-23T08:49:44.359Z</time></trkpt><trkpt lat="33.6130967" lon="8.8832417"><ele>17.666666666666668</ele><time>2026-04-23T08:49:45.36Z</time></trkpt><trkpt lat="33.61324" lon="8.883425"><ele>17.0</ele><time>2026-04-23T08:49:46.359Z</time></trkpt><trkpt lat="33.6133817" lon="8.8836117"><ele>17.0</ele><time>2026-04-23T08:49:47.359Z</time></trkpt><trkpt lat="33.6135233" lon="8.8837983"><ele>17.0</ele><time>2026-04-23T08:49:48.359Z</time></trkpt><trkpt lat="33.6136667" lon="8.8839817"><ele>17.0</ele><time>2026-04-23T08:49:49.359Z</time></trkpt><trkpt lat="33.6138117" lon="8.884155"><ele>17.0</ele><time>2026-04-23T08:49:50.359Z</time></trkpt><trkpt lat="33.61396" lon="8.8843283"><ele>17.0</ele><time>2026-04-23T08:49:51.36Z</time></trkpt><trkpt lat="33.6141067" lon="8.8845033"><ele>17.0</ele><time>2026-04-23T08:49:52.359Z</time></trkpt><trkpt lat="33.6142533" lon="8.884675"><ele>17.0</ele><time>2026-04-23T08:49:53.36Z</time></trkpt><trkpt lat="33.6143967" lon="8.8848517"><ele>17.0</ele><time>2026-04-23T08:49:54.359Z</time></trkpt><trkpt lat="33.61454" lon="8.8850317"><ele>17.0</ele><time>2026-04-23T08:49:55.36Z</time></trkpt><trkpt lat="33.614695" lon="8.8852017"><ele>17.0</ele><time>2026-04-23T08:49:56.359Z</time></trkpt><trkpt lat="33.6148433" lon="8.8853683"><ele>17.0</ele><time>2026-04-23T08:49:57.359Z</time></trkpt><trkpt lat="33.6149983" lon="8.8855333"><ele>17.0</ele><time>2026-04-23T08:49:58.359Z</time></trkpt><trkpt lat="33.61515" lon="8.8856933"><ele>17.0</ele><time>2026-04-23T08:49:59.359Z</time></trkpt><trkpt lat="33.6152967" lon="8.885855"><ele>17.0</ele><time>2026-04-23T08:50:00.359Z</time></trkpt><trkpt lat="33.6154417" lon="8.886025"><ele>17.0</ele><time>2026-04-23T08:50:01.36Z</time></trkpt><trkpt lat="33.6155833" lon="8.8861917"><ele>17.666666666666668</ele><time>2026-04-23T08:50:02.359Z</time></trkpt><trkpt lat="33.615725" lon="8.8863583"><ele>18.333333333333332</ele><time>2026-04-23T08:50:03.359Z</time></trkpt><trkpt lat="33.6158783" lon="8.88652"><ele>19.0</ele><time>2026-04-23T08:50:04.359Z</time></trkpt><trkpt lat="33.6160283" lon="8.8866867"><ele>19.0</ele><time>2026-04-23T08:50:05.359Z</time></trkpt><trkpt lat="33.616175" lon="8.8868483"><ele>19.0</ele><time>2026-04-23T08:50:06.36Z</time></trkpt><trkpt lat="33.6163167" lon="8.8870167"><ele>19.0</ele><time>2026-04-23T08:50:07.36Z</time></trkpt><trkpt lat="33.6164533" lon="8.8871867"><ele>19.0</ele><time>2026-04-23T08:50:08.359Z</time></trkpt><trkpt lat="33.6165883" lon="8.887365"><ele>19.0</ele><time>2026-04-23T08:50:09.359Z</time></trkpt><trkpt lat="33.61673" lon="8.887545"><ele>19.0</ele><time>2026-04-23T08:50:10.36Z</time></trkpt><trkpt lat="33.616875" lon="8.887715"><ele>18.333333333333332</ele><time>2026-04-23T08:50:11.359Z</time></trkpt><trkpt lat="33.6170117" lon="8.8879"><ele>17.666666666666668</ele><time>2026-04-23T08:50:12.36Z</time></trkpt><trkpt lat="33.6171533" lon="8.8880717"><ele>17.0</ele><time>2026-04-23T08:50:13.359Z</time></trkpt><trkpt lat="33.6173017" lon="8.8882483"><ele>17.0</ele><time>2026-04-23T08:50:14.36Z</time></trkpt><trkpt lat="33.6174433" lon="8.8884217"><ele>17.0</ele><time>2026-04-23T08:50:15.36Z</time></trkpt><trkpt lat="33.6175867" lon="8.8886083"><ele>17.0</ele><time>2026-04-23T08:50:16.359Z</time></trkpt><trkpt lat="33.6177233" lon="8.888785"><ele>17.333333333333336</ele><time>2026-04-23T08:50:17.36Z</time></trkpt><trkpt lat="33.61787" lon="8.8889467"><ele>17.666666666666668</ele><time>2026-04-23T08:50:18.36Z</time></trkpt><trkpt lat="33.618005" lon="8.889125"><ele>18.0</ele><time>2026-04-23T08:50:19.359Z</time></trkpt><trkpt lat="33.6181533" lon="8.88929"><ele>18.0</ele><time>2026-04-23T08:50:20.359Z</time></trkpt><trkpt lat="33.6182817" lon="8.88947"><ele>18.0</ele><time>2026-04-23T08:50:21.359Z</time></trkpt><trkpt lat="33.6184117" lon="8.88965"><ele>18.0</ele><time>2026-04-23T08:50:22.359Z</time></trkpt><trkpt lat="33.6185567" lon="8.8898217"><ele>18.0</ele><time>2026-04-23T08:50:23.36Z</time></trkpt><trkpt lat="33.618685" lon="8.8900017"><ele>18.0</ele><time>2026-04-23T08:50:24.359Z</time></trkpt><trkpt lat="33.6188217" lon="8.8901783"><ele>18.0</ele><time>2026-04-23T08:50:25.359Z</time></trkpt><trkpt lat="33.61896" lon="8.890355"><ele>18.333333333333332</ele><time>2026-04-23T08:50:26.359Z</time></trkpt><trkpt lat="33.6190967" lon="8.8905383"><ele>18.666666666666664</ele><time>2026-04-23T08:50:27.36Z</time></trkpt><trkpt lat="33.6192333" lon="8.8907233"><ele>19.0</ele><time>2026-04-23T08:50:28.359Z</time></trkpt><trkpt lat="33.6193667" lon="8.8909133"><ele>19.0</ele><time>2026-04-23T08:50:29.359Z</time></trkpt><trkpt lat="33.6194983" lon="8.891095"><ele>19.0</ele><time>2026-04-23T08:50:30.359Z</time></trkpt><trkpt lat="33.6196267" lon="8.89129"><ele>19.0</ele><time>2026-04-23T08:50:31.36Z</time></trkpt><trkpt lat="33.6197517" lon="8.89148"><ele>19.0</ele><time>2026-04-23T08:50:32.359Z</time></trkpt><trkpt lat="33.6198783" lon="8.8916783"><ele>19.0</ele><time>2026-04-23T08:50:33.36Z</time></trkpt><trkpt lat="33.6200117" lon="8.891875"><ele>19.0</ele><time>2026-04-23T08:50:34.36Z</time></trkpt><trkpt lat="33.6201433" lon="8.8920667"><ele>19.0</ele><time>2026-04-23T08:50:35.359Z</time></trkpt><trkpt lat="33.6202683" lon="8.89226"><ele>19.0</ele><time>2026-04-23T08:50:36.36Z</time></trkpt><trkpt lat="33.6204" lon="8.8924483"><ele>19.0</ele><time>2026-04-23T08:50:37.359Z</time></trkpt><trkpt lat="33.6205317" lon="8.8926433"><ele>18.666666666666664</ele><time>2026-04-23T08:50:38.36Z</time></trkpt><trkpt lat="33.62066" lon="8.892835"><ele>18.333333333333332</ele><time>2026-04-23T08:50:39.36Z</time></trkpt><trkpt lat="33.6207883" lon="8.8930283"><ele>18.0</ele><time>2026-04-23T08:50:40.36Z</time></trkpt><trkpt lat="33.620925" lon="8.89322"><ele>18.0</ele><time>2026-04-23T08:50:41.36Z</time></trkpt><trkpt lat="33.6210533" lon="8.8934083"><ele>18.0</ele><time>2026-04-23T08:50:42.359Z</time></trkpt><trkpt lat="33.6211783" lon="8.8935933"><ele>18.0</ele><time>2026-04-23T08:50:43.359Z</time></trkpt><trkpt lat="33.6213067" lon="8.8937717"><ele>18.333333333333332</ele><time>2026-04-23T08:50:44.36Z</time></trkpt><trkpt lat="33.62144" lon="8.8939483"><ele>18.666666666666664</ele><time>2026-04-23T08:50:45.36Z</time></trkpt><trkpt lat="33.62158" lon="8.8941333"><ele>19.0</ele><time>2026-04-23T08:50:46.359Z</time></trkpt><trkpt lat="33.621715" lon="8.8943233"><ele>19.333333333333332</ele><time>2026-04-23T08:50:47.359Z</time></trkpt><trkpt lat="33.621855" lon="8.8945"><ele>19.666666666666668</ele><time>2026-04-23T08:50:48.359Z</time></trkpt><trkpt lat="33.621985" lon="8.89468"><ele>20.0</ele><time>2026-04-23T08:50:49.359Z</time></trkpt><trkpt lat="33.6221233" lon="8.8948617"><ele>20.0</ele><time>2026-04-23T08:50:50.36Z</time></trkpt><trkpt lat="33.6222617" lon="8.89504"><ele>20.0</ele><time>2026-04-23T08:50:51.359Z</time></trkpt><trkpt lat="33.622395" lon="8.8952233"><ele>20.0</ele><time>2026-04-23T08:50:52.36Z</time></trkpt><trkpt lat="33.622525" lon="8.89541"><ele>19.666666666666668</ele><time>2026-04-23T08:50:53.359Z</time></trkpt><trkpt lat="33.62266" lon="8.8956017"><ele>19.333333333333332</ele><time>2026-04-23T08:50:54.359Z</time></trkpt><trkpt lat="33.6227983" lon="8.8957833"><ele>19.0</ele><time>2026-04-23T08:50:55.359Z</time></trkpt><trkpt lat="33.6229317" lon="8.8959667"><ele>18.666666666666664</ele><time>2026-04-23T08:50:56.359Z</time></trkpt><trkpt lat="33.623065" lon="8.89615"><ele>18.333333333333332</ele><time>2026-04-23T08:50:57.36Z</time></trkpt><trkpt lat="33.6232017" lon="8.896335"><ele>18.0</ele><time>2026-04-23T08:50:58.36Z</time></trkpt><trkpt lat="33.6233367" lon="8.8965217"><ele>18.0</ele><time>2026-04-23T08:50:59.36Z</time></trkpt><trkpt lat="33.6234733" lon="8.8967067"><ele>18.0</ele><time>2026-04-23T08:51:00.36Z</time></trkpt><trkpt lat="33.6236067" lon="8.8968933"><ele>18.0</ele><time>2026-04-23T08:51:01.36Z</time></trkpt><trkpt lat="33.62374" lon="8.8970783"><ele>17.666666666666668</ele><time>2026-04-23T08:51:02.36Z</time></trkpt><trkpt lat="33.6238683" lon="8.8972583"><ele>17.333333333333336</ele><time>2026-04-23T08:51:03.359Z</time></trkpt><trkpt lat="33.6239983" lon="8.89744"><ele>17.0</ele><time>2026-04-23T08:51:04.36Z</time></trkpt><trkpt lat="33.6241283" lon="8.8976183"><ele>17.666666666666668</ele><time>2026-04-23T08:51:05.36Z</time></trkpt><trkpt lat="33.6242583" lon="8.8978017"><ele>18.333333333333332</ele><time>2026-04-23T08:51:06.36Z</time></trkpt><trkpt lat="33.6243867" lon="8.8979833"><ele>19.0</ele><time>2026-04-23T08:51:07.359Z</time></trkpt><trkpt lat="33.62452" lon="8.8981683"><ele>19.333333333333332</ele><time>2026-04-23T08:51:08.36Z</time></trkpt><trkpt lat="33.6246633" lon="8.8983517"><ele>19.666666666666668</ele><time>2026-04-23T08:51:09.36Z</time></trkpt><trkpt lat="33.6248" lon="8.89853"><ele>20.0</ele><time>2026-04-23T08:51:10.359Z</time></trkpt><trkpt lat="33.6249333" lon="8.898715"><ele>20.0</ele><time>2026-04-23T08:51:11.359Z</time></trkpt><trkpt lat="33.6250717" lon="8.8989033"><ele>20.0</ele><time>2026-04-23T08:51:12.359Z</time></trkpt><trkpt lat="33.6252033" lon="8.8990883"><ele>20.0</ele><time>2026-04-23T08:51:13.36Z</time></trkpt><trkpt lat="33.6253283" lon="8.89927"><ele>19.333333333333336</ele><time>2026-04-23T08:51:14.359Z</time></trkpt><trkpt lat="33.62545" lon="8.8994633"><ele>18.666666666666668</ele><time>2026-04-23T08:51:15.36Z</time></trkpt><trkpt lat="33.625575" lon="8.89965"><ele>18.0</ele><time>2026-04-23T08:51:16.36Z</time></trkpt><trkpt lat="33.625695" lon="8.8998467"><ele>18.0</ele><time>2026-04-23T08:51:17.359Z</time></trkpt><trkpt lat="33.6258183" lon="8.9000333"><ele>18.0</ele><time>2026-04-23T08:51:18.359Z</time></trkpt><trkpt lat="33.62594" lon="8.90023"><ele>18.0</ele><time>2026-04-23T08:51:19.36Z</time></trkpt><trkpt lat="33.6260717" lon="8.9004267"><ele>18.0</ele><time>2026-04-23T08:51:20.36Z</time></trkpt><trkpt lat="33.626195" lon="8.9006217"><ele>18.0</ele><time>2026-04-23T08:51:21.359Z</time></trkpt><trkpt lat="33.62632" lon="8.90081"><ele>18.0</ele><time>2026-04-23T08:51:22.359Z</time></trkpt><trkpt lat="33.6264367" lon="8.9010067"><ele>18.0</ele><time>2026-04-23T08:51:23.359Z</time></trkpt><trkpt lat="33.62656" lon="8.901195"><ele>18.0</ele><time>2026-04-23T08:51:24.36Z</time></trkpt><trkpt lat="33.6266883" lon="8.901385"><ele>18.0</ele><time>2026-04-23T08:51:25.36Z</time></trkpt><trkpt lat="33.6268217" lon="8.90157"><ele>18.333333333333332</ele><time>2026-04-23T08:51:26.359Z</time></trkpt><trkpt lat="33.6269517" lon="8.9017633"><ele>18.666666666666664</ele><time>2026-04-23T08:51:27.36Z</time></trkpt><trkpt lat="33.6270783" lon="8.9019533"><ele>19.0</ele><time>2026-04-23T08:51:28.36Z</time></trkpt><trkpt lat="33.6272083" lon="8.9021483"><ele>19.0</ele><time>2026-04-23T08:51:29.36Z</time></trkpt><trkpt lat="33.6273383" lon="8.9023317"><ele>19.0</ele><time>2026-04-23T08:51:30.36Z</time></trkpt><trkpt lat="33.627475" lon="8.902525"><ele>19.0</ele><time>2026-04-23T08:51:31.36Z</time></trkpt><trkpt lat="33.6276133" lon="8.9027033"><ele>19.333333333333332</ele><time>2026-04-23T08:51:32.359Z</time></trkpt><trkpt lat="33.6277467" lon="8.9028817"><ele>19.666666666666668</ele><time>2026-04-23T08:51:33.36Z</time></trkpt><trkpt lat="33.6278817" lon="8.9030717"><ele>20.0</ele><time>2026-04-23T08:51:34.359Z</time></trkpt><trkpt lat="33.6280217" lon="8.9032583"><ele>20.333333333333336</ele><time>2026-04-23T08:51:35.359Z</time></trkpt><trkpt lat="33.6281583" lon="8.9034483"><ele>20.666666666666668</ele><time>2026-04-23T08:51:36.36Z</time></trkpt><trkpt lat="33.6282917" lon="8.9036383"><ele>21.0</ele><time>2026-04-23T08:51:37.359Z</time></trkpt><trkpt lat="33.6284283" lon="8.9038283"><ele>21.0</ele><time>2026-04-23T08:51:38.36Z</time></trkpt><trkpt lat="33.6285683" lon="8.9040233"><ele>21.0</ele><time>2026-04-23T08:51:39.36Z</time></trkpt><trkpt lat="33.6287" lon="8.90422"><ele>21.0</ele><time>2026-04-23T08:51:40.36Z</time></trkpt><trkpt lat="33.6288317" lon="8.9044133"><ele>22.0</ele><time>2026-04-23T08:51:41.359Z</time></trkpt><trkpt lat="33.6289633" lon="8.9046017"><ele>23.0</ele><time>2026-04-23T08:51:42.36Z</time></trkpt><trkpt lat="33.6291" lon="8.9047967"><ele>24.0</ele><time>2026-04-23T08:51:43.36Z</time></trkpt><trkpt lat="33.62924" lon="8.904985"><ele>23.666666666666668</ele><time>2026-04-23T08:51:44.36Z</time></trkpt><trkpt lat="33.629375" lon="8.905175"><ele>23.333333333333336</ele><time>2026-04-23T08:51:45.36Z</time></trkpt><trkpt lat="33.6295133" lon="8.9053583"><ele>23.0</ele><time>2026-04-23T08:51:46.36Z</time></trkpt><trkpt lat="33.6296483" lon="8.9055433"><ele>22.333333333333336</ele><time>2026-04-23T08:51:47.36Z</time></trkpt><trkpt lat="33.629785" lon="8.9057283"><ele>21.666666666666668</ele><time>2026-04-23T08:51:48.36Z</time></trkpt><trkpt lat="33.6299183" lon="8.9059183"><ele>21.0</ele><time>2026-04-23T08:51:49.359Z</time></trkpt><trkpt lat="33.6300533" lon="8.9061"><ele>20.0</ele><time>2026-04-23T08:51:50.36Z</time></trkpt><trkpt lat="33.6301833" lon="8.9062767"><ele>19.0</ele><time>2026-04-23T08:51:51.359Z</time></trkpt><trkpt lat="33.6303083" lon="8.9064533"><ele>18.0</ele><time>2026-04-23T08:51:52.359Z</time></trkpt><trkpt lat="33.63044" lon="8.90663"><ele>18.333333333333332</ele><time>2026-04-23T08:51:53.36Z</time></trkpt><trkpt lat="33.6305717" lon="8.9068133"><ele>18.666666666666664</ele><time>2026-04-23T08:51:54.36Z</time></trkpt><trkpt lat="33.6307083" lon="8.906995"><ele>19.0</ele><time>2026-04-23T08:51:55.359Z</time></trkpt><trkpt lat="33.6308383" lon="8.9071867"><ele>19.0</ele><time>2026-04-23T08:51:56.36Z</time></trkpt><trkpt lat="33.63097" lon="8.907375"><ele>19.0</ele><time>2026-04-23T08:51:57.36Z</time></trkpt><trkpt lat="33.631105" lon="8.907565"><ele>19.0</ele><time>2026-04-23T08:51:58.359Z</time></trkpt><trkpt lat="33.631235" lon="8.9077467"><ele>19.0</ele><time>2026-04-23T08:51:59.359Z</time></trkpt><trkpt lat="33.63137" lon="8.9079267"><ele>19.0</ele><time>2026-04-23T08:52:00.359Z</time></trkpt><trkpt lat="33.63149" lon="8.9081167"><ele>19.0</ele><time>2026-04-23T08:52:01.36Z</time></trkpt><trkpt lat="33.631615" lon="8.9083067"><ele>19.0</ele><time>2026-04-23T08:52:02.36Z</time></trkpt><trkpt lat="33.631745" lon="8.90848"><ele>19.0</ele><time>2026-04-23T08:52:03.36Z</time></trkpt><trkpt lat="33.6318767" lon="8.9086567"><ele>19.0</ele><time>2026-04-23T08:52:04.36Z</time></trkpt><trkpt lat="33.63202" lon="8.9088433"><ele>19.0</ele><time>2026-04-23T08:52:05.359Z</time></trkpt><trkpt lat="33.632155" lon="8.9090233"><ele>19.0</ele><time>2026-04-23T08:52:06.36Z</time></trkpt><trkpt lat="33.6322817" lon="8.9092133"><ele>19.0</ele><time>2026-04-23T08:52:07.36Z</time></trkpt><trkpt lat="33.6324133" lon="8.9094117"><ele>19.0</ele><time>2026-04-23T08:52:08.36Z</time></trkpt><trkpt lat="33.6325467" lon="8.909605"><ele>19.0</ele><time>2026-04-23T08:52:09.36Z</time></trkpt><trkpt lat="33.6326783" lon="8.909795"><ele>19.0</ele><time>2026-04-23T08:52:10.36Z</time></trkpt><trkpt lat="33.6328183" lon="8.9099783"><ele>20.333333333333332</ele><time>2026-04-23T08:52:11.359Z</time></trkpt><trkpt lat="33.63296" lon="8.9101617"><ele>21.666666666666668</ele><time>2026-04-23T08:52:12.359Z</time></trkpt><trkpt lat="33.6331" lon="8.9103467"><ele>23.0</ele><time>2026-04-23T08:52:13.36Z</time></trkpt><trkpt lat="33.6332283" lon="8.9105417"><ele>23.0</ele><time>2026-04-23T08:52:14.36Z</time></trkpt><trkpt lat="33.6333583" lon="8.9107283"><ele>23.0</ele><time>2026-04-23T08:52:15.36Z</time></trkpt><trkpt lat="33.6334917" lon="8.9109183"><ele>23.0</ele><time>2026-04-23T08:52:16.36Z</time></trkpt><trkpt lat="33.6336317" lon="8.9111017"><ele>22.333333333333336</ele><time>2026-04-23T08:52:17.359Z</time></trkpt><trkpt lat="33.633775" lon="8.9112867"><ele>21.666666666666668</ele><time>2026-04-23T08:52:18.359Z</time></trkpt><trkpt lat="33.6339083" lon="8.9114767"><ele>21.0</ele><time>2026-04-23T08:52:19.36Z</time></trkpt><trkpt lat="33.6340333" lon="8.9116717"><ele>20.333333333333332</ele><time>2026-04-23T08:52:20.359Z</time></trkpt><trkpt lat="33.6341767" lon="8.9118517"><ele>19.666666666666664</ele><time>2026-04-23T08:52:21.359Z</time></trkpt><trkpt lat="33.6343183" lon="8.912035"><ele>19.0</ele><time>2026-04-23T08:52:22.36Z</time></trkpt><trkpt lat="33.634455" lon="8.9122233"><ele>19.0</ele><time>2026-04-23T08:52:23.36Z</time></trkpt><trkpt lat="33.6345983" lon="8.9124167"><ele>19.0</ele><time>2026-04-23T08:52:24.359Z</time></trkpt><trkpt lat="33.6347367" lon="8.9126"><ele>19.0</ele><time>2026-04-23T08:52:25.36Z</time></trkpt><trkpt lat="33.6348683" lon="8.912785"><ele>19.0</ele><time>2026-04-23T08:52:26.359Z</time></trkpt><trkpt lat="33.6350033" lon="8.912975"><ele>19.0</ele><time>2026-04-23T08:52:27.359Z</time></trkpt><trkpt lat="33.635135" lon="8.913165"><ele>19.0</ele><time>2026-04-23T08:52:28.359Z</time></trkpt><trkpt lat="33.635275" lon="8.9133533"><ele>18.666666666666664</ele><time>2026-04-23T08:52:29.359Z</time></trkpt><trkpt lat="33.6354167" lon="8.91354"><ele>18.333333333333332</ele><time>2026-04-23T08:52:30.36Z</time></trkpt><trkpt lat="33.635555" lon="8.9137267"><ele>18.0</ele><time>2026-04-23T08:52:31.359Z</time></trkpt><trkpt lat="33.6356917" lon="8.9139183"><ele>18.0</ele><time>2026-04-23T08:52:32.36Z</time></trkpt><trkpt lat="33.635835" lon="8.9141133"><ele>18.0</ele><time>2026-04-23T08:52:33.359Z</time></trkpt><trkpt lat="33.63597" lon="8.9142883"><ele>18.0</ele><time>2026-04-23T08:52:34.359Z</time></trkpt><trkpt lat="33.636105" lon="8.9144767"><ele>19.333333333333332</ele><time>2026-04-23T08:52:35.36Z</time></trkpt><trkpt lat="33.6362383" lon="8.9146633"><ele>20.666666666666664</ele><time>2026-04-23T08:52:36.359Z</time></trkpt><trkpt lat="33.6363767" lon="8.9148517"><ele>22.0</ele><time>2026-04-23T08:52:37.36Z</time></trkpt><trkpt lat="33.6365183" lon="8.9150367"><ele>21.0</ele><time>2026-04-23T08:52:38.359Z</time></trkpt><trkpt lat="33.6366517" lon="8.9152233"><ele>20.0</ele><time>2026-04-23T08:52:39.36Z</time></trkpt><trkpt lat="33.636785" lon="8.9154183"><ele>19.0</ele><time>2026-04-23T08:52:40.359Z</time></trkpt><trkpt lat="33.63692" lon="8.9156117"><ele>19.0</ele><time>2026-04-23T08:52:41.359Z</time></trkpt><trkpt lat="33.6370567" lon="8.9158017"><ele>19.0</ele><time>2026-04-23T08:52:42.359Z</time></trkpt><trkpt lat="33.637195" lon="8.916"><ele>19.0</ele><time>2026-04-23T08:52:43.359Z</time></trkpt><trkpt lat="33.63734" lon="8.9161833"><ele>19.666666666666664</ele><time>2026-04-23T08:52:44.36Z</time></trkpt><trkpt lat="33.6374833" lon="8.9163633"><ele>20.333333333333332</ele><time>2026-04-23T08:52:45.359Z</time></trkpt><trkpt lat="33.6376267" lon="8.9165533"><ele>21.0</ele><time>2026-04-23T08:52:46.36Z</time></trkpt><trkpt lat="33.637775" lon="8.9167467"><ele>21.333333333333332</ele><time>2026-04-23T08:52:47.359Z</time></trkpt><trkpt lat="33.6379217" lon="8.9169367"><ele>21.666666666666664</ele><time>2026-04-23T08:52:48.36Z</time></trkpt><trkpt lat="33.638055" lon="8.9171317"><ele>22.0</ele><time>2026-04-23T08:52:49.36Z</time></trkpt><trkpt lat="33.6381967" lon="8.9173217"><ele>22.0</ele><time>2026-04-23T08:52:50.36Z</time></trkpt><trkpt lat="33.63833" lon="8.9175167"><ele>22.0</ele><time>2026-04-23T08:52:51.359Z</time></trkpt><trkpt lat="33.63847" lon="8.91771"><ele>22.0</ele><time>2026-04-23T08:52:52.36Z</time></trkpt><trkpt lat="33.6386167" lon="8.9179017"><ele>21.0</ele><time>2026-04-23T08:52:53.359Z</time></trkpt><trkpt lat="33.6387567" lon="8.9180933"><ele>20.0</ele><time>2026-04-23T08:52:54.359Z</time></trkpt><trkpt lat="33.6389017" lon="8.91828"><ele>19.0</ele><time>2026-04-23T08:52:55.359Z</time></trkpt><trkpt lat="33.6390383" lon="8.91846"><ele>19.0</ele><time>2026-04-23T08:52:56.359Z</time></trkpt><trkpt lat="33.639175" lon="8.918645"><ele>19.0</ele><time>2026-04-23T08:52:57.36Z</time></trkpt><trkpt lat="33.6393133" lon="8.9188283"><ele>19.0</ele><time>2026-04-23T08:52:58.359Z</time></trkpt><trkpt lat="33.63944" lon="8.9190183"><ele>18.666666666666664</ele><time>2026-04-23T08:52:59.359Z</time></trkpt><trkpt lat="33.63958" lon="8.9192033"><ele>18.333333333333332</ele><time>2026-04-23T08:53:00.359Z</time></trkpt><trkpt lat="33.6397183" lon="8.9193817"><ele>18.0</ele><time>2026-04-23T08:53:01.36Z</time></trkpt><trkpt lat="33.639855" lon="8.9195617"><ele>18.666666666666668</ele><time>2026-04-23T08:53:02.359Z</time></trkpt><trkpt lat="33.6399917" lon="8.9197383"><ele>19.333333333333336</ele><time>2026-04-23T08:53:03.36Z</time></trkpt><trkpt lat="33.6401233" lon="8.9199133"><ele>20.0</ele><time>2026-04-23T08:53:04.36Z</time></trkpt><trkpt lat="33.640265" lon="8.9200933"><ele>20.666666666666668</ele><time>2026-04-23T08:53:05.359Z</time></trkpt><trkpt lat="33.6403917" lon="8.92028"><ele>21.333333333333332</ele><time>2026-04-23T08:53:06.359Z</time></trkpt><trkpt lat="33.6405233" lon="8.9204567"><ele>22.0</ele><time>2026-04-23T08:53:07.36Z</time></trkpt><trkpt lat="33.6406567" lon="8.9206433"><ele>22.0</ele><time>2026-04-23T08:53:08.359Z</time></trkpt><trkpt lat="33.6407867" lon="8.92083"><ele>22.0</ele><time>2026-04-23T08:53:09.36Z</time></trkpt><trkpt lat="33.6409133" lon="8.9210217"><ele>22.0</ele><time>2026-04-23T08:53:10.359Z</time></trkpt><trkpt lat="33.641055" lon="8.9212067"><ele>21.666666666666664</ele><time>2026-04-23T08:53:11.36Z</time></trkpt><trkpt lat="33.64119" lon="8.9213983"><ele>21.333333333333332</ele><time>2026-04-23T08:53:12.359Z</time></trkpt><trkpt lat="33.6413267" lon="8.9215917"><ele>21.0</ele><time>2026-04-23T08:53:13.359Z</time></trkpt><trkpt lat="33.6414667" lon="8.9217783"><ele>21.0</ele><time>2026-04-23T08:53:14.359Z</time></trkpt><trkpt lat="33.641595" lon="8.9219683"><ele>21.0</ele><time>2026-04-23T08:53:15.36Z</time></trkpt><trkpt lat="33.641725" lon="8.9221533"><ele>21.0</ele><time>2026-04-23T08:53:16.36Z</time></trkpt><trkpt lat="33.64185" lon="8.9223483"><ele>20.666666666666668</ele><time>2026-04-23T08:53:17.359Z</time></trkpt><trkpt lat="33.6419817" lon="8.922535"><ele>20.333333333333336</ele><time>2026-04-23T08:53:18.359Z</time></trkpt><trkpt lat="33.6421033" lon="8.9227383"><ele>20.0</ele><time>2026-04-23T08:53:19.36Z</time></trkpt><trkpt lat="33.642235" lon="8.9229267"><ele>20.0</ele><time>2026-04-23T08:53:20.359Z</time></trkpt><trkpt lat="33.6423667" lon="8.9231167"><ele>20.0</ele><time>2026-04-23T08:53:21.359Z</time></trkpt><trkpt lat="33.6424933" lon="8.92331"><ele>20.0</ele><time>2026-04-23T08:53:22.36Z</time></trkpt><trkpt lat="33.64262" lon="8.9235067"><ele>20.333333333333336</ele><time>2026-04-23T08:53:23.36Z</time></trkpt><trkpt lat="33.6427517" lon="8.9236917"><ele>20.666666666666668</ele><time>2026-04-23T08:53:24.359Z</time></trkpt><trkpt lat="33.642875" lon="8.9238783"><ele>21.0</ele><time>2026-04-23T08:53:25.359Z</time></trkpt><trkpt lat="33.6430067" lon="8.92406"><ele>21.0</ele><time>2026-04-23T08:53:26.36Z</time></trkpt><trkpt lat="33.6431367" lon="8.9242483"><ele>21.0</ele><time>2026-04-23T08:53:27.359Z</time></trkpt><trkpt lat="33.6432717" lon="8.92444"><ele>21.0</ele><time>2026-04-23T08:53:28.36Z</time></trkpt><trkpt lat="33.6433967" lon="8.92463"><ele>21.0</ele><time>2026-04-23T08:53:29.36Z</time></trkpt><trkpt lat="33.6435267" lon="8.924815"><ele>21.0</ele><time>2026-04-23T08:53:30.359Z</time></trkpt><trkpt lat="33.6436533" lon="8.925005"><ele>21.0</ele><time>2026-04-23T08:53:31.359Z</time></trkpt><trkpt lat="33.6437767" lon="8.925195"><ele>21.0</ele><time>2026-04-23T08:53:32.359Z</time></trkpt><trkpt lat="33.6439083" lon="8.925385"><ele>21.0</ele><time>2026-04-23T08:53:33.36Z</time></trkpt><trkpt lat="33.64403" lon="8.92558"><ele>21.0</ele><time>2026-04-23T08:53:34.36Z</time></trkpt><trkpt lat="33.644155" lon="8.925765"><ele>21.0</ele><time>2026-04-23T08:53:35.36Z</time></trkpt><trkpt lat="33.6442883" lon="8.9259517"><ele>21.0</ele><time>2026-04-23T08:53:36.36Z</time></trkpt><trkpt lat="33.6444167" lon="8.926135"><ele>21.0</ele><time>2026-04-23T08:53:37.359Z</time></trkpt><trkpt lat="33.64454" lon="8.9263283"><ele>21.0</ele><time>2026-04-23T08:53:38.36Z</time></trkpt><trkpt lat="33.64466" lon="8.926525"><ele>21.0</ele><time>2026-04-23T08:53:39.36Z</time></trkpt><trkpt lat="33.6447783" lon="8.9267267"><ele>21.0</ele><time>2026-04-23T08:53:40.36Z</time></trkpt><trkpt lat="33.6448967" lon="8.926915"><ele>21.333333333333332</ele><time>2026-04-23T08:53:41.359Z</time></trkpt><trkpt lat="33.6450167" lon="8.9271083"><ele>21.666666666666664</ele><time>2026-04-23T08:53:42.36Z</time></trkpt><trkpt lat="33.645125" lon="8.9273033"><ele>22.0</ele><time>2026-04-23T08:53:43.359Z</time></trkpt><trkpt lat="33.6452433" lon="8.9275"><ele>21.333333333333332</ele><time>2026-04-23T08:53:44.359Z</time></trkpt><trkpt lat="33.6453633" lon="8.9277067"><ele>20.666666666666668</ele><time>2026-04-23T08:53:45.359Z</time></trkpt><trkpt lat="33.6454733" lon="8.927905"><ele>20.0</ele><time>2026-04-23T08:53:46.36Z</time></trkpt><trkpt lat="33.6455833" lon="8.9281017"><ele>20.0</ele><time>2026-04-23T08:53:47.36Z</time></trkpt><trkpt lat="33.6456917" lon="8.9283083"><ele>20.0</ele><time>2026-04-23T08:53:48.36Z</time></trkpt><trkpt lat="33.645815" lon="8.9285133"><ele>20.0</ele><time>2026-04-23T08:53:49.36Z</time></trkpt><trkpt lat="33.6459317" lon="8.9287083"><ele>20.333333333333336</ele><time>2026-04-23T08:53:50.36Z</time></trkpt><trkpt lat="33.6460517" lon="8.9289033"><ele>20.666666666666668</ele><time>2026-04-23T08:53:51.36Z</time></trkpt><trkpt lat="33.6461733" lon="8.9291067"><ele>21.0</ele><time>2026-04-23T08:53:52.36Z</time></trkpt><trkpt lat="33.646285" lon="8.9293083"><ele>21.0</ele><time>2026-04-23T08:53:53.36Z</time></trkpt><trkpt lat="33.6463967" lon="8.9295033"><ele>21.0</ele><time>2026-04-23T08:53:54.36Z</time></trkpt><trkpt lat="33.64652" lon="8.929695"><ele>21.0</ele><time>2026-04-23T08:53:55.359Z</time></trkpt><trkpt lat="33.64664" lon="8.92988"><ele>21.333333333333332</ele><time>2026-04-23T08:53:56.359Z</time></trkpt><trkpt lat="33.6467583" lon="8.9300733"><ele>21.666666666666664</ele><time>2026-04-23T08:53:57.36Z</time></trkpt><trkpt lat="33.6468733" lon="8.9302567"><ele>22.0</ele><time>2026-04-23T08:53:58.359Z</time></trkpt><trkpt lat="33.6469983" lon="8.9304467"><ele>22.0</ele><time>2026-04-23T08:53:59.359Z</time></trkpt><trkpt lat="33.647125" lon="8.9306367"><ele>22.0</ele><time>2026-04-23T08:54:00.359Z</time></trkpt><trkpt lat="33.64725" lon="8.9308217"><ele>22.0</ele><time>2026-04-23T08:54:01.36Z</time></trkpt><trkpt lat="33.6473733" lon="8.9310067"><ele>21.333333333333332</ele><time>2026-04-23T08:54:02.36Z</time></trkpt><trkpt lat="33.6474967" lon="8.9311883"><ele>20.666666666666668</ele><time>2026-04-23T08:54:03.36Z</time></trkpt><trkpt lat="33.6476217" lon="8.9313717"><ele>20.0</ele><time>2026-04-23T08:54:04.359Z</time></trkpt><trkpt lat="33.64775" lon="8.9315633"><ele>20.333333333333336</ele><time>2026-04-23T08:54:05.36Z</time></trkpt><trkpt lat="33.6478783" lon="8.931745"><ele>20.666666666666668</ele><time>2026-04-23T08:54:06.36Z</time></trkpt><trkpt lat="33.6480033" lon="8.9319283"><ele>21.0</ele><time>2026-04-23T08:54:07.36Z</time></trkpt><trkpt lat="33.648125" lon="8.9321183"><ele>21.0</ele><time>2026-04-23T08:54:08.359Z</time></trkpt><trkpt lat="33.64825" lon="8.932305"><ele>21.0</ele><time>2026-04-23T08:54:09.359Z</time></trkpt><trkpt lat="33.6483733" lon="8.93249"><ele>21.0</ele><time>2026-04-23T08:54:10.359Z</time></trkpt><trkpt lat="33.6484933" lon="8.9326783"><ele>21.333333333333332</ele><time>2026-04-23T08:54:11.359Z</time></trkpt><trkpt lat="33.648615" lon="8.932865"><ele>21.666666666666664</ele><time>2026-04-23T08:54:12.359Z</time></trkpt><trkpt lat="33.648745" lon="8.933055"><ele>22.0</ele><time>2026-04-23T08:54:13.36Z</time></trkpt><trkpt lat="33.648875" lon="8.933245"><ele>21.333333333333332</ele><time>2026-04-23T08:54:14.359Z</time></trkpt><trkpt lat="33.6490033" lon="8.933425"><ele>20.666666666666668</ele><time>2026-04-23T08:54:15.36Z</time></trkpt><trkpt lat="33.649135" lon="8.9336017"><ele>20.0</ele><time>2026-04-23T08:54:16.359Z</time></trkpt><trkpt lat="33.64926" lon="8.9337867"><ele>20.0</ele><time>2026-04-23T08:54:17.359Z</time></trkpt><trkpt lat="33.64939" lon="8.9339733"><ele>20.0</ele><time>2026-04-23T08:54:18.359Z</time></trkpt><trkpt lat="33.64952" lon="8.9341633"><ele>20.0</ele><time>2026-04-23T08:54:19.36Z</time></trkpt><trkpt lat="33.6496417" lon="8.9343483"><ele>20.333333333333336</ele><time>2026-04-23T08:54:20.359Z</time></trkpt><trkpt lat="33.6497717" lon="8.934535"><ele>20.666666666666668</ele><time>2026-04-23T08:54:21.359Z</time></trkpt><trkpt lat="33.6498983" lon="8.93472"><ele>21.0</ele><time>2026-04-23T08:54:22.36Z</time></trkpt><trkpt lat="33.650015" lon="8.9349033"><ele>20.666666666666668</ele><time>2026-04-23T08:54:23.359Z</time></trkpt><trkpt lat="33.6501383" lon="8.93509"><ele>20.333333333333336</ele><time>2026-04-23T08:54:24.359Z</time></trkpt><trkpt lat="33.6502683" lon="8.9352767"><ele>20.0</ele><time>2026-04-23T08:54:25.359Z</time></trkpt><trkpt lat="33.6503967" lon="8.93546"><ele>19.666666666666668</ele><time>2026-04-23T08:54:26.36Z</time></trkpt><trkpt lat="33.650525" lon="8.9356467"><ele>19.333333333333332</ele><time>2026-04-23T08:54:27.36Z</time></trkpt><trkpt lat="33.6506567" lon="8.93584"><ele>19.0</ele><time>2026-04-23T08:54:28.36Z</time></trkpt><trkpt lat="33.65079" lon="8.936025"><ele>20.0</ele><time>2026-04-23T08:54:29.359Z</time></trkpt><trkpt lat="33.6509233" lon="8.9362117"><ele>21.0</ele><time>2026-04-23T08:54:30.359Z</time></trkpt><trkpt lat="33.6510667" lon="8.9363833"><ele>22.0</ele><time>2026-04-23T08:54:31.359Z</time></trkpt><trkpt lat="33.6512067" lon="8.9365567"><ele>22.333333333333332</ele><time>2026-04-23T08:54:32.36Z</time></trkpt><trkpt lat="33.6513517" lon="8.9367267"><ele>22.666666666666668</ele><time>2026-04-23T08:54:33.36Z</time></trkpt><trkpt lat="33.6514967" lon="8.9368883"><ele>23.0</ele><time>2026-04-23T08:54:34.359Z</time></trkpt><trkpt lat="33.6516383" lon="8.9370483"><ele>23.0</ele><time>2026-04-23T08:54:35.36Z</time></trkpt><trkpt lat="33.6517867" lon="8.9372117"><ele>23.0</ele><time>2026-04-23T08:54:36.359Z</time></trkpt><trkpt lat="33.6519367" lon="8.9373767"><ele>23.0</ele><time>2026-04-23T08:54:37.36Z</time></trkpt><trkpt lat="33.6520867" lon="8.93754"><ele>22.666666666666668</ele><time>2026-04-23T08:54:38.359Z</time></trkpt><trkpt lat="33.65223" lon="8.9377017"><ele>22.333333333333332</ele><time>2026-04-23T08:54:39.359Z</time></trkpt><trkpt lat="33.652375" lon="8.9378667"><ele>22.0</ele><time>2026-04-23T08:54:40.36Z</time></trkpt><trkpt lat="33.6525283" lon="8.9380367"><ele>22.0</ele><time>2026-04-23T08:54:41.359Z</time></trkpt><trkpt lat="33.6526817" lon="8.9382"><ele>22.0</ele><time>2026-04-23T08:54:42.359Z</time></trkpt><trkpt lat="33.6528317" lon="8.93836"><ele>22.0</ele><time>2026-04-23T08:54:43.359Z</time></trkpt><trkpt lat="33.65298" lon="8.9385217"><ele>22.666666666666664</ele><time>2026-04-23T08:54:44.36Z</time></trkpt><trkpt lat="33.65313" lon="8.93868"><ele>23.333333333333332</ele><time>2026-04-23T08:54:45.36Z</time></trkpt><trkpt lat="33.6532783" lon="8.9388417"><ele>24.0</ele><time>2026-04-23T08:54:46.359Z</time></trkpt><trkpt lat="33.6534367" lon="8.9390017"><ele>24.0</ele><time>2026-04-23T08:54:47.359Z</time></trkpt><trkpt lat="33.6535933" lon="8.9391633"><ele>24.0</ele><time>2026-04-23T08:54:48.36Z</time></trkpt><trkpt lat="33.6537383" lon="8.9393217"><ele>24.0</ele><time>2026-04-23T08:54:49.36Z</time></trkpt><trkpt lat="33.65389" lon="8.9394817"><ele>23.333333333333332</ele><time>2026-04-23T08:54:50.359Z</time></trkpt><trkpt lat="33.6540317" lon="8.9396483"><ele>22.666666666666664</ele><time>2026-04-23T08:54:51.359Z</time></trkpt><trkpt lat="33.654175" lon="8.9398133"><ele>22.0</ele><time>2026-04-23T08:54:52.359Z</time></trkpt><trkpt lat="33.6543283" lon="8.9399767"><ele>22.333333333333332</ele><time>2026-04-23T08:54:53.36Z</time></trkpt><trkpt lat="33.6544867" lon="8.9401367"><ele>22.666666666666668</ele><time>2026-04-23T08:54:54.36Z</time></trkpt><trkpt lat="33.6546367" lon="8.9403"><ele>23.0</ele><time>2026-04-23T08:54:55.36Z</time></trkpt><trkpt lat="33.6547867" lon="8.94046"><ele>23.0</ele><time>2026-04-23T08:54:56.359Z</time></trkpt><trkpt lat="33.6549433" lon="8.9406217"><ele>23.0</ele><time>2026-04-23T08:54:57.36Z</time></trkpt><trkpt lat="33.655095" lon="8.9407817"><ele>23.0</ele><time>2026-04-23T08:54:58.359Z</time></trkpt><trkpt lat="33.6552467" lon="8.940945"><ele>23.0</ele><time>2026-04-23T08:54:59.36Z</time></trkpt><trkpt lat="33.655405" lon="8.9410933"><ele>23.0</ele><time>2026-04-23T08:55:00.36Z</time></trkpt><trkpt lat="33.6555617" lon="8.9412317"><ele>23.0</ele><time>2026-04-23T08:55:01.359Z</time></trkpt><trkpt lat="33.6557183" lon="8.9413683"><ele>23.0</ele><time>2026-04-23T08:55:02.359Z</time></trkpt><trkpt lat="33.6558883" lon="8.9415067"><ele>23.0</ele><time>2026-04-23T08:55:03.36Z</time></trkpt><trkpt lat="33.6560583" lon="8.9416433"><ele>23.0</ele><time>2026-04-23T08:55:04.359Z</time></trkpt><trkpt lat="33.656225" lon="8.9417733"><ele>22.666666666666668</ele><time>2026-04-23T08:55:05.36Z</time></trkpt><trkpt lat="33.656395" lon="8.9419033"><ele>22.333333333333332</ele><time>2026-04-23T08:55:06.359Z</time></trkpt><trkpt lat="33.6565533" lon="8.9420417"><ele>22.0</ele><time>2026-04-23T08:55:07.36Z</time></trkpt><trkpt lat="33.6567183" lon="8.9421767"><ele>22.0</ele><time>2026-04-23T08:55:08.36Z</time></trkpt><trkpt lat="33.656885" lon="8.94231"><ele>22.0</ele><time>2026-04-23T08:55:09.36Z</time></trkpt><trkpt lat="33.6570483" lon="8.9424417"><ele>22.0</ele><time>2026-04-23T08:55:10.36Z</time></trkpt><trkpt lat="33.65721" lon="8.9425717"><ele>22.333333333333332</ele><time>2026-04-23T08:55:11.359Z</time></trkpt><trkpt lat="33.6573717" lon="8.9427"><ele>22.666666666666668</ele><time>2026-04-23T08:55:12.36Z</time></trkpt><trkpt lat="33.657525" lon="8.9428367"><ele>23.0</ele><time>2026-04-23T08:55:13.359Z</time></trkpt><trkpt lat="33.6576883" lon="8.942965"><ele>23.333333333333336</ele><time>2026-04-23T08:55:14.359Z</time></trkpt><trkpt lat="33.6578467" lon="8.9430967"><ele>23.666666666666668</ele><time>2026-04-23T08:55:15.36Z</time></trkpt><trkpt lat="33.658" lon="8.943225"><ele>24.0</ele><time>2026-04-23T08:55:16.36Z</time></trkpt><trkpt lat="33.6581583" lon="8.9433533"><ele>24.0</ele><time>2026-04-23T08:55:17.359Z</time></trkpt><trkpt lat="33.6583167" lon="8.943485"><ele>24.0</ele><time>2026-04-23T08:55:18.359Z</time></trkpt><trkpt lat="33.6584783" lon="8.9436233"><ele>24.0</ele><time>2026-04-23T08:55:19.359Z</time></trkpt><trkpt lat="33.6586383" lon="8.9437533"><ele>22.666666666666668</ele><time>2026-04-23T08:55:20.36Z</time></trkpt><trkpt lat="33.6588083" lon="8.9438817"><ele>21.333333333333336</ele><time>2026-04-23T08:55:21.36Z</time></trkpt><trkpt lat="33.658985" lon="8.944015"><ele>20.0</ele><time>2026-04-23T08:55:22.359Z</time></trkpt><trkpt lat="33.659165" lon="8.9441483"><ele>19.0</ele><time>2026-04-23T08:55:23.359Z</time></trkpt><trkpt lat="33.6593367" lon="8.9442767"><ele>18.0</ele><time>2026-04-23T08:55:24.36Z</time></trkpt><trkpt lat="33.6595083" lon="8.94441"><ele>17.0</ele><time>2026-04-23T08:55:25.36Z</time></trkpt><trkpt lat="33.6596833" lon="8.9445467"><ele>19.333333333333336</ele><time>2026-04-23T08:55:26.36Z</time></trkpt><trkpt lat="33.6598583" lon="8.9446867"><ele>21.666666666666668</ele><time>2026-04-23T08:55:27.359Z</time></trkpt><trkpt lat="33.660035" lon="8.9448267"><ele>24.0</ele><time>2026-04-23T08:55:28.359Z</time></trkpt><trkpt lat="33.6602033" lon="8.944975"><ele>23.333333333333332</ele><time>2026-04-23T08:55:29.359Z</time></trkpt><trkpt lat="33.660365" lon="8.9451117"><ele>22.666666666666664</ele><time>2026-04-23T08:55:30.359Z</time></trkpt><trkpt lat="33.6605317" lon="8.9452483"><ele>22.0</ele><time>2026-04-23T08:55:31.36Z</time></trkpt><trkpt lat="33.6606917" lon="8.9453817"><ele>22.0</ele><time>2026-04-23T08:55:32.36Z</time></trkpt><trkpt lat="33.66085" lon="8.94552"><ele>22.0</ele><time>2026-04-23T08:55:33.36Z</time></trkpt><trkpt lat="33.66101" lon="8.9456617"><ele>22.0</ele><time>2026-04-23T08:55:34.36Z</time></trkpt><trkpt lat="33.66118" lon="8.9458033"><ele>22.0</ele><time>2026-04-23T08:55:35.36Z</time></trkpt><trkpt lat="33.6613433" lon="8.945945"><ele>22.0</ele><time>2026-04-23T08:55:36.359Z</time></trkpt><trkpt lat="33.6615167" lon="8.9460883"><ele>22.0</ele><time>2026-04-23T08:55:37.359Z</time></trkpt><trkpt lat="33.661695" lon="8.946225"><ele>22.0</ele><time>2026-04-23T08:55:38.359Z</time></trkpt><trkpt lat="33.6618667" lon="8.9463667"><ele>22.0</ele><time>2026-04-23T08:55:39.36Z</time></trkpt><trkpt lat="33.6620317" lon="8.9464983"><ele>22.0</ele><time>2026-04-23T08:55:40.36Z</time></trkpt><trkpt lat="33.6621933" lon="8.9466433"><ele>22.666666666666664</ele><time>2026-04-23T08:55:41.359Z</time></trkpt><trkpt lat="33.6623667" lon="8.9467783"><ele>23.333333333333332</ele><time>2026-04-23T08:55:42.36Z</time></trkpt><trkpt lat="33.6625417" lon="8.94692"><ele>24.0</ele><time>2026-04-23T08:55:43.359Z</time></trkpt><trkpt lat="33.6627183" lon="8.9470633"><ele>24.0</ele><time>2026-04-23T08:55:44.359Z</time></trkpt><trkpt lat="33.6629" lon="8.9472017"><ele>24.0</ele><time>2026-04-23T08:55:45.36Z</time></trkpt><trkpt lat="33.6630767" lon="8.9473333"><ele>24.0</ele><time>2026-04-23T08:55:46.359Z</time></trkpt><trkpt lat="33.6632417" lon="8.9474683"><ele>24.0</ele><time>2026-04-23T08:55:47.359Z</time></trkpt><trkpt lat="33.663415" lon="8.9476117"><ele>24.0</ele><time>2026-04-23T08:55:48.359Z</time></trkpt><trkpt lat="33.6635767" lon="8.9477533"><ele>24.0</ele><time>2026-04-23T08:55:49.359Z</time></trkpt><trkpt lat="33.6637367" lon="8.9478933"><ele>24.0</ele><time>2026-04-23T08:55:50.359Z</time></trkpt><trkpt lat="33.663895" lon="8.9480283"><ele>24.0</ele><time>2026-04-23T08:55:51.36Z</time></trkpt><trkpt lat="33.664065" lon="8.94817"><ele>24.0</ele><time>2026-04-23T08:55:52.359Z</time></trkpt><trkpt lat="33.66423" lon="8.9483033"><ele>24.0</ele><time>2026-04-23T08:55:53.36Z</time></trkpt><trkpt lat="33.6643967" lon="8.9484283"><ele>24.0</ele><time>2026-04-23T08:55:54.359Z</time></trkpt><trkpt lat="33.664565" lon="8.9485583"><ele>24.0</ele><time>2026-04-23T08:55:55.359Z</time></trkpt><trkpt lat="33.6647283" lon="8.9487"><ele>24.0</ele><time>2026-04-23T08:55:56.36Z</time></trkpt><trkpt lat="33.6649033" lon="8.9488267"><ele>24.0</ele><time>2026-04-23T08:55:57.36Z</time></trkpt><trkpt lat="33.66507" lon="8.94895"><ele>24.0</ele><time>2026-04-23T08:55:58.359Z</time></trkpt><trkpt lat="33.665235" lon="8.949085"><ele>24.0</ele><time>2026-04-23T08:55:59.36Z</time></trkpt><trkpt lat="33.6654017" lon="8.9492167"><ele>24.0</ele><time>2026-04-23T08:56:00.36Z</time></trkpt><trkpt lat="33.6655633" lon="8.949365"><ele>24.0</ele><time>2026-04-23T08:56:01.359Z</time></trkpt><trkpt lat="33.665725" lon="8.9495117"><ele>24.0</ele><time>2026-04-23T08:56:02.359Z</time></trkpt><trkpt lat="33.66589" lon="8.9496467"><ele>24.0</ele><time>2026-04-23T08:56:03.36Z</time></trkpt><trkpt lat="33.6660617" lon="8.9497667"><ele>24.0</ele><time>2026-04-23T08:56:04.359Z</time></trkpt><trkpt lat="33.6662417" lon="8.94988"><ele>24.0</ele><time>2026-04-23T08:56:05.36Z</time></trkpt><trkpt lat="33.6664233" lon="8.94999"><ele>24.0</ele><time>2026-04-23T08:56:06.36Z</time></trkpt><trkpt lat="33.6666" lon="8.95009"><ele>24.0</ele><time>2026-04-23T08:56:07.36Z</time></trkpt><trkpt lat="33.6667833" lon="8.9501833"><ele>24.0</ele><time>2026-04-23T08:56:08.359Z</time></trkpt><trkpt lat="33.66697" lon="8.950275"><ele>24.0</ele><time>2026-04-23T08:56:09.359Z</time></trkpt><trkpt lat="33.6671617" lon="8.9503433"><ele>24.0</ele><time>2026-04-23T08:56:10.359Z</time></trkpt><trkpt lat="33.6673667" lon="8.9503983"><ele>24.0</ele><time>2026-04-23T08:56:11.359Z</time></trkpt><trkpt lat="33.6675733" lon="8.9504433"><ele>24.0</ele><time>2026-04-23T08:56:12.36Z</time></trkpt><trkpt lat="33.6677717" lon="8.9504933"><ele>24.0</ele><time>2026-04-23T08:56:13.359Z</time></trkpt><trkpt lat="33.66797" lon="8.9505217"><ele>24.0</ele><time>2026-04-23T08:56:14.36Z</time></trkpt><trkpt lat="33.66817" lon="8.9505367"><ele>24.0</ele><time>2026-04-23T08:56:15.36Z</time></trkpt><trkpt lat="33.6683733" lon="8.9505483"><ele>24.0</ele><time>2026-04-23T08:56:16.36Z</time></trkpt><trkpt lat="33.6685883" lon="8.95057"><ele>24.333333333333336</ele><time>2026-04-23T08:56:17.36Z</time></trkpt><trkpt lat="33.6687983" lon="8.9505967"><ele>24.666666666666668</ele><time>2026-04-23T08:56:18.36Z</time></trkpt><trkpt lat="33.66901" lon="8.950615"><ele>25.0</ele><time>2026-04-23T08:56:19.359Z</time></trkpt><trkpt lat="33.66922" lon="8.95063"><ele>25.0</ele><time>2026-04-23T08:56:20.36Z</time></trkpt><trkpt lat="33.6694333" lon="8.9506483"><ele>25.0</ele><time>2026-04-23T08:56:21.359Z</time></trkpt><trkpt lat="33.6696417" lon="8.9506633"><ele>25.0</ele><time>2026-04-23T08:56:22.359Z</time></trkpt><trkpt lat="33.6698517" lon="8.9506767"><ele>25.333333333333336</ele><time>2026-04-23T08:56:23.36Z</time></trkpt><trkpt lat="33.67006" lon="8.9506883"><ele>25.666666666666664</ele><time>2026-04-23T08:56:24.36Z</time></trkpt><trkpt lat="33.6702717" lon="8.9507"><ele>26.0</ele><time>2026-04-23T08:56:25.359Z</time></trkpt><trkpt lat="33.670475" lon="8.9507117"><ele>26.0</ele><time>2026-04-23T08:56:26.359Z</time></trkpt><trkpt lat="33.6706733" lon="8.95073"><ele>26.0</ele><time>2026-04-23T08:56:27.36Z</time></trkpt><trkpt lat="33.6708833" lon="8.950755"><ele>26.0</ele><time>2026-04-23T08:56:28.36Z</time></trkpt><trkpt lat="33.6710883" lon="8.9507783"><ele>25.666666666666664</ele><time>2026-04-23T08:56:29.359Z</time></trkpt><trkpt lat="33.6712967" lon="8.9508"><ele>25.333333333333336</ele><time>2026-04-23T08:56:30.36Z</time></trkpt><trkpt lat="33.6715" lon="8.9508083"><ele>25.0</ele><time>2026-04-23T08:56:31.359Z</time></trkpt><trkpt lat="33.6717067" lon="8.9508267"><ele>25.0</ele><time>2026-04-23T08:56:32.36Z</time></trkpt><trkpt lat="33.67191" lon="8.9508467"><ele>25.0</ele><time>2026-04-23T08:56:33.36Z</time></trkpt><trkpt lat="33.6721117" lon="8.9508633"><ele>25.0</ele><time>2026-04-23T08:56:34.359Z</time></trkpt><trkpt lat="33.67232" lon="8.9508833"><ele>25.333333333333336</ele><time>2026-04-23T08:56:35.36Z</time></trkpt><trkpt lat="33.6725133" lon="8.9509"><ele>25.666666666666664</ele><time>2026-04-23T08:56:36.36Z</time></trkpt><trkpt lat="33.672715" lon="8.9509167"><ele>26.0</ele><time>2026-04-23T08:56:37.359Z</time></trkpt><trkpt lat="33.67292" lon="8.95093"><ele>25.333333333333332</ele><time>2026-04-23T08:56:38.36Z</time></trkpt><trkpt lat="33.6731283" lon="8.950945"><ele>24.666666666666664</ele><time>2026-04-23T08:56:39.359Z</time></trkpt><trkpt lat="33.6733283" lon="8.9509633"><ele>24.0</ele><time>2026-04-23T08:56:40.359Z</time></trkpt><trkpt lat="33.6735333" lon="8.95099"><ele>24.333333333333336</ele><time>2026-04-23T08:56:41.36Z</time></trkpt><trkpt lat="33.6737367" lon="8.951015"><ele>24.666666666666668</ele><time>2026-04-23T08:56:42.36Z</time></trkpt><trkpt lat="33.673945" lon="8.9510317"><ele>25.0</ele><time>2026-04-23T08:56:43.36Z</time></trkpt><trkpt lat="33.67415" lon="8.9510417"><ele>25.0</ele><time>2026-04-23T08:56:44.359Z</time></trkpt><trkpt lat="33.674355" lon="8.9510567"><ele>25.0</ele><time>2026-04-23T08:56:45.36Z</time></trkpt><trkpt lat="33.67456" lon="8.9510733"><ele>25.0</ele><time>2026-04-23T08:56:46.36Z</time></trkpt><trkpt lat="33.6747733" lon="8.9510917"><ele>25.0</ele><time>2026-04-23T08:56:47.36Z</time></trkpt><trkpt lat="33.6749817" lon="8.9511167"><ele>25.0</ele><time>2026-04-23T08:56:48.36Z</time></trkpt><trkpt lat="33.6751867" lon="8.9511367"><ele>25.0</ele><time>2026-04-23T08:56:49.359Z</time></trkpt><trkpt lat="33.6753933" lon="8.9511583"><ele>25.0</ele><time>2026-04-23T08:56:50.359Z</time></trkpt><trkpt lat="33.6756017" lon="8.95117"><ele>25.0</ele><time>2026-04-23T08:56:51.36Z</time></trkpt><trkpt lat="33.6758017" lon="8.9511817"><ele>25.0</ele><time>2026-04-23T08:56:52.359Z</time></trkpt><trkpt lat="33.6760067" lon="8.951195"><ele>25.0</ele><time>2026-04-23T08:56:53.359Z</time></trkpt><trkpt lat="33.6762133" lon="8.9512133"><ele>25.0</ele><time>2026-04-23T08:56:54.359Z</time></trkpt><trkpt lat="33.6764233" lon="8.9512283"><ele>25.0</ele><time>2026-04-23T08:56:55.36Z</time></trkpt><trkpt lat="33.6766317" lon="8.9512433"><ele>25.0</ele><time>2026-04-23T08:56:56.36Z</time></trkpt><trkpt lat="33.67684" lon="8.9512683"><ele>25.0</ele><time>2026-04-23T08:56:57.359Z</time></trkpt><trkpt lat="33.6770483" lon="8.9512983"><ele>25.0</ele><time>2026-04-23T08:56:58.36Z</time></trkpt><trkpt lat="33.6772567" lon="8.95132"><ele>25.0</ele><time>2026-04-23T08:56:59.36Z</time></trkpt><trkpt lat="33.67746" lon="8.951335"><ele>25.0</ele><time>2026-04-23T08:57:00.36Z</time></trkpt><trkpt lat="33.6776583" lon="8.9513433"><ele>25.0</ele><time>2026-04-23T08:57:01.36Z</time></trkpt><trkpt lat="33.6778683" lon="8.9513583"><ele>25.0</ele><time>2026-04-23T08:57:02.359Z</time></trkpt><trkpt lat="33.6780767" lon="8.951385"><ele>25.0</ele><time>2026-04-23T08:57:03.359Z</time></trkpt><trkpt lat="33.6782817" lon="8.9514083"><ele>25.0</ele><time>2026-04-23T08:57:04.359Z</time></trkpt><trkpt lat="33.6784883" lon="8.9514317"><ele>25.333333333333336</ele><time>2026-04-23T08:57:05.359Z</time></trkpt><trkpt lat="33.6786917" lon="8.9514467"><ele>25.666666666666664</ele><time>2026-04-23T08:57:06.359Z</time></trkpt><trkpt lat="33.6788967" lon="8.951465"><ele>26.0</ele><time>2026-04-23T08:57:07.359Z</time></trkpt><trkpt lat="33.6791083" lon="8.9514917"><ele>26.0</ele><time>2026-04-23T08:57:08.36Z</time></trkpt><trkpt lat="33.679315" lon="8.951515"><ele>26.0</ele><time>2026-04-23T08:57:09.359Z</time></trkpt><trkpt lat="33.67953" lon="8.951535"><ele>26.0</ele><time>2026-04-23T08:57:10.359Z</time></trkpt><trkpt lat="33.6797367" lon="8.9515633"><ele>25.666666666666664</ele><time>2026-04-23T08:57:11.359Z</time></trkpt><trkpt lat="33.67995" lon="8.951585"><ele>25.333333333333336</ele><time>2026-04-23T08:57:12.359Z</time></trkpt><trkpt lat="33.68016" lon="8.9516083"><ele>25.0</ele><time>2026-04-23T08:57:13.359Z</time></trkpt><trkpt lat="33.6803717" lon="8.9516233"><ele>25.0</ele><time>2026-04-23T08:57:14.359Z</time></trkpt><trkpt lat="33.6805833" lon="8.9516483"><ele>25.0</ele><time>2026-04-23T08:57:15.359Z</time></trkpt><trkpt lat="33.6807933" lon="8.9516683"><ele>25.0</ele><time>2026-04-23T08:57:16.36Z</time></trkpt><trkpt lat="33.6810067" lon="8.9516883"><ele>25.333333333333336</ele><time>2026-04-23T08:57:17.36Z</time></trkpt><trkpt lat="33.681215" lon="8.9517067"><ele>25.666666666666664</ele><time>2026-04-23T08:57:18.359Z</time></trkpt><trkpt lat="33.68143" lon="8.9517233"><ele>26.0</ele><time>2026-04-23T08:57:19.36Z</time></trkpt><trkpt lat="33.6816417" lon="8.9517417"><ele>26.0</ele><time>2026-04-23T08:57:20.36Z</time></trkpt><trkpt lat="33.6818517" lon="8.951755"><ele>26.0</ele><time>2026-04-23T08:57:21.36Z</time></trkpt><trkpt lat="33.6820667" lon="8.95177"><ele>26.0</ele><time>2026-04-23T08:57:22.359Z</time></trkpt><trkpt lat="33.6822783" lon="8.9517967"><ele>26.333333333333332</ele><time>2026-04-23T08:57:23.36Z</time></trkpt><trkpt lat="33.682485" lon="8.951815"><ele>26.666666666666664</ele><time>2026-04-23T08:57:24.36Z</time></trkpt><trkpt lat="33.682695" lon="8.951835"><ele>27.0</ele><time>2026-04-23T08:57:25.359Z</time></trkpt><trkpt lat="33.68291" lon="8.9518517"><ele>27.0</ele><time>2026-04-23T08:57:26.359Z</time></trkpt><trkpt lat="33.6831217" lon="8.951865"><ele>27.0</ele><time>2026-04-23T08:57:27.359Z</time></trkpt><trkpt lat="33.6833367" lon="8.9518833"><ele>27.0</ele><time>2026-04-23T08:57:28.36Z</time></trkpt><trkpt lat="33.6835533" lon="8.9519083"><ele>27.0</ele><time>2026-04-23T08:57:29.359Z</time></trkpt><trkpt lat="33.683765" lon="8.9519317"><ele>27.0</ele><time>2026-04-23T08:57:30.359Z</time></trkpt><trkpt lat="33.6839767" lon="8.9519417"><ele>27.0</ele><time>2026-04-23T08:57:31.359Z</time></trkpt><trkpt lat="33.6841917" lon="8.95196"><ele>27.0</ele><time>2026-04-23T08:57:32.359Z</time></trkpt><trkpt lat="33.684405" lon="8.9519817"><ele>27.0</ele><time>2026-04-23T08:57:33.359Z</time></trkpt><trkpt lat="33.6846233" lon="8.9519983"><ele>27.0</ele><time>2026-04-23T08:57:34.36Z</time></trkpt><trkpt lat="33.6848383" lon="8.952005"><ele>27.0</ele><time>2026-04-23T08:57:35.359Z</time></trkpt><trkpt lat="33.6850433" lon="8.9520217"><ele>27.0</ele><time>2026-04-23T08:57:36.359Z</time></trkpt><trkpt lat="33.6852417" lon="8.9520617"><ele>27.0</ele><time>2026-04-23T08:57:37.36Z</time></trkpt><trkpt lat="33.6854383" lon="8.9521383"><ele>27.0</ele><time>2026-04-23T08:57:38.359Z</time></trkpt><trkpt lat="33.6856317" lon="8.95224"><ele>27.0</ele><time>2026-04-23T08:57:39.359Z</time></trkpt><trkpt lat="33.6858067" lon="8.95237"><ele>27.0</ele><time>2026-04-23T08:57:40.36Z</time></trkpt><trkpt lat="33.6859867" lon="8.9524783"><ele>27.666666666666664</ele><time>2026-04-23T08:57:41.36Z</time></trkpt><trkpt lat="33.6861483" lon="8.952605"><ele>28.333333333333332</ele><time>2026-04-23T08:57:42.36Z</time></trkpt><trkpt lat="33.6863083" lon="8.9527417"><ele>29.0</ele><time>2026-04-23T08:57:43.359Z</time></trkpt><trkpt lat="33.68646" lon="8.952885"><ele>29.0</ele><time>2026-04-23T08:57:44.36Z</time></trkpt><trkpt lat="33.6866183" lon="8.95304"><ele>29.0</ele><time>2026-04-23T08:57:45.359Z</time></trkpt><trkpt lat="33.68677" lon="8.9532033"><ele>29.0</ele><time>2026-04-23T08:57:46.359Z</time></trkpt><trkpt lat="33.686915" lon="8.95337"><ele>28.666666666666664</ele><time>2026-04-23T08:57:47.36Z</time></trkpt><trkpt lat="33.687065" lon="8.953525"><ele>28.333333333333336</ele><time>2026-04-23T08:57:48.36Z</time></trkpt><trkpt lat="33.68721" lon="8.9536867"><ele>28.0</ele><time>2026-04-23T08:57:49.359Z</time></trkpt><trkpt lat="33.6873617" lon="8.953845"><ele>28.0</ele><time>2026-04-23T08:57:50.359Z</time></trkpt><trkpt lat="33.687505" lon="8.954005"><ele>28.0</ele><time>2026-04-23T08:57:51.359Z</time></trkpt><trkpt lat="33.6876583" lon="8.9541733"><ele>28.0</ele><time>2026-04-23T08:57:52.36Z</time></trkpt><trkpt lat="33.68781" lon="8.9543267"><ele>28.0</ele><time>2026-04-23T08:57:53.359Z</time></trkpt><trkpt lat="33.687955" lon="8.9544917"><ele>28.0</ele><time>2026-04-23T08:57:54.359Z</time></trkpt><trkpt lat="33.6881133" lon="8.954655"><ele>28.0</ele><time>2026-04-23T08:57:55.359Z</time></trkpt><trkpt lat="33.688265" lon="8.9548317"><ele>28.0</ele><time>2026-04-23T08:57:56.359Z</time></trkpt><trkpt lat="33.6884233" lon="8.955"><ele>28.0</ele><time>2026-04-23T08:57:57.359Z</time></trkpt><trkpt lat="33.6885783" lon="8.955165"><ele>28.0</ele><time>2026-04-23T08:57:58.358Z</time></trkpt><trkpt lat="33.6887367" lon="8.9553333"><ele>28.666666666666668</ele><time>2026-04-23T08:57:59.358Z</time></trkpt><trkpt lat="33.6888983" lon="8.9555033"><ele>29.333333333333336</ele><time>2026-04-23T08:58:00.358Z</time></trkpt><trkpt lat="33.6890417" lon="8.955665"><ele>30.0</ele><time>2026-04-23T08:58:01.358Z</time></trkpt><trkpt lat="33.6891933" lon="8.95583"><ele>30.0</ele><time>2026-04-23T08:58:02.358Z</time></trkpt><trkpt lat="33.68934" lon="8.9559883"><ele>30.0</ele><time>2026-04-23T08:58:03.359Z</time></trkpt><trkpt lat="33.689485" lon="8.95615"><ele>30.0</ele><time>2026-04-23T08:58:04.359Z</time></trkpt><trkpt lat="33.6896317" lon="8.956305"><ele>30.0</ele><time>2026-04-23T08:58:05.359Z</time></trkpt><trkpt lat="33.6897767" lon="8.956465"><ele>30.0</ele><time>2026-04-23T08:58:06.358Z</time></trkpt><trkpt lat="33.6899167" lon="8.9566133"><ele>30.0</ele><time>2026-04-23T08:58:07.358Z</time></trkpt><trkpt lat="33.6900567" lon="8.9567583"><ele>30.333333333333336</ele><time>2026-04-23T08:58:08.358Z</time></trkpt><trkpt lat="33.6901867" lon="8.9568983"><ele>30.666666666666668</ele><time>2026-04-23T08:58:09.359Z</time></trkpt><trkpt lat="33.6903" lon="8.9570233"><ele>31.0</ele><time>2026-04-23T08:58:10.358Z</time></trkpt><trkpt lat="33.69041" lon="8.95715"><ele>30.333333333333336</ele><time>2026-04-23T08:58:11.358Z</time></trkpt><trkpt lat="33.6905183" lon="8.95728"><ele>29.666666666666664</ele><time>2026-04-23T08:58:12.359Z</time></trkpt><trkpt lat="33.6906317" lon="8.9574017"><ele>29.0</ele><time>2026-04-23T08:58:13.359Z</time></trkpt><trkpt lat="33.69074" lon="8.9575167"><ele>29.25</ele><time>2026-04-23T08:58:14.359Z</time></trkpt><trkpt lat="33.69085" lon="8.9576167"><ele>29.5</ele><time>2026-04-23T08:58:15.359Z</time></trkpt><trkpt lat="33.6909367" lon="8.95771"><ele>29.75</ele><time>2026-04-23T08:58:16.359Z</time></trkpt><trkpt lat="33.6910233" lon="8.9578"><ele>30.0</ele><time>2026-04-23T08:58:17.358Z</time></trkpt><trkpt lat="33.6911" lon="8.9578933"><ele>30.0</ele><time>2026-04-23T08:58:18.358Z</time></trkpt><trkpt lat="33.691175" lon="8.957975"><ele>30.0</ele><time>2026-04-23T08:58:19.358Z</time></trkpt><trkpt lat="33.69125" lon="8.9580567"><ele>30.0</ele><time>2026-04-23T08:58:20.359Z</time></trkpt><trkpt lat="33.6913217" lon="8.958145"><ele>30.0</ele><time>2026-04-23T08:58:21.359Z</time></trkpt><trkpt lat="33.6914033" lon="8.9582383"><ele>30.0</ele><time>2026-04-23T08:58:22.359Z</time></trkpt><trkpt lat="33.6914833" lon="8.95833"><ele>30.25</ele><time>2026-04-23T08:58:23.358Z</time></trkpt><trkpt lat="33.691565" lon="8.9584217"><ele>30.5</ele><time>2026-04-23T08:58:24.359Z</time></trkpt><trkpt lat="33.6916467" lon="8.9585167"><ele>30.75</ele><time>2026-04-23T08:58:25.358Z</time></trkpt><trkpt lat="33.6917317" lon="8.958605"><ele>31.0</ele><time>2026-04-23T08:58:26.359Z</time></trkpt><trkpt lat="33.691815" lon="8.9587017"><ele>31.0</ele><time>2026-04-23T08:58:27.359Z</time></trkpt><trkpt lat="33.6919083" lon="8.9587933"><ele>31.0</ele><time>2026-04-23T08:58:28.358Z</time></trkpt><trkpt lat="33.6919983" lon="8.95889"><ele>31.0</ele><time>2026-04-23T08:58:29.359Z</time></trkpt><trkpt lat="33.6920767" lon="8.9589917"><ele>31.0</ele><time>2026-04-23T08:58:30.359Z</time></trkpt><trkpt lat="33.69217" lon="8.95908"><ele>30.5</ele><time>2026-04-23T08:58:31.358Z</time></trkpt><trkpt lat="33.69226" lon="8.9591833"><ele>30.0</ele><time>2026-04-23T08:58:32.358Z</time></trkpt><trkpt lat="33.69235" lon="8.9592833"><ele>29.5</ele><time>2026-04-23T08:58:33.359Z</time></trkpt><trkpt lat="33.69245" lon="8.95939"><ele>29.0</ele><time>2026-04-23T08:58:34.358Z</time></trkpt><trkpt lat="33.692555" lon="8.959495"><ele>29.75</ele><time>2026-04-23T08:58:35.359Z</time></trkpt><trkpt lat="33.6926633" lon="8.9595933"><ele>30.5</ele><time>2026-04-23T08:58:36.358Z</time></trkpt><trkpt lat="33.6927683" lon="8.959705"><ele>31.25</ele><time>2026-04-23T08:58:37.358Z</time></trkpt><trkpt lat="33.6928667" lon="8.9598067"><ele>32.0</ele><time>2026-04-23T08:58:38.358Z</time></trkpt><trkpt lat="33.692975" lon="8.9599183"><ele>32.0</ele><time>2026-04-23T08:58:39.358Z</time></trkpt><trkpt lat="33.693075" lon="8.960025"><ele>32.0</ele><time>2026-04-23T08:58:40.358Z</time></trkpt><trkpt lat="33.693165" lon="8.960135"><ele>32.0</ele><time>2026-04-23T08:58:41.358Z</time></trkpt><trkpt lat="33.6932617" lon="8.960235"><ele>32.0</ele><time>2026-04-23T08:58:42.358Z</time></trkpt><trkpt lat="33.6933483" lon="8.9603433"><ele>32.0</ele><time>2026-04-23T08:58:43.358Z</time></trkpt><trkpt lat="33.69344" lon="8.960445"><ele>32.0</ele><time>2026-04-23T08:58:44.359Z</time></trkpt><trkpt lat="33.6935367" lon="8.9605483"><ele>32.0</ele><time>2026-04-23T08:58:45.359Z</time></trkpt><trkpt lat="33.693635" lon="8.9606483"><ele>32.0</ele><time>2026-04-23T08:58:46.359Z</time></trkpt><trkpt lat="33.693725" lon="8.9607483"><ele>32.0</ele><time>2026-04-23T08:58:47.358Z</time></trkpt><trkpt lat="33.6938267" lon="8.960845"><ele>32.0</ele><time>2026-04-23T08:58:48.358Z</time></trkpt><trkpt lat="33.693935" lon="8.9609467"><ele>32.0</ele><time>2026-04-23T08:58:49.358Z</time></trkpt><trkpt lat="33.694035" lon="8.9610567"><ele>32.0</ele><time>2026-04-23T08:58:50.358Z</time></trkpt><trkpt lat="33.69413" lon="8.9611617"><ele>32.0</ele><time>2026-04-23T08:58:51.358Z</time></trkpt><trkpt lat="33.694225" lon="8.9612767"><ele>32.0</ele><time>2026-04-23T08:58:52.359Z</time></trkpt><trkpt lat="33.6943183" lon="8.961385"><ele>32.0</ele><time>2026-04-23T08:58:53.359Z</time></trkpt><trkpt lat="33.69442" lon="8.9614917"><ele>32.0</ele><time>2026-04-23T08:58:54.358Z</time></trkpt><trkpt lat="33.6945217" lon="8.9615983"><ele>31.75</ele><time>2026-04-23T08:58:55.358Z</time></trkpt><trkpt lat="33.69462" lon="8.9616967"><ele>31.5</ele><time>2026-04-23T08:58:56.358Z</time></trkpt><trkpt lat="33.6947167" lon="8.96179"><ele>31.25</ele><time>2026-04-23T08:58:57.358Z</time></trkpt><trkpt lat="33.6948133" lon="8.9618833"><ele>31.0</ele><time>2026-04-23T08:58:58.358Z</time></trkpt><trkpt lat="33.6949067" lon="8.9619833"><ele>31.0</ele><time>2026-04-23T08:58:59.358Z</time></trkpt><trkpt lat="33.6950133" lon="8.9620733"><ele>31.0</ele><time>2026-04-23T08:59:00.358Z</time></trkpt><trkpt lat="33.6951067" lon="8.9621683"><ele>31.0</ele><time>2026-04-23T08:59:01.359Z</time></trkpt><trkpt lat="33.69519" lon="8.9622617"><ele>31.0</ele><time>2026-04-23T08:59:02.358Z</time></trkpt><trkpt lat="33.6952783" lon="8.9623567"><ele>30.75</ele><time>2026-04-23T08:59:03.359Z</time></trkpt><trkpt lat="33.695365" lon="8.9624467"><ele>30.5</ele><time>2026-04-23T08:59:04.358Z</time></trkpt><trkpt lat="33.6954517" lon="8.9625417"><ele>30.25</ele><time>2026-04-23T08:59:05.359Z</time></trkpt><trkpt lat="33.695525" lon="8.96265"><ele>30.0</ele><time>2026-04-23T08:59:06.358Z</time></trkpt><trkpt lat="33.6956083" lon="8.96275"><ele>30.5</ele><time>2026-04-23T08:59:07.359Z</time></trkpt><trkpt lat="33.69569" lon="8.9628467"><ele>31.0</ele><time>2026-04-23T08:59:08.359Z</time></trkpt><trkpt lat="33.69577" lon="8.96294"><ele>31.5</ele><time>2026-04-23T08:59:09.358Z</time></trkpt><trkpt lat="33.6958567" lon="8.963025"><ele>32.0</ele><time>2026-04-23T08:59:10.358Z</time></trkpt><trkpt lat="33.6959483" lon="8.9631167"><ele>32.0</ele><time>2026-04-23T08:59:11.358Z</time></trkpt><trkpt lat="33.6960367" lon="8.96321"><ele>32.0</ele><time>2026-04-23T08:59:12.358Z</time></trkpt><trkpt lat="33.6961233" lon="8.9633033"><ele>32.0</ele><time>2026-04-23T08:59:13.359Z</time></trkpt><trkpt lat="33.6962133" lon="8.963405"><ele>32.0</ele><time>2026-04-23T08:59:14.359Z</time></trkpt><trkpt lat="33.696295" lon="8.9635033"><ele>32.2</ele><time>2026-04-23T08:59:15.358Z</time></trkpt><trkpt lat="33.6963767" lon="8.9635817"><ele>32.400000000000006</ele><time>2026-04-23T08:59:16.358Z</time></trkpt><trkpt lat="33.6964533" lon="8.9636567"><ele>32.599999999999994</ele><time>2026-04-23T08:59:17.359Z</time></trkpt><trkpt lat="33.6965283" lon="8.9637367"><ele>32.8</ele><time>2026-04-23T08:59:18.359Z</time></trkpt><trkpt lat="33.6965967" lon="8.9638033"><ele>33.0</ele><time>2026-04-23T08:59:19.358Z</time></trkpt><trkpt lat="33.69665" lon="8.9638617"><ele>33.0</ele><time>2026-04-23T08:59:20.359Z</time></trkpt><trkpt lat="33.6966983" lon="8.9639167"><ele>33.0</ele><time>2026-04-23T08:59:21.358Z</time></trkpt><trkpt lat="33.6967417" lon="8.9639733"><ele>33.0</ele><time>2026-04-23T08:59:22.358Z</time></trkpt><trkpt lat="33.6968183" lon="8.96404"><ele>33.0</ele><time>2026-04-23T08:59:24.358Z</time></trkpt><trkpt lat="33.696875" lon="8.9641117"><ele>33.0</ele><time>2026-04-23T08:59:26.358Z</time></trkpt><trkpt lat="33.6969567" lon="8.9641917"><ele>33.0</ele><time>2026-04-23T08:59:28.358Z</time></trkpt><trkpt lat="33.69701" lon="8.9642433"><ele>32.833333333333336</ele><time>2026-04-23T08:59:29.358Z</time></trkpt><trkpt lat="33.6971067" lon="8.964345"><ele>32.666666666666664</ele><time>2026-04-23T08:59:31.359Z</time></trkpt><trkpt lat="33.6971567" lon="8.9644017"><ele>32.5</ele><time>2026-04-23T08:59:32.359Z</time></trkpt><trkpt lat="33.69721" lon="8.9644583"><ele>32.33333333333333</ele><time>2026-04-23T08:59:33.359Z</time></trkpt><trkpt lat="33.6972683" lon="8.96453"><ele>32.166666666666664</ele><time>2026-04-23T08:59:34.359Z</time></trkpt><trkpt lat="33.6973383" lon="8.9645983"><ele>32.0</ele><time>2026-04-23T08:59:35.359Z</time></trkpt><trkpt lat="33.6974133" lon="8.964665"><ele>31.999999999999996</ele><time>2026-04-23T08:59:36.359Z</time></trkpt><trkpt lat="33.69748" lon="8.9647283"><ele>32.0</ele><time>2026-04-23T08:59:37.359Z</time></trkpt><trkpt lat="33.697535" lon="8.964785"><ele>32.0</ele><time>2026-04-23T08:59:38.359Z</time></trkpt><trkpt lat="33.6975883" lon="8.9648517"><ele>32.0</ele><time>2026-04-23T08:59:39.358Z</time></trkpt><trkpt lat="33.6976517" lon="8.9649133"><ele>31.999999999999996</ele><time>2026-04-23T08:59:40.359Z</time></trkpt><trkpt lat="33.6977117" lon="8.9649617"><ele>32.0</ele><time>2026-04-23T08:59:41.359Z</time></trkpt><trkpt lat="33.697765" lon="8.96502"><ele>32.33333333333333</ele><time>2026-04-23T08:59:42.359Z</time></trkpt><trkpt lat="33.69782" lon="8.9650833"><ele>32.666666666666664</ele><time>2026-04-23T08:59:43.358Z</time></trkpt><trkpt lat="33.697875" lon="8.965155"><ele>33.0</ele><time>2026-04-23T08:59:44.359Z</time></trkpt><trkpt lat="33.69794" lon="8.96523"><ele>33.333333333333336</ele><time>2026-04-23T08:59:45.358Z</time></trkpt><trkpt lat="33.69801" lon="8.9653017"><ele>33.66666666666667</ele><time>2026-04-23T08:59:46.359Z</time></trkpt><trkpt lat="33.69808" lon="8.9653767"><ele>34.0</ele><time>2026-04-23T08:59:47.358Z</time></trkpt><trkpt lat="33.6981483" lon="8.9654533"><ele>34.0</ele><time>2026-04-23T08:59:48.359Z</time></trkpt><trkpt lat="33.6982083" lon="8.96553"><ele>34.0</ele><time>2026-04-23T08:59:49.358Z</time></trkpt><trkpt lat="33.69827" lon="8.9655967"><ele>34.0</ele><time>2026-04-23T08:59:50.359Z</time></trkpt><trkpt lat="33.6983283" lon="8.9656533"><ele>34.0</ele><time>2026-04-23T08:59:51.358Z</time></trkpt><trkpt lat="33.6983767" lon="8.96571"><ele>34.0</ele><time>2026-04-23T08:59:52.359Z</time></trkpt><trkpt lat="33.6984467" lon="8.9658"><ele>34.0</ele><time>2026-04-23T08:59:54.359Z</time></trkpt><trkpt lat="33.6985133" lon="8.96588"><ele>34.16666666666667</ele><time>2026-04-23T08:59:56.359Z</time></trkpt><trkpt lat="33.69858" lon="8.9659417"><ele>34.333333333333336</ele><time>2026-04-23T08:59:58.358Z</time></trkpt><trkpt lat="33.6986617" lon="8.96602"><ele>34.5</ele><time>2026-04-23T09:00:00.359Z</time></trkpt><trkpt lat="33.6987133" lon="8.96607"><ele>34.666666666666664</ele><time>2026-04-23T09:00:01.359Z</time></trkpt><trkpt lat="33.6987667" lon="8.9661267"><ele>34.83333333333333</ele><time>2026-04-23T09:00:02.358Z</time></trkpt><trkpt lat="33.6988233" lon="8.9661817"><ele>35.0</ele><time>2026-04-23T09:00:03.359Z</time></trkpt><trkpt lat="33.6988733" lon="8.966235"><ele>35.0</ele><time>2026-04-23T09:00:04.359Z</time></trkpt><trkpt lat="33.6989667" lon="8.9663183"><ele>35.0</ele><time>2026-04-23T09:00:06.358Z</time></trkpt><trkpt lat="33.6990633" lon="8.966305"><ele>35.0</ele><time>2026-04-23T09:00:08.358Z</time></trkpt><trkpt lat="33.6991533" lon="8.96623"><ele>35.0</ele><time>2026-04-23T09:00:10.358Z</time></trkpt><trkpt lat="33.6992" lon="8.9661733"><ele>35.0</ele><time>2026-04-23T09:00:11.358Z</time></trkpt><trkpt lat="33.6992433" lon="8.96611"><ele>35.0</ele><time>2026-04-23T09:00:12.359Z</time></trkpt><trkpt lat="33.69929" lon="8.96603"><ele>35.0</ele><time>2026-04-23T09:00:13.359Z</time></trkpt><trkpt lat="33.6993433" lon="8.9659533"><ele>35.0</ele><time>2026-04-23T09:00:14.358Z</time></trkpt><trkpt lat="33.6994033" lon="8.9658733"><ele>35.0</ele><time>2026-04-23T09:00:15.359Z</time></trkpt><trkpt lat="33.6994533" lon="8.9657883"><ele>35.0</ele><time>2026-04-23T09:00:16.359Z</time></trkpt><trkpt lat="33.6995033" lon="8.9656967"><ele>35.0</ele><time>2026-04-23T09:00:17.359Z</time></trkpt><trkpt lat="33.6995683" lon="8.9656183"><ele>35.2</ele><time>2026-04-23T09:00:18.358Z</time></trkpt><trkpt lat="33.6996333" lon="8.9655633"><ele>35.4</ele><time>2026-04-23T09:00:19.358Z</time></trkpt><trkpt lat="33.699705" lon="8.9654783"><ele>35.6</ele><time>2026-04-23T09:00:21.359Z</time></trkpt><trkpt lat="33.6997783" lon="8.9654167"><ele>35.8</ele><time>2026-04-23T09:00:23.359Z</time></trkpt><trkpt lat="33.69985" lon="8.96533"><ele>36.0</ele><time>2026-04-23T09:00:25.359Z</time></trkpt><trkpt lat="33.6999283" lon="8.96521"><ele>36.0</ele><time>2026-04-23T09:00:27.359Z</time></trkpt><trkpt lat="33.6999817" lon="8.9651383"><ele>36.0</ele><time>2026-04-23T09:00:28.358Z</time></trkpt><trkpt lat="33.7000417" lon="8.9650683"><ele>36.0</ele><time>2026-04-23T09:00:29.359Z</time></trkpt><trkpt lat="33.7001033" lon="8.965"><ele>36.0</ele><time>2026-04-23T09:00:30.359Z</time></trkpt><trkpt lat="33.7001667" lon="8.96492"><ele>36.0</ele><time>2026-04-23T09:00:31.358Z</time></trkpt><trkpt lat="33.70024" lon="8.9648583"><ele>36.0</ele><time>2026-04-23T09:00:32.358Z</time></trkpt><trkpt lat="33.7003183" lon="8.964785"><ele>35.8</ele><time>2026-04-23T09:00:33.358Z</time></trkpt><trkpt lat="33.7004" lon="8.9647067"><ele>35.6</ele><time>2026-04-23T09:00:34.359Z</time></trkpt><trkpt lat="33.7004783" lon="8.964625"><ele>35.4</ele><time>2026-04-23T09:00:35.358Z</time></trkpt><trkpt lat="33.7005583" lon="8.964535"><ele>35.2</ele><time>2026-04-23T09:00:36.358Z</time></trkpt><trkpt lat="33.7006433" lon="8.96446"><ele>35.0</ele><time>2026-04-23T09:00:37.358Z</time></trkpt><trkpt lat="33.7007283" lon="8.9643883"><ele>35.0</ele><time>2026-04-23T09:00:38.358Z</time></trkpt><trkpt lat="33.700815" lon="8.964295"><ele>35.0</ele><time>2026-04-23T09:00:39.359Z</time></trkpt><trkpt lat="33.700905" lon="8.9642117"><ele>35.0</ele><time>2026-04-23T09:00:40.358Z</time></trkpt><trkpt lat="33.7009967" lon="8.9641367"><ele>35.0</ele><time>2026-04-23T09:00:41.358Z</time></trkpt><trkpt lat="33.701085" lon="8.964055"><ele>34.8</ele><time>2026-04-23T09:00:42.358Z</time></trkpt><trkpt lat="33.701175" lon="8.9639783"><ele>34.6</ele><time>2026-04-23T09:00:43.359Z</time></trkpt><trkpt lat="33.701265" lon="8.9638883"><ele>34.4</ele><time>2026-04-23T09:00:44.358Z</time></trkpt><trkpt lat="33.7013567" lon="8.9638117"><ele>34.2</ele><time>2026-04-23T09:00:45.358Z</time></trkpt><trkpt lat="33.7014417" lon="8.9637317"><ele>34.0</ele><time>2026-04-23T09:00:46.359Z</time></trkpt><trkpt lat="33.7015383" lon="8.9636617"><ele>34.0</ele><time>2026-04-23T09:00:47.358Z</time></trkpt><trkpt lat="33.7016183" lon="8.9635783"><ele>34.0</ele><time>2026-04-23T09:00:48.358Z</time></trkpt><trkpt lat="33.7017" lon="8.963495"><ele>34.0</ele><time>2026-04-23T09:00:49.359Z</time></trkpt><trkpt lat="33.7017867" lon="8.9634217"><ele>34.0</ele><time>2026-04-23T09:00:50.359Z</time></trkpt><trkpt lat="33.7018783" lon="8.9633517"><ele>34.0</ele><time>2026-04-23T09:00:51.359Z</time></trkpt><trkpt lat="33.7019683" lon="8.9632717"><ele>33.8</ele><time>2026-04-23T09:00:52.358Z</time></trkpt><trkpt lat="33.7020517" lon="8.9631933"><ele>33.599999999999994</ele><time>2026-04-23T09:00:53.358Z</time></trkpt><trkpt lat="33.7021483" lon="8.9631217"><ele>33.4</ele><time>2026-04-23T09:00:54.358Z</time></trkpt><trkpt lat="33.70223" lon="8.9630517"><ele>33.199999999999996</ele><time>2026-04-23T09:00:55.359Z</time></trkpt><trkpt lat="33.7023083" lon="8.9629733"><ele>33.0</ele><time>2026-04-23T09:00:56.359Z</time></trkpt><trkpt lat="33.7024017" lon="8.96289"><ele>33.0</ele><time>2026-04-23T09:00:57.359Z</time></trkpt><trkpt lat="33.70249" lon="8.9628083"><ele>33.0</ele><time>2026-04-23T09:00:58.358Z</time></trkpt><trkpt lat="33.7025867" lon="8.9627233"><ele>33.0</ele><time>2026-04-23T09:00:59.359Z</time></trkpt><trkpt lat="33.7026783" lon="8.9626433"><ele>33.0</ele><time>2026-04-23T09:01:00.359Z</time></trkpt><trkpt lat="33.702765" lon="8.962555"><ele>33.0</ele><time>2026-04-23T09:01:01.359Z</time></trkpt><trkpt lat="33.70285" lon="8.9624633"><ele>33.0</ele><time>2026-04-23T09:01:02.358Z</time></trkpt><trkpt lat="33.702935" lon="8.9623867"><ele>33.0</ele><time>2026-04-23T09:01:03.359Z</time></trkpt><trkpt lat="33.70303" lon="8.9623033"><ele>33.0</ele><time>2026-04-23T09:01:04.358Z</time></trkpt><trkpt lat="33.703115" lon="8.9621983"><ele>33.0</ele><time>2026-04-23T09:01:05.358Z</time></trkpt><trkpt lat="33.703205" lon="8.9621083"><ele>33.0</ele><time>2026-04-23T09:01:06.358Z</time></trkpt><trkpt lat="33.7033033" lon="8.96203"><ele>33.0</ele><time>2026-04-23T09:01:07.358Z</time></trkpt><trkpt lat="33.7034017" lon="8.9619483"><ele>33.0</ele><time>2026-04-23T09:01:08.358Z</time></trkpt><trkpt lat="33.7035067" lon="8.9618633"><ele>33.0</ele><time>2026-04-23T09:01:09.359Z</time></trkpt><trkpt lat="33.703615" lon="8.96177"><ele>33.0</ele><time>2026-04-23T09:01:10.359Z</time></trkpt><trkpt lat="33.7037333" lon="8.9616733"><ele>33.0</ele><time>2026-04-23T09:01:11.358Z</time></trkpt><trkpt lat="33.703835" lon="8.9615767"><ele>33.0</ele><time>2026-04-23T09:01:12.359Z</time></trkpt><trkpt lat="33.7039433" lon="8.9614717"><ele>32.75</ele><time>2026-04-23T09:01:13.359Z</time></trkpt><trkpt lat="33.7040383" lon="8.961375"><ele>32.5</ele><time>2026-04-23T09:01:14.359Z</time></trkpt><trkpt lat="33.7041383" lon="8.9612933"><ele>32.25</ele><time>2026-04-23T09:01:15.359Z</time></trkpt><trkpt lat="33.7042367" lon="8.9612183"><ele>32.0</ele><time>2026-04-23T09:01:16.358Z</time></trkpt><trkpt lat="33.704315" lon="8.96113"><ele>32.0</ele><time>2026-04-23T09:01:17.359Z</time></trkpt><trkpt lat="33.7044083" lon="8.9610533"><ele>32.0</ele><time>2026-04-23T09:01:18.359Z</time></trkpt><trkpt lat="33.70451" lon="8.9609817"><ele>32.0</ele><time>2026-04-23T09:01:19.358Z</time></trkpt><trkpt lat="33.7046133" lon="8.960905"><ele>32.0</ele><time>2026-04-23T09:01:20.358Z</time></trkpt><trkpt lat="33.7047033" lon="8.9608267"><ele>31.25</ele><time>2026-04-23T09:01:21.359Z</time></trkpt><trkpt lat="33.7047917" lon="8.9607417"><ele>30.5</ele><time>2026-04-23T09:01:22.358Z</time></trkpt><trkpt lat="33.704885" lon="8.9606633"><ele>29.75</ele><time>2026-04-23T09:01:23.359Z</time></trkpt><trkpt lat="33.7049717" lon="8.9605817"><ele>29.0</ele><time>2026-04-23T09:01:24.359Z</time></trkpt><trkpt lat="33.705065" lon="8.9604933"><ele>29.0</ele><time>2026-04-23T09:01:25.359Z</time></trkpt><trkpt lat="33.7051683" lon="8.96041"><ele>29.0</ele><time>2026-04-23T09:01:26.359Z</time></trkpt><trkpt lat="33.70528" lon="8.9603433"><ele>29.0</ele><time>2026-04-23T09:01:27.359Z</time></trkpt><trkpt lat="33.7053717" lon="8.96025"><ele>29.0</ele><time>2026-04-23T09:01:28.359Z</time></trkpt><trkpt lat="33.70548" lon="8.9601733"><ele>29.25</ele><time>2026-04-23T09:01:29.358Z</time></trkpt><trkpt lat="33.705585" lon="8.9600833"><ele>29.5</ele><time>2026-04-23T09:01:30.358Z</time></trkpt><trkpt lat="33.7056917" lon="8.95999"><ele>29.75</ele><time>2026-04-23T09:01:31.359Z</time></trkpt><trkpt lat="33.70579" lon="8.9598983"><ele>30.0</ele><time>2026-04-23T09:01:32.359Z</time></trkpt><trkpt lat="33.7058783" lon="8.959815"><ele>30.0</ele><time>2026-04-23T09:01:33.358Z</time></trkpt><trkpt lat="33.7059533" lon="8.9597417"><ele>30.0</ele><time>2026-04-23T09:01:34.358Z</time></trkpt><trkpt lat="33.7060267" lon="8.9596817"><ele>30.0</ele><time>2026-04-23T09:01:35.358Z</time></trkpt><trkpt lat="33.7060933" lon="8.9596333"><ele>30.0</ele><time>2026-04-23T09:01:36.359Z</time></trkpt><trkpt lat="33.7061517" lon="8.9595867"><ele>30.0</ele><time>2026-04-23T09:01:37.359Z</time></trkpt><trkpt lat="33.7062267" lon="8.9595283"><ele>30.0</ele><time>2026-04-23T09:01:39.359Z</time></trkpt><trkpt lat="33.706295" lon="8.9595183"><ele>30.0</ele><time>2026-04-23T09:01:53.359Z</time></trkpt><trkpt lat="33.70637" lon="8.959465"><ele>30.0</ele><time>2026-04-23T09:01:59.358Z</time></trkpt><trkpt lat="33.706425" lon="8.9593083"><ele>30.0</ele><time>2026-04-23T09:02:01.358Z</time></trkpt><trkpt lat="33.70644" lon="8.9592167"><ele>30.0</ele><time>2026-04-23T09:02:02.358Z</time></trkpt><trkpt lat="33.7064533" lon="8.9591133"><ele>30.0</ele><time>2026-04-23T09:02:03.359Z</time></trkpt><trkpt lat="33.7064733" lon="8.959005"><ele>30.2</ele><time>2026-04-23T09:02:04.359Z</time></trkpt><trkpt lat="33.7064983" lon="8.9588933"><ele>30.4</ele><time>2026-04-23T09:02:05.359Z</time></trkpt><trkpt lat="33.7065267" lon="8.9587717"><ele>30.6</ele><time>2026-04-23T09:02:06.358Z</time></trkpt><trkpt lat="33.7065533" lon="8.9586433"><ele>30.8</ele><time>2026-04-23T09:02:07.359Z</time></trkpt><trkpt lat="33.7065833" lon="8.95852"><ele>31.0</ele><time>2026-04-23T09:02:08.358Z</time></trkpt><trkpt lat="33.7066" lon="8.9583983"><ele>30.6</ele><time>2026-04-23T09:02:09.359Z</time></trkpt><trkpt lat="33.70661" lon="8.95827"><ele>30.200000000000003</ele><time>2026-04-23T09:02:10.359Z</time></trkpt><trkpt lat="33.7066333" lon="8.95814"><ele>29.799999999999997</ele><time>2026-04-23T09:02:11.359Z</time></trkpt><trkpt lat="33.706655" lon="8.9580117"><ele>29.4</ele><time>2026-04-23T09:02:12.359Z</time></trkpt><trkpt lat="33.7066767" lon="8.9578833"><ele>29.0</ele><time>2026-04-23T09:02:13.358Z</time></trkpt><trkpt lat="33.7066917" lon="8.9577783"><ele>29.0</ele><time>2026-04-23T09:02:14.359Z</time></trkpt><trkpt lat="33.70671" lon="8.9576583"><ele>29.0</ele><time>2026-04-23T09:02:15.359Z</time></trkpt><trkpt lat="33.706725" lon="8.95754"><ele>29.0</ele><time>2026-04-23T09:02:16.358Z</time></trkpt><trkpt lat="33.7067483" lon="8.957415"><ele>29.0</ele><time>2026-04-23T09:02:17.358Z</time></trkpt><trkpt lat="33.706775" lon="8.9572883"><ele>29.0</ele><time>2026-04-23T09:02:18.358Z</time></trkpt><trkpt lat="33.7068083" lon="8.9571583"><ele>29.0</ele><time>2026-04-23T09:02:19.359Z</time></trkpt><trkpt lat="33.7068317" lon="8.95702"><ele>29.0</ele><time>2026-04-23T09:02:20.358Z</time></trkpt><trkpt lat="33.706855" lon="8.9568867"><ele>29.0</ele><time>2026-04-23T09:02:21.358Z</time></trkpt><trkpt lat="33.7068783" lon="8.9567517"><ele>29.0</ele><time>2026-04-23T09:02:22.359Z</time></trkpt><trkpt lat="33.7068933" lon="8.9566167"><ele>28.25</ele><time>2026-04-23T09:02:23.358Z</time></trkpt><trkpt lat="33.7069133" lon="8.9564767"><ele>27.5</ele><time>2026-04-23T09:02:24.358Z</time></trkpt><trkpt lat="33.7069333" lon="8.9563383"><ele>26.75</ele><time>2026-04-23T09:02:25.358Z</time></trkpt><trkpt lat="33.70695" lon="8.9561983"><ele>26.0</ele><time>2026-04-23T09:02:26.358Z</time></trkpt><trkpt lat="33.7069717" lon="8.956055"><ele>26.0</ele><time>2026-04-23T09:02:27.358Z</time></trkpt><trkpt lat="33.706995" lon="8.9559283"><ele>26.0</ele><time>2026-04-23T09:02:28.359Z</time></trkpt><trkpt lat="33.70702" lon="8.9557917"><ele>26.0</ele><time>2026-04-23T09:02:29.358Z</time></trkpt><trkpt lat="33.7070367" lon="8.9556517"><ele>26.0</ele><time>2026-04-23T09:02:30.358Z</time></trkpt><trkpt lat="33.707055" lon="8.955515"><ele>26.0</ele><time>2026-04-23T09:02:31.358Z</time></trkpt><trkpt lat="33.70708" lon="8.95538"><ele>26.0</ele><time>2026-04-23T09:02:32.359Z</time></trkpt><trkpt lat="33.707105" lon="8.95524"><ele>26.0</ele><time>2026-04-23T09:02:33.358Z</time></trkpt><trkpt lat="33.70712" lon="8.9551017"><ele>26.0</ele><time>2026-04-23T09:02:34.359Z</time></trkpt><trkpt lat="33.70715" lon="8.9549667"><ele>26.0</ele><time>2026-04-23T09:02:35.358Z</time></trkpt><trkpt lat="33.7071783" lon="8.9548267"><ele>26.0</ele><time>2026-04-23T09:02:36.358Z</time></trkpt><trkpt lat="33.7072017" lon="8.9546733"><ele>26.0</ele><time>2026-04-23T09:02:37.358Z</time></trkpt><trkpt lat="33.7072283" lon="8.95452"><ele>26.0</ele><time>2026-04-23T09:02:38.359Z</time></trkpt><trkpt lat="33.707255" lon="8.9543667"><ele>26.0</ele><time>2026-04-23T09:02:39.358Z</time></trkpt><trkpt lat="33.7072767" lon="8.9542167"><ele>26.0</ele><time>2026-04-23T09:02:40.359Z</time></trkpt><trkpt lat="33.70729" lon="8.95407"><ele>26.0</ele><time>2026-04-23T09:02:41.359Z</time></trkpt><trkpt lat="33.7073067" lon="8.953915"><ele>26.0</ele><time>2026-04-23T09:02:42.359Z</time></trkpt><trkpt lat="33.7073333" lon="8.9537567"><ele>26.25</ele><time>2026-04-23T09:02:43.358Z</time></trkpt><trkpt lat="33.7073567" lon="8.9535967"><ele>26.5</ele><time>2026-04-23T09:02:44.358Z</time></trkpt><trkpt lat="33.7073767" lon="8.9534367"><ele>26.75</ele><time>2026-04-23T09:02:45.358Z</time></trkpt><trkpt lat="33.7073933" lon="8.9532767"><ele>27.0</ele><time>2026-04-23T09:02:46.359Z</time></trkpt><trkpt lat="33.70742" lon="8.95312"><ele>27.0</ele><time>2026-04-23T09:02:47.358Z</time></trkpt><trkpt lat="33.7074467" lon="8.9529617"><ele>27.0</ele><time>2026-04-23T09:02:48.358Z</time></trkpt><trkpt lat="33.7074733" lon="8.9527917"><ele>27.0</ele><time>2026-04-23T09:02:49.359Z</time></trkpt><trkpt lat="33.7075017" lon="8.9526233"><ele>27.0</ele><time>2026-04-23T09:02:50.358Z</time></trkpt><trkpt lat="33.7075333" lon="8.952465"><ele>27.0</ele><time>2026-04-23T09:02:51.358Z</time></trkpt><trkpt lat="33.707565" lon="8.9523083"><ele>27.0</ele><time>2026-04-23T09:02:52.358Z</time></trkpt><trkpt lat="33.7075933" lon="8.9521617"><ele>27.0</ele><time>2026-04-23T09:02:53.358Z</time></trkpt><trkpt lat="33.7076217" lon="8.9520233"><ele>27.0</ele><time>2026-04-23T09:02:54.358Z</time></trkpt><trkpt lat="33.7076433" lon="8.9518983"><ele>27.0</ele><time>2026-04-23T09:02:55.359Z</time></trkpt><trkpt lat="33.707655" lon="8.9517817"><ele>27.000000000000004</ele><time>2026-04-23T09:02:56.358Z</time></trkpt><trkpt lat="33.7076667" lon="8.95168"><ele>27.000000000000004</ele><time>2026-04-23T09:02:57.358Z</time></trkpt><trkpt lat="33.7076817" lon="8.9515717"><ele>27.0</ele><time>2026-04-23T09:02:58.358Z</time></trkpt><trkpt lat="33.7076967" lon="8.9514583"><ele>27.0</ele><time>2026-04-23T09:02:59.358Z</time></trkpt><trkpt lat="33.7077217" lon="8.95134"><ele>27.0</ele><time>2026-04-23T09:03:00.359Z</time></trkpt><trkpt lat="33.7077417" lon="8.95121"><ele>27.0</ele><time>2026-04-23T09:03:01.359Z</time></trkpt><trkpt lat="33.70776" lon="8.951075"><ele>27.0</ele><time>2026-04-23T09:03:02.358Z</time></trkpt><trkpt lat="33.7077783" lon="8.9509317"><ele>27.0</ele><time>2026-04-23T09:03:03.358Z</time></trkpt><trkpt lat="33.7078017" lon="8.9507883"><ele>25.5</ele><time>2026-04-23T09:03:04.358Z</time></trkpt><trkpt lat="33.7078217" lon="8.9506383"><ele>24.0</ele><time>2026-04-23T09:03:05.358Z</time></trkpt><trkpt lat="33.7078467" lon="8.9504817"><ele>22.5</ele><time>2026-04-23T09:03:06.359Z</time></trkpt><trkpt lat="33.707875" lon="8.9503217"><ele>21.0</ele><time>2026-04-23T09:03:07.358Z</time></trkpt><trkpt lat="33.7078983" lon="8.9501483"><ele>21.333333333333332</ele><time>2026-04-23T09:03:08.359Z</time></trkpt><trkpt lat="33.7079233" lon="8.94997"><ele>21.666666666666664</ele><time>2026-04-23T09:03:09.359Z</time></trkpt><trkpt lat="33.707955" lon="8.9497883"><ele>22.0</ele><time>2026-04-23T09:03:10.359Z</time></trkpt><trkpt lat="33.7079833" lon="8.9496067"><ele>22.0</ele><time>2026-04-23T09:03:11.359Z</time></trkpt><trkpt lat="33.7080117" lon="8.9494267"><ele>22.0</ele><time>2026-04-23T09:03:12.359Z</time></trkpt><trkpt lat="33.708045" lon="8.9492467"><ele>22.0</ele><time>2026-04-23T09:03:13.359Z</time></trkpt><trkpt lat="33.7080733" lon="8.9490667"><ele>23.0</ele><time>2026-04-23T09:03:14.358Z</time></trkpt><trkpt lat="33.7081067" lon="8.9488717"><ele>24.0</ele><time>2026-04-23T09:03:15.358Z</time></trkpt><trkpt lat="33.708135" lon="8.9486783"><ele>25.0</ele><time>2026-04-23T09:03:16.358Z</time></trkpt><trkpt lat="33.7081633" lon="8.9484867"><ele>25.0</ele><time>2026-04-23T09:03:17.358Z</time></trkpt><trkpt lat="33.7082" lon="8.94828"><ele>25.0</ele><time>2026-04-23T09:03:18.358Z</time></trkpt><trkpt lat="33.7082283" lon="8.9480833"><ele>25.0</ele><time>2026-04-23T09:03:19.358Z</time></trkpt><trkpt lat="33.7082567" lon="8.94788"><ele>25.0</ele><time>2026-04-23T09:03:20.358Z</time></trkpt><trkpt lat="33.70829" lon="8.9476767"><ele>25.0</ele><time>2026-04-23T09:03:21.359Z</time></trkpt><trkpt lat="33.7083267" lon="8.94747"><ele>25.0</ele><time>2026-04-23T09:03:22.359Z</time></trkpt><trkpt lat="33.7083667" lon="8.9472633"><ele>25.0</ele><time>2026-04-23T09:03:23.358Z</time></trkpt><trkpt lat="33.7083983" lon="8.94705"><ele>25.0</ele><time>2026-04-23T09:03:24.359Z</time></trkpt><trkpt lat="33.7084267" lon="8.9468333"><ele>25.0</ele><time>2026-04-23T09:03:25.358Z</time></trkpt><trkpt lat="33.708455" lon="8.9466183"><ele>25.0</ele><time>2026-04-23T09:03:26.358Z</time></trkpt><trkpt lat="33.7084917" lon="8.9463967"><ele>25.0</ele><time>2026-04-23T09:03:27.359Z</time></trkpt><trkpt lat="33.7085233" lon="8.9461633"><ele>25.0</ele><time>2026-04-23T09:03:28.358Z</time></trkpt><trkpt lat="33.7085583" lon="8.9459333"><ele>24.0</ele><time>2026-04-23T09:03:29.358Z</time></trkpt><trkpt lat="33.70859" lon="8.9457033"><ele>23.0</ele><time>2026-04-23T09:03:30.359Z</time></trkpt><trkpt lat="33.7086217" lon="8.9454733"><ele>22.0</ele><time>2026-04-23T09:03:31.359Z</time></trkpt><trkpt lat="33.7086567" lon="8.9452417"><ele>23.333333333333332</ele><time>2026-04-23T09:03:32.358Z</time></trkpt><trkpt lat="33.7086933" lon="8.9450017"><ele>24.666666666666664</ele><time>2026-04-23T09:03:33.359Z</time></trkpt><trkpt lat="33.7087333" lon="8.9447633"><ele>26.0</ele><time>2026-04-23T09:03:34.358Z</time></trkpt><trkpt lat="33.7087817" lon="8.9445267"><ele>26.0</ele><time>2026-04-23T09:03:35.358Z</time></trkpt><trkpt lat="33.7088183" lon="8.9442867"><ele>26.0</ele><time>2026-04-23T09:03:36.358Z</time></trkpt><trkpt lat="33.7088517" lon="8.9440483"><ele>26.0</ele><time>2026-04-23T09:03:37.359Z</time></trkpt><trkpt lat="33.7088867" lon="8.9438067"><ele>25.333333333333332</ele><time>2026-04-23T09:03:38.359Z</time></trkpt><trkpt lat="33.708925" lon="8.9435733"><ele>24.666666666666664</ele><time>2026-04-23T09:03:39.358Z</time></trkpt><trkpt lat="33.7089583" lon="8.9433417"><ele>24.0</ele><time>2026-04-23T09:03:40.358Z</time></trkpt><trkpt lat="33.7089917" lon="8.9431217"><ele>24.0</ele><time>2026-04-23T09:03:41.358Z</time></trkpt><trkpt lat="33.7090283" lon="8.9429083"><ele>24.0</ele><time>2026-04-23T09:03:42.358Z</time></trkpt><trkpt lat="33.70906" lon="8.94269"><ele>24.0</ele><time>2026-04-23T09:03:43.358Z</time></trkpt><trkpt lat="33.709095" lon="8.9424683"><ele>23.666666666666668</ele><time>2026-04-23T09:03:44.358Z</time></trkpt><trkpt lat="33.7091217" lon="8.9422467"><ele>23.333333333333336</ele><time>2026-04-23T09:03:45.359Z</time></trkpt><trkpt lat="33.70916" lon="8.942015"><ele>23.0</ele><time>2026-04-23T09:03:46.358Z</time></trkpt><trkpt lat="33.7092033" lon="8.94178"><ele>22.666666666666668</ele><time>2026-04-23T09:03:47.359Z</time></trkpt><trkpt lat="33.7092417" lon="8.941545"><ele>22.333333333333332</ele><time>2026-04-23T09:03:48.359Z</time></trkpt><trkpt lat="33.7092867" lon="8.9413033"><ele>22.0</ele><time>2026-04-23T09:03:49.359Z</time></trkpt><trkpt lat="33.7093233" lon="8.9410683"><ele>22.333333333333332</ele><time>2026-04-23T09:03:50.359Z</time></trkpt><trkpt lat="33.7093633" lon="8.9408283"><ele>22.666666666666668</ele><time>2026-04-23T09:03:51.359Z</time></trkpt><trkpt lat="33.7094067" lon="8.940585"><ele>23.0</ele><time>2026-04-23T09:03:52.358Z</time></trkpt><trkpt lat="33.709445" lon="8.9403433"><ele>23.0</ele><time>2026-04-23T09:03:53.359Z</time></trkpt><trkpt lat="33.709485" lon="8.9401033"><ele>23.0</ele><time>2026-04-23T09:03:54.359Z</time></trkpt><trkpt lat="33.7095217" lon="8.9398617"><ele>23.0</ele><time>2026-04-23T09:03:55.359Z</time></trkpt><trkpt lat="33.70956" lon="8.9396117"><ele>22.666666666666668</ele><time>2026-04-23T09:03:56.359Z</time></trkpt><trkpt lat="33.7095967" lon="8.9393617"><ele>22.333333333333332</ele><time>2026-04-23T09:03:57.358Z</time></trkpt><trkpt lat="33.709635" lon="8.9391083"><ele>22.0</ele><time>2026-04-23T09:03:58.359Z</time></trkpt><trkpt lat="33.7096767" lon="8.9388617"><ele>22.0</ele><time>2026-04-23T09:03:59.359Z</time></trkpt><trkpt lat="33.7097183" lon="8.9386117"><ele>22.0</ele><time>2026-04-23T09:04:00.359Z</time></trkpt><trkpt lat="33.7097633" lon="8.9383583"><ele>22.0</ele><time>2026-04-23T09:04:01.358Z</time></trkpt><trkpt lat="33.7098117" lon="8.9380967"><ele>22.666666666666664</ele><time>2026-04-23T09:04:02.359Z</time></trkpt><trkpt lat="33.70986" lon="8.9378367"><ele>23.333333333333332</ele><time>2026-04-23T09:04:03.359Z</time></trkpt><trkpt lat="33.709905" lon="8.9375733"><ele>24.0</ele><time>2026-04-23T09:04:04.358Z</time></trkpt><trkpt lat="33.7099467" lon="8.93731"><ele>24.666666666666664</ele><time>2026-04-23T09:04:05.358Z</time></trkpt><trkpt lat="33.70999" lon="8.9370467"><ele>25.333333333333332</ele><time>2026-04-23T09:04:06.359Z</time></trkpt><trkpt lat="33.7100333" lon="8.9367817"><ele>26.0</ele><time>2026-04-23T09:04:07.358Z</time></trkpt><trkpt lat="33.710075" lon="8.9365133"><ele>24.666666666666664</ele><time>2026-04-23T09:04:08.358Z</time></trkpt><trkpt lat="33.710115" lon="8.9362583"><ele>23.333333333333332</ele><time>2026-04-23T09:04:09.358Z</time></trkpt><trkpt lat="33.7101533" lon="8.936"><ele>22.0</ele><time>2026-04-23T09:04:10.358Z</time></trkpt><trkpt lat="33.7101883" lon="8.935745"><ele>21.666666666666664</ele><time>2026-04-23T09:04:11.359Z</time></trkpt><trkpt lat="33.71023" lon="8.9354867"><ele>21.333333333333332</ele><time>2026-04-23T09:04:12.358Z</time></trkpt><trkpt lat="33.7102717" lon="8.9352283"><ele>21.0</ele><time>2026-04-23T09:04:13.359Z</time></trkpt><trkpt lat="33.7103133" lon="8.9349667"><ele>22.0</ele><time>2026-04-23T09:04:14.358Z</time></trkpt><trkpt lat="33.7103583" lon="8.93471"><ele>23.0</ele><time>2026-04-23T09:04:15.359Z</time></trkpt><trkpt lat="33.710405" lon="8.9344483"><ele>24.0</ele><time>2026-04-23T09:04:16.358Z</time></trkpt><trkpt lat="33.7104483" lon="8.9341817"><ele>24.0</ele><time>2026-04-23T09:04:17.359Z</time></trkpt><trkpt lat="33.7104867" lon="8.9339217"><ele>24.0</ele><time>2026-04-23T09:04:18.359Z</time></trkpt><trkpt lat="33.7105267" lon="8.933655"><ele>24.0</ele><time>2026-04-23T09:04:19.358Z</time></trkpt><trkpt lat="33.7105717" lon="8.9333917"><ele>23.333333333333332</ele><time>2026-04-23T09:04:20.359Z</time></trkpt><trkpt lat="33.71061" lon="8.9331233"><ele>22.666666666666664</ele><time>2026-04-23T09:04:21.359Z</time></trkpt><trkpt lat="33.71065" lon="8.93286"><ele>22.0</ele><time>2026-04-23T09:04:22.358Z</time></trkpt><trkpt lat="33.71069" lon="8.932595"><ele>22.333333333333332</ele><time>2026-04-23T09:04:23.358Z</time></trkpt><trkpt lat="33.71073" lon="8.9323283"><ele>22.666666666666668</ele><time>2026-04-23T09:04:24.358Z</time></trkpt><trkpt lat="33.7107733" lon="8.9320667"><ele>23.0</ele><time>2026-04-23T09:04:25.359Z</time></trkpt><trkpt lat="33.71082" lon="8.9318"><ele>23.0</ele><time>2026-04-23T09:04:26.359Z</time></trkpt><trkpt lat="33.7108617" lon="8.9315317"><ele>23.0</ele><time>2026-04-23T09:04:27.358Z</time></trkpt><trkpt lat="33.7109017" lon="8.931265"><ele>23.0</ele><time>2026-04-23T09:04:28.359Z</time></trkpt><trkpt lat="33.7109433" lon="8.9309983"><ele>23.0</ele><time>2026-04-23T09:04:29.359Z</time></trkpt><trkpt lat="33.7109867" lon="8.930735"><ele>23.0</ele><time>2026-04-23T09:04:30.359Z</time></trkpt><trkpt lat="33.7110417" lon="8.9304733"><ele>23.0</ele><time>2026-04-23T09:04:31.359Z</time></trkpt><trkpt lat="33.7110983" lon="8.9302133"><ele>23.0</ele><time>2026-04-23T09:04:32.359Z</time></trkpt><trkpt lat="33.711175" lon="8.929965"><ele>23.0</ele><time>2026-04-23T09:04:33.357Z</time></trkpt><trkpt lat="33.7112583" lon="8.9297167"><ele>23.5</ele><time>2026-04-23T09:04:34.358Z</time></trkpt><trkpt lat="33.7113533" lon="8.9294733"><ele>24.0</ele><time>2026-04-23T09:04:35.357Z</time></trkpt><trkpt lat="33.71146" lon="8.9292333"><ele>23.333333333333332</ele><time>2026-04-23T09:04:36.357Z</time></trkpt><trkpt lat="33.7115733" lon="8.9289983"><ele>22.666666666666664</ele><time>2026-04-23T09:04:37.358Z</time></trkpt><trkpt lat="33.7116967" lon="8.9287783"><ele>22.0</ele><time>2026-04-23T09:04:38.358Z</time></trkpt><trkpt lat="33.7118333" lon="8.92857"><ele>23.333333333333332</ele><time>2026-04-23T09:04:39.357Z</time></trkpt><trkpt lat="33.711975" lon="8.928365"><ele>24.666666666666664</ele><time>2026-04-23T09:04:40.357Z</time></trkpt><trkpt lat="33.7121233" lon="8.9281683"><ele>26.0</ele><time>2026-04-23T09:04:41.358Z</time></trkpt><trkpt lat="33.7122683" lon="8.927975"><ele>26.0</ele><time>2026-04-23T09:04:42.357Z</time></trkpt><trkpt lat="33.7124167" lon="8.9277817"><ele>26.0</ele><time>2026-04-23T09:04:43.357Z</time></trkpt><trkpt lat="33.7125633" lon="8.9275867"><ele>26.0</ele><time>2026-04-23T09:04:44.357Z</time></trkpt><trkpt lat="33.712715" lon="8.9273933"><ele>25.666666666666664</ele><time>2026-04-23T09:04:45.358Z</time></trkpt><trkpt lat="33.7128633" lon="8.9272117"><ele>25.333333333333336</ele><time>2026-04-23T09:04:46.358Z</time></trkpt><trkpt lat="33.71301" lon="8.927035"><ele>25.0</ele><time>2026-04-23T09:04:47.357Z</time></trkpt><trkpt lat="33.7131567" lon="8.9268633"><ele>25.666666666666668</ele><time>2026-04-23T09:04:48.358Z</time></trkpt><trkpt lat="33.71329" lon="8.9266917"><ele>26.333333333333336</ele><time>2026-04-23T09:04:49.357Z</time></trkpt><trkpt lat="33.7134067" lon="8.9265083"><ele>27.0</ele><time>2026-04-23T09:04:50.357Z</time></trkpt><trkpt lat="33.7135317" lon="8.9263367"><ele>27.0</ele><time>2026-04-23T09:04:51.358Z</time></trkpt><trkpt lat="33.713645" lon="8.9261583"><ele>27.0</ele><time>2026-04-23T09:04:52.358Z</time></trkpt><trkpt lat="33.713745" lon="8.9259783"><ele>27.0</ele><time>2026-04-23T09:04:53.358Z</time></trkpt><trkpt lat="33.7138517" lon="8.9257983"><ele>27.0</ele><time>2026-04-23T09:04:54.357Z</time></trkpt><trkpt lat="33.7139783" lon="8.9256233"><ele>27.0</ele><time>2026-04-23T09:04:55.357Z</time></trkpt><trkpt lat="33.7141017" lon="8.9254733"><ele>27.0</ele><time>2026-04-23T09:04:56.358Z</time></trkpt><trkpt lat="33.7142217" lon="8.9253233"><ele>27.0</ele><time>2026-04-23T09:04:57.357Z</time></trkpt><trkpt lat="33.71433" lon="8.9251683"><ele>27.0</ele><time>2026-04-23T09:04:58.358Z</time></trkpt><trkpt lat="33.714425" lon="8.92501"><ele>27.0</ele><time>2026-04-23T09:04:59.358Z</time></trkpt><trkpt lat="33.7144967" lon="8.9248383"><ele>27.0</ele><time>2026-04-23T09:05:00.357Z</time></trkpt><trkpt lat="33.7145467" lon="8.9246517"><ele>27.0</ele><time>2026-04-23T09:05:01.358Z</time></trkpt><trkpt lat="33.7145883" lon="8.9244783"><ele>27.0</ele><time>2026-04-23T09:05:02.357Z</time></trkpt><trkpt lat="33.71462" lon="8.9243033"><ele>26.75</ele><time>2026-04-23T09:05:03.357Z</time></trkpt><trkpt lat="33.7146467" lon="8.9241167"><ele>26.5</ele><time>2026-04-23T09:05:04.358Z</time></trkpt><trkpt lat="33.71467" lon="8.9239433"><ele>26.25</ele><time>2026-04-23T09:05:05.358Z</time></trkpt><trkpt lat="33.714685" lon="8.92377"><ele>26.0</ele><time>2026-04-23T09:05:06.358Z</time></trkpt><trkpt lat="33.7147183" lon="8.92359"><ele>26.0</ele><time>2026-04-23T09:05:07.358Z</time></trkpt><trkpt lat="33.714745" lon="8.9234117"><ele>26.0</ele><time>2026-04-23T09:05:08.358Z</time></trkpt><trkpt lat="33.7147833" lon="8.9232433"><ele>26.0</ele><time>2026-04-23T09:05:09.357Z</time></trkpt><trkpt lat="33.7148117" lon="8.9230767"><ele>26.0</ele><time>2026-04-23T09:05:10.358Z</time></trkpt><trkpt lat="33.714825" lon="8.92292"><ele>25.8</ele><time>2026-04-23T09:05:11.358Z</time></trkpt><trkpt lat="33.7148267" lon="8.9227833"><ele>25.6</ele><time>2026-04-23T09:05:12.358Z</time></trkpt><trkpt lat="33.7147967" lon="8.92267"><ele>25.4</ele><time>2026-04-23T09:05:13.358Z</time></trkpt><trkpt lat="33.7147433" lon="8.9225733"><ele>25.2</ele><time>2026-04-23T09:05:14.358Z</time></trkpt><trkpt lat="33.7146733" lon="8.922495"><ele>25.0</ele><time>2026-04-23T09:05:15.357Z</time></trkpt><trkpt lat="33.7145833" lon="8.9224233"><ele>25.0</ele><time>2026-04-23T09:05:16.357Z</time></trkpt><trkpt lat="33.714485" lon="8.9223567"><ele>25.0</ele><time>2026-04-23T09:05:17.357Z</time></trkpt><trkpt lat="33.7143917" lon="8.9222933"><ele>25.0</ele><time>2026-04-23T09:05:18.358Z</time></trkpt><trkpt lat="33.7142933" lon="8.9222217"><ele>25.0</ele><time>2026-04-23T09:05:19.357Z</time></trkpt><trkpt lat="33.71419" lon="8.922145"><ele>25.75</ele><time>2026-04-23T09:05:20.357Z</time></trkpt><trkpt lat="33.7141" lon="8.92206"><ele>26.5</ele><time>2026-04-23T09:05:21.358Z</time></trkpt><trkpt lat="33.7140083" lon="8.921965"><ele>27.25</ele><time>2026-04-23T09:05:22.358Z</time></trkpt><trkpt lat="33.713945" lon="8.92185"><ele>28.0</ele><time>2026-04-23T09:05:23.357Z</time></trkpt><trkpt lat="33.713895" lon="8.921725"><ele>28.0</ele><time>2026-04-23T09:05:24.358Z</time></trkpt><trkpt lat="33.7138583" lon="8.9215917"><ele>28.0</ele><time>2026-04-23T09:05:25.357Z</time></trkpt><trkpt lat="33.713835" lon="8.9214533"><ele>28.0</ele><time>2026-04-23T09:05:26.358Z</time></trkpt><trkpt lat="33.7138133" lon="8.92132"><ele>28.0</ele><time>2026-04-23T09:05:27.357Z</time></trkpt><trkpt lat="33.713795" lon="8.9211967"><ele>28.0</ele><time>2026-04-23T09:05:28.358Z</time></trkpt><trkpt lat="33.713775" lon="8.9210717"><ele>28.0</ele><time>2026-04-23T09:05:29.357Z</time></trkpt><trkpt lat="33.7137533" lon="8.92094"><ele>28.0</ele><time>2026-04-23T09:05:30.357Z</time></trkpt><trkpt lat="33.7137367" lon="8.9207983"><ele>28.0</ele><time>2026-04-23T09:05:31.357Z</time></trkpt><trkpt lat="33.7137167" lon="8.920655"><ele>28.75</ele><time>2026-04-23T09:05:32.357Z</time></trkpt><trkpt lat="33.7137033" lon="8.920515"><ele>29.5</ele><time>2026-04-23T09:05:33.358Z</time></trkpt><trkpt lat="33.7137017" lon="8.92037"><ele>30.25</ele><time>2026-04-23T09:05:34.357Z</time></trkpt><trkpt lat="33.7137167" lon="8.9202167"><ele>31.0</ele><time>2026-04-23T09:05:35.357Z</time></trkpt><trkpt lat="33.71375" lon="8.9200667"><ele>31.25</ele><time>2026-04-23T09:05:36.358Z</time></trkpt><trkpt lat="33.7137917" lon="8.91993"><ele>31.5</ele><time>2026-04-23T09:05:37.357Z</time></trkpt><trkpt lat="33.7138467" lon="8.919805"><ele>31.75</ele><time>2026-04-23T09:05:38.358Z</time></trkpt><trkpt lat="33.7139167" lon="8.9196817"><ele>32.0</ele><time>2026-04-23T09:05:39.358Z</time></trkpt><trkpt lat="33.7139983" lon="8.9195617"><ele>32.0</ele><time>2026-04-23T09:05:40.357Z</time></trkpt><trkpt lat="33.714085" lon="8.9194583"><ele>32.0</ele><time>2026-04-23T09:05:41.357Z</time></trkpt><trkpt lat="33.7141783" lon="8.91935"><ele>32.0</ele><time>2026-04-23T09:05:42.357Z</time></trkpt><trkpt lat="33.7142717" lon="8.9192467"><ele>32.0</ele><time>2026-04-23T09:05:43.357Z</time></trkpt><trkpt lat="33.7143617" lon="8.91916"><ele>31.75</ele><time>2026-04-23T09:05:44.357Z</time></trkpt><trkpt lat="33.7144633" lon="8.9190717"><ele>31.5</ele><time>2026-04-23T09:05:45.358Z</time></trkpt><trkpt lat="33.71456" lon="8.9189833"><ele>31.25</ele><time>2026-04-23T09:05:46.357Z</time></trkpt><trkpt lat="33.71466" lon="8.918885"><ele>31.0</ele><time>2026-04-23T09:05:47.357Z</time></trkpt><trkpt lat="33.714765" lon="8.9187833"><ele>31.0</ele><time>2026-04-23T09:05:48.357Z</time></trkpt><trkpt lat="33.7148617" lon="8.9186867"><ele>31.0</ele><time>2026-04-23T09:05:49.358Z</time></trkpt><trkpt lat="33.7149667" lon="8.9185967"><ele>31.0</ele><time>2026-04-23T09:05:50.357Z</time></trkpt><trkpt lat="33.715075" lon="8.9185083"><ele>31.0</ele><time>2026-04-23T09:05:51.358Z</time></trkpt><trkpt lat="33.7151717" lon="8.9184217"><ele>30.0</ele><time>2026-04-23T09:05:52.357Z</time></trkpt><trkpt lat="33.7152467" lon="8.9183333"><ele>29.0</ele><time>2026-04-23T09:05:53.357Z</time></trkpt><trkpt lat="33.7153267" lon="8.9182367"><ele>28.0</ele><time>2026-04-23T09:05:54.358Z</time></trkpt><trkpt lat="33.7154133" lon="8.9181383"><ele>27.0</ele><time>2026-04-23T09:05:55.357Z</time></trkpt><trkpt lat="33.7155067" lon="8.918035"><ele>27.0</ele><time>2026-04-23T09:05:56.357Z</time></trkpt><trkpt lat="33.71559" lon="8.91793"><ele>27.0</ele><time>2026-04-23T09:05:57.357Z</time></trkpt><trkpt lat="33.71568" lon="8.9178183"><ele>27.0</ele><time>2026-04-23T09:05:58.357Z</time></trkpt><trkpt lat="33.7157667" lon="8.9177017"><ele>27.0</ele><time>2026-04-23T09:05:59.357Z</time></trkpt><trkpt lat="33.7158617" lon="8.917595"><ele>27.0</ele><time>2026-04-23T09:06:00.358Z</time></trkpt><trkpt lat="33.715945" lon="8.9174867"><ele>27.0</ele><time>2026-04-23T09:06:01.357Z</time></trkpt><trkpt lat="33.7160333" lon="8.917385"><ele>27.0</ele><time>2026-04-23T09:06:02.357Z</time></trkpt><trkpt lat="33.7161167" lon="8.9172767"><ele>27.0</ele><time>2026-04-23T09:06:03.357Z</time></trkpt><trkpt lat="33.7162017" lon="8.9171667"><ele>26.25</ele><time>2026-04-23T09:06:04.358Z</time></trkpt><trkpt lat="33.7162883" lon="8.9170433"><ele>25.5</ele><time>2026-04-23T09:06:05.358Z</time></trkpt><trkpt lat="33.7163833" lon="8.9169317"><ele>24.75</ele><time>2026-04-23T09:06:06.357Z</time></trkpt><trkpt lat="33.7164733" lon="8.91682"><ele>24.0</ele><time>2026-04-23T09:06:07.358Z</time></trkpt><trkpt lat="33.71656" lon="8.9167"><ele>24.0</ele><time>2026-04-23T09:06:08.357Z</time></trkpt><trkpt lat="33.7166483" lon="8.9165733"><ele>24.0</ele><time>2026-04-23T09:06:09.358Z</time></trkpt><trkpt lat="33.7167317" lon="8.9164517"><ele>24.0</ele><time>2026-04-23T09:06:10.357Z</time></trkpt><trkpt lat="33.716825" lon="8.9163283"><ele>24.0</ele><time>2026-04-23T09:06:11.358Z</time></trkpt><trkpt lat="33.71691" lon="8.9162083"><ele>24.25</ele><time>2026-04-23T09:06:12.357Z</time></trkpt><trkpt lat="33.7170017" lon="8.916085"><ele>24.5</ele><time>2026-04-23T09:06:13.358Z</time></trkpt><trkpt lat="33.7170967" lon="8.9159617"><ele>24.75</ele><time>2026-04-23T09:06:14.357Z</time></trkpt><trkpt lat="33.7171833" lon="8.9158333"><ele>25.0</ele><time>2026-04-23T09:06:15.358Z</time></trkpt><trkpt lat="33.71727" lon="8.9157083"><ele>24.5</ele><time>2026-04-23T09:06:16.357Z</time></trkpt><trkpt lat="33.7173667" lon="8.9155917"><ele>24.0</ele><time>2026-04-23T09:06:17.357Z</time></trkpt><trkpt lat="33.7174533" lon="8.915485"><ele>23.5</ele><time>2026-04-23T09:06:18.358Z</time></trkpt><trkpt lat="33.7175267" lon="8.9153717"><ele>23.0</ele><time>2026-04-23T09:06:19.357Z</time></trkpt><trkpt lat="33.7175867" lon="8.9152683"><ele>23.0</ele><time>2026-04-23T09:06:20.357Z</time></trkpt><trkpt lat="33.7176517" lon="8.9151767"><ele>23.0</ele><time>2026-04-23T09:06:21.358Z</time></trkpt><trkpt lat="33.71771" lon="8.9150833"><ele>23.0</ele><time>2026-04-23T09:06:22.357Z</time></trkpt><trkpt lat="33.717775" lon="8.9149733"><ele>23.0</ele><time>2026-04-23T09:06:23.358Z</time></trkpt><trkpt lat="33.717845" lon="8.9148583"><ele>23.0</ele><time>2026-04-23T09:06:24.358Z</time></trkpt><trkpt lat="33.7179117" lon="8.914735"><ele>23.75</ele><time>2026-04-23T09:06:25.357Z</time></trkpt><trkpt lat="33.7179783" lon="8.9146067"><ele>24.5</ele><time>2026-04-23T09:06:26.357Z</time></trkpt><trkpt lat="33.7180533" lon="8.9144767"><ele>25.25</ele><time>2026-04-23T09:06:27.357Z</time></trkpt><trkpt lat="33.718135" lon="8.9143383"><ele>26.0</ele><time>2026-04-23T09:06:28.357Z</time></trkpt><trkpt lat="33.7182167" lon="8.9142083"><ele>26.0</ele><time>2026-04-23T09:06:29.357Z</time></trkpt><trkpt lat="33.7182967" lon="8.9140633"><ele>26.0</ele><time>2026-04-23T09:06:30.357Z</time></trkpt><trkpt lat="33.7183717" lon="8.913915"><ele>26.0</ele><time>2026-04-23T09:06:31.357Z</time></trkpt><trkpt lat="33.7184517" lon="8.9137617"><ele>26.0</ele><time>2026-04-23T09:06:32.358Z</time></trkpt><trkpt lat="33.7185317" lon="8.9136183"><ele>26.333333333333332</ele><time>2026-04-23T09:06:33.358Z</time></trkpt><trkpt lat="33.718615" lon="8.9134533"><ele>26.666666666666664</ele><time>2026-04-23T09:06:34.358Z</time></trkpt><trkpt lat="33.718695" lon="8.9132983"><ele>27.0</ele><time>2026-04-23T09:06:35.357Z</time></trkpt><trkpt lat="33.7187733" lon="8.9131367"><ele>27.0</ele><time>2026-04-23T09:06:36.357Z</time></trkpt><trkpt lat="33.7188583" lon="8.912975"><ele>27.0</ele><time>2026-04-23T09:06:37.357Z</time></trkpt><trkpt lat="33.7189467" lon="8.9128133"><ele>27.0</ele><time>2026-04-23T09:06:38.358Z</time></trkpt><trkpt lat="33.7190433" lon="8.9126617"><ele>26.666666666666664</ele><time>2026-04-23T09:06:39.357Z</time></trkpt><trkpt lat="33.7191317" lon="8.9125233"><ele>26.333333333333332</ele><time>2026-04-23T09:06:40.357Z</time></trkpt><trkpt lat="33.7192367" lon="8.9123883"><ele>26.0</ele><time>2026-04-23T09:06:41.357Z</time></trkpt><trkpt lat="33.7193633" lon="8.91226"><ele>26.333333333333332</ele><time>2026-04-23T09:06:42.357Z</time></trkpt><trkpt lat="33.7195067" lon="8.9121183"><ele>26.666666666666664</ele><time>2026-04-23T09:06:43.358Z</time></trkpt><trkpt lat="33.7196517" lon="8.9119567"><ele>27.0</ele><time>2026-04-23T09:06:44.357Z</time></trkpt><trkpt lat="33.7197867" lon="8.9118283"><ele>26.333333333333336</ele><time>2026-04-23T09:06:45.358Z</time></trkpt><trkpt lat="33.7199117" lon="8.9116917"><ele>25.666666666666668</ele><time>2026-04-23T09:06:46.358Z</time></trkpt><trkpt lat="33.7200483" lon="8.91155"><ele>25.0</ele><time>2026-04-23T09:06:47.358Z</time></trkpt><trkpt lat="33.7201733" lon="8.9114167"><ele>25.666666666666668</ele><time>2026-04-23T09:06:48.358Z</time></trkpt><trkpt lat="33.7203117" lon="8.9112867"><ele>26.333333333333336</ele><time>2026-04-23T09:06:49.358Z</time></trkpt><trkpt lat="33.7204467" lon="8.9111567"><ele>27.0</ele><time>2026-04-23T09:06:50.357Z</time></trkpt><trkpt lat="33.7205833" lon="8.9110267"><ele>27.0</ele><time>2026-04-23T09:06:51.358Z</time></trkpt><trkpt lat="33.72072" lon="8.910895"><ele>27.0</ele><time>2026-04-23T09:06:52.357Z</time></trkpt><trkpt lat="33.720855" lon="8.91076"><ele>27.0</ele><time>2026-04-23T09:06:53.357Z</time></trkpt><trkpt lat="33.7209817" lon="8.9106183"><ele>26.0</ele><time>2026-04-23T09:06:54.358Z</time></trkpt><trkpt lat="33.7211133" lon="8.910485"><ele>25.0</ele><time>2026-04-23T09:06:55.358Z</time></trkpt><trkpt lat="33.7212467" lon="8.9103517"><ele>24.0</ele><time>2026-04-23T09:06:56.357Z</time></trkpt><trkpt lat="33.7213933" lon="8.91021"><ele>24.333333333333336</ele><time>2026-04-23T09:06:57.358Z</time></trkpt><trkpt lat="33.72153" lon="8.9100667"><ele>24.666666666666668</ele><time>2026-04-23T09:06:58.357Z</time></trkpt><trkpt lat="33.721665" lon="8.9099267"><ele>25.0</ele><time>2026-04-23T09:06:59.357Z</time></trkpt><trkpt lat="33.7218067" lon="8.90977"><ele>25.333333333333336</ele><time>2026-04-23T09:07:00.357Z</time></trkpt><trkpt lat="33.7219533" lon="8.9096217"><ele>25.666666666666664</ele><time>2026-04-23T09:07:01.358Z</time></trkpt><trkpt lat="33.7221" lon="8.9094783"><ele>26.0</ele><time>2026-04-23T09:07:02.357Z</time></trkpt><trkpt lat="33.7222367" lon="8.9093317"><ele>25.666666666666664</ele><time>2026-04-23T09:07:03.357Z</time></trkpt><trkpt lat="33.722395" lon="8.90918"><ele>25.333333333333336</ele><time>2026-04-23T09:07:04.358Z</time></trkpt><trkpt lat="33.7225483" lon="8.9090267"><ele>25.0</ele><time>2026-04-23T09:07:05.358Z</time></trkpt><trkpt lat="33.7226967" lon="8.90887"><ele>25.333333333333336</ele><time>2026-04-23T09:07:06.358Z</time></trkpt><trkpt lat="33.7228567" lon="8.9087117"><ele>25.666666666666664</ele><time>2026-04-23T09:07:07.357Z</time></trkpt><trkpt lat="33.7230183" lon="8.90855"><ele>26.0</ele><time>2026-04-23T09:07:08.358Z</time></trkpt><trkpt lat="33.7231783" lon="8.908385"><ele>25.333333333333332</ele><time>2026-04-23T09:07:09.357Z</time></trkpt><trkpt lat="33.7233267" lon="8.908215"><ele>24.666666666666664</ele><time>2026-04-23T09:07:10.357Z</time></trkpt><trkpt lat="33.72348" lon="8.9080333"><ele>24.0</ele><time>2026-04-23T09:07:11.358Z</time></trkpt><trkpt lat="33.72363" lon="8.90786"><ele>24.0</ele><time>2026-04-23T09:07:12.357Z</time></trkpt><trkpt lat="33.7237883" lon="8.9076817"><ele>24.0</ele><time>2026-04-23T09:07:13.357Z</time></trkpt><trkpt lat="33.7239483" lon="8.9075033"><ele>24.0</ele><time>2026-04-23T09:07:14.357Z</time></trkpt><trkpt lat="33.724105" lon="8.9073233"><ele>24.0</ele><time>2026-04-23T09:07:15.358Z</time></trkpt><trkpt lat="33.7242583" lon="8.907145"><ele>24.0</ele><time>2026-04-23T09:07:16.357Z</time></trkpt><trkpt lat="33.7244217" lon="8.90696"><ele>24.0</ele><time>2026-04-23T09:07:17.358Z</time></trkpt><trkpt lat="33.7245833" lon="8.90678"><ele>24.0</ele><time>2026-04-23T09:07:18.357Z</time></trkpt><trkpt lat="33.72474" lon="8.906595"><ele>24.0</ele><time>2026-04-23T09:07:19.357Z</time></trkpt><trkpt lat="33.7248883" lon="8.9064033"><ele>24.0</ele><time>2026-04-23T09:07:20.358Z</time></trkpt><trkpt lat="33.72505" lon="8.90622"><ele>24.0</ele><time>2026-04-23T09:07:21.357Z</time></trkpt><trkpt lat="33.7252183" lon="8.9060417"><ele>24.0</ele><time>2026-04-23T09:07:22.358Z</time></trkpt><trkpt lat="33.72539" lon="8.9058617"><ele>22.5</ele><time>2026-04-23T09:07:23.358Z</time></trkpt><trkpt lat="33.7255633" lon="8.9056867"><ele>21.0</ele><time>2026-04-23T09:07:24.357Z</time></trkpt><trkpt lat="33.7257417" lon="8.905505"><ele>21.0</ele><time>2026-04-23T09:07:25.357Z</time></trkpt><trkpt lat="33.72592" lon="8.9053267"><ele>21.0</ele><time>2026-04-23T09:07:26.358Z</time></trkpt><trkpt lat="33.7261" lon="8.9051433"><ele>21.0</ele><time>2026-04-23T09:07:27.357Z</time></trkpt><trkpt lat="33.7262717" lon="8.9049517"><ele>21.0</ele><time>2026-04-23T09:07:28.358Z</time></trkpt><trkpt lat="33.7264333" lon="8.90477"><ele>21.0</ele><time>2026-04-23T09:07:29.357Z</time></trkpt><trkpt lat="33.7266083" lon="8.90459"><ele>21.0</ele><time>2026-04-23T09:07:30.357Z</time></trkpt><trkpt lat="33.7267767" lon="8.9044117"><ele>21.5</ele><time>2026-04-23T09:07:31.358Z</time></trkpt><trkpt lat="33.726955" lon="8.9042367"><ele>22.0</ele><time>2026-04-23T09:07:32.357Z</time></trkpt><trkpt lat="33.7271417" lon="8.9040733"><ele>22.0</ele><time>2026-04-23T09:07:33.357Z</time></trkpt><trkpt lat="33.72732" lon="8.9039167"><ele>22.0</ele><time>2026-04-23T09:07:34.357Z</time></trkpt><trkpt lat="33.7274983" lon="8.9037483"><ele>22.0</ele><time>2026-04-23T09:07:35.357Z</time></trkpt><trkpt lat="33.7276783" lon="8.9035833"><ele>22.0</ele><time>2026-04-23T09:07:36.357Z</time></trkpt><trkpt lat="33.7278633" lon="8.9034217"><ele>22.0</ele><time>2026-04-23T09:07:37.358Z</time></trkpt><trkpt lat="33.7280433" lon="8.9032617"><ele>22.0</ele><time>2026-04-23T09:07:38.358Z</time></trkpt><trkpt lat="33.728225" lon="8.903105"><ele>22.0</ele><time>2026-04-23T09:07:39.358Z</time></trkpt><trkpt lat="33.728405" lon="8.9029483"><ele>22.0</ele><time>2026-04-23T09:07:40.358Z</time></trkpt><trkpt lat="33.728585" lon="8.9027917"><ele>22.0</ele><time>2026-04-23T09:07:41.357Z</time></trkpt><trkpt lat="33.7287683" lon="8.9026317"><ele>22.0</ele><time>2026-04-23T09:07:42.357Z</time></trkpt><trkpt lat="33.728945" lon="8.90247"><ele>22.0</ele><time>2026-04-23T09:07:43.357Z</time></trkpt><trkpt lat="33.7291217" lon="8.90231"><ele>22.0</ele><time>2026-04-23T09:07:44.357Z</time></trkpt><trkpt lat="33.729295" lon="8.9021517"><ele>22.0</ele><time>2026-04-23T09:07:45.358Z</time></trkpt><trkpt lat="33.72946" lon="8.9020033"><ele>22.0</ele><time>2026-04-23T09:07:46.358Z</time></trkpt><trkpt lat="33.7296067" lon="8.901875"><ele>22.0</ele><time>2026-04-23T09:07:47.358Z</time></trkpt><trkpt lat="33.729735" lon="8.9017617"><ele>22.0</ele><time>2026-04-23T09:07:48.358Z</time></trkpt><trkpt lat="33.72985" lon="8.90166"><ele>22.0</ele><time>2026-04-23T09:07:49.357Z</time></trkpt><trkpt lat="33.7299567" lon="8.9015683"><ele>22.0</ele><time>2026-04-23T09:07:50.358Z</time></trkpt><trkpt lat="33.7300533" lon="8.9014867"><ele>22.400000000000002</ele><time>2026-04-23T09:07:51.357Z</time></trkpt><trkpt lat="33.7301467" lon="8.9014033"><ele>22.8</ele><time>2026-04-23T09:07:52.358Z</time></trkpt><trkpt lat="33.7302367" lon="8.9013283"><ele>23.2</ele><time>2026-04-23T09:07:53.358Z</time></trkpt><trkpt lat="33.7303233" lon="8.90125"><ele>23.6</ele><time>2026-04-23T09:07:54.357Z</time></trkpt><trkpt lat="33.7304083" lon="8.9011667"><ele>24.0</ele><time>2026-04-23T09:07:55.357Z</time></trkpt><trkpt lat="33.7305" lon="8.9010883"><ele>24.25</ele><time>2026-04-23T09:07:56.358Z</time></trkpt><trkpt lat="33.7305983" lon="8.9010067"><ele>24.5</ele><time>2026-04-23T09:07:57.357Z</time></trkpt><trkpt lat="33.7306983" lon="8.90092"><ele>24.75</ele><time>2026-04-23T09:07:58.357Z</time></trkpt><trkpt lat="33.7308033" lon="8.9008283"><ele>25.0</ele><time>2026-04-23T09:07:59.358Z</time></trkpt><trkpt lat="33.7309133" lon="8.900735"><ele>25.5</ele><time>2026-04-23T09:08:00.358Z</time></trkpt><trkpt lat="33.7310133" lon="8.9006517"><ele>26.0</ele><time>2026-04-23T09:08:01.358Z</time></trkpt><trkpt lat="33.73111" lon="8.9005717"><ele>26.5</ele><time>2026-04-23T09:08:02.358Z</time></trkpt><trkpt lat="33.7312067" lon="8.9004817"><ele>27.0</ele><time>2026-04-23T09:08:03.358Z</time></trkpt><trkpt lat="33.7313117" lon="8.90039"><ele>27.25</ele><time>2026-04-23T09:08:04.358Z</time></trkpt><trkpt lat="33.7314233" lon="8.9002917"><ele>27.5</ele><time>2026-04-23T09:08:05.358Z</time></trkpt><trkpt lat="33.7315433" lon="8.9001883"><ele>27.75</ele><time>2026-04-23T09:08:06.358Z</time></trkpt><trkpt lat="33.7316667" lon="8.9000833"><ele>28.0</ele><time>2026-04-23T09:08:07.358Z</time></trkpt><trkpt lat="33.7317967" lon="8.899975"><ele>29.333333333333336</ele><time>2026-04-23T09:08:08.358Z</time></trkpt><trkpt lat="33.7319317" lon="8.899855"><ele>30.666666666666664</ele><time>2026-04-23T09:08:09.357Z</time></trkpt><trkpt lat="33.7320683" lon="8.8997333"><ele>32.0</ele><time>2026-04-23T09:08:10.357Z</time></trkpt><trkpt lat="33.7322017" lon="8.89961"><ele>32.0</ele><time>2026-04-23T09:08:11.358Z</time></trkpt><trkpt lat="33.73234" lon="8.8995017"><ele>32.0</ele><time>2026-04-23T09:08:12.357Z</time></trkpt><trkpt lat="33.7324783" lon="8.8993867"><ele>32.0</ele><time>2026-04-23T09:08:13.357Z</time></trkpt><trkpt lat="33.7326183" lon="8.8992717"><ele>32.0</ele><time>2026-04-23T09:08:14.357Z</time></trkpt><trkpt lat="33.7327583" lon="8.899155"><ele>32.0</ele><time>2026-04-23T09:08:15.358Z</time></trkpt><trkpt lat="33.7329033" lon="8.8990367"><ele>32.0</ele><time>2026-04-23T09:08:16.357Z</time></trkpt><trkpt lat="33.7330483" lon="8.8989267"><ele>32.0</ele><time>2026-04-23T09:08:17.357Z</time></trkpt><trkpt lat="33.7331867" lon="8.898815"><ele>32.0</ele><time>2026-04-23T09:08:18.358Z</time></trkpt><trkpt lat="33.7333317" lon="8.8987"><ele>32.0</ele><time>2026-04-23T09:08:19.358Z</time></trkpt><trkpt lat="33.7334717" lon="8.8985967"><ele>32.0</ele><time>2026-04-23T09:08:20.358Z</time></trkpt><trkpt lat="33.73362" lon="8.8984983"><ele>32.0</ele><time>2026-04-23T09:08:21.357Z</time></trkpt><trkpt lat="33.7337633" lon="8.8983983"><ele>32.0</ele><time>2026-04-23T09:08:22.357Z</time></trkpt><trkpt lat="33.7339" lon="8.8983083"><ele>32.0</ele><time>2026-04-23T09:08:23.357Z</time></trkpt><trkpt lat="33.7340333" lon="8.89822"><ele>32.0</ele><time>2026-04-23T09:08:24.358Z</time></trkpt><trkpt lat="33.73417" lon="8.8981483"><ele>32.0</ele><time>2026-04-23T09:08:25.357Z</time></trkpt><trkpt lat="33.734305" lon="8.8980733"><ele>31.666666666666664</ele><time>2026-04-23T09:08:26.358Z</time></trkpt><trkpt lat="33.7344433" lon="8.8980033"><ele>31.333333333333336</ele><time>2026-04-23T09:08:27.357Z</time></trkpt><trkpt lat="33.73457" lon="8.8979167"><ele>31.0</ele><time>2026-04-23T09:08:28.357Z</time></trkpt><trkpt lat="33.7347033" lon="8.8978217"><ele>31.0</ele><time>2026-04-23T09:08:29.358Z</time></trkpt><trkpt lat="33.7348383" lon="8.89772"><ele>31.0</ele><time>2026-04-23T09:08:30.358Z</time></trkpt><trkpt lat="33.7349633" lon="8.8976183"><ele>31.0</ele><time>2026-04-23T09:08:31.358Z</time></trkpt><trkpt lat="33.7350833" lon="8.8975167"><ele>30.333333333333336</ele><time>2026-04-23T09:08:32.357Z</time></trkpt><trkpt lat="33.7351983" lon="8.897415"><ele>29.666666666666664</ele><time>2026-04-23T09:08:33.357Z</time></trkpt><trkpt lat="33.7353117" lon="8.897295"><ele>29.0</ele><time>2026-04-23T09:08:34.358Z</time></trkpt><trkpt lat="33.7354283" lon="8.8971667"><ele>28.75</ele><time>2026-04-23T09:08:35.358Z</time></trkpt><trkpt lat="33.7355283" lon="8.8970383"><ele>28.5</ele><time>2026-04-23T09:08:36.357Z</time></trkpt><trkpt lat="33.7356267" lon="8.89691"><ele>28.25</ele><time>2026-04-23T09:08:37.357Z</time></trkpt><trkpt lat="33.73572" lon="8.8967867"><ele>28.0</ele><time>2026-04-23T09:08:38.358Z</time></trkpt><trkpt lat="33.7358117" lon="8.8966733"><ele>28.0</ele><time>2026-04-23T09:08:39.358Z</time></trkpt><trkpt lat="33.7358983" lon="8.8965683"><ele>27.999999999999996</ele><time>2026-04-23T09:08:40.357Z</time></trkpt><trkpt lat="33.7359767" lon="8.8964783"><ele>27.999999999999996</ele><time>2026-04-23T09:08:41.358Z</time></trkpt><trkpt lat="33.7360417" lon="8.8964"><ele>28.0</ele><time>2026-04-23T09:08:42.358Z</time></trkpt><trkpt lat="33.7360967" lon="8.89632"><ele>28.0</ele><time>2026-04-23T09:08:43.357Z</time></trkpt><trkpt lat="33.7361483" lon="8.896235"><ele>28.0</ele><time>2026-04-23T09:08:44.358Z</time></trkpt><trkpt lat="33.7362133" lon="8.8961483"><ele>27.999999999999996</ele><time>2026-04-23T09:08:45.358Z</time></trkpt><trkpt lat="33.736285" lon="8.8960617"><ele>27.999999999999996</ele><time>2026-04-23T09:08:46.357Z</time></trkpt><trkpt lat="33.7363583" lon="8.89597"><ele>28.0</ele><time>2026-04-23T09:08:47.357Z</time></trkpt><trkpt lat="33.7364233" lon="8.8958717"><ele>28.0</ele><time>2026-04-23T09:08:48.358Z</time></trkpt><trkpt lat="33.7364783" lon="8.8957717"><ele>28.0</ele><time>2026-04-23T09:08:49.358Z</time></trkpt><trkpt lat="33.736545" lon="8.8956783"><ele>27.999999999999996</ele><time>2026-04-23T09:08:50.358Z</time></trkpt><trkpt lat="33.736625" lon="8.89559"><ele>27.999999999999996</ele><time>2026-04-23T09:08:51.358Z</time></trkpt><trkpt lat="33.7366917" lon="8.8955083"><ele>28.0</ele><time>2026-04-23T09:08:52.357Z</time></trkpt><trkpt lat="33.7367633" lon="8.8954317"><ele>28.0</ele><time>2026-04-23T09:08:53.358Z</time></trkpt><trkpt lat="33.7368367" lon="8.8953417"><ele>28.0</ele><time>2026-04-23T09:08:54.357Z</time></trkpt><trkpt lat="33.736905" lon="8.8952583"><ele>27.999999999999996</ele><time>2026-04-23T09:08:55.357Z</time></trkpt><trkpt lat="33.7369817" lon="8.8951617"><ele>27.999999999999996</ele><time>2026-04-23T09:08:56.357Z</time></trkpt><trkpt lat="33.73706" lon="8.8950767"><ele>28.0</ele><time>2026-04-23T09:08:57.357Z</time></trkpt><trkpt lat="33.7371283" lon="8.894995"><ele>28.0</ele><time>2026-04-23T09:08:58.357Z</time></trkpt><trkpt lat="33.7371867" lon="8.8949217"><ele>28.000000000000004</ele><time>2026-04-23T09:08:59.357Z</time></trkpt><trkpt lat="33.7372367" lon="8.8948567"><ele>28.0</ele><time>2026-04-23T09:09:00.355Z</time></trkpt><trkpt lat="33.7372867" lon="8.894795"><ele>28.0</ele><time>2026-04-23T09:09:01.358Z</time></trkpt><trkpt lat="33.7373367" lon="8.8947317"><ele>28.0</ele><time>2026-04-23T09:09:02.358Z</time></trkpt><trkpt lat="33.7373883" lon="8.8946717"><ele>28.000000000000004</ele><time>2026-04-23T09:09:03.357Z</time></trkpt><trkpt lat="33.737445" lon="8.8946067"><ele>28.0</ele><time>2026-04-23T09:09:04.358Z</time></trkpt><trkpt lat="33.7375033" lon="8.8945367"><ele>28.0</ele><time>2026-04-23T09:09:05.358Z</time></trkpt><trkpt lat="33.7375667" lon="8.8944667"><ele>27.999999999999996</ele><time>2026-04-23T09:09:06.358Z</time></trkpt><trkpt lat="33.737635" lon="8.8943917"><ele>27.999999999999996</ele><time>2026-04-23T09:09:07.358Z</time></trkpt><trkpt lat="33.737705" lon="8.8943117"><ele>28.0</ele><time>2026-04-23T09:09:08.358Z</time></trkpt><trkpt lat="33.7377833" lon="8.89423"><ele>28.0</ele><time>2026-04-23T09:09:09.357Z</time></trkpt><trkpt lat="33.7378633" lon="8.8941517"><ele>28.0</ele><time>2026-04-23T09:09:10.357Z</time></trkpt><trkpt lat="33.7379467" lon="8.8940717"><ele>27.999999999999996</ele><time>2026-04-23T09:09:11.357Z</time></trkpt><trkpt lat="33.7380283" lon="8.893985"><ele>27.999999999999996</ele><time>2026-04-23T09:09:12.357Z</time></trkpt><trkpt lat="33.73811" lon="8.8938967"><ele>28.0</ele><time>2026-04-23T09:09:13.357Z</time></trkpt><trkpt lat="33.7381933" lon="8.8937967"><ele>28.0</ele><time>2026-04-23T09:09:14.357Z</time></trkpt><trkpt lat="33.7382817" lon="8.8936917"><ele>28.0</ele><time>2026-04-23T09:09:15.358Z</time></trkpt><trkpt lat="33.738375" lon="8.8935933"><ele>28.0</ele><time>2026-04-23T09:09:16.358Z</time></trkpt><trkpt lat="33.738465" lon="8.8935067"><ele>28.0</ele><time>2026-04-23T09:09:17.358Z</time></trkpt><trkpt lat="33.7385583" lon="8.893405"><ele>28.0</ele><time>2026-04-23T09:09:18.358Z</time></trkpt><trkpt lat="33.7386367" lon="8.893305"><ele>27.75</ele><time>2026-04-23T09:09:19.357Z</time></trkpt><trkpt lat="33.7387417" lon="8.8932083"><ele>27.5</ele><time>2026-04-23T09:09:20.357Z</time></trkpt><trkpt lat="33.7388433" lon="8.8931083"><ele>27.25</ele><time>2026-04-23T09:09:21.357Z</time></trkpt><trkpt lat="33.7389367" lon="8.89301"><ele>27.0</ele><time>2026-04-23T09:09:22.357Z</time></trkpt><trkpt lat="33.7390133" lon="8.8929117"><ele>27.0</ele><time>2026-04-23T09:09:23.358Z</time></trkpt><trkpt lat="33.7391117" lon="8.8928117"><ele>27.0</ele><time>2026-04-23T09:09:24.357Z</time></trkpt><trkpt lat="33.7392033" lon="8.89271"><ele>27.0</ele><time>2026-04-23T09:09:25.358Z</time></trkpt><trkpt lat="33.7392783" lon="8.892605"><ele>27.0</ele><time>2026-04-23T09:09:26.358Z</time></trkpt><trkpt lat="33.739375" lon="8.8925133"><ele>27.25</ele><time>2026-04-23T09:09:27.357Z</time></trkpt><trkpt lat="33.7394683" lon="8.8924233"><ele>27.5</ele><time>2026-04-23T09:09:28.358Z</time></trkpt><trkpt lat="33.73956" lon="8.8923317"><ele>27.75</ele><time>2026-04-23T09:09:29.357Z</time></trkpt><trkpt lat="33.739645" lon="8.8922383"><ele>28.0</ele><time>2026-04-23T09:09:30.358Z</time></trkpt><trkpt lat="33.7397317" lon="8.8921433"><ele>28.0</ele><time>2026-04-23T09:09:31.358Z</time></trkpt><trkpt lat="33.7398083" lon="8.8920517"><ele>27.999999999999996</ele><time>2026-04-23T09:09:32.358Z</time></trkpt><trkpt lat="33.7398967" lon="8.8919633"><ele>27.999999999999996</ele><time>2026-04-23T09:09:33.357Z</time></trkpt><trkpt lat="33.7399717" lon="8.8918767"><ele>28.0</ele><time>2026-04-23T09:09:34.357Z</time></trkpt><trkpt lat="33.74004" lon="8.8918017"><ele>28.0</ele><time>2026-04-23T09:09:35.358Z</time></trkpt><trkpt lat="33.7401117" lon="8.8917183"><ele>28.0</ele><time>2026-04-23T09:09:36.357Z</time></trkpt><trkpt lat="33.740185" lon="8.8916467"><ele>27.999999999999996</ele><time>2026-04-23T09:09:37.358Z</time></trkpt><trkpt lat="33.7402683" lon="8.89157"><ele>27.999999999999996</ele><time>2026-04-23T09:09:38.357Z</time></trkpt><trkpt lat="33.7403417" lon="8.8914883"><ele>28.0</ele><time>2026-04-23T09:09:39.358Z</time></trkpt><trkpt lat="33.7404167" lon="8.89141"><ele>28.0</ele><time>2026-04-23T09:09:40.356Z</time></trkpt><trkpt lat="33.7404817" lon="8.8913383"><ele>28.000000000000004</ele><time>2026-04-23T09:09:41.356Z</time></trkpt><trkpt lat="33.7405517" lon="8.89127"><ele>28.0</ele><time>2026-04-23T09:09:42.356Z</time></trkpt><trkpt lat="33.7406217" lon="8.8912017"><ele>28.0</ele><time>2026-04-23T09:09:43.357Z</time></trkpt><trkpt lat="33.74069" lon="8.8911267"><ele>28.0</ele><time>2026-04-23T09:09:44.357Z</time></trkpt><trkpt lat="33.7407483" lon="8.891065"><ele>28.000000000000004</ele><time>2026-04-23T09:09:45.357Z</time></trkpt><trkpt lat="33.74081" lon="8.8909967"><ele>28.0</ele><time>2026-04-23T09:09:46.357Z</time></trkpt><trkpt lat="33.7408667" lon="8.890935"><ele>27.833333333333336</ele><time>2026-04-23T09:09:47.356Z</time></trkpt><trkpt lat="33.7409217" lon="8.890875"><ele>27.666666666666668</ele><time>2026-04-23T09:09:48.357Z</time></trkpt><trkpt lat="33.7409717" lon="8.8908267"><ele>27.5</ele><time>2026-04-23T09:09:49.357Z</time></trkpt><trkpt lat="33.741035" lon="8.890755"><ele>27.333333333333336</ele><time>2026-04-23T09:09:51.357Z</time></trkpt><trkpt lat="33.741095" lon="8.890695"><ele>27.166666666666668</ele><time>2026-04-23T09:09:54.356Z</time></trkpt><trkpt lat="33.7411533" lon="8.8906217"><ele>27.0</ele><time>2026-04-23T09:10:26.357Z</time></trkpt><trkpt lat="33.7412117" lon="8.8905583"><ele>27.0</ele><time>2026-04-23T09:10:27.357Z</time></trkpt><trkpt lat="33.7412817" lon="8.890485"><ele>27.000000000000004</ele><time>2026-04-23T09:10:28.356Z</time></trkpt><trkpt lat="33.74136" lon="8.8904033"><ele>27.000000000000004</ele><time>2026-04-23T09:10:29.356Z</time></trkpt><trkpt lat="33.7414383" lon="8.8903117"><ele>27.0</ele><time>2026-04-23T09:10:30.356Z</time></trkpt><trkpt lat="33.7415217" lon="8.8902233"><ele>27.0</ele><time>2026-04-23T09:10:31.356Z</time></trkpt><trkpt lat="33.74161" lon="8.890135"><ele>27.5</ele><time>2026-04-23T09:10:32.357Z</time></trkpt><trkpt lat="33.7417033" lon="8.8900367"><ele>28.0</ele><time>2026-04-23T09:10:33.356Z</time></trkpt><trkpt lat="33.7417933" lon="8.8899433"><ele>28.5</ele><time>2026-04-23T09:10:34.357Z</time></trkpt><trkpt lat="33.74189" lon="8.88984"><ele>29.0</ele><time>2026-04-23T09:10:35.356Z</time></trkpt><trkpt lat="33.7419883" lon="8.8897417"><ele>29.0</ele><time>2026-04-23T09:10:36.357Z</time></trkpt><trkpt lat="33.74208" lon="8.8896433"><ele>29.0</ele><time>2026-04-23T09:10:37.356Z</time></trkpt><trkpt lat="33.742175" lon="8.8895417"><ele>29.0</ele><time>2026-04-23T09:10:38.357Z</time></trkpt><trkpt lat="33.742275" lon="8.8894333"><ele>29.0</ele><time>2026-04-23T09:10:39.357Z</time></trkpt><trkpt lat="33.742375" lon="8.8893233"><ele>29.25</ele><time>2026-04-23T09:10:40.357Z</time></trkpt><trkpt lat="33.7424733" lon="8.889215"><ele>29.5</ele><time>2026-04-23T09:10:41.356Z</time></trkpt><trkpt lat="33.7425817" lon="8.8891033"><ele>29.75</ele><time>2026-04-23T09:10:42.357Z</time></trkpt><trkpt lat="33.7427" lon="8.8889917"><ele>30.0</ele><time>2026-04-23T09:10:43.356Z</time></trkpt><trkpt lat="33.7428167" lon="8.8888783"><ele>29.333333333333336</ele><time>2026-04-23T09:10:44.356Z</time></trkpt><trkpt lat="33.7429417" lon="8.8887533"><ele>28.666666666666668</ele><time>2026-04-23T09:10:45.357Z</time></trkpt><trkpt lat="33.7430567" lon="8.8886217"><ele>28.0</ele><time>2026-04-23T09:10:46.357Z</time></trkpt><trkpt lat="33.74318" lon="8.8884983"><ele>28.0</ele><time>2026-04-23T09:10:47.356Z</time></trkpt><trkpt lat="33.7433067" lon="8.8883733"><ele>28.0</ele><time>2026-04-23T09:10:48.357Z</time></trkpt><trkpt lat="33.7434333" lon="8.8882483"><ele>28.0</ele><time>2026-04-23T09:10:49.356Z</time></trkpt><trkpt lat="33.7435567" lon="8.8881183"><ele>28.0</ele><time>2026-04-23T09:10:50.357Z</time></trkpt><trkpt lat="33.743685" lon="8.8879817"><ele>28.0</ele><time>2026-04-23T09:10:51.356Z</time></trkpt><trkpt lat="33.7438067" lon="8.8878467"><ele>28.0</ele><time>2026-04-23T09:10:52.357Z</time></trkpt><trkpt lat="33.7439267" lon="8.8877067"><ele>28.666666666666668</ele><time>2026-04-23T09:10:53.357Z</time></trkpt><trkpt lat="33.7440467" lon="8.88758"><ele>29.333333333333336</ele><time>2026-04-23T09:10:54.357Z</time></trkpt><trkpt lat="33.7441683" lon="8.8874567"><ele>30.0</ele><time>2026-04-23T09:10:55.357Z</time></trkpt><trkpt lat="33.744285" lon="8.8873283"><ele>28.333333333333336</ele><time>2026-04-23T09:10:56.356Z</time></trkpt><trkpt lat="33.74441" lon="8.8872033"><ele>26.666666666666668</ele><time>2026-04-23T09:10:57.357Z</time></trkpt><trkpt lat="33.7445383" lon="8.8870883"><ele>25.0</ele><time>2026-04-23T09:10:58.356Z</time></trkpt><trkpt lat="33.7446783" lon="8.8869667"><ele>25.0</ele><time>2026-04-23T09:10:59.356Z</time></trkpt><trkpt lat="33.744825" lon="8.8868483"><ele>25.0</ele><time>2026-04-23T09:11:00.357Z</time></trkpt><trkpt lat="33.744975" lon="8.8867317"><ele>25.0</ele><time>2026-04-23T09:11:01.356Z</time></trkpt><trkpt lat="33.7451283" lon="8.886615"><ele>26.0</ele><time>2026-04-23T09:11:02.357Z</time></trkpt><trkpt lat="33.7452883" lon="8.8865067"><ele>27.0</ele><time>2026-04-23T09:11:03.356Z</time></trkpt><trkpt lat="33.7454433" lon="8.8864017"><ele>28.0</ele><time>2026-04-23T09:11:04.357Z</time></trkpt><trkpt lat="33.7456017" lon="8.8862983"><ele>28.0</ele><time>2026-04-23T09:11:05.357Z</time></trkpt><trkpt lat="33.74576" lon="8.8861817"><ele>28.0</ele><time>2026-04-23T09:11:06.357Z</time></trkpt><trkpt lat="33.74592" lon="8.8860817"><ele>28.0</ele><time>2026-04-23T09:11:07.357Z</time></trkpt><trkpt lat="33.74608" lon="8.8859833"><ele>27.0</ele><time>2026-04-23T09:11:08.356Z</time></trkpt><trkpt lat="33.7462267" lon="8.8858883"><ele>26.0</ele><time>2026-04-23T09:11:09.356Z</time></trkpt><trkpt lat="33.746385" lon="8.8857933"><ele>25.0</ele><time>2026-04-23T09:11:10.357Z</time></trkpt><trkpt lat="33.7465533" lon="8.8856983"><ele>25.0</ele><time>2026-04-23T09:11:11.357Z</time></trkpt><trkpt lat="33.746715" lon="8.8856033"><ele>25.0</ele><time>2026-04-23T09:11:12.357Z</time></trkpt><trkpt lat="33.7468767" lon="8.8855083"><ele>25.0</ele><time>2026-04-23T09:11:13.356Z</time></trkpt><trkpt lat="33.74704" lon="8.88541"><ele>24.666666666666668</ele><time>2026-04-23T09:11:14.357Z</time></trkpt><trkpt lat="33.7472133" lon="8.8853167"><ele>24.333333333333336</ele><time>2026-04-23T09:11:15.357Z</time></trkpt><trkpt lat="33.7473817" lon="8.8852183"><ele>24.0</ele><time>2026-04-23T09:11:16.357Z</time></trkpt><trkpt lat="33.7475467" lon="8.88512"><ele>25.333333333333336</ele><time>2026-04-23T09:11:17.357Z</time></trkpt><trkpt lat="33.74771" lon="8.8850217"><ele>26.666666666666668</ele><time>2026-04-23T09:11:18.356Z</time></trkpt><trkpt lat="33.7478783" lon="8.8849117"><ele>28.0</ele><time>2026-04-23T09:11:19.357Z</time></trkpt><trkpt lat="33.7480467" lon="8.8848017"><ele>28.666666666666668</ele><time>2026-04-23T09:11:20.356Z</time></trkpt><trkpt lat="33.74821" lon="8.8846833"><ele>29.333333333333336</ele><time>2026-04-23T09:11:21.357Z</time></trkpt><trkpt lat="33.7483767" lon="8.884555"><ele>30.0</ele><time>2026-04-23T09:11:22.356Z</time></trkpt><trkpt lat="33.748545" lon="8.8844283"><ele>29.666666666666664</ele><time>2026-04-23T09:11:23.357Z</time></trkpt><trkpt lat="33.7487233" lon="8.8842917"><ele>29.333333333333332</ele><time>2026-04-23T09:11:24.356Z</time></trkpt><trkpt lat="33.7489017" lon="8.8841567"><ele>29.0</ele><time>2026-04-23T09:11:25.356Z</time></trkpt><trkpt lat="33.7490717" lon="8.8840217"><ele>29.0</ele><time>2026-04-23T09:11:26.357Z</time></trkpt><trkpt lat="33.7492533" lon="8.8838883"><ele>29.0</ele><time>2026-04-23T09:11:27.357Z</time></trkpt><trkpt lat="33.7494317" lon="8.88375"><ele>29.0</ele><time>2026-04-23T09:11:28.357Z</time></trkpt><trkpt lat="33.7496067" lon="8.883605"><ele>27.666666666666664</ele><time>2026-04-23T09:11:29.357Z</time></trkpt><trkpt lat="33.749775" lon="8.88347"><ele>26.333333333333336</ele><time>2026-04-23T09:11:30.356Z</time></trkpt><trkpt lat="33.7499483" lon="8.8833417"><ele>25.0</ele><time>2026-04-23T09:11:31.356Z</time></trkpt><trkpt lat="33.750125" lon="8.883205"><ele>25.0</ele><time>2026-04-23T09:11:32.357Z</time></trkpt><trkpt lat="33.7503083" lon="8.8830667"><ele>25.0</ele><time>2026-04-23T09:11:33.356Z</time></trkpt><trkpt lat="33.7504883" lon="8.8829233"><ele>25.0</ele><time>2026-04-23T09:11:34.357Z</time></trkpt><trkpt lat="33.7506667" lon="8.8827833"><ele>25.0</ele><time>2026-04-23T09:11:35.356Z</time></trkpt><trkpt lat="33.7508433" lon="8.882645"><ele>25.0</ele><time>2026-04-23T09:11:36.357Z</time></trkpt><trkpt lat="33.751015" lon="8.882505"><ele>25.0</ele><time>2026-04-23T09:11:37.356Z</time></trkpt><trkpt lat="33.7511883" lon="8.882355"><ele>25.333333333333336</ele><time>2026-04-23T09:11:38.356Z</time></trkpt><trkpt lat="33.751365" lon="8.882205"><ele>25.666666666666664</ele><time>2026-04-23T09:11:39.356Z</time></trkpt><trkpt lat="33.7515383" lon="8.8820517"><ele>26.0</ele><time>2026-04-23T09:11:40.356Z</time></trkpt><trkpt lat="33.7517133" lon="8.881895"><ele>26.0</ele><time>2026-04-23T09:11:41.356Z</time></trkpt><trkpt lat="33.7518833" lon="8.8817317"><ele>26.0</ele><time>2026-04-23T09:11:42.357Z</time></trkpt><trkpt lat="33.752045" lon="8.881575"><ele>26.0</ele><time>2026-04-23T09:11:43.357Z</time></trkpt><trkpt lat="33.752205" lon="8.88142"><ele>26.0</ele><time>2026-04-23T09:11:44.357Z</time></trkpt><trkpt lat="33.75237" lon="8.8812517"><ele>26.0</ele><time>2026-04-23T09:11:45.356Z</time></trkpt><trkpt lat="33.7525333" lon="8.8810883"><ele>26.0</ele><time>2026-04-23T09:11:46.356Z</time></trkpt><trkpt lat="33.752705" lon="8.8809283"><ele>25.666666666666664</ele><time>2026-04-23T09:11:47.356Z</time></trkpt><trkpt lat="33.7528733" lon="8.8807583"><ele>25.333333333333336</ele><time>2026-04-23T09:11:48.356Z</time></trkpt><trkpt lat="33.75304" lon="8.8805867"><ele>25.0</ele><time>2026-04-23T09:11:49.356Z</time></trkpt><trkpt lat="33.7532033" lon="8.88042"><ele>25.0</ele><time>2026-04-23T09:11:50.356Z</time></trkpt><trkpt lat="33.75337" lon="8.8802567"><ele>25.0</ele><time>2026-04-23T09:11:51.357Z</time></trkpt><trkpt lat="33.75354" lon="8.8800933"><ele>25.0</ele><time>2026-04-23T09:11:52.357Z</time></trkpt><trkpt lat="33.753705" lon="8.8799283"><ele>25.333333333333336</ele><time>2026-04-23T09:11:53.357Z</time></trkpt><trkpt lat="33.7538783" lon="8.87976"><ele>25.666666666666664</ele><time>2026-04-23T09:11:54.356Z</time></trkpt><trkpt lat="33.7540483" lon="8.879595"><ele>26.0</ele><time>2026-04-23T09:11:55.357Z</time></trkpt><trkpt lat="33.7542233" lon="8.8794283"><ele>25.666666666666664</ele><time>2026-04-23T09:11:56.357Z</time></trkpt><trkpt lat="33.754395" lon="8.8792567"><ele>25.333333333333336</ele><time>2026-04-23T09:11:57.356Z</time></trkpt><trkpt lat="33.7545633" lon="8.879085"><ele>25.0</ele><time>2026-04-23T09:11:58.357Z</time></trkpt><trkpt lat="33.7547267" lon="8.8789083"><ele>25.0</ele><time>2026-04-23T09:11:59.356Z</time></trkpt><trkpt lat="33.7548933" lon="8.878735"><ele>25.0</ele><time>2026-04-23T09:12:00.357Z</time></trkpt><trkpt lat="33.7550533" lon="8.8785467"><ele>25.0</ele><time>2026-04-23T09:12:01.356Z</time></trkpt><trkpt lat="33.7552083" lon="8.87836"><ele>26.0</ele><time>2026-04-23T09:12:02.357Z</time></trkpt><trkpt lat="33.7553583" lon="8.8781583"><ele>27.0</ele><time>2026-04-23T09:12:03.357Z</time></trkpt><trkpt lat="33.75552" lon="8.87796"><ele>27.0</ele><time>2026-04-23T09:12:04.357Z</time></trkpt><trkpt lat="33.7556767" lon="8.877755"><ele>27.0</ele><time>2026-04-23T09:12:05.356Z</time></trkpt><trkpt lat="33.755825" lon="8.8775517"><ele>26.0</ele><time>2026-04-23T09:12:06.357Z</time></trkpt><trkpt lat="33.7559717" lon="8.8773467"><ele>25.0</ele><time>2026-04-23T09:12:07.356Z</time></trkpt><trkpt lat="33.756125" lon="8.877145"><ele>25.0</ele><time>2026-04-23T09:12:08.356Z</time></trkpt><trkpt lat="33.7562767" lon="8.8769333"><ele>25.0</ele><time>2026-04-23T09:12:09.357Z</time></trkpt><trkpt lat="33.7564217" lon="8.87672"><ele>25.5</ele><time>2026-04-23T09:12:10.356Z</time></trkpt><trkpt lat="33.756575" lon="8.8765017"><ele>26.0</ele><time>2026-04-23T09:12:11.357Z</time></trkpt><trkpt lat="33.7567183" lon="8.87628"><ele>26.0</ele><time>2026-04-23T09:12:12.356Z</time></trkpt><trkpt lat="33.7568717" lon="8.8760533"><ele>26.0</ele><time>2026-04-23T09:12:13.356Z</time></trkpt><trkpt lat="33.7570133" lon="8.875825"><ele>26.0</ele><time>2026-04-23T09:12:14.357Z</time></trkpt><trkpt lat="33.757165" lon="8.8755883"><ele>26.0</ele><time>2026-04-23T09:12:15.356Z</time></trkpt><trkpt lat="33.7573183" lon="8.87536"><ele>26.0</ele><time>2026-04-23T09:12:16.356Z</time></trkpt><trkpt lat="33.7574767" lon="8.875135"><ele>26.0</ele><time>2026-04-23T09:12:17.356Z</time></trkpt><trkpt lat="33.75763" lon="8.8749233"><ele>26.0</ele><time>2026-04-23T09:12:18.357Z</time></trkpt><trkpt lat="33.757795" lon="8.8747167"><ele>26.0</ele><time>2026-04-23T09:12:19.357Z</time></trkpt><trkpt lat="33.7579683" lon="8.87453"><ele>26.0</ele><time>2026-04-23T09:12:20.357Z</time></trkpt><trkpt lat="33.7581417" lon="8.8743333"><ele>26.0</ele><time>2026-04-23T09:12:21.356Z</time></trkpt><trkpt lat="33.7583167" lon="8.8741517"><ele>26.0</ele><time>2026-04-23T09:12:22.357Z</time></trkpt><trkpt lat="33.75851" lon="8.87398"><ele>26.0</ele><time>2026-04-23T09:12:23.356Z</time></trkpt><trkpt lat="33.7586933" lon="8.8737967"><ele>26.5</ele><time>2026-04-23T09:12:24.356Z</time></trkpt><trkpt lat="33.758875" lon="8.873615"><ele>27.0</ele><time>2026-04-23T09:12:25.356Z</time></trkpt><trkpt lat="33.7590583" lon="8.8734383"><ele>26.5</ele><time>2026-04-23T09:12:26.357Z</time></trkpt><trkpt lat="33.7592483" lon="8.8732567"><ele>26.0</ele><time>2026-04-23T09:12:27.356Z</time></trkpt><trkpt lat="33.75943" lon="8.8730767"><ele>26.0</ele><time>2026-04-23T09:12:28.357Z</time></trkpt><trkpt lat="33.7596167" lon="8.8729017"><ele>26.0</ele><time>2026-04-23T09:12:29.356Z</time></trkpt><trkpt lat="33.7598017" lon="8.87272"><ele>26.5</ele><time>2026-04-23T09:12:30.356Z</time></trkpt><trkpt lat="33.7599883" lon="8.872545"><ele>27.0</ele><time>2026-04-23T09:12:31.356Z</time></trkpt><trkpt lat="33.7601717" lon="8.8723733"><ele>27.0</ele><time>2026-04-23T09:12:32.356Z</time></trkpt><trkpt lat="33.76036" lon="8.872205"><ele>27.0</ele><time>2026-04-23T09:12:33.357Z</time></trkpt><trkpt lat="33.760535" lon="8.8720367"><ele>27.0</ele><time>2026-04-23T09:12:34.357Z</time></trkpt><trkpt lat="33.760725" lon="8.8718683"><ele>27.0</ele><time>2026-04-23T09:12:35.356Z</time></trkpt><trkpt lat="33.76091" lon="8.871695"><ele>26.5</ele><time>2026-04-23T09:12:36.356Z</time></trkpt><trkpt lat="33.7610833" lon="8.871515"><ele>26.0</ele><time>2026-04-23T09:12:37.357Z</time></trkpt><trkpt lat="33.7612717" lon="8.87134"><ele>26.0</ele><time>2026-04-23T09:12:38.357Z</time></trkpt><trkpt lat="33.76145" lon="8.8711633"><ele>26.0</ele><time>2026-04-23T09:12:39.356Z</time></trkpt><trkpt lat="33.76163" lon="8.87098"><ele>25.5</ele><time>2026-04-23T09:12:40.356Z</time></trkpt><trkpt lat="33.76181" lon="8.87079"><ele>25.0</ele><time>2026-04-23T09:12:41.356Z</time></trkpt><trkpt lat="33.7619767" lon="8.8706033"><ele>27.5</ele><time>2026-04-23T09:12:42.356Z</time></trkpt><trkpt lat="33.7621417" lon="8.8704117"><ele>30.0</ele><time>2026-04-23T09:12:43.357Z</time></trkpt><trkpt lat="33.762305" lon="8.870215"><ele>29.0</ele><time>2026-04-23T09:12:44.356Z</time></trkpt><trkpt lat="33.7624667" lon="8.8700117"><ele>28.0</ele><time>2026-04-23T09:12:45.356Z</time></trkpt><trkpt lat="33.76263" lon="8.869805"><ele>28.5</ele><time>2026-04-23T09:12:46.356Z</time></trkpt><trkpt lat="33.7627917" lon="8.8695967"><ele>29.0</ele><time>2026-04-23T09:12:47.356Z</time></trkpt><trkpt lat="33.7629567" lon="8.8693883"><ele>29.0</ele><time>2026-04-23T09:12:48.357Z</time></trkpt><trkpt lat="33.7631167" lon="8.8691783"><ele>29.0</ele><time>2026-04-23T09:12:49.356Z</time></trkpt><trkpt lat="33.7632717" lon="8.8689717"><ele>29.0</ele><time>2026-04-23T09:12:50.356Z</time></trkpt><trkpt lat="33.763435" lon="8.8687717"><ele>29.0</ele><time>2026-04-23T09:12:51.356Z</time></trkpt><trkpt lat="33.7635817" lon="8.868565"><ele>29.5</ele><time>2026-04-23T09:12:52.357Z</time></trkpt><trkpt lat="33.76374" lon="8.8683633"><ele>30.0</ele><time>2026-04-23T09:12:53.357Z</time></trkpt><trkpt lat="33.7639" lon="8.868155"><ele>30.0</ele><time>2026-04-23T09:12:54.357Z</time></trkpt><trkpt lat="33.7640617" lon="8.867945"><ele>30.0</ele><time>2026-04-23T09:12:55.356Z</time></trkpt><trkpt lat="33.7642167" lon="8.86773"><ele>30.5</ele><time>2026-04-23T09:12:56.356Z</time></trkpt><trkpt lat="33.7643717" lon="8.8675283"><ele>31.0</ele><time>2026-04-23T09:12:57.357Z</time></trkpt><trkpt lat="33.764535" lon="8.8673267"><ele>31.0</ele><time>2026-04-23T09:12:58.356Z</time></trkpt><trkpt lat="33.7647" lon="8.8671233"><ele>31.0</ele><time>2026-04-23T09:12:59.356Z</time></trkpt><trkpt lat="33.76486" lon="8.8669233"><ele>31.0</ele><time>2026-04-23T09:13:00.356Z</time></trkpt><trkpt lat="33.7650167" lon="8.8667233"><ele>31.0</ele><time>2026-04-23T09:13:01.356Z</time></trkpt><trkpt lat="33.7651817" lon="8.866515"><ele>31.5</ele><time>2026-04-23T09:13:02.357Z</time></trkpt><trkpt lat="33.76534" lon="8.866315"><ele>32.0</ele><time>2026-04-23T09:13:03.356Z</time></trkpt><trkpt lat="33.765505" lon="8.8661067"><ele>31.0</ele><time>2026-04-23T09:13:04.356Z</time></trkpt><trkpt lat="33.7656617" lon="8.8658983"><ele>30.0</ele><time>2026-04-23T09:13:05.356Z</time></trkpt><trkpt lat="33.7658217" lon="8.8656867"><ele>30.0</ele><time>2026-04-23T09:13:06.357Z</time></trkpt><trkpt lat="33.7659817" lon="8.8654783"><ele>30.0</ele><time>2026-04-23T09:13:07.356Z</time></trkpt><trkpt lat="33.7661383" lon="8.8652667"><ele>30.0</ele><time>2026-04-23T09:13:08.357Z</time></trkpt><trkpt lat="33.7662917" lon="8.865055"><ele>30.0</ele><time>2026-04-23T09:13:09.356Z</time></trkpt><trkpt lat="33.7664467" lon="8.8648433"><ele>30.0</ele><time>2026-04-23T09:13:10.357Z</time></trkpt><trkpt lat="33.76661" lon="8.8646333"><ele>30.0</ele><time>2026-04-23T09:13:11.356Z</time></trkpt><trkpt lat="33.766775" lon="8.8644317"><ele>30.0</ele><time>2026-04-23T09:13:12.357Z</time></trkpt><trkpt lat="33.7669383" lon="8.8642367"><ele>30.0</ele><time>2026-04-23T09:13:13.356Z</time></trkpt><trkpt lat="33.7671083" lon="8.864045"><ele>30.0</ele><time>2026-04-23T09:13:14.357Z</time></trkpt><trkpt lat="33.767285" lon="8.8638583"><ele>30.0</ele><time>2026-04-23T09:13:15.357Z</time></trkpt><trkpt lat="33.767465" lon="8.8636767"><ele>30.0</ele><time>2026-04-23T09:13:16.356Z</time></trkpt><trkpt lat="33.7676517" lon="8.8634933"><ele>30.0</ele><time>2026-04-23T09:13:17.357Z</time></trkpt><trkpt lat="33.7678317" lon="8.8633083"><ele>30.5</ele><time>2026-04-23T09:13:18.356Z</time></trkpt><trkpt lat="33.7680167" lon="8.8631317"><ele>31.0</ele><time>2026-04-23T09:13:19.355Z</time></trkpt><trkpt lat="33.7682" lon="8.8629567"><ele>31.0</ele><time>2026-04-23T09:13:20.357Z</time></trkpt><trkpt lat="33.7683817" lon="8.86278"><ele>31.0</ele><time>2026-04-23T09:13:21.356Z</time></trkpt><trkpt lat="33.76856" lon="8.8625917"><ele>33.0</ele><time>2026-04-23T09:13:22.357Z</time></trkpt><trkpt lat="33.768735" lon="8.862405"><ele>35.0</ele><time>2026-04-23T09:13:23.357Z</time></trkpt><trkpt lat="33.76891" lon="8.8622167"><ele>35.0</ele><time>2026-04-23T09:13:24.356Z</time></trkpt><trkpt lat="33.7690867" lon="8.8620367"><ele>35.0</ele><time>2026-04-23T09:13:25.357Z</time></trkpt><trkpt lat="33.7692567" lon="8.8618567"><ele>36.0</ele><time>2026-04-23T09:13:26.357Z</time></trkpt><trkpt lat="33.7694217" lon="8.861675"><ele>37.0</ele><time>2026-04-23T09:13:27.356Z</time></trkpt><trkpt lat="33.7696033" lon="8.8615067"><ele>37.0</ele><time>2026-04-23T09:13:28.357Z</time></trkpt><trkpt lat="33.7697883" lon="8.8613433"><ele>37.0</ele><time>2026-04-23T09:13:29.357Z</time></trkpt><trkpt lat="33.7699883" lon="8.8611783"><ele>37.0</ele><time>2026-04-23T09:13:30.357Z</time></trkpt><trkpt lat="33.770175" lon="8.8610233"><ele>37.0</ele><time>2026-04-23T09:13:31.356Z</time></trkpt><trkpt lat="33.77035" lon="8.8608733"><ele>37.0</ele><time>2026-04-23T09:13:32.357Z</time></trkpt><trkpt lat="33.7705483" lon="8.860725"><ele>37.5</ele><time>2026-04-23T09:13:33.356Z</time></trkpt><trkpt lat="33.7707483" lon="8.860575"><ele>38.0</ele><time>2026-04-23T09:13:34.356Z</time></trkpt><trkpt lat="33.77094" lon="8.860425"><ele>38.666666666666664</ele><time>2026-04-23T09:13:35.357Z</time></trkpt><trkpt lat="33.77114" lon="8.8602983"><ele>39.333333333333336</ele><time>2026-04-23T09:13:36.357Z</time></trkpt><trkpt lat="33.7713283" lon="8.8601783"><ele>40.0</ele><time>2026-04-23T09:13:37.357Z</time></trkpt><trkpt lat="33.7715" lon="8.86007"><ele>40.0</ele><time>2026-04-23T09:13:38.356Z</time></trkpt><trkpt lat="33.7716767" lon="8.8599917"><ele>40.0</ele><time>2026-04-23T09:13:39.357Z</time></trkpt><trkpt lat="33.7718367" lon="8.8599317"><ele>40.0</ele><time>2026-04-23T09:13:40.356Z</time></trkpt><trkpt lat="33.7719767" lon="8.859875"><ele>40.75</ele><time>2026-04-23T09:13:41.356Z</time></trkpt><trkpt lat="33.77211" lon="8.85982"><ele>41.5</ele><time>2026-04-23T09:13:42.357Z</time></trkpt><trkpt lat="33.7722233" lon="8.8597633"><ele>42.25</ele><time>2026-04-23T09:13:43.356Z</time></trkpt><trkpt lat="33.7723367" lon="8.8597017"><ele>43.0</ele><time>2026-04-23T09:13:44.357Z</time></trkpt><trkpt lat="33.772445" lon="8.8596383"><ele>43.0</ele><time>2026-04-23T09:13:45.356Z</time></trkpt><trkpt lat="33.7725483" lon="8.8595767"><ele>43.0</ele><time>2026-04-23T09:13:46.356Z</time></trkpt><trkpt lat="33.7726417" lon="8.8595217"><ele>43.0</ele><time>2026-04-23T09:13:47.356Z</time></trkpt><trkpt lat="33.7727317" lon="8.8594717"><ele>43.0</ele><time>2026-04-23T09:13:48.357Z</time></trkpt><trkpt lat="33.7728133" lon="8.8594267"><ele>43.0</ele><time>2026-04-23T09:13:49.356Z</time></trkpt><trkpt lat="33.7728933" lon="8.8593817"><ele>43.0</ele><time>2026-04-23T09:13:50.357Z</time></trkpt><trkpt lat="33.7729733" lon="8.859335"><ele>43.0</ele><time>2026-04-23T09:13:51.356Z</time></trkpt><trkpt lat="33.7730433" lon="8.859275"><ele>43.0</ele><time>2026-04-23T09:13:52.356Z</time></trkpt><trkpt lat="33.7731183" lon="8.8591883"><ele>43.0</ele><time>2026-04-23T09:13:53.357Z</time></trkpt><trkpt lat="33.7731817" lon="8.8591017"><ele>43.0</ele><time>2026-04-23T09:13:54.357Z</time></trkpt><trkpt lat="33.7732433" lon="8.85901"><ele>43.2</ele><time>2026-04-23T09:13:55.356Z</time></trkpt><trkpt lat="33.77331" lon="8.85891"><ele>43.4</ele><time>2026-04-23T09:13:56.356Z</time></trkpt><trkpt lat="33.77338" lon="8.8588083"><ele>43.6</ele><time>2026-04-23T09:13:57.356Z</time></trkpt><trkpt lat="33.7734517" lon="8.8587067"><ele>43.800000000000004</ele><time>2026-04-23T09:13:58.357Z</time></trkpt><trkpt lat="33.7735333" lon="8.8586"><ele>44.0</ele><time>2026-04-23T09:13:59.357Z</time></trkpt><trkpt lat="33.77361" lon="8.8584983"><ele>44.2</ele><time>2026-04-23T09:14:00.356Z</time></trkpt><trkpt lat="33.77369" lon="8.858405"><ele>44.400000000000006</ele><time>2026-04-23T09:14:01.357Z</time></trkpt><trkpt lat="33.773765" lon="8.8583033"><ele>44.6</ele><time>2026-04-23T09:14:02.357Z</time></trkpt><trkpt lat="33.77385" lon="8.85821"><ele>44.8</ele><time>2026-04-23T09:14:03.356Z</time></trkpt><trkpt lat="33.773925" lon="8.858115"><ele>45.0</ele><time>2026-04-23T09:14:04.356Z</time></trkpt><trkpt lat="33.7739983" lon="8.8580133"><ele>45.0</ele><time>2026-04-23T09:14:05.357Z</time></trkpt><trkpt lat="33.77407" lon="8.8579167"><ele>45.0</ele><time>2026-04-23T09:14:06.357Z</time></trkpt><trkpt lat="33.7741533" lon="8.8578267"><ele>45.0</ele><time>2026-04-23T09:14:07.356Z</time></trkpt><trkpt lat="33.774235" lon="8.8577367"><ele>45.0</ele><time>2026-04-23T09:14:08.357Z</time></trkpt><trkpt lat="33.7743133" lon="8.8576417"><ele>45.0</ele><time>2026-04-23T09:14:09.357Z</time></trkpt><trkpt lat="33.774395" lon="8.8575433"><ele>45.25</ele><time>2026-04-23T09:14:10.356Z</time></trkpt><trkpt lat="33.7744783" lon="8.8574417"><ele>45.5</ele><time>2026-04-23T09:14:11.356Z</time></trkpt><trkpt lat="33.7745617" lon="8.8573433"><ele>45.75</ele><time>2026-04-23T09:14:12.357Z</time></trkpt><trkpt lat="33.7746483" lon="8.8572333"><ele>46.0</ele><time>2026-04-23T09:14:13.356Z</time></trkpt><trkpt lat="33.77473" lon="8.857125"><ele>46.0</ele><time>2026-04-23T09:14:14.356Z</time></trkpt><trkpt lat="33.7748217" lon="8.8570267"><ele>46.0</ele><time>2026-04-23T09:14:15.357Z</time></trkpt><trkpt lat="33.7749017" lon="8.8569183"><ele>46.0</ele><time>2026-04-23T09:14:16.356Z</time></trkpt><trkpt lat="33.775" lon="8.8568183"><ele>46.0</ele><time>2026-04-23T09:14:17.356Z</time></trkpt><trkpt lat="33.7751" lon="8.8567317"><ele>46.199999999999996</ele><time>2026-04-23T09:14:18.356Z</time></trkpt><trkpt lat="33.775185" lon="8.8566467"><ele>46.4</ele><time>2026-04-23T09:14:19.357Z</time></trkpt><trkpt lat="33.775265" lon="8.8565567"><ele>46.6</ele><time>2026-04-23T09:14:20.357Z</time></trkpt><trkpt lat="33.7753483" lon="8.8564667"><ele>46.8</ele><time>2026-04-23T09:14:21.357Z</time></trkpt><trkpt lat="33.775425" lon="8.8563683"><ele>47.0</ele><time>2026-04-23T09:14:22.356Z</time></trkpt><trkpt lat="33.7755033" lon="8.8562783"><ele>47.0</ele><time>2026-04-23T09:14:23.356Z</time></trkpt><trkpt lat="33.7755717" lon="8.856185"><ele>47.0</ele><time>2026-04-23T09:14:24.357Z</time></trkpt><trkpt lat="33.7756583" lon="8.856095"><ele>47.0</ele><time>2026-04-23T09:14:25.356Z</time></trkpt><trkpt lat="33.7757483" lon="8.8560067"><ele>47.0</ele><time>2026-04-23T09:14:26.357Z</time></trkpt><trkpt lat="33.7758333" lon="8.8559133"><ele>47.0</ele><time>2026-04-23T09:14:27.355Z</time></trkpt><trkpt lat="33.77591" lon="8.8558083"><ele>46.75</ele><time>2026-04-23T09:14:28.355Z</time></trkpt><trkpt lat="33.775985" lon="8.8557017"><ele>46.5</ele><time>2026-04-23T09:14:29.356Z</time></trkpt><trkpt lat="33.7760633" lon="8.8555967"><ele>46.25</ele><time>2026-04-23T09:14:30.355Z</time></trkpt><trkpt lat="33.7761367" lon="8.8554883"><ele>46.0</ele><time>2026-04-23T09:14:31.355Z</time></trkpt><trkpt lat="33.776205" lon="8.85539"><ele>46.0</ele><time>2026-04-23T09:14:32.356Z</time></trkpt><trkpt lat="33.776275" lon="8.8552967"><ele>46.0</ele><time>2026-04-23T09:14:33.355Z</time></trkpt><trkpt lat="33.7763333" lon="8.855205"><ele>46.0</ele><time>2026-04-23T09:14:34.355Z</time></trkpt><trkpt lat="33.7763867" lon="8.8551117"><ele>46.0</ele><time>2026-04-23T09:14:35.355Z</time></trkpt><trkpt lat="33.7764433" lon="8.85501"><ele>46.0</ele><time>2026-04-23T09:14:36.355Z</time></trkpt><trkpt lat="33.7764883" lon="8.8549117"><ele>46.0</ele><time>2026-04-23T09:14:37.356Z</time></trkpt><trkpt lat="33.7765233" lon="8.8548283"><ele>46.0</ele><time>2026-04-23T09:14:38.356Z</time></trkpt><trkpt lat="33.7765683" lon="8.854755"><ele>46.0</ele><time>2026-04-23T09:14:39.355Z</time></trkpt><trkpt lat="33.77661" lon="8.854695"><ele>46.0</ele><time>2026-04-23T09:14:40.356Z</time></trkpt><trkpt lat="33.776685" lon="8.8545917"><ele>46.0</ele><time>2026-04-23T09:14:42.356Z</time></trkpt><trkpt lat="33.776755" lon="8.854545"><ele>46.0</ele><time>2026-04-23T09:14:44.356Z</time></trkpt><trkpt lat="33.7768283" lon="8.8545667"><ele>46.16666666666667</ele><time>2026-04-23T09:14:47.356Z</time></trkpt><trkpt lat="33.7768933" lon="8.8546"><ele>46.333333333333336</ele><time>2026-04-23T09:14:51.355Z</time></trkpt><trkpt lat="33.7769617" lon="8.854575"><ele>46.5</ele><time>2026-04-23T09:18:40.355Z</time></trkpt><trkpt lat="33.7769683" lon="8.8544783"><ele>46.666666666666664</ele><time>2026-04-23T09:18:44.355Z</time></trkpt><trkpt lat="33.7769417" lon="8.854365"><ele>46.83333333333333</ele><time>2026-04-23T09:19:05.354Z</time></trkpt><trkpt lat="33.776955" lon="8.8542583"><ele>47.0</ele><time>2026-04-23T09:19:08.354Z</time></trkpt><trkpt lat="33.7770183" lon="8.8542383"><ele>47.0</ele><time>2026-04-23T09:19:10.354Z</time></trkpt><trkpt lat="33.77709" lon="8.8542183"><ele>47.0</ele><time>2026-04-23T09:19:13.355Z</time></trkpt><trkpt lat="33.7770933" lon="8.8541267"><ele>47.0</ele><time>2026-04-23T09:22:18.354Z</time></trkpt><trkpt lat="33.7771533" lon="8.8540517"><ele>47.0</ele><time>2026-04-23T09:22:21.355Z</time></trkpt><trkpt lat="33.7772567" lon="8.8539717"><ele>47.0</ele><time>2026-04-23T09:22:23.354Z</time></trkpt><trkpt lat="33.7773167" lon="8.8539267"><ele>47.0</ele><time>2026-04-23T09:22:24.355Z</time></trkpt><trkpt lat="33.777385" lon="8.8538767"><ele>47.0</ele><time>2026-04-23T09:22:25.354Z</time></trkpt><trkpt lat="33.7774567" lon="8.853825"><ele>47.0</ele><time>2026-04-23T09:22:26.355Z</time></trkpt><trkpt lat="33.7775283" lon="8.8537633"><ele>47.0</ele><time>2026-04-23T09:22:27.355Z</time></trkpt><trkpt lat="33.7776033" lon="8.853685"><ele>47.0</ele><time>2026-04-23T09:22:28.355Z</time></trkpt><trkpt lat="33.7776867" lon="8.853615"><ele>47.0</ele><time>2026-04-23T09:22:29.355Z</time></trkpt><trkpt lat="33.777765" lon="8.8535367"><ele>46.8</ele><time>2026-04-23T09:22:30.354Z</time></trkpt><trkpt lat="33.7778433" lon="8.85346"><ele>46.6</ele><time>2026-04-23T09:22:31.354Z</time></trkpt><trkpt lat="33.7779183" lon="8.853375"><ele>46.4</ele><time>2026-04-23T09:22:32.355Z</time></trkpt><trkpt lat="33.77799" lon="8.8532833"><ele>46.199999999999996</ele><time>2026-04-23T09:22:33.355Z</time></trkpt><trkpt lat="33.7780517" lon="8.8531867"><ele>46.0</ele><time>2026-04-23T09:22:34.355Z</time></trkpt><trkpt lat="33.7781133" lon="8.8530967"><ele>46.0</ele><time>2026-04-23T09:22:35.355Z</time></trkpt><trkpt lat="33.778165" lon="8.8530067"><ele>46.0</ele><time>2026-04-23T09:22:36.354Z</time></trkpt><trkpt lat="33.7782" lon="8.8529017"><ele>46.0</ele><time>2026-04-23T09:22:37.354Z</time></trkpt><trkpt lat="33.7782317" lon="8.8527917"><ele>46.0</ele><time>2026-04-23T09:22:38.355Z</time></trkpt><trkpt lat="33.7782517" lon="8.8526933"><ele>46.0</ele><time>2026-04-23T09:22:39.354Z</time></trkpt><trkpt lat="33.7782667" lon="8.8526017"><ele>46.0</ele><time>2026-04-23T09:22:40.355Z</time></trkpt><trkpt lat="33.7782767" lon="8.8525017"><ele>45.4</ele><time>2026-04-23T09:22:41.355Z</time></trkpt><trkpt lat="33.77829" lon="8.852395"><ele>44.8</ele><time>2026-04-23T09:22:42.355Z</time></trkpt><trkpt lat="33.7783017" lon="8.8522917"><ele>44.199999999999996</ele><time>2026-04-23T09:22:43.355Z</time></trkpt><trkpt lat="33.7783133" lon="8.85218"><ele>43.599999999999994</ele><time>2026-04-23T09:22:44.355Z</time></trkpt><trkpt lat="33.7783233" lon="8.852065"><ele>43.0</ele><time>2026-04-23T09:22:45.354Z</time></trkpt><trkpt lat="33.77833" lon="8.8519483"><ele>43.0</ele><time>2026-04-23T09:22:46.354Z</time></trkpt><trkpt lat="33.7783417" lon="8.851825"><ele>43.0</ele><time>2026-04-23T09:22:47.354Z</time></trkpt><trkpt lat="33.77835" lon="8.8517017"><ele>43.0</ele><time>2026-04-23T09:22:48.355Z</time></trkpt><trkpt lat="33.77837" lon="8.85158"><ele>43.0</ele><time>2026-04-23T09:22:49.355Z</time></trkpt><trkpt lat="33.7783917" lon="8.8514633"><ele>43.0</ele><time>2026-04-23T09:22:50.355Z</time></trkpt><trkpt lat="33.7784083" lon="8.8513417"><ele>43.2</ele><time>2026-04-23T09:22:51.354Z</time></trkpt><trkpt lat="33.778425" lon="8.851225"><ele>43.4</ele><time>2026-04-23T09:22:52.355Z</time></trkpt><trkpt lat="33.7784333" lon="8.8511067"><ele>43.6</ele><time>2026-04-23T09:22:53.354Z</time></trkpt><trkpt lat="33.77845" lon="8.8509883"><ele>43.800000000000004</ele><time>2026-04-23T09:22:54.354Z</time></trkpt><trkpt lat="33.7784633" lon="8.85087"><ele>44.0</ele><time>2026-04-23T09:22:55.354Z</time></trkpt><trkpt lat="33.7784767" lon="8.85075"><ele>44.400000000000006</ele><time>2026-04-23T09:22:56.355Z</time></trkpt><trkpt lat="33.7784883" lon="8.8506317"><ele>44.8</ele><time>2026-04-23T09:22:57.354Z</time></trkpt><trkpt lat="33.7785083" lon="8.8505133"><ele>45.2</ele><time>2026-04-23T09:22:58.355Z</time></trkpt><trkpt lat="33.7785283" lon="8.8503933"><ele>45.599999999999994</ele><time>2026-04-23T09:22:59.354Z</time></trkpt><trkpt lat="33.7785367" lon="8.8502717"><ele>46.0</ele><time>2026-04-23T09:23:00.355Z</time></trkpt><trkpt lat="33.778545" lon="8.8501467"><ele>46.4</ele><time>2026-04-23T09:23:01.355Z</time></trkpt><trkpt lat="33.7785583" lon="8.8500183"><ele>46.8</ele><time>2026-04-23T09:23:02.355Z</time></trkpt><trkpt lat="33.778575" lon="8.849895"><ele>47.199999999999996</ele><time>2026-04-23T09:23:03.355Z</time></trkpt><trkpt lat="33.7785917" lon="8.84977"><ele>47.599999999999994</ele><time>2026-04-23T09:23:04.354Z</time></trkpt><trkpt lat="33.7786067" lon="8.849645"><ele>48.0</ele><time>2026-04-23T09:23:05.354Z</time></trkpt><trkpt lat="33.7786317" lon="8.8495283"><ele>48.0</ele><time>2026-04-23T09:23:06.354Z</time></trkpt><trkpt lat="33.7786417" lon="8.8494367"><ele>48.0</ele><time>2026-04-23T09:23:07.355Z</time></trkpt><trkpt lat="33.778645" lon="8.8493417"><ele>48.0</ele><time>2026-04-23T09:23:09.355Z</time></trkpt><trkpt lat="33.7786567" lon="8.8492367"><ele>48.0</ele><time>2026-04-23T09:23:13.355Z</time></trkpt><trkpt lat="33.7786833" lon="8.8491067"><ele>48.0</ele><time>2026-04-23T09:23:15.355Z</time></trkpt><trkpt lat="33.7786883" lon="8.84903"><ele>48.0</ele><time>2026-04-23T09:23:16.354Z</time></trkpt><trkpt lat="33.7786983" lon="8.848945"><ele>48.2</ele><time>2026-04-23T09:23:17.354Z</time></trkpt><trkpt lat="33.778705" lon="8.8488467"><ele>48.4</ele><time>2026-04-23T09:23:18.353Z</time></trkpt><trkpt lat="33.778715" lon="8.8487383"><ele>48.6</ele><time>2026-04-23T09:23:19.353Z</time></trkpt><trkpt lat="33.77873" lon="8.848615"><ele>48.800000000000004</ele><time>2026-04-23T09:23:20.354Z</time></trkpt><trkpt lat="33.7787483" lon="8.8484933"><ele>49.0</ele><time>2026-04-23T09:23:21.354Z</time></trkpt><trkpt lat="33.7787567" lon="8.8483717"><ele>49.400000000000006</ele><time>2026-04-23T09:23:22.353Z</time></trkpt><trkpt lat="33.7787767" lon="8.8482517"><ele>49.8</ele><time>2026-04-23T09:23:23.354Z</time></trkpt><trkpt lat="33.778785" lon="8.848125"><ele>50.2</ele><time>2026-04-23T09:23:24.353Z</time></trkpt><trkpt lat="33.7787867" lon="8.84799"><ele>50.599999999999994</ele><time>2026-04-23T09:23:25.354Z</time></trkpt><trkpt lat="33.7787833" lon="8.8478483"><ele>51.0</ele><time>2026-04-23T09:23:26.353Z</time></trkpt><trkpt lat="33.7787683" lon="8.8477067"><ele>50.25</ele><time>2026-04-23T09:23:27.354Z</time></trkpt><trkpt lat="33.7787633" lon="8.847565"><ele>49.5</ele><time>2026-04-23T09:23:28.353Z</time></trkpt><trkpt lat="33.7787433" lon="8.847415"><ele>48.75</ele><time>2026-04-23T09:23:29.353Z</time></trkpt><trkpt lat="33.7787233" lon="8.84727"><ele>48.0</ele><time>2026-04-23T09:23:30.354Z</time></trkpt><trkpt lat="33.7787067" lon="8.8471133"><ele>48.0</ele><time>2026-04-23T09:23:31.353Z</time></trkpt><trkpt lat="33.7787" lon="8.8469617"><ele>48.0</ele><time>2026-04-23T09:23:32.353Z</time></trkpt><trkpt lat="33.778675" lon="8.8468133"><ele>48.0</ele><time>2026-04-23T09:23:33.354Z</time></trkpt><trkpt lat="33.7786567" lon="8.8466783"><ele>48.0</ele><time>2026-04-23T09:23:34.354Z</time></trkpt><trkpt lat="33.778645" lon="8.8465767"><ele>47.5</ele><time>2026-04-23T09:23:35.353Z</time></trkpt><trkpt lat="33.7786367" lon="8.8464883"><ele>47.0</ele><time>2026-04-23T09:23:36.353Z</time></trkpt><trkpt lat="33.7786283" lon="8.846395"><ele>46.5</ele><time>2026-04-23T09:23:37.353Z</time></trkpt><trkpt lat="33.77863" lon="8.8463"><ele>46.0</ele><time>2026-04-23T09:23:38.354Z</time></trkpt><trkpt lat="33.7786217" lon="8.8462033"><ele>45.5</ele><time>2026-04-23T09:23:39.354Z</time></trkpt><trkpt lat="33.778615" lon="8.8461017"><ele>45.0</ele><time>2026-04-23T09:23:40.353Z</time></trkpt><trkpt lat="33.7785967" lon="8.84598"><ele>45.5</ele><time>2026-04-23T09:23:41.353Z</time></trkpt><trkpt lat="33.7785783" lon="8.8458483"><ele>46.0</ele><time>2026-04-23T09:23:42.354Z</time></trkpt><trkpt lat="33.7785517" lon="8.8457117"><ele>46.5</ele><time>2026-04-23T09:23:43.353Z</time></trkpt><trkpt lat="33.7785417" lon="8.8455517"><ele>47.0</ele><time>2026-04-23T09:23:44.353Z</time></trkpt><trkpt lat="33.7785267" lon="8.84538"><ele>47.0</ele><time>2026-04-23T09:23:45.354Z</time></trkpt><trkpt lat="33.7785183" lon="8.8452"><ele>47.0</ele><time>2026-04-23T09:23:46.354Z</time></trkpt><trkpt lat="33.778525" lon="8.8450233"><ele>47.0</ele><time>2026-04-23T09:23:47.353Z</time></trkpt><trkpt lat="33.7785417" lon="8.8448467"><ele>47.0</ele><time>2026-04-23T09:23:48.354Z</time></trkpt><trkpt lat="33.7785583" lon="8.84467"><ele>47.33333333333333</ele><time>2026-04-23T09:23:49.353Z</time></trkpt><trkpt lat="33.7786" lon="8.8444883"><ele>47.666666666666664</ele><time>2026-04-23T09:23:50.353Z</time></trkpt><trkpt lat="33.778635" lon="8.844305"><ele>48.0</ele><time>2026-04-23T09:23:51.353Z</time></trkpt><trkpt lat="33.7786683" lon="8.8441233"><ele>47.5</ele><time>2026-04-23T09:23:52.354Z</time></trkpt><trkpt lat="33.77871" lon="8.843945"><ele>47.0</ele><time>2026-04-23T09:23:53.354Z</time></trkpt><trkpt lat="33.77875" lon="8.8437817"><ele>46.5</ele><time>2026-04-23T09:23:54.354Z</time></trkpt><trkpt lat="33.77879" lon="8.8436167"><ele>46.0</ele><time>2026-04-23T09:23:55.354Z</time></trkpt><trkpt lat="33.7788267" lon="8.8434583"><ele>46.0</ele><time>2026-04-23T09:23:56.353Z</time></trkpt><trkpt lat="33.7788567" lon="8.8433117"><ele>46.0</ele><time>2026-04-23T09:23:57.354Z</time></trkpt><trkpt lat="33.7788833" lon="8.84318"><ele>46.0</ele><time>2026-04-23T09:23:58.354Z</time></trkpt><trkpt lat="33.7789067" lon="8.8430483"><ele>46.0</ele><time>2026-04-23T09:23:59.353Z</time></trkpt><trkpt lat="33.7789267" lon="8.8429133"><ele>46.0</ele><time>2026-04-23T09:24:00.354Z</time></trkpt><trkpt lat="33.7789517" lon="8.8427817"><ele>46.0</ele><time>2026-04-23T09:24:01.354Z</time></trkpt><trkpt lat="33.7789767" lon="8.8426517"><ele>46.0</ele><time>2026-04-23T09:24:02.353Z</time></trkpt><trkpt lat="33.779" lon="8.842505"><ele>46.0</ele><time>2026-04-23T09:24:03.354Z</time></trkpt><trkpt lat="33.7790267" lon="8.84236"><ele>46.4</ele><time>2026-04-23T09:24:04.353Z</time></trkpt><trkpt lat="33.779055" lon="8.84222"><ele>46.8</ele><time>2026-04-23T09:24:05.353Z</time></trkpt><trkpt lat="33.779085" lon="8.8420817"><ele>47.199999999999996</ele><time>2026-04-23T09:24:06.354Z</time></trkpt><trkpt lat="33.7791133" lon="8.841965"><ele>47.599999999999994</ele><time>2026-04-23T09:24:07.353Z</time></trkpt><trkpt lat="33.7791317" lon="8.8418517"><ele>48.0</ele><time>2026-04-23T09:24:08.354Z</time></trkpt><trkpt lat="33.77916" lon="8.8417333"><ele>48.0</ele><time>2026-04-23T09:24:09.354Z</time></trkpt><trkpt lat="33.7791917" lon="8.8416133"><ele>48.0</ele><time>2026-04-23T09:24:10.353Z</time></trkpt><trkpt lat="33.7792183" lon="8.8414833"><ele>48.0</ele><time>2026-04-23T09:24:11.354Z</time></trkpt><trkpt lat="33.779245" lon="8.8413467"><ele>48.0</ele><time>2026-04-23T09:24:12.354Z</time></trkpt><trkpt lat="33.7792717" lon="8.8412033"><ele>48.0</ele><time>2026-04-23T09:24:13.354Z</time></trkpt><trkpt lat="33.7793067" lon="8.8410467"><ele>48.0</ele><time>2026-04-23T09:24:14.353Z</time></trkpt><trkpt lat="33.77934" lon="8.8408783"><ele>48.0</ele><time>2026-04-23T09:24:15.353Z</time></trkpt><trkpt lat="33.779375" lon="8.840705"><ele>48.0</ele><time>2026-04-23T09:24:16.354Z</time></trkpt><trkpt lat="33.77941" lon="8.8405217"><ele>48.0</ele><time>2026-04-23T09:24:17.354Z</time></trkpt><trkpt lat="33.779455" lon="8.8403333"><ele>48.0</ele><time>2026-04-23T09:24:18.353Z</time></trkpt><trkpt lat="33.779495" lon="8.8401467"><ele>48.0</ele><time>2026-04-23T09:24:19.354Z</time></trkpt><trkpt lat="33.7795417" lon="8.8399567"><ele>48.0</ele><time>2026-04-23T09:24:20.353Z</time></trkpt><trkpt lat="33.7795867" lon="8.8397717"><ele>48.0</ele><time>2026-04-23T09:24:21.353Z</time></trkpt><trkpt lat="33.7796267" lon="8.8395783"><ele>48.0</ele><time>2026-04-23T09:24:22.353Z</time></trkpt><trkpt lat="33.7796717" lon="8.8393817"><ele>47.666666666666664</ele><time>2026-04-23T09:24:23.354Z</time></trkpt><trkpt lat="33.7797233" lon="8.8391883"><ele>47.33333333333333</ele><time>2026-04-23T09:24:24.353Z</time></trkpt><trkpt lat="33.7797867" lon="8.8390033"><ele>47.0</ele><time>2026-04-23T09:24:25.353Z</time></trkpt><trkpt lat="33.779845" lon="8.838825"><ele>47.0</ele><time>2026-04-23T09:24:26.353Z</time></trkpt><trkpt lat="33.7799133" lon="8.8386533"><ele>47.0</ele><time>2026-04-23T09:24:27.354Z</time></trkpt><trkpt lat="33.7799717" lon="8.8384783"><ele>47.0</ele><time>2026-04-23T09:24:28.354Z</time></trkpt><trkpt lat="33.7800267" lon="8.8382983"><ele>46.666666666666664</ele><time>2026-04-23T09:24:29.353Z</time></trkpt><trkpt lat="33.7800817" lon="8.83812"><ele>46.333333333333336</ele><time>2026-04-23T09:24:30.353Z</time></trkpt><trkpt lat="33.7801367" lon="8.8379417"><ele>46.0</ele><time>2026-04-23T09:24:31.354Z</time></trkpt><trkpt lat="33.780195" lon="8.8377717"><ele>46.333333333333336</ele><time>2026-04-23T09:24:32.353Z</time></trkpt><trkpt lat="33.7802517" lon="8.8376"><ele>46.666666666666664</ele><time>2026-04-23T09:24:33.353Z</time></trkpt><trkpt lat="33.7803133" lon="8.8374267"><ele>47.0</ele><time>2026-04-23T09:24:34.354Z</time></trkpt><trkpt lat="33.7803733" lon="8.83727"><ele>47.0</ele><time>2026-04-23T09:24:35.353Z</time></trkpt><trkpt lat="33.7804333" lon="8.83712"><ele>47.0</ele><time>2026-04-23T09:24:36.354Z</time></trkpt><trkpt lat="33.7804967" lon="8.836965"><ele>47.0</ele><time>2026-04-23T09:24:37.353Z</time></trkpt><trkpt lat="33.780555" lon="8.8368117"><ele>47.0</ele><time>2026-04-23T09:24:38.353Z</time></trkpt><trkpt lat="33.78062" lon="8.8366733"><ele>47.0</ele><time>2026-04-23T09:24:39.354Z</time></trkpt><trkpt lat="33.7806917" lon="8.83654"><ele>47.0</ele><time>2026-04-23T09:24:40.354Z</time></trkpt><trkpt lat="33.7807583" lon="8.8363967"><ele>47.0</ele><time>2026-04-23T09:24:41.354Z</time></trkpt><trkpt lat="33.7808217" lon="8.8362617"><ele>47.0</ele><time>2026-04-23T09:24:42.353Z</time></trkpt><trkpt lat="33.7808917" lon="8.8361217"><ele>47.0</ele><time>2026-04-23T09:24:43.353Z</time></trkpt><trkpt lat="33.7809617" lon="8.8359933"><ele>47.0</ele><time>2026-04-23T09:24:44.353Z</time></trkpt><trkpt lat="33.78102" lon="8.835875"><ele>47.0</ele><time>2026-04-23T09:24:45.353Z</time></trkpt><trkpt lat="33.7810767" lon="8.8357617"><ele>47.0</ele><time>2026-04-23T09:24:46.354Z</time></trkpt><trkpt lat="33.7811267" lon="8.8356567"><ele>47.400000000000006</ele><time>2026-04-23T09:24:47.353Z</time></trkpt><trkpt lat="33.781175" lon="8.8355583"><ele>47.800000000000004</ele><time>2026-04-23T09:24:48.354Z</time></trkpt><trkpt lat="33.781215" lon="8.8354717"><ele>48.2</ele><time>2026-04-23T09:24:49.354Z</time></trkpt><trkpt lat="33.78125" lon="8.835395"><ele>48.6</ele><time>2026-04-23T09:24:50.354Z</time></trkpt><trkpt lat="33.7813067" lon="8.835265"><ele>49.0</ele><time>2026-04-23T09:24:52.354Z</time></trkpt><trkpt lat="33.7813583" lon="8.835155"><ele>48.83333333333333</ele><time>2026-04-23T09:24:54.353Z</time></trkpt><trkpt lat="33.7813933" lon="8.83506"><ele>48.666666666666664</ele><time>2026-04-23T09:24:56.353Z</time></trkpt><trkpt lat="33.78142" lon="8.8349767"><ele>48.5</ele><time>2026-04-23T09:24:58.353Z</time></trkpt><trkpt lat="33.7814517" lon="8.8348917"><ele>48.33333333333333</ele><time>2026-04-23T09:25:01.353Z</time></trkpt><trkpt lat="33.781465" lon="8.83476"><ele>48.166666666666664</ele><time>2026-04-23T09:25:15.353Z</time></trkpt><trkpt lat="33.7814917" lon="8.834665"><ele>48.0</ele><time>2026-04-23T09:25:16.353Z</time></trkpt><trkpt lat="33.7815233" lon="8.8345533"><ele>48.0</ele><time>2026-04-23T09:25:17.354Z</time></trkpt><trkpt lat="33.78156" lon="8.83443"><ele>48.0</ele><time>2026-04-23T09:25:18.354Z</time></trkpt><trkpt lat="33.7815967" lon="8.8342933"><ele>48.0</ele><time>2026-04-23T09:25:19.353Z</time></trkpt><trkpt lat="33.7816333" lon="8.83414"><ele>48.0</ele><time>2026-04-23T09:25:20.354Z</time></trkpt><trkpt lat="33.78166" lon="8.8339917"><ele>48.25</ele><time>2026-04-23T09:25:21.353Z</time></trkpt><trkpt lat="33.7816967" lon="8.8338283"><ele>48.5</ele><time>2026-04-23T09:25:22.353Z</time></trkpt><trkpt lat="33.7817283" lon="8.8336717"><ele>48.75</ele><time>2026-04-23T09:25:23.353Z</time></trkpt><trkpt lat="33.7817667" lon="8.8335133"><ele>49.0</ele><time>2026-04-23T09:25:24.354Z</time></trkpt><trkpt lat="33.781815" lon="8.833355"><ele>49.25</ele><time>2026-04-23T09:25:25.353Z</time></trkpt><trkpt lat="33.781865" lon="8.8331933"><ele>49.5</ele><time>2026-04-23T09:25:26.353Z</time></trkpt><trkpt lat="33.7819217" lon="8.83303"><ele>49.75</ele><time>2026-04-23T09:25:27.354Z</time></trkpt><trkpt lat="33.78198" lon="8.83286"><ele>50.0</ele><time>2026-04-23T09:25:28.353Z</time></trkpt><trkpt lat="33.7820417" lon="8.832695"><ele>49.25</ele><time>2026-04-23T09:25:29.353Z</time></trkpt><trkpt lat="33.7821033" lon="8.8325333"><ele>48.5</ele><time>2026-04-23T09:25:30.354Z</time></trkpt><trkpt lat="33.782165" lon="8.8323683"><ele>47.75</ele><time>2026-04-23T09:25:31.353Z</time></trkpt><trkpt lat="33.7822167" lon="8.8322017"><ele>47.0</ele><time>2026-04-23T09:25:32.354Z</time></trkpt><trkpt lat="33.7822867" lon="8.8320267"><ele>47.0</ele><time>2026-04-23T09:25:33.354Z</time></trkpt><trkpt lat="33.7823483" lon="8.8318483"><ele>47.0</ele><time>2026-04-23T09:25:34.353Z</time></trkpt><trkpt lat="33.7824033" lon="8.8316667"><ele>47.0</ele><time>2026-04-23T09:25:35.353Z</time></trkpt><trkpt lat="33.7824683" lon="8.8314883"><ele>47.33333333333333</ele><time>2026-04-23T09:25:36.353Z</time></trkpt><trkpt lat="33.782515" lon="8.8313033"><ele>47.666666666666664</ele><time>2026-04-23T09:25:37.354Z</time></trkpt><trkpt lat="33.78255" lon="8.8311067"><ele>48.0</ele><time>2026-04-23T09:25:38.354Z</time></trkpt><trkpt lat="33.782585" lon="8.8309183"><ele>48.0</ele><time>2026-04-23T09:25:39.354Z</time></trkpt><trkpt lat="33.7826267" lon="8.8307267"><ele>48.0</ele><time>2026-04-23T09:25:40.354Z</time></trkpt><trkpt lat="33.7826533" lon="8.8305367"><ele>48.0</ele><time>2026-04-23T09:25:41.354Z</time></trkpt><trkpt lat="33.7826833" lon="8.8303383"><ele>46.666666666666664</ele><time>2026-04-23T09:25:42.353Z</time></trkpt><trkpt lat="33.782715" lon="8.8301383"><ele>45.33333333333333</ele><time>2026-04-23T09:25:43.353Z</time></trkpt><trkpt lat="33.782745" lon="8.8299383"><ele>44.0</ele><time>2026-04-23T09:25:44.353Z</time></trkpt><trkpt lat="33.78278" lon="8.829735"><ele>44.0</ele><time>2026-04-23T09:25:45.354Z</time></trkpt><trkpt lat="33.7828067" lon="8.8295317"><ele>44.0</ele><time>2026-04-23T09:25:46.354Z</time></trkpt><trkpt lat="33.7828317" lon="8.8293283"><ele>44.0</ele><time>2026-04-23T09:25:47.354Z</time></trkpt><trkpt lat="33.7828617" lon="8.8291217"><ele>43.666666666666664</ele><time>2026-04-23T09:25:48.354Z</time></trkpt><trkpt lat="33.7828817" lon="8.8289117"><ele>43.333333333333336</ele><time>2026-04-23T09:25:49.353Z</time></trkpt><trkpt lat="33.7829117" lon="8.8287033"><ele>43.0</ele><time>2026-04-23T09:25:50.353Z</time></trkpt><trkpt lat="33.7829433" lon="8.828495"><ele>43.66666666666667</ele><time>2026-04-23T09:25:51.354Z</time></trkpt><trkpt lat="33.78297" lon="8.8282817"><ele>44.333333333333336</ele><time>2026-04-23T09:25:52.353Z</time></trkpt><trkpt lat="33.7830033" lon="8.8280733"><ele>45.0</ele><time>2026-04-23T09:25:53.354Z</time></trkpt><trkpt lat="33.7830333" lon="8.827865"><ele>45.0</ele><time>2026-04-23T09:25:54.354Z</time></trkpt><trkpt lat="33.7830583" lon="8.827655"><ele>45.0</ele><time>2026-04-23T09:25:55.353Z</time></trkpt><trkpt lat="33.78308" lon="8.8274433"><ele>45.0</ele><time>2026-04-23T09:25:56.354Z</time></trkpt><trkpt lat="33.7831117" lon="8.8272367"><ele>45.0</ele><time>2026-04-23T09:25:57.353Z</time></trkpt><trkpt lat="33.78314" lon="8.827035"><ele>45.0</ele><time>2026-04-23T09:25:58.354Z</time></trkpt><trkpt lat="33.783175" lon="8.8268483"><ele>45.0</ele><time>2026-04-23T09:25:59.353Z</time></trkpt><trkpt lat="33.7832083" lon="8.826675"><ele>45.0</ele><time>2026-04-23T09:26:00.354Z</time></trkpt><trkpt lat="33.7832367" lon="8.8265183"><ele>45.0</ele><time>2026-04-23T09:26:01.354Z</time></trkpt><trkpt lat="33.7832633" lon="8.8263733"><ele>45.0</ele><time>2026-04-23T09:26:02.353Z</time></trkpt><trkpt lat="33.7833017" lon="8.82624"><ele>45.0</ele><time>2026-04-23T09:26:03.353Z</time></trkpt><trkpt lat="33.78335" lon="8.8261"><ele>45.25</ele><time>2026-04-23T09:26:04.353Z</time></trkpt><trkpt lat="33.783405" lon="8.8259433"><ele>45.5</ele><time>2026-04-23T09:26:05.354Z</time></trkpt><trkpt lat="33.78347" lon="8.8257883"><ele>45.75</ele><time>2026-04-23T09:26:06.353Z</time></trkpt><trkpt lat="33.78354" lon="8.825635"><ele>46.0</ele><time>2026-04-23T09:26:07.353Z</time></trkpt><trkpt lat="33.7836083" lon="8.82547"><ele>46.0</ele><time>2026-04-23T09:26:08.354Z</time></trkpt><trkpt lat="33.7836783" lon="8.825305"><ele>46.0</ele><time>2026-04-23T09:26:09.353Z</time></trkpt><trkpt lat="33.78374" lon="8.825135"><ele>46.0</ele><time>2026-04-23T09:26:10.353Z</time></trkpt><trkpt lat="33.7838117" lon="8.8249483"><ele>46.0</ele><time>2026-04-23T09:26:11.354Z</time></trkpt><trkpt lat="33.7838867" lon="8.8247683"><ele>46.0</ele><time>2026-04-23T09:26:12.354Z</time></trkpt><trkpt lat="33.78395" lon="8.8246017"><ele>46.0</ele><time>2026-04-23T09:26:13.353Z</time></trkpt><trkpt lat="33.784005" lon="8.82444"><ele>45.75</ele><time>2026-04-23T09:26:14.354Z</time></trkpt><trkpt lat="33.7840517" lon="8.824295"><ele>45.5</ele><time>2026-04-23T09:26:15.353Z</time></trkpt><trkpt lat="33.7841017" lon="8.8241517"><ele>45.25</ele><time>2026-04-23T09:26:16.354Z</time></trkpt><trkpt lat="33.78414" lon="8.8240083"><ele>45.0</ele><time>2026-04-23T09:26:17.354Z</time></trkpt><trkpt lat="33.7841783" lon="8.8238667"><ele>45.0</ele><time>2026-04-23T09:26:18.353Z</time></trkpt><trkpt lat="33.784215" lon="8.8237333"><ele>45.0</ele><time>2026-04-23T09:26:19.354Z</time></trkpt><trkpt lat="33.7842483" lon="8.8235967"><ele>45.0</ele><time>2026-04-23T09:26:20.354Z</time></trkpt><trkpt lat="33.7842833" lon="8.8234517"><ele>45.0</ele><time>2026-04-23T09:26:21.353Z</time></trkpt><trkpt lat="33.7843083" lon="8.8233067"><ele>45.0</ele><time>2026-04-23T09:26:22.354Z</time></trkpt><trkpt lat="33.78434" lon="8.8231717"><ele>45.0</ele><time>2026-04-23T09:26:23.353Z</time></trkpt><trkpt lat="33.7843617" lon="8.823035"><ele>45.0</ele><time>2026-04-23T09:26:24.354Z</time></trkpt><trkpt lat="33.7843883" lon="8.8228917"><ele>45.0</ele><time>2026-04-23T09:26:25.354Z</time></trkpt><trkpt lat="33.7844083" lon="8.822745"><ele>44.75</ele><time>2026-04-23T09:26:26.354Z</time></trkpt><trkpt lat="33.7844433" lon="8.8226083"><ele>44.5</ele><time>2026-04-23T09:26:27.354Z</time></trkpt><trkpt lat="33.784475" lon="8.822465"><ele>44.25</ele><time>2026-04-23T09:26:28.354Z</time></trkpt><trkpt lat="33.784505" lon="8.8223033"><ele>44.0</ele><time>2026-04-23T09:26:29.353Z</time></trkpt><trkpt lat="33.784535" lon="8.822135"><ele>44.0</ele><time>2026-04-23T09:26:30.354Z</time></trkpt><trkpt lat="33.784575" lon="8.821975"><ele>44.0</ele><time>2026-04-23T09:26:31.353Z</time></trkpt><trkpt lat="33.78462" lon="8.8218067"><ele>44.0</ele><time>2026-04-23T09:26:32.353Z</time></trkpt><trkpt lat="33.7846533" lon="8.82165"><ele>44.0</ele><time>2026-04-23T09:26:33.354Z</time></trkpt><trkpt lat="33.7846783" lon="8.8214867"><ele>43.75</ele><time>2026-04-23T09:26:34.354Z</time></trkpt><trkpt lat="33.78471" lon="8.8213367"><ele>43.5</ele><time>2026-04-23T09:26:35.354Z</time></trkpt><trkpt lat="33.7847467" lon="8.8211817"><ele>43.25</ele><time>2026-04-23T09:26:36.354Z</time></trkpt><trkpt lat="33.78477" lon="8.8210317"><ele>43.0</ele><time>2026-04-23T09:26:37.354Z</time></trkpt><trkpt lat="33.7847917" lon="8.8208833"><ele>43.0</ele><time>2026-04-23T09:26:38.353Z</time></trkpt><trkpt lat="33.78482" lon="8.8207367"><ele>43.0</ele><time>2026-04-23T09:26:39.354Z</time></trkpt><trkpt lat="33.7848433" lon="8.8205867"><ele>43.0</ele><time>2026-04-23T09:26:40.353Z</time></trkpt><trkpt lat="33.7848617" lon="8.82045"><ele>43.0</ele><time>2026-04-23T09:26:41.353Z</time></trkpt><trkpt lat="33.78487" lon="8.82033"><ele>43.0</ele><time>2026-04-23T09:26:42.353Z</time></trkpt><trkpt lat="33.7848817" lon="8.8202167"><ele>43.0</ele><time>2026-04-23T09:26:43.354Z</time></trkpt><trkpt lat="33.7849" lon="8.82009"><ele>43.0</ele><time>2026-04-23T09:26:44.354Z</time></trkpt><trkpt lat="33.7849117" lon="8.8199567"><ele>43.0</ele><time>2026-04-23T09:26:45.353Z</time></trkpt><trkpt lat="33.7849267" lon="8.8198183"><ele>43.0</ele><time>2026-04-23T09:26:46.354Z</time></trkpt><trkpt lat="33.7849317" lon="8.81968"><ele>43.25</ele><time>2026-04-23T09:26:47.354Z</time></trkpt><trkpt lat="33.7849317" lon="8.81953"><ele>43.5</ele><time>2026-04-23T09:26:48.353Z</time></trkpt><trkpt lat="33.784935" lon="8.81937"><ele>43.75</ele><time>2026-04-23T09:26:49.354Z</time></trkpt><trkpt lat="33.7849283" lon="8.81921"><ele>44.0</ele><time>2026-04-23T09:26:50.353Z</time></trkpt><trkpt lat="33.784925" lon="8.8190583"><ele>43.25</ele><time>2026-04-23T09:26:51.353Z</time></trkpt><trkpt lat="33.7849083" lon="8.8189233"><ele>42.5</ele><time>2026-04-23T09:26:52.354Z</time></trkpt><trkpt lat="33.7848883" lon="8.81879"><ele>41.75</ele><time>2026-04-23T09:26:53.353Z</time></trkpt><trkpt lat="33.7848733" lon="8.8186517"><ele>41.0</ele><time>2026-04-23T09:26:54.353Z</time></trkpt><trkpt lat="33.7848483" lon="8.8185217"><ele>41.5</ele><time>2026-04-23T09:26:55.354Z</time></trkpt><trkpt lat="33.784825" lon="8.8183867"><ele>42.0</ele><time>2026-04-23T09:26:56.353Z</time></trkpt><trkpt lat="33.7848117" lon="8.8182533"><ele>42.5</ele><time>2026-04-23T09:26:57.354Z</time></trkpt><trkpt lat="33.7848" lon="8.81811"><ele>43.0</ele><time>2026-04-23T09:26:58.353Z</time></trkpt><trkpt lat="33.7847783" lon="8.8179617"><ele>43.0</ele><time>2026-04-23T09:26:59.354Z</time></trkpt><trkpt lat="33.7847567" lon="8.8178217"><ele>43.0</ele><time>2026-04-23T09:27:00.353Z</time></trkpt><trkpt lat="33.78474" lon="8.8176867"><ele>43.0</ele><time>2026-04-23T09:27:01.353Z</time></trkpt><trkpt lat="33.784725" lon="8.817555"><ele>43.0</ele><time>2026-04-23T09:27:02.352Z</time></trkpt><trkpt lat="33.78471" lon="8.8174267"><ele>43.2</ele><time>2026-04-23T09:27:03.353Z</time></trkpt><trkpt lat="33.7846967" lon="8.8173067"><ele>43.4</ele><time>2026-04-23T09:27:04.353Z</time></trkpt><trkpt lat="33.784685" lon="8.8171867"><ele>43.6</ele><time>2026-04-23T09:27:05.352Z</time></trkpt><trkpt lat="33.784675" lon="8.8170667"><ele>43.800000000000004</ele><time>2026-04-23T09:27:06.352Z</time></trkpt><trkpt lat="33.7846683" lon="8.8169517"><ele>44.0</ele><time>2026-04-23T09:27:07.352Z</time></trkpt><trkpt lat="33.7846567" lon="8.81685"><ele>44.166666666666664</ele><time>2026-04-23T09:27:08.353Z</time></trkpt><trkpt lat="33.7846517" lon="8.8167567"><ele>44.33333333333333</ele><time>2026-04-23T09:27:09.353Z</time></trkpt><trkpt lat="33.7846467" lon="8.816655"><ele>44.5</ele><time>2026-04-23T09:27:10.353Z</time></trkpt><trkpt lat="33.78464" lon="8.8165467"><ele>44.666666666666664</ele><time>2026-04-23T09:27:11.352Z</time></trkpt><trkpt lat="33.784645" lon="8.8164367"><ele>44.833333333333336</ele><time>2026-04-23T09:27:12.353Z</time></trkpt><trkpt lat="33.7846533" lon="8.8163217"><ele>45.0</ele><time>2026-04-23T09:27:13.353Z</time></trkpt><trkpt lat="33.7846517" lon="8.8162"><ele>45.0</ele><time>2026-04-23T09:27:14.352Z</time></trkpt><trkpt lat="33.784655" lon="8.81607"><ele>45.0</ele><time>2026-04-23T09:27:15.353Z</time></trkpt><trkpt lat="33.7846617" lon="8.8159383"><ele>45.0</ele><time>2026-04-23T09:27:16.353Z</time></trkpt><trkpt lat="33.78467" lon="8.8158017"><ele>45.0</ele><time>2026-04-23T09:27:17.353Z</time></trkpt><trkpt lat="33.78467" lon="8.8156617"><ele>45.0</ele><time>2026-04-23T09:27:18.352Z</time></trkpt><trkpt lat="33.7846733" lon="8.8155117"><ele>44.75</ele><time>2026-04-23T09:27:19.353Z</time></trkpt><trkpt lat="33.784685" lon="8.815355"><ele>44.5</ele><time>2026-04-23T09:27:20.352Z</time></trkpt><trkpt lat="33.7846867" lon="8.8152017"><ele>44.25</ele><time>2026-04-23T09:27:21.352Z</time></trkpt><trkpt lat="33.7846933" lon="8.8150467"><ele>44.0</ele><time>2026-04-23T09:27:22.353Z</time></trkpt><trkpt lat="33.78471" lon="8.8148917"><ele>44.0</ele><time>2026-04-23T09:27:23.353Z</time></trkpt><trkpt lat="33.7847317" lon="8.8147383"><ele>44.0</ele><time>2026-04-23T09:27:24.353Z</time></trkpt><trkpt lat="33.78475" lon="8.814585"><ele>44.0</ele><time>2026-04-23T09:27:25.352Z</time></trkpt><trkpt lat="33.7847717" lon="8.8144317"><ele>44.0</ele><time>2026-04-23T09:27:26.353Z</time></trkpt><trkpt lat="33.7848067" lon="8.8142817"><ele>43.75</ele><time>2026-04-23T09:27:27.352Z</time></trkpt><trkpt lat="33.7848483" lon="8.8141283"><ele>43.5</ele><time>2026-04-23T09:27:28.352Z</time></trkpt><trkpt lat="33.78489" lon="8.8139783"><ele>43.25</ele><time>2026-04-23T09:27:29.353Z</time></trkpt><trkpt lat="33.784935" lon="8.8138267"><ele>43.0</ele><time>2026-04-23T09:27:30.352Z</time></trkpt><trkpt lat="33.7849817" lon="8.81368"><ele>43.0</ele><time>2026-04-23T09:27:31.353Z</time></trkpt><trkpt lat="33.785025" lon="8.8135333"><ele>43.0</ele><time>2026-04-23T09:27:32.353Z</time></trkpt><trkpt lat="33.7850783" lon="8.8133867"><ele>43.0</ele><time>2026-04-23T09:27:33.353Z</time></trkpt><trkpt lat="33.7851317" lon="8.8132383"><ele>43.0</ele><time>2026-04-23T09:27:34.353Z</time></trkpt><trkpt lat="33.7851833" lon="8.8130917"><ele>43.25</ele><time>2026-04-23T09:27:35.353Z</time></trkpt><trkpt lat="33.7852333" lon="8.8129417"><ele>43.5</ele><time>2026-04-23T09:27:36.353Z</time></trkpt><trkpt lat="33.785285" lon="8.812805"><ele>43.75</ele><time>2026-04-23T09:27:37.353Z</time></trkpt><trkpt lat="33.7853333" lon="8.8126583"><ele>44.0</ele><time>2026-04-23T09:27:38.353Z</time></trkpt><trkpt lat="33.78538" lon="8.8125233"><ele>44.0</ele><time>2026-04-23T09:27:39.352Z</time></trkpt><trkpt lat="33.7854233" lon="8.8123883"><ele>44.0</ele><time>2026-04-23T09:27:40.353Z</time></trkpt><trkpt lat="33.7854633" lon="8.8122533"><ele>44.0</ele><time>2026-04-23T09:27:41.352Z</time></trkpt><trkpt lat="33.7855083" lon="8.812125"><ele>44.0</ele><time>2026-04-23T09:27:42.353Z</time></trkpt><trkpt lat="33.785555" lon="8.811995"><ele>44.0</ele><time>2026-04-23T09:27:43.353Z</time></trkpt><trkpt lat="33.7855967" lon="8.81187"><ele>44.0</ele><time>2026-04-23T09:27:44.352Z</time></trkpt><trkpt lat="33.7856333" lon="8.8117533"><ele>44.0</ele><time>2026-04-23T09:27:45.352Z</time></trkpt><trkpt lat="33.7856667" lon="8.8116467"><ele>44.0</ele><time>2026-04-23T09:27:46.353Z</time></trkpt><trkpt lat="33.7857067" lon="8.8115483"><ele>44.0</ele><time>2026-04-23T09:27:47.352Z</time></trkpt><trkpt lat="33.78574" lon="8.8114533"><ele>43.666666666666664</ele><time>2026-04-23T09:27:48.352Z</time></trkpt><trkpt lat="33.785765" lon="8.8113633"><ele>43.33333333333333</ele><time>2026-04-23T09:27:49.352Z</time></trkpt><trkpt lat="33.7857967" lon="8.8112867"><ele>43.0</ele><time>2026-04-23T09:27:50.353Z</time></trkpt><trkpt lat="33.785825" lon="8.8112017"><ele>42.666666666666664</ele><time>2026-04-23T09:27:51.353Z</time></trkpt><trkpt lat="33.7858617" lon="8.8111"><ele>42.333333333333336</ele><time>2026-04-23T09:27:52.352Z</time></trkpt><trkpt lat="33.7858933" lon="8.811"><ele>42.0</ele><time>2026-04-23T09:27:53.353Z</time></trkpt><trkpt lat="33.78593" lon="8.8109017"><ele>42.0</ele><time>2026-04-23T09:27:54.352Z</time></trkpt><trkpt lat="33.78597" lon="8.8107967"><ele>42.0</ele><time>2026-04-23T09:27:55.352Z</time></trkpt><trkpt lat="33.7860133" lon="8.8106817"><ele>42.0</ele><time>2026-04-23T09:27:56.352Z</time></trkpt><trkpt lat="33.7860533" lon="8.8105683"><ele>42.0</ele><time>2026-04-23T09:27:57.352Z</time></trkpt><trkpt lat="33.7860917" lon="8.8104483"><ele>42.0</ele><time>2026-04-23T09:27:58.352Z</time></trkpt><trkpt lat="33.7861383" lon="8.8103283"><ele>42.0</ele><time>2026-04-23T09:27:59.352Z</time></trkpt><trkpt lat="33.7861833" lon="8.8101933"><ele>42.0</ele><time>2026-04-23T09:28:00.352Z</time></trkpt><trkpt lat="33.7862283" lon="8.8100517"><ele>42.0</ele><time>2026-04-23T09:28:01.353Z</time></trkpt><trkpt lat="33.7862767" lon="8.8099167"><ele>42.0</ele><time>2026-04-23T09:28:02.353Z</time></trkpt><trkpt lat="33.7863217" lon="8.809775"><ele>42.5</ele><time>2026-04-23T09:28:03.353Z</time></trkpt><trkpt lat="33.7863683" lon="8.8096267"><ele>43.0</ele><time>2026-04-23T09:28:04.352Z</time></trkpt><trkpt lat="33.7864183" lon="8.8094667"><ele>43.5</ele><time>2026-04-23T09:28:05.352Z</time></trkpt><trkpt lat="33.7864733" lon="8.8093067"><ele>44.0</ele><time>2026-04-23T09:28:06.353Z</time></trkpt><trkpt lat="33.7865183" lon="8.80915"><ele>44.25</ele><time>2026-04-23T09:28:07.352Z</time></trkpt><trkpt lat="33.7865733" lon="8.808995"><ele>44.5</ele><time>2026-04-23T09:28:08.353Z</time></trkpt><trkpt lat="33.786625" lon="8.808835"><ele>44.75</ele><time>2026-04-23T09:28:09.352Z</time></trkpt><trkpt lat="33.7866783" lon="8.8086733"><ele>45.0</ele><time>2026-04-23T09:28:10.353Z</time></trkpt><trkpt lat="33.7867333" lon="8.8085183"><ele>44.75</ele><time>2026-04-23T09:28:11.353Z</time></trkpt><trkpt lat="33.7867883" lon="8.808355"><ele>44.5</ele><time>2026-04-23T09:28:12.353Z</time></trkpt><trkpt lat="33.7868483" lon="8.8081883"><ele>44.25</ele><time>2026-04-23T09:28:13.352Z</time></trkpt><trkpt lat="33.7868983" lon="8.808025"><ele>44.0</ele><time>2026-04-23T09:28:14.353Z</time></trkpt><trkpt lat="33.78695" lon="8.807865"><ele>43.75</ele><time>2026-04-23T09:28:15.352Z</time></trkpt><trkpt lat="33.7869967" lon="8.8077067"><ele>43.5</ele><time>2026-04-23T09:28:16.352Z</time></trkpt><trkpt lat="33.7870583" lon="8.8075467"><ele>43.25</ele><time>2026-04-23T09:28:17.352Z</time></trkpt><trkpt lat="33.7871067" lon="8.807385"><ele>43.0</ele><time>2026-04-23T09:28:18.353Z</time></trkpt><trkpt lat="33.7871533" lon="8.8072283"><ele>43.0</ele><time>2026-04-23T09:28:19.353Z</time></trkpt><trkpt lat="33.787205" lon="8.8070817"><ele>43.0</ele><time>2026-04-23T09:28:20.352Z</time></trkpt><trkpt lat="33.787255" lon="8.8069433"><ele>43.0</ele><time>2026-04-23T09:28:21.352Z</time></trkpt><trkpt lat="33.7872983" lon="8.806815"><ele>43.0</ele><time>2026-04-23T09:28:22.352Z</time></trkpt><trkpt lat="33.7873467" lon="8.8066833"><ele>43.0</ele><time>2026-04-23T09:28:23.353Z</time></trkpt><trkpt lat="33.7873967" lon="8.8065567"><ele>43.0</ele><time>2026-04-23T09:28:24.353Z</time></trkpt><trkpt lat="33.7874367" lon="8.8064367"><ele>43.0</ele><time>2026-04-23T09:28:25.352Z</time></trkpt><trkpt lat="33.787475" lon="8.8063167"><ele>43.0</ele><time>2026-04-23T09:28:26.352Z</time></trkpt><trkpt lat="33.7875167" lon="8.8062033"><ele>43.0</ele><time>2026-04-23T09:28:27.352Z</time></trkpt><trkpt lat="33.7875533" lon="8.8061017"><ele>43.0</ele><time>2026-04-23T09:28:28.353Z</time></trkpt><trkpt lat="33.7875867" lon="8.806015"><ele>43.0</ele><time>2026-04-23T09:28:29.353Z</time></trkpt><trkpt lat="33.7876283" lon="8.8059083"><ele>43.0</ele><time>2026-04-23T09:28:31.352Z</time></trkpt><trkpt lat="33.787655" lon="8.8057817"><ele>43.0</ele><time>2026-04-23T09:28:41.353Z</time></trkpt><trkpt lat="33.7876783" lon="8.8056767"><ele>43.0</ele><time>2026-04-23T09:28:42.353Z</time></trkpt><trkpt lat="33.7877133" lon="8.8055517"><ele>43.0</ele><time>2026-04-23T09:28:43.353Z</time></trkpt><trkpt lat="33.787755" lon="8.805415"><ele>43.0</ele><time>2026-04-23T09:28:44.352Z</time></trkpt><trkpt lat="33.7878067" lon="8.805265"><ele>43.0</ele><time>2026-04-23T09:28:45.352Z</time></trkpt><trkpt lat="33.7878483" lon="8.8051283"><ele>43.0</ele><time>2026-04-23T09:28:46.352Z</time></trkpt><trkpt lat="33.787885" lon="8.8049983"><ele>42.75</ele><time>2026-04-23T09:28:47.352Z</time></trkpt><trkpt lat="33.7879233" lon="8.8048783"><ele>42.5</ele><time>2026-04-23T09:28:48.353Z</time></trkpt><trkpt lat="33.7879633" lon="8.8047533"><ele>42.25</ele><time>2026-04-23T09:28:49.353Z</time></trkpt><trkpt lat="33.7880083" lon="8.8046233"><ele>42.0</ele><time>2026-04-23T09:28:50.353Z</time></trkpt><trkpt lat="33.7880483" lon="8.80449"><ele>42.0</ele><time>2026-04-23T09:28:51.352Z</time></trkpt><trkpt lat="33.7880967" lon="8.8043567"><ele>42.0</ele><time>2026-04-23T09:28:52.353Z</time></trkpt><trkpt lat="33.7881417" lon="8.8042267"><ele>42.0</ele><time>2026-04-23T09:28:53.353Z</time></trkpt><trkpt lat="33.7881933" lon="8.804085"><ele>42.0</ele><time>2026-04-23T09:28:54.353Z</time></trkpt><trkpt lat="33.78825" lon="8.8039433"><ele>42.0</ele><time>2026-04-23T09:28:55.352Z</time></trkpt><trkpt lat="33.7883017" lon="8.80379"><ele>42.0</ele><time>2026-04-23T09:28:56.353Z</time></trkpt><trkpt lat="33.7883533" lon="8.8036333"><ele>42.0</ele><time>2026-04-23T09:28:57.352Z</time></trkpt><trkpt lat="33.7883967" lon="8.8034767"><ele>42.0</ele><time>2026-04-23T09:28:58.353Z</time></trkpt><trkpt lat="33.7884283" lon="8.80333"><ele>42.0</ele><time>2026-04-23T09:28:59.352Z</time></trkpt><trkpt lat="33.7884583" lon="8.80319"><ele>42.0</ele><time>2026-04-23T09:29:00.352Z</time></trkpt><trkpt lat="33.78849" lon="8.8030417"><ele>42.0</ele><time>2026-04-23T09:29:01.353Z</time></trkpt><trkpt lat="33.788515" lon="8.8028967"><ele>42.0</ele><time>2026-04-23T09:29:02.353Z</time></trkpt><trkpt lat="33.788535" lon="8.8027567"><ele>42.25</ele><time>2026-04-23T09:29:03.353Z</time></trkpt><trkpt lat="33.7885733" lon="8.8026067"><ele>42.5</ele><time>2026-04-23T09:29:04.353Z</time></trkpt><trkpt lat="33.788615" lon="8.802455"><ele>42.75</ele><time>2026-04-23T09:29:05.352Z</time></trkpt><trkpt lat="33.788655" lon="8.8023017"><ele>43.0</ele><time>2026-04-23T09:29:06.352Z</time></trkpt><trkpt lat="33.7886933" lon="8.80215"><ele>43.0</ele><time>2026-04-23T09:29:07.352Z</time></trkpt><trkpt lat="33.788725" lon="8.8020017"><ele>43.0</ele><time>2026-04-23T09:29:08.352Z</time></trkpt><trkpt lat="33.7887683" lon="8.8018533"><ele>43.0</ele><time>2026-04-23T09:29:09.353Z</time></trkpt><trkpt lat="33.78881" lon="8.8017033"><ele>43.0</ele><time>2026-04-23T09:29:10.352Z</time></trkpt><trkpt lat="33.78886" lon="8.8015467"><ele>42.75</ele><time>2026-04-23T09:29:11.353Z</time></trkpt><trkpt lat="33.78891" lon="8.8013883"><ele>42.5</ele><time>2026-04-23T09:29:12.352Z</time></trkpt><trkpt lat="33.7889617" lon="8.8012267"><ele>42.25</ele><time>2026-04-23T09:29:13.353Z</time></trkpt><trkpt lat="33.789015" lon="8.80107"><ele>42.0</ele><time>2026-04-23T09:29:14.352Z</time></trkpt><trkpt lat="33.7890683" lon="8.8009083"><ele>41.75</ele><time>2026-04-23T09:29:15.352Z</time></trkpt><trkpt lat="33.7891283" lon="8.80074"><ele>41.5</ele><time>2026-04-23T09:29:16.353Z</time></trkpt><trkpt lat="33.7891833" lon="8.8005767"><ele>41.25</ele><time>2026-04-23T09:29:17.352Z</time></trkpt><trkpt lat="33.78924" lon="8.80042"><ele>41.0</ele><time>2026-04-23T09:29:18.353Z</time></trkpt><trkpt lat="33.789295" lon="8.800265"><ele>41.25</ele><time>2026-04-23T09:29:19.352Z</time></trkpt><trkpt lat="33.789345" lon="8.8001017"><ele>41.5</ele><time>2026-04-23T09:29:20.353Z</time></trkpt><trkpt lat="33.7893917" lon="8.79994"><ele>41.75</ele><time>2026-04-23T09:29:21.352Z</time></trkpt><trkpt lat="33.7894417" lon="8.7997783"><ele>42.0</ele><time>2026-04-23T09:29:22.352Z</time></trkpt><trkpt lat="33.7894967" lon="8.7996283"><ele>42.0</ele><time>2026-04-23T09:29:23.353Z</time></trkpt><trkpt lat="33.7895467" lon="8.7994683"><ele>42.0</ele><time>2026-04-23T09:29:24.353Z</time></trkpt><trkpt lat="33.7896083" lon="8.799315"><ele>42.0</ele><time>2026-04-23T09:29:25.353Z</time></trkpt><trkpt lat="33.789665" lon="8.79917"><ele>42.0</ele><time>2026-04-23T09:29:26.353Z</time></trkpt><trkpt lat="33.7897083" lon="8.7990283"><ele>42.0</ele><time>2026-04-23T09:29:27.353Z</time></trkpt><trkpt lat="33.7897533" lon="8.7988933"><ele>42.0</ele><time>2026-04-23T09:29:28.353Z</time></trkpt><trkpt lat="33.78979" lon="8.7987533"><ele>42.0</ele><time>2026-04-23T09:29:29.353Z</time></trkpt><trkpt lat="33.7898267" lon="8.7986033"><ele>42.0</ele><time>2026-04-23T09:29:30.352Z</time></trkpt><trkpt lat="33.7898717" lon="8.79846"><ele>41.8</ele><time>2026-04-23T09:29:31.352Z</time></trkpt><trkpt lat="33.7899117" lon="8.7983233"><ele>41.6</ele><time>2026-04-23T09:29:32.353Z</time></trkpt><trkpt lat="33.7899483" lon="8.798205"><ele>41.4</ele><time>2026-04-23T09:29:33.353Z</time></trkpt><trkpt lat="33.7899867" lon="8.798095"><ele>41.199999999999996</ele><time>2026-04-23T09:29:34.352Z</time></trkpt><trkpt lat="33.79002" lon="8.7979933"><ele>41.0</ele><time>2026-04-23T09:29:35.353Z</time></trkpt><trkpt lat="33.7900567" lon="8.7978867"><ele>41.0</ele><time>2026-04-23T09:29:36.353Z</time></trkpt><trkpt lat="33.79009" lon="8.7977767"><ele>41.0</ele><time>2026-04-23T09:29:37.352Z</time></trkpt><trkpt lat="33.7901317" lon="8.797655"><ele>41.0</ele><time>2026-04-23T09:29:38.352Z</time></trkpt><trkpt lat="33.7901683" lon="8.7975367"><ele>41.0</ele><time>2026-04-23T09:29:39.353Z</time></trkpt><trkpt lat="33.7901967" lon="8.7974267"><ele>41.0</ele><time>2026-04-23T09:29:40.352Z</time></trkpt><trkpt lat="33.790225" lon="8.797335"><ele>41.0</ele><time>2026-04-23T09:29:41.353Z</time></trkpt><trkpt lat="33.7902483" lon="8.7972567"><ele>41.0</ele><time>2026-04-23T09:29:42.352Z</time></trkpt><trkpt lat="33.7902783" lon="8.7971733"><ele>41.0</ele><time>2026-04-23T09:29:44.352Z</time></trkpt><trkpt lat="33.7903" lon="8.7970417"><ele>41.0</ele><time>2026-04-23T09:29:47.352Z</time></trkpt><trkpt lat="33.7903067" lon="8.796965"><ele>41.0</ele><time>2026-04-23T09:29:48.353Z</time></trkpt><trkpt lat="33.7903183" lon="8.7968783"><ele>41.0</ele><time>2026-04-23T09:29:49.353Z</time></trkpt><trkpt lat="33.790335" lon="8.7967833"><ele>41.4</ele><time>2026-04-23T09:29:50.353Z</time></trkpt><trkpt lat="33.7903433" lon="8.7966833"><ele>41.8</ele><time>2026-04-23T09:29:51.353Z</time></trkpt><trkpt lat="33.7903683" lon="8.7965717"><ele>42.199999999999996</ele><time>2026-04-23T09:29:52.353Z</time></trkpt><trkpt lat="33.79038" lon="8.796455"><ele>42.599999999999994</ele><time>2026-04-23T09:29:53.353Z</time></trkpt><trkpt lat="33.7903883" lon="8.796325"><ele>43.0</ele><time>2026-04-23T09:29:54.353Z</time></trkpt><trkpt lat="33.7903967" lon="8.7961933"><ele>43.0</ele><time>2026-04-23T09:29:55.352Z</time></trkpt><trkpt lat="33.7904083" lon="8.79605"><ele>43.0</ele><time>2026-04-23T09:29:56.352Z</time></trkpt><trkpt lat="33.7904117" lon="8.795905"><ele>43.0</ele><time>2026-04-23T09:29:57.352Z</time></trkpt><trkpt lat="33.7904283" lon="8.7957533"><ele>43.0</ele><time>2026-04-23T09:29:58.353Z</time></trkpt><trkpt lat="33.7904367" lon="8.7956083"><ele>42.5</ele><time>2026-04-23T09:29:59.352Z</time></trkpt><trkpt lat="33.790445" lon="8.7954633"><ele>42.0</ele><time>2026-04-23T09:30:00.352Z</time></trkpt><trkpt lat="33.7904533" lon="8.7953117"><ele>41.5</ele><time>2026-04-23T09:30:01.352Z</time></trkpt><trkpt lat="33.79047" lon="8.7951667"><ele>41.0</ele><time>2026-04-23T09:30:02.352Z</time></trkpt><trkpt lat="33.7904867" lon="8.795025"><ele>41.0</ele><time>2026-04-23T09:30:03.352Z</time></trkpt><trkpt lat="33.790495" lon="8.79489"><ele>41.0</ele><time>2026-04-23T09:30:04.352Z</time></trkpt><trkpt lat="33.7904967" lon="8.7947667"><ele>41.0</ele><time>2026-04-23T09:30:05.352Z</time></trkpt><trkpt lat="33.7904917" lon="8.7946417"><ele>41.0</ele><time>2026-04-23T09:30:06.353Z</time></trkpt><trkpt lat="33.7904983" lon="8.7945117"><ele>41.0</ele><time>2026-04-23T09:30:07.352Z</time></trkpt><trkpt lat="33.7905083" lon="8.7943717"><ele>40.75</ele><time>2026-04-23T09:30:08.353Z</time></trkpt><trkpt lat="33.7905233" lon="8.7942333"><ele>40.5</ele><time>2026-04-23T09:30:09.353Z</time></trkpt><trkpt lat="33.7905417" lon="8.79409"><ele>40.25</ele><time>2026-04-23T09:30:10.352Z</time></trkpt><trkpt lat="33.7905633" lon="8.7939467"><ele>40.0</ele><time>2026-04-23T09:30:11.352Z</time></trkpt><trkpt lat="33.7905833" lon="8.7938017"><ele>40.0</ele><time>2026-04-23T09:30:12.352Z</time></trkpt><trkpt lat="33.7906167" lon="8.7936583"><ele>40.0</ele><time>2026-04-23T09:30:13.353Z</time></trkpt><trkpt lat="33.790655" lon="8.7935117"><ele>40.0</ele><time>2026-04-23T09:30:14.352Z</time></trkpt><trkpt lat="33.7907" lon="8.7933783"><ele>40.0</ele><time>2026-04-23T09:30:15.352Z</time></trkpt><trkpt lat="33.790755" lon="8.7932467"><ele>40.25</ele><time>2026-04-23T09:30:16.353Z</time></trkpt><trkpt lat="33.7908117" lon="8.793115"><ele>40.5</ele><time>2026-04-23T09:30:17.352Z</time></trkpt><trkpt lat="33.790885" lon="8.7929767"><ele>40.75</ele><time>2026-04-23T09:30:18.353Z</time></trkpt><trkpt lat="33.7909717" lon="8.7928367"><ele>41.0</ele><time>2026-04-23T09:30:19.353Z</time></trkpt><trkpt lat="33.7910633" lon="8.7927033"><ele>40.0</ele><time>2026-04-23T09:30:20.353Z</time></trkpt><trkpt lat="33.7911633" lon="8.7925867"><ele>39.0</ele><time>2026-04-23T09:30:21.353Z</time></trkpt><trkpt lat="33.7912783" lon="8.7924633"><ele>38.0</ele><time>2026-04-23T09:30:22.353Z</time></trkpt><trkpt lat="33.7913967" lon="8.7923467"><ele>37.0</ele><time>2026-04-23T09:30:23.353Z</time></trkpt><trkpt lat="33.79153" lon="8.792235"><ele>37.0</ele><time>2026-04-23T09:30:24.353Z</time></trkpt><trkpt lat="33.7916783" lon="8.7921367"><ele>37.0</ele><time>2026-04-23T09:30:25.352Z</time></trkpt><trkpt lat="33.7918183" lon="8.7920683"><ele>37.0</ele><time>2026-04-23T09:30:26.353Z</time></trkpt><trkpt lat="33.7919633" lon="8.7920083"><ele>37.0</ele><time>2026-04-23T09:30:27.353Z</time></trkpt><trkpt lat="33.792125" lon="8.7919483"><ele>37.0</ele><time>2026-04-23T09:30:28.353Z</time></trkpt><trkpt lat="33.7922967" lon="8.7918883"><ele>37.0</ele><time>2026-04-23T09:30:29.352Z</time></trkpt><trkpt lat="33.792465" lon="8.7918383"><ele>36.66666666666667</ele><time>2026-04-23T09:30:30.353Z</time></trkpt><trkpt lat="33.792635" lon="8.7918"><ele>36.333333333333336</ele><time>2026-04-23T09:30:31.352Z</time></trkpt><trkpt lat="33.7928083" lon="8.7917783"><ele>36.0</ele><time>2026-04-23T09:30:32.353Z</time></trkpt><trkpt lat="33.7929817" lon="8.7917533"><ele>36.0</ele><time>2026-04-23T09:30:33.352Z</time></trkpt><trkpt lat="33.7931567" lon="8.7917217"><ele>36.0</ele><time>2026-04-23T09:30:34.352Z</time></trkpt><trkpt lat="33.79333" lon="8.7916917"><ele>36.0</ele><time>2026-04-23T09:30:35.353Z</time></trkpt><trkpt lat="33.7935" lon="8.791665"><ele>35.0</ele><time>2026-04-23T09:30:36.353Z</time></trkpt><trkpt lat="33.7936717" lon="8.7916333"><ele>34.0</ele><time>2026-04-23T09:30:37.352Z</time></trkpt><trkpt lat="33.793845" lon="8.7916033"><ele>33.0</ele><time>2026-04-23T09:30:38.352Z</time></trkpt><trkpt lat="33.7940233" lon="8.79156"><ele>33.0</ele><time>2026-04-23T09:30:39.353Z</time></trkpt><trkpt lat="33.7942083" lon="8.79152"><ele>33.0</ele><time>2026-04-23T09:30:40.353Z</time></trkpt><trkpt lat="33.7943917" lon="8.7914683"><ele>33.0</ele><time>2026-04-23T09:30:41.352Z</time></trkpt><trkpt lat="33.7945833" lon="8.79141"><ele>32.666666666666664</ele><time>2026-04-23T09:30:42.352Z</time></trkpt><trkpt lat="33.7947683" lon="8.791365"><ele>32.33333333333333</ele><time>2026-04-23T09:30:43.352Z</time></trkpt><trkpt lat="33.7949517" lon="8.79131"><ele>32.0</ele><time>2026-04-23T09:30:44.353Z</time></trkpt><trkpt lat="33.795135" lon="8.7912617"><ele>32.33333333333333</ele><time>2026-04-23T09:30:45.353Z</time></trkpt><trkpt lat="33.7953167" lon="8.7912083"><ele>32.666666666666664</ele><time>2026-04-23T09:30:46.351Z</time></trkpt><trkpt lat="33.795505" lon="8.7911383"><ele>33.0</ele><time>2026-04-23T09:30:47.352Z</time></trkpt><trkpt lat="33.7956933" lon="8.7910533"><ele>32.0</ele><time>2026-04-23T09:30:48.352Z</time></trkpt><trkpt lat="33.7958833" lon="8.7909667"><ele>31.0</ele><time>2026-04-23T09:30:49.351Z</time></trkpt><trkpt lat="33.79606" lon="8.7908717"><ele>30.0</ele><time>2026-04-23T09:30:50.352Z</time></trkpt><trkpt lat="33.796245" lon="8.7907817"><ele>29.0</ele><time>2026-04-23T09:30:51.351Z</time></trkpt><trkpt lat="33.7964383" lon="8.79068"><ele>28.0</ele><time>2026-04-23T09:30:52.352Z</time></trkpt><trkpt lat="33.796615" lon="8.7905867"><ele>27.0</ele><time>2026-04-23T09:30:53.351Z</time></trkpt><trkpt lat="33.7968033" lon="8.790485"><ele>27.333333333333336</ele><time>2026-04-23T09:30:54.351Z</time></trkpt><trkpt lat="33.7969933" lon="8.79038"><ele>27.666666666666668</ele><time>2026-04-23T09:30:55.351Z</time></trkpt><trkpt lat="33.7971867" lon="8.790275"><ele>28.0</ele><time>2026-04-23T09:30:56.352Z</time></trkpt><trkpt lat="33.797375" lon="8.7901783"><ele>27.666666666666668</ele><time>2026-04-23T09:30:57.352Z</time></trkpt><trkpt lat="33.7975683" lon="8.7900883"><ele>27.333333333333336</ele><time>2026-04-23T09:30:58.352Z</time></trkpt><trkpt lat="33.7977617" lon="8.7899867"><ele>27.0</ele><time>2026-04-23T09:30:59.351Z</time></trkpt><trkpt lat="33.7979517" lon="8.7898833"><ele>26.666666666666664</ele><time>2026-04-23T09:31:00.352Z</time></trkpt><trkpt lat="33.7981433" lon="8.7897817"><ele>26.333333333333332</ele><time>2026-04-23T09:31:01.352Z</time></trkpt><trkpt lat="33.7983333" lon="8.789695"><ele>26.0</ele><time>2026-04-23T09:31:02.351Z</time></trkpt><trkpt lat="33.798535" lon="8.7896083"><ele>25.666666666666664</ele><time>2026-04-23T09:31:03.352Z</time></trkpt><trkpt lat="33.7987333" lon="8.78951"><ele>25.333333333333336</ele><time>2026-04-23T09:31:04.351Z</time></trkpt><trkpt lat="33.7989383" lon="8.7894283"><ele>25.0</ele><time>2026-04-23T09:31:05.351Z</time></trkpt><trkpt lat="33.7991433" lon="8.7893533"><ele>25.0</ele><time>2026-04-23T09:31:06.352Z</time></trkpt><trkpt lat="33.799355" lon="8.7892983"><ele>25.0</ele><time>2026-04-23T09:31:07.352Z</time></trkpt><trkpt lat="33.7995533" lon="8.7892483"><ele>25.0</ele><time>2026-04-23T09:31:08.352Z</time></trkpt><trkpt lat="33.799755" lon="8.7892117"><ele>25.0</ele><time>2026-04-23T09:31:09.352Z</time></trkpt><trkpt lat="33.7999583" lon="8.7891667"><ele>25.0</ele><time>2026-04-23T09:31:10.351Z</time></trkpt><trkpt lat="33.8001617" lon="8.7891133"><ele>25.0</ele><time>2026-04-23T09:31:11.351Z</time></trkpt><trkpt lat="33.8003633" lon="8.789065"><ele>25.666666666666668</ele><time>2026-04-23T09:31:12.352Z</time></trkpt><trkpt lat="33.8005617" lon="8.7890217"><ele>26.333333333333336</ele><time>2026-04-23T09:31:13.352Z</time></trkpt><trkpt lat="33.8007617" lon="8.7889767"><ele>27.0</ele><time>2026-04-23T09:31:14.352Z</time></trkpt><trkpt lat="33.8009567" lon="8.7889283"><ele>25.666666666666668</ele><time>2026-04-23T09:31:15.352Z</time></trkpt><trkpt lat="33.8011433" lon="8.788885"><ele>24.333333333333336</ele><time>2026-04-23T09:31:16.352Z</time></trkpt><trkpt lat="33.8013367" lon="8.7888367"><ele>23.0</ele><time>2026-04-23T09:31:17.351Z</time></trkpt><trkpt lat="33.801535" lon="8.7887867"><ele>23.0</ele><time>2026-04-23T09:31:18.351Z</time></trkpt><trkpt lat="33.8017383" lon="8.7887367"><ele>23.0</ele><time>2026-04-23T09:31:19.352Z</time></trkpt><trkpt lat="33.8019433" lon="8.7886867"><ele>23.0</ele><time>2026-04-23T09:31:20.351Z</time></trkpt><trkpt lat="33.802145" lon="8.7886283"><ele>23.333333333333336</ele><time>2026-04-23T09:31:21.351Z</time></trkpt><trkpt lat="33.802335" lon="8.7885717"><ele>23.666666666666668</ele><time>2026-04-23T09:31:22.352Z</time></trkpt><trkpt lat="33.80252" lon="8.7885167"><ele>24.0</ele><time>2026-04-23T09:31:23.351Z</time></trkpt><trkpt lat="33.80269" lon="8.7884533"><ele>24.333333333333336</ele><time>2026-04-23T09:31:24.352Z</time></trkpt><trkpt lat="33.80285" lon="8.7883883"><ele>24.666666666666668</ele><time>2026-04-23T09:31:25.351Z</time></trkpt><trkpt lat="33.80299" lon="8.7883217"><ele>25.0</ele><time>2026-04-23T09:31:26.351Z</time></trkpt><trkpt lat="33.80312" lon="8.7882567"><ele>25.0</ele><time>2026-04-23T09:31:27.351Z</time></trkpt><trkpt lat="33.8032383" lon="8.7881917"><ele>25.0</ele><time>2026-04-23T09:31:28.351Z</time></trkpt><trkpt lat="33.8033367" lon="8.7881433"><ele>25.0</ele><time>2026-04-23T09:31:29.351Z</time></trkpt><trkpt lat="33.8034167" lon="8.7881133"><ele>25.0</ele><time>2026-04-23T09:31:30.352Z</time></trkpt><trkpt lat="33.8035" lon="8.788085"><ele>25.0</ele><time>2026-04-23T09:31:31.351Z</time></trkpt><trkpt lat="33.8035683" lon="8.7880383"><ele>25.2</ele><time>2026-04-23T09:31:32.352Z</time></trkpt><trkpt lat="33.8036267" lon="8.7879733"><ele>25.4</ele><time>2026-04-23T09:31:33.352Z</time></trkpt><trkpt lat="33.80369" lon="8.7878983"><ele>25.6</ele><time>2026-04-23T09:31:34.351Z</time></trkpt><trkpt lat="33.8037583" lon="8.7878133"><ele>25.8</ele><time>2026-04-23T09:31:35.352Z</time></trkpt><trkpt lat="33.803835" lon="8.7877333"><ele>26.0</ele><time>2026-04-23T09:31:36.351Z</time></trkpt><trkpt lat="33.803915" lon="8.787655"><ele>25.25</ele><time>2026-04-23T09:31:37.351Z</time></trkpt><trkpt lat="33.8039967" lon="8.787565"><ele>24.5</ele><time>2026-04-23T09:31:38.352Z</time></trkpt><trkpt lat="33.8040867" lon="8.7874733"><ele>23.75</ele><time>2026-04-23T09:31:39.351Z</time></trkpt><trkpt lat="33.8041767" lon="8.78737"><ele>23.0</ele><time>2026-04-23T09:31:40.351Z</time></trkpt><trkpt lat="33.80427" lon="8.7872633"><ele>23.5</ele><time>2026-04-23T09:31:41.352Z</time></trkpt><trkpt lat="33.8043567" lon="8.78714"><ele>24.0</ele><time>2026-04-23T09:31:42.352Z</time></trkpt><trkpt lat="33.80445" lon="8.78701"><ele>24.5</ele><time>2026-04-23T09:31:43.352Z</time></trkpt><trkpt lat="33.80454" lon="8.7868717"><ele>25.0</ele><time>2026-04-23T09:31:44.351Z</time></trkpt><trkpt lat="33.8046283" lon="8.78672"><ele>25.0</ele><time>2026-04-23T09:31:45.352Z</time></trkpt><trkpt lat="33.8047133" lon="8.7865667"><ele>25.0</ele><time>2026-04-23T09:31:46.352Z</time></trkpt><trkpt lat="33.8048" lon="8.7864133"><ele>25.0</ele><time>2026-04-23T09:31:47.352Z</time></trkpt><trkpt lat="33.804885" lon="8.7862533"><ele>25.0</ele><time>2026-04-23T09:31:48.352Z</time></trkpt><trkpt lat="33.8049617" lon="8.7860817"><ele>25.0</ele><time>2026-04-23T09:31:49.352Z</time></trkpt><trkpt lat="33.805035" lon="8.7859033"><ele>25.0</ele><time>2026-04-23T09:31:50.352Z</time></trkpt><trkpt lat="33.8051033" lon="8.7857233"><ele>24.333333333333336</ele><time>2026-04-23T09:31:51.352Z</time></trkpt><trkpt lat="33.805165" lon="8.7855383"><ele>23.666666666666668</ele><time>2026-04-23T09:31:52.351Z</time></trkpt><trkpt lat="33.80522" lon="8.7853383"><ele>23.0</ele><time>2026-04-23T09:31:53.351Z</time></trkpt><trkpt lat="33.8052667" lon="8.7851317"><ele>22.666666666666668</ele><time>2026-04-23T09:31:54.351Z</time></trkpt><trkpt lat="33.8053083" lon="8.7849233"><ele>22.333333333333332</ele><time>2026-04-23T09:31:55.351Z</time></trkpt><trkpt lat="33.80535" lon="8.7847217"><ele>22.0</ele><time>2026-04-23T09:31:56.352Z</time></trkpt><trkpt lat="33.8053967" lon="8.7845183"><ele>22.666666666666664</ele><time>2026-04-23T09:31:57.352Z</time></trkpt><trkpt lat="33.8054367" lon="8.784325"><ele>23.333333333333332</ele><time>2026-04-23T09:31:58.351Z</time></trkpt><trkpt lat="33.8054817" lon="8.7841233"><ele>24.0</ele><time>2026-04-23T09:31:59.351Z</time></trkpt><trkpt lat="33.8055267" lon="8.7839167"><ele>24.0</ele><time>2026-04-23T09:32:00.352Z</time></trkpt><trkpt lat="33.8055767" lon="8.783705"><ele>24.0</ele><time>2026-04-23T09:32:01.352Z</time></trkpt><trkpt lat="33.805625" lon="8.7834867"><ele>24.0</ele><time>2026-04-23T09:32:02.352Z</time></trkpt><trkpt lat="33.8056783" lon="8.783265"><ele>24.333333333333336</ele><time>2026-04-23T09:32:03.351Z</time></trkpt><trkpt lat="33.805725" lon="8.7830483"><ele>24.666666666666668</ele><time>2026-04-23T09:32:04.351Z</time></trkpt><trkpt lat="33.80577" lon="8.7828317"><ele>25.0</ele><time>2026-04-23T09:32:05.351Z</time></trkpt><trkpt lat="33.80582" lon="8.7826133"><ele>24.0</ele><time>2026-04-23T09:32:06.352Z</time></trkpt><trkpt lat="33.8058717" lon="8.782385"><ele>23.0</ele><time>2026-04-23T09:32:07.351Z</time></trkpt><trkpt lat="33.8059217" lon="8.7821733"><ele>22.0</ele><time>2026-04-23T09:32:08.352Z</time></trkpt><trkpt lat="33.8059633" lon="8.7819567"><ele>23.333333333333332</ele><time>2026-04-23T09:32:09.352Z</time></trkpt><trkpt lat="33.8060117" lon="8.78173"><ele>24.666666666666664</ele><time>2026-04-23T09:32:10.351Z</time></trkpt><trkpt lat="33.806065" lon="8.7814983"><ele>26.0</ele><time>2026-04-23T09:32:11.351Z</time></trkpt><trkpt lat="33.8061183" lon="8.7812683"><ele>26.0</ele><time>2026-04-23T09:32:12.352Z</time></trkpt><trkpt lat="33.8061783" lon="8.7810383"><ele>26.0</ele><time>2026-04-23T09:32:13.351Z</time></trkpt><trkpt lat="33.8062317" lon="8.7808083"><ele>26.0</ele><time>2026-04-23T09:32:14.352Z</time></trkpt><trkpt lat="33.806285" lon="8.780575"><ele>25.666666666666664</ele><time>2026-04-23T09:32:15.352Z</time></trkpt><trkpt lat="33.80634" lon="8.7803467"><ele>25.333333333333336</ele><time>2026-04-23T09:32:16.351Z</time></trkpt><trkpt lat="33.806395" lon="8.780115"><ele>25.0</ele><time>2026-04-23T09:32:17.352Z</time></trkpt><trkpt lat="33.806455" lon="8.779875"><ele>25.0</ele><time>2026-04-23T09:32:18.352Z</time></trkpt><trkpt lat="33.8065083" lon="8.7796483"><ele>25.0</ele><time>2026-04-23T09:32:19.352Z</time></trkpt><trkpt lat="33.8065533" lon="8.779415"><ele>25.0</ele><time>2026-04-23T09:32:20.351Z</time></trkpt><trkpt lat="33.8066067" lon="8.7791767"><ele>24.666666666666668</ele><time>2026-04-23T09:32:21.351Z</time></trkpt><trkpt lat="33.8066533" lon="8.7789383"><ele>24.333333333333336</ele><time>2026-04-23T09:32:22.351Z</time></trkpt><trkpt lat="33.8067033" lon="8.7787033"><ele>24.0</ele><time>2026-04-23T09:32:23.352Z</time></trkpt><trkpt lat="33.806755" lon="8.77847"><ele>24.0</ele><time>2026-04-23T09:32:24.352Z</time></trkpt><trkpt lat="33.8068033" lon="8.7782317"><ele>24.0</ele><time>2026-04-23T09:32:25.352Z</time></trkpt><trkpt lat="33.806855" lon="8.7779967"><ele>24.0</ele><time>2026-04-23T09:32:26.352Z</time></trkpt><trkpt lat="33.8069117" lon="8.77777"><ele>23.333333333333332</ele><time>2026-04-23T09:32:27.351Z</time></trkpt><trkpt lat="33.8069667" lon="8.7775333"><ele>22.666666666666664</ele><time>2026-04-23T09:32:28.351Z</time></trkpt><trkpt lat="33.80702" lon="8.7772933"><ele>22.0</ele><time>2026-04-23T09:32:29.351Z</time></trkpt><trkpt lat="33.8070817" lon="8.7770467"><ele>23.0</ele><time>2026-04-23T09:32:30.351Z</time></trkpt><trkpt lat="33.8071433" lon="8.7768067"><ele>24.0</ele><time>2026-04-23T09:32:31.351Z</time></trkpt><trkpt lat="33.8072" lon="8.776565"><ele>25.0</ele><time>2026-04-23T09:32:32.351Z</time></trkpt><trkpt lat="33.807245" lon="8.776335"><ele>25.0</ele><time>2026-04-23T09:32:33.352Z</time></trkpt><trkpt lat="33.8073" lon="8.7760933"><ele>25.0</ele><time>2026-04-23T09:32:34.351Z</time></trkpt><trkpt lat="33.8073567" lon="8.7758533"><ele>25.0</ele><time>2026-04-23T09:32:35.351Z</time></trkpt><trkpt lat="33.8074183" lon="8.7756033"><ele>25.0</ele><time>2026-04-23T09:32:36.351Z</time></trkpt><trkpt lat="33.807475" lon="8.7753583"><ele>25.0</ele><time>2026-04-23T09:32:37.352Z</time></trkpt><trkpt lat="33.8075333" lon="8.7751117"><ele>25.0</ele><time>2026-04-23T09:32:38.352Z</time></trkpt><trkpt lat="33.8075867" lon="8.7748683"><ele>25.0</ele><time>2026-04-23T09:32:39.351Z</time></trkpt><trkpt lat="33.80764" lon="8.7746183"><ele>25.0</ele><time>2026-04-23T09:32:40.351Z</time></trkpt><trkpt lat="33.8076933" lon="8.774365"><ele>25.0</ele><time>2026-04-23T09:32:41.351Z</time></trkpt><trkpt lat="33.8077467" lon="8.7741067"><ele>24.333333333333336</ele><time>2026-04-23T09:32:42.352Z</time></trkpt><trkpt lat="33.8078033" lon="8.773845"><ele>23.666666666666668</ele><time>2026-04-23T09:32:43.351Z</time></trkpt><trkpt lat="33.8078617" lon="8.77359"><ele>23.0</ele><time>2026-04-23T09:32:44.352Z</time></trkpt><trkpt lat="33.8079233" lon="8.7733317"><ele>23.0</ele><time>2026-04-23T09:32:45.352Z</time></trkpt><trkpt lat="33.8079817" lon="8.773075"><ele>23.0</ele><time>2026-04-23T09:32:46.352Z</time></trkpt><trkpt lat="33.80804" lon="8.77283"><ele>23.0</ele><time>2026-04-23T09:32:47.351Z</time></trkpt><trkpt lat="33.8080933" lon="8.77258"><ele>23.0</ele><time>2026-04-23T09:32:48.351Z</time></trkpt><trkpt lat="33.80815" lon="8.7723267"><ele>23.0</ele><time>2026-04-23T09:32:49.351Z</time></trkpt><trkpt lat="33.8082117" lon="8.77207"><ele>23.0</ele><time>2026-04-23T09:32:50.351Z</time></trkpt><trkpt lat="33.8082767" lon="8.7718167"><ele>23.0</ele><time>2026-04-23T09:32:51.352Z</time></trkpt><trkpt lat="33.808335" lon="8.771555"><ele>23.0</ele><time>2026-04-23T09:32:52.351Z</time></trkpt><trkpt lat="33.8083983" lon="8.7712867"><ele>22.5</ele><time>2026-04-23T09:32:53.352Z</time></trkpt><trkpt lat="33.8084633" lon="8.7710233"><ele>22.0</ele><time>2026-04-23T09:32:54.351Z</time></trkpt><trkpt lat="33.8085233" lon="8.7707567"><ele>22.0</ele><time>2026-04-23T09:32:55.351Z</time></trkpt><trkpt lat="33.8085867" lon="8.7704883"><ele>22.0</ele><time>2026-04-23T09:32:56.352Z</time></trkpt><trkpt lat="33.80865" lon="8.77022"><ele>22.0</ele><time>2026-04-23T09:32:57.352Z</time></trkpt><trkpt lat="33.8086983" lon="8.769955"><ele>22.0</ele><time>2026-04-23T09:32:58.352Z</time></trkpt><trkpt lat="33.80875" lon="8.7696917"><ele>22.0</ele><time>2026-04-23T09:32:59.351Z</time></trkpt><trkpt lat="33.8088117" lon="8.7694167"><ele>22.0</ele><time>2026-04-23T09:33:00.352Z</time></trkpt><trkpt lat="33.808875" lon="8.7691467"><ele>22.0</ele><time>2026-04-23T09:33:01.352Z</time></trkpt><trkpt lat="33.80894" lon="8.76888"><ele>22.0</ele><time>2026-04-23T09:33:02.351Z</time></trkpt><trkpt lat="33.8090017" lon="8.7686133"><ele>23.0</ele><time>2026-04-23T09:33:03.352Z</time></trkpt><trkpt lat="33.809055" lon="8.7683467"><ele>24.0</ele><time>2026-04-23T09:33:04.352Z</time></trkpt><trkpt lat="33.8091133" lon="8.768075"><ele>24.0</ele><time>2026-04-23T09:33:05.352Z</time></trkpt><trkpt lat="33.809165" lon="8.767805"><ele>24.0</ele><time>2026-04-23T09:33:06.351Z</time></trkpt><trkpt lat="33.809215" lon="8.7675383"><ele>23.0</ele><time>2026-04-23T09:33:07.352Z</time></trkpt><trkpt lat="33.8092617" lon="8.7672667"><ele>22.0</ele><time>2026-04-23T09:33:08.351Z</time></trkpt><trkpt lat="33.809305" lon="8.7669867"><ele>22.0</ele><time>2026-04-23T09:33:09.351Z</time></trkpt><trkpt lat="33.8093467" lon="8.7667033"><ele>22.0</ele><time>2026-04-23T09:33:10.352Z</time></trkpt><trkpt lat="33.80939" lon="8.766425"><ele>22.0</ele><time>2026-04-23T09:33:11.352Z</time></trkpt><trkpt lat="33.8094333" lon="8.7661467"><ele>22.0</ele><time>2026-04-23T09:33:12.352Z</time></trkpt><trkpt lat="33.8094733" lon="8.765865"><ele>22.5</ele><time>2026-04-23T09:33:13.351Z</time></trkpt><trkpt lat="33.8095167" lon="8.76558"><ele>23.0</ele><time>2026-04-23T09:33:14.351Z</time></trkpt><trkpt lat="33.809565" lon="8.7652967"><ele>22.5</ele><time>2026-04-23T09:33:15.352Z</time></trkpt><trkpt lat="33.8096117" lon="8.7650117"><ele>22.0</ele><time>2026-04-23T09:33:16.351Z</time></trkpt><trkpt lat="33.80966" lon="8.7647283"><ele>22.0</ele><time>2026-04-23T09:33:17.352Z</time></trkpt><trkpt lat="33.8097083" lon="8.7644483"><ele>22.0</ele><time>2026-04-23T09:33:18.351Z</time></trkpt><trkpt lat="33.8097517" lon="8.7641683"><ele>22.5</ele><time>2026-04-23T09:33:19.351Z</time></trkpt><trkpt lat="33.8097933" lon="8.76389"><ele>23.0</ele><time>2026-04-23T09:33:20.352Z</time></trkpt><trkpt lat="33.8098333" lon="8.7636083"><ele>24.0</ele><time>2026-04-23T09:33:21.352Z</time></trkpt><trkpt lat="33.809875" lon="8.7633283"><ele>25.0</ele><time>2026-04-23T09:33:22.351Z</time></trkpt><trkpt lat="33.80992" lon="8.7630467"><ele>25.0</ele><time>2026-04-23T09:33:23.351Z</time></trkpt><trkpt lat="33.80997" lon="8.762765"><ele>25.0</ele><time>2026-04-23T09:33:24.351Z</time></trkpt><trkpt lat="33.8100117" lon="8.7624817"><ele>23.5</ele><time>2026-04-23T09:33:25.352Z</time></trkpt><trkpt lat="33.81006" lon="8.7621983"><ele>22.0</ele><time>2026-04-23T09:33:26.351Z</time></trkpt><trkpt lat="33.8101067" lon="8.76192"><ele>22.0</ele><time>2026-04-23T09:33:27.352Z</time></trkpt><trkpt lat="33.810145" lon="8.7616433"><ele>22.0</ele><time>2026-04-23T09:33:28.351Z</time></trkpt><trkpt lat="33.810185" lon="8.761365"><ele>23.5</ele><time>2026-04-23T09:33:29.351Z</time></trkpt><trkpt lat="33.81023" lon="8.7610767"><ele>25.0</ele><time>2026-04-23T09:33:30.352Z</time></trkpt><trkpt lat="33.8102767" lon="8.76079"><ele>25.0</ele><time>2026-04-23T09:33:31.351Z</time></trkpt><trkpt lat="33.8103217" lon="8.7605083"><ele>25.0</ele><time>2026-04-23T09:33:32.351Z</time></trkpt><trkpt lat="33.81037" lon="8.7602317"><ele>25.0</ele><time>2026-04-23T09:33:33.351Z</time></trkpt><trkpt lat="33.8104183" lon="8.7599483"><ele>25.0</ele><time>2026-04-23T09:33:34.351Z</time></trkpt><trkpt lat="33.810465" lon="8.7596633"><ele>25.0</ele><time>2026-04-23T09:33:35.352Z</time></trkpt><trkpt lat="33.8105167" lon="8.7593833"><ele>25.0</ele><time>2026-04-23T09:33:36.352Z</time></trkpt><trkpt lat="33.8105567" lon="8.7591"><ele>23.5</ele><time>2026-04-23T09:33:37.351Z</time></trkpt><trkpt lat="33.8106033" lon="8.7588133"><ele>22.0</ele><time>2026-04-23T09:33:38.351Z</time></trkpt><trkpt lat="33.8106417" lon="8.7585317"><ele>22.0</ele><time>2026-04-23T09:33:39.352Z</time></trkpt><trkpt lat="33.8106867" lon="8.75825"><ele>22.0</ele><time>2026-04-23T09:33:40.352Z</time></trkpt><trkpt lat="33.8107267" lon="8.7579717"><ele>23.0</ele><time>2026-04-23T09:33:41.352Z</time></trkpt><trkpt lat="33.8107667" lon="8.7577"><ele>24.0</ele><time>2026-04-23T09:33:42.351Z</time></trkpt><trkpt lat="33.81081" lon="8.7574317"><ele>24.0</ele><time>2026-04-23T09:33:43.352Z</time></trkpt><trkpt lat="33.8108533" lon="8.7571667"><ele>24.0</ele><time>2026-04-23T09:33:44.351Z</time></trkpt><trkpt lat="33.81089" lon="8.7569117"><ele>24.0</ele><time>2026-04-23T09:33:45.352Z</time></trkpt><trkpt lat="33.8109333" lon="8.7566683"><ele>23.666666666666668</ele><time>2026-04-23T09:33:46.352Z</time></trkpt><trkpt lat="33.810965" lon="8.7564333"><ele>23.333333333333336</ele><time>2026-04-23T09:33:47.351Z</time></trkpt><trkpt lat="33.81099" lon="8.75621"><ele>23.0</ele><time>2026-04-23T09:33:48.351Z</time></trkpt><trkpt lat="33.81102" lon="8.7559917"><ele>22.666666666666668</ele><time>2026-04-23T09:33:49.352Z</time></trkpt><trkpt lat="33.8110483" lon="8.755775"><ele>22.333333333333332</ele><time>2026-04-23T09:33:50.352Z</time></trkpt><trkpt lat="33.81108" lon="8.7555517"><ele>22.0</ele><time>2026-04-23T09:33:51.351Z</time></trkpt><trkpt lat="33.8111167" lon="8.7553233"><ele>22.666666666666664</ele><time>2026-04-23T09:33:52.351Z</time></trkpt><trkpt lat="33.8111517" lon="8.7550917"><ele>23.333333333333332</ele><time>2026-04-23T09:33:53.351Z</time></trkpt><trkpt lat="33.8111933" lon="8.75486"><ele>24.0</ele><time>2026-04-23T09:33:54.351Z</time></trkpt><trkpt lat="33.811235" lon="8.7546217"><ele>24.0</ele><time>2026-04-23T09:33:55.351Z</time></trkpt><trkpt lat="33.8112783" lon="8.7543817"><ele>24.0</ele><time>2026-04-23T09:33:56.351Z</time></trkpt><trkpt lat="33.8113183" lon="8.7541383"><ele>24.0</ele><time>2026-04-23T09:33:57.351Z</time></trkpt><trkpt lat="33.8113583" lon="8.753895"><ele>24.0</ele><time>2026-04-23T09:33:58.352Z</time></trkpt><trkpt lat="33.8113917" lon="8.7536467"><ele>24.0</ele><time>2026-04-23T09:33:59.351Z</time></trkpt><trkpt lat="33.8114283" lon="8.7533883"><ele>24.0</ele><time>2026-04-23T09:34:00.351Z</time></trkpt><trkpt lat="33.8114567" lon="8.7531333"><ele>24.0</ele><time>2026-04-23T09:34:01.351Z</time></trkpt><trkpt lat="33.8115" lon="8.75287"><ele>24.0</ele><time>2026-04-23T09:34:02.351Z</time></trkpt><trkpt lat="33.81154" lon="8.7526117"><ele>24.0</ele><time>2026-04-23T09:34:03.351Z</time></trkpt><trkpt lat="33.8115833" lon="8.7523467"><ele>24.0</ele><time>2026-04-23T09:34:04.351Z</time></trkpt><trkpt lat="33.8116283" lon="8.75208"><ele>24.0</ele><time>2026-04-23T09:34:05.351Z</time></trkpt><trkpt lat="33.81167" lon="8.751805"><ele>24.5</ele><time>2026-04-23T09:34:06.351Z</time></trkpt><trkpt lat="33.8117083" lon="8.7515317"><ele>25.0</ele><time>2026-04-23T09:34:07.352Z</time></trkpt><trkpt lat="33.81175" lon="8.7512583"><ele>23.5</ele><time>2026-04-23T09:34:08.351Z</time></trkpt><trkpt lat="33.811785" lon="8.75099"><ele>22.0</ele><time>2026-04-23T09:34:09.352Z</time></trkpt><trkpt lat="33.8118183" lon="8.7507183"><ele>22.5</ele><time>2026-04-23T09:34:10.352Z</time></trkpt><trkpt lat="33.8118633" lon="8.7504367"><ele>23.0</ele><time>2026-04-23T09:34:11.351Z</time></trkpt><trkpt lat="33.811905" lon="8.7501533"><ele>23.0</ele><time>2026-04-23T09:34:12.352Z</time></trkpt><trkpt lat="33.8119483" lon="8.7498717"><ele>23.0</ele><time>2026-04-23T09:34:13.351Z</time></trkpt><trkpt lat="33.8119833" lon="8.7495933"><ele>21.5</ele><time>2026-04-23T09:34:14.352Z</time></trkpt><trkpt lat="33.81203" lon="8.7493133"><ele>20.0</ele><time>2026-04-23T09:34:15.351Z</time></trkpt><trkpt lat="33.81207" lon="8.7490317"><ele>20.0</ele><time>2026-04-23T09:34:16.351Z</time></trkpt><trkpt lat="33.8121133" lon="8.7487533"><ele>20.0</ele><time>2026-04-23T09:34:17.352Z</time></trkpt><trkpt lat="33.8121517" lon="8.748475"><ele>19.0</ele><time>2026-04-23T09:34:18.352Z</time></trkpt><trkpt lat="33.8121883" lon="8.7481983"><ele>18.0</ele><time>2026-04-23T09:34:19.352Z</time></trkpt><trkpt lat="33.81222" lon="8.7479233"><ele>20.0</ele><time>2026-04-23T09:34:20.352Z</time></trkpt><trkpt lat="33.8122583" lon="8.7476433"><ele>22.0</ele><time>2026-04-23T09:34:21.351Z</time></trkpt><trkpt lat="33.812295" lon="8.7473583"><ele>22.0</ele><time>2026-04-23T09:34:22.351Z</time></trkpt><trkpt lat="33.8123333" lon="8.74707"><ele>22.0</ele><time>2026-04-23T09:34:23.351Z</time></trkpt><trkpt lat="33.81238" lon="8.746785"><ele>22.5</ele><time>2026-04-23T09:34:24.351Z</time></trkpt><trkpt lat="33.8124233" lon="8.7464983"><ele>23.0</ele><time>2026-04-23T09:34:25.352Z</time></trkpt><trkpt lat="33.81246" lon="8.7462183"><ele>21.5</ele><time>2026-04-23T09:34:26.352Z</time></trkpt><trkpt lat="33.8124883" lon="8.7459383"><ele>20.0</ele><time>2026-04-23T09:34:27.352Z</time></trkpt><trkpt lat="33.8125183" lon="8.7456567"><ele>20.0</ele><time>2026-04-23T09:34:28.352Z</time></trkpt><trkpt lat="33.8125567" lon="8.745375"><ele>20.0</ele><time>2026-04-23T09:34:29.351Z</time></trkpt><trkpt lat="33.8125933" lon="8.7450933"><ele>21.0</ele><time>2026-04-23T09:34:30.351Z</time></trkpt><trkpt lat="33.81263" lon="8.7448133"><ele>22.0</ele><time>2026-04-23T09:34:31.352Z</time></trkpt><trkpt lat="33.8126717" lon="8.744535"><ele>22.5</ele><time>2026-04-23T09:34:32.352Z</time></trkpt><trkpt lat="33.81271" lon="8.7442483"><ele>23.0</ele><time>2026-04-23T09:34:33.351Z</time></trkpt><trkpt lat="33.81275" lon="8.743965"><ele>23.0</ele><time>2026-04-23T09:34:34.352Z</time></trkpt><trkpt lat="33.81279" lon="8.7436883"><ele>23.0</ele><time>2026-04-23T09:34:35.351Z</time></trkpt><trkpt lat="33.812825" lon="8.7433983"><ele>21.5</ele><time>2026-04-23T09:34:36.352Z</time></trkpt><trkpt lat="33.8128617" lon="8.74311"><ele>20.0</ele><time>2026-04-23T09:34:37.35Z</time></trkpt><trkpt lat="33.8129033" lon="8.742815"><ele>20.0</ele><time>2026-04-23T09:34:38.351Z</time></trkpt><trkpt lat="33.8129517" lon="8.74252"><ele>20.0</ele><time>2026-04-23T09:34:39.35Z</time></trkpt><trkpt lat="33.8129883" lon="8.7422267"><ele>20.0</ele><time>2026-04-23T09:34:40.35Z</time></trkpt><trkpt lat="33.8130267" lon="8.7419367"><ele>20.0</ele><time>2026-04-23T09:34:41.35Z</time></trkpt><trkpt lat="33.8130683" lon="8.7416517"><ele>20.5</ele><time>2026-04-23T09:34:42.35Z</time></trkpt><trkpt lat="33.81311" lon="8.7413583"><ele>21.0</ele><time>2026-04-23T09:34:43.35Z</time></trkpt><trkpt lat="33.8131483" lon="8.741065"><ele>21.0</ele><time>2026-04-23T09:34:44.35Z</time></trkpt><trkpt lat="33.81319" lon="8.740775"><ele>21.0</ele><time>2026-04-23T09:34:45.351Z</time></trkpt><trkpt lat="33.8132317" lon="8.74049"><ele>21.5</ele><time>2026-04-23T09:34:46.35Z</time></trkpt><trkpt lat="33.81327" lon="8.7402"><ele>22.0</ele><time>2026-04-23T09:34:47.351Z</time></trkpt><trkpt lat="33.813305" lon="8.739905"><ele>22.0</ele><time>2026-04-23T09:34:48.35Z</time></trkpt><trkpt lat="33.8133367" lon="8.739615"><ele>22.0</ele><time>2026-04-23T09:34:49.351Z</time></trkpt><trkpt lat="33.8133767" lon="8.73932"><ele>21.5</ele><time>2026-04-23T09:34:50.351Z</time></trkpt><trkpt lat="33.8134167" lon="8.7390267"><ele>21.0</ele><time>2026-04-23T09:34:51.35Z</time></trkpt><trkpt lat="33.8134533" lon="8.738735"><ele>21.0</ele><time>2026-04-23T09:34:52.35Z</time></trkpt><trkpt lat="33.81349" lon="8.738445"><ele>21.0</ele><time>2026-04-23T09:34:53.35Z</time></trkpt><trkpt lat="33.8135267" lon="8.7381533"><ele>21.0</ele><time>2026-04-23T09:34:54.351Z</time></trkpt><trkpt lat="33.81357" lon="8.7378617"><ele>21.0</ele><time>2026-04-23T09:34:55.351Z</time></trkpt><trkpt lat="33.81362" lon="8.7375617"><ele>22.0</ele><time>2026-04-23T09:34:56.35Z</time></trkpt><trkpt lat="33.813665" lon="8.7372733"><ele>23.0</ele><time>2026-04-23T09:34:57.351Z</time></trkpt><trkpt lat="33.8137033" lon="8.7369883"><ele>22.5</ele><time>2026-04-23T09:34:58.35Z</time></trkpt><trkpt lat="33.813745" lon="8.7367067"><ele>22.0</ele><time>2026-04-23T09:34:59.351Z</time></trkpt><trkpt lat="33.8137867" lon="8.73642"><ele>22.0</ele><time>2026-04-23T09:35:00.351Z</time></trkpt><trkpt lat="33.81382" lon="8.736135"><ele>22.0</ele><time>2026-04-23T09:35:01.35Z</time></trkpt><trkpt lat="33.8138517" lon="8.7358483"><ele>21.5</ele><time>2026-04-23T09:35:02.35Z</time></trkpt><trkpt lat="33.8138817" lon="8.735555"><ele>21.0</ele><time>2026-04-23T09:35:03.35Z</time></trkpt><trkpt lat="33.813905" lon="8.7352633"><ele>21.5</ele><time>2026-04-23T09:35:04.35Z</time></trkpt><trkpt lat="33.8139283" lon="8.7349767"><ele>22.0</ele><time>2026-04-23T09:35:05.35Z</time></trkpt><trkpt lat="33.81395" lon="8.7346833"><ele>22.0</ele><time>2026-04-23T09:35:06.351Z</time></trkpt><trkpt lat="33.8139733" lon="8.7343933"><ele>22.0</ele><time>2026-04-23T09:35:07.35Z</time></trkpt><trkpt lat="33.813995" lon="8.7341017"><ele>21.5</ele><time>2026-04-23T09:35:08.351Z</time></trkpt><trkpt lat="33.81402" lon="8.7338083"><ele>21.0</ele><time>2026-04-23T09:35:09.351Z</time></trkpt><trkpt lat="33.8140467" lon="8.7335183"><ele>20.5</ele><time>2026-04-23T09:35:10.351Z</time></trkpt><trkpt lat="33.814075" lon="8.7332233"><ele>20.0</ele><time>2026-04-23T09:35:11.351Z</time></trkpt><trkpt lat="33.8140967" lon="8.732935"><ele>21.0</ele><time>2026-04-23T09:35:12.35Z</time></trkpt><trkpt lat="33.8141267" lon="8.732635"><ele>22.0</ele><time>2026-04-23T09:35:13.351Z</time></trkpt><trkpt lat="33.8141583" lon="8.7323283"><ele>22.0</ele><time>2026-04-23T09:35:14.351Z</time></trkpt><trkpt lat="33.8141817" lon="8.7320333"><ele>22.0</ele><time>2026-04-23T09:35:15.35Z</time></trkpt><trkpt lat="33.8142017" lon="8.7317417"><ele>22.0</ele><time>2026-04-23T09:35:16.351Z</time></trkpt><trkpt lat="33.8142267" lon="8.731445"><ele>22.0</ele><time>2026-04-23T09:35:17.35Z</time></trkpt><trkpt lat="33.8142517" lon="8.7311517"><ele>21.0</ele><time>2026-04-23T09:35:18.35Z</time></trkpt><trkpt lat="33.814275" lon="8.7308567"><ele>20.0</ele><time>2026-04-23T09:35:19.351Z</time></trkpt><trkpt lat="33.814295" lon="8.7305683"><ele>20.0</ele><time>2026-04-23T09:35:20.35Z</time></trkpt><trkpt lat="33.8143167" lon="8.7302767"><ele>20.0</ele><time>2026-04-23T09:35:21.351Z</time></trkpt><trkpt lat="33.81433" lon="8.7299917"><ele>21.0</ele><time>2026-04-23T09:35:22.35Z</time></trkpt><trkpt lat="33.81434" lon="8.7297"><ele>22.0</ele><time>2026-04-23T09:35:23.351Z</time></trkpt><trkpt lat="33.8143417" lon="8.7294133"><ele>21.0</ele><time>2026-04-23T09:35:24.351Z</time></trkpt><trkpt lat="33.8143433" lon="8.7291283"><ele>20.0</ele><time>2026-04-23T09:35:25.351Z</time></trkpt><trkpt lat="33.8143433" lon="8.728845"><ele>20.0</ele><time>2026-04-23T09:35:26.35Z</time></trkpt><trkpt lat="33.8143483" lon="8.7285567"><ele>20.0</ele><time>2026-04-23T09:35:27.351Z</time></trkpt><trkpt lat="33.8143517" lon="8.7282717"><ele>20.0</ele><time>2026-04-23T09:35:28.351Z</time></trkpt><trkpt lat="33.8143633" lon="8.72798"><ele>20.0</ele><time>2026-04-23T09:35:29.35Z</time></trkpt><trkpt lat="33.8143767" lon="8.727685"><ele>21.0</ele><time>2026-04-23T09:35:30.351Z</time></trkpt><trkpt lat="33.8143933" lon="8.7274"><ele>22.0</ele><time>2026-04-23T09:35:31.351Z</time></trkpt><trkpt lat="33.8144233" lon="8.7271083"><ele>21.5</ele><time>2026-04-23T09:35:32.351Z</time></trkpt><trkpt lat="33.8144633" lon="8.72682"><ele>21.0</ele><time>2026-04-23T09:35:33.35Z</time></trkpt><trkpt lat="33.8145083" lon="8.7265317"><ele>21.0</ele><time>2026-04-23T09:35:34.351Z</time></trkpt><trkpt lat="33.81456" lon="8.7262433"><ele>21.0</ele><time>2026-04-23T09:35:35.35Z</time></trkpt><trkpt lat="33.814625" lon="8.72596"><ele>21.5</ele><time>2026-04-23T09:35:36.35Z</time></trkpt><trkpt lat="33.8146883" lon="8.7256867"><ele>22.0</ele><time>2026-04-23T09:35:37.351Z</time></trkpt><trkpt lat="33.8147567" lon="8.7254233"><ele>22.0</ele><time>2026-04-23T09:35:38.35Z</time></trkpt><trkpt lat="33.8148317" lon="8.7251483"><ele>22.0</ele><time>2026-04-23T09:35:39.35Z</time></trkpt><trkpt lat="33.8149133" lon="8.7248833"><ele>22.0</ele><time>2026-04-23T09:35:40.351Z</time></trkpt><trkpt lat="33.815005" lon="8.724625"><ele>22.0</ele><time>2026-04-23T09:35:41.351Z</time></trkpt><trkpt lat="33.8150967" lon="8.7243567"><ele>21.0</ele><time>2026-04-23T09:35:42.351Z</time></trkpt><trkpt lat="33.8151883" lon="8.7240983"><ele>20.0</ele><time>2026-04-23T09:35:43.351Z</time></trkpt><trkpt lat="33.8152833" lon="8.723845"><ele>20.0</ele><time>2026-04-23T09:35:44.35Z</time></trkpt><trkpt lat="33.8153883" lon="8.723605"><ele>20.0</ele><time>2026-04-23T09:35:45.35Z</time></trkpt><trkpt lat="33.8154967" lon="8.7233533"><ele>21.0</ele><time>2026-04-23T09:35:46.351Z</time></trkpt><trkpt lat="33.8156033" lon="8.7231017"><ele>22.0</ele><time>2026-04-23T09:35:47.35Z</time></trkpt><trkpt lat="33.8157083" lon="8.7228533"><ele>22.5</ele><time>2026-04-23T09:35:48.35Z</time></trkpt><trkpt lat="33.8158083" lon="8.7226017"><ele>23.0</ele><time>2026-04-23T09:35:49.35Z</time></trkpt><trkpt lat="33.8159083" lon="8.7223417"><ele>22.0</ele><time>2026-04-23T09:35:50.35Z</time></trkpt><trkpt lat="33.8160083" lon="8.722075"><ele>21.0</ele><time>2026-04-23T09:35:51.351Z</time></trkpt><trkpt lat="33.816105" lon="8.72182"><ele>21.0</ele><time>2026-04-23T09:35:52.35Z</time></trkpt><trkpt lat="33.8162033" lon="8.72156"><ele>21.0</ele><time>2026-04-23T09:35:53.35Z</time></trkpt><trkpt lat="33.816295" lon="8.7212983"><ele>21.0</ele><time>2026-04-23T09:35:54.351Z</time></trkpt><trkpt lat="33.8163917" lon="8.7210383"><ele>21.0</ele><time>2026-04-23T09:35:55.35Z</time></trkpt><trkpt lat="33.8164917" lon="8.7207783"><ele>21.0</ele><time>2026-04-23T09:35:56.351Z</time></trkpt><trkpt lat="33.8165933" lon="8.7205167"><ele>21.0</ele><time>2026-04-23T09:35:57.35Z</time></trkpt><trkpt lat="33.8166967" lon="8.72025"><ele>21.0</ele><time>2026-04-23T09:35:58.35Z</time></trkpt><trkpt lat="33.8167933" lon="8.7199867"><ele>21.0</ele><time>2026-04-23T09:35:59.351Z</time></trkpt><trkpt lat="33.8168867" lon="8.7197233"><ele>20.5</ele><time>2026-04-23T09:36:00.35Z</time></trkpt><trkpt lat="33.8169867" lon="8.719465"><ele>20.0</ele><time>2026-04-23T09:36:01.351Z</time></trkpt><trkpt lat="33.8170867" lon="8.7192083"><ele>20.0</ele><time>2026-04-23T09:36:02.35Z</time></trkpt><trkpt lat="33.81719" lon="8.7189483"><ele>20.0</ele><time>2026-04-23T09:36:03.351Z</time></trkpt><trkpt lat="33.8172917" lon="8.7186867"><ele>20.0</ele><time>2026-04-23T09:36:04.35Z</time></trkpt><trkpt lat="33.817395" lon="8.7184183"><ele>20.0</ele><time>2026-04-23T09:36:05.351Z</time></trkpt><trkpt lat="33.817495" lon="8.7181533"><ele>20.0</ele><time>2026-04-23T09:36:06.351Z</time></trkpt><trkpt lat="33.8176017" lon="8.7178917"><ele>20.0</ele><time>2026-04-23T09:36:07.35Z</time></trkpt><trkpt lat="33.8177083" lon="8.7176283"><ele>20.0</ele><time>2026-04-23T09:36:08.351Z</time></trkpt><trkpt lat="33.8178117" lon="8.717365"><ele>20.0</ele><time>2026-04-23T09:36:09.351Z</time></trkpt><trkpt lat="33.8179167" lon="8.7171067"><ele>20.5</ele><time>2026-04-23T09:36:10.35Z</time></trkpt><trkpt lat="33.81801" lon="8.7168583"><ele>21.0</ele><time>2026-04-23T09:36:11.351Z</time></trkpt><trkpt lat="33.8181083" lon="8.7166083"><ele>21.0</ele><time>2026-04-23T09:36:12.35Z</time></trkpt><trkpt lat="33.8182083" lon="8.71637"><ele>21.0</ele><time>2026-04-23T09:36:13.35Z</time></trkpt><trkpt lat="33.8182917" lon="8.71614"><ele>21.0</ele><time>2026-04-23T09:36:14.35Z</time></trkpt><trkpt lat="33.81838" lon="8.7159083"><ele>21.0</ele><time>2026-04-23T09:36:15.351Z</time></trkpt><trkpt lat="33.8184733" lon="8.71567"><ele>21.0</ele><time>2026-04-23T09:36:16.351Z</time></trkpt><trkpt lat="33.8185667" lon="8.7154317"><ele>21.0</ele><time>2026-04-23T09:36:17.351Z</time></trkpt><trkpt lat="33.8186617" lon="8.7151917"><ele>20.333333333333332</ele><time>2026-04-23T09:36:18.351Z</time></trkpt><trkpt lat="33.81876" lon="8.7149483"><ele>19.666666666666664</ele><time>2026-04-23T09:36:19.351Z</time></trkpt><trkpt lat="33.8188633" lon="8.71471"><ele>19.0</ele><time>2026-04-23T09:36:20.35Z</time></trkpt><trkpt lat="33.8189667" lon="8.71447"><ele>19.5</ele><time>2026-04-23T09:36:21.35Z</time></trkpt><trkpt lat="33.8190683" lon="8.71423"><ele>20.0</ele><time>2026-04-23T09:36:22.35Z</time></trkpt><trkpt lat="33.8191733" lon="8.7139817"><ele>20.0</ele><time>2026-04-23T09:36:23.351Z</time></trkpt><trkpt lat="33.8192717" lon="8.7137233"><ele>20.0</ele><time>2026-04-23T09:36:24.35Z</time></trkpt><trkpt lat="33.8193667" lon="8.71347"><ele>20.0</ele><time>2026-04-23T09:36:25.351Z</time></trkpt><trkpt lat="33.819465" lon="8.7132167"><ele>20.0</ele><time>2026-04-23T09:36:26.35Z</time></trkpt><trkpt lat="33.819565" lon="8.712975"><ele>19.5</ele><time>2026-04-23T09:36:27.351Z</time></trkpt><trkpt lat="33.8196633" lon="8.7127233"><ele>19.0</ele><time>2026-04-23T09:36:28.35Z</time></trkpt><trkpt lat="33.8197733" lon="8.7124667"><ele>19.0</ele><time>2026-04-23T09:36:29.35Z</time></trkpt><trkpt lat="33.8198783" lon="8.7122167"><ele>19.0</ele><time>2026-04-23T09:36:30.351Z</time></trkpt><trkpt lat="33.81999" lon="8.711965"><ele>19.5</ele><time>2026-04-23T09:36:31.351Z</time></trkpt><trkpt lat="33.8201067" lon="8.711705"><ele>20.0</ele><time>2026-04-23T09:36:32.35Z</time></trkpt><trkpt lat="33.820215" lon="8.71145"><ele>20.0</ele><time>2026-04-23T09:36:33.35Z</time></trkpt><trkpt lat="33.8203233" lon="8.7111917"><ele>20.0</ele><time>2026-04-23T09:36:34.351Z</time></trkpt><trkpt lat="33.8204283" lon="8.7109383"><ele>19.0</ele><time>2026-04-23T09:36:35.351Z</time></trkpt><trkpt lat="33.8205367" lon="8.71068"><ele>18.0</ele><time>2026-04-23T09:36:36.35Z</time></trkpt><trkpt lat="33.8206417" lon="8.7104167"><ele>17.5</ele><time>2026-04-23T09:36:37.351Z</time></trkpt><trkpt lat="33.820745" lon="8.7101583"><ele>17.0</ele><time>2026-04-23T09:36:38.35Z</time></trkpt><trkpt lat="33.8208567" lon="8.7098917"><ele>17.0</ele><time>2026-04-23T09:36:39.351Z</time></trkpt><trkpt lat="33.8209633" lon="8.7096217"><ele>17.0</ele><time>2026-04-23T09:36:40.351Z</time></trkpt><trkpt lat="33.8210717" lon="8.70936"><ele>17.5</ele><time>2026-04-23T09:36:41.35Z</time></trkpt><trkpt lat="33.8211833" lon="8.7091033"><ele>18.0</ele><time>2026-04-23T09:36:42.35Z</time></trkpt><trkpt lat="33.8213" lon="8.70884"><ele>18.0</ele><time>2026-04-23T09:36:43.351Z</time></trkpt><trkpt lat="33.8214083" lon="8.7085783"><ele>18.0</ele><time>2026-04-23T09:36:44.35Z</time></trkpt><trkpt lat="33.821515" lon="8.708315"><ele>18.5</ele><time>2026-04-23T09:36:45.35Z</time></trkpt><trkpt lat="33.821625" lon="8.7080567"><ele>19.0</ele><time>2026-04-23T09:36:46.351Z</time></trkpt><trkpt lat="33.82173" lon="8.7077967"><ele>19.0</ele><time>2026-04-23T09:36:47.351Z</time></trkpt><trkpt lat="33.8218417" lon="8.70754"><ele>19.0</ele><time>2026-04-23T09:36:48.35Z</time></trkpt><trkpt lat="33.8219533" lon="8.7072817"><ele>19.0</ele><time>2026-04-23T09:36:49.35Z</time></trkpt><trkpt lat="33.8220617" lon="8.7070167"><ele>19.0</ele><time>2026-04-23T09:36:50.351Z</time></trkpt><trkpt lat="33.822175" lon="8.7067583"><ele>19.5</ele><time>2026-04-23T09:36:51.351Z</time></trkpt><trkpt lat="33.8222867" lon="8.706505"><ele>20.0</ele><time>2026-04-23T09:36:52.351Z</time></trkpt><trkpt lat="33.8223983" lon="8.706245"><ele>19.5</ele><time>2026-04-23T09:36:53.35Z</time></trkpt><trkpt lat="33.8225117" lon="8.7059817"><ele>19.0</ele><time>2026-04-23T09:36:54.35Z</time></trkpt><trkpt lat="33.82262" lon="8.70572"><ele>18.5</ele><time>2026-04-23T09:36:55.351Z</time></trkpt><trkpt lat="33.8227233" lon="8.7054583"><ele>18.0</ele><time>2026-04-23T09:36:56.351Z</time></trkpt><trkpt lat="33.8228217" lon="8.7051983"><ele>18.0</ele><time>2026-04-23T09:36:57.351Z</time></trkpt><trkpt lat="33.8229333" lon="8.7049417"><ele>18.0</ele><time>2026-04-23T09:36:58.351Z</time></trkpt><trkpt lat="33.8230467" lon="8.7046883"><ele>18.0</ele><time>2026-04-23T09:36:59.351Z</time></trkpt><trkpt lat="33.8231567" lon="8.7044267"><ele>18.0</ele><time>2026-04-23T09:37:00.351Z</time></trkpt><trkpt lat="33.823265" lon="8.7041633"><ele>18.0</ele><time>2026-04-23T09:37:01.351Z</time></trkpt><trkpt lat="33.82338" lon="8.7038967"><ele>18.0</ele><time>2026-04-23T09:37:02.35Z</time></trkpt><trkpt lat="33.823495" lon="8.70363"><ele>19.0</ele><time>2026-04-23T09:37:03.35Z</time></trkpt><trkpt lat="33.82361" lon="8.7033717"><ele>20.0</ele><time>2026-04-23T09:37:04.35Z</time></trkpt><trkpt lat="33.823715" lon="8.703115"><ele>20.0</ele><time>2026-04-23T09:37:05.35Z</time></trkpt><trkpt lat="33.82382" lon="8.7028567"><ele>20.0</ele><time>2026-04-23T09:37:06.35Z</time></trkpt><trkpt lat="33.82393" lon="8.7025967"><ele>19.5</ele><time>2026-04-23T09:37:07.351Z</time></trkpt><trkpt lat="33.8240383" lon="8.7023333"><ele>19.0</ele><time>2026-04-23T09:37:08.35Z</time></trkpt><trkpt lat="33.8241433" lon="8.7020767"><ele>19.0</ele><time>2026-04-23T09:37:09.35Z</time></trkpt><trkpt lat="33.8242483" lon="8.7018167"><ele>19.0</ele><time>2026-04-23T09:37:10.351Z</time></trkpt><trkpt lat="33.8243633" lon="8.7015533"><ele>19.0</ele><time>2026-04-23T09:37:11.35Z</time></trkpt><trkpt lat="33.824475" lon="8.7012917"><ele>19.0</ele><time>2026-04-23T09:37:12.35Z</time></trkpt><trkpt lat="33.8245867" lon="8.70103"><ele>18.5</ele><time>2026-04-23T09:37:13.35Z</time></trkpt><trkpt lat="33.8246933" lon="8.700775"><ele>18.0</ele><time>2026-04-23T09:37:14.35Z</time></trkpt><trkpt lat="33.8248033" lon="8.70052"><ele>18.0</ele><time>2026-04-23T09:37:15.35Z</time></trkpt><trkpt lat="33.82491" lon="8.70026"><ele>18.0</ele><time>2026-04-23T09:37:16.35Z</time></trkpt><trkpt lat="33.82502" lon="8.7000033"><ele>18.5</ele><time>2026-04-23T09:37:17.35Z</time></trkpt><trkpt lat="33.8251367" lon="8.6997417"><ele>19.0</ele><time>2026-04-23T09:37:18.351Z</time></trkpt><trkpt lat="33.8252433" lon="8.6994767"><ele>18.5</ele><time>2026-04-23T09:37:19.351Z</time></trkpt><trkpt lat="33.825355" lon="8.69921"><ele>18.0</ele><time>2026-04-23T09:37:20.35Z</time></trkpt><trkpt lat="33.8254717" lon="8.69894"><ele>18.0</ele><time>2026-04-23T09:37:21.351Z</time></trkpt><trkpt lat="33.8255783" lon="8.6986817"><ele>18.0</ele><time>2026-04-23T09:37:22.351Z</time></trkpt><trkpt lat="33.8256833" lon="8.69842"><ele>18.5</ele><time>2026-04-23T09:37:23.35Z</time></trkpt><trkpt lat="33.825795" lon="8.69816"><ele>19.0</ele><time>2026-04-23T09:37:24.35Z</time></trkpt><trkpt lat="33.8259033" lon="8.6979"><ele>18.0</ele><time>2026-04-23T09:37:25.351Z</time></trkpt><trkpt lat="33.8260117" lon="8.6976333"><ele>17.0</ele><time>2026-04-23T09:37:26.35Z</time></trkpt><trkpt lat="33.82612" lon="8.69737"><ele>17.0</ele><time>2026-04-23T09:37:27.35Z</time></trkpt><trkpt lat="33.8262317" lon="8.6971017"><ele>17.0</ele><time>2026-04-23T09:37:28.35Z</time></trkpt><trkpt lat="33.826345" lon="8.6968367"><ele>17.0</ele><time>2026-04-23T09:37:29.35Z</time></trkpt><trkpt lat="33.8264617" lon="8.6965783"><ele>17.0</ele><time>2026-04-23T09:37:30.35Z</time></trkpt><trkpt lat="33.826575" lon="8.6963167"><ele>17.0</ele><time>2026-04-23T09:37:31.351Z</time></trkpt><trkpt lat="33.8266883" lon="8.6960567"><ele>17.0</ele><time>2026-04-23T09:37:32.351Z</time></trkpt><trkpt lat="33.8267933" lon="8.6958"><ele>17.0</ele><time>2026-04-23T09:37:33.351Z</time></trkpt><trkpt lat="33.8269017" lon="8.69554"><ele>17.0</ele><time>2026-04-23T09:37:34.351Z</time></trkpt><trkpt lat="33.8270083" lon="8.695275"><ele>17.0</ele><time>2026-04-23T09:37:35.351Z</time></trkpt><trkpt lat="33.8271083" lon="8.6950183"><ele>17.0</ele><time>2026-04-23T09:37:36.351Z</time></trkpt><trkpt lat="33.8272183" lon="8.6947633"><ele>17.0</ele><time>2026-04-23T09:37:37.351Z</time></trkpt><trkpt lat="33.8273283" lon="8.6945117"><ele>17.0</ele><time>2026-04-23T09:37:38.351Z</time></trkpt><trkpt lat="33.8274333" lon="8.694265"><ele>17.5</ele><time>2026-04-23T09:37:39.351Z</time></trkpt><trkpt lat="33.8275433" lon="8.694015"><ele>18.0</ele><time>2026-04-23T09:37:40.35Z</time></trkpt><trkpt lat="33.8276567" lon="8.6937683"><ele>17.5</ele><time>2026-04-23T09:37:41.35Z</time></trkpt><trkpt lat="33.8277683" lon="8.69352"><ele>17.0</ele><time>2026-04-23T09:37:42.35Z</time></trkpt><trkpt lat="33.8278767" lon="8.693265"><ele>17.0</ele><time>2026-04-23T09:37:43.35Z</time></trkpt><trkpt lat="33.827985" lon="8.6930117"><ele>17.0</ele><time>2026-04-23T09:37:44.351Z</time></trkpt><trkpt lat="33.8280917" lon="8.6927583"><ele>17.5</ele><time>2026-04-23T09:37:45.351Z</time></trkpt><trkpt lat="33.8281983" lon="8.6925"><ele>18.0</ele><time>2026-04-23T09:37:46.351Z</time></trkpt><trkpt lat="33.8283167" lon="8.6922367"><ele>18.0</ele><time>2026-04-23T09:37:47.351Z</time></trkpt><trkpt lat="33.8284283" lon="8.691985"><ele>18.0</ele><time>2026-04-23T09:37:48.35Z</time></trkpt><trkpt lat="33.828545" lon="8.691735"><ele>20.0</ele><time>2026-04-23T09:37:49.351Z</time></trkpt><trkpt lat="33.8286633" lon="8.6914817"><ele>22.0</ele><time>2026-04-23T09:37:50.351Z</time></trkpt><trkpt lat="33.8287817" lon="8.691225"><ele>19.5</ele><time>2026-04-23T09:37:51.35Z</time></trkpt><trkpt lat="33.8288983" lon="8.6909733"><ele>17.0</ele><time>2026-04-23T09:37:52.35Z</time></trkpt><trkpt lat="33.8290167" lon="8.6907233"><ele>17.0</ele><time>2026-04-23T09:37:53.351Z</time></trkpt><trkpt lat="33.8291317" lon="8.6904667"><ele>17.0</ele><time>2026-04-23T09:37:54.35Z</time></trkpt><trkpt lat="33.82925" lon="8.6902083"><ele>16.5</ele><time>2026-04-23T09:37:55.35Z</time></trkpt><trkpt lat="33.8293667" lon="8.689955"><ele>16.0</ele><time>2026-04-23T09:37:56.351Z</time></trkpt><trkpt lat="33.8294783" lon="8.6897017"><ele>16.0</ele><time>2026-04-23T09:37:57.35Z</time></trkpt><trkpt lat="33.829595" lon="8.6894433"><ele>16.0</ele><time>2026-04-23T09:37:58.35Z</time></trkpt><trkpt lat="33.829705" lon="8.6891883"><ele>17.0</ele><time>2026-04-23T09:37:59.35Z</time></trkpt><trkpt lat="33.8298167" lon="8.6889367"><ele>18.0</ele><time>2026-04-23T09:38:00.35Z</time></trkpt><trkpt lat="33.8299267" lon="8.6886817"><ele>18.0</ele><time>2026-04-23T09:38:01.35Z</time></trkpt><trkpt lat="33.8300383" lon="8.6884317"><ele>18.0</ele><time>2026-04-23T09:38:02.351Z</time></trkpt><trkpt lat="33.830155" lon="8.6881833"><ele>17.5</ele><time>2026-04-23T09:38:03.351Z</time></trkpt><trkpt lat="33.83027" lon="8.68793"><ele>17.0</ele><time>2026-04-23T09:38:04.35Z</time></trkpt><trkpt lat="33.8303883" lon="8.68767"><ele>18.0</ele><time>2026-04-23T09:38:05.351Z</time></trkpt><trkpt lat="33.8305067" lon="8.687415"><ele>19.0</ele><time>2026-04-23T09:38:06.35Z</time></trkpt><trkpt lat="33.8306233" lon="8.6871617"><ele>18.0</ele><time>2026-04-23T09:38:07.35Z</time></trkpt><trkpt lat="33.8307383" lon="8.6869133"><ele>17.0</ele><time>2026-04-23T09:38:08.351Z</time></trkpt><trkpt lat="33.8308467" lon="8.68666"><ele>17.0</ele><time>2026-04-23T09:38:09.35Z</time></trkpt><trkpt lat="33.8309633" lon="8.6864"><ele>17.0</ele><time>2026-04-23T09:38:10.351Z</time></trkpt><trkpt lat="33.831075" lon="8.6861433"><ele>18.0</ele><time>2026-04-23T09:38:11.35Z</time></trkpt><trkpt lat="33.831185" lon="8.6858917"><ele>19.0</ele><time>2026-04-23T09:38:12.35Z</time></trkpt><trkpt lat="33.8312917" lon="8.6856317"><ele>19.0</ele><time>2026-04-23T09:38:13.351Z</time></trkpt><trkpt lat="33.8314033" lon="8.685375"><ele>19.0</ele><time>2026-04-23T09:38:14.35Z</time></trkpt><trkpt lat="33.8315167" lon="8.6851183"><ele>19.0</ele><time>2026-04-23T09:38:15.351Z</time></trkpt><trkpt lat="33.831635" lon="8.6848733"><ele>19.0</ele><time>2026-04-23T09:38:16.35Z</time></trkpt><trkpt lat="33.8317533" lon="8.684625"><ele>18.0</ele><time>2026-04-23T09:38:17.351Z</time></trkpt><trkpt lat="33.8318767" lon="8.684365"><ele>17.0</ele><time>2026-04-23T09:38:18.35Z</time></trkpt><trkpt lat="33.83199" lon="8.684105"><ele>17.0</ele><time>2026-04-23T09:38:19.351Z</time></trkpt><trkpt lat="33.8321" lon="8.6838533"><ele>17.0</ele><time>2026-04-23T09:38:20.35Z</time></trkpt><trkpt lat="33.8322167" lon="8.6835967"><ele>17.0</ele><time>2026-04-23T09:38:21.35Z</time></trkpt><trkpt lat="33.8323317" lon="8.6833483"><ele>17.0</ele><time>2026-04-23T09:38:22.35Z</time></trkpt><trkpt lat="33.8324483" lon="8.6830983"><ele>17.0</ele><time>2026-04-23T09:38:23.35Z</time></trkpt><trkpt lat="33.8325667" lon="8.6828417"><ele>17.0</ele><time>2026-04-23T09:38:24.35Z</time></trkpt><trkpt lat="33.83269" lon="8.6825883"><ele>17.0</ele><time>2026-04-23T09:38:25.351Z</time></trkpt><trkpt lat="33.8328017" lon="8.6823233"><ele>17.0</ele><time>2026-04-23T09:38:26.35Z</time></trkpt><trkpt lat="33.8329117" lon="8.6820617"><ele>18.0</ele><time>2026-04-23T09:38:27.351Z</time></trkpt><trkpt lat="33.8330217" lon="8.6818067"><ele>19.0</ele><time>2026-04-23T09:38:28.35Z</time></trkpt><trkpt lat="33.83313" lon="8.6815517"><ele>19.0</ele><time>2026-04-23T09:38:29.35Z</time></trkpt><trkpt lat="33.8332383" lon="8.6812917"><ele>19.0</ele><time>2026-04-23T09:38:30.35Z</time></trkpt><trkpt lat="33.8333567" lon="8.6810333"><ele>18.0</ele><time>2026-04-23T09:38:31.351Z</time></trkpt><trkpt lat="33.8334783" lon="8.680785"><ele>17.0</ele><time>2026-04-23T09:38:32.35Z</time></trkpt><trkpt lat="33.8336017" lon="8.6805267"><ele>17.0</ele><time>2026-04-23T09:38:33.35Z</time></trkpt><trkpt lat="33.8337183" lon="8.6802683"><ele>17.0</ele><time>2026-04-23T09:38:34.35Z</time></trkpt><trkpt lat="33.83383" lon="8.6800167"><ele>16.5</ele><time>2026-04-23T09:38:35.351Z</time></trkpt><trkpt lat="33.833945" lon="8.6797633"><ele>16.0</ele><time>2026-04-23T09:38:36.351Z</time></trkpt><trkpt lat="33.8340567" lon="8.6795067"><ele>17.0</ele><time>2026-04-23T09:38:37.35Z</time></trkpt><trkpt lat="33.8341683" lon="8.679255"><ele>18.0</ele><time>2026-04-23T09:38:38.35Z</time></trkpt><trkpt lat="33.8342833" lon="8.6789983"><ele>18.5</ele><time>2026-04-23T09:38:39.35Z</time></trkpt><trkpt lat="33.8343967" lon="8.6787467"><ele>19.0</ele><time>2026-04-23T09:38:40.351Z</time></trkpt><trkpt lat="33.8345133" lon="8.6785033"><ele>19.5</ele><time>2026-04-23T09:38:41.351Z</time></trkpt><trkpt lat="33.8346283" lon="8.67825"><ele>20.0</ele><time>2026-04-23T09:38:42.351Z</time></trkpt><trkpt lat="33.834745" lon="8.6779983"><ele>20.0</ele><time>2026-04-23T09:38:43.35Z</time></trkpt><trkpt lat="33.8348633" lon="8.67774"><ele>20.0</ele><time>2026-04-23T09:38:44.351Z</time></trkpt><trkpt lat="33.834975" lon="8.6774833"><ele>20.0</ele><time>2026-04-23T09:38:45.35Z</time></trkpt><trkpt lat="33.8350917" lon="8.6772283"><ele>20.0</ele><time>2026-04-23T09:38:46.35Z</time></trkpt><trkpt lat="33.8352017" lon="8.676965"><ele>19.0</ele><time>2026-04-23T09:38:47.349Z</time></trkpt><trkpt lat="33.8353083" lon="8.67671"><ele>18.0</ele><time>2026-04-23T09:38:48.35Z</time></trkpt><trkpt lat="33.8354167" lon="8.6764633"><ele>18.0</ele><time>2026-04-23T09:38:49.35Z</time></trkpt><trkpt lat="33.8355333" lon="8.67621"><ele>18.0</ele><time>2026-04-23T09:38:50.35Z</time></trkpt><trkpt lat="33.835655" lon="8.6759433"><ele>18.0</ele><time>2026-04-23T09:38:51.35Z</time></trkpt><trkpt lat="33.8357767" lon="8.6756833"><ele>18.0</ele><time>2026-04-23T09:38:52.349Z</time></trkpt><trkpt lat="33.835885" lon="8.6754333"><ele>19.5</ele><time>2026-04-23T09:38:53.349Z</time></trkpt><trkpt lat="33.836" lon="8.6751833"><ele>21.0</ele><time>2026-04-23T09:38:54.35Z</time></trkpt><trkpt lat="33.8361117" lon="8.6749267"><ele>21.0</ele><time>2026-04-23T09:38:55.349Z</time></trkpt><trkpt lat="33.8362233" lon="8.6746783"><ele>21.0</ele><time>2026-04-23T09:38:56.35Z</time></trkpt><trkpt lat="33.8363367" lon="8.6744233"><ele>20.5</ele><time>2026-04-23T09:38:57.349Z</time></trkpt><trkpt lat="33.836445" lon="8.6741633"><ele>20.0</ele><time>2026-04-23T09:38:58.35Z</time></trkpt><trkpt lat="33.8365583" lon="8.6739067"><ele>20.0</ele><time>2026-04-23T09:38:59.35Z</time></trkpt><trkpt lat="33.836675" lon="8.6736483"><ele>20.0</ele><time>2026-04-23T09:39:00.35Z</time></trkpt><trkpt lat="33.8367917" lon="8.67339"><ele>20.0</ele><time>2026-04-23T09:39:01.35Z</time></trkpt><trkpt lat="33.83691" lon="8.6731283"><ele>20.0</ele><time>2026-04-23T09:39:02.349Z</time></trkpt><trkpt lat="33.8370283" lon="8.6728717"><ele>19.0</ele><time>2026-04-23T09:39:03.35Z</time></trkpt><trkpt lat="33.8371417" lon="8.6726133"><ele>18.0</ele><time>2026-04-23T09:39:04.35Z</time></trkpt><trkpt lat="33.8372533" lon="8.6723567"><ele>18.0</ele><time>2026-04-23T09:39:05.349Z</time></trkpt><trkpt lat="33.8373667" lon="8.6721"><ele>18.0</ele><time>2026-04-23T09:39:06.35Z</time></trkpt><trkpt lat="33.83748" lon="8.67184"><ele>17.0</ele><time>2026-04-23T09:39:07.349Z</time></trkpt><trkpt lat="33.8376017" lon="8.67158"><ele>16.0</ele><time>2026-04-23T09:39:08.349Z</time></trkpt><trkpt lat="33.8377167" lon="8.6713233"><ele>16.0</ele><time>2026-04-23T09:39:09.35Z</time></trkpt><trkpt lat="33.837835" lon="8.6710533"><ele>16.0</ele><time>2026-04-23T09:39:10.35Z</time></trkpt><trkpt lat="33.837955" lon="8.6707933"><ele>16.0</ele><time>2026-04-23T09:39:11.35Z</time></trkpt><trkpt lat="33.83807" lon="8.67054"><ele>16.0</ele><time>2026-04-23T09:39:12.35Z</time></trkpt><trkpt lat="33.8381833" lon="8.67028"><ele>16.0</ele><time>2026-04-23T09:39:13.35Z</time></trkpt><trkpt lat="33.8383033" lon="8.6700183"><ele>16.0</ele><time>2026-04-23T09:39:14.349Z</time></trkpt><trkpt lat="33.8384183" lon="8.6697567"><ele>16.5</ele><time>2026-04-23T09:39:15.349Z</time></trkpt><trkpt lat="33.8385333" lon="8.6695"><ele>17.0</ele><time>2026-04-23T09:39:16.35Z</time></trkpt><trkpt lat="33.8386483" lon="8.6692433"><ele>17.0</ele><time>2026-04-23T09:39:17.349Z</time></trkpt><trkpt lat="33.838755" lon="8.6689883"><ele>17.0</ele><time>2026-04-23T09:39:18.35Z</time></trkpt><trkpt lat="33.83887" lon="8.6687367"><ele>18.5</ele><time>2026-04-23T09:39:19.35Z</time></trkpt><trkpt lat="33.8389917" lon="8.6684717"><ele>20.0</ele><time>2026-04-23T09:39:20.349Z</time></trkpt><trkpt lat="33.8391083" lon="8.66821"><ele>20.0</ele><time>2026-04-23T09:39:21.349Z</time></trkpt><trkpt lat="33.839225" lon="8.6679483"><ele>20.0</ele><time>2026-04-23T09:39:22.35Z</time></trkpt><trkpt lat="33.83934" lon="8.6676933"><ele>19.5</ele><time>2026-04-23T09:39:23.349Z</time></trkpt><trkpt lat="33.8394467" lon="8.667445"><ele>19.0</ele><time>2026-04-23T09:39:24.35Z</time></trkpt><trkpt lat="33.8395567" lon="8.6672017"><ele>19.0</ele><time>2026-04-23T09:39:25.35Z</time></trkpt><trkpt lat="33.8396633" lon="8.6669583"><ele>19.0</ele><time>2026-04-23T09:39:26.35Z</time></trkpt><trkpt lat="33.8397733" lon="8.6667"><ele>20.5</ele><time>2026-04-23T09:39:27.349Z</time></trkpt><trkpt lat="33.839885" lon="8.66645"><ele>22.0</ele><time>2026-04-23T09:39:28.35Z</time></trkpt><trkpt lat="33.8400033" lon="8.6662017"><ele>20.5</ele><time>2026-04-23T09:39:29.349Z</time></trkpt><trkpt lat="33.84012" lon="8.6659483"><ele>19.0</ele><time>2026-04-23T09:39:30.349Z</time></trkpt><trkpt lat="33.840235" lon="8.665695"><ele>19.0</ele><time>2026-04-23T09:39:31.35Z</time></trkpt><trkpt lat="33.84035" lon="8.6654383"><ele>19.0</ele><time>2026-04-23T09:39:32.35Z</time></trkpt><trkpt lat="33.840465" lon="8.665185"><ele>18.0</ele><time>2026-04-23T09:39:33.349Z</time></trkpt><trkpt lat="33.8405817" lon="8.6649317"><ele>17.0</ele><time>2026-04-23T09:39:34.35Z</time></trkpt><trkpt lat="33.8406967" lon="8.6646767"><ele>17.0</ele><time>2026-04-23T09:39:35.349Z</time></trkpt><trkpt lat="33.8408183" lon="8.6644283"><ele>17.0</ele><time>2026-04-23T09:39:36.35Z</time></trkpt><trkpt lat="33.840935" lon="8.6641817"><ele>16.5</ele><time>2026-04-23T09:39:37.349Z</time></trkpt><trkpt lat="33.84106" lon="8.6639367"><ele>16.0</ele><time>2026-04-23T09:39:38.35Z</time></trkpt><trkpt lat="33.84119" lon="8.6636833"><ele>18.0</ele><time>2026-04-23T09:39:39.35Z</time></trkpt><trkpt lat="33.84131" lon="8.6634283"><ele>20.0</ele><time>2026-04-23T09:39:40.349Z</time></trkpt><trkpt lat="33.8414333" lon="8.66318"><ele>20.0</ele><time>2026-04-23T09:39:41.349Z</time></trkpt><trkpt lat="33.84155" lon="8.6629283"><ele>20.0</ele><time>2026-04-23T09:39:42.349Z</time></trkpt><trkpt lat="33.841675" lon="8.66267"><ele>20.0</ele><time>2026-04-23T09:39:43.349Z</time></trkpt><trkpt lat="33.8417967" lon="8.66242"><ele>20.0</ele><time>2026-04-23T09:39:44.35Z</time></trkpt><trkpt lat="33.8419133" lon="8.662175"><ele>20.0</ele><time>2026-04-23T09:39:45.35Z</time></trkpt><trkpt lat="33.8420267" lon="8.6619217"><ele>20.0</ele><time>2026-04-23T09:39:46.35Z</time></trkpt><trkpt lat="33.8421433" lon="8.6616667"><ele>20.0</ele><time>2026-04-23T09:39:47.349Z</time></trkpt><trkpt lat="33.8422717" lon="8.6614067"><ele>20.0</ele><time>2026-04-23T09:39:48.35Z</time></trkpt><trkpt lat="33.8423933" lon="8.661155"><ele>19.5</ele><time>2026-04-23T09:39:49.349Z</time></trkpt><trkpt lat="33.8425183" lon="8.6609033"><ele>19.0</ele><time>2026-04-23T09:39:50.349Z</time></trkpt><trkpt lat="33.8426483" lon="8.6606433"><ele>18.5</ele><time>2026-04-23T09:39:51.349Z</time></trkpt><trkpt lat="33.8427767" lon="8.6603833"><ele>18.0</ele><time>2026-04-23T09:39:52.35Z</time></trkpt><trkpt lat="33.8428967" lon="8.6601317"><ele>18.0</ele><time>2026-04-23T09:39:53.349Z</time></trkpt><trkpt lat="33.8430133" lon="8.6598833"><ele>18.0</ele><time>2026-04-23T09:39:54.349Z</time></trkpt><trkpt lat="33.84314" lon="8.65963"><ele>17.5</ele><time>2026-04-23T09:39:55.349Z</time></trkpt><trkpt lat="33.8432583" lon="8.6593733"><ele>17.0</ele><time>2026-04-23T09:39:56.349Z</time></trkpt><trkpt lat="33.8433783" lon="8.65912"><ele>17.0</ele><time>2026-04-23T09:39:57.349Z</time></trkpt><trkpt lat="33.843495" lon="8.6588633"><ele>17.0</ele><time>2026-04-23T09:39:58.35Z</time></trkpt><trkpt lat="33.8436167" lon="8.65861"><ele>17.0</ele><time>2026-04-23T09:39:59.35Z</time></trkpt><trkpt lat="33.8437417" lon="8.658355"><ele>17.0</ele><time>2026-04-23T09:40:00.35Z</time></trkpt><trkpt lat="33.8438583" lon="8.6581017"><ele>17.0</ele><time>2026-04-23T09:40:01.349Z</time></trkpt><trkpt lat="33.8439783" lon="8.65784"><ele>17.0</ele><time>2026-04-23T09:40:02.349Z</time></trkpt><trkpt lat="33.844105" lon="8.6575883"><ele>17.0</ele><time>2026-04-23T09:40:03.349Z</time></trkpt><trkpt lat="33.8442283" lon="8.6573333"><ele>17.0</ele><time>2026-04-23T09:40:04.349Z</time></trkpt><trkpt lat="33.8443567" lon="8.6570783"><ele>18.5</ele><time>2026-04-23T09:40:05.35Z</time></trkpt><trkpt lat="33.8444783" lon="8.6568267"><ele>20.0</ele><time>2026-04-23T09:40:06.35Z</time></trkpt><trkpt lat="33.8446" lon="8.65658"><ele>20.0</ele><time>2026-04-23T09:40:07.349Z</time></trkpt><trkpt lat="33.8447167" lon="8.656325"><ele>20.0</ele><time>2026-04-23T09:40:08.349Z</time></trkpt><trkpt lat="33.84484" lon="8.6560783"><ele>19.5</ele><time>2026-04-23T09:40:09.349Z</time></trkpt><trkpt lat="33.84496" lon="8.65583"><ele>19.0</ele><time>2026-04-23T09:40:10.349Z</time></trkpt><trkpt lat="33.8450833" lon="8.6555733"><ele>19.5</ele><time>2026-04-23T09:40:11.35Z</time></trkpt><trkpt lat="33.84521" lon="8.6553117"><ele>20.0</ele><time>2026-04-23T09:40:12.35Z</time></trkpt><trkpt lat="33.8453333" lon="8.65506"><ele>17.5</ele><time>2026-04-23T09:40:13.349Z</time></trkpt><trkpt lat="33.8454517" lon="8.6548083"><ele>15.0</ele><time>2026-04-23T09:40:14.35Z</time></trkpt><trkpt lat="33.8455733" lon="8.65456"><ele>17.5</ele><time>2026-04-23T09:40:15.349Z</time></trkpt><trkpt lat="33.845695" lon="8.6542967"><ele>20.0</ele><time>2026-04-23T09:40:16.35Z</time></trkpt><trkpt lat="33.8458183" lon="8.65404"><ele>20.0</ele><time>2026-04-23T09:40:17.349Z</time></trkpt><trkpt lat="33.8459417" lon="8.6537817"><ele>20.0</ele><time>2026-04-23T09:40:18.35Z</time></trkpt><trkpt lat="33.8460667" lon="8.653515"><ele>19.0</ele><time>2026-04-23T09:40:19.35Z</time></trkpt><trkpt lat="33.8461883" lon="8.6532533"><ele>18.0</ele><time>2026-04-23T09:40:20.35Z</time></trkpt><trkpt lat="33.8463067" lon="8.6530033"><ele>17.0</ele><time>2026-04-23T09:40:21.349Z</time></trkpt><trkpt lat="33.8464267" lon="8.6527517"><ele>16.0</ele><time>2026-04-23T09:40:22.35Z</time></trkpt><trkpt lat="33.8465467" lon="8.6525"><ele>16.0</ele><time>2026-04-23T09:40:23.35Z</time></trkpt><trkpt lat="33.8466667" lon="8.6522483"><ele>16.0</ele><time>2026-04-23T09:40:24.349Z</time></trkpt><trkpt lat="33.8467883" lon="8.652005"><ele>16.5</ele><time>2026-04-23T09:40:25.35Z</time></trkpt><trkpt lat="33.84691" lon="8.6517567"><ele>17.0</ele><time>2026-04-23T09:40:26.35Z</time></trkpt><trkpt lat="33.8470267" lon="8.65151"><ele>17.0</ele><time>2026-04-23T09:40:27.349Z</time></trkpt><trkpt lat="33.8471517" lon="8.65126"><ele>17.0</ele><time>2026-04-23T09:40:28.349Z</time></trkpt><trkpt lat="33.847275" lon="8.6510067"><ele>16.5</ele><time>2026-04-23T09:40:29.349Z</time></trkpt><trkpt lat="33.8473933" lon="8.650755"><ele>16.0</ele><time>2026-04-23T09:40:30.349Z</time></trkpt><trkpt lat="33.8475" lon="8.6505033"><ele>18.0</ele><time>2026-04-23T09:40:31.349Z</time></trkpt><trkpt lat="33.847615" lon="8.650255"><ele>20.0</ele><time>2026-04-23T09:40:32.35Z</time></trkpt><trkpt lat="33.8477367" lon="8.6500033"><ele>20.0</ele><time>2026-04-23T09:40:33.35Z</time></trkpt><trkpt lat="33.8478583" lon="8.6497483"><ele>20.0</ele><time>2026-04-23T09:40:34.35Z</time></trkpt><trkpt lat="33.8479833" lon="8.6494933"><ele>19.5</ele><time>2026-04-23T09:40:35.349Z</time></trkpt><trkpt lat="33.84811" lon="8.6492417"><ele>19.0</ele><time>2026-04-23T09:40:36.35Z</time></trkpt><trkpt lat="33.8482333" lon="8.6489967"><ele>19.0</ele><time>2026-04-23T09:40:37.349Z</time></trkpt><trkpt lat="33.8483533" lon="8.648745"><ele>19.0</ele><time>2026-04-23T09:40:38.349Z</time></trkpt><trkpt lat="33.8484767" lon="8.6484883"><ele>18.5</ele><time>2026-04-23T09:40:39.349Z</time></trkpt><trkpt lat="33.8486017" lon="8.6482283"><ele>18.0</ele><time>2026-04-23T09:40:40.349Z</time></trkpt><trkpt lat="33.848725" lon="8.647965"><ele>18.5</ele><time>2026-04-23T09:40:41.35Z</time></trkpt><trkpt lat="33.8488483" lon="8.64771"><ele>19.0</ele><time>2026-04-23T09:40:42.35Z</time></trkpt><trkpt lat="33.8489717" lon="8.6474583"><ele>19.0</ele><time>2026-04-23T09:40:43.35Z</time></trkpt><trkpt lat="33.84909" lon="8.6472167"><ele>19.0</ele><time>2026-04-23T09:40:44.35Z</time></trkpt><trkpt lat="33.8492167" lon="8.6469667"><ele>19.5</ele><time>2026-04-23T09:40:45.349Z</time></trkpt><trkpt lat="33.84933" lon="8.64672"><ele>20.0</ele><time>2026-04-23T09:40:46.35Z</time></trkpt><trkpt lat="33.849445" lon="8.6464667"><ele>20.0</ele><time>2026-04-23T09:40:47.35Z</time></trkpt><trkpt lat="33.84956" lon="8.6462183"><ele>20.0</ele><time>2026-04-23T09:40:48.35Z</time></trkpt><trkpt lat="33.8496833" lon="8.6459717"><ele>20.5</ele><time>2026-04-23T09:40:49.349Z</time></trkpt><trkpt lat="33.849805" lon="8.6457183"><ele>21.0</ele><time>2026-04-23T09:40:50.35Z</time></trkpt><trkpt lat="33.8499217" lon="8.645475"><ele>20.0</ele><time>2026-04-23T09:40:51.349Z</time></trkpt><trkpt lat="33.850045" lon="8.6452283"><ele>19.0</ele><time>2026-04-23T09:40:52.349Z</time></trkpt><trkpt lat="33.850165" lon="8.6449767"><ele>19.0</ele><time>2026-04-23T09:40:53.35Z</time></trkpt><trkpt lat="33.850285" lon="8.6447217"><ele>19.0</ele><time>2026-04-23T09:40:54.349Z</time></trkpt><trkpt lat="33.850405" lon="8.64447"><ele>19.5</ele><time>2026-04-23T09:40:55.349Z</time></trkpt><trkpt lat="33.850525" lon="8.64422"><ele>20.0</ele><time>2026-04-23T09:40:56.35Z</time></trkpt><trkpt lat="33.8506467" lon="8.6439633"><ele>20.0</ele><time>2026-04-23T09:40:57.349Z</time></trkpt><trkpt lat="33.8507617" lon="8.6437083"><ele>20.0</ele><time>2026-04-23T09:40:58.349Z</time></trkpt><trkpt lat="33.85088" lon="8.6434533"><ele>19.0</ele><time>2026-04-23T09:40:59.35Z</time></trkpt><trkpt lat="33.8510067" lon="8.643195"><ele>18.0</ele><time>2026-04-23T09:41:00.349Z</time></trkpt><trkpt lat="33.851125" lon="8.6429433"><ele>17.5</ele><time>2026-04-23T09:41:01.35Z</time></trkpt><trkpt lat="33.8512483" lon="8.642685"><ele>17.0</ele><time>2026-04-23T09:41:02.349Z</time></trkpt><trkpt lat="33.851365" lon="8.6424367"><ele>17.0</ele><time>2026-04-23T09:41:03.349Z</time></trkpt><trkpt lat="33.85149" lon="8.64219"><ele>17.0</ele><time>2026-04-23T09:41:04.349Z</time></trkpt><trkpt lat="33.851615" lon="8.6419367"><ele>18.0</ele><time>2026-04-23T09:41:05.349Z</time></trkpt><trkpt lat="33.8517333" lon="8.6416867"><ele>19.0</ele><time>2026-04-23T09:41:06.35Z</time></trkpt><trkpt lat="33.851855" lon="8.6414383"><ele>19.0</ele><time>2026-04-23T09:41:07.349Z</time></trkpt><trkpt lat="33.851975" lon="8.6411833"><ele>19.0</ele><time>2026-04-23T09:41:08.35Z</time></trkpt><trkpt lat="33.8520983" lon="8.640925"><ele>18.5</ele><time>2026-04-23T09:41:09.35Z</time></trkpt><trkpt lat="33.8522217" lon="8.64066"><ele>18.0</ele><time>2026-04-23T09:41:10.349Z</time></trkpt><trkpt lat="33.8523417" lon="8.6404017"><ele>16.5</ele><time>2026-04-23T09:41:11.349Z</time></trkpt><trkpt lat="33.85247" lon="8.64014"><ele>15.0</ele><time>2026-04-23T09:41:12.349Z</time></trkpt><trkpt lat="33.852595" lon="8.6398833"><ele>16.0</ele><time>2026-04-23T09:41:13.35Z</time></trkpt><trkpt lat="33.8527133" lon="8.63963"><ele>17.0</ele><time>2026-04-23T09:41:14.349Z</time></trkpt><trkpt lat="33.8528317" lon="8.6393783"><ele>18.0</ele><time>2026-04-23T09:41:15.349Z</time></trkpt><trkpt lat="33.8529533" lon="8.6391183"><ele>19.0</ele><time>2026-04-23T09:41:16.35Z</time></trkpt><trkpt lat="33.8530733" lon="8.6388567"><ele>18.0</ele><time>2026-04-23T09:41:17.349Z</time></trkpt><trkpt lat="33.8531883" lon="8.6385933"><ele>17.0</ele><time>2026-04-23T09:41:18.349Z</time></trkpt><trkpt lat="33.853305" lon="8.63834"><ele>17.0</ele><time>2026-04-23T09:41:19.35Z</time></trkpt><trkpt lat="33.8534217" lon="8.6380817"><ele>17.0</ele><time>2026-04-23T09:41:20.35Z</time></trkpt><trkpt lat="33.8535433" lon="8.6378267"><ele>17.5</ele><time>2026-04-23T09:41:21.35Z</time></trkpt><trkpt lat="33.8536567" lon="8.63757"><ele>18.0</ele><time>2026-04-23T09:41:22.35Z</time></trkpt><trkpt lat="33.8537783" lon="8.63731"><ele>18.0</ele><time>2026-04-23T09:41:23.35Z</time></trkpt><trkpt lat="33.853895" lon="8.6370533"><ele>18.0</ele><time>2026-04-23T09:41:24.35Z</time></trkpt><trkpt lat="33.8540133" lon="8.6368017"><ele>18.0</ele><time>2026-04-23T09:41:25.35Z</time></trkpt><trkpt lat="33.8541267" lon="8.6365517"><ele>18.0</ele><time>2026-04-23T09:41:26.349Z</time></trkpt><trkpt lat="33.854245" lon="8.6363017"><ele>18.5</ele><time>2026-04-23T09:41:27.349Z</time></trkpt><trkpt lat="33.854365" lon="8.6360417"><ele>19.0</ele><time>2026-04-23T09:41:28.349Z</time></trkpt><trkpt lat="33.8544817" lon="8.635785"><ele>19.0</ele><time>2026-04-23T09:41:29.35Z</time></trkpt><trkpt lat="33.8546" lon="8.6355283"><ele>19.0</ele><time>2026-04-23T09:41:30.35Z</time></trkpt><trkpt lat="33.85471" lon="8.6352767"><ele>19.0</ele><time>2026-04-23T09:41:31.349Z</time></trkpt><trkpt lat="33.8548233" lon="8.6350183"><ele>19.0</ele><time>2026-04-23T09:41:32.35Z</time></trkpt><trkpt lat="33.85494" lon="8.6347583"><ele>19.0</ele><time>2026-04-23T09:41:33.349Z</time></trkpt><trkpt lat="33.8550617" lon="8.6345017"><ele>19.0</ele><time>2026-04-23T09:41:34.349Z</time></trkpt><trkpt lat="33.85518" lon="8.634235"><ele>18.5</ele><time>2026-04-23T09:41:35.349Z</time></trkpt><trkpt lat="33.8552983" lon="8.6339767"><ele>18.0</ele><time>2026-04-23T09:41:36.349Z</time></trkpt><trkpt lat="33.8554067" lon="8.6337233"><ele>18.5</ele><time>2026-04-23T09:41:37.35Z</time></trkpt><trkpt lat="33.8555233" lon="8.6334717"><ele>19.0</ele><time>2026-04-23T09:41:38.35Z</time></trkpt><trkpt lat="33.855635" lon="8.633225"><ele>19.0</ele><time>2026-04-23T09:41:39.35Z</time></trkpt><trkpt lat="33.8557517" lon="8.6329717"><ele>19.0</ele><time>2026-04-23T09:41:40.35Z</time></trkpt><trkpt lat="33.855875" lon="8.632715"><ele>19.0</ele><time>2026-04-23T09:41:41.35Z</time></trkpt><trkpt lat="33.8559933" lon="8.6324617"><ele>19.0</ele><time>2026-04-23T09:41:42.35Z</time></trkpt><trkpt lat="33.8561117" lon="8.6322017"><ele>17.5</ele><time>2026-04-23T09:41:43.349Z</time></trkpt><trkpt lat="33.8562283" lon="8.6319467"><ele>16.0</ele><time>2026-04-23T09:41:44.35Z</time></trkpt><trkpt lat="33.856345" lon="8.63169"><ele>16.0</ele><time>2026-04-23T09:41:45.35Z</time></trkpt><trkpt lat="33.856465" lon="8.63143"><ele>16.0</ele><time>2026-04-23T09:41:46.349Z</time></trkpt><trkpt lat="33.8565833" lon="8.6311633"><ele>16.5</ele><time>2026-04-23T09:41:47.35Z</time></trkpt><trkpt lat="33.8567033" lon="8.6308983"><ele>17.0</ele><time>2026-04-23T09:41:48.35Z</time></trkpt><trkpt lat="33.8568283" lon="8.63064"><ele>17.0</ele><time>2026-04-23T09:41:49.349Z</time></trkpt><trkpt lat="33.856945" lon="8.6303783"><ele>17.0</ele><time>2026-04-23T09:41:50.35Z</time></trkpt><trkpt lat="33.8570583" lon="8.6301267"><ele>16.0</ele><time>2026-04-23T09:41:51.35Z</time></trkpt><trkpt lat="33.857175" lon="8.6298733"><ele>15.0</ele><time>2026-04-23T09:41:52.35Z</time></trkpt><trkpt lat="33.85729" lon="8.6296117"><ele>15.0</ele><time>2026-04-23T09:41:53.35Z</time></trkpt><trkpt lat="33.8574067" lon="8.6293517"><ele>15.0</ele><time>2026-04-23T09:41:54.349Z</time></trkpt><trkpt lat="33.8575283" lon="8.6290917"><ele>15.5</ele><time>2026-04-23T09:41:55.35Z</time></trkpt><trkpt lat="33.8576433" lon="8.6288367"><ele>16.0</ele><time>2026-04-23T09:41:56.35Z</time></trkpt><trkpt lat="33.8577533" lon="8.62857"><ele>16.0</ele><time>2026-04-23T09:41:57.35Z</time></trkpt><trkpt lat="33.8578667" lon="8.6283117"><ele>16.0</ele><time>2026-04-23T09:41:58.35Z</time></trkpt><trkpt lat="33.8579917" lon="8.62805"><ele>17.5</ele><time>2026-04-23T09:41:59.349Z</time></trkpt><trkpt lat="33.85811" lon="8.62779"><ele>19.0</ele><time>2026-04-23T09:42:00.35Z</time></trkpt><trkpt lat="33.8582283" lon="8.6275367"><ele>19.0</ele><time>2026-04-23T09:42:01.35Z</time></trkpt><trkpt lat="33.8583467" lon="8.6272833"><ele>19.0</ele><time>2026-04-23T09:42:02.35Z</time></trkpt><trkpt lat="33.8584667" lon="8.6270283"><ele>20.0</ele><time>2026-04-23T09:42:03.35Z</time></trkpt><trkpt lat="33.858585" lon="8.6267717"><ele>21.0</ele><time>2026-04-23T09:42:04.35Z</time></trkpt><trkpt lat="33.8587067" lon="8.626515"><ele>21.0</ele><time>2026-04-23T09:42:05.349Z</time></trkpt><trkpt lat="33.85882" lon="8.6262517"><ele>21.0</ele><time>2026-04-23T09:42:06.349Z</time></trkpt><trkpt lat="33.8589333" lon="8.6259917"><ele>19.0</ele><time>2026-04-23T09:42:07.35Z</time></trkpt><trkpt lat="33.859055" lon="8.6257233"><ele>17.0</ele><time>2026-04-23T09:42:08.349Z</time></trkpt><trkpt lat="33.8591833" lon="8.6254533"><ele>16.0</ele><time>2026-04-23T09:42:09.349Z</time></trkpt><trkpt lat="33.859305" lon="8.6251967"><ele>15.0</ele><time>2026-04-23T09:42:10.349Z</time></trkpt><trkpt lat="33.8594267" lon="8.6249367"><ele>15.0</ele><time>2026-04-23T09:42:11.349Z</time></trkpt><trkpt lat="33.8595467" lon="8.624675"><ele>15.0</ele><time>2026-04-23T09:42:12.35Z</time></trkpt><trkpt lat="33.8596683" lon="8.62441"><ele>14.5</ele><time>2026-04-23T09:42:13.35Z</time></trkpt><trkpt lat="33.859785" lon="8.624145"><ele>14.0</ele><time>2026-04-23T09:42:14.349Z</time></trkpt><trkpt lat="33.8599" lon="8.623885"><ele>15.0</ele><time>2026-04-23T09:42:15.349Z</time></trkpt><trkpt lat="33.8600183" lon="8.6236217"><ele>16.0</ele><time>2026-04-23T09:42:16.35Z</time></trkpt><trkpt lat="33.860145" lon="8.6233567"><ele>17.0</ele><time>2026-04-23T09:42:17.349Z</time></trkpt><trkpt lat="33.8602667" lon="8.6230967"><ele>18.0</ele><time>2026-04-23T09:42:18.35Z</time></trkpt><trkpt lat="33.8603883" lon="8.6228433"><ele>18.0</ele><time>2026-04-23T09:42:19.35Z</time></trkpt><trkpt lat="33.8605033" lon="8.62259"><ele>18.0</ele><time>2026-04-23T09:42:20.35Z</time></trkpt><trkpt lat="33.8606267" lon="8.6223367"><ele>18.0</ele><time>2026-04-23T09:42:21.349Z</time></trkpt><trkpt lat="33.8607583" lon="8.6220817"><ele>18.0</ele><time>2026-04-23T09:42:22.35Z</time></trkpt><trkpt lat="33.8608933" lon="8.6218283"><ele>18.0</ele><time>2026-04-23T09:42:23.349Z</time></trkpt><trkpt lat="33.861025" lon="8.6215783"><ele>18.0</ele><time>2026-04-23T09:42:24.35Z</time></trkpt><trkpt lat="33.8611567" lon="8.62132"><ele>18.5</ele><time>2026-04-23T09:42:25.349Z</time></trkpt><trkpt lat="33.8612867" lon="8.6210633"><ele>19.0</ele><time>2026-04-23T09:42:26.35Z</time></trkpt><trkpt lat="33.8614167" lon="8.62081"><ele>19.0</ele><time>2026-04-23T09:42:27.349Z</time></trkpt><trkpt lat="33.8615433" lon="8.620555"><ele>19.0</ele><time>2026-04-23T09:42:28.349Z</time></trkpt><trkpt lat="33.8616783" lon="8.620305"><ele>18.0</ele><time>2026-04-23T09:42:29.35Z</time></trkpt><trkpt lat="33.8618133" lon="8.620055"><ele>17.0</ele><time>2026-04-23T09:42:30.349Z</time></trkpt><trkpt lat="33.86194" lon="8.6198017"><ele>17.0</ele><time>2026-04-23T09:42:31.35Z</time></trkpt><trkpt lat="33.862075" lon="8.6195483"><ele>17.0</ele><time>2026-04-23T09:42:32.349Z</time></trkpt><trkpt lat="33.8622017" lon="8.6192933"><ele>17.0</ele><time>2026-04-23T09:42:33.35Z</time></trkpt><trkpt lat="33.8623317" lon="8.6190483"><ele>17.0</ele><time>2026-04-23T09:42:34.35Z</time></trkpt><trkpt lat="33.86246" lon="8.6188017"><ele>17.5</ele><time>2026-04-23T09:42:35.349Z</time></trkpt><trkpt lat="33.86259" lon="8.6185567"><ele>18.0</ele><time>2026-04-23T09:42:36.349Z</time></trkpt><trkpt lat="33.8627217" lon="8.6183033"><ele>18.5</ele><time>2026-04-23T09:42:37.35Z</time></trkpt><trkpt lat="33.8628533" lon="8.6180517"><ele>19.0</ele><time>2026-04-23T09:42:38.35Z</time></trkpt><trkpt lat="33.8629833" lon="8.6178"><ele>18.0</ele><time>2026-04-23T09:42:39.35Z</time></trkpt><trkpt lat="33.8631167" lon="8.617545"><ele>17.0</ele><time>2026-04-23T09:42:40.349Z</time></trkpt><trkpt lat="33.863245" lon="8.617295"><ele>17.0</ele><time>2026-04-23T09:42:41.349Z</time></trkpt><trkpt lat="33.8633783" lon="8.61705"><ele>17.0</ele><time>2026-04-23T09:42:42.35Z</time></trkpt><trkpt lat="33.8635133" lon="8.6168017"><ele>15.5</ele><time>2026-04-23T09:42:43.349Z</time></trkpt><trkpt lat="33.863645" lon="8.6165533"><ele>14.0</ele><time>2026-04-23T09:42:44.349Z</time></trkpt><trkpt lat="33.86377" lon="8.6162967"><ele>16.0</ele><time>2026-04-23T09:42:45.35Z</time></trkpt><trkpt lat="33.86389" lon="8.6160417"><ele>18.0</ele><time>2026-04-23T09:42:46.35Z</time></trkpt><trkpt lat="33.8640167" lon="8.6157967"><ele>18.0</ele><time>2026-04-23T09:42:47.35Z</time></trkpt><trkpt lat="33.8641467" lon="8.6155467"><ele>18.0</ele><time>2026-04-23T09:42:48.35Z</time></trkpt><trkpt lat="33.864285" lon="8.6153"><ele>18.0</ele><time>2026-04-23T09:42:49.35Z</time></trkpt><trkpt lat="33.8644167" lon="8.6150433"><ele>18.0</ele><time>2026-04-23T09:42:50.349Z</time></trkpt><trkpt lat="33.8645483" lon="8.6147983"><ele>18.0</ele><time>2026-04-23T09:42:51.349Z</time></trkpt><trkpt lat="33.864685" lon="8.6145433"><ele>18.0</ele><time>2026-04-23T09:42:52.349Z</time></trkpt><trkpt lat="33.8648133" lon="8.6142933"><ele>17.5</ele><time>2026-04-23T09:42:53.349Z</time></trkpt><trkpt lat="33.8649433" lon="8.6140417"><ele>17.0</ele><time>2026-04-23T09:42:54.349Z</time></trkpt><trkpt lat="33.8650633" lon="8.6137917"><ele>17.5</ele><time>2026-04-23T09:42:55.35Z</time></trkpt><trkpt lat="33.86519" lon="8.6135367"><ele>18.0</ele><time>2026-04-23T09:42:56.35Z</time></trkpt><trkpt lat="33.8653233" lon="8.613285"><ele>18.0</ele><time>2026-04-23T09:42:57.35Z</time></trkpt><trkpt lat="33.8654483" lon="8.6130317"><ele>18.0</ele><time>2026-04-23T09:42:58.348Z</time></trkpt><trkpt lat="33.8655767" lon="8.612785"><ele>17.5</ele><time>2026-04-23T09:42:59.348Z</time></trkpt><trkpt lat="33.8657067" lon="8.6125233"><ele>17.0</ele><time>2026-04-23T09:43:00.349Z</time></trkpt><trkpt lat="33.8658367" lon="8.6122733"><ele>16.5</ele><time>2026-04-23T09:43:01.349Z</time></trkpt><trkpt lat="33.8659617" lon="8.61202"><ele>16.0</ele><time>2026-04-23T09:43:02.349Z</time></trkpt><trkpt lat="33.8660917" lon="8.61177"><ele>16.0</ele><time>2026-04-23T09:43:03.349Z</time></trkpt><trkpt lat="33.866225" lon="8.611515"><ele>16.0</ele><time>2026-04-23T09:43:04.348Z</time></trkpt><trkpt lat="33.8663617" lon="8.6112633"><ele>17.0</ele><time>2026-04-23T09:43:05.348Z</time></trkpt><trkpt lat="33.8664933" lon="8.6110133"><ele>18.0</ele><time>2026-04-23T09:43:06.349Z</time></trkpt><trkpt lat="33.866625" lon="8.61076"><ele>18.0</ele><time>2026-04-23T09:43:07.348Z</time></trkpt><trkpt lat="33.866755" lon="8.61051"><ele>18.0</ele><time>2026-04-23T09:43:08.348Z</time></trkpt><trkpt lat="33.8668883" lon="8.610265"><ele>18.5</ele><time>2026-04-23T09:43:09.348Z</time></trkpt><trkpt lat="33.8670167" lon="8.610015"><ele>19.0</ele><time>2026-04-23T09:43:10.348Z</time></trkpt><trkpt lat="33.8671417" lon="8.6097717"><ele>19.0</ele><time>2026-04-23T09:43:11.349Z</time></trkpt><trkpt lat="33.8672633" lon="8.609525"><ele>19.0</ele><time>2026-04-23T09:43:12.348Z</time></trkpt><trkpt lat="33.8673883" lon="8.609275"><ele>18.0</ele><time>2026-04-23T09:43:13.348Z</time></trkpt><trkpt lat="33.8675133" lon="8.6090333"><ele>17.0</ele><time>2026-04-23T09:43:14.348Z</time></trkpt><trkpt lat="33.86764" lon="8.608785"><ele>16.5</ele><time>2026-04-23T09:43:15.348Z</time></trkpt><trkpt lat="33.867765" lon="8.6085433"><ele>16.0</ele><time>2026-04-23T09:43:16.349Z</time></trkpt><trkpt lat="33.86789" lon="8.608305"><ele>16.0</ele><time>2026-04-23T09:43:17.349Z</time></trkpt><trkpt lat="33.8680133" lon="8.6080517"><ele>16.0</ele><time>2026-04-23T09:43:18.349Z</time></trkpt><trkpt lat="33.8681417" lon="8.6078"><ele>16.0</ele><time>2026-04-23T09:43:19.348Z</time></trkpt><trkpt lat="33.8682667" lon="8.6075567"><ele>16.0</ele><time>2026-04-23T09:43:20.348Z</time></trkpt><trkpt lat="33.86839" lon="8.6073133"><ele>16.5</ele><time>2026-04-23T09:43:21.348Z</time></trkpt><trkpt lat="33.8685233" lon="8.6070683"><ele>17.0</ele><time>2026-04-23T09:43:22.348Z</time></trkpt><trkpt lat="33.8686567" lon="8.6068183"><ele>17.0</ele><time>2026-04-23T09:43:23.349Z</time></trkpt><trkpt lat="33.8687883" lon="8.6065683"><ele>17.0</ele><time>2026-04-23T09:43:24.348Z</time></trkpt><trkpt lat="33.868915" lon="8.6063217"><ele>17.5</ele><time>2026-04-23T09:43:25.348Z</time></trkpt><trkpt lat="33.8690417" lon="8.6060683"><ele>18.0</ele><time>2026-04-23T09:43:26.348Z</time></trkpt><trkpt lat="33.8691717" lon="8.6058167"><ele>17.5</ele><time>2026-04-23T09:43:27.349Z</time></trkpt><trkpt lat="33.8693017" lon="8.6055683"><ele>17.0</ele><time>2026-04-23T09:43:28.349Z</time></trkpt><trkpt lat="33.8694367" lon="8.6053183"><ele>17.0</ele><time>2026-04-23T09:43:29.349Z</time></trkpt><trkpt lat="33.8695667" lon="8.6050683"><ele>17.0</ele><time>2026-04-23T09:43:30.348Z</time></trkpt><trkpt lat="33.8696983" lon="8.60482"><ele>17.0</ele><time>2026-04-23T09:43:31.349Z</time></trkpt><trkpt lat="33.8698267" lon="8.60457"><ele>17.0</ele><time>2026-04-23T09:43:32.348Z</time></trkpt><trkpt lat="33.8699583" lon="8.6043167"><ele>17.0</ele><time>2026-04-23T09:43:33.348Z</time></trkpt><trkpt lat="33.870085" lon="8.6040683"><ele>17.0</ele><time>2026-04-23T09:43:34.349Z</time></trkpt><trkpt lat="33.8702117" lon="8.603825"><ele>17.5</ele><time>2026-04-23T09:43:35.349Z</time></trkpt><trkpt lat="33.8703383" lon="8.6035767"><ele>18.0</ele><time>2026-04-23T09:43:36.349Z</time></trkpt><trkpt lat="33.8704683" lon="8.60332"><ele>18.0</ele><time>2026-04-23T09:43:37.348Z</time></trkpt><trkpt lat="33.870595" lon="8.6030683"><ele>18.0</ele><time>2026-04-23T09:43:38.349Z</time></trkpt><trkpt lat="33.8707233" lon="8.6028217"><ele>16.5</ele><time>2026-04-23T09:43:39.349Z</time></trkpt><trkpt lat="33.8708533" lon="8.602575"><ele>15.0</ele><time>2026-04-23T09:43:40.348Z</time></trkpt><trkpt lat="33.8709783" lon="8.6023183"><ele>15.0</ele><time>2026-04-23T09:43:41.349Z</time></trkpt><trkpt lat="33.8711117" lon="8.60207"><ele>15.0</ele><time>2026-04-23T09:43:42.348Z</time></trkpt><trkpt lat="33.8712417" lon="8.601825"><ele>15.5</ele><time>2026-04-23T09:43:43.349Z</time></trkpt><trkpt lat="33.871375" lon="8.6015817"><ele>16.0</ele><time>2026-04-23T09:43:44.349Z</time></trkpt><trkpt lat="33.8715033" lon="8.60133"><ele>16.0</ele><time>2026-04-23T09:43:45.348Z</time></trkpt><trkpt lat="33.87164" lon="8.6010767"><ele>16.0</ele><time>2026-04-23T09:43:46.348Z</time></trkpt><trkpt lat="33.871775" lon="8.6008233"><ele>16.0</ele><time>2026-04-23T09:43:47.349Z</time></trkpt><trkpt lat="33.8719083" lon="8.600565"><ele>16.0</ele><time>2026-04-23T09:43:48.349Z</time></trkpt><trkpt lat="33.872035" lon="8.6003033"><ele>16.5</ele><time>2026-04-23T09:43:49.348Z</time></trkpt><trkpt lat="33.8721633" lon="8.6000467"><ele>17.0</ele><time>2026-04-23T09:43:50.348Z</time></trkpt><trkpt lat="33.8722983" lon="8.5997833"><ele>17.0</ele><time>2026-04-23T09:43:51.348Z</time></trkpt><trkpt lat="33.87243" lon="8.5995333"><ele>17.0</ele><time>2026-04-23T09:43:52.349Z</time></trkpt><trkpt lat="33.8725567" lon="8.59928"><ele>15.5</ele><time>2026-04-23T09:43:53.348Z</time></trkpt><trkpt lat="33.8726883" lon="8.5990317"><ele>14.0</ele><time>2026-04-23T09:43:54.349Z</time></trkpt><trkpt lat="33.8728183" lon="8.5987817"><ele>14.0</ele><time>2026-04-23T09:43:55.348Z</time></trkpt><trkpt lat="33.8729417" lon="8.598535"><ele>14.0</ele><time>2026-04-23T09:43:56.349Z</time></trkpt><trkpt lat="33.8730617" lon="8.598285"><ele>14.0</ele><time>2026-04-23T09:43:57.348Z</time></trkpt><trkpt lat="33.8731867" lon="8.59804"><ele>14.0</ele><time>2026-04-23T09:43:58.349Z</time></trkpt><trkpt lat="33.873315" lon="8.5977967"><ele>15.5</ele><time>2026-04-23T09:43:59.348Z</time></trkpt><trkpt lat="33.8734417" lon="8.5975483"><ele>17.0</ele><time>2026-04-23T09:44:00.349Z</time></trkpt><trkpt lat="33.8735683" lon="8.5972983"><ele>17.0</ele><time>2026-04-23T09:44:01.348Z</time></trkpt><trkpt lat="33.8736933" lon="8.5970483"><ele>17.0</ele><time>2026-04-23T09:44:02.348Z</time></trkpt><trkpt lat="33.8738167" lon="8.5967983"><ele>16.5</ele><time>2026-04-23T09:44:03.348Z</time></trkpt><trkpt lat="33.8739467" lon="8.59656"><ele>16.0</ele><time>2026-04-23T09:44:04.349Z</time></trkpt><trkpt lat="33.8740733" lon="8.5963117"><ele>16.0</ele><time>2026-04-23T09:44:05.349Z</time></trkpt><trkpt lat="33.8741983" lon="8.5960667"><ele>16.0</ele><time>2026-04-23T09:44:06.348Z</time></trkpt><trkpt lat="33.87432" lon="8.59582"><ele>16.0</ele><time>2026-04-23T09:44:07.348Z</time></trkpt><trkpt lat="33.874445" lon="8.59558"><ele>16.0</ele><time>2026-04-23T09:44:08.349Z</time></trkpt><trkpt lat="33.874565" lon="8.5953333"><ele>16.0</ele><time>2026-04-23T09:44:09.348Z</time></trkpt><trkpt lat="33.8746933" lon="8.5950867"><ele>16.0</ele><time>2026-04-23T09:44:10.348Z</time></trkpt><trkpt lat="33.8748233" lon="8.59484"><ele>16.0</ele><time>2026-04-23T09:44:11.348Z</time></trkpt><trkpt lat="33.8749533" lon="8.5945933"><ele>16.0</ele><time>2026-04-23T09:44:12.348Z</time></trkpt><trkpt lat="33.8750833" lon="8.5943467"><ele>16.5</ele><time>2026-04-23T09:44:13.348Z</time></trkpt><trkpt lat="33.8752117" lon="8.5940983"><ele>17.0</ele><time>2026-04-23T09:44:14.348Z</time></trkpt><trkpt lat="33.87534" lon="8.5938483"><ele>17.5</ele><time>2026-04-23T09:44:15.349Z</time></trkpt><trkpt lat="33.8754683" lon="8.5936017"><ele>18.0</ele><time>2026-04-23T09:44:16.349Z</time></trkpt><trkpt lat="33.8755967" lon="8.5933467"><ele>18.0</ele><time>2026-04-23T09:44:17.349Z</time></trkpt><trkpt lat="33.8757183" lon="8.5930967"><ele>18.0</ele><time>2026-04-23T09:44:18.349Z</time></trkpt><trkpt lat="33.8758417" lon="8.592845"><ele>18.0</ele><time>2026-04-23T09:44:19.348Z</time></trkpt><trkpt lat="33.87597" lon="8.5925983"><ele>18.0</ele><time>2026-04-23T09:44:20.349Z</time></trkpt><trkpt lat="33.8760983" lon="8.5923567"><ele>18.0</ele><time>2026-04-23T09:44:21.349Z</time></trkpt><trkpt lat="33.876225" lon="8.5921117"><ele>18.0</ele><time>2026-04-23T09:44:22.348Z</time></trkpt><trkpt lat="33.8763517" lon="8.591855"><ele>18.0</ele><time>2026-04-23T09:44:23.349Z</time></trkpt><trkpt lat="33.8764767" lon="8.5916067"><ele>18.0</ele><time>2026-04-23T09:44:24.349Z</time></trkpt><trkpt lat="33.8766033" lon="8.591355"><ele>18.0</ele><time>2026-04-23T09:44:25.349Z</time></trkpt><trkpt lat="33.8767317" lon="8.5910983"><ele>18.0</ele><time>2026-04-23T09:44:26.349Z</time></trkpt><trkpt lat="33.8768567" lon="8.59085"><ele>17.0</ele><time>2026-04-23T09:44:27.348Z</time></trkpt><trkpt lat="33.876985" lon="8.5906067"><ele>16.0</ele><time>2026-04-23T09:44:28.348Z</time></trkpt><trkpt lat="33.8771167" lon="8.590355"><ele>16.5</ele><time>2026-04-23T09:44:29.348Z</time></trkpt><trkpt lat="33.877245" lon="8.5901033"><ele>17.0</ele><time>2026-04-23T09:44:30.349Z</time></trkpt><trkpt lat="33.8773717" lon="8.5898567"><ele>17.0</ele><time>2026-04-23T09:44:31.349Z</time></trkpt><trkpt lat="33.8774983" lon="8.5896067"><ele>17.0</ele><time>2026-04-23T09:44:32.348Z</time></trkpt><trkpt lat="33.8776333" lon="8.5893483"><ele>17.0</ele><time>2026-04-23T09:44:33.349Z</time></trkpt><trkpt lat="33.8777567" lon="8.5890933"><ele>17.0</ele><time>2026-04-23T09:44:34.349Z</time></trkpt><trkpt lat="33.8778833" lon="8.5888433"><ele>16.0</ele><time>2026-04-23T09:44:35.348Z</time></trkpt><trkpt lat="33.8780083" lon="8.58859"><ele>15.0</ele><time>2026-04-23T09:44:36.349Z</time></trkpt><trkpt lat="33.8781333" lon="8.5883383"><ele>15.0</ele><time>2026-04-23T09:44:37.349Z</time></trkpt><trkpt lat="33.8782617" lon="8.5880833"><ele>15.0</ele><time>2026-04-23T09:44:38.349Z</time></trkpt><trkpt lat="33.878395" lon="8.587835"><ele>16.0</ele><time>2026-04-23T09:44:39.348Z</time></trkpt><trkpt lat="33.8785217" lon="8.5875867"><ele>17.0</ele><time>2026-04-23T09:44:40.349Z</time></trkpt><trkpt lat="33.8786517" lon="8.58734"><ele>17.0</ele><time>2026-04-23T09:44:41.348Z</time></trkpt><trkpt lat="33.8787933" lon="8.5870733"><ele>17.0</ele><time>2026-04-23T09:44:42.349Z</time></trkpt><trkpt lat="33.878915" lon="8.5868283"><ele>18.0</ele><time>2026-04-23T09:44:43.349Z</time></trkpt><trkpt lat="33.8790367" lon="8.586575"><ele>19.0</ele><time>2026-04-23T09:44:44.348Z</time></trkpt><trkpt lat="33.8791617" lon="8.5863233"><ele>19.0</ele><time>2026-04-23T09:44:45.348Z</time></trkpt><trkpt lat="33.8792933" lon="8.5860783"><ele>19.0</ele><time>2026-04-23T09:44:46.348Z</time></trkpt><trkpt lat="33.8794283" lon="8.5858233"><ele>19.0</ele><time>2026-04-23T09:44:47.348Z</time></trkpt><trkpt lat="33.8795533" lon="8.5855683"><ele>19.0</ele><time>2026-04-23T09:44:48.349Z</time></trkpt><trkpt lat="33.8796767" lon="8.5853083"><ele>18.0</ele><time>2026-04-23T09:44:49.349Z</time></trkpt><trkpt lat="33.8797983" lon="8.5850517"><ele>17.0</ele><time>2026-04-23T09:44:50.349Z</time></trkpt><trkpt lat="33.8799267" lon="8.5848"><ele>17.0</ele><time>2026-04-23T09:44:51.348Z</time></trkpt><trkpt lat="33.880055" lon="8.5845483"><ele>17.0</ele><time>2026-04-23T09:44:52.348Z</time></trkpt><trkpt lat="33.88018" lon="8.584305"><ele>17.0</ele><time>2026-04-23T09:44:53.349Z</time></trkpt><trkpt lat="33.8803017" lon="8.5840533"><ele>17.0</ele><time>2026-04-23T09:44:54.348Z</time></trkpt><trkpt lat="33.8804283" lon="8.583805"><ele>16.5</ele><time>2026-04-23T09:44:55.349Z</time></trkpt><trkpt lat="33.8805583" lon="8.5835633"><ele>16.0</ele><time>2026-04-23T09:44:56.348Z</time></trkpt><trkpt lat="33.8806917" lon="8.5833133"><ele>16.0</ele><time>2026-04-23T09:44:57.349Z</time></trkpt><trkpt lat="33.8808183" lon="8.5830633"><ele>16.0</ele><time>2026-04-23T09:44:58.348Z</time></trkpt><trkpt lat="33.8809467" lon="8.58281"><ele>15.5</ele><time>2026-04-23T09:44:59.349Z</time></trkpt><trkpt lat="33.8810783" lon="8.5825617"><ele>15.0</ele><time>2026-04-23T09:45:00.348Z</time></trkpt><trkpt lat="33.8812067" lon="8.582305"><ele>15.0</ele><time>2026-04-23T09:45:01.349Z</time></trkpt><trkpt lat="33.88133" lon="8.5820583"><ele>15.0</ele><time>2026-04-23T09:45:02.348Z</time></trkpt><trkpt lat="33.881455" lon="8.5818117"><ele>16.0</ele><time>2026-04-23T09:45:03.349Z</time></trkpt><trkpt lat="33.881585" lon="8.58156"><ele>17.0</ele><time>2026-04-23T09:45:04.349Z</time></trkpt><trkpt lat="33.8817117" lon="8.5813167"><ele>17.0</ele><time>2026-04-23T09:45:05.349Z</time></trkpt><trkpt lat="33.8818333" lon="8.5810733"><ele>17.0</ele><time>2026-04-23T09:45:06.348Z</time></trkpt><trkpt lat="33.8819633" lon="8.580825"><ele>17.0</ele><time>2026-04-23T09:45:07.348Z</time></trkpt><trkpt lat="33.8820917" lon="8.58057"><ele>17.0</ele><time>2026-04-23T09:45:08.348Z</time></trkpt><trkpt lat="33.8822183" lon="8.58031"><ele>16.5</ele><time>2026-04-23T09:45:09.348Z</time></trkpt><trkpt lat="33.8823433" lon="8.58005"><ele>16.0</ele><time>2026-04-23T09:45:10.348Z</time></trkpt><trkpt lat="33.882475" lon="8.579795"><ele>15.5</ele><time>2026-04-23T09:45:11.348Z</time></trkpt><trkpt lat="33.8826067" lon="8.57955"><ele>15.0</ele><time>2026-04-23T09:45:12.349Z</time></trkpt><trkpt lat="33.8827317" lon="8.579305"><ele>16.0</ele><time>2026-04-23T09:45:13.348Z</time></trkpt><trkpt lat="33.88286" lon="8.5790633"><ele>17.0</ele><time>2026-04-23T09:45:14.349Z</time></trkpt><trkpt lat="33.8829933" lon="8.5788033"><ele>17.0</ele><time>2026-04-23T09:45:15.349Z</time></trkpt><trkpt lat="33.883115" lon="8.578545"><ele>17.0</ele><time>2026-04-23T09:45:16.349Z</time></trkpt><trkpt lat="33.883235" lon="8.5783033"><ele>17.0</ele><time>2026-04-23T09:45:17.348Z</time></trkpt><trkpt lat="33.88336" lon="8.5780533"><ele>17.0</ele><time>2026-04-23T09:45:18.349Z</time></trkpt><trkpt lat="33.8834883" lon="8.577805"><ele>17.5</ele><time>2026-04-23T09:45:19.349Z</time></trkpt><trkpt lat="33.8836167" lon="8.5775533"><ele>18.0</ele><time>2026-04-23T09:45:20.348Z</time></trkpt><trkpt lat="33.8837483" lon="8.5772933"><ele>18.0</ele><time>2026-04-23T09:45:21.349Z</time></trkpt><trkpt lat="33.88388" lon="8.5770383"><ele>18.0</ele><time>2026-04-23T09:45:22.348Z</time></trkpt><trkpt lat="33.8840083" lon="8.5767817"><ele>17.5</ele><time>2026-04-23T09:45:23.348Z</time></trkpt><trkpt lat="33.8841317" lon="8.5765217"><ele>17.0</ele><time>2026-04-23T09:45:24.348Z</time></trkpt><trkpt lat="33.88426" lon="8.5762617"><ele>17.5</ele><time>2026-04-23T09:45:25.349Z</time></trkpt><trkpt lat="33.884395" lon="8.576"><ele>18.0</ele><time>2026-04-23T09:45:26.349Z</time></trkpt><trkpt lat="33.8845283" lon="8.5757533"><ele>18.0</ele><time>2026-04-23T09:45:27.349Z</time></trkpt><trkpt lat="33.8846567" lon="8.5755033"><ele>18.0</ele><time>2026-04-23T09:45:28.348Z</time></trkpt><trkpt lat="33.88479" lon="8.5752517"><ele>17.0</ele><time>2026-04-23T09:45:29.349Z</time></trkpt><trkpt lat="33.8849233" lon="8.574995"><ele>16.0</ele><time>2026-04-23T09:45:30.348Z</time></trkpt><trkpt lat="33.885055" lon="8.57474"><ele>16.5</ele><time>2026-04-23T09:45:31.348Z</time></trkpt><trkpt lat="33.8851867" lon="8.5744817"><ele>17.0</ele><time>2026-04-23T09:45:32.348Z</time></trkpt><trkpt lat="33.885315" lon="8.57423"><ele>17.0</ele><time>2026-04-23T09:45:33.348Z</time></trkpt><trkpt lat="33.885445" lon="8.5739717"><ele>17.0</ele><time>2026-04-23T09:45:34.348Z</time></trkpt><trkpt lat="33.885575" lon="8.5737233"><ele>17.5</ele><time>2026-04-23T09:45:35.349Z</time></trkpt><trkpt lat="33.8857067" lon="8.5734667"><ele>18.0</ele><time>2026-04-23T09:45:36.349Z</time></trkpt><trkpt lat="33.885835" lon="8.5732083"><ele>17.5</ele><time>2026-04-23T09:45:37.349Z</time></trkpt><trkpt lat="33.8859617" lon="8.5729633"><ele>17.0</ele><time>2026-04-23T09:45:38.349Z</time></trkpt><trkpt lat="33.886085" lon="8.5727133"><ele>17.0</ele><time>2026-04-23T09:45:39.348Z</time></trkpt><trkpt lat="33.886205" lon="8.5724733"><ele>17.0</ele><time>2026-04-23T09:45:40.349Z</time></trkpt><trkpt lat="33.8863383" lon="8.5722267"><ele>18.0</ele><time>2026-04-23T09:45:41.349Z</time></trkpt><trkpt lat="33.8864683" lon="8.5719783"><ele>19.0</ele><time>2026-04-23T09:45:42.348Z</time></trkpt><trkpt lat="33.8866" lon="8.571735"><ele>19.0</ele><time>2026-04-23T09:45:43.348Z</time></trkpt><trkpt lat="33.88673" lon="8.57148"><ele>19.0</ele><time>2026-04-23T09:45:44.348Z</time></trkpt><trkpt lat="33.8868533" lon="8.57123"><ele>18.5</ele><time>2026-04-23T09:45:45.348Z</time></trkpt><trkpt lat="33.8869767" lon="8.5709867"><ele>18.0</ele><time>2026-04-23T09:45:46.348Z</time></trkpt><trkpt lat="33.8871083" lon="8.570735"><ele>18.0</ele><time>2026-04-23T09:45:47.348Z</time></trkpt><trkpt lat="33.8872283" lon="8.570485"><ele>18.0</ele><time>2026-04-23T09:45:48.349Z</time></trkpt><trkpt lat="33.8873533" lon="8.5702333"><ele>18.0</ele><time>2026-04-23T09:45:49.348Z</time></trkpt><trkpt lat="33.88748" lon="8.5699767"><ele>18.0</ele><time>2026-04-23T09:45:50.349Z</time></trkpt><trkpt lat="33.8876083" lon="8.5697283"><ele>19.0</ele><time>2026-04-23T09:45:51.349Z</time></trkpt><trkpt lat="33.88774" lon="8.5694733"><ele>20.0</ele><time>2026-04-23T09:45:52.349Z</time></trkpt><trkpt lat="33.88787" lon="8.569215"><ele>20.0</ele><time>2026-04-23T09:45:53.348Z</time></trkpt><trkpt lat="33.887995" lon="8.5689633"><ele>20.0</ele><time>2026-04-23T09:45:54.349Z</time></trkpt><trkpt lat="33.888125" lon="8.56871"><ele>17.5</ele><time>2026-04-23T09:45:55.348Z</time></trkpt><trkpt lat="33.888255" lon="8.5684633"><ele>15.0</ele><time>2026-04-23T09:45:56.349Z</time></trkpt><trkpt lat="33.88838" lon="8.5682167"><ele>15.0</ele><time>2026-04-23T09:45:57.348Z</time></trkpt><trkpt lat="33.8885067" lon="8.5679683"><ele>15.0</ele><time>2026-04-23T09:45:58.349Z</time></trkpt><trkpt lat="33.88864" lon="8.5677167"><ele>14.5</ele><time>2026-04-23T09:45:59.349Z</time></trkpt><trkpt lat="33.8887667" lon="8.567465"><ele>14.0</ele><time>2026-04-23T09:46:00.348Z</time></trkpt><trkpt lat="33.8889017" lon="8.5672133"><ele>15.5</ele><time>2026-04-23T09:46:01.349Z</time></trkpt><trkpt lat="33.8890233" lon="8.56696"><ele>17.0</ele><time>2026-04-23T09:46:02.348Z</time></trkpt><trkpt lat="33.8891467" lon="8.56671"><ele>16.5</ele><time>2026-04-23T09:46:03.348Z</time></trkpt><trkpt lat="33.8892783" lon="8.5664633"><ele>16.0</ele><time>2026-04-23T09:46:04.348Z</time></trkpt><trkpt lat="33.8894067" lon="8.5662217"><ele>13.0</ele><time>2026-04-23T09:46:05.348Z</time></trkpt><trkpt lat="33.8895317" lon="8.5659683"><ele>10.0</ele><time>2026-04-23T09:46:06.348Z</time></trkpt><trkpt lat="33.8896533" lon="8.565715"><ele>10.0</ele><time>2026-04-23T09:46:07.348Z</time></trkpt><trkpt lat="33.8897783" lon="8.5654667"><ele>10.0</ele><time>2026-04-23T09:46:08.349Z</time></trkpt><trkpt lat="33.889895" lon="8.5652167"><ele>13.0</ele><time>2026-04-23T09:46:09.348Z</time></trkpt><trkpt lat="33.8900167" lon="8.564965"><ele>16.0</ele><time>2026-04-23T09:46:10.348Z</time></trkpt><trkpt lat="33.8901467" lon="8.5647083"><ele>17.0</ele><time>2026-04-23T09:46:11.348Z</time></trkpt><trkpt lat="33.8902833" lon="8.564455"><ele>18.0</ele><time>2026-04-23T09:46:12.348Z</time></trkpt><trkpt lat="33.89041" lon="8.564205"><ele>18.0</ele><time>2026-04-23T09:46:13.348Z</time></trkpt><trkpt lat="33.8905417" lon="8.5639567"><ele>18.0</ele><time>2026-04-23T09:46:14.349Z</time></trkpt><trkpt lat="33.8906683" lon="8.563705"><ele>17.0</ele><time>2026-04-23T09:46:15.348Z</time></trkpt><trkpt lat="33.8907917" lon="8.5634533"><ele>16.0</ele><time>2026-04-23T09:46:16.348Z</time></trkpt><trkpt lat="33.8909217" lon="8.5631983"><ele>15.5</ele><time>2026-04-23T09:46:17.348Z</time></trkpt><trkpt lat="33.8910517" lon="8.5629433"><ele>15.0</ele><time>2026-04-23T09:46:18.348Z</time></trkpt><trkpt lat="33.8911817" lon="8.56269"><ele>15.0</ele><time>2026-04-23T09:46:19.349Z</time></trkpt><trkpt lat="33.8913133" lon="8.5624383"><ele>15.0</ele><time>2026-04-23T09:46:20.348Z</time></trkpt><trkpt lat="33.891445" lon="8.5621867"><ele>17.0</ele><time>2026-04-23T09:46:21.349Z</time></trkpt><trkpt lat="33.8915733" lon="8.56193"><ele>19.0</ele><time>2026-04-23T09:46:22.349Z</time></trkpt><trkpt lat="33.8917" lon="8.5616683"><ele>18.5</ele><time>2026-04-23T09:46:23.348Z</time></trkpt><trkpt lat="33.8918283" lon="8.56141"><ele>18.0</ele><time>2026-04-23T09:46:24.348Z</time></trkpt><trkpt lat="33.8919567" lon="8.561155"><ele>14.5</ele><time>2026-04-23T09:46:25.349Z</time></trkpt><trkpt lat="33.892085" lon="8.560905"><ele>11.0</ele><time>2026-04-23T09:46:26.349Z</time></trkpt><trkpt lat="33.8922167" lon="8.5606483"><ele>11.0</ele><time>2026-04-23T09:46:27.348Z</time></trkpt><trkpt lat="33.8923483" lon="8.5603933"><ele>11.0</ele><time>2026-04-23T09:46:28.349Z</time></trkpt><trkpt lat="33.892475" lon="8.5601433"><ele>12.0</ele><time>2026-04-23T09:46:29.349Z</time></trkpt><trkpt lat="33.8926067" lon="8.559885"><ele>13.0</ele><time>2026-04-23T09:46:30.348Z</time></trkpt><trkpt lat="33.8927367" lon="8.5596317"><ele>13.5</ele><time>2026-04-23T09:46:31.348Z</time></trkpt><trkpt lat="33.89287" lon="8.5593783"><ele>14.0</ele><time>2026-04-23T09:46:32.348Z</time></trkpt><trkpt lat="33.8930017" lon="8.559115"><ele>14.0</ele><time>2026-04-23T09:46:33.348Z</time></trkpt><trkpt lat="33.8931267" lon="8.5588533"><ele>14.0</ele><time>2026-04-23T09:46:34.349Z</time></trkpt><trkpt lat="33.8932517" lon="8.5585933"><ele>13.5</ele><time>2026-04-23T09:46:35.349Z</time></trkpt><trkpt lat="33.8933783" lon="8.558345"><ele>13.0</ele><time>2026-04-23T09:46:36.349Z</time></trkpt><trkpt lat="33.89351" lon="8.55809"><ele>13.0</ele><time>2026-04-23T09:46:37.348Z</time></trkpt><trkpt lat="33.89364" lon="8.5578367"><ele>13.0</ele><time>2026-04-23T09:46:38.348Z</time></trkpt><trkpt lat="33.893765" lon="8.5575867"><ele>13.0</ele><time>2026-04-23T09:46:39.349Z</time></trkpt><trkpt lat="33.8938967" lon="8.5573367"><ele>13.0</ele><time>2026-04-23T09:46:40.348Z</time></trkpt><trkpt lat="33.894025" lon="8.557085"><ele>13.5</ele><time>2026-04-23T09:46:41.349Z</time></trkpt><trkpt lat="33.8941517" lon="8.5568333"><ele>14.0</ele><time>2026-04-23T09:46:42.348Z</time></trkpt><trkpt lat="33.89428" lon="8.5565817"><ele>14.0</ele><time>2026-04-23T09:46:43.348Z</time></trkpt><trkpt lat="33.8944117" lon="8.556335"><ele>14.0</ele><time>2026-04-23T09:46:44.349Z</time></trkpt><trkpt lat="33.8945383" lon="8.556085"><ele>13.5</ele><time>2026-04-23T09:46:45.349Z</time></trkpt><trkpt lat="33.89466" lon="8.555835"><ele>13.0</ele><time>2026-04-23T09:46:46.349Z</time></trkpt><trkpt lat="33.894785" lon="8.5555817"><ele>14.5</ele><time>2026-04-23T09:46:47.349Z</time></trkpt><trkpt lat="33.8949217" lon="8.55532"><ele>16.0</ele><time>2026-04-23T09:46:48.349Z</time></trkpt><trkpt lat="33.8950583" lon="8.5550633"><ele>17.0</ele><time>2026-04-23T09:46:49.348Z</time></trkpt><trkpt lat="33.895185" lon="8.5548067"><ele>18.0</ele><time>2026-04-23T09:46:50.348Z</time></trkpt><trkpt lat="33.8953167" lon="8.554545"><ele>16.5</ele><time>2026-04-23T09:46:51.348Z</time></trkpt><trkpt lat="33.89545" lon="8.5542917"><ele>15.0</ele><time>2026-04-23T09:46:52.348Z</time></trkpt><trkpt lat="33.8955717" lon="8.55404"><ele>15.0</ele><time>2026-04-23T09:46:53.348Z</time></trkpt><trkpt lat="33.8957033" lon="8.5537883"><ele>15.0</ele><time>2026-04-23T09:46:54.348Z</time></trkpt><trkpt lat="33.8958317" lon="8.5535333"><ele>16.5</ele><time>2026-04-23T09:46:55.348Z</time></trkpt><trkpt lat="33.89596" lon="8.55328"><ele>18.0</ele><time>2026-04-23T09:46:56.349Z</time></trkpt><trkpt lat="33.8960867" lon="8.5530267"><ele>17.0</ele><time>2026-04-23T09:46:57.348Z</time></trkpt><trkpt lat="33.896215" lon="8.5527717"><ele>16.0</ele><time>2026-04-23T09:46:58.348Z</time></trkpt><trkpt lat="33.8963383" lon="8.5525183"><ele>16.0</ele><time>2026-04-23T09:46:59.348Z</time></trkpt><trkpt lat="33.89646" lon="8.552265"><ele>16.0</ele><time>2026-04-23T09:47:00.348Z</time></trkpt><trkpt lat="33.8965883" lon="8.5520167"><ele>16.5</ele><time>2026-04-23T09:47:01.348Z</time></trkpt><trkpt lat="33.8967083" lon="8.55177"><ele>17.0</ele><time>2026-04-23T09:47:02.348Z</time></trkpt><trkpt lat="33.89683" lon="8.55154"><ele>18.0</ele><time>2026-04-23T09:47:03.348Z</time></trkpt><trkpt lat="33.8969467" lon="8.551305"><ele>19.0</ele><time>2026-04-23T09:47:04.349Z</time></trkpt><trkpt lat="33.8970717" lon="8.551065"><ele>16.5</ele><time>2026-04-23T09:47:05.348Z</time></trkpt><trkpt lat="33.8971917" lon="8.5508317"><ele>14.0</ele><time>2026-04-23T09:47:06.348Z</time></trkpt><trkpt lat="33.897315" lon="8.5505883"><ele>14.5</ele><time>2026-04-23T09:47:07.348Z</time></trkpt><trkpt lat="33.89744" lon="8.5503433"><ele>15.0</ele><time>2026-04-23T09:47:08.347Z</time></trkpt><trkpt lat="33.897565" lon="8.5500883"><ele>14.5</ele><time>2026-04-23T09:47:09.347Z</time></trkpt><trkpt lat="33.8976867" lon="8.5498383"><ele>14.0</ele><time>2026-04-23T09:47:10.347Z</time></trkpt><trkpt lat="33.8978167" lon="8.5495883"><ele>15.0</ele><time>2026-04-23T09:47:11.347Z</time></trkpt><trkpt lat="33.8979467" lon="8.5493483"><ele>16.0</ele><time>2026-04-23T09:47:12.347Z</time></trkpt><trkpt lat="33.8980733" lon="8.5490933"><ele>16.0</ele><time>2026-04-23T09:47:13.347Z</time></trkpt><trkpt lat="33.8982067" lon="8.548835"><ele>16.0</ele><time>2026-04-23T09:47:14.347Z</time></trkpt><trkpt lat="33.8983333" lon="8.54858"><ele>14.0</ele><time>2026-04-23T09:47:15.347Z</time></trkpt><trkpt lat="33.8984667" lon="8.5483267"><ele>12.0</ele><time>2026-04-23T09:47:16.347Z</time></trkpt><trkpt lat="33.898595" lon="8.5480783"><ele>13.5</ele><time>2026-04-23T09:47:17.347Z</time></trkpt><trkpt lat="33.8987217" lon="8.5478233"><ele>15.0</ele><time>2026-04-23T09:47:18.347Z</time></trkpt><trkpt lat="33.89885" lon="8.5475717"><ele>15.0</ele><time>2026-04-23T09:47:19.348Z</time></trkpt><trkpt lat="33.8989767" lon="8.5473183"><ele>15.0</ele><time>2026-04-23T09:47:20.347Z</time></trkpt><trkpt lat="33.8991117" lon="8.5470683"><ele>15.0</ele><time>2026-04-23T09:47:21.348Z</time></trkpt><trkpt lat="33.8992433" lon="8.54682"><ele>15.0</ele><time>2026-04-23T09:47:22.348Z</time></trkpt><trkpt lat="33.8993733" lon="8.5465617"><ele>15.0</ele><time>2026-04-23T09:47:23.348Z</time></trkpt><trkpt lat="33.8995033" lon="8.5463067"><ele>15.0</ele><time>2026-04-23T09:47:24.347Z</time></trkpt><trkpt lat="33.8996317" lon="8.5460483"><ele>16.5</ele><time>2026-04-23T09:47:25.348Z</time></trkpt><trkpt lat="33.8997583" lon="8.5457883"><ele>18.0</ele><time>2026-04-23T09:47:26.348Z</time></trkpt><trkpt lat="33.89989" lon="8.5455333"><ele>16.5</ele><time>2026-04-23T09:47:27.348Z</time></trkpt><trkpt lat="33.900025" lon="8.5452767"><ele>15.0</ele><time>2026-04-23T09:47:28.348Z</time></trkpt><trkpt lat="33.9001583" lon="8.5450183"><ele>15.0</ele><time>2026-04-23T09:47:29.347Z</time></trkpt><trkpt lat="33.9002917" lon="8.5447617"><ele>15.0</ele><time>2026-04-23T09:47:30.348Z</time></trkpt><trkpt lat="33.90042" lon="8.54451"><ele>15.0</ele><time>2026-04-23T09:47:31.348Z</time></trkpt><trkpt lat="33.9005517" lon="8.5442567"><ele>15.0</ele><time>2026-04-23T09:47:32.348Z</time></trkpt><trkpt lat="33.900685" lon="8.544"><ele>15.0</ele><time>2026-04-23T09:47:33.347Z</time></trkpt><trkpt lat="33.9008117" lon="8.5437433"><ele>15.0</ele><time>2026-04-23T09:47:34.347Z</time></trkpt><trkpt lat="33.9009367" lon="8.54349"><ele>15.5</ele><time>2026-04-23T09:47:35.347Z</time></trkpt><trkpt lat="33.9010633" lon="8.54324"><ele>16.0</ele><time>2026-04-23T09:47:36.347Z</time></trkpt><trkpt lat="33.9011917" lon="8.54299"><ele>17.0</ele><time>2026-04-23T09:47:37.348Z</time></trkpt><trkpt lat="33.9013183" lon="8.5427367"><ele>18.0</ele><time>2026-04-23T09:47:38.347Z</time></trkpt><trkpt lat="33.9014433" lon="8.5424867"><ele>18.0</ele><time>2026-04-23T09:47:39.347Z</time></trkpt><trkpt lat="33.90157" lon="8.5422417"><ele>18.0</ele><time>2026-04-23T09:47:40.347Z</time></trkpt><trkpt lat="33.9016967" lon="8.541995"><ele>17.0</ele><time>2026-04-23T09:47:41.347Z</time></trkpt><trkpt lat="33.9018167" lon="8.5417517"><ele>16.0</ele><time>2026-04-23T09:47:42.347Z</time></trkpt><trkpt lat="33.9019417" lon="8.5415017"><ele>16.0</ele><time>2026-04-23T09:47:43.348Z</time></trkpt><trkpt lat="33.90207" lon="8.5412467"><ele>16.0</ele><time>2026-04-23T09:47:44.348Z</time></trkpt><trkpt lat="33.9021967" lon="8.5409917"><ele>15.0</ele><time>2026-04-23T09:47:45.348Z</time></trkpt><trkpt lat="33.90233" lon="8.5407383"><ele>14.0</ele><time>2026-04-23T09:47:46.348Z</time></trkpt><trkpt lat="33.90246" lon="8.54048"><ele>14.5</ele><time>2026-04-23T09:47:47.347Z</time></trkpt><trkpt lat="33.9025867" lon="8.5402317"><ele>15.0</ele><time>2026-04-23T09:47:48.348Z</time></trkpt><trkpt lat="33.9027133" lon="8.5399883"><ele>15.0</ele><time>2026-04-23T09:47:49.347Z</time></trkpt><trkpt lat="33.90284" lon="8.5397467"><ele>15.0</ele><time>2026-04-23T09:47:50.348Z</time></trkpt><trkpt lat="33.902965" lon="8.539495"><ele>16.5</ele><time>2026-04-23T09:47:51.347Z</time></trkpt><trkpt lat="33.90309" lon="8.539245"><ele>18.0</ele><time>2026-04-23T09:47:52.348Z</time></trkpt><trkpt lat="33.90323" lon="8.539"><ele>18.0</ele><time>2026-04-23T09:47:53.347Z</time></trkpt><trkpt lat="33.9033567" lon="8.5387467"><ele>18.0</ele><time>2026-04-23T09:47:54.347Z</time></trkpt><trkpt lat="33.9034783" lon="8.5384983"><ele>16.5</ele><time>2026-04-23T09:47:55.348Z</time></trkpt><trkpt lat="33.9036033" lon="8.53825"><ele>15.0</ele><time>2026-04-23T09:47:56.348Z</time></trkpt><trkpt lat="33.9037317" lon="8.5379983"><ele>15.0</ele><time>2026-04-23T09:47:57.347Z</time></trkpt><trkpt lat="33.9038533" lon="8.5377517"><ele>15.0</ele><time>2026-04-23T09:47:58.347Z</time></trkpt><trkpt lat="33.903985" lon="8.53751"><ele>15.0</ele><time>2026-04-23T09:47:59.347Z</time></trkpt><trkpt lat="33.90411" lon="8.5372617"><ele>15.0</ele><time>2026-04-23T09:48:00.348Z</time></trkpt><trkpt lat="33.9042383" lon="8.5370167"><ele>15.0</ele><time>2026-04-23T09:48:01.347Z</time></trkpt><trkpt lat="33.9043617" lon="8.5367683"><ele>15.0</ele><time>2026-04-23T09:48:02.348Z</time></trkpt><trkpt lat="33.90448" lon="8.5365133"><ele>15.0</ele><time>2026-04-23T09:48:03.348Z</time></trkpt><trkpt lat="33.904595" lon="8.536265"><ele>15.0</ele><time>2026-04-23T09:48:04.348Z</time></trkpt><trkpt lat="33.9047167" lon="8.536015"><ele>15.5</ele><time>2026-04-23T09:48:05.347Z</time></trkpt><trkpt lat="33.90484" lon="8.5357683"><ele>16.0</ele><time>2026-04-23T09:48:06.347Z</time></trkpt><trkpt lat="33.9049683" lon="8.5355233"><ele>15.5</ele><time>2026-04-23T09:48:07.348Z</time></trkpt><trkpt lat="33.905095" lon="8.5352733"><ele>15.0</ele><time>2026-04-23T09:48:08.348Z</time></trkpt><trkpt lat="33.905225" lon="8.535025"><ele>15.0</ele><time>2026-04-23T09:48:09.347Z</time></trkpt><trkpt lat="33.9053583" lon="8.534785"><ele>15.0</ele><time>2026-04-23T09:48:10.347Z</time></trkpt><trkpt lat="33.9054883" lon="8.5345367"><ele>16.0</ele><time>2026-04-23T09:48:11.347Z</time></trkpt><trkpt lat="33.9056167" lon="8.5342983"><ele>17.0</ele><time>2026-04-23T09:48:12.347Z</time></trkpt><trkpt lat="33.90574" lon="8.534055"><ele>17.0</ele><time>2026-04-23T09:48:13.347Z</time></trkpt><trkpt lat="33.9058633" lon="8.53381"><ele>17.0</ele><time>2026-04-23T09:48:14.348Z</time></trkpt><trkpt lat="33.9059817" lon="8.5335667"><ele>16.5</ele><time>2026-04-23T09:48:15.347Z</time></trkpt><trkpt lat="33.9061017" lon="8.5333267"><ele>16.0</ele><time>2026-04-23T09:48:16.348Z</time></trkpt><trkpt lat="33.9062283" lon="8.533095"><ele>15.5</ele><time>2026-04-23T09:48:17.348Z</time></trkpt><trkpt lat="33.9063467" lon="8.5328583"><ele>15.0</ele><time>2026-04-23T09:48:18.348Z</time></trkpt><trkpt lat="33.9064533" lon="8.5326233"><ele>15.0</ele><time>2026-04-23T09:48:19.347Z</time></trkpt><trkpt lat="33.9065733" lon="8.532375"><ele>15.0</ele><time>2026-04-23T09:48:20.347Z</time></trkpt><trkpt lat="33.9066817" lon="8.5321217"><ele>16.0</ele><time>2026-04-23T09:48:21.348Z</time></trkpt><trkpt lat="33.906785" lon="8.5318683"><ele>17.0</ele><time>2026-04-23T09:48:22.348Z</time></trkpt><trkpt lat="33.9068983" lon="8.53161"><ele>17.0</ele><time>2026-04-23T09:48:23.348Z</time></trkpt><trkpt lat="33.907015" lon="8.5313533"><ele>17.0</ele><time>2026-04-23T09:48:24.348Z</time></trkpt><trkpt lat="33.9071217" lon="8.5311017"><ele>17.0</ele><time>2026-04-23T09:48:25.347Z</time></trkpt><trkpt lat="33.9072233" lon="8.530845"><ele>17.0</ele><time>2026-04-23T09:48:26.347Z</time></trkpt><trkpt lat="33.9073267" lon="8.5305933"><ele>17.0</ele><time>2026-04-23T09:48:27.348Z</time></trkpt><trkpt lat="33.90743" lon="8.5303417"><ele>17.0</ele><time>2026-04-23T09:48:28.348Z</time></trkpt><trkpt lat="33.9075317" lon="8.53009"><ele>16.5</ele><time>2026-04-23T09:48:29.347Z</time></trkpt><trkpt lat="33.9076317" lon="8.5298417"><ele>16.0</ele><time>2026-04-23T09:48:30.347Z</time></trkpt><trkpt lat="33.9077383" lon="8.5296"><ele>15.666666666666666</ele><time>2026-04-23T09:48:31.347Z</time></trkpt><trkpt lat="33.9078383" lon="8.5293583"><ele>15.333333333333332</ele><time>2026-04-23T09:48:32.348Z</time></trkpt><trkpt lat="33.907935" lon="8.52913"><ele>15.0</ele><time>2026-04-23T09:48:33.348Z</time></trkpt><trkpt lat="33.9080333" lon="8.5289017"><ele>15.333333333333332</ele><time>2026-04-23T09:48:34.347Z</time></trkpt><trkpt lat="33.908135" lon="8.5286833"><ele>15.666666666666666</ele><time>2026-04-23T09:48:35.348Z</time></trkpt><trkpt lat="33.908225" lon="8.52846"><ele>16.0</ele><time>2026-04-23T09:48:36.347Z</time></trkpt><trkpt lat="33.9083167" lon="8.5282333"><ele>16.0</ele><time>2026-04-23T09:48:37.347Z</time></trkpt><trkpt lat="33.9084033" lon="8.5280233"><ele>16.0</ele><time>2026-04-23T09:48:38.348Z</time></trkpt><trkpt lat="33.90849" lon="8.5278133"><ele>16.0</ele><time>2026-04-23T09:48:39.348Z</time></trkpt><trkpt lat="33.9085783" lon="8.5275983"><ele>15.666666666666666</ele><time>2026-04-23T09:48:40.348Z</time></trkpt><trkpt lat="33.9086733" lon="8.5273867"><ele>15.333333333333332</ele><time>2026-04-23T09:48:41.347Z</time></trkpt><trkpt lat="33.908765" lon="8.5271817"><ele>15.0</ele><time>2026-04-23T09:48:42.348Z</time></trkpt><trkpt lat="33.908845" lon="8.52698"><ele>15.0</ele><time>2026-04-23T09:48:43.347Z</time></trkpt><trkpt lat="33.908925" lon="8.5267817"><ele>15.0</ele><time>2026-04-23T09:48:44.348Z</time></trkpt><trkpt lat="33.9090133" lon="8.5265883"><ele>15.0</ele><time>2026-04-23T09:48:45.348Z</time></trkpt><trkpt lat="33.9090883" lon="8.526415"><ele>15.0</ele><time>2026-04-23T09:48:46.347Z</time></trkpt><trkpt lat="33.9091567" lon="8.5262333"><ele>15.0</ele><time>2026-04-23T09:48:47.348Z</time></trkpt><trkpt lat="33.9092267" lon="8.5260633"><ele>15.0</ele><time>2026-04-23T09:48:48.347Z</time></trkpt><trkpt lat="33.90929" lon="8.525905"><ele>15.0</ele><time>2026-04-23T09:48:49.347Z</time></trkpt><trkpt lat="33.9093533" lon="8.52576"><ele>15.0</ele><time>2026-04-23T09:48:50.347Z</time></trkpt><trkpt lat="33.9094167" lon="8.5256233"><ele>15.0</ele><time>2026-04-23T09:48:51.347Z</time></trkpt><trkpt lat="33.909475" lon="8.5254867"><ele>15.0</ele><time>2026-04-23T09:48:52.348Z</time></trkpt><trkpt lat="33.9095233" lon="8.5253567"><ele>14.833333333333334</ele><time>2026-04-23T09:48:53.348Z</time></trkpt><trkpt lat="33.9095733" lon="8.525235"><ele>14.666666666666668</ele><time>2026-04-23T09:48:54.348Z</time></trkpt><trkpt lat="33.9096183" lon="8.52513"><ele>14.5</ele><time>2026-04-23T09:48:55.347Z</time></trkpt><trkpt lat="33.909655" lon="8.5250433"><ele>14.333333333333334</ele><time>2026-04-23T09:48:56.348Z</time></trkpt><trkpt lat="33.9096833" lon="8.5249633"><ele>14.166666666666668</ele><time>2026-04-23T09:48:57.348Z</time></trkpt><trkpt lat="33.9097067" lon="8.52489"><ele>14.0</ele><time>2026-04-23T09:48:58.348Z</time></trkpt><trkpt lat="33.9097617" lon="8.5247667"><ele>14.0</ele><time>2026-04-23T09:49:00.348Z</time></trkpt><trkpt lat="33.9098183" lon="8.5246567"><ele>13.999999999999998</ele><time>2026-04-23T09:49:02.348Z</time></trkpt><trkpt lat="33.90987" lon="8.524515"><ele>13.999999999999998</ele><time>2026-04-23T09:49:04.348Z</time></trkpt><trkpt lat="33.909905" lon="8.5244333"><ele>14.0</ele><time>2026-04-23T09:49:05.347Z</time></trkpt><trkpt lat="33.9099417" lon="8.5243583"><ele>14.0</ele><time>2026-04-23T09:49:06.348Z</time></trkpt><trkpt lat="33.909975" lon="8.52428"><ele>14.000000000000002</ele><time>2026-04-23T09:49:07.347Z</time></trkpt><trkpt lat="33.9100117" lon="8.524195"><ele>14.0</ele><time>2026-04-23T09:49:08.348Z</time></trkpt><trkpt lat="33.9100533" lon="8.5241133"><ele>14.0</ele><time>2026-04-23T09:49:09.347Z</time></trkpt><trkpt lat="33.9100933" lon="8.5240283"><ele>14.0</ele><time>2026-04-23T09:49:10.348Z</time></trkpt><trkpt lat="33.9101283" lon="8.5239433"><ele>14.000000000000002</ele><time>2026-04-23T09:49:11.348Z</time></trkpt><trkpt lat="33.9101567" lon="8.52386"><ele>14.0</ele><time>2026-04-23T09:49:12.348Z</time></trkpt><trkpt lat="33.9101783" lon="8.52378"><ele>14.000000000000002</ele><time>2026-04-23T09:49:13.347Z</time></trkpt><trkpt lat="33.9101967" lon="8.523695"><ele>14.0</ele><time>2026-04-23T09:49:14.347Z</time></trkpt><trkpt lat="33.9102117" lon="8.5236067"><ele>14.0</ele><time>2026-04-23T09:49:15.347Z</time></trkpt><trkpt lat="33.9102233" lon="8.523525"><ele>14.0</ele><time>2026-04-23T09:49:16.348Z</time></trkpt><trkpt lat="33.9102433" lon="8.5234083"><ele>14.000000000000002</ele><time>2026-04-23T09:49:18.347Z</time></trkpt><trkpt lat="33.9103" lon="8.52332"><ele>14.0</ele><time>2026-04-23T09:55:42.345Z</time></trkpt><trkpt lat="33.9103417" lon="8.5232533"><ele>14.0</ele><time>2026-04-23T09:55:43.346Z</time></trkpt><trkpt lat="33.910385" lon="8.5231733"><ele>13.999999999999998</ele><time>2026-04-23T09:55:44.346Z</time></trkpt><trkpt lat="33.910435" lon="8.52308"><ele>13.999999999999998</ele><time>2026-04-23T09:55:45.345Z</time></trkpt><trkpt lat="33.910485" lon="8.5229717"><ele>14.0</ele><time>2026-04-23T09:55:46.345Z</time></trkpt><trkpt lat="33.9105417" lon="8.5228483"><ele>14.0</ele><time>2026-04-23T09:55:47.345Z</time></trkpt><trkpt lat="33.9106017" lon="8.5227183"><ele>14.0</ele><time>2026-04-23T09:55:48.346Z</time></trkpt><trkpt lat="33.9106583" lon="8.5225833"><ele>14.0</ele><time>2026-04-23T09:55:49.346Z</time></trkpt><trkpt lat="33.9107183" lon="8.5224383"><ele>14.0</ele><time>2026-04-23T09:55:50.346Z</time></trkpt><trkpt lat="33.9107817" lon="8.52228"><ele>14.0</ele><time>2026-04-23T09:55:51.345Z</time></trkpt><trkpt lat="33.9108567" lon="8.5221217"><ele>14.666666666666668</ele><time>2026-04-23T09:55:52.346Z</time></trkpt><trkpt lat="33.910925" lon="8.521955"><ele>15.333333333333332</ele><time>2026-04-23T09:55:53.345Z</time></trkpt><trkpt lat="33.911" lon="8.5217733"><ele>16.0</ele><time>2026-04-23T09:55:54.346Z</time></trkpt><trkpt lat="33.911075" lon="8.5215933"><ele>16.0</ele><time>2026-04-23T09:55:55.346Z</time></trkpt><trkpt lat="33.9111583" lon="8.5214117"><ele>16.0</ele><time>2026-04-23T09:55:56.346Z</time></trkpt><trkpt lat="33.9112433" lon="8.5212167"><ele>16.0</ele><time>2026-04-23T09:55:57.346Z</time></trkpt><trkpt lat="33.911325" lon="8.5210233"><ele>15.333333333333332</ele><time>2026-04-23T09:55:58.346Z</time></trkpt><trkpt lat="33.911405" lon="8.520825"><ele>14.666666666666668</ele><time>2026-04-23T09:55:59.346Z</time></trkpt><trkpt lat="33.9114867" lon="8.5206217"><ele>14.0</ele><time>2026-04-23T09:56:00.346Z</time></trkpt><trkpt lat="33.911575" lon="8.52041"><ele>14.333333333333334</ele><time>2026-04-23T09:56:01.346Z</time></trkpt><trkpt lat="33.9116617" lon="8.5202033"><ele>14.666666666666668</ele><time>2026-04-23T09:56:02.346Z</time></trkpt><trkpt lat="33.911755" lon="8.519995"><ele>15.0</ele><time>2026-04-23T09:56:03.345Z</time></trkpt><trkpt lat="33.911845" lon="8.5197833"><ele>16.0</ele><time>2026-04-23T09:56:04.346Z</time></trkpt><trkpt lat="33.9119333" lon="8.5195733"><ele>17.0</ele><time>2026-04-23T09:56:05.346Z</time></trkpt><trkpt lat="33.912025" lon="8.5193517"><ele>18.0</ele><time>2026-04-23T09:56:06.345Z</time></trkpt><trkpt lat="33.9121183" lon="8.51914"><ele>18.333333333333332</ele><time>2026-04-23T09:56:07.346Z</time></trkpt><trkpt lat="33.9122083" lon="8.5189267"><ele>18.666666666666664</ele><time>2026-04-23T09:56:08.345Z</time></trkpt><trkpt lat="33.912295" lon="8.5187183"><ele>19.0</ele><time>2026-04-23T09:56:09.346Z</time></trkpt><trkpt lat="33.91239" lon="8.5185067"><ele>18.333333333333332</ele><time>2026-04-23T09:56:10.346Z</time></trkpt><trkpt lat="33.9124833" lon="8.5182917"><ele>17.666666666666668</ele><time>2026-04-23T09:56:11.345Z</time></trkpt><trkpt lat="33.91257" lon="8.5180783"><ele>17.0</ele><time>2026-04-23T09:56:12.346Z</time></trkpt><trkpt lat="33.91266" lon="8.51787"><ele>16.333333333333336</ele><time>2026-04-23T09:56:13.346Z</time></trkpt><trkpt lat="33.9127483" lon="8.517655"><ele>15.666666666666668</ele><time>2026-04-23T09:56:14.345Z</time></trkpt><trkpt lat="33.9128367" lon="8.5174383"><ele>15.0</ele><time>2026-04-23T09:56:15.346Z</time></trkpt><trkpt lat="33.9129283" lon="8.517225"><ele>14.666666666666668</ele><time>2026-04-23T09:56:16.346Z</time></trkpt><trkpt lat="33.9130183" lon="8.5170117"><ele>14.333333333333334</ele><time>2026-04-23T09:56:17.346Z</time></trkpt><trkpt lat="33.91311" lon="8.5167967"><ele>14.0</ele><time>2026-04-23T09:56:18.345Z</time></trkpt><trkpt lat="33.9132067" lon="8.5165783"><ele>14.0</ele><time>2026-04-23T09:56:19.345Z</time></trkpt><trkpt lat="33.9132933" lon="8.5163617"><ele>14.0</ele><time>2026-04-23T09:56:20.345Z</time></trkpt><trkpt lat="33.9133867" lon="8.51614"><ele>14.0</ele><time>2026-04-23T09:56:21.346Z</time></trkpt><trkpt lat="33.9134833" lon="8.5159167"><ele>14.666666666666668</ele><time>2026-04-23T09:56:22.346Z</time></trkpt><trkpt lat="33.9135817" lon="8.5156917"><ele>15.333333333333332</ele><time>2026-04-23T09:56:23.345Z</time></trkpt><trkpt lat="33.9136717" lon="8.5154683"><ele>16.0</ele><time>2026-04-23T09:56:24.346Z</time></trkpt><trkpt lat="33.91376" lon="8.5152383"><ele>16.0</ele><time>2026-04-23T09:56:25.346Z</time></trkpt><trkpt lat="33.913855" lon="8.51501"><ele>16.0</ele><time>2026-04-23T09:56:26.345Z</time></trkpt><trkpt lat="33.9139483" lon="8.5147817"><ele>16.0</ele><time>2026-04-23T09:56:27.345Z</time></trkpt><trkpt lat="33.91405" lon="8.514565"><ele>16.0</ele><time>2026-04-23T09:56:28.346Z</time></trkpt><trkpt lat="33.9141533" lon="8.5143433"><ele>16.0</ele><time>2026-04-23T09:56:29.345Z</time></trkpt><trkpt lat="33.914265" lon="8.514105"><ele>16.0</ele><time>2026-04-23T09:56:30.345Z</time></trkpt><trkpt lat="33.9143833" lon="8.5138683"><ele>16.0</ele><time>2026-04-23T09:56:31.345Z</time></trkpt><trkpt lat="33.9144983" lon="8.51363"><ele>16.0</ele><time>2026-04-23T09:56:32.346Z</time></trkpt><trkpt lat="33.9146133" lon="8.513405"><ele>16.0</ele><time>2026-04-23T09:56:33.345Z</time></trkpt><trkpt lat="33.9147383" lon="8.51318"><ele>16.0</ele><time>2026-04-23T09:56:34.345Z</time></trkpt><trkpt lat="33.91486" lon="8.5129583"><ele>16.0</ele><time>2026-04-23T09:56:35.346Z</time></trkpt><trkpt lat="33.9149833" lon="8.5127367"><ele>16.0</ele><time>2026-04-23T09:56:36.345Z</time></trkpt><trkpt lat="33.915105" lon="8.51251"><ele>16.333333333333332</ele><time>2026-04-23T09:56:37.346Z</time></trkpt><trkpt lat="33.9152233" lon="8.5122883"><ele>16.666666666666668</ele><time>2026-04-23T09:56:38.346Z</time></trkpt><trkpt lat="33.9153417" lon="8.5120667"><ele>17.0</ele><time>2026-04-23T09:56:39.345Z</time></trkpt><trkpt lat="33.915465" lon="8.5118333"><ele>16.0</ele><time>2026-04-23T09:56:40.345Z</time></trkpt><trkpt lat="33.9155917" lon="8.5116133"><ele>15.0</ele><time>2026-04-23T09:56:41.345Z</time></trkpt><trkpt lat="33.9157217" lon="8.5113867"><ele>14.666666666666668</ele><time>2026-04-23T09:56:42.346Z</time></trkpt><trkpt lat="33.9158433" lon="8.5111633"><ele>14.333333333333334</ele><time>2026-04-23T09:56:43.346Z</time></trkpt><trkpt lat="33.91596" lon="8.5109367"><ele>14.0</ele><time>2026-04-23T09:56:44.346Z</time></trkpt><trkpt lat="33.9160683" lon="8.5107067"><ele>14.0</ele><time>2026-04-23T09:56:45.346Z</time></trkpt><trkpt lat="33.9161767" lon="8.51046"><ele>14.0</ele><time>2026-04-23T09:56:46.346Z</time></trkpt><trkpt lat="33.9162783" lon="8.5102183"><ele>14.0</ele><time>2026-04-23T09:56:47.346Z</time></trkpt><trkpt lat="33.9163783" lon="8.5099783"><ele>14.0</ele><time>2026-04-23T09:56:48.345Z</time></trkpt><trkpt lat="33.9164817" lon="8.5097267"><ele>15.0</ele><time>2026-04-23T09:56:49.346Z</time></trkpt><trkpt lat="33.9165867" lon="8.5094783"><ele>16.0</ele><time>2026-04-23T09:56:50.345Z</time></trkpt><trkpt lat="33.9166867" lon="8.5092367"><ele>16.0</ele><time>2026-04-23T09:56:51.346Z</time></trkpt><trkpt lat="33.9167833" lon="8.5089983"><ele>16.0</ele><time>2026-04-23T09:56:52.345Z</time></trkpt><trkpt lat="33.916885" lon="8.5087567"><ele>16.0</ele><time>2026-04-23T09:56:53.345Z</time></trkpt><trkpt lat="33.9169867" lon="8.5085133"><ele>16.0</ele><time>2026-04-23T09:56:54.345Z</time></trkpt><trkpt lat="33.9170767" lon="8.50827"><ele>16.0</ele><time>2026-04-23T09:56:55.346Z</time></trkpt><trkpt lat="33.9171683" lon="8.50803"><ele>16.0</ele><time>2026-04-23T09:56:56.346Z</time></trkpt><trkpt lat="33.91727" lon="8.5077817"><ele>16.0</ele><time>2026-04-23T09:56:57.346Z</time></trkpt><trkpt lat="33.9173733" lon="8.50755"><ele>16.0</ele><time>2026-04-23T09:56:58.345Z</time></trkpt><trkpt lat="33.9174683" lon="8.5073067"><ele>16.0</ele><time>2026-04-23T09:56:59.345Z</time></trkpt><trkpt lat="33.9175617" lon="8.507055"><ele>15.5</ele><time>2026-04-23T09:57:00.346Z</time></trkpt><trkpt lat="33.9176467" lon="8.5067933"><ele>15.0</ele><time>2026-04-23T09:57:01.345Z</time></trkpt><trkpt lat="33.9177267" lon="8.5065483"><ele>15.0</ele><time>2026-04-23T09:57:02.346Z</time></trkpt><trkpt lat="33.91781" lon="8.5062917"><ele>15.0</ele><time>2026-04-23T09:57:03.346Z</time></trkpt><trkpt lat="33.9178917" lon="8.5060367"><ele>14.0</ele><time>2026-04-23T09:57:04.346Z</time></trkpt><trkpt lat="33.9179717" lon="8.5057833"><ele>13.0</ele><time>2026-04-23T09:57:05.345Z</time></trkpt><trkpt lat="33.9180583" lon="8.50553"><ele>14.0</ele><time>2026-04-23T09:57:06.346Z</time></trkpt><trkpt lat="33.9181383" lon="8.5052733"><ele>15.0</ele><time>2026-04-23T09:57:07.345Z</time></trkpt><trkpt lat="33.918215" lon="8.505015"><ele>15.0</ele><time>2026-04-23T09:57:08.345Z</time></trkpt><trkpt lat="33.9182967" lon="8.5047567"><ele>15.0</ele><time>2026-04-23T09:57:09.345Z</time></trkpt><trkpt lat="33.91838" lon="8.5045"><ele>15.0</ele><time>2026-04-23T09:57:10.346Z</time></trkpt><trkpt lat="33.9184617" lon="8.5042433"><ele>15.0</ele><time>2026-04-23T09:57:11.345Z</time></trkpt><trkpt lat="33.918535" lon="8.5039917"><ele>15.0</ele><time>2026-04-23T09:57:12.346Z</time></trkpt><trkpt lat="33.91862" lon="8.5037433"><ele>14.666666666666668</ele><time>2026-04-23T09:57:13.345Z</time></trkpt><trkpt lat="33.9187083" lon="8.5034983"><ele>14.333333333333334</ele><time>2026-04-23T09:57:14.346Z</time></trkpt><trkpt lat="33.9187983" lon="8.50325"><ele>14.0</ele><time>2026-04-23T09:57:15.346Z</time></trkpt><trkpt lat="33.9189017" lon="8.5030067"><ele>14.666666666666668</ele><time>2026-04-23T09:57:16.345Z</time></trkpt><trkpt lat="33.9190017" lon="8.5027683"><ele>15.333333333333332</ele><time>2026-04-23T09:57:17.346Z</time></trkpt><trkpt lat="33.9190983" lon="8.5025267"><ele>16.0</ele><time>2026-04-23T09:57:18.346Z</time></trkpt><trkpt lat="33.9191933" lon="8.502285"><ele>15.0</ele><time>2026-04-23T09:57:19.346Z</time></trkpt><trkpt lat="33.9193" lon="8.5020467"><ele>14.0</ele><time>2026-04-23T09:57:20.346Z</time></trkpt><trkpt lat="33.9194133" lon="8.501805"><ele>14.0</ele><time>2026-04-23T09:57:21.346Z</time></trkpt><trkpt lat="33.919515" lon="8.501565"><ele>14.0</ele><time>2026-04-23T09:57:22.346Z</time></trkpt><trkpt lat="33.9196217" lon="8.5013217"><ele>14.0</ele><time>2026-04-23T09:57:23.345Z</time></trkpt><trkpt lat="33.9197167" lon="8.5010867"><ele>14.0</ele><time>2026-04-23T09:57:24.346Z</time></trkpt><trkpt lat="33.9198133" lon="8.50086"><ele>14.0</ele><time>2026-04-23T09:57:25.345Z</time></trkpt><trkpt lat="33.9199017" lon="8.5006433"><ele>14.0</ele><time>2026-04-23T09:57:26.345Z</time></trkpt><trkpt lat="33.91999" lon="8.500435"><ele>14.0</ele><time>2026-04-23T09:57:27.345Z</time></trkpt><trkpt lat="33.9200667" lon="8.5002383"><ele>14.0</ele><time>2026-04-23T09:57:28.345Z</time></trkpt><trkpt lat="33.92015" lon="8.5000433"><ele>13.666666666666668</ele><time>2026-04-23T09:57:29.346Z</time></trkpt><trkpt lat="33.9202267" lon="8.4998433"><ele>13.333333333333332</ele><time>2026-04-23T09:57:30.346Z</time></trkpt><trkpt lat="33.920305" lon="8.49965"><ele>13.0</ele><time>2026-04-23T09:57:31.346Z</time></trkpt><trkpt lat="33.9203833" lon="8.49946"><ele>13.666666666666666</ele><time>2026-04-23T09:57:32.345Z</time></trkpt><trkpt lat="33.9204633" lon="8.4992767"><ele>14.333333333333332</ele><time>2026-04-23T09:57:33.345Z</time></trkpt><trkpt lat="33.9205417" lon="8.499095"><ele>15.0</ele><time>2026-04-23T09:57:34.346Z</time></trkpt><trkpt lat="33.9206217" lon="8.498915"><ele>14.333333333333332</ele><time>2026-04-23T09:57:35.345Z</time></trkpt><trkpt lat="33.920695" lon="8.4987433"><ele>13.666666666666666</ele><time>2026-04-23T09:57:36.346Z</time></trkpt><trkpt lat="33.9207667" lon="8.49858"><ele>13.0</ele><time>2026-04-23T09:57:37.346Z</time></trkpt><trkpt lat="33.9208233" lon="8.4984183"><ele>13.0</ele><time>2026-04-23T09:57:38.345Z</time></trkpt><trkpt lat="33.9208867" lon="8.4982583"><ele>13.0</ele><time>2026-04-23T09:57:39.346Z</time></trkpt><trkpt lat="33.9209533" lon="8.4980933"><ele>13.0</ele><time>2026-04-23T09:57:40.345Z</time></trkpt><trkpt lat="33.92103" lon="8.497925"><ele>13.666666666666666</ele><time>2026-04-23T09:57:41.345Z</time></trkpt><trkpt lat="33.9211067" lon="8.4977483"><ele>14.333333333333332</ele><time>2026-04-23T09:57:42.345Z</time></trkpt><trkpt lat="33.9211783" lon="8.4975683"><ele>15.0</ele><time>2026-04-23T09:57:43.345Z</time></trkpt><trkpt lat="33.921255" lon="8.49739"><ele>15.0</ele><time>2026-04-23T09:57:44.345Z</time></trkpt><trkpt lat="33.921335" lon="8.497195"><ele>15.0</ele><time>2026-04-23T09:57:45.346Z</time></trkpt><trkpt lat="33.9214217" lon="8.4970017"><ele>15.0</ele><time>2026-04-23T09:57:46.346Z</time></trkpt><trkpt lat="33.9215017" lon="8.4967983"><ele>15.333333333333332</ele><time>2026-04-23T09:57:47.346Z</time></trkpt><trkpt lat="33.9215867" lon="8.4965883"><ele>15.666666666666666</ele><time>2026-04-23T09:57:48.346Z</time></trkpt><trkpt lat="33.9216817" lon="8.4963767"><ele>16.0</ele><time>2026-04-23T09:57:49.345Z</time></trkpt><trkpt lat="33.92177" lon="8.49616"><ele>16.0</ele><time>2026-04-23T09:57:50.345Z</time></trkpt><trkpt lat="33.9218617" lon="8.4959433"><ele>16.0</ele><time>2026-04-23T09:57:51.346Z</time></trkpt><trkpt lat="33.92195" lon="8.4957233"><ele>16.0</ele><time>2026-04-23T09:57:52.346Z</time></trkpt><trkpt lat="33.922045" lon="8.4954917"><ele>15.666666666666666</ele><time>2026-04-23T09:57:53.346Z</time></trkpt><trkpt lat="33.9221467" lon="8.49526"><ele>15.333333333333332</ele><time>2026-04-23T09:57:54.346Z</time></trkpt><trkpt lat="33.92224" lon="8.495035"><ele>15.0</ele><time>2026-04-23T09:57:55.346Z</time></trkpt><trkpt lat="33.9223333" lon="8.4948083"><ele>15.0</ele><time>2026-04-23T09:57:56.345Z</time></trkpt><trkpt lat="33.922435" lon="8.4945783"><ele>15.0</ele><time>2026-04-23T09:57:57.345Z</time></trkpt><trkpt lat="33.9225367" lon="8.4943417"><ele>15.0</ele><time>2026-04-23T09:57:58.345Z</time></trkpt><trkpt lat="33.9226467" lon="8.4941017"><ele>14.666666666666668</ele><time>2026-04-23T09:57:59.345Z</time></trkpt><trkpt lat="33.922745" lon="8.4938633"><ele>14.333333333333334</ele><time>2026-04-23T09:58:00.345Z</time></trkpt><trkpt lat="33.92285" lon="8.4936217"><ele>14.0</ele><time>2026-04-23T09:58:01.346Z</time></trkpt><trkpt lat="33.9229533" lon="8.493375"><ele>13.5</ele><time>2026-04-23T09:58:02.345Z</time></trkpt><trkpt lat="33.9230567" lon="8.4931317"><ele>13.0</ele><time>2026-04-23T09:58:03.345Z</time></trkpt><trkpt lat="33.9231633" lon="8.4928783"><ele>14.0</ele><time>2026-04-23T09:58:04.346Z</time></trkpt><trkpt lat="33.92327" lon="8.4926267"><ele>15.0</ele><time>2026-04-23T09:58:05.346Z</time></trkpt><trkpt lat="33.9233783" lon="8.492375"><ele>15.0</ele><time>2026-04-23T09:58:06.346Z</time></trkpt><trkpt lat="33.9234817" lon="8.492125"><ele>15.0</ele><time>2026-04-23T09:58:07.345Z</time></trkpt><trkpt lat="33.9235817" lon="8.4918717"><ele>15.0</ele><time>2026-04-23T09:58:08.346Z</time></trkpt><trkpt lat="33.92369" lon="8.4916233"><ele>15.0</ele><time>2026-04-23T09:58:09.345Z</time></trkpt><trkpt lat="33.9237933" lon="8.4913683"><ele>14.0</ele><time>2026-04-23T09:58:10.345Z</time></trkpt><trkpt lat="33.9239033" lon="8.49112"><ele>13.0</ele><time>2026-04-23T09:58:11.345Z</time></trkpt><trkpt lat="33.9240067" lon="8.4908617"><ele>13.0</ele><time>2026-04-23T09:58:12.346Z</time></trkpt><trkpt lat="33.9241117" lon="8.4906033"><ele>13.0</ele><time>2026-04-23T09:58:13.345Z</time></trkpt><trkpt lat="33.9242183" lon="8.4903467"><ele>15.0</ele><time>2026-04-23T09:58:14.346Z</time></trkpt><trkpt lat="33.9243283" lon="8.49009"><ele>17.0</ele><time>2026-04-23T09:58:15.345Z</time></trkpt><trkpt lat="33.9244383" lon="8.4898317"><ele>16.5</ele><time>2026-04-23T09:58:16.345Z</time></trkpt><trkpt lat="33.9245483" lon="8.4895783"><ele>16.0</ele><time>2026-04-23T09:58:17.346Z</time></trkpt><trkpt lat="33.92466" lon="8.48932"><ele>16.0</ele><time>2026-04-23T09:58:18.345Z</time></trkpt><trkpt lat="33.9247667" lon="8.4890583"><ele>16.0</ele><time>2026-04-23T09:58:19.344Z</time></trkpt><trkpt lat="33.9248733" lon="8.488795"><ele>16.0</ele><time>2026-04-23T09:58:20.344Z</time></trkpt><trkpt lat="33.924985" lon="8.488535"><ele>16.0</ele><time>2026-04-23T09:58:21.345Z</time></trkpt><trkpt lat="33.9250883" lon="8.488275"><ele>16.0</ele><time>2026-04-23T09:58:22.344Z</time></trkpt><trkpt lat="33.9251867" lon="8.4880233"><ele>16.0</ele><time>2026-04-23T09:58:23.345Z</time></trkpt><trkpt lat="33.9252933" lon="8.4877617"><ele>16.0</ele><time>2026-04-23T09:58:24.344Z</time></trkpt><trkpt lat="33.9254083" lon="8.4874967"><ele>16.0</ele><time>2026-04-23T09:58:25.345Z</time></trkpt><trkpt lat="33.9255167" lon="8.487235"><ele>15.0</ele><time>2026-04-23T09:58:26.345Z</time></trkpt><trkpt lat="33.9256233" lon="8.4869717"><ele>14.0</ele><time>2026-04-23T09:58:27.345Z</time></trkpt><trkpt lat="33.925725" lon="8.4867067"><ele>14.0</ele><time>2026-04-23T09:58:28.345Z</time></trkpt><trkpt lat="33.9258317" lon="8.48645"><ele>14.0</ele><time>2026-04-23T09:58:29.344Z</time></trkpt><trkpt lat="33.9259467" lon="8.48619"><ele>14.5</ele><time>2026-04-23T09:58:30.344Z</time></trkpt><trkpt lat="33.92606" lon="8.485935"><ele>15.0</ele><time>2026-04-23T09:58:31.345Z</time></trkpt><trkpt lat="33.9261767" lon="8.4856767"><ele>15.5</ele><time>2026-04-23T09:58:32.345Z</time></trkpt><trkpt lat="33.9262933" lon="8.48542"><ele>16.0</ele><time>2026-04-23T09:58:33.345Z</time></trkpt><trkpt lat="33.9264033" lon="8.4851617"><ele>16.0</ele><time>2026-04-23T09:58:34.345Z</time></trkpt><trkpt lat="33.9265133" lon="8.4849167"><ele>16.0</ele><time>2026-04-23T09:58:35.345Z</time></trkpt><trkpt lat="33.926625" lon="8.484665"><ele>15.0</ele><time>2026-04-23T09:58:36.345Z</time></trkpt><trkpt lat="33.926735" lon="8.4844083"><ele>14.0</ele><time>2026-04-23T09:58:37.345Z</time></trkpt><trkpt lat="33.926845" lon="8.4841483"><ele>14.0</ele><time>2026-04-23T09:58:38.345Z</time></trkpt><trkpt lat="33.9269583" lon="8.4838833"><ele>14.0</ele><time>2026-04-23T09:58:39.344Z</time></trkpt><trkpt lat="33.92707" lon="8.483625"><ele>14.0</ele><time>2026-04-23T09:58:40.344Z</time></trkpt><trkpt lat="33.9271817" lon="8.4833683"><ele>14.0</ele><time>2026-04-23T09:58:41.344Z</time></trkpt><trkpt lat="33.9272917" lon="8.4831017"><ele>14.0</ele><time>2026-04-23T09:58:42.345Z</time></trkpt><trkpt lat="33.9274033" lon="8.482835"><ele>14.0</ele><time>2026-04-23T09:58:43.344Z</time></trkpt><trkpt lat="33.92751" lon="8.4825733"><ele>14.5</ele><time>2026-04-23T09:58:44.344Z</time></trkpt><trkpt lat="33.9276233" lon="8.48231"><ele>15.0</ele><time>2026-04-23T09:58:45.345Z</time></trkpt><trkpt lat="33.9277333" lon="8.48205"><ele>15.0</ele><time>2026-04-23T09:58:46.344Z</time></trkpt><trkpt lat="33.9278417" lon="8.4817917"><ele>15.0</ele><time>2026-04-23T09:58:47.344Z</time></trkpt><trkpt lat="33.9279483" lon="8.481535"><ele>15.0</ele><time>2026-04-23T09:58:48.344Z</time></trkpt><trkpt lat="33.928055" lon="8.481275"><ele>15.0</ele><time>2026-04-23T09:58:49.344Z</time></trkpt><trkpt lat="33.928165" lon="8.4810167"><ele>15.0</ele><time>2026-04-23T09:58:50.344Z</time></trkpt><trkpt lat="33.9282683" lon="8.4807633"><ele>15.0</ele><time>2026-04-23T09:58:51.344Z</time></trkpt><trkpt lat="33.92837" lon="8.4805083"><ele>14.0</ele><time>2026-04-23T09:58:52.344Z</time></trkpt><trkpt lat="33.9284783" lon="8.480255"><ele>13.0</ele><time>2026-04-23T09:58:53.345Z</time></trkpt><trkpt lat="33.9285833" lon="8.48"><ele>13.0</ele><time>2026-04-23T09:58:54.345Z</time></trkpt><trkpt lat="33.928695" lon="8.4797467"><ele>13.0</ele><time>2026-04-23T09:58:55.345Z</time></trkpt><trkpt lat="33.9288" lon="8.4794917"><ele>13.0</ele><time>2026-04-23T09:58:56.345Z</time></trkpt><trkpt lat="33.9289067" lon="8.479235"><ele>13.0</ele><time>2026-04-23T09:58:57.344Z</time></trkpt><trkpt lat="33.9290083" lon="8.4789817"><ele>14.0</ele><time>2026-04-23T09:58:58.345Z</time></trkpt><trkpt lat="33.9291033" lon="8.4787317"><ele>15.0</ele><time>2026-04-23T09:58:59.344Z</time></trkpt><trkpt lat="33.92921" lon="8.4784767"><ele>14.5</ele><time>2026-04-23T09:59:00.344Z</time></trkpt><trkpt lat="33.9293167" lon="8.4782233"><ele>14.0</ele><time>2026-04-23T09:59:01.345Z</time></trkpt><trkpt lat="33.929425" lon="8.4779767"><ele>15.0</ele><time>2026-04-23T09:59:02.344Z</time></trkpt><trkpt lat="33.9295317" lon="8.4777267"><ele>16.0</ele><time>2026-04-23T09:59:03.344Z</time></trkpt><trkpt lat="33.9296417" lon="8.477475"><ele>16.0</ele><time>2026-04-23T09:59:04.345Z</time></trkpt><trkpt lat="33.9297433" lon="8.4772183"><ele>16.0</ele><time>2026-04-23T09:59:05.344Z</time></trkpt><trkpt lat="33.92985" lon="8.4769717"><ele>15.5</ele><time>2026-04-23T09:59:06.344Z</time></trkpt><trkpt lat="33.9299533" lon="8.4767217"><ele>15.0</ele><time>2026-04-23T09:59:07.344Z</time></trkpt><trkpt lat="33.9300517" lon="8.476475"><ele>14.666666666666668</ele><time>2026-04-23T09:59:08.344Z</time></trkpt><trkpt lat="33.9301517" lon="8.4762333"><ele>14.333333333333334</ele><time>2026-04-23T09:59:09.344Z</time></trkpt><trkpt lat="33.9302517" lon="8.4759983"><ele>14.0</ele><time>2026-04-23T09:59:10.344Z</time></trkpt><trkpt lat="33.9303517" lon="8.475755"><ele>14.0</ele><time>2026-04-23T09:59:11.344Z</time></trkpt><trkpt lat="33.9304517" lon="8.47552"><ele>14.0</ele><time>2026-04-23T09:59:12.344Z</time></trkpt><trkpt lat="33.9305467" lon="8.4752783"><ele>14.0</ele><time>2026-04-23T09:59:13.345Z</time></trkpt><trkpt lat="33.93065" lon="8.47504"><ele>14.333333333333334</ele><time>2026-04-23T09:59:14.345Z</time></trkpt><trkpt lat="33.9307517" lon="8.4748"><ele>14.666666666666668</ele><time>2026-04-23T09:59:15.344Z</time></trkpt><trkpt lat="33.9308533" lon="8.4745583"><ele>15.0</ele><time>2026-04-23T09:59:16.344Z</time></trkpt><trkpt lat="33.9309583" lon="8.4743167"><ele>15.5</ele><time>2026-04-23T09:59:17.345Z</time></trkpt><trkpt lat="33.9310633" lon="8.4740717"><ele>16.0</ele><time>2026-04-23T09:59:18.345Z</time></trkpt><trkpt lat="33.931175" lon="8.4738317"><ele>15.5</ele><time>2026-04-23T09:59:19.344Z</time></trkpt><trkpt lat="33.93128" lon="8.4735867"><ele>15.0</ele><time>2026-04-23T09:59:20.344Z</time></trkpt><trkpt lat="33.931385" lon="8.4733517"><ele>15.0</ele><time>2026-04-23T09:59:21.345Z</time></trkpt><trkpt lat="33.931495" lon="8.47311"><ele>15.0</ele><time>2026-04-23T09:59:22.344Z</time></trkpt><trkpt lat="33.9316067" lon="8.4728633"><ele>14.5</ele><time>2026-04-23T09:59:23.345Z</time></trkpt><trkpt lat="33.93171" lon="8.47261"><ele>14.0</ele><time>2026-04-23T09:59:24.344Z</time></trkpt><trkpt lat="33.9318083" lon="8.4723633"><ele>14.0</ele><time>2026-04-23T09:59:25.344Z</time></trkpt><trkpt lat="33.93191" lon="8.47212"><ele>14.0</ele><time>2026-04-23T09:59:26.345Z</time></trkpt><trkpt lat="33.9320133" lon="8.47187"><ele>14.0</ele><time>2026-04-23T09:59:27.344Z</time></trkpt><trkpt lat="33.93212" lon="8.471615"><ele>14.0</ele><time>2026-04-23T09:59:28.344Z</time></trkpt><trkpt lat="33.9322217" lon="8.4713667"><ele>14.0</ele><time>2026-04-23T09:59:29.345Z</time></trkpt><trkpt lat="33.9323283" lon="8.4711117"><ele>14.0</ele><time>2026-04-23T09:59:30.345Z</time></trkpt><trkpt lat="33.9324383" lon="8.4708583"><ele>14.0</ele><time>2026-04-23T09:59:31.344Z</time></trkpt><trkpt lat="33.9325483" lon="8.4705983"><ele>14.0</ele><time>2026-04-23T09:59:32.345Z</time></trkpt><trkpt lat="33.9326567" lon="8.47033"><ele>14.5</ele><time>2026-04-23T09:59:33.344Z</time></trkpt><trkpt lat="33.9327733" lon="8.4700683"><ele>15.0</ele><time>2026-04-23T09:59:34.345Z</time></trkpt><trkpt lat="33.932875" lon="8.4698083"><ele>15.5</ele><time>2026-04-23T09:59:35.345Z</time></trkpt><trkpt lat="33.9329767" lon="8.4695483"><ele>16.0</ele><time>2026-04-23T09:59:36.345Z</time></trkpt><trkpt lat="33.9330883" lon="8.469285"><ele>16.0</ele><time>2026-04-23T09:59:37.344Z</time></trkpt><trkpt lat="33.9331967" lon="8.4690233"><ele>16.0</ele><time>2026-04-23T09:59:38.345Z</time></trkpt><trkpt lat="33.9333033" lon="8.468765"><ele>15.0</ele><time>2026-04-23T09:59:39.345Z</time></trkpt><trkpt lat="33.9334167" lon="8.4685083"><ele>14.0</ele><time>2026-04-23T09:59:40.345Z</time></trkpt><trkpt lat="33.9335283" lon="8.4682583"><ele>14.0</ele><time>2026-04-23T09:59:41.344Z</time></trkpt><trkpt lat="33.93364" lon="8.4680033"><ele>14.0</ele><time>2026-04-23T09:59:42.345Z</time></trkpt><trkpt lat="33.9337533" lon="8.46774"><ele>13.5</ele><time>2026-04-23T09:59:43.344Z</time></trkpt><trkpt lat="33.9338617" lon="8.4674767"><ele>13.0</ele><time>2026-04-23T09:59:44.345Z</time></trkpt><trkpt lat="33.93397" lon="8.4672133"><ele>14.0</ele><time>2026-04-23T09:59:45.344Z</time></trkpt><trkpt lat="33.9340783" lon="8.4669567"><ele>15.0</ele><time>2026-04-23T09:59:46.345Z</time></trkpt><trkpt lat="33.9341833" lon="8.4666933"><ele>14.5</ele><time>2026-04-23T09:59:47.344Z</time></trkpt><trkpt lat="33.93429" lon="8.4664333"><ele>14.0</ele><time>2026-04-23T09:59:48.344Z</time></trkpt><trkpt lat="33.934395" lon="8.4661767"><ele>14.0</ele><time>2026-04-23T09:59:49.344Z</time></trkpt><trkpt lat="33.9344983" lon="8.4659217"><ele>14.0</ele><time>2026-04-23T09:59:50.344Z</time></trkpt><trkpt lat="33.934605" lon="8.4656683"><ele>13.5</ele><time>2026-04-23T09:59:51.345Z</time></trkpt><trkpt lat="33.934715" lon="8.46541"><ele>13.0</ele><time>2026-04-23T09:59:52.344Z</time></trkpt><trkpt lat="33.9348217" lon="8.4651533"><ele>13.0</ele><time>2026-04-23T09:59:53.344Z</time></trkpt><trkpt lat="33.9349167" lon="8.4648933"><ele>13.0</ele><time>2026-04-23T09:59:54.345Z</time></trkpt><trkpt lat="33.9350117" lon="8.4646317"><ele>13.0</ele><time>2026-04-23T09:59:55.345Z</time></trkpt><trkpt lat="33.9351033" lon="8.464375"><ele>13.0</ele><time>2026-04-23T09:59:56.344Z</time></trkpt><trkpt lat="33.9352" lon="8.46412"><ele>13.0</ele><time>2026-04-23T09:59:57.344Z</time></trkpt><trkpt lat="33.9353" lon="8.4638617"><ele>13.0</ele><time>2026-04-23T09:59:58.345Z</time></trkpt><trkpt lat="33.935395" lon="8.4636"><ele>13.5</ele><time>2026-04-23T09:59:59.344Z</time></trkpt><trkpt lat="33.9354833" lon="8.4633333"><ele>14.0</ele><time>2026-04-23T10:00:00.345Z</time></trkpt><trkpt lat="33.935575" lon="8.4630633"><ele>14.0</ele><time>2026-04-23T10:00:01.344Z</time></trkpt><trkpt lat="33.9356667" lon="8.4627917"><ele>14.0</ele><time>2026-04-23T10:00:02.345Z</time></trkpt><trkpt lat="33.935755" lon="8.462525"><ele>14.0</ele><time>2026-04-23T10:00:03.344Z</time></trkpt><trkpt lat="33.9358433" lon="8.4622567"><ele>14.0</ele><time>2026-04-23T10:00:04.344Z</time></trkpt><trkpt lat="33.935925" lon="8.4619833"><ele>14.0</ele><time>2026-04-23T10:00:05.344Z</time></trkpt><trkpt lat="33.9360183" lon="8.4617167"><ele>14.0</ele><time>2026-04-23T10:00:06.345Z</time></trkpt><trkpt lat="33.9361117" lon="8.46145"><ele>14.0</ele><time>2026-04-23T10:00:07.344Z</time></trkpt><trkpt lat="33.9362" lon="8.461185"><ele>14.0</ele><time>2026-04-23T10:00:08.345Z</time></trkpt><trkpt lat="33.936285" lon="8.4609167"><ele>14.0</ele><time>2026-04-23T10:00:09.345Z</time></trkpt><trkpt lat="33.9363717" lon="8.4606467"><ele>14.0</ele><time>2026-04-23T10:00:10.345Z</time></trkpt><trkpt lat="33.936465" lon="8.4603783"><ele>14.5</ele><time>2026-04-23T10:00:11.344Z</time></trkpt><trkpt lat="33.936555" lon="8.4601183"><ele>15.0</ele><time>2026-04-23T10:00:12.344Z</time></trkpt><trkpt lat="33.9366533" lon="8.4598533"><ele>14.5</ele><time>2026-04-23T10:00:13.344Z</time></trkpt><trkpt lat="33.9367483" lon="8.4595883"><ele>14.0</ele><time>2026-04-23T10:00:14.345Z</time></trkpt><trkpt lat="33.9368367" lon="8.4593317"><ele>14.0</ele><time>2026-04-23T10:00:15.344Z</time></trkpt><trkpt lat="33.9369267" lon="8.459075"><ele>14.0</ele><time>2026-04-23T10:00:16.344Z</time></trkpt><trkpt lat="33.9370217" lon="8.4588117"><ele>14.0</ele><time>2026-04-23T10:00:17.344Z</time></trkpt><trkpt lat="33.9371133" lon="8.4585483"><ele>14.0</ele><time>2026-04-23T10:00:18.345Z</time></trkpt><trkpt lat="33.9372033" lon="8.4582817"><ele>14.0</ele><time>2026-04-23T10:00:19.344Z</time></trkpt><trkpt lat="33.937295" lon="8.4580167"><ele>14.0</ele><time>2026-04-23T10:00:20.345Z</time></trkpt><trkpt lat="33.9373867" lon="8.4577483"><ele>14.0</ele><time>2026-04-23T10:00:21.345Z</time></trkpt><trkpt lat="33.9374733" lon="8.4574833"><ele>14.0</ele><time>2026-04-23T10:00:22.345Z</time></trkpt><trkpt lat="33.9375633" lon="8.4572083"><ele>14.0</ele><time>2026-04-23T10:00:23.344Z</time></trkpt><trkpt lat="33.93765" lon="8.4569417"><ele>14.0</ele><time>2026-04-23T10:00:24.344Z</time></trkpt><trkpt lat="33.9377417" lon="8.456675"><ele>14.0</ele><time>2026-04-23T10:00:25.345Z</time></trkpt><trkpt lat="33.937835" lon="8.4564067"><ele>14.0</ele><time>2026-04-23T10:00:26.344Z</time></trkpt><trkpt lat="33.9379283" lon="8.4561417"><ele>14.5</ele><time>2026-04-23T10:00:27.344Z</time></trkpt><trkpt lat="33.9380217" lon="8.4558733"><ele>15.0</ele><time>2026-04-23T10:00:28.344Z</time></trkpt><trkpt lat="33.938115" lon="8.4556"><ele>15.0</ele><time>2026-04-23T10:00:29.344Z</time></trkpt><trkpt lat="33.9382033" lon="8.45533"><ele>15.0</ele><time>2026-04-23T10:00:30.345Z</time></trkpt><trkpt lat="33.9382933" lon="8.4550683"><ele>15.0</ele><time>2026-04-23T10:00:31.344Z</time></trkpt><trkpt lat="33.938385" lon="8.45481"><ele>15.0</ele><time>2026-04-23T10:00:32.344Z</time></trkpt><trkpt lat="33.9384733" lon="8.4545517"><ele>14.5</ele><time>2026-04-23T10:00:33.345Z</time></trkpt><trkpt lat="33.9385633" lon="8.4542883"><ele>14.0</ele><time>2026-04-23T10:00:34.344Z</time></trkpt><trkpt lat="33.9386533" lon="8.45403"><ele>15.0</ele><time>2026-04-23T10:00:35.345Z</time></trkpt><trkpt lat="33.9387383" lon="8.4537767"><ele>16.0</ele><time>2026-04-23T10:00:36.345Z</time></trkpt><trkpt lat="33.938825" lon="8.453525"><ele>16.0</ele><time>2026-04-23T10:00:37.344Z</time></trkpt><trkpt lat="33.938915" lon="8.4532683"><ele>16.0</ele><time>2026-04-23T10:00:38.345Z</time></trkpt><trkpt lat="33.939005" lon="8.4530133"><ele>15.5</ele><time>2026-04-23T10:00:39.344Z</time></trkpt><trkpt lat="33.93909" lon="8.452755"><ele>15.0</ele><time>2026-04-23T10:00:40.344Z</time></trkpt><trkpt lat="33.9391767" lon="8.4525067"><ele>16.0</ele><time>2026-04-23T10:00:41.345Z</time></trkpt><trkpt lat="33.9392617" lon="8.4522483"><ele>17.0</ele><time>2026-04-23T10:00:42.344Z</time></trkpt><trkpt lat="33.939355" lon="8.4519867"><ele>15.0</ele><time>2026-04-23T10:00:43.344Z</time></trkpt><trkpt lat="33.9394467" lon="8.4517283"><ele>13.0</ele><time>2026-04-23T10:00:44.345Z</time></trkpt><trkpt lat="33.9395267" lon="8.4514733"><ele>15.5</ele><time>2026-04-23T10:00:45.345Z</time></trkpt><trkpt lat="33.93961" lon="8.4512133"><ele>18.0</ele><time>2026-04-23T10:00:46.344Z</time></trkpt><trkpt lat="33.9396983" lon="8.4509567"><ele>18.0</ele><time>2026-04-23T10:00:47.345Z</time></trkpt><trkpt lat="33.9397817" lon="8.4507"><ele>18.0</ele><time>2026-04-23T10:00:48.344Z</time></trkpt><trkpt lat="33.93987" lon="8.4504417"><ele>18.0</ele><time>2026-04-23T10:00:49.344Z</time></trkpt><trkpt lat="33.9399583" lon="8.45018"><ele>18.0</ele><time>2026-04-23T10:00:50.344Z</time></trkpt><trkpt lat="33.9400467" lon="8.449925"><ele>17.0</ele><time>2026-04-23T10:00:51.345Z</time></trkpt><trkpt lat="33.940135" lon="8.4496733"><ele>16.0</ele><time>2026-04-23T10:00:52.344Z</time></trkpt><trkpt lat="33.94022" lon="8.4494183"><ele>14.5</ele><time>2026-04-23T10:00:53.345Z</time></trkpt><trkpt lat="33.9403067" lon="8.4491617"><ele>13.0</ele><time>2026-04-23T10:00:54.344Z</time></trkpt><trkpt lat="33.94039" lon="8.4489067"><ele>13.666666666666666</ele><time>2026-04-23T10:00:55.344Z</time></trkpt><trkpt lat="33.940475" lon="8.448655"><ele>14.333333333333332</ele><time>2026-04-23T10:00:56.344Z</time></trkpt><trkpt lat="33.9405583" lon="8.4484067"><ele>15.0</ele><time>2026-04-23T10:00:57.344Z</time></trkpt><trkpt lat="33.9406467" lon="8.44815"><ele>14.0</ele><time>2026-04-23T10:00:58.344Z</time></trkpt><trkpt lat="33.940735" lon="8.4478917"><ele>13.0</ele><time>2026-04-23T10:00:59.345Z</time></trkpt><trkpt lat="33.9408267" lon="8.4476367"><ele>13.0</ele><time>2026-04-23T10:01:00.344Z</time></trkpt><trkpt lat="33.9409083" lon="8.44738"><ele>13.0</ele><time>2026-04-23T10:01:01.345Z</time></trkpt><trkpt lat="33.9409967" lon="8.4471167"><ele>13.0</ele><time>2026-04-23T10:01:02.344Z</time></trkpt><trkpt lat="33.94108" lon="8.446855"><ele>13.0</ele><time>2026-04-23T10:01:03.345Z</time></trkpt><trkpt lat="33.9411683" lon="8.4465917"><ele>13.0</ele><time>2026-04-23T10:01:04.344Z</time></trkpt><trkpt lat="33.94125" lon="8.446325"><ele>13.0</ele><time>2026-04-23T10:01:05.344Z</time></trkpt><trkpt lat="33.9413367" lon="8.4460667"><ele>14.5</ele><time>2026-04-23T10:01:06.344Z</time></trkpt><trkpt lat="33.9414267" lon="8.4458067"><ele>16.0</ele><time>2026-04-23T10:01:07.345Z</time></trkpt><trkpt lat="33.9415117" lon="8.4455517"><ele>16.0</ele><time>2026-04-23T10:01:08.344Z</time></trkpt><trkpt lat="33.9415983" lon="8.445295"><ele>16.0</ele><time>2026-04-23T10:01:09.345Z</time></trkpt><trkpt lat="33.9416883" lon="8.4450383"><ele>15.666666666666666</ele><time>2026-04-23T10:01:10.344Z</time></trkpt><trkpt lat="33.94177" lon="8.4447917"><ele>15.333333333333332</ele><time>2026-04-23T10:01:11.344Z</time></trkpt><trkpt lat="33.94186" lon="8.4445383"><ele>15.0</ele><time>2026-04-23T10:01:12.344Z</time></trkpt><trkpt lat="33.9419383" lon="8.4442883"><ele>15.0</ele><time>2026-04-23T10:01:13.344Z</time></trkpt><trkpt lat="33.9420233" lon="8.4440483"><ele>15.0</ele><time>2026-04-23T10:01:14.345Z</time></trkpt><trkpt lat="33.9421117" lon="8.4438067"><ele>15.0</ele><time>2026-04-23T10:01:15.345Z</time></trkpt><trkpt lat="33.9422033" lon="8.4435583"><ele>14.666666666666668</ele><time>2026-04-23T10:01:16.345Z</time></trkpt><trkpt lat="33.9422883" lon="8.4433133"><ele>14.333333333333334</ele><time>2026-04-23T10:01:17.344Z</time></trkpt><trkpt lat="33.9423733" lon="8.443065"><ele>14.0</ele><time>2026-04-23T10:01:18.344Z</time></trkpt><trkpt lat="33.9424583" lon="8.4428167"><ele>15.0</ele><time>2026-04-23T10:01:19.345Z</time></trkpt><trkpt lat="33.9425483" lon="8.4425617"><ele>16.0</ele><time>2026-04-23T10:01:20.344Z</time></trkpt><trkpt lat="33.942635" lon="8.4423067"><ele>15.0</ele><time>2026-04-23T10:01:21.344Z</time></trkpt><trkpt lat="33.942725" lon="8.4420583"><ele>14.0</ele><time>2026-04-23T10:01:22.344Z</time></trkpt><trkpt lat="33.9428083" lon="8.4418067"><ele>14.0</ele><time>2026-04-23T10:01:23.345Z</time></trkpt><trkpt lat="33.9428883" lon="8.4415517"><ele>14.0</ele><time>2026-04-23T10:01:24.345Z</time></trkpt><trkpt lat="33.9429733" lon="8.4412983"><ele>14.5</ele><time>2026-04-23T10:01:25.345Z</time></trkpt><trkpt lat="33.94306" lon="8.4410383"><ele>15.0</ele><time>2026-04-23T10:01:26.344Z</time></trkpt><trkpt lat="33.9431533" lon="8.440775"><ele>15.0</ele><time>2026-04-23T10:01:27.344Z</time></trkpt><trkpt lat="33.943245" lon="8.4405133"><ele>15.0</ele><time>2026-04-23T10:01:28.345Z</time></trkpt><trkpt lat="33.9433317" lon="8.4402633"><ele>15.0</ele><time>2026-04-23T10:01:29.344Z</time></trkpt><trkpt lat="33.943415" lon="8.4400033"><ele>15.0</ele><time>2026-04-23T10:01:30.345Z</time></trkpt><trkpt lat="33.943505" lon="8.439745"><ele>14.5</ele><time>2026-04-23T10:01:31.345Z</time></trkpt><trkpt lat="33.9435883" lon="8.439485"><ele>14.0</ele><time>2026-04-23T10:01:32.344Z</time></trkpt><trkpt lat="33.943675" lon="8.43922"><ele>14.0</ele><time>2026-04-23T10:01:33.344Z</time></trkpt><trkpt lat="33.94376" lon="8.4389683"><ele>14.0</ele><time>2026-04-23T10:01:34.345Z</time></trkpt><trkpt lat="33.94386" lon="8.4387067"><ele>14.0</ele><time>2026-04-23T10:01:35.344Z</time></trkpt><trkpt lat="33.9439483" lon="8.4384433"><ele>14.0</ele><time>2026-04-23T10:01:36.345Z</time></trkpt><trkpt lat="33.9440417" lon="8.4381833"><ele>14.0</ele><time>2026-04-23T10:01:37.345Z</time></trkpt><trkpt lat="33.94413" lon="8.437915"><ele>14.0</ele><time>2026-04-23T10:01:38.345Z</time></trkpt><trkpt lat="33.9442133" lon="8.4376583"><ele>14.0</ele><time>2026-04-23T10:01:39.344Z</time></trkpt><trkpt lat="33.9442983" lon="8.4373917"><ele>14.0</ele><time>2026-04-23T10:01:40.345Z</time></trkpt><trkpt lat="33.944385" lon="8.4371283"><ele>14.0</ele><time>2026-04-23T10:01:41.344Z</time></trkpt><trkpt lat="33.9444733" lon="8.43687"><ele>14.0</ele><time>2026-04-23T10:01:42.344Z</time></trkpt><trkpt lat="33.944555" lon="8.4366083"><ele>14.0</ele><time>2026-04-23T10:01:43.344Z</time></trkpt><trkpt lat="33.9446517" lon="8.436345"><ele>14.0</ele><time>2026-04-23T10:01:44.345Z</time></trkpt><trkpt lat="33.9447383" lon="8.4360833"><ele>14.0</ele><time>2026-04-23T10:01:45.345Z</time></trkpt><trkpt lat="33.9448217" lon="8.4358267"><ele>14.0</ele><time>2026-04-23T10:01:46.345Z</time></trkpt><trkpt lat="33.9449117" lon="8.4355717"><ele>14.0</ele><time>2026-04-23T10:01:47.344Z</time></trkpt><trkpt lat="33.9449967" lon="8.4353133"><ele>14.0</ele><time>2026-04-23T10:01:48.344Z</time></trkpt><trkpt lat="33.9450917" lon="8.4350517"><ele>14.0</ele><time>2026-04-23T10:01:49.345Z</time></trkpt><trkpt lat="33.945185" lon="8.4347867"><ele>14.0</ele><time>2026-04-23T10:01:50.344Z</time></trkpt><trkpt lat="33.94527" lon="8.43452"><ele>13.5</ele><time>2026-04-23T10:01:51.344Z</time></trkpt><trkpt lat="33.94536" lon="8.4342483"><ele>13.0</ele><time>2026-04-23T10:01:52.345Z</time></trkpt><trkpt lat="33.94545" lon="8.4339867"><ele>14.0</ele><time>2026-04-23T10:01:53.345Z</time></trkpt><trkpt lat="33.9455417" lon="8.4337183"><ele>15.0</ele><time>2026-04-23T10:01:54.344Z</time></trkpt><trkpt lat="33.9456283" lon="8.4334517"><ele>15.0</ele><time>2026-04-23T10:01:55.344Z</time></trkpt><trkpt lat="33.94572" lon="8.43319"><ele>15.0</ele><time>2026-04-23T10:01:56.345Z</time></trkpt><trkpt lat="33.9458117" lon="8.432925"><ele>14.0</ele><time>2026-04-23T10:01:57.345Z</time></trkpt><trkpt lat="33.9458967" lon="8.4326667"><ele>13.0</ele><time>2026-04-23T10:01:58.345Z</time></trkpt><trkpt lat="33.94598" lon="8.432415"><ele>13.0</ele><time>2026-04-23T10:01:59.343Z</time></trkpt><trkpt lat="33.9460667" lon="8.4321667"><ele>13.0</ele><time>2026-04-23T10:02:00.343Z</time></trkpt><trkpt lat="33.9461517" lon="8.4319217"><ele>13.0</ele><time>2026-04-23T10:02:01.344Z</time></trkpt><trkpt lat="33.9462367" lon="8.431685"><ele>13.666666666666666</ele><time>2026-04-23T10:02:02.343Z</time></trkpt><trkpt lat="33.9463233" lon="8.4314517"><ele>14.333333333333332</ele><time>2026-04-23T10:02:03.344Z</time></trkpt><trkpt lat="33.9464017" lon="8.4312183"><ele>15.0</ele><time>2026-04-23T10:02:04.343Z</time></trkpt><trkpt lat="33.9464683" lon="8.4309833"><ele>15.0</ele><time>2026-04-23T10:02:05.343Z</time></trkpt><trkpt lat="33.9465483" lon="8.430755"><ele>15.0</ele><time>2026-04-23T10:02:06.343Z</time></trkpt><trkpt lat="33.9466217" lon="8.4305317"><ele>15.0</ele><time>2026-04-23T10:02:07.344Z</time></trkpt><trkpt lat="33.946695" lon="8.43031"><ele>15.0</ele><time>2026-04-23T10:02:08.343Z</time></trkpt><trkpt lat="33.94677" lon="8.43009"><ele>15.0</ele><time>2026-04-23T10:02:09.344Z</time></trkpt><trkpt lat="33.9468433" lon="8.4298717"><ele>15.0</ele><time>2026-04-23T10:02:10.343Z</time></trkpt><trkpt lat="33.9469133" lon="8.429665"><ele>14.666666666666668</ele><time>2026-04-23T10:02:11.344Z</time></trkpt><trkpt lat="33.9469867" lon="8.4294517"><ele>14.333333333333334</ele><time>2026-04-23T10:02:12.344Z</time></trkpt><trkpt lat="33.9470583" lon="8.4292383"><ele>14.0</ele><time>2026-04-23T10:02:13.344Z</time></trkpt><trkpt lat="33.9471267" lon="8.42903"><ele>14.0</ele><time>2026-04-23T10:02:14.343Z</time></trkpt><trkpt lat="33.947195" lon="8.4288183"><ele>14.0</ele><time>2026-04-23T10:02:15.344Z</time></trkpt><trkpt lat="33.9472667" lon="8.42861"><ele>14.0</ele><time>2026-04-23T10:02:16.343Z</time></trkpt><trkpt lat="33.9473383" lon="8.4284017"><ele>14.0</ele><time>2026-04-23T10:02:17.344Z</time></trkpt><trkpt lat="33.9474083" lon="8.42819"><ele>14.0</ele><time>2026-04-23T10:02:18.343Z</time></trkpt><trkpt lat="33.9474817" lon="8.4279783"><ele>14.0</ele><time>2026-04-23T10:02:19.343Z</time></trkpt><trkpt lat="33.9475533" lon="8.4277683"><ele>14.333333333333334</ele><time>2026-04-23T10:02:20.344Z</time></trkpt><trkpt lat="33.9476267" lon="8.4275533"><ele>14.666666666666668</ele><time>2026-04-23T10:02:21.343Z</time></trkpt><trkpt lat="33.947705" lon="8.4273333"><ele>15.0</ele><time>2026-04-23T10:02:22.343Z</time></trkpt><trkpt lat="33.94778" lon="8.4271183"><ele>14.333333333333332</ele><time>2026-04-23T10:02:23.344Z</time></trkpt><trkpt lat="33.9478517" lon="8.4269"><ele>13.666666666666666</ele><time>2026-04-23T10:02:24.343Z</time></trkpt><trkpt lat="33.9479283" lon="8.4266783"><ele>13.0</ele><time>2026-04-23T10:02:25.343Z</time></trkpt><trkpt lat="33.9480067" lon="8.4264583"><ele>12.666666666666666</ele><time>2026-04-23T10:02:26.343Z</time></trkpt><trkpt lat="33.9480767" lon="8.42624"><ele>12.333333333333332</ele><time>2026-04-23T10:02:27.344Z</time></trkpt><trkpt lat="33.9481467" lon="8.426025"><ele>12.0</ele><time>2026-04-23T10:02:28.344Z</time></trkpt><trkpt lat="33.9482183" lon="8.4258117"><ele>12.0</ele><time>2026-04-23T10:02:29.343Z</time></trkpt><trkpt lat="33.94829" lon="8.4255967"><ele>12.0</ele><time>2026-04-23T10:02:30.343Z</time></trkpt><trkpt lat="33.9483633" lon="8.4253833"><ele>12.0</ele><time>2026-04-23T10:02:31.343Z</time></trkpt><trkpt lat="33.9484367" lon="8.42517"><ele>12.333333333333332</ele><time>2026-04-23T10:02:32.343Z</time></trkpt><trkpt lat="33.94851" lon="8.4249583"><ele>12.666666666666666</ele><time>2026-04-23T10:02:33.343Z</time></trkpt><trkpt lat="33.9485767" lon="8.4247483"><ele>13.0</ele><time>2026-04-23T10:02:34.344Z</time></trkpt><trkpt lat="33.94865" lon="8.424535"><ele>13.0</ele><time>2026-04-23T10:02:35.344Z</time></trkpt><trkpt lat="33.9487317" lon="8.4243183"><ele>13.0</ele><time>2026-04-23T10:02:36.343Z</time></trkpt><trkpt lat="33.9488183" lon="8.4241"><ele>13.0</ele><time>2026-04-23T10:02:37.343Z</time></trkpt><trkpt lat="33.9488933" lon="8.4238817"><ele>13.0</ele><time>2026-04-23T10:02:38.344Z</time></trkpt><trkpt lat="33.948965" lon="8.4236667"><ele>13.0</ele><time>2026-04-23T10:02:39.343Z</time></trkpt><trkpt lat="33.949035" lon="8.423455"><ele>13.0</ele><time>2026-04-23T10:02:40.344Z</time></trkpt><trkpt lat="33.9491117" lon="8.4232367"><ele>13.0</ele><time>2026-04-23T10:02:41.343Z</time></trkpt><trkpt lat="33.9491867" lon="8.423015"><ele>13.0</ele><time>2026-04-23T10:02:42.343Z</time></trkpt><trkpt lat="33.94926" lon="8.4227967"><ele>13.0</ele><time>2026-04-23T10:02:43.344Z</time></trkpt><trkpt lat="33.9493383" lon="8.422575"><ele>13.0</ele><time>2026-04-23T10:02:44.344Z</time></trkpt><trkpt lat="33.9494217" lon="8.4223567"><ele>13.0</ele><time>2026-04-23T10:02:45.343Z</time></trkpt><trkpt lat="33.9494983" lon="8.4221433"><ele>13.0</ele><time>2026-04-23T10:02:46.344Z</time></trkpt><trkpt lat="33.9495667" lon="8.4219283"><ele>13.666666666666666</ele><time>2026-04-23T10:02:47.343Z</time></trkpt><trkpt lat="33.9496367" lon="8.421705"><ele>14.333333333333332</ele><time>2026-04-23T10:02:48.344Z</time></trkpt><trkpt lat="33.9497067" lon="8.42149"><ele>15.0</ele><time>2026-04-23T10:02:49.343Z</time></trkpt><trkpt lat="33.9497767" lon="8.421275"><ele>15.333333333333332</ele><time>2026-04-23T10:02:50.343Z</time></trkpt><trkpt lat="33.94985" lon="8.4210567"><ele>15.666666666666666</ele><time>2026-04-23T10:02:51.343Z</time></trkpt><trkpt lat="33.9499233" lon="8.4208433"><ele>16.0</ele><time>2026-04-23T10:02:52.343Z</time></trkpt><trkpt lat="33.9499933" lon="8.420625"><ele>15.666666666666666</ele><time>2026-04-23T10:02:53.343Z</time></trkpt><trkpt lat="33.9500583" lon="8.4204133"><ele>15.333333333333332</ele><time>2026-04-23T10:02:54.343Z</time></trkpt><trkpt lat="33.9501267" lon="8.4202"><ele>15.0</ele><time>2026-04-23T10:02:55.344Z</time></trkpt><trkpt lat="33.9502017" lon="8.419985"><ele>15.0</ele><time>2026-04-23T10:02:56.344Z</time></trkpt><trkpt lat="33.9502767" lon="8.4197733"><ele>15.0</ele><time>2026-04-23T10:02:57.344Z</time></trkpt><trkpt lat="33.9503483" lon="8.4195617"><ele>15.0</ele><time>2026-04-23T10:02:58.343Z</time></trkpt><trkpt lat="33.9504183" lon="8.4193467"><ele>15.0</ele><time>2026-04-23T10:02:59.344Z</time></trkpt><trkpt lat="33.9504883" lon="8.41914"><ele>15.0</ele><time>2026-04-23T10:03:00.343Z</time></trkpt><trkpt lat="33.9505617" lon="8.4189267"><ele>15.0</ele><time>2026-04-23T10:03:01.344Z</time></trkpt><trkpt lat="33.9506283" lon="8.4187183"><ele>15.0</ele><time>2026-04-23T10:03:02.343Z</time></trkpt><trkpt lat="33.9506967" lon="8.41852"><ele>15.0</ele><time>2026-04-23T10:03:03.343Z</time></trkpt><trkpt lat="33.95076" lon="8.4183267"><ele>15.0</ele><time>2026-04-23T10:03:04.344Z</time></trkpt><trkpt lat="33.9508233" lon="8.4181433"><ele>15.0</ele><time>2026-04-23T10:03:05.343Z</time></trkpt><trkpt lat="33.9508783" lon="8.4179667"><ele>15.0</ele><time>2026-04-23T10:03:06.343Z</time></trkpt><trkpt lat="33.950935" lon="8.4177933"><ele>15.0</ele><time>2026-04-23T10:03:07.343Z</time></trkpt><trkpt lat="33.9509933" lon="8.4176267"><ele>15.0</ele><time>2026-04-23T10:03:08.344Z</time></trkpt><trkpt lat="33.951045" lon="8.4174717"><ele>15.0</ele><time>2026-04-23T10:03:09.343Z</time></trkpt><trkpt lat="33.951095" lon="8.417325"><ele>15.0</ele><time>2026-04-23T10:03:10.343Z</time></trkpt><trkpt lat="33.95114" lon="8.417185"><ele>15.0</ele><time>2026-04-23T10:03:11.343Z</time></trkpt><trkpt lat="33.9511783" lon="8.4170517"><ele>14.8</ele><time>2026-04-23T10:03:12.343Z</time></trkpt><trkpt lat="33.9512133" lon="8.41693"><ele>14.6</ele><time>2026-04-23T10:03:13.344Z</time></trkpt><trkpt lat="33.951245" lon="8.4168383"><ele>14.399999999999999</ele><time>2026-04-23T10:03:14.344Z</time></trkpt><trkpt lat="33.9512567" lon="8.4167167"><ele>14.2</ele><time>2026-04-23T10:03:16.344Z</time></trkpt><trkpt lat="33.9511883" lon="8.4166717"><ele>14.0</ele><time>2026-04-23T10:03:20.344Z</time></trkpt><trkpt lat="33.9510883" lon="8.4167067"><ele>14.000000000000002</ele><time>2026-04-23T10:03:22.344Z</time></trkpt><trkpt lat="33.9510283" lon="8.4167383"><ele>14.0</ele><time>2026-04-23T10:03:23.344Z</time></trkpt><trkpt lat="33.9509683" lon="8.41677"><ele>14.0</ele><time>2026-04-23T10:03:24.344Z</time></trkpt><trkpt lat="33.9508583" lon="8.4167983"><ele>14.0</ele><time>2026-04-23T10:03:26.343Z</time></trkpt><trkpt lat="33.95075" lon="8.416785"><ele>14.000000000000002</ele><time>2026-04-23T10:03:28.344Z</time></trkpt><trkpt lat="33.9506867" lon="8.41678"><ele>14.0</ele><time>2026-04-23T10:03:29.344Z</time></trkpt><trkpt lat="33.9506017" lon="8.4167667"><ele>14.25</ele><time>2026-04-23T10:03:30.343Z</time></trkpt><trkpt lat="33.9505083" lon="8.4167533"><ele>14.5</ele><time>2026-04-23T10:03:31.344Z</time></trkpt><trkpt lat="33.9504" lon="8.4167367"><ele>14.75</ele><time>2026-04-23T10:03:32.344Z</time></trkpt><trkpt lat="33.95028" lon="8.416725"><ele>15.0</ele><time>2026-04-23T10:03:33.344Z</time></trkpt><trkpt lat="33.9501483" lon="8.4167317"><ele>14.666666666666668</ele><time>2026-04-23T10:03:34.343Z</time></trkpt><trkpt lat="33.9500133" lon="8.41676"><ele>14.333333333333334</ele><time>2026-04-23T10:03:35.343Z</time></trkpt><trkpt lat="33.94986" lon="8.4167983"><ele>14.0</ele><time>2026-04-23T10:03:36.343Z</time></trkpt><trkpt lat="33.9496917" lon="8.4168483"><ele>14.0</ele><time>2026-04-23T10:03:37.343Z</time></trkpt><trkpt lat="33.9495083" lon="8.4169067"><ele>14.0</ele><time>2026-04-23T10:03:38.343Z</time></trkpt><trkpt lat="33.9493183" lon="8.4169733"><ele>14.0</ele><time>2026-04-23T10:03:39.344Z</time></trkpt><trkpt lat="33.9491167" lon="8.417045"><ele>14.0</ele><time>2026-04-23T10:03:40.344Z</time></trkpt><trkpt lat="33.9489017" lon="8.4171117"><ele>14.0</ele><time>2026-04-23T10:03:41.343Z</time></trkpt><trkpt lat="33.948685" lon="8.4171833"><ele>14.0</ele><time>2026-04-23T10:03:42.343Z</time></trkpt><trkpt lat="33.9484667" lon="8.417255"><ele>14.0</ele><time>2026-04-23T10:03:43.344Z</time></trkpt><trkpt lat="33.9482333" lon="8.4173333"><ele>14.0</ele><time>2026-04-23T10:03:44.343Z</time></trkpt><trkpt lat="33.948" lon="8.417405"><ele>14.0</ele><time>2026-04-23T10:03:45.343Z</time></trkpt><trkpt lat="33.94776" lon="8.4174767"><ele>14.0</ele><time>2026-04-23T10:03:46.343Z</time></trkpt><trkpt lat="33.947515" lon="8.4175483"><ele>14.5</ele><time>2026-04-23T10:03:47.344Z</time></trkpt><trkpt lat="33.947265" lon="8.4176183"><ele>15.0</ele><time>2026-04-23T10:03:48.344Z</time></trkpt><trkpt lat="33.94701" lon="8.4176983"><ele>15.0</ele><time>2026-04-23T10:03:49.344Z</time></trkpt><trkpt lat="33.9467533" lon="8.4177783"><ele>15.0</ele><time>2026-04-23T10:03:50.343Z</time></trkpt><trkpt lat="33.946495" lon="8.4178567"><ele>15.0</ele><time>2026-04-23T10:03:51.343Z</time></trkpt><trkpt lat="33.9462433" lon="8.4179233"><ele>15.0</ele><time>2026-04-23T10:03:52.344Z</time></trkpt><trkpt lat="33.946015" lon="8.41798"><ele>13.5</ele><time>2026-04-23T10:03:53.344Z</time></trkpt><trkpt lat="33.9457883" lon="8.4180467"><ele>12.0</ele><time>2026-04-23T10:03:54.343Z</time></trkpt><trkpt lat="33.9455683" lon="8.418115"><ele>12.0</ele><time>2026-04-23T10:03:55.343Z</time></trkpt><trkpt lat="33.9453483" lon="8.4181833"><ele>12.0</ele><time>2026-04-23T10:03:56.344Z</time></trkpt><trkpt lat="33.9451267" lon="8.418255"><ele>13.0</ele><time>2026-04-23T10:03:57.344Z</time></trkpt><trkpt lat="33.9448967" lon="8.4183367"><ele>14.0</ele><time>2026-04-23T10:03:58.343Z</time></trkpt><trkpt lat="33.9446733" lon="8.418415"><ele>14.0</ele><time>2026-04-23T10:03:59.344Z</time></trkpt><trkpt lat="33.9444717" lon="8.4184833"><ele>14.0</ele><time>2026-04-23T10:04:00.344Z</time></trkpt><trkpt lat="33.944285" lon="8.4185433"><ele>14.0</ele><time>2026-04-23T10:04:01.343Z</time></trkpt><trkpt lat="33.9441117" lon="8.4186"><ele>14.333333333333334</ele><time>2026-04-23T10:04:02.344Z</time></trkpt><trkpt lat="33.9439583" lon="8.418655"><ele>14.666666666666668</ele><time>2026-04-23T10:04:03.343Z</time></trkpt><trkpt lat="33.943815" lon="8.4187067"><ele>15.0</ele><time>2026-04-23T10:04:04.344Z</time></trkpt><trkpt lat="33.94368" lon="8.4187617"><ele>15.0</ele><time>2026-04-23T10:04:05.343Z</time></trkpt><trkpt lat="33.943555" lon="8.4188033"><ele>15.0</ele><time>2026-04-23T10:04:06.344Z</time></trkpt><trkpt lat="33.9434333" lon="8.418845"><ele>15.0</ele><time>2026-04-23T10:04:07.343Z</time></trkpt><trkpt lat="33.9433167" lon="8.418875"><ele>15.0</ele><time>2026-04-23T10:04:08.344Z</time></trkpt><trkpt lat="33.943205" lon="8.418895"><ele>14.833333333333334</ele><time>2026-04-23T10:04:09.344Z</time></trkpt><trkpt lat="33.9431067" lon="8.4189"><ele>14.666666666666668</ele><time>2026-04-23T10:04:10.343Z</time></trkpt><trkpt lat="33.94302" lon="8.4189017"><ele>14.5</ele><time>2026-04-23T10:04:11.343Z</time></trkpt><trkpt lat="33.9429483" lon="8.4189133"><ele>14.333333333333334</ele><time>2026-04-23T10:04:12.344Z</time></trkpt><trkpt lat="33.9428633" lon="8.4189817"><ele>14.166666666666668</ele><time>2026-04-23T10:04:14.343Z</time></trkpt><trkpt lat="33.9428983" lon="8.4190633"><ele>14.0</ele><time>2026-04-23T10:04:17.343Z</time></trkpt><trkpt lat="33.94297" lon="8.4190217"><ele>14.000000000000002</ele><time>2026-04-23T10:05:28.344Z</time></trkpt><trkpt lat="33.94303" lon="8.4190617"><ele>14.0</ele><time>2026-04-23T10:05:31.344Z</time></trkpt><trkpt lat="33.942955" lon="8.4190467"><ele>14.0</ele><time>2026-04-23T10:29:59.336Z</time></trkpt><trkpt lat="33.9428833" lon="8.4190067"><ele>14.0</ele><time>2026-04-23T10:30:09.336Z</time></trkpt><trkpt lat="33.9428283" lon="8.4188933"><ele>14.000000000000002</ele><time>2026-04-23T10:30:11.336Z</time></trkpt><trkpt lat="33.94276" lon="8.4187917"><ele>14.0</ele><time>2026-04-23T10:30:13.336Z</time></trkpt><trkpt lat="33.942695" lon="8.4187017"><ele>14.000000000000002</ele><time>2026-04-23T10:30:15.336Z</time></trkpt><trkpt lat="33.9426367" lon="8.4186133"><ele>14.0</ele><time>2026-04-23T10:30:17.335Z</time></trkpt><trkpt lat="33.9425833" lon="8.4185533"><ele>14.0</ele><time>2026-04-23T10:30:19.335Z</time></trkpt><trkpt lat="33.9425283" lon="8.4184917"><ele>14.0</ele><time>2026-04-23T10:30:21.335Z</time></trkpt><trkpt lat="33.942455" lon="8.4184667"><ele>14.000000000000002</ele><time>2026-04-23T10:30:23.335Z</time></trkpt><trkpt lat="33.94238" lon="8.4185183"><ele>14.0</ele><time>2026-04-23T10:30:34.336Z</time></trkpt><trkpt lat="33.942405" lon="8.4186117"><ele>14.0</ele><time>2026-04-23T10:30:38.335Z</time></trkpt><trkpt lat="33.9424633" lon="8.4186717"><ele>14.0</ele><time>2026-04-23T10:30:42.336Z</time></trkpt><trkpt lat="33.942515" lon="8.4186267"><ele>14.0</ele><time>2026-04-23T10:30:47.336Z</time></trkpt><trkpt lat="33.94248" lon="8.4185383"><ele>14.0</ele><time>2026-04-23T10:30:50.336Z</time></trkpt><trkpt lat="33.9424233" lon="8.418485"><ele>14.0</ele><time>2026-04-23T10:30:53.335Z</time></trkpt><trkpt lat="33.942365" lon="8.4185183"><ele>14.0</ele><time>2026-04-23T10:31:07.336Z</time></trkpt><trkpt lat="33.9423617" lon="8.4186217"><ele>14.0</ele><time>2026-04-23T10:31:10.336Z</time></trkpt><trkpt lat="33.942385" lon="8.418695"><ele>14.000000000000002</ele><time>2026-04-23T10:31:12.336Z</time></trkpt><trkpt lat="33.9424217" lon="8.4187767"><ele>14.0</ele><time>2026-04-23T10:31:14.336Z</time></trkpt><trkpt lat="33.9424783" lon="8.4188433"><ele>14.0</ele><time>2026-04-23T10:31:16.336Z</time></trkpt><trkpt lat="33.9425383" lon="8.4189067"><ele>14.0</ele><time>2026-04-23T10:31:18.335Z</time></trkpt><trkpt lat="33.9426033" lon="8.418965"><ele>14.000000000000002</ele><time>2026-04-23T10:31:20.336Z</time></trkpt><trkpt lat="33.942645" lon="8.419025"><ele>14.0</ele><time>2026-04-23T10:31:22.336Z</time></trkpt><trkpt lat="33.9426967" lon="8.4190783"><ele>14.000000000000002</ele><time>2026-04-23T10:31:24.335Z</time></trkpt><trkpt lat="33.9427633" lon="8.41907"><ele>14.0</ele><time>2026-04-23T10:31:27.335Z</time></trkpt><trkpt lat="33.9427617" lon="8.418965"><ele>14.0</ele><time>2026-04-23T10:31:38.335Z</time></trkpt><trkpt lat="33.9427183" lon="8.41887"><ele>14.0</ele><time>2026-04-23T10:31:40.334Z</time></trkpt><trkpt lat="33.9426633" lon="8.418775"><ele>14.000000000000002</ele><time>2026-04-23T10:31:42.335Z</time></trkpt><trkpt lat="33.9426233" lon="8.4186867"><ele>14.0</ele><time>2026-04-23T10:31:44.334Z</time></trkpt><trkpt lat="33.9425733" lon="8.4186067"><ele>14.000000000000002</ele><time>2026-04-23T10:31:47.335Z</time></trkpt><trkpt lat="33.9425167" lon="8.41854"><ele>14.0</ele><time>2026-04-23T10:31:50.335Z</time></trkpt><trkpt lat="33.94245" lon="8.4184883"><ele>14.0</ele><time>2026-04-23T10:31:53.335Z</time></trkpt><trkpt lat="33.9423867" lon="8.418485"><ele>14.0</ele><time>2026-04-23T10:32:14.334Z</time></trkpt><trkpt lat="33.9424017" lon="8.418575"><ele>14.000000000000002</ele><time>2026-04-23T10:32:17.334Z</time></trkpt><trkpt lat="33.9424333" lon="8.4186667"><ele>14.0</ele><time>2026-04-23T10:32:19.335Z</time></trkpt><trkpt lat="33.9424867" lon="8.418775"><ele>14.0</ele><time>2026-04-23T10:32:21.335Z</time></trkpt><trkpt lat="33.9425433" lon="8.418885"><ele>13.999999999999998</ele><time>2026-04-23T10:32:23.335Z</time></trkpt><trkpt lat="33.9425867" lon="8.4189967"><ele>13.999999999999998</ele><time>2026-04-23T10:32:25.334Z</time></trkpt><trkpt lat="33.942605" lon="8.4191"><ele>14.0</ele><time>2026-04-23T10:32:27.334Z</time></trkpt><trkpt lat="33.9425467" lon="8.419165"><ele>14.0</ele><time>2026-04-23T10:32:29.334Z</time></trkpt><trkpt lat="33.9424333" lon="8.41923"><ele>14.166666666666668</ele><time>2026-04-23T10:32:31.334Z</time></trkpt><trkpt lat="33.942365" lon="8.419265"><ele>14.333333333333334</ele><time>2026-04-23T10:32:32.334Z</time></trkpt><trkpt lat="33.9422933" lon="8.419305"><ele>14.5</ele><time>2026-04-23T10:32:33.334Z</time></trkpt><trkpt lat="33.9422217" lon="8.419345"><ele>14.666666666666668</ele><time>2026-04-23T10:32:34.334Z</time></trkpt><trkpt lat="33.942145" lon="8.4193867"><ele>14.833333333333334</ele><time>2026-04-23T10:32:35.334Z</time></trkpt><trkpt lat="33.9420667" lon="8.4194333"><ele>15.0</ele><time>2026-04-23T10:32:36.334Z</time></trkpt><trkpt lat="33.9419883" lon="8.4194817"><ele>15.0</ele><time>2026-04-23T10:32:37.334Z</time></trkpt><trkpt lat="33.9419083" lon="8.4195267"><ele>15.0</ele><time>2026-04-23T10:32:38.335Z</time></trkpt><trkpt lat="33.9418233" lon="8.41957"><ele>15.0</ele><time>2026-04-23T10:32:39.335Z</time></trkpt><trkpt lat="33.9417417" lon="8.4196133"><ele>15.0</ele><time>2026-04-23T10:32:40.334Z</time></trkpt><trkpt lat="33.9416567" lon="8.4196517"><ele>15.0</ele><time>2026-04-23T10:32:41.335Z</time></trkpt><trkpt lat="33.9415733" lon="8.4197"><ele>14.8</ele><time>2026-04-23T10:32:42.335Z</time></trkpt><trkpt lat="33.94149" lon="8.4197533"><ele>14.6</ele><time>2026-04-23T10:32:43.335Z</time></trkpt><trkpt lat="33.9414017" lon="8.4197967"><ele>14.399999999999999</ele><time>2026-04-23T10:32:44.334Z</time></trkpt><trkpt lat="33.9413133" lon="8.419845"><ele>14.2</ele><time>2026-04-23T10:32:45.334Z</time></trkpt><trkpt lat="33.9412233" lon="8.4198933"><ele>14.0</ele><time>2026-04-23T10:32:46.335Z</time></trkpt><trkpt lat="33.941135" lon="8.4199383"><ele>14.0</ele><time>2026-04-23T10:32:47.335Z</time></trkpt><trkpt lat="33.941045" lon="8.419985"><ele>13.999999999999998</ele><time>2026-04-23T10:32:48.334Z</time></trkpt><trkpt lat="33.9409533" lon="8.4200367"><ele>13.999999999999998</ele><time>2026-04-23T10:32:49.334Z</time></trkpt><trkpt lat="33.940865" lon="8.4200883"><ele>14.0</ele><time>2026-04-23T10:32:50.334Z</time></trkpt><trkpt lat="33.9407817" lon="8.4201417"><ele>14.0</ele><time>2026-04-23T10:32:51.334Z</time></trkpt><trkpt lat="33.9406933" lon="8.4201867"><ele>13.799999999999999</ele><time>2026-04-23T10:32:52.335Z</time></trkpt><trkpt lat="33.940605" lon="8.4202383"><ele>13.599999999999998</ele><time>2026-04-23T10:32:53.335Z</time></trkpt><trkpt lat="33.940515" lon="8.4202883"><ele>13.4</ele><time>2026-04-23T10:32:54.334Z</time></trkpt><trkpt lat="33.94043" lon="8.420335"><ele>13.2</ele><time>2026-04-23T10:32:55.334Z</time></trkpt><trkpt lat="33.94034" lon="8.4203817"><ele>13.0</ele><time>2026-04-23T10:32:56.335Z</time></trkpt><trkpt lat="33.9402517" lon="8.4204283"><ele>13.0</ele><time>2026-04-23T10:32:57.335Z</time></trkpt><trkpt lat="33.940165" lon="8.42047"><ele>13.0</ele><time>2026-04-23T10:32:58.335Z</time></trkpt><trkpt lat="33.940075" lon="8.420515"><ele>13.0</ele><time>2026-04-23T10:32:59.335Z</time></trkpt><trkpt lat="33.9399833" lon="8.4205667"><ele>13.0</ele><time>2026-04-23T10:33:00.334Z</time></trkpt><trkpt lat="33.9398933" lon="8.4206183"><ele>13.0</ele><time>2026-04-23T10:33:01.335Z</time></trkpt><trkpt lat="33.9398033" lon="8.4206733"><ele>13.25</ele><time>2026-04-23T10:33:02.334Z</time></trkpt><trkpt lat="33.9397133" lon="8.42073"><ele>13.5</ele><time>2026-04-23T10:33:03.334Z</time></trkpt><trkpt lat="33.9396233" lon="8.4207883"><ele>13.75</ele><time>2026-04-23T10:33:04.334Z</time></trkpt><trkpt lat="33.9395367" lon="8.4208467"><ele>14.0</ele><time>2026-04-23T10:33:05.335Z</time></trkpt><trkpt lat="33.9393483" lon="8.420955"><ele>14.0</ele><time>2026-04-23T10:33:07.334Z</time></trkpt><trkpt lat="33.9392517" lon="8.4210017"><ele>13.999999999999998</ele><time>2026-04-23T10:33:08.334Z</time></trkpt><trkpt lat="33.939155" lon="8.421055"><ele>13.999999999999998</ele><time>2026-04-23T10:33:09.335Z</time></trkpt><trkpt lat="33.9390583" lon="8.4211083"><ele>14.0</ele><time>2026-04-23T10:33:10.334Z</time></trkpt><trkpt lat="33.9389617" lon="8.4211617"><ele>14.0</ele><time>2026-04-23T10:33:11.334Z</time></trkpt><trkpt lat="33.9388667" lon="8.4212117"><ele>13.799999999999999</ele><time>2026-04-23T10:33:12.334Z</time></trkpt><trkpt lat="33.9387683" lon="8.4212667"><ele>13.599999999999998</ele><time>2026-04-23T10:33:13.335Z</time></trkpt><trkpt lat="33.938675" lon="8.42132"><ele>13.4</ele><time>2026-04-23T10:33:14.334Z</time></trkpt><trkpt lat="33.93858" lon="8.4213717"><ele>13.2</ele><time>2026-04-23T10:33:15.334Z</time></trkpt><trkpt lat="33.938485" lon="8.4214217"><ele>13.0</ele><time>2026-04-23T10:33:16.335Z</time></trkpt><trkpt lat="33.93839" lon="8.4214817"><ele>13.4</ele><time>2026-04-23T10:33:17.335Z</time></trkpt><trkpt lat="33.9382967" lon="8.421535"><ele>13.8</ele><time>2026-04-23T10:33:18.335Z</time></trkpt><trkpt lat="33.9382017" lon="8.4215933"><ele>14.2</ele><time>2026-04-23T10:33:19.335Z</time></trkpt><trkpt lat="33.9381033" lon="8.4216467"><ele>14.6</ele><time>2026-04-23T10:33:20.335Z</time></trkpt><trkpt lat="33.9380067" lon="8.4217"><ele>15.0</ele><time>2026-04-23T10:33:21.334Z</time></trkpt><trkpt lat="33.9379117" lon="8.4217517"><ele>15.0</ele><time>2026-04-23T10:33:22.334Z</time></trkpt><trkpt lat="33.9378167" lon="8.4218067"><ele>15.0</ele><time>2026-04-23T10:33:23.334Z</time></trkpt><trkpt lat="33.9377217" lon="8.4218617"><ele>15.0</ele><time>2026-04-23T10:33:24.335Z</time></trkpt><trkpt lat="33.9376233" lon="8.42192"><ele>15.0</ele><time>2026-04-23T10:33:25.334Z</time></trkpt><trkpt lat="33.9375283" lon="8.4219733"><ele>15.0</ele><time>2026-04-23T10:33:26.334Z</time></trkpt><trkpt lat="33.9374317" lon="8.42203"><ele>15.0</ele><time>2026-04-23T10:33:27.334Z</time></trkpt><trkpt lat="33.9373333" lon="8.4220867"><ele>15.0</ele><time>2026-04-23T10:33:28.334Z</time></trkpt><trkpt lat="33.9372317" lon="8.4221533"><ele>15.0</ele><time>2026-04-23T10:33:29.335Z</time></trkpt><trkpt lat="33.9371267" lon="8.4222183"><ele>15.0</ele><time>2026-04-23T10:33:30.334Z</time></trkpt><trkpt lat="33.9370183" lon="8.42228"><ele>15.0</ele><time>2026-04-23T10:33:31.335Z</time></trkpt><trkpt lat="33.9369117" lon="8.4223383"><ele>15.0</ele><time>2026-04-23T10:33:32.335Z</time></trkpt><trkpt lat="33.9368067" lon="8.4223933"><ele>15.0</ele><time>2026-04-23T10:33:33.335Z</time></trkpt><trkpt lat="33.9366967" lon="8.422445"><ele>15.0</ele><time>2026-04-23T10:33:34.334Z</time></trkpt><trkpt lat="33.93659" lon="8.4224983"><ele>14.666666666666668</ele><time>2026-04-23T10:33:35.334Z</time></trkpt><trkpt lat="33.9364833" lon="8.422555"><ele>14.333333333333334</ele><time>2026-04-23T10:33:36.334Z</time></trkpt><trkpt lat="33.9363783" lon="8.4226133"><ele>14.0</ele><time>2026-04-23T10:33:37.335Z</time></trkpt><trkpt lat="33.9361767" lon="8.422735"><ele>14.0</ele><time>2026-04-23T10:33:39.334Z</time></trkpt><trkpt lat="33.9360717" lon="8.4227983"><ele>14.0</ele><time>2026-04-23T10:33:40.334Z</time></trkpt><trkpt lat="33.935965" lon="8.422865"><ele>14.0</ele><time>2026-04-23T10:33:41.335Z</time></trkpt><trkpt lat="33.9358583" lon="8.422925"><ele>14.0</ele><time>2026-04-23T10:33:42.334Z</time></trkpt><trkpt lat="33.9357517" lon="8.4229883"><ele>14.25</ele><time>2026-04-23T10:33:43.334Z</time></trkpt><trkpt lat="33.93565" lon="8.4230483"><ele>14.5</ele><time>2026-04-23T10:33:44.334Z</time></trkpt><trkpt lat="33.9355517" lon="8.423105"><ele>14.75</ele><time>2026-04-23T10:33:45.334Z</time></trkpt><trkpt lat="33.9354483" lon="8.4231633"><ele>15.0</ele><time>2026-04-23T10:33:46.334Z</time></trkpt><trkpt lat="33.9353467" lon="8.423225"><ele>15.0</ele><time>2026-04-23T10:33:47.335Z</time></trkpt><trkpt lat="33.9352417" lon="8.42328"><ele>15.0</ele><time>2026-04-23T10:33:48.335Z</time></trkpt><trkpt lat="33.935145" lon="8.4233367"><ele>15.0</ele><time>2026-04-23T10:33:49.335Z</time></trkpt><trkpt lat="33.9350467" lon="8.423395"><ele>15.0</ele><time>2026-04-23T10:33:50.334Z</time></trkpt><trkpt lat="33.9349417" lon="8.4234533"><ele>15.0</ele><time>2026-04-23T10:33:51.335Z</time></trkpt><trkpt lat="33.9348367" lon="8.4235117"><ele>14.0</ele><time>2026-04-23T10:33:52.335Z</time></trkpt><trkpt lat="33.9347333" lon="8.4235717"><ele>13.0</ele><time>2026-04-23T10:33:53.334Z</time></trkpt><trkpt lat="33.9346333" lon="8.4236367"><ele>12.0</ele><time>2026-04-23T10:33:54.335Z</time></trkpt><trkpt lat="33.9345317" lon="8.4237"><ele>11.0</ele><time>2026-04-23T10:33:55.334Z</time></trkpt><trkpt lat="33.934425" lon="8.42376"><ele>11.0</ele><time>2026-04-23T10:33:56.334Z</time></trkpt><trkpt lat="33.9343217" lon="8.4238233"><ele>11.0</ele><time>2026-04-23T10:33:57.335Z</time></trkpt><trkpt lat="33.93422" lon="8.4238817"><ele>11.0</ele><time>2026-04-23T10:33:58.335Z</time></trkpt><trkpt lat="33.9341183" lon="8.42394"><ele>11.0</ele><time>2026-04-23T10:33:59.335Z</time></trkpt><trkpt lat="33.9340167" lon="8.424"><ele>12.0</ele><time>2026-04-23T10:34:00.335Z</time></trkpt><trkpt lat="33.9339167" lon="8.4240517"><ele>13.0</ele><time>2026-04-23T10:34:01.329Z</time></trkpt><trkpt lat="33.93382" lon="8.4241017"><ele>14.000000000000002</ele><time>2026-04-23T10:34:02.334Z</time></trkpt><trkpt lat="33.9337183" lon="8.42416"><ele>15.0</ele><time>2026-04-23T10:34:03.334Z</time></trkpt><trkpt lat="33.9336183" lon="8.4242167"><ele>16.0</ele><time>2026-04-23T10:34:04.334Z</time></trkpt><trkpt lat="33.9335167" lon="8.4242783"><ele>16.0</ele><time>2026-04-23T10:34:05.335Z</time></trkpt><trkpt lat="33.93342" lon="8.424335"><ele>16.0</ele><time>2026-04-23T10:34:06.334Z</time></trkpt><trkpt lat="33.9333217" lon="8.4243933"><ele>16.0</ele><time>2026-04-23T10:34:07.334Z</time></trkpt><trkpt lat="33.9332267" lon="8.4244483"><ele>16.0</ele><time>2026-04-23T10:34:08.335Z</time></trkpt><trkpt lat="33.9331283" lon="8.4245033"><ele>16.0</ele><time>2026-04-23T10:34:09.334Z</time></trkpt><trkpt lat="33.9330333" lon="8.4245567"><ele>16.2</ele><time>2026-04-23T10:34:10.334Z</time></trkpt><trkpt lat="33.9329317" lon="8.42462"><ele>16.400000000000002</ele><time>2026-04-23T10:34:11.334Z</time></trkpt><trkpt lat="33.932835" lon="8.424675"><ele>16.6</ele><time>2026-04-23T10:34:12.334Z</time></trkpt><trkpt lat="33.932735" lon="8.4247267"><ele>16.8</ele><time>2026-04-23T10:34:13.334Z</time></trkpt><trkpt lat="33.9326433" lon="8.424775"><ele>17.0</ele><time>2026-04-23T10:34:14.335Z</time></trkpt><trkpt lat="33.9325533" lon="8.4248217"><ele>16.666666666666668</ele><time>2026-04-23T10:34:15.334Z</time></trkpt><trkpt lat="33.9324667" lon="8.4248733"><ele>16.333333333333336</ele><time>2026-04-23T10:34:16.334Z</time></trkpt><trkpt lat="33.9323817" lon="8.4249167"><ele>16.0</ele><time>2026-04-23T10:34:17.335Z</time></trkpt><trkpt lat="33.93231" lon="8.42495"><ele>15.666666666666668</ele><time>2026-04-23T10:34:18.335Z</time></trkpt><trkpt lat="33.9322483" lon="8.424975"><ele>15.333333333333334</ele><time>2026-04-23T10:34:19.334Z</time></trkpt><trkpt lat="33.9321417" lon="8.4249983"><ele>15.0</ele><time>2026-04-23T10:34:21.334Z</time></trkpt><trkpt lat="33.93206" lon="8.4249917"><ele>15.0</ele><time>2026-04-23T10:34:23.335Z</time></trkpt><trkpt lat="33.9319817" lon="8.4249467"><ele>15.0</ele><time>2026-04-23T10:34:25.334Z</time></trkpt><trkpt lat="33.9319" lon="8.4248767"><ele>15.0</ele><time>2026-04-23T10:34:27.335Z</time></trkpt><trkpt lat="33.931825" lon="8.4247717"><ele>15.0</ele><time>2026-04-23T10:34:29.334Z</time></trkpt><trkpt lat="33.93175" lon="8.4246683"><ele>15.0</ele><time>2026-04-23T10:34:31.334Z</time></trkpt><trkpt lat="33.9317033" lon="8.4246133"><ele>15.0</ele><time>2026-04-23T10:34:32.335Z</time></trkpt><trkpt lat="33.9316083" lon="8.4245167"><ele>15.0</ele><time>2026-04-23T10:34:34.335Z</time></trkpt><trkpt lat="33.9315583" lon="8.424465"><ele>15.0</ele><time>2026-04-23T10:34:35.335Z</time></trkpt><trkpt lat="33.9315067" lon="8.4244083"><ele>15.0</ele><time>2026-04-23T10:34:36.335Z</time></trkpt><trkpt lat="33.9314517" lon="8.42435"><ele>15.0</ele><time>2026-04-23T10:34:37.335Z</time></trkpt><trkpt lat="33.9313983" lon="8.42429"><ele>15.0</ele><time>2026-04-23T10:34:38.334Z</time></trkpt><trkpt lat="33.9313433" lon="8.424235"><ele>15.0</ele><time>2026-04-23T10:34:39.335Z</time></trkpt><trkpt lat="33.9312817" lon="8.42418"><ele>15.0</ele><time>2026-04-23T10:34:40.334Z</time></trkpt><trkpt lat="33.931225" lon="8.424125"><ele>15.0</ele><time>2026-04-23T10:34:41.334Z</time></trkpt><trkpt lat="33.9311733" lon="8.4240667"><ele>15.0</ele><time>2026-04-23T10:34:42.334Z</time></trkpt><trkpt lat="33.9311217" lon="8.4240067"><ele>15.0</ele><time>2026-04-23T10:34:43.333Z</time></trkpt><trkpt lat="33.931075" lon="8.4239533"><ele>15.0</ele><time>2026-04-23T10:34:44.333Z</time></trkpt><trkpt lat="33.9309867" lon="8.4238517"><ele>15.0</ele><time>2026-04-23T10:34:46.334Z</time></trkpt><trkpt lat="33.9308917" lon="8.4237567"><ele>15.0</ele><time>2026-04-23T10:34:48.333Z</time></trkpt><trkpt lat="33.9308017" lon="8.423655"><ele>15.0</ele><time>2026-04-23T10:34:50.334Z</time></trkpt><trkpt lat="33.93075" lon="8.4236017"><ele>15.0</ele><time>2026-04-23T10:34:51.333Z</time></trkpt><trkpt lat="33.9306967" lon="8.4235467"><ele>15.0</ele><time>2026-04-23T10:34:52.334Z</time></trkpt><trkpt lat="33.93064" lon="8.4234933"><ele>15.0</ele><time>2026-04-23T10:34:53.333Z</time></trkpt><trkpt lat="33.9305883" lon="8.423435"><ele>15.0</ele><time>2026-04-23T10:34:54.333Z</time></trkpt><trkpt lat="33.9305367" lon="8.423375"><ele>15.0</ele><time>2026-04-23T10:34:55.334Z</time></trkpt><trkpt lat="33.9304833" lon="8.423315"><ele>15.0</ele><time>2026-04-23T10:34:56.333Z</time></trkpt><trkpt lat="33.9304333" lon="8.4232567"><ele>15.0</ele><time>2026-04-23T10:34:57.334Z</time></trkpt><trkpt lat="33.9303767" lon="8.423195"><ele>15.0</ele><time>2026-04-23T10:34:58.333Z</time></trkpt><trkpt lat="33.9303167" lon="8.4231367"><ele>15.0</ele><time>2026-04-23T10:34:59.333Z</time></trkpt><trkpt lat="33.9302583" lon="8.4230783"><ele>15.0</ele><time>2026-04-23T10:35:00.333Z</time></trkpt><trkpt lat="33.9301983" lon="8.42302"><ele>15.0</ele><time>2026-04-23T10:35:01.333Z</time></trkpt><trkpt lat="33.930135" lon="8.422965"><ele>15.0</ele><time>2026-04-23T10:35:02.333Z</time></trkpt><trkpt lat="33.93007" lon="8.4229083"><ele>15.0</ele><time>2026-04-23T10:35:03.334Z</time></trkpt><trkpt lat="33.9300067" lon="8.4228517"><ele>15.0</ele><time>2026-04-23T10:35:04.333Z</time></trkpt><trkpt lat="33.92994" lon="8.422795"><ele>15.0</ele><time>2026-04-23T10:35:05.334Z</time></trkpt><trkpt lat="33.9298717" lon="8.4227333"><ele>15.0</ele><time>2026-04-23T10:35:06.333Z</time></trkpt><trkpt lat="33.929805" lon="8.4226667"><ele>15.0</ele><time>2026-04-23T10:35:07.333Z</time></trkpt><trkpt lat="33.9297383" lon="8.4226083"><ele>15.0</ele><time>2026-04-23T10:35:08.333Z</time></trkpt><trkpt lat="33.9296683" lon="8.4225467"><ele>15.0</ele><time>2026-04-23T10:35:09.333Z</time></trkpt><trkpt lat="33.929595" lon="8.422485"><ele>15.0</ele><time>2026-04-23T10:35:10.334Z</time></trkpt><trkpt lat="33.9295317" lon="8.422425"><ele>15.0</ele><time>2026-04-23T10:35:11.333Z</time></trkpt><trkpt lat="33.9294667" lon="8.422365"><ele>15.0</ele><time>2026-04-23T10:35:12.333Z</time></trkpt><trkpt lat="33.9294" lon="8.4223017"><ele>15.0</ele><time>2026-04-23T10:35:13.333Z</time></trkpt><trkpt lat="33.9293317" lon="8.42224"><ele>15.0</ele><time>2026-04-23T10:35:14.333Z</time></trkpt><trkpt lat="33.9292667" lon="8.42218"><ele>15.0</ele><time>2026-04-23T10:35:15.334Z</time></trkpt><trkpt lat="33.929205" lon="8.42212"><ele>15.0</ele><time>2026-04-23T10:35:16.333Z</time></trkpt><trkpt lat="33.9291417" lon="8.4220617"><ele>15.0</ele><time>2026-04-23T10:35:17.333Z</time></trkpt><trkpt lat="33.9290783" lon="8.4220017"><ele>14.666666666666666</ele><time>2026-04-23T10:35:18.334Z</time></trkpt><trkpt lat="33.929015" lon="8.421945"><ele>14.333333333333332</ele><time>2026-04-23T10:35:19.333Z</time></trkpt><trkpt lat="33.928955" lon="8.4218867"><ele>14.0</ele><time>2026-04-23T10:35:20.333Z</time></trkpt><trkpt lat="33.9288917" lon="8.421825"><ele>13.666666666666666</ele><time>2026-04-23T10:35:21.334Z</time></trkpt><trkpt lat="33.9288267" lon="8.4217617"><ele>13.333333333333332</ele><time>2026-04-23T10:35:22.333Z</time></trkpt><trkpt lat="33.9287633" lon="8.4216983"><ele>13.0</ele><time>2026-04-23T10:35:23.334Z</time></trkpt><trkpt lat="33.9287017" lon="8.4216317"><ele>12.999999999999998</ele><time>2026-04-23T10:35:24.334Z</time></trkpt><trkpt lat="33.9286383" lon="8.4215667"><ele>13.0</ele><time>2026-04-23T10:35:25.333Z</time></trkpt><trkpt lat="33.9285767" lon="8.4215017"><ele>13.0</ele><time>2026-04-23T10:35:26.334Z</time></trkpt><trkpt lat="33.928505" lon="8.4214433"><ele>13.0</ele><time>2026-04-23T10:35:27.333Z</time></trkpt><trkpt lat="33.92844" lon="8.4213783"><ele>12.999999999999998</ele><time>2026-04-23T10:35:28.334Z</time></trkpt><trkpt lat="33.928375" lon="8.421315"><ele>13.0</ele><time>2026-04-23T10:35:29.333Z</time></trkpt><trkpt lat="33.9283117" lon="8.4212483"><ele>13.499999999999998</ele><time>2026-04-23T10:35:30.333Z</time></trkpt><trkpt lat="33.92825" lon="8.421185"><ele>14.0</ele><time>2026-04-23T10:35:31.333Z</time></trkpt><trkpt lat="33.92819" lon="8.42112"><ele>14.5</ele><time>2026-04-23T10:35:32.334Z</time></trkpt><trkpt lat="33.9281317" lon="8.42106"><ele>15.0</ele><time>2026-04-23T10:35:33.333Z</time></trkpt><trkpt lat="33.9280717" lon="8.4209967"><ele>15.499999999999998</ele><time>2026-04-23T10:35:34.333Z</time></trkpt><trkpt lat="33.9280167" lon="8.42094"><ele>16.0</ele><time>2026-04-23T10:35:35.333Z</time></trkpt><trkpt lat="33.9279617" lon="8.42089"><ele>15.999999999999998</ele><time>2026-04-23T10:35:36.334Z</time></trkpt><trkpt lat="33.9278683" lon="8.4208267"><ele>16.0</ele><time>2026-04-23T10:35:38.334Z</time></trkpt><trkpt lat="33.9277933" lon="8.4207917"><ele>16.0</ele><time>2026-04-23T10:35:40.334Z</time></trkpt><trkpt lat="33.927725" lon="8.420745"><ele>16.0</ele><time>2026-04-23T10:35:43.334Z</time></trkpt><trkpt lat="33.9276633" lon="8.4207667"><ele>15.999999999999998</ele><time>2026-04-23T10:41:45.332Z</time></trkpt><trkpt lat="33.9277033" lon="8.4208733"><ele>16.0</ele><time>2026-04-23T10:41:48.332Z</time></trkpt><trkpt lat="33.9277767" lon="8.420925"><ele>16.0</ele><time>2026-04-23T10:41:50.332Z</time></trkpt><trkpt lat="33.92786" lon="8.420955"><ele>16.0</ele><time>2026-04-23T10:41:52.331Z</time></trkpt><trkpt lat="33.9279667" lon="8.4209833"><ele>16.0</ele><time>2026-04-23T10:41:54.331Z</time></trkpt><trkpt lat="33.92803" lon="8.421"><ele>16.0</ele><time>2026-04-23T10:41:55.331Z</time></trkpt><trkpt lat="33.9281533" lon="8.421035"><ele>16.0</ele><time>2026-04-23T10:41:57.331Z</time></trkpt><trkpt lat="33.928215" lon="8.4210583"><ele>16.0</ele><time>2026-04-23T10:41:58.331Z</time></trkpt><trkpt lat="33.9282767" lon="8.421085"><ele>15.999999999999998</ele><time>2026-04-23T10:41:59.331Z</time></trkpt><trkpt lat="33.9283367" lon="8.42111"><ele>16.0</ele><time>2026-04-23T10:42:00.331Z</time></trkpt><trkpt lat="33.9284033" lon="8.42113"><ele>16.0</ele><time>2026-04-23T10:42:01.331Z</time></trkpt><trkpt lat="33.92847" lon="8.4211433"><ele>15.999999999999998</ele><time>2026-04-23T10:42:02.331Z</time></trkpt><trkpt lat="33.9285367" lon="8.4211567"><ele>16.0</ele><time>2026-04-23T10:42:03.331Z</time></trkpt><trkpt lat="33.9286" lon="8.4211717"><ele>16.0</ele><time>2026-04-23T10:42:04.331Z</time></trkpt><trkpt lat="33.92872" lon="8.4212017"><ele>15.999999999999998</ele><time>2026-04-23T10:42:06.332Z</time></trkpt><trkpt lat="33.9288433" lon="8.42123"><ele>16.0</ele><time>2026-04-23T10:42:08.331Z</time></trkpt><trkpt lat="33.9289083" lon="8.42124"><ele>16.0</ele><time>2026-04-23T10:42:09.332Z</time></trkpt><trkpt lat="33.9289767" lon="8.421245"><ele>16.0</ele><time>2026-04-23T10:42:10.332Z</time></trkpt><trkpt lat="33.929045" lon="8.4212467"><ele>15.999999999999998</ele><time>2026-04-23T10:42:11.331Z</time></trkpt><trkpt lat="33.9291117" lon="8.4212483"><ele>16.0</ele><time>2026-04-23T10:42:12.331Z</time></trkpt><trkpt lat="33.9291783" lon="8.4212533"><ele>15.857142857142856</ele><time>2026-04-23T10:42:13.332Z</time></trkpt><trkpt lat="33.9292483" lon="8.4212517"><ele>15.714285714285712</ele><time>2026-04-23T10:42:14.331Z</time></trkpt><trkpt lat="33.92932" lon="8.4212517"><ele>15.571428571428571</ele><time>2026-04-23T10:42:15.331Z</time></trkpt><trkpt lat="33.9293933" lon="8.42125"><ele>15.428571428571427</ele><time>2026-04-23T10:42:16.331Z</time></trkpt><trkpt lat="33.9294633" lon="8.42125"><ele>15.285714285714285</ele><time>2026-04-23T10:42:17.331Z</time></trkpt><trkpt lat="33.9295317" lon="8.4212483"><ele>15.142857142857142</ele><time>2026-04-23T10:42:18.331Z</time></trkpt><trkpt lat="33.9295967" lon="8.4212417"><ele>15.0</ele><time>2026-04-23T10:42:19.331Z</time></trkpt><trkpt lat="33.929665" lon="8.4212417"><ele>15.0</ele><time>2026-04-23T10:42:20.331Z</time></trkpt><trkpt lat="33.9297333" lon="8.4212417"><ele>15.0</ele><time>2026-04-23T10:42:21.332Z</time></trkpt><trkpt lat="33.9298033" lon="8.4212433"><ele>15.0</ele><time>2026-04-23T10:42:22.331Z</time></trkpt><trkpt lat="33.9298733" lon="8.4212417"><ele>15.0</ele><time>2026-04-23T10:42:23.331Z</time></trkpt><trkpt lat="33.9299467" lon="8.4212367"><ele>15.0</ele><time>2026-04-23T10:42:24.332Z</time></trkpt><trkpt lat="33.9300183" lon="8.42123"><ele>15.0</ele><time>2026-04-23T10:42:25.332Z</time></trkpt><trkpt lat="33.9300933" lon="8.42122"><ele>15.0</ele><time>2026-04-23T10:42:26.331Z</time></trkpt><trkpt lat="33.9301583" lon="8.4212167"><ele>14.857142857142858</ele><time>2026-04-23T10:42:27.331Z</time></trkpt><trkpt lat="33.93023" lon="8.4212117"><ele>14.714285714285714</ele><time>2026-04-23T10:42:28.332Z</time></trkpt><trkpt lat="33.9303017" lon="8.4212083"><ele>14.571428571428571</ele><time>2026-04-23T10:42:29.332Z</time></trkpt><trkpt lat="33.9303717" lon="8.4212033"><ele>14.428571428571429</ele><time>2026-04-23T10:42:30.332Z</time></trkpt><trkpt lat="33.9304433" lon="8.4211983"><ele>14.285714285714285</ele><time>2026-04-23T10:42:31.332Z</time></trkpt><trkpt lat="33.9305183" lon="8.4211883"><ele>14.142857142857142</ele><time>2026-04-23T10:42:32.331Z</time></trkpt><trkpt lat="33.9305917" lon="8.4211767"><ele>14.0</ele><time>2026-04-23T10:42:33.332Z</time></trkpt><trkpt lat="33.9306683" lon="8.4211667"><ele>14.000000000000002</ele><time>2026-04-23T10:42:34.331Z</time></trkpt><trkpt lat="33.930745" lon="8.42115"><ele>14.0</ele><time>2026-04-23T10:42:35.332Z</time></trkpt><trkpt lat="33.9308217" lon="8.421135"><ele>14.0</ele><time>2026-04-23T10:42:36.332Z</time></trkpt><trkpt lat="33.9308983" lon="8.4211233"><ele>14.0</ele><time>2026-04-23T10:42:37.332Z</time></trkpt><trkpt lat="33.930975" lon="8.4211167"><ele>14.000000000000002</ele><time>2026-04-23T10:42:38.331Z</time></trkpt><trkpt lat="33.9310517" lon="8.4211067"><ele>14.0</ele><time>2026-04-23T10:42:39.331Z</time></trkpt><trkpt lat="33.9311317" lon="8.4211017"><ele>14.399999999999999</ele><time>2026-04-23T10:42:40.331Z</time></trkpt><trkpt lat="33.9312167" lon="8.42109"><ele>14.799999999999999</ele><time>2026-04-23T10:42:41.331Z</time></trkpt><trkpt lat="33.9313067" lon="8.4210783"><ele>15.200000000000001</ele><time>2026-04-23T10:42:42.331Z</time></trkpt><trkpt lat="33.9313967" lon="8.4210633"><ele>15.600000000000001</ele><time>2026-04-23T10:42:43.332Z</time></trkpt><trkpt lat="33.9314883" lon="8.4210517"><ele>16.0</ele><time>2026-04-23T10:42:44.331Z</time></trkpt><trkpt lat="33.93158" lon="8.42104"><ele>15.999999999999998</ele><time>2026-04-23T10:42:45.331Z</time></trkpt><trkpt lat="33.9316667" lon="8.421035"><ele>16.0</ele><time>2026-04-23T10:42:46.331Z</time></trkpt><trkpt lat="33.931755" lon="8.4210233"><ele>16.0</ele><time>2026-04-23T10:42:47.332Z</time></trkpt><trkpt lat="33.931845" lon="8.4210133"><ele>16.0</ele><time>2026-04-23T10:42:48.332Z</time></trkpt><trkpt lat="33.9319317" lon="8.421005"><ele>15.999999999999998</ele><time>2026-04-23T10:42:49.332Z</time></trkpt><trkpt lat="33.93202" lon="8.4209917"><ele>16.0</ele><time>2026-04-23T10:42:50.331Z</time></trkpt><trkpt lat="33.93211" lon="8.4209783"><ele>15.833333333333332</ele><time>2026-04-23T10:42:51.332Z</time></trkpt><trkpt lat="33.932195" lon="8.420965"><ele>15.666666666666666</ele><time>2026-04-23T10:42:52.332Z</time></trkpt><trkpt lat="33.9322833" lon="8.420945"><ele>15.5</ele><time>2026-04-23T10:42:53.332Z</time></trkpt><trkpt lat="33.9323717" lon="8.4209267"><ele>15.333333333333332</ele><time>2026-04-23T10:42:54.332Z</time></trkpt><trkpt lat="33.9324583" lon="8.42091"><ele>15.166666666666666</ele><time>2026-04-23T10:42:55.331Z</time></trkpt><trkpt lat="33.9325483" lon="8.420895"><ele>15.0</ele><time>2026-04-23T10:42:56.331Z</time></trkpt><trkpt lat="33.9326333" lon="8.4208767"><ele>15.0</ele><time>2026-04-23T10:42:57.331Z</time></trkpt><trkpt lat="33.9327167" lon="8.4208617"><ele>15.0</ele><time>2026-04-23T10:42:58.331Z</time></trkpt><trkpt lat="33.9328" lon="8.4208467"><ele>15.0</ele><time>2026-04-23T10:42:59.332Z</time></trkpt><trkpt lat="33.932885" lon="8.420835"><ele>15.0</ele><time>2026-04-23T10:43:00.331Z</time></trkpt><trkpt lat="33.93297" lon="8.42082"><ele>15.0</ele><time>2026-04-23T10:43:01.332Z</time></trkpt><trkpt lat="33.9330517" lon="8.42081"><ele>15.0</ele><time>2026-04-23T10:43:02.331Z</time></trkpt><trkpt lat="33.9331383" lon="8.420795"><ele>15.0</ele><time>2026-04-23T10:43:03.331Z</time></trkpt><trkpt lat="33.9332183" lon="8.4207817"><ele>15.0</ele><time>2026-04-23T10:43:04.331Z</time></trkpt><trkpt lat="33.9332983" lon="8.4207717"><ele>15.0</ele><time>2026-04-23T10:43:05.331Z</time></trkpt><trkpt lat="33.9333783" lon="8.4207583"><ele>15.0</ele><time>2026-04-23T10:43:06.331Z</time></trkpt><trkpt lat="33.9334617" lon="8.4207433"><ele>15.0</ele><time>2026-04-23T10:43:07.332Z</time></trkpt><trkpt lat="33.9335417" lon="8.4207333"><ele>15.0</ele><time>2026-04-23T10:43:08.331Z</time></trkpt><trkpt lat="33.9336217" lon="8.4207267"><ele>14.833333333333334</ele><time>2026-04-23T10:43:09.332Z</time></trkpt><trkpt lat="33.933705" lon="8.4207117"><ele>14.666666666666668</ele><time>2026-04-23T10:43:10.331Z</time></trkpt><trkpt lat="33.9337867" lon="8.4207017"><ele>14.5</ele><time>2026-04-23T10:43:11.332Z</time></trkpt><trkpt lat="33.93387" lon="8.4206967"><ele>14.333333333333334</ele><time>2026-04-23T10:43:12.332Z</time></trkpt><trkpt lat="33.9339533" lon="8.4206867"><ele>14.166666666666668</ele><time>2026-04-23T10:43:13.331Z</time></trkpt><trkpt lat="33.9340367" lon="8.4206767"><ele>14.0</ele><time>2026-04-23T10:43:14.332Z</time></trkpt><trkpt lat="33.9341183" lon="8.42067"><ele>14.000000000000002</ele><time>2026-04-23T10:43:15.331Z</time></trkpt><trkpt lat="33.9342017" lon="8.4206567"><ele>14.0</ele><time>2026-04-23T10:43:16.331Z</time></trkpt><trkpt lat="33.9342833" lon="8.4206467"><ele>14.0</ele><time>2026-04-23T10:43:17.332Z</time></trkpt><trkpt lat="33.9343683" lon="8.4206367"><ele>14.0</ele><time>2026-04-23T10:43:18.331Z</time></trkpt><trkpt lat="33.9344567" lon="8.420625"><ele>14.000000000000002</ele><time>2026-04-23T10:43:19.332Z</time></trkpt><trkpt lat="33.9345433" lon="8.4206117"><ele>14.0</ele><time>2026-04-23T10:43:20.332Z</time></trkpt><trkpt lat="33.9346217" lon="8.4206"><ele>14.000000000000002</ele><time>2026-04-23T10:43:21.332Z</time></trkpt><trkpt lat="33.9347067" lon="8.4205833"><ele>14.0</ele><time>2026-04-23T10:43:22.332Z</time></trkpt><trkpt lat="33.9347867" lon="8.42057"><ele>14.0</ele><time>2026-04-23T10:43:23.331Z</time></trkpt><trkpt lat="33.934865" lon="8.42055"><ele>14.0</ele><time>2026-04-23T10:43:24.332Z</time></trkpt><trkpt lat="33.9349467" lon="8.420525"><ele>14.000000000000002</ele><time>2026-04-23T10:43:25.331Z</time></trkpt><trkpt lat="33.935015" lon="8.42051"><ele>14.0</ele><time>2026-04-23T10:43:26.331Z</time></trkpt><trkpt lat="33.9351317" lon="8.4204883"><ele>14.000000000000002</ele><time>2026-04-23T10:43:28.332Z</time></trkpt><trkpt lat="33.9352483" lon="8.4204517"><ele>14.0</ele><time>2026-04-23T10:43:30.331Z</time></trkpt><trkpt lat="33.9353133" lon="8.420435"><ele>14.0</ele><time>2026-04-23T10:43:31.332Z</time></trkpt><trkpt lat="33.9353817" lon="8.4204067"><ele>14.0</ele><time>2026-04-23T10:43:32.331Z</time></trkpt><trkpt lat="33.9354517" lon="8.4203783"><ele>14.000000000000002</ele><time>2026-04-23T10:43:33.332Z</time></trkpt><trkpt lat="33.935525" lon="8.4203467"><ele>14.0</ele><time>2026-04-23T10:43:34.331Z</time></trkpt><trkpt lat="33.9355983" lon="8.4203183"><ele>14.000000000000002</ele><time>2026-04-23T10:43:35.331Z</time></trkpt><trkpt lat="33.9356733" lon="8.4202917"><ele>14.0</ele><time>2026-04-23T10:43:36.332Z</time></trkpt><trkpt lat="33.9357567" lon="8.420265"><ele>14.0</ele><time>2026-04-23T10:43:37.331Z</time></trkpt><trkpt lat="33.93584" lon="8.4202433"><ele>14.0</ele><time>2026-04-23T10:43:38.331Z</time></trkpt><trkpt lat="33.9359233" lon="8.4202217"><ele>14.000000000000002</ele><time>2026-04-23T10:43:39.332Z</time></trkpt><trkpt lat="33.9360117" lon="8.4201933"><ele>14.0</ele><time>2026-04-23T10:43:40.332Z</time></trkpt><trkpt lat="33.9361" lon="8.4201683"><ele>14.2</ele><time>2026-04-23T10:43:41.331Z</time></trkpt><trkpt lat="33.936185" lon="8.4201533"><ele>14.399999999999999</ele><time>2026-04-23T10:43:42.332Z</time></trkpt><trkpt lat="33.9362783" lon="8.4201333"><ele>14.6</ele><time>2026-04-23T10:43:43.331Z</time></trkpt><trkpt lat="33.9363733" lon="8.420115"><ele>14.8</ele><time>2026-04-23T10:43:44.332Z</time></trkpt><trkpt lat="33.9364667" lon="8.4201033"><ele>15.0</ele><time>2026-04-23T10:43:45.331Z</time></trkpt><trkpt lat="33.9365583" lon="8.4200933"><ele>15.0</ele><time>2026-04-23T10:43:46.331Z</time></trkpt><trkpt lat="33.936655" lon="8.4200817"><ele>15.0</ele><time>2026-04-23T10:43:47.331Z</time></trkpt><trkpt lat="33.9367533" lon="8.420065"><ele>15.0</ele><time>2026-04-23T10:43:48.331Z</time></trkpt><trkpt lat="33.9368517" lon="8.4200467"><ele>15.0</ele><time>2026-04-23T10:43:49.331Z</time></trkpt><trkpt lat="33.9369467" lon="8.42003"><ele>15.0</ele><time>2026-04-23T10:43:50.331Z</time></trkpt><trkpt lat="33.93704" lon="8.4200167"><ele>15.0</ele><time>2026-04-23T10:43:51.332Z</time></trkpt><trkpt lat="33.9371317" lon="8.4200067"><ele>15.0</ele><time>2026-04-23T10:43:52.332Z</time></trkpt><trkpt lat="33.9372217" lon="8.4199917"><ele>15.0</ele><time>2026-04-23T10:43:53.332Z</time></trkpt><trkpt lat="33.93731" lon="8.4199783"><ele>15.0</ele><time>2026-04-23T10:43:54.332Z</time></trkpt><trkpt lat="33.9373967" lon="8.419965"><ele>15.0</ele><time>2026-04-23T10:43:55.332Z</time></trkpt><trkpt lat="33.9374883" lon="8.41995"><ele>14.8</ele><time>2026-04-23T10:43:56.332Z</time></trkpt><trkpt lat="33.9375767" lon="8.4199383"><ele>14.6</ele><time>2026-04-23T10:43:57.332Z</time></trkpt><trkpt lat="33.9376667" lon="8.4199317"><ele>14.399999999999999</ele><time>2026-04-23T10:43:58.331Z</time></trkpt><trkpt lat="33.93776" lon="8.4199233"><ele>14.2</ele><time>2026-04-23T10:43:59.332Z</time></trkpt><trkpt lat="33.9378533" lon="8.4199117"><ele>14.0</ele><time>2026-04-23T10:44:00.332Z</time></trkpt><trkpt lat="33.9379533" lon="8.4198983"><ele>14.0</ele><time>2026-04-23T10:44:01.331Z</time></trkpt><trkpt lat="33.9380567" lon="8.4198867"><ele>13.999999999999998</ele><time>2026-04-23T10:44:02.332Z</time></trkpt><trkpt lat="33.93816" lon="8.41987"><ele>13.999999999999998</ele><time>2026-04-23T10:44:03.331Z</time></trkpt><trkpt lat="33.9382633" lon="8.4198533"><ele>14.0</ele><time>2026-04-23T10:44:04.331Z</time></trkpt><trkpt lat="33.9383633" lon="8.4198333"><ele>14.0</ele><time>2026-04-23T10:44:05.332Z</time></trkpt><trkpt lat="33.9384667" lon="8.4198183"><ele>14.2</ele><time>2026-04-23T10:44:06.331Z</time></trkpt><trkpt lat="33.9385717" lon="8.4198"><ele>14.399999999999999</ele><time>2026-04-23T10:44:07.332Z</time></trkpt><trkpt lat="33.9386783" lon="8.4197817"><ele>14.6</ele><time>2026-04-23T10:44:08.332Z</time></trkpt><trkpt lat="33.9387817" lon="8.4197667"><ele>14.8</ele><time>2026-04-23T10:44:09.332Z</time></trkpt><trkpt lat="33.9388883" lon="8.419755"><ele>15.0</ele><time>2026-04-23T10:44:10.332Z</time></trkpt><trkpt lat="33.938995" lon="8.41974"><ele>15.0</ele><time>2026-04-23T10:44:11.331Z</time></trkpt><trkpt lat="33.939105" lon="8.419725"><ele>15.0</ele><time>2026-04-23T10:44:12.332Z</time></trkpt><trkpt lat="33.9392167" lon="8.4197117"><ele>15.0</ele><time>2026-04-23T10:44:13.332Z</time></trkpt><trkpt lat="33.9393333" lon="8.419695"><ele>15.0</ele><time>2026-04-23T10:44:14.332Z</time></trkpt><trkpt lat="33.93945" lon="8.41968"><ele>14.75</ele><time>2026-04-23T10:44:15.332Z</time></trkpt><trkpt lat="33.9395717" lon="8.41966"><ele>14.5</ele><time>2026-04-23T10:44:16.332Z</time></trkpt><trkpt lat="33.9396967" lon="8.4196367"><ele>14.25</ele><time>2026-04-23T10:44:17.332Z</time></trkpt><trkpt lat="33.9398233" lon="8.419615"><ele>14.0</ele><time>2026-04-23T10:44:18.332Z</time></trkpt><trkpt lat="33.9399367" lon="8.4195967"><ele>14.2</ele><time>2026-04-23T10:44:19.332Z</time></trkpt><trkpt lat="33.9400517" lon="8.41958"><ele>14.399999999999999</ele><time>2026-04-23T10:44:20.331Z</time></trkpt><trkpt lat="33.9401617" lon="8.4195683"><ele>14.6</ele><time>2026-04-23T10:44:21.331Z</time></trkpt><trkpt lat="33.9402683" lon="8.4195583"><ele>14.8</ele><time>2026-04-23T10:44:22.331Z</time></trkpt><trkpt lat="33.9403767" lon="8.419545"><ele>15.0</ele><time>2026-04-23T10:44:23.331Z</time></trkpt><trkpt lat="33.940485" lon="8.4195367"><ele>15.0</ele><time>2026-04-23T10:44:24.332Z</time></trkpt><trkpt lat="33.94059" lon="8.419525"><ele>15.0</ele><time>2026-04-23T10:44:25.332Z</time></trkpt><trkpt lat="33.9406967" lon="8.4195133"><ele>15.0</ele><time>2026-04-23T10:44:26.332Z</time></trkpt><trkpt lat="33.9408017" lon="8.4195033"><ele>15.0</ele><time>2026-04-23T10:44:27.331Z</time></trkpt><trkpt lat="33.940905" lon="8.419495"><ele>15.0</ele><time>2026-04-23T10:44:28.332Z</time></trkpt><trkpt lat="33.94101" lon="8.4194833"><ele>15.0</ele><time>2026-04-23T10:44:29.331Z</time></trkpt><trkpt lat="33.9411133" lon="8.4194717"><ele>15.0</ele><time>2026-04-23T10:44:30.332Z</time></trkpt><trkpt lat="33.9412183" lon="8.4194617"><ele>15.0</ele><time>2026-04-23T10:44:31.332Z</time></trkpt><trkpt lat="33.9413217" lon="8.4194467"><ele>15.0</ele><time>2026-04-23T10:44:32.332Z</time></trkpt><trkpt lat="33.9414283" lon="8.4194267"><ele>15.0</ele><time>2026-04-23T10:44:33.33Z</time></trkpt><trkpt lat="33.9415333" lon="8.4194167"><ele>15.0</ele><time>2026-04-23T10:44:34.33Z</time></trkpt><trkpt lat="33.9416367" lon="8.4194017"><ele>15.0</ele><time>2026-04-23T10:44:35.33Z</time></trkpt><trkpt lat="33.94174" lon="8.419385"><ele>15.0</ele><time>2026-04-23T10:44:36.331Z</time></trkpt><trkpt lat="33.9418483" lon="8.4193617"><ele>15.0</ele><time>2026-04-23T10:44:37.331Z</time></trkpt><trkpt lat="33.94195" lon="8.419345"><ele>15.0</ele><time>2026-04-23T10:44:38.33Z</time></trkpt><trkpt lat="33.9420517" lon="8.4193267"><ele>15.0</ele><time>2026-04-23T10:44:39.33Z</time></trkpt><trkpt lat="33.942155" lon="8.4192983"><ele>15.0</ele><time>2026-04-23T10:44:40.33Z</time></trkpt><trkpt lat="33.9422617" lon="8.419265"><ele>15.0</ele><time>2026-04-23T10:44:41.331Z</time></trkpt><trkpt lat="33.942365" lon="8.41923"><ele>15.0</ele><time>2026-04-23T10:44:42.331Z</time></trkpt><trkpt lat="33.9424717" lon="8.4191933"><ele>15.0</ele><time>2026-04-23T10:44:43.331Z</time></trkpt><trkpt lat="33.9425733" lon="8.4191583"><ele>14.8</ele><time>2026-04-23T10:44:44.33Z</time></trkpt><trkpt lat="33.94267" lon="8.419125"><ele>14.6</ele><time>2026-04-23T10:44:45.331Z</time></trkpt><trkpt lat="33.9427583" lon="8.4190917"><ele>14.399999999999999</ele><time>2026-04-23T10:44:46.33Z</time></trkpt><trkpt lat="33.9428483" lon="8.4190583"><ele>14.2</ele><time>2026-04-23T10:44:47.33Z</time></trkpt><trkpt lat="33.9429417" lon="8.41902"><ele>14.0</ele><time>2026-04-23T10:44:48.331Z</time></trkpt><trkpt lat="33.94304" lon="8.4189817"><ele>14.0</ele><time>2026-04-23T10:44:49.331Z</time></trkpt><trkpt lat="33.9431383" lon="8.4189433"><ele>13.999999999999998</ele><time>2026-04-23T10:44:50.331Z</time></trkpt><trkpt lat="33.9432417" lon="8.4189067"><ele>13.999999999999998</ele><time>2026-04-23T10:44:51.33Z</time></trkpt><trkpt lat="33.9433517" lon="8.418875"><ele>14.0</ele><time>2026-04-23T10:44:52.331Z</time></trkpt><trkpt lat="33.94347" lon="8.4188367"><ele>14.0</ele><time>2026-04-23T10:44:53.33Z</time></trkpt><trkpt lat="33.9435883" lon="8.4187967"><ele>14.25</ele><time>2026-04-23T10:44:54.331Z</time></trkpt><trkpt lat="33.94372" lon="8.418755"><ele>14.5</ele><time>2026-04-23T10:44:55.33Z</time></trkpt><trkpt lat="33.9438517" lon="8.418715"><ele>14.75</ele><time>2026-04-23T10:44:56.33Z</time></trkpt><trkpt lat="33.9439833" lon="8.4186733"><ele>15.0</ele><time>2026-04-23T10:44:57.331Z</time></trkpt><trkpt lat="33.9441217" lon="8.418625"><ele>14.75</ele><time>2026-04-23T10:44:58.33Z</time></trkpt><trkpt lat="33.94426" lon="8.418575"><ele>14.5</ele><time>2026-04-23T10:44:59.33Z</time></trkpt><trkpt lat="33.9443983" lon="8.4185267"><ele>14.25</ele><time>2026-04-23T10:45:00.33Z</time></trkpt><trkpt lat="33.9445433" lon="8.41848"><ele>14.0</ele><time>2026-04-23T10:45:01.33Z</time></trkpt><trkpt lat="33.9446883" lon="8.4184333"><ele>14.0</ele><time>2026-04-23T10:45:02.331Z</time></trkpt><trkpt lat="33.944835" lon="8.418385"><ele>14.0</ele><time>2026-04-23T10:45:03.33Z</time></trkpt><trkpt lat="33.9449883" lon="8.4183333"><ele>14.0</ele><time>2026-04-23T10:45:04.33Z</time></trkpt><trkpt lat="33.9451383" lon="8.4182867"><ele>13.333333333333334</ele><time>2026-04-23T10:45:05.33Z</time></trkpt><trkpt lat="33.94529" lon="8.41824"><ele>12.666666666666668</ele><time>2026-04-23T10:45:06.331Z</time></trkpt><trkpt lat="33.9454483" lon="8.4181883"><ele>12.0</ele><time>2026-04-23T10:45:07.331Z</time></trkpt><trkpt lat="33.9456117" lon="8.4181417"><ele>12.0</ele><time>2026-04-23T10:45:08.33Z</time></trkpt><trkpt lat="33.9457783" lon="8.4180917"><ele>12.0</ele><time>2026-04-23T10:45:09.331Z</time></trkpt><trkpt lat="33.945945" lon="8.4180417"><ele>12.0</ele><time>2026-04-23T10:45:10.33Z</time></trkpt><trkpt lat="33.9461117" lon="8.4179933"><ele>13.0</ele><time>2026-04-23T10:45:11.33Z</time></trkpt><trkpt lat="33.9462817" lon="8.41794"><ele>14.0</ele><time>2026-04-23T10:45:12.33Z</time></trkpt><trkpt lat="33.9464533" lon="8.4178883"><ele>15.0</ele><time>2026-04-23T10:45:13.33Z</time></trkpt><trkpt lat="33.9466233" lon="8.417835"><ele>15.0</ele><time>2026-04-23T10:45:14.33Z</time></trkpt><trkpt lat="33.9467917" lon="8.41779"><ele>15.0</ele><time>2026-04-23T10:45:15.33Z</time></trkpt><trkpt lat="33.946965" lon="8.4177383"><ele>15.0</ele><time>2026-04-23T10:45:16.33Z</time></trkpt><trkpt lat="33.9471333" lon="8.4176917"><ele>15.0</ele><time>2026-04-23T10:45:17.33Z</time></trkpt><trkpt lat="33.947295" lon="8.4176467"><ele>15.0</ele><time>2026-04-23T10:45:18.33Z</time></trkpt><trkpt lat="33.9474583" lon="8.4175967"><ele>15.0</ele><time>2026-04-23T10:45:19.331Z</time></trkpt><trkpt lat="33.947625" lon="8.41754"><ele>14.666666666666668</ele><time>2026-04-23T10:45:20.331Z</time></trkpt><trkpt lat="33.9477933" lon="8.4174867"><ele>14.333333333333334</ele><time>2026-04-23T10:45:21.331Z</time></trkpt><trkpt lat="33.947965" lon="8.4174317"><ele>14.0</ele><time>2026-04-23T10:45:22.331Z</time></trkpt><trkpt lat="33.9481367" lon="8.4173783"><ele>14.0</ele><time>2026-04-23T10:45:23.33Z</time></trkpt><trkpt lat="33.94831" lon="8.4173233"><ele>14.0</ele><time>2026-04-23T10:45:24.331Z</time></trkpt><trkpt lat="33.9484867" lon="8.4172667"><ele>14.0</ele><time>2026-04-23T10:45:25.331Z</time></trkpt><trkpt lat="33.948665" lon="8.4172167"><ele>14.0</ele><time>2026-04-23T10:45:26.33Z</time></trkpt><trkpt lat="33.9488433" lon="8.4171583"><ele>14.0</ele><time>2026-04-23T10:45:27.331Z</time></trkpt><trkpt lat="33.949015" lon="8.4171017"><ele>14.0</ele><time>2026-04-23T10:45:28.331Z</time></trkpt><trkpt lat="33.9491733" lon="8.4170467"><ele>14.0</ele><time>2026-04-23T10:45:29.331Z</time></trkpt><trkpt lat="33.9493167" lon="8.4170017"><ele>14.0</ele><time>2026-04-23T10:45:30.331Z</time></trkpt><trkpt lat="33.9494483" lon="8.4169633"><ele>14.0</ele><time>2026-04-23T10:45:31.331Z</time></trkpt><trkpt lat="33.9495733" lon="8.41693"><ele>14.0</ele><time>2026-04-23T10:45:32.331Z</time></trkpt><trkpt lat="33.9496967" lon="8.4168917"><ele>14.0</ele><time>2026-04-23T10:45:33.33Z</time></trkpt><trkpt lat="33.9498" lon="8.4168617"><ele>13.999999999999998</ele><time>2026-04-23T10:45:34.331Z</time></trkpt><trkpt lat="33.9499033" lon="8.41683"><ele>13.999999999999998</ele><time>2026-04-23T10:45:35.33Z</time></trkpt><trkpt lat="33.9500133" lon="8.4168017"><ele>14.0</ele><time>2026-04-23T10:45:36.33Z</time></trkpt><trkpt lat="33.9501183" lon="8.41677"><ele>14.0</ele><time>2026-04-23T10:45:37.33Z</time></trkpt><trkpt lat="33.9502183" lon="8.4167533"><ele>14.166666666666668</ele><time>2026-04-23T10:45:38.331Z</time></trkpt><trkpt lat="33.9503083" lon="8.4167467"><ele>14.333333333333334</ele><time>2026-04-23T10:45:39.33Z</time></trkpt><trkpt lat="33.950395" lon="8.4167517"><ele>14.5</ele><time>2026-04-23T10:45:40.33Z</time></trkpt><trkpt lat="33.95048" lon="8.41677"><ele>14.666666666666668</ele><time>2026-04-23T10:45:41.33Z</time></trkpt><trkpt lat="33.950565" lon="8.4167833"><ele>14.833333333333334</ele><time>2026-04-23T10:45:42.33Z</time></trkpt><trkpt lat="33.9506483" lon="8.4168017"><ele>15.0</ele><time>2026-04-23T10:45:43.331Z</time></trkpt><trkpt lat="33.950725" lon="8.416805"><ele>15.0</ele><time>2026-04-23T10:45:44.33Z</time></trkpt><trkpt lat="33.9507967" lon="8.4168017"><ele>15.0</ele><time>2026-04-23T10:45:45.331Z</time></trkpt><trkpt lat="33.9508667" lon="8.4167983"><ele>15.0</ele><time>2026-04-23T10:45:46.331Z</time></trkpt><trkpt lat="33.9509367" lon="8.4167883"><ele>15.0</ele><time>2026-04-23T10:45:47.331Z</time></trkpt><trkpt lat="33.951005" lon="8.416775"><ele>15.0</ele><time>2026-04-23T10:45:48.33Z</time></trkpt><trkpt lat="33.9511283" lon="8.4167283"><ele>15.0</ele><time>2026-04-23T10:45:50.33Z</time></trkpt><trkpt lat="33.9512217" lon="8.4166867"><ele>15.0</ele><time>2026-04-23T10:45:52.331Z</time></trkpt><trkpt lat="33.9512717" lon="8.41664"><ele>15.0</ele><time>2026-04-23T10:45:54.33Z</time></trkpt><trkpt lat="33.9513267" lon="8.4165717"><ele>15.0</ele><time>2026-04-23T10:46:33.331Z</time></trkpt><trkpt lat="33.951395" lon="8.416465"><ele>15.0</ele><time>2026-04-23T10:46:35.33Z</time></trkpt><trkpt lat="33.9514317" lon="8.4163717"><ele>15.0</ele><time>2026-04-23T10:46:36.33Z</time></trkpt><trkpt lat="33.9514717" lon="8.4162567"><ele>15.0</ele><time>2026-04-23T10:46:37.331Z</time></trkpt><trkpt lat="33.9515217" lon="8.4161233"><ele>15.0</ele><time>2026-04-23T10:46:38.33Z</time></trkpt><trkpt lat="33.9515733" lon="8.41598"><ele>15.0</ele><time>2026-04-23T10:46:39.33Z</time></trkpt><trkpt lat="33.9516217" lon="8.415835"><ele>15.0</ele><time>2026-04-23T10:46:40.331Z</time></trkpt><trkpt lat="33.951675" lon="8.4156783"><ele>15.0</ele><time>2026-04-23T10:46:41.331Z</time></trkpt><trkpt lat="33.95173" lon="8.4155067"><ele>15.25</ele><time>2026-04-23T10:46:42.33Z</time></trkpt><trkpt lat="33.9517867" lon="8.4153467"><ele>15.5</ele><time>2026-04-23T10:46:43.33Z</time></trkpt><trkpt lat="33.9518467" lon="8.415185"><ele>15.75</ele><time>2026-04-23T10:46:44.33Z</time></trkpt><trkpt lat="33.951905" lon="8.4150117"><ele>16.0</ele><time>2026-04-23T10:46:45.331Z</time></trkpt><trkpt lat="33.9519633" lon="8.414845"><ele>16.0</ele><time>2026-04-23T10:46:46.33Z</time></trkpt><trkpt lat="33.9520167" lon="8.4146917"><ele>16.0</ele><time>2026-04-23T10:46:47.33Z</time></trkpt><trkpt lat="33.9520633" lon="8.4145467"><ele>16.0</ele><time>2026-04-23T10:46:48.331Z</time></trkpt><trkpt lat="33.9521083" lon="8.41441"><ele>16.0</ele><time>2026-04-23T10:46:49.33Z</time></trkpt><trkpt lat="33.9521517" lon="8.414285"><ele>15.5</ele><time>2026-04-23T10:46:50.33Z</time></trkpt><trkpt lat="33.9521917" lon="8.4141517"><ele>15.0</ele><time>2026-04-23T10:46:51.331Z</time></trkpt><trkpt lat="33.9522383" lon="8.4140183"><ele>14.5</ele><time>2026-04-23T10:46:52.33Z</time></trkpt><trkpt lat="33.95229" lon="8.413875"><ele>14.0</ele><time>2026-04-23T10:46:53.33Z</time></trkpt><trkpt lat="33.9523367" lon="8.413705"><ele>14.0</ele><time>2026-04-23T10:46:54.33Z</time></trkpt><trkpt lat="33.952395" lon="8.4135317"><ele>14.0</ele><time>2026-04-23T10:46:55.33Z</time></trkpt><trkpt lat="33.95246" lon="8.413355"><ele>14.0</ele><time>2026-04-23T10:46:56.331Z</time></trkpt><trkpt lat="33.9525267" lon="8.4131733"><ele>14.333333333333334</ele><time>2026-04-23T10:46:57.33Z</time></trkpt><trkpt lat="33.9525917" lon="8.4129817"><ele>14.666666666666668</ele><time>2026-04-23T10:46:58.331Z</time></trkpt><trkpt lat="33.9526683" lon="8.4127783"><ele>15.0</ele><time>2026-04-23T10:46:59.331Z</time></trkpt><trkpt lat="33.95274" lon="8.4125633"><ele>15.0</ele><time>2026-04-23T10:47:00.33Z</time></trkpt><trkpt lat="33.9528167" lon="8.412345"><ele>15.0</ele><time>2026-04-23T10:47:01.33Z</time></trkpt><trkpt lat="33.9528883" lon="8.4121183"><ele>15.0</ele><time>2026-04-23T10:47:02.33Z</time></trkpt><trkpt lat="33.9529633" lon="8.4118917"><ele>15.0</ele><time>2026-04-23T10:47:03.33Z</time></trkpt><trkpt lat="33.9530383" lon="8.41167"><ele>15.0</ele><time>2026-04-23T10:47:04.33Z</time></trkpt><trkpt lat="33.9531183" lon="8.41144"><ele>15.0</ele><time>2026-04-23T10:47:05.33Z</time></trkpt><trkpt lat="33.953205" lon="8.4111983"><ele>15.0</ele><time>2026-04-23T10:47:06.331Z</time></trkpt><trkpt lat="33.9532917" lon="8.4109517"><ele>15.0</ele><time>2026-04-23T10:47:07.331Z</time></trkpt><trkpt lat="33.95338" lon="8.4107"><ele>15.0</ele><time>2026-04-23T10:47:08.331Z</time></trkpt><trkpt lat="33.9534633" lon="8.4104467"><ele>14.5</ele><time>2026-04-23T10:47:09.331Z</time></trkpt><trkpt lat="33.95355" lon="8.4101917"><ele>14.0</ele><time>2026-04-23T10:47:10.331Z</time></trkpt><trkpt lat="33.9536317" lon="8.4099317"><ele>14.0</ele><time>2026-04-23T10:47:11.33Z</time></trkpt><trkpt lat="33.9537217" lon="8.4096833"><ele>14.0</ele><time>2026-04-23T10:47:12.33Z</time></trkpt><trkpt lat="33.953805" lon="8.409425"><ele>14.5</ele><time>2026-04-23T10:47:13.33Z</time></trkpt><trkpt lat="33.95389" lon="8.4091617"><ele>15.0</ele><time>2026-04-23T10:47:14.331Z</time></trkpt><trkpt lat="33.9539783" lon="8.40889"><ele>14.5</ele><time>2026-04-23T10:47:15.331Z</time></trkpt><trkpt lat="33.95407" lon="8.4086317"><ele>14.0</ele><time>2026-04-23T10:47:16.33Z</time></trkpt><trkpt lat="33.9541633" lon="8.4083667"><ele>13.5</ele><time>2026-04-23T10:47:17.331Z</time></trkpt><trkpt lat="33.9542667" lon="8.40809"><ele>13.0</ele><time>2026-04-23T10:47:18.33Z</time></trkpt><trkpt lat="33.95436" lon="8.40782"><ele>13.0</ele><time>2026-04-23T10:47:19.33Z</time></trkpt><trkpt lat="33.954445" lon="8.4075533"><ele>13.0</ele><time>2026-04-23T10:47:20.331Z</time></trkpt><trkpt lat="33.954535" lon="8.40729"><ele>14.0</ele><time>2026-04-23T10:47:21.33Z</time></trkpt><trkpt lat="33.954635" lon="8.407025"><ele>15.0</ele><time>2026-04-23T10:47:22.33Z</time></trkpt><trkpt lat="33.9547267" lon="8.4067617"><ele>15.0</ele><time>2026-04-23T10:47:23.33Z</time></trkpt><trkpt lat="33.954805" lon="8.4064967"><ele>15.0</ele><time>2026-04-23T10:47:24.331Z</time></trkpt><trkpt lat="33.9548917" lon="8.4062383"><ele>15.0</ele><time>2026-04-23T10:47:25.331Z</time></trkpt><trkpt lat="33.9549867" lon="8.4059717"><ele>15.0</ele><time>2026-04-23T10:47:26.33Z</time></trkpt><trkpt lat="33.9550717" lon="8.405705"><ele>15.0</ele><time>2026-04-23T10:47:27.33Z</time></trkpt><trkpt lat="33.9551633" lon="8.405445"><ele>15.0</ele><time>2026-04-23T10:47:28.331Z</time></trkpt><trkpt lat="33.95525" lon="8.4051833"><ele>15.0</ele><time>2026-04-23T10:47:29.33Z</time></trkpt><trkpt lat="33.955335" lon="8.4049183"><ele>15.0</ele><time>2026-04-23T10:47:30.331Z</time></trkpt><trkpt lat="33.9554267" lon="8.4046633"><ele>14.5</ele><time>2026-04-23T10:47:31.33Z</time></trkpt><trkpt lat="33.9555233" lon="8.404405"><ele>14.0</ele><time>2026-04-23T10:47:32.33Z</time></trkpt><trkpt lat="33.9556167" lon="8.404145"><ele>14.0</ele><time>2026-04-23T10:47:33.33Z</time></trkpt><trkpt lat="33.95571" lon="8.4038683"><ele>14.0</ele><time>2026-04-23T10:47:34.331Z</time></trkpt><trkpt lat="33.9557967" lon="8.4036083"><ele>14.0</ele><time>2026-04-23T10:47:35.331Z</time></trkpt><trkpt lat="33.955885" lon="8.403345"><ele>14.0</ele><time>2026-04-23T10:47:36.33Z</time></trkpt><trkpt lat="33.9559733" lon="8.4030917"><ele>14.5</ele><time>2026-04-23T10:47:37.33Z</time></trkpt><trkpt lat="33.95606" lon="8.4028283"><ele>15.0</ele><time>2026-04-23T10:47:38.33Z</time></trkpt><trkpt lat="33.9561483" lon="8.4025783"><ele>15.0</ele><time>2026-04-23T10:47:39.33Z</time></trkpt><trkpt lat="33.9562317" lon="8.4023317"><ele>15.0</ele><time>2026-04-23T10:47:40.331Z</time></trkpt><trkpt lat="33.9563183" lon="8.4020767"><ele>15.0</ele><time>2026-04-23T10:47:41.33Z</time></trkpt><trkpt lat="33.9564017" lon="8.4018267"><ele>15.0</ele><time>2026-04-23T10:47:42.33Z</time></trkpt><trkpt lat="33.95648" lon="8.4015767"><ele>15.0</ele><time>2026-04-23T10:47:43.33Z</time></trkpt><trkpt lat="33.95656" lon="8.4013283"><ele>15.0</ele><time>2026-04-23T10:47:44.331Z</time></trkpt><trkpt lat="33.956645" lon="8.40108"><ele>15.0</ele><time>2026-04-23T10:47:45.331Z</time></trkpt><trkpt lat="33.9567367" lon="8.40083"><ele>15.0</ele><time>2026-04-23T10:47:46.331Z</time></trkpt><trkpt lat="33.95682" lon="8.4005767"><ele>15.5</ele><time>2026-04-23T10:47:47.33Z</time></trkpt><trkpt lat="33.9569033" lon="8.4003233"><ele>16.0</ele><time>2026-04-23T10:47:48.33Z</time></trkpt><trkpt lat="33.9569867" lon="8.4000667"><ele>16.0</ele><time>2026-04-23T10:47:49.33Z</time></trkpt><trkpt lat="33.95707" lon="8.3998067"><ele>16.0</ele><time>2026-04-23T10:47:50.33Z</time></trkpt><trkpt lat="33.9571583" lon="8.3995417"><ele>15.0</ele><time>2026-04-23T10:47:51.33Z</time></trkpt><trkpt lat="33.9572467" lon="8.3992783"><ele>14.0</ele><time>2026-04-23T10:47:52.33Z</time></trkpt><trkpt lat="33.9573417" lon="8.39902"><ele>14.0</ele><time>2026-04-23T10:47:53.33Z</time></trkpt><trkpt lat="33.9574283" lon="8.3987517"><ele>14.0</ele><time>2026-04-23T10:47:54.33Z</time></trkpt><trkpt lat="33.9575217" lon="8.3984867"><ele>14.0</ele><time>2026-04-23T10:47:55.33Z</time></trkpt><trkpt lat="33.9576233" lon="8.3982233"><ele>14.0</ele><time>2026-04-23T10:47:56.33Z</time></trkpt><trkpt lat="33.9577133" lon="8.3979583"><ele>13.5</ele><time>2026-04-23T10:47:57.329Z</time></trkpt><trkpt lat="33.957805" lon="8.3976883"><ele>13.0</ele><time>2026-04-23T10:47:58.33Z</time></trkpt><trkpt lat="33.9578883" lon="8.39742"><ele>13.5</ele><time>2026-04-23T10:47:59.329Z</time></trkpt><trkpt lat="33.9579783" lon="8.3971517"><ele>14.0</ele><time>2026-04-23T10:48:00.329Z</time></trkpt><trkpt lat="33.9580767" lon="8.3968867"><ele>14.0</ele><time>2026-04-23T10:48:01.329Z</time></trkpt><trkpt lat="33.958165" lon="8.3966217"><ele>14.0</ele><time>2026-04-23T10:48:02.33Z</time></trkpt><trkpt lat="33.95825" lon="8.3963583"><ele>15.0</ele><time>2026-04-23T10:48:03.329Z</time></trkpt><trkpt lat="33.9583383" lon="8.3960933"><ele>16.0</ele><time>2026-04-23T10:48:04.33Z</time></trkpt><trkpt lat="33.95843" lon="8.395825"><ele>16.0</ele><time>2026-04-23T10:48:05.33Z</time></trkpt><trkpt lat="33.9585167" lon="8.395555"><ele>16.0</ele><time>2026-04-23T10:48:06.33Z</time></trkpt><trkpt lat="33.958605" lon="8.395285"><ele>16.0</ele><time>2026-04-23T10:48:07.33Z</time></trkpt><trkpt lat="33.9586983" lon="8.3950183"><ele>16.0</ele><time>2026-04-23T10:48:08.33Z</time></trkpt><trkpt lat="33.9587883" lon="8.3947617"><ele>15.5</ele><time>2026-04-23T10:48:09.33Z</time></trkpt><trkpt lat="33.9588833" lon="8.3944983"><ele>15.0</ele><time>2026-04-23T10:48:10.33Z</time></trkpt><trkpt lat="33.9589783" lon="8.39423"><ele>15.0</ele><time>2026-04-23T10:48:11.329Z</time></trkpt><trkpt lat="33.9590667" lon="8.3939667"><ele>15.0</ele><time>2026-04-23T10:48:12.33Z</time></trkpt><trkpt lat="33.9591617" lon="8.3937117"><ele>14.666666666666668</ele><time>2026-04-23T10:48:13.33Z</time></trkpt><trkpt lat="33.9592483" lon="8.39346"><ele>14.333333333333334</ele><time>2026-04-23T10:48:14.329Z</time></trkpt><trkpt lat="33.95933" lon="8.3932117"><ele>14.0</ele><time>2026-04-23T10:48:15.329Z</time></trkpt><trkpt lat="33.9594183" lon="8.3929567"><ele>14.0</ele><time>2026-04-23T10:48:16.33Z</time></trkpt><trkpt lat="33.9594983" lon="8.3926983"><ele>14.0</ele><time>2026-04-23T10:48:17.33Z</time></trkpt><trkpt lat="33.9595833" lon="8.3924467"><ele>14.0</ele><time>2026-04-23T10:48:18.33Z</time></trkpt><trkpt lat="33.959665" lon="8.3921883"><ele>14.0</ele><time>2026-04-23T10:48:19.329Z</time></trkpt><trkpt lat="33.9597533" lon="8.3919233"><ele>14.5</ele><time>2026-04-23T10:48:20.329Z</time></trkpt><trkpt lat="33.95984" lon="8.3916467"><ele>15.0</ele><time>2026-04-23T10:48:21.329Z</time></trkpt><trkpt lat="33.9599283" lon="8.3913767"><ele>15.5</ele><time>2026-04-23T10:48:22.329Z</time></trkpt><trkpt lat="33.9600183" lon="8.3911217"><ele>16.0</ele><time>2026-04-23T10:48:23.33Z</time></trkpt><trkpt lat="33.9601133" lon="8.390855"><ele>15.5</ele><time>2026-04-23T10:48:24.33Z</time></trkpt><trkpt lat="33.9602083" lon="8.3905883"><ele>15.0</ele><time>2026-04-23T10:48:25.329Z</time></trkpt><trkpt lat="33.9603067" lon="8.3903267"><ele>15.0</ele><time>2026-04-23T10:48:26.329Z</time></trkpt><trkpt lat="33.9604083" lon="8.39005"><ele>15.0</ele><time>2026-04-23T10:48:27.329Z</time></trkpt><trkpt lat="33.9605167" lon="8.3897783"><ele>15.0</ele><time>2026-04-23T10:48:28.329Z</time></trkpt><trkpt lat="33.960625" lon="8.389505"><ele>15.0</ele><time>2026-04-23T10:48:29.33Z</time></trkpt><trkpt lat="33.960735" lon="8.38923"><ele>15.0</ele><time>2026-04-23T10:48:30.33Z</time></trkpt><trkpt lat="33.960845" lon="8.38896"><ele>15.0</ele><time>2026-04-23T10:48:31.33Z</time></trkpt><trkpt lat="33.960955" lon="8.3886917"><ele>15.0</ele><time>2026-04-23T10:48:32.33Z</time></trkpt><trkpt lat="33.961065" lon="8.38842"><ele>15.0</ele><time>2026-04-23T10:48:33.33Z</time></trkpt><trkpt lat="33.9611733" lon="8.388155"><ele>14.5</ele><time>2026-04-23T10:48:34.33Z</time></trkpt><trkpt lat="33.9612783" lon="8.3878867"><ele>14.0</ele><time>2026-04-23T10:48:35.329Z</time></trkpt><trkpt lat="33.9613817" lon="8.387615"><ele>14.0</ele><time>2026-04-23T10:48:36.329Z</time></trkpt><trkpt lat="33.96149" lon="8.3873383"><ele>14.0</ele><time>2026-04-23T10:48:37.329Z</time></trkpt><trkpt lat="33.9615967" lon="8.3870667"><ele>14.5</ele><time>2026-04-23T10:48:38.329Z</time></trkpt><trkpt lat="33.9617067" lon="8.3867983"><ele>15.0</ele><time>2026-04-23T10:48:39.329Z</time></trkpt><trkpt lat="33.9618167" lon="8.3865217"><ele>15.0</ele><time>2026-04-23T10:48:40.33Z</time></trkpt><trkpt lat="33.9619183" lon="8.3862517"><ele>15.0</ele><time>2026-04-23T10:48:41.33Z</time></trkpt><trkpt lat="33.9620333" lon="8.3859833"><ele>15.0</ele><time>2026-04-23T10:48:42.329Z</time></trkpt><trkpt lat="33.9621467" lon="8.38571"><ele>15.0</ele><time>2026-04-23T10:48:43.33Z</time></trkpt><trkpt lat="33.962255" lon="8.3854417"><ele>15.0</ele><time>2026-04-23T10:48:44.329Z</time></trkpt><trkpt lat="33.9623667" lon="8.3851717"><ele>15.0</ele><time>2026-04-23T10:48:45.33Z</time></trkpt><trkpt lat="33.9624767" lon="8.3849"><ele>15.0</ele><time>2026-04-23T10:48:46.329Z</time></trkpt><trkpt lat="33.9625817" lon="8.3846283"><ele>15.0</ele><time>2026-04-23T10:48:47.329Z</time></trkpt><trkpt lat="33.9626867" lon="8.3843567"><ele>15.0</ele><time>2026-04-23T10:48:48.329Z</time></trkpt><trkpt lat="33.9627967" lon="8.384085"><ele>15.0</ele><time>2026-04-23T10:48:49.329Z</time></trkpt><trkpt lat="33.9629083" lon="8.3838133"><ele>15.0</ele><time>2026-04-23T10:48:50.329Z</time></trkpt><trkpt lat="33.9630217" lon="8.3835433"><ele>15.0</ele><time>2026-04-23T10:48:51.33Z</time></trkpt><trkpt lat="33.9631283" lon="8.3832767"><ele>15.0</ele><time>2026-04-23T10:48:52.329Z</time></trkpt><trkpt lat="33.9632383" lon="8.383005"><ele>15.0</ele><time>2026-04-23T10:48:53.329Z</time></trkpt><trkpt lat="33.9633433" lon="8.3827383"><ele>14.5</ele><time>2026-04-23T10:48:54.33Z</time></trkpt><trkpt lat="33.963445" lon="8.3824717"><ele>14.0</ele><time>2026-04-23T10:48:55.33Z</time></trkpt><trkpt lat="33.9635483" lon="8.382195"><ele>14.5</ele><time>2026-04-23T10:48:56.329Z</time></trkpt><trkpt lat="33.9636567" lon="8.3819167"><ele>15.0</ele><time>2026-04-23T10:48:57.329Z</time></trkpt><trkpt lat="33.963765" lon="8.3816433"><ele>15.0</ele><time>2026-04-23T10:48:58.33Z</time></trkpt><trkpt lat="33.963875" lon="8.38137"><ele>15.0</ele><time>2026-04-23T10:48:59.329Z</time></trkpt><trkpt lat="33.9639883" lon="8.3811017"><ele>15.0</ele><time>2026-04-23T10:49:00.329Z</time></trkpt><trkpt lat="33.9641" lon="8.3808317"><ele>15.0</ele><time>2026-04-23T10:49:01.329Z</time></trkpt><trkpt lat="33.9642083" lon="8.3805533"><ele>14.5</ele><time>2026-04-23T10:49:02.33Z</time></trkpt><trkpt lat="33.9643183" lon="8.3802783"><ele>14.0</ele><time>2026-04-23T10:49:03.329Z</time></trkpt><trkpt lat="33.9644267" lon="8.3800083"><ele>14.0</ele><time>2026-04-23T10:49:04.329Z</time></trkpt><trkpt lat="33.9645283" lon="8.37974"><ele>14.0</ele><time>2026-04-23T10:49:05.33Z</time></trkpt><trkpt lat="33.964635" lon="8.3794633"><ele>14.5</ele><time>2026-04-23T10:49:06.33Z</time></trkpt><trkpt lat="33.96474" lon="8.3791933"><ele>15.0</ele><time>2026-04-23T10:49:07.329Z</time></trkpt><trkpt lat="33.9648483" lon="8.3789167"><ele>16.0</ele><time>2026-04-23T10:49:08.329Z</time></trkpt><trkpt lat="33.964955" lon="8.378655"><ele>17.0</ele><time>2026-04-23T10:49:09.329Z</time></trkpt><trkpt lat="33.96506" lon="8.3783817"><ele>17.0</ele><time>2026-04-23T10:49:10.329Z</time></trkpt><trkpt lat="33.9651767" lon="8.3781167"><ele>17.0</ele><time>2026-04-23T10:49:11.329Z</time></trkpt><trkpt lat="33.9652833" lon="8.3778567"><ele>16.0</ele><time>2026-04-23T10:49:12.33Z</time></trkpt><trkpt lat="33.9653917" lon="8.3775883"><ele>15.0</ele><time>2026-04-23T10:49:13.329Z</time></trkpt><trkpt lat="33.965505" lon="8.3773217"><ele>15.0</ele><time>2026-04-23T10:49:14.329Z</time></trkpt><trkpt lat="33.9656117" lon="8.3770633"><ele>15.0</ele><time>2026-04-23T10:49:15.329Z</time></trkpt><trkpt lat="33.9657133" lon="8.3768083"><ele>15.0</ele><time>2026-04-23T10:49:16.33Z</time></trkpt><trkpt lat="33.9658167" lon="8.3765517"><ele>15.0</ele><time>2026-04-23T10:49:17.33Z</time></trkpt><trkpt lat="33.96592" lon="8.3762933"><ele>16.0</ele><time>2026-04-23T10:49:18.329Z</time></trkpt><trkpt lat="33.966015" lon="8.3760283"><ele>17.0</ele><time>2026-04-23T10:49:19.329Z</time></trkpt><trkpt lat="33.96612" lon="8.375765"><ele>16.0</ele><time>2026-04-23T10:49:20.329Z</time></trkpt><trkpt lat="33.96622" lon="8.3754933"><ele>15.0</ele><time>2026-04-23T10:49:21.33Z</time></trkpt><trkpt lat="33.96632" lon="8.3752283"><ele>15.0</ele><time>2026-04-23T10:49:22.329Z</time></trkpt><trkpt lat="33.9664233" lon="8.3749583"><ele>15.0</ele><time>2026-04-23T10:49:23.329Z</time></trkpt><trkpt lat="33.9665283" lon="8.3746917"><ele>15.0</ele><time>2026-04-23T10:49:24.329Z</time></trkpt><trkpt lat="33.9666283" lon="8.3744267"><ele>15.0</ele><time>2026-04-23T10:49:25.329Z</time></trkpt><trkpt lat="33.96674" lon="8.3741583"><ele>15.0</ele><time>2026-04-23T10:49:26.33Z</time></trkpt><trkpt lat="33.96685" lon="8.3738917"><ele>15.0</ele><time>2026-04-23T10:49:27.329Z</time></trkpt><trkpt lat="33.9669617" lon="8.3736317"><ele>14.5</ele><time>2026-04-23T10:49:28.33Z</time></trkpt><trkpt lat="33.9670717" lon="8.3733567"><ele>14.0</ele><time>2026-04-23T10:49:29.329Z</time></trkpt><trkpt lat="33.96718" lon="8.3730917"><ele>14.0</ele><time>2026-04-23T10:49:30.329Z</time></trkpt><trkpt lat="33.967295" lon="8.3728283"><ele>14.0</ele><time>2026-04-23T10:49:31.329Z</time></trkpt><trkpt lat="33.9674117" lon="8.3725633"><ele>14.0</ele><time>2026-04-23T10:49:32.329Z</time></trkpt><trkpt lat="33.9675233" lon="8.3722983"><ele>14.0</ele><time>2026-04-23T10:49:33.329Z</time></trkpt><trkpt lat="33.9676317" lon="8.3720233"><ele>14.5</ele><time>2026-04-23T10:49:34.329Z</time></trkpt><trkpt lat="33.9677367" lon="8.3717433"><ele>15.0</ele><time>2026-04-23T10:49:35.329Z</time></trkpt><trkpt lat="33.9678467" lon="8.3714817"><ele>15.5</ele><time>2026-04-23T10:49:36.329Z</time></trkpt><trkpt lat="33.9679483" lon="8.3712183"><ele>16.0</ele><time>2026-04-23T10:49:37.33Z</time></trkpt><trkpt lat="33.968055" lon="8.3709467"><ele>16.0</ele><time>2026-04-23T10:49:38.33Z</time></trkpt><trkpt lat="33.9681633" lon="8.3706717"><ele>16.0</ele><time>2026-04-23T10:49:39.33Z</time></trkpt><trkpt lat="33.968275" lon="8.370405"><ele>14.5</ele><time>2026-04-23T10:49:40.329Z</time></trkpt><trkpt lat="33.968385" lon="8.3701433"><ele>13.0</ele><time>2026-04-23T10:49:41.329Z</time></trkpt><trkpt lat="33.9684933" lon="8.36988"><ele>14.5</ele><time>2026-04-23T10:49:42.33Z</time></trkpt><trkpt lat="33.9686" lon="8.369615"><ele>16.0</ele><time>2026-04-23T10:49:43.329Z</time></trkpt><trkpt lat="33.9687033" lon="8.3693533"><ele>16.0</ele><time>2026-04-23T10:49:44.33Z</time></trkpt><trkpt lat="33.9688083" lon="8.36909"><ele>16.0</ele><time>2026-04-23T10:49:45.329Z</time></trkpt><trkpt lat="33.96891" lon="8.3688217"><ele>16.0</ele><time>2026-04-23T10:49:46.329Z</time></trkpt><trkpt lat="33.9690117" lon="8.3685583"><ele>16.0</ele><time>2026-04-23T10:49:47.329Z</time></trkpt><trkpt lat="33.96912" lon="8.3682867"><ele>15.5</ele><time>2026-04-23T10:49:48.33Z</time></trkpt><trkpt lat="33.9692333" lon="8.3680133"><ele>15.0</ele><time>2026-04-23T10:49:49.329Z</time></trkpt><trkpt lat="33.969345" lon="8.3677367"><ele>15.0</ele><time>2026-04-23T10:49:50.33Z</time></trkpt><trkpt lat="33.9694483" lon="8.36747"><ele>15.0</ele><time>2026-04-23T10:49:51.33Z</time></trkpt><trkpt lat="33.969555" lon="8.3672067"><ele>16.0</ele><time>2026-04-23T10:49:52.33Z</time></trkpt><trkpt lat="33.969675" lon="8.366935"><ele>17.0</ele><time>2026-04-23T10:49:53.329Z</time></trkpt><trkpt lat="33.9697767" lon="8.3666717"><ele>17.0</ele><time>2026-04-23T10:49:54.329Z</time></trkpt><trkpt lat="33.969885" lon="8.3664083"><ele>17.0</ele><time>2026-04-23T10:49:55.33Z</time></trkpt><trkpt lat="33.969995" lon="8.3661417"><ele>15.5</ele><time>2026-04-23T10:49:56.329Z</time></trkpt><trkpt lat="33.9701017" lon="8.365875"><ele>14.0</ele><time>2026-04-23T10:49:57.329Z</time></trkpt><trkpt lat="33.9702033" lon="8.365615"><ele>13.5</ele><time>2026-04-23T10:49:58.33Z</time></trkpt><trkpt lat="33.9703033" lon="8.3653533"><ele>13.0</ele><time>2026-04-23T10:49:59.33Z</time></trkpt><trkpt lat="33.9704083" lon="8.3650867"><ele>13.0</ele><time>2026-04-23T10:50:00.33Z</time></trkpt><trkpt lat="33.9705183" lon="8.3648183"><ele>13.0</ele><time>2026-04-23T10:50:01.33Z</time></trkpt><trkpt lat="33.970625" lon="8.364555"><ele>14.0</ele><time>2026-04-23T10:50:02.329Z</time></trkpt><trkpt lat="33.9707333" lon="8.3642933"><ele>15.0</ele><time>2026-04-23T10:50:03.329Z</time></trkpt><trkpt lat="33.9708383" lon="8.3640267"><ele>15.0</ele><time>2026-04-23T10:50:04.33Z</time></trkpt><trkpt lat="33.970945" lon="8.3637533"><ele>15.0</ele><time>2026-04-23T10:50:05.329Z</time></trkpt><trkpt lat="33.971055" lon="8.3634833"><ele>15.0</ele><time>2026-04-23T10:50:06.329Z</time></trkpt><trkpt lat="33.9711633" lon="8.3632083"><ele>15.0</ele><time>2026-04-23T10:50:07.33Z</time></trkpt><trkpt lat="33.9712667" lon="8.3629433"><ele>15.5</ele><time>2026-04-23T10:50:08.329Z</time></trkpt><trkpt lat="33.9713683" lon="8.3626767"><ele>16.0</ele><time>2026-04-23T10:50:09.329Z</time></trkpt><trkpt lat="33.97147" lon="8.3624083"><ele>14.0</ele><time>2026-04-23T10:50:10.329Z</time></trkpt><trkpt lat="33.971575" lon="8.36214"><ele>12.0</ele><time>2026-04-23T10:50:11.33Z</time></trkpt><trkpt lat="33.9716867" lon="8.36187"><ele>14.5</ele><time>2026-04-23T10:50:12.329Z</time></trkpt><trkpt lat="33.9717983" lon="8.3616033"><ele>17.0</ele><time>2026-04-23T10:50:13.33Z</time></trkpt><trkpt lat="33.9719133" lon="8.3613333"><ele>17.0</ele><time>2026-04-23T10:50:14.329Z</time></trkpt><trkpt lat="33.972025" lon="8.36106"><ele>17.0</ele><time>2026-04-23T10:50:15.33Z</time></trkpt><trkpt lat="33.97213" lon="8.3607933"><ele>16.0</ele><time>2026-04-23T10:50:16.33Z</time></trkpt><trkpt lat="33.97224" lon="8.360525"><ele>15.0</ele><time>2026-04-23T10:50:17.33Z</time></trkpt><trkpt lat="33.9723517" lon="8.3602617"><ele>15.0</ele><time>2026-04-23T10:50:18.33Z</time></trkpt><trkpt lat="33.9724567" lon="8.3599983"><ele>15.0</ele><time>2026-04-23T10:50:19.33Z</time></trkpt><trkpt lat="33.9725617" lon="8.3597383"><ele>15.0</ele><time>2026-04-23T10:50:20.329Z</time></trkpt><trkpt lat="33.9726667" lon="8.35948"><ele>15.0</ele><time>2026-04-23T10:50:21.329Z</time></trkpt><trkpt lat="33.9727667" lon="8.3592133"><ele>15.0</ele><time>2026-04-23T10:50:22.33Z</time></trkpt><trkpt lat="33.97287" lon="8.3589533"><ele>15.0</ele><time>2026-04-23T10:50:23.33Z</time></trkpt><trkpt lat="33.9729767" lon="8.3586867"><ele>15.5</ele><time>2026-04-23T10:50:24.329Z</time></trkpt><trkpt lat="33.9730867" lon="8.3584083"><ele>16.0</ele><time>2026-04-23T10:50:25.329Z</time></trkpt><trkpt lat="33.97319" lon="8.3581317"><ele>16.0</ele><time>2026-04-23T10:50:26.329Z</time></trkpt><trkpt lat="33.9732983" lon="8.3578733"><ele>16.0</ele><time>2026-04-23T10:50:27.33Z</time></trkpt><trkpt lat="33.9734083" lon="8.3576117"><ele>16.5</ele><time>2026-04-23T10:50:28.329Z</time></trkpt><trkpt lat="33.9735217" lon="8.3573433"><ele>17.0</ele><time>2026-04-23T10:50:29.33Z</time></trkpt><trkpt lat="33.973635" lon="8.3570717"><ele>17.0</ele><time>2026-04-23T10:50:30.329Z</time></trkpt><trkpt lat="33.973745" lon="8.356795"><ele>17.0</ele><time>2026-04-23T10:50:31.329Z</time></trkpt><trkpt lat="33.9738533" lon="8.3565233"><ele>16.5</ele><time>2026-04-23T10:50:32.33Z</time></trkpt><trkpt lat="33.9739583" lon="8.356245"><ele>16.0</ele><time>2026-04-23T10:50:33.33Z</time></trkpt><trkpt lat="33.9740633" lon="8.3559717"><ele>16.0</ele><time>2026-04-23T10:50:34.33Z</time></trkpt><trkpt lat="33.97417" lon="8.3557117"><ele>16.0</ele><time>2026-04-23T10:50:35.33Z</time></trkpt><trkpt lat="33.974275" lon="8.355445"><ele>15.0</ele><time>2026-04-23T10:50:36.329Z</time></trkpt><trkpt lat="33.9743833" lon="8.3551767"><ele>14.0</ele><time>2026-04-23T10:50:37.33Z</time></trkpt><trkpt lat="33.9744883" lon="8.3549"><ele>14.0</ele><time>2026-04-23T10:50:38.329Z</time></trkpt><trkpt lat="33.974595" lon="8.3546333"><ele>14.0</ele><time>2026-04-23T10:50:39.329Z</time></trkpt><trkpt lat="33.9747067" lon="8.3543633"><ele>14.0</ele><time>2026-04-23T10:50:40.33Z</time></trkpt><trkpt lat="33.9748233" lon="8.35409"><ele>14.0</ele><time>2026-04-23T10:50:41.329Z</time></trkpt><trkpt lat="33.9749333" lon="8.3538133"><ele>13.5</ele><time>2026-04-23T10:50:42.329Z</time></trkpt><trkpt lat="33.9750417" lon="8.3535483"><ele>13.0</ele><time>2026-04-23T10:50:43.33Z</time></trkpt><trkpt lat="33.9751483" lon="8.35328"><ele>14.0</ele><time>2026-04-23T10:50:44.329Z</time></trkpt><trkpt lat="33.9752617" lon="8.35301"><ele>15.0</ele><time>2026-04-23T10:50:45.329Z</time></trkpt><trkpt lat="33.975365" lon="8.352745"><ele>15.0</ele><time>2026-04-23T10:50:46.329Z</time></trkpt><trkpt lat="33.9754717" lon="8.3524783"><ele>15.0</ele><time>2026-04-23T10:50:47.33Z</time></trkpt><trkpt lat="33.9755767" lon="8.352205"><ele>15.5</ele><time>2026-04-23T10:50:48.329Z</time></trkpt><trkpt lat="33.975685" lon="8.3519317"><ele>16.0</ele><time>2026-04-23T10:50:49.329Z</time></trkpt><trkpt lat="33.975795" lon="8.3516617"><ele>15.5</ele><time>2026-04-23T10:50:50.33Z</time></trkpt><trkpt lat="33.9759083" lon="8.351395"><ele>15.0</ele><time>2026-04-23T10:50:51.329Z</time></trkpt><trkpt lat="33.9760167" lon="8.3511267"><ele>14.0</ele><time>2026-04-23T10:50:52.33Z</time></trkpt><trkpt lat="33.9761283" lon="8.3508517"><ele>13.0</ele><time>2026-04-23T10:50:53.33Z</time></trkpt><trkpt lat="33.976235" lon="8.3505817"><ele>14.5</ele><time>2026-04-23T10:50:54.329Z</time></trkpt><trkpt lat="33.9763433" lon="8.350315"><ele>16.0</ele><time>2026-04-23T10:50:55.329Z</time></trkpt><trkpt lat="33.9764533" lon="8.3500417"><ele>16.0</ele><time>2026-04-23T10:50:56.33Z</time></trkpt><trkpt lat="33.976555" lon="8.3497717"><ele>16.0</ele><time>2026-04-23T10:50:57.33Z</time></trkpt><trkpt lat="33.9766633" lon="8.3494933"><ele>17.0</ele><time>2026-04-23T10:50:58.33Z</time></trkpt><trkpt lat="33.9767733" lon="8.349225"><ele>18.0</ele><time>2026-04-23T10:50:59.329Z</time></trkpt><trkpt lat="33.9768817" lon="8.34895"><ele>16.5</ele><time>2026-04-23T10:51:00.33Z</time></trkpt><trkpt lat="33.9769917" lon="8.34868"><ele>15.0</ele><time>2026-04-23T10:51:01.33Z</time></trkpt><trkpt lat="33.9771017" lon="8.3484067"><ele>15.0</ele><time>2026-04-23T10:51:02.329Z</time></trkpt><trkpt lat="33.9772083" lon="8.3481383"><ele>15.0</ele><time>2026-04-23T10:51:03.329Z</time></trkpt><trkpt lat="33.9773183" lon="8.347865"><ele>15.0</ele><time>2026-04-23T10:51:04.329Z</time></trkpt><trkpt lat="33.9774267" lon="8.347595"><ele>15.0</ele><time>2026-04-23T10:51:05.329Z</time></trkpt><trkpt lat="33.977535" lon="8.347325"><ele>15.0</ele><time>2026-04-23T10:51:06.329Z</time></trkpt><trkpt lat="33.9776433" lon="8.3470533"><ele>15.0</ele><time>2026-04-23T10:51:07.33Z</time></trkpt><trkpt lat="33.97775" lon="8.3467817"><ele>15.0</ele><time>2026-04-23T10:51:08.33Z</time></trkpt><trkpt lat="33.97786" lon="8.3465033"><ele>15.0</ele><time>2026-04-23T10:51:09.33Z</time></trkpt><trkpt lat="33.97797" lon="8.34622"><ele>15.0</ele><time>2026-04-23T10:51:10.329Z</time></trkpt><trkpt lat="33.9780833" lon="8.3459467"><ele>15.0</ele><time>2026-04-23T10:51:11.33Z</time></trkpt><trkpt lat="33.9781917" lon="8.34568"><ele>15.0</ele><time>2026-04-23T10:51:12.33Z</time></trkpt><trkpt lat="33.9782933" lon="8.3454133"><ele>15.0</ele><time>2026-04-23T10:51:13.33Z</time></trkpt><trkpt lat="33.978395" lon="8.3451483"><ele>15.0</ele><time>2026-04-23T10:51:14.329Z</time></trkpt><trkpt lat="33.9785017" lon="8.3448833"><ele>15.0</ele><time>2026-04-23T10:51:15.33Z</time></trkpt><trkpt lat="33.9786133" lon="8.3446117"><ele>15.5</ele><time>2026-04-23T10:51:16.329Z</time></trkpt><trkpt lat="33.97872" lon="8.3443433"><ele>16.0</ele><time>2026-04-23T10:51:17.33Z</time></trkpt><trkpt lat="33.97883" lon="8.3440733"><ele>15.0</ele><time>2026-04-23T10:51:18.33Z</time></trkpt><trkpt lat="33.9789367" lon="8.343805"><ele>14.0</ele><time>2026-04-23T10:51:19.329Z</time></trkpt><trkpt lat="33.9790467" lon="8.3435283"><ele>14.0</ele><time>2026-04-23T10:51:20.329Z</time></trkpt><trkpt lat="33.97916" lon="8.3432567"><ele>14.0</ele><time>2026-04-23T10:51:21.329Z</time></trkpt><trkpt lat="33.9792683" lon="8.3429867"><ele>15.0</ele><time>2026-04-23T10:51:22.33Z</time></trkpt><trkpt lat="33.97938" lon="8.34272"><ele>16.0</ele><time>2026-04-23T10:51:23.33Z</time></trkpt><trkpt lat="33.9794917" lon="8.34245"><ele>15.0</ele><time>2026-04-23T10:51:24.329Z</time></trkpt><trkpt lat="33.9796033" lon="8.34218"><ele>14.0</ele><time>2026-04-23T10:51:25.33Z</time></trkpt><trkpt lat="33.9797133" lon="8.3419167"><ele>14.0</ele><time>2026-04-23T10:51:26.329Z</time></trkpt><trkpt lat="33.9798183" lon="8.3416517"><ele>14.0</ele><time>2026-04-23T10:51:27.329Z</time></trkpt><trkpt lat="33.9799333" lon="8.34139"><ele>14.5</ele><time>2026-04-23T10:51:28.329Z</time></trkpt><trkpt lat="33.980045" lon="8.34112"><ele>15.0</ele><time>2026-04-23T10:51:29.328Z</time></trkpt><trkpt lat="33.980145" lon="8.3408533"><ele>15.0</ele><time>2026-04-23T10:51:30.329Z</time></trkpt><trkpt lat="33.9802433" lon="8.340585"><ele>15.0</ele><time>2026-04-23T10:51:31.328Z</time></trkpt><trkpt lat="33.9803433" lon="8.34033"><ele>15.5</ele><time>2026-04-23T10:51:32.329Z</time></trkpt><trkpt lat="33.9804467" lon="8.3400667"><ele>16.0</ele><time>2026-04-23T10:51:33.328Z</time></trkpt><trkpt lat="33.9805517" lon="8.3398083"><ele>17.0</ele><time>2026-04-23T10:51:34.328Z</time></trkpt><trkpt lat="33.9806567" lon="8.3395383"><ele>18.0</ele><time>2026-04-23T10:51:35.328Z</time></trkpt><trkpt lat="33.98076" lon="8.339275"><ele>17.5</ele><time>2026-04-23T10:51:36.329Z</time></trkpt><trkpt lat="33.9808633" lon="8.33902"><ele>17.0</ele><time>2026-04-23T10:51:37.329Z</time></trkpt><trkpt lat="33.9809683" lon="8.3387567"><ele>16.0</ele><time>2026-04-23T10:51:38.329Z</time></trkpt><trkpt lat="33.981075" lon="8.3384867"><ele>15.0</ele><time>2026-04-23T10:51:39.329Z</time></trkpt><trkpt lat="33.9811817" lon="8.33822"><ele>15.0</ele><time>2026-04-23T10:51:40.329Z</time></trkpt><trkpt lat="33.9812817" lon="8.3379567"><ele>15.0</ele><time>2026-04-23T10:51:41.329Z</time></trkpt><trkpt lat="33.9813867" lon="8.3376933"><ele>15.0</ele><time>2026-04-23T10:51:42.329Z</time></trkpt><trkpt lat="33.981495" lon="8.33743"><ele>15.0</ele><time>2026-04-23T10:51:43.329Z</time></trkpt><trkpt lat="33.9815983" lon="8.3371667"><ele>15.0</ele><time>2026-04-23T10:51:44.328Z</time></trkpt><trkpt lat="33.9817067" lon="8.3368917"><ele>15.0</ele><time>2026-04-23T10:51:45.329Z</time></trkpt><trkpt lat="33.981815" lon="8.336615"><ele>16.0</ele><time>2026-04-23T10:51:46.329Z</time></trkpt><trkpt lat="33.9819167" lon="8.3363567"><ele>17.0</ele><time>2026-04-23T10:51:47.329Z</time></trkpt><trkpt lat="33.9820217" lon="8.33609"><ele>17.0</ele><time>2026-04-23T10:51:48.329Z</time></trkpt><trkpt lat="33.982135" lon="8.3358233"><ele>17.0</ele><time>2026-04-23T10:51:49.329Z</time></trkpt><trkpt lat="33.9822467" lon="8.3355617"><ele>16.0</ele><time>2026-04-23T10:51:50.329Z</time></trkpt><trkpt lat="33.9823567" lon="8.3352917"><ele>15.0</ele><time>2026-04-23T10:51:51.329Z</time></trkpt><trkpt lat="33.98247" lon="8.3350183"><ele>14.5</ele><time>2026-04-23T10:51:52.328Z</time></trkpt><trkpt lat="33.982585" lon="8.3347483"><ele>14.0</ele><time>2026-04-23T10:51:53.329Z</time></trkpt><trkpt lat="33.9826917" lon="8.3344833"><ele>14.0</ele><time>2026-04-23T10:51:54.328Z</time></trkpt><trkpt lat="33.982795" lon="8.3342217"><ele>14.0</ele><time>2026-04-23T10:51:55.328Z</time></trkpt><trkpt lat="33.9829033" lon="8.3339517"><ele>15.0</ele><time>2026-04-23T10:51:56.328Z</time></trkpt><trkpt lat="33.9830083" lon="8.3336833"><ele>16.0</ele><time>2026-04-23T10:51:57.328Z</time></trkpt><trkpt lat="33.9831133" lon="8.333415"><ele>16.0</ele><time>2026-04-23T10:51:58.328Z</time></trkpt><trkpt lat="33.9832217" lon="8.3331567"><ele>16.0</ele><time>2026-04-23T10:51:59.328Z</time></trkpt><trkpt lat="33.9833267" lon="8.3328933"><ele>13.0</ele><time>2026-04-23T10:52:00.329Z</time></trkpt><trkpt lat="33.983435" lon="8.3326283"><ele>10.0</ele><time>2026-04-23T10:52:01.328Z</time></trkpt><trkpt lat="33.9835433" lon="8.33236"><ele>12.0</ele><time>2026-04-23T10:52:02.329Z</time></trkpt><trkpt lat="33.983655" lon="8.332095"><ele>14.0</ele><time>2026-04-23T10:52:03.329Z</time></trkpt><trkpt lat="33.9837633" lon="8.3318317"><ele>14.0</ele><time>2026-04-23T10:52:04.328Z</time></trkpt><trkpt lat="33.9838683" lon="8.331565"><ele>14.0</ele><time>2026-04-23T10:52:05.328Z</time></trkpt><trkpt lat="33.9839733" lon="8.3313017"><ele>13.0</ele><time>2026-04-23T10:52:06.328Z</time></trkpt><trkpt lat="33.98408" lon="8.3310317"><ele>12.0</ele><time>2026-04-23T10:52:07.328Z</time></trkpt><trkpt lat="33.9841867" lon="8.330755"><ele>14.0</ele><time>2026-04-23T10:52:08.328Z</time></trkpt><trkpt lat="33.9842983" lon="8.3304783"><ele>16.0</ele><time>2026-04-23T10:52:09.329Z</time></trkpt><trkpt lat="33.9844067" lon="8.3302117"><ele>16.0</ele><time>2026-04-23T10:52:10.328Z</time></trkpt><trkpt lat="33.984515" lon="8.329955"><ele>16.0</ele><time>2026-04-23T10:52:11.329Z</time></trkpt><trkpt lat="33.98463" lon="8.32969"><ele>15.5</ele><time>2026-04-23T10:52:12.329Z</time></trkpt><trkpt lat="33.9847383" lon="8.3294233"><ele>15.0</ele><time>2026-04-23T10:52:13.329Z</time></trkpt><trkpt lat="33.9848417" lon="8.3291517"><ele>15.0</ele><time>2026-04-23T10:52:14.329Z</time></trkpt><trkpt lat="33.984945" lon="8.3288733"><ele>15.0</ele><time>2026-04-23T10:52:15.329Z</time></trkpt><trkpt lat="33.9850467" lon="8.3285967"><ele>15.5</ele><time>2026-04-23T10:52:16.329Z</time></trkpt><trkpt lat="33.9851483" lon="8.328335"><ele>16.0</ele><time>2026-04-23T10:52:17.329Z</time></trkpt><trkpt lat="33.9852583" lon="8.32807"><ele>15.5</ele><time>2026-04-23T10:52:18.328Z</time></trkpt><trkpt lat="33.9853633" lon="8.3278083"><ele>15.0</ele><time>2026-04-23T10:52:19.328Z</time></trkpt><trkpt lat="33.98547" lon="8.32754"><ele>15.0</ele><time>2026-04-23T10:52:20.328Z</time></trkpt><trkpt lat="33.9855817" lon="8.327275"><ele>15.0</ele><time>2026-04-23T10:52:21.328Z</time></trkpt><trkpt lat="33.9856883" lon="8.3270067"><ele>15.5</ele><time>2026-04-23T10:52:22.329Z</time></trkpt><trkpt lat="33.9857983" lon="8.32674"><ele>16.0</ele><time>2026-04-23T10:52:23.328Z</time></trkpt><trkpt lat="33.9859033" lon="8.3264783"><ele>16.5</ele><time>2026-04-23T10:52:24.329Z</time></trkpt><trkpt lat="33.9860067" lon="8.3262167"><ele>17.0</ele><time>2026-04-23T10:52:25.328Z</time></trkpt><trkpt lat="33.9861083" lon="8.325955"><ele>17.0</ele><time>2026-04-23T10:52:26.328Z</time></trkpt><trkpt lat="33.9862167" lon="8.325675"><ele>17.0</ele><time>2026-04-23T10:52:27.329Z</time></trkpt><trkpt lat="33.9863233" lon="8.3254083"><ele>17.0</ele><time>2026-04-23T10:52:28.329Z</time></trkpt><trkpt lat="33.9864267" lon="8.3251467"><ele>17.0</ele><time>2026-04-23T10:52:29.328Z</time></trkpt><trkpt lat="33.9865367" lon="8.324875"><ele>17.0</ele><time>2026-04-23T10:52:30.329Z</time></trkpt><trkpt lat="33.986645" lon="8.324605"><ele>17.0</ele><time>2026-04-23T10:52:31.329Z</time></trkpt><trkpt lat="33.9867483" lon="8.3243267"><ele>17.0</ele><time>2026-04-23T10:52:32.329Z</time></trkpt><trkpt lat="33.9868517" lon="8.3240483"><ele>17.0</ele><time>2026-04-23T10:52:33.329Z</time></trkpt><trkpt lat="33.986945" lon="8.3237767"><ele>16.5</ele><time>2026-04-23T10:52:34.328Z</time></trkpt><trkpt lat="33.9870417" lon="8.3235033"><ele>16.0</ele><time>2026-04-23T10:52:35.329Z</time></trkpt><trkpt lat="33.9871317" lon="8.323215"><ele>16.0</ele><time>2026-04-23T10:52:36.328Z</time></trkpt><trkpt lat="33.9872317" lon="8.3229383"><ele>16.0</ele><time>2026-04-23T10:52:37.328Z</time></trkpt><trkpt lat="33.9873333" lon="8.3226583"><ele>16.0</ele><time>2026-04-23T10:52:38.329Z</time></trkpt><trkpt lat="33.98744" lon="8.3223883"><ele>16.0</ele><time>2026-04-23T10:52:39.328Z</time></trkpt><trkpt lat="33.9875333" lon="8.3221033"><ele>15.5</ele><time>2026-04-23T10:52:40.329Z</time></trkpt><trkpt lat="33.9876333" lon="8.32183"><ele>15.0</ele><time>2026-04-23T10:52:41.328Z</time></trkpt><trkpt lat="33.9877317" lon="8.3215533"><ele>17.0</ele><time>2026-04-23T10:52:42.329Z</time></trkpt><trkpt lat="33.9878233" lon="8.3212817"><ele>19.0</ele><time>2026-04-23T10:52:43.328Z</time></trkpt><trkpt lat="33.98793" lon="8.321005"><ele>19.0</ele><time>2026-04-23T10:52:44.328Z</time></trkpt><trkpt lat="33.9880283" lon="8.320725"><ele>19.0</ele><time>2026-04-23T10:52:45.328Z</time></trkpt><trkpt lat="33.9881283" lon="8.32045"><ele>18.0</ele><time>2026-04-23T10:52:46.329Z</time></trkpt><trkpt lat="33.9882267" lon="8.320175"><ele>17.0</ele><time>2026-04-23T10:52:47.328Z</time></trkpt><trkpt lat="33.9883217" lon="8.3199083"><ele>14.5</ele><time>2026-04-23T10:52:48.328Z</time></trkpt><trkpt lat="33.9884117" lon="8.31964"><ele>12.0</ele><time>2026-04-23T10:52:49.328Z</time></trkpt><trkpt lat="33.9885133" lon="8.3193617"><ele>12.0</ele><time>2026-04-23T10:52:50.328Z</time></trkpt><trkpt lat="33.9886133" lon="8.319095"><ele>12.0</ele><time>2026-04-23T10:52:51.329Z</time></trkpt><trkpt lat="33.98872" lon="8.3188217"><ele>14.0</ele><time>2026-04-23T10:52:52.328Z</time></trkpt><trkpt lat="33.9888233" lon="8.31855"><ele>16.0</ele><time>2026-04-23T10:52:53.328Z</time></trkpt><trkpt lat="33.98892" lon="8.3182767"><ele>17.5</ele><time>2026-04-23T10:52:54.329Z</time></trkpt><trkpt lat="33.9890217" lon="8.31801"><ele>19.0</ele><time>2026-04-23T10:52:55.329Z</time></trkpt><trkpt lat="33.9891233" lon="8.3177333"><ele>17.0</ele><time>2026-04-23T10:52:56.329Z</time></trkpt><trkpt lat="33.9892217" lon="8.3174567"><ele>15.0</ele><time>2026-04-23T10:52:57.329Z</time></trkpt><trkpt lat="33.9893233" lon="8.3171783"><ele>13.5</ele><time>2026-04-23T10:52:58.328Z</time></trkpt><trkpt lat="33.9894217" lon="8.31691"><ele>12.0</ele><time>2026-04-23T10:52:59.329Z</time></trkpt><trkpt lat="33.9895183" lon="8.3166367"><ele>14.0</ele><time>2026-04-23T10:53:00.328Z</time></trkpt><trkpt lat="33.9896183" lon="8.3163617"><ele>16.0</ele><time>2026-04-23T10:53:01.328Z</time></trkpt><trkpt lat="33.98972" lon="8.3160783"><ele>16.0</ele><time>2026-04-23T10:53:02.328Z</time></trkpt><trkpt lat="33.98982" lon="8.3157917"><ele>16.0</ele><time>2026-04-23T10:53:03.328Z</time></trkpt><trkpt lat="33.9899233" lon="8.3155017"><ele>17.0</ele><time>2026-04-23T10:53:04.329Z</time></trkpt><trkpt lat="33.99003" lon="8.3152233"><ele>18.0</ele><time>2026-04-23T10:53:05.328Z</time></trkpt><trkpt lat="33.990125" lon="8.31494"><ele>17.5</ele><time>2026-04-23T10:53:06.328Z</time></trkpt><trkpt lat="33.9902233" lon="8.3146617"><ele>17.0</ele><time>2026-04-23T10:53:07.328Z</time></trkpt><trkpt lat="33.9903183" lon="8.3143917"><ele>17.0</ele><time>2026-04-23T10:53:08.328Z</time></trkpt><trkpt lat="33.9904117" lon="8.31413"><ele>17.0</ele><time>2026-04-23T10:53:09.328Z</time></trkpt><trkpt lat="33.99051" lon="8.313865"><ele>17.0</ele><time>2026-04-23T10:53:10.328Z</time></trkpt><trkpt lat="33.9906083" lon="8.31359"><ele>17.0</ele><time>2026-04-23T10:53:11.329Z</time></trkpt><trkpt lat="33.990705" lon="8.3133183"><ele>17.0</ele><time>2026-04-23T10:53:12.328Z</time></trkpt><trkpt lat="33.9907967" lon="8.3130517"><ele>17.0</ele><time>2026-04-23T10:53:13.329Z</time></trkpt><trkpt lat="33.990895" lon="8.3127833"><ele>17.0</ele><time>2026-04-23T10:53:14.329Z</time></trkpt><trkpt lat="33.9909917" lon="8.3124983"><ele>17.0</ele><time>2026-04-23T10:53:15.328Z</time></trkpt><trkpt lat="33.9910983" lon="8.3122283"><ele>16.5</ele><time>2026-04-23T10:53:16.328Z</time></trkpt><trkpt lat="33.9911917" lon="8.3119633"><ele>16.0</ele><time>2026-04-23T10:53:17.328Z</time></trkpt><trkpt lat="33.991295" lon="8.3116983"><ele>16.0</ele><time>2026-04-23T10:53:18.328Z</time></trkpt><trkpt lat="33.9913983" lon="8.3114333"><ele>16.0</ele><time>2026-04-23T10:53:19.329Z</time></trkpt><trkpt lat="33.991495" lon="8.3111617"><ele>16.5</ele><time>2026-04-23T10:53:20.329Z</time></trkpt><trkpt lat="33.99159" lon="8.310895"><ele>17.0</ele><time>2026-04-23T10:53:21.329Z</time></trkpt><trkpt lat="33.991695" lon="8.3106233"><ele>17.0</ele><time>2026-04-23T10:53:22.328Z</time></trkpt><trkpt lat="33.9917917" lon="8.31035"><ele>17.0</ele><time>2026-04-23T10:53:23.329Z</time></trkpt><trkpt lat="33.99189" lon="8.310065"><ele>17.0</ele><time>2026-04-23T10:53:24.329Z</time></trkpt><trkpt lat="33.9919933" lon="8.30979"><ele>17.0</ele><time>2026-04-23T10:53:25.328Z</time></trkpt><trkpt lat="33.9920833" lon="8.309515"><ele>17.0</ele><time>2026-04-23T10:53:26.329Z</time></trkpt><trkpt lat="33.9921783" lon="8.3092417"><ele>17.0</ele><time>2026-04-23T10:53:27.328Z</time></trkpt><trkpt lat="33.9922767" lon="8.30898"><ele>18.0</ele><time>2026-04-23T10:53:28.328Z</time></trkpt><trkpt lat="33.9923783" lon="8.30871"><ele>19.0</ele><time>2026-04-23T10:53:29.328Z</time></trkpt><trkpt lat="33.992475" lon="8.3084333"><ele>18.5</ele><time>2026-04-23T10:53:30.329Z</time></trkpt><trkpt lat="33.9925767" lon="8.3081617"><ele>18.0</ele><time>2026-04-23T10:53:31.328Z</time></trkpt><trkpt lat="33.9926733" lon="8.3078867"><ele>18.0</ele><time>2026-04-23T10:53:32.328Z</time></trkpt><trkpt lat="33.992765" lon="8.3076083"><ele>18.0</ele><time>2026-04-23T10:53:33.329Z</time></trkpt><trkpt lat="33.992865" lon="8.307335"><ele>18.0</ele><time>2026-04-23T10:53:34.328Z</time></trkpt><trkpt lat="33.9929633" lon="8.3070567"><ele>18.0</ele><time>2026-04-23T10:53:35.329Z</time></trkpt><trkpt lat="33.9930633" lon="8.30678"><ele>18.0</ele><time>2026-04-23T10:53:36.329Z</time></trkpt><trkpt lat="33.9931633" lon="8.306505"><ele>18.0</ele><time>2026-04-23T10:53:37.329Z</time></trkpt><trkpt lat="33.9932633" lon="8.3062183"><ele>18.0</ele><time>2026-04-23T10:53:38.328Z</time></trkpt><trkpt lat="33.99337" lon="8.30595"><ele>18.0</ele><time>2026-04-23T10:53:39.329Z</time></trkpt><trkpt lat="33.99347" lon="8.3056767"><ele>18.0</ele><time>2026-04-23T10:53:40.329Z</time></trkpt><trkpt lat="33.993565" lon="8.3054067"><ele>18.0</ele><time>2026-04-23T10:53:41.329Z</time></trkpt><trkpt lat="33.9936633" lon="8.3051333"><ele>18.0</ele><time>2026-04-23T10:53:42.328Z</time></trkpt><trkpt lat="33.9937567" lon="8.304855"><ele>18.0</ele><time>2026-04-23T10:53:43.328Z</time></trkpt><trkpt lat="33.9938533" lon="8.304575"><ele>18.0</ele><time>2026-04-23T10:53:44.328Z</time></trkpt><trkpt lat="33.9939533" lon="8.3043083"><ele>18.0</ele><time>2026-04-23T10:53:45.328Z</time></trkpt><trkpt lat="33.994055" lon="8.3040433"><ele>18.0</ele><time>2026-04-23T10:53:46.328Z</time></trkpt><trkpt lat="33.9941533" lon="8.3037767"><ele>18.0</ele><time>2026-04-23T10:53:47.329Z</time></trkpt><trkpt lat="33.994255" lon="8.3035067"><ele>18.0</ele><time>2026-04-23T10:53:48.329Z</time></trkpt><trkpt lat="33.9943517" lon="8.3032417"><ele>18.0</ele><time>2026-04-23T10:53:49.329Z</time></trkpt><trkpt lat="33.9944467" lon="8.3029633"><ele>17.5</ele><time>2026-04-23T10:53:50.329Z</time></trkpt><trkpt lat="33.9945483" lon="8.3026883"><ele>17.0</ele><time>2026-04-23T10:53:51.328Z</time></trkpt><trkpt lat="33.9946367" lon="8.302415"><ele>17.5</ele><time>2026-04-23T10:53:52.328Z</time></trkpt><trkpt lat="33.9947383" lon="8.3021367"><ele>18.0</ele><time>2026-04-23T10:53:53.328Z</time></trkpt><trkpt lat="33.9948383" lon="8.30186"><ele>18.0</ele><time>2026-04-23T10:53:54.328Z</time></trkpt><trkpt lat="33.994945" lon="8.301585"><ele>18.0</ele><time>2026-04-23T10:53:55.328Z</time></trkpt><trkpt lat="33.995045" lon="8.301305"><ele>17.5</ele><time>2026-04-23T10:53:56.329Z</time></trkpt><trkpt lat="33.9951467" lon="8.3010233"><ele>17.0</ele><time>2026-04-23T10:53:57.328Z</time></trkpt><trkpt lat="33.995245" lon="8.300745"><ele>17.5</ele><time>2026-04-23T10:53:58.328Z</time></trkpt><trkpt lat="33.9953383" lon="8.30047"><ele>18.0</ele><time>2026-04-23T10:53:59.328Z</time></trkpt><trkpt lat="33.9954433" lon="8.3001983"><ele>18.0</ele><time>2026-04-23T10:54:00.328Z</time></trkpt><trkpt lat="33.9955517" lon="8.2999167"><ele>18.0</ele><time>2026-04-23T10:54:01.328Z</time></trkpt><trkpt lat="33.9956617" lon="8.299645"><ele>18.5</ele><time>2026-04-23T10:54:02.328Z</time></trkpt><trkpt lat="33.995775" lon="8.2993883"><ele>19.0</ele><time>2026-04-23T10:54:03.329Z</time></trkpt><trkpt lat="33.995885" lon="8.2991167"><ele>19.0</ele><time>2026-04-23T10:54:04.329Z</time></trkpt><trkpt lat="33.996" lon="8.298855"><ele>19.0</ele><time>2026-04-23T10:54:05.328Z</time></trkpt><trkpt lat="33.99612" lon="8.2985883"><ele>19.0</ele><time>2026-04-23T10:54:06.328Z</time></trkpt><trkpt lat="33.9962417" lon="8.2983283"><ele>19.0</ele><time>2026-04-23T10:54:07.329Z</time></trkpt><trkpt lat="33.9963683" lon="8.2980667"><ele>18.5</ele><time>2026-04-23T10:54:08.329Z</time></trkpt><trkpt lat="33.9964967" lon="8.29781"><ele>18.0</ele><time>2026-04-23T10:54:09.328Z</time></trkpt><trkpt lat="33.9966183" lon="8.2975433"><ele>18.0</ele><time>2026-04-23T10:54:10.329Z</time></trkpt><trkpt lat="33.9967433" lon="8.2972783"><ele>18.0</ele><time>2026-04-23T10:54:11.328Z</time></trkpt><trkpt lat="33.9968683" lon="8.29701"><ele>19.0</ele><time>2026-04-23T10:54:12.329Z</time></trkpt><trkpt lat="33.9969867" lon="8.2967517"><ele>20.0</ele><time>2026-04-23T10:54:13.329Z</time></trkpt><trkpt lat="33.99711" lon="8.296495"><ele>19.0</ele><time>2026-04-23T10:54:14.328Z</time></trkpt><trkpt lat="33.997235" lon="8.2962367"><ele>18.0</ele><time>2026-04-23T10:54:15.329Z</time></trkpt><trkpt lat="33.9973583" lon="8.2959817"><ele>18.0</ele><time>2026-04-23T10:54:16.328Z</time></trkpt><trkpt lat="33.9974783" lon="8.29573"><ele>18.0</ele><time>2026-04-23T10:54:17.328Z</time></trkpt><trkpt lat="33.9976017" lon="8.29547"><ele>18.0</ele><time>2026-04-23T10:54:18.328Z</time></trkpt><trkpt lat="33.9977267" lon="8.2952167"><ele>18.0</ele><time>2026-04-23T10:54:19.329Z</time></trkpt><trkpt lat="33.9978433" lon="8.2949633"><ele>18.5</ele><time>2026-04-23T10:54:20.329Z</time></trkpt><trkpt lat="33.9979667" lon="8.2947033"><ele>19.0</ele><time>2026-04-23T10:54:21.329Z</time></trkpt><trkpt lat="33.9980867" lon="8.294445"><ele>19.0</ele><time>2026-04-23T10:54:22.329Z</time></trkpt><trkpt lat="33.99821" lon="8.294185"><ele>19.0</ele><time>2026-04-23T10:54:23.329Z</time></trkpt><trkpt lat="33.9983367" lon="8.2939217"><ele>19.5</ele><time>2026-04-23T10:54:24.329Z</time></trkpt><trkpt lat="33.998465" lon="8.29366"><ele>20.0</ele><time>2026-04-23T10:54:25.329Z</time></trkpt><trkpt lat="33.998585" lon="8.2933983"><ele>20.0</ele><time>2026-04-23T10:54:26.329Z</time></trkpt><trkpt lat="33.9987033" lon="8.29313"><ele>20.0</ele><time>2026-04-23T10:54:27.328Z</time></trkpt><trkpt lat="33.99883" lon="8.2928633"><ele>19.5</ele><time>2026-04-23T10:54:28.328Z</time></trkpt><trkpt lat="33.9989533" lon="8.292605"><ele>19.0</ele><time>2026-04-23T10:54:29.328Z</time></trkpt><trkpt lat="33.9990733" lon="8.29234"><ele>20.0</ele><time>2026-04-23T10:54:30.328Z</time></trkpt><trkpt lat="33.9991933" lon="8.292075"><ele>21.0</ele><time>2026-04-23T10:54:31.329Z</time></trkpt><trkpt lat="33.9993133" lon="8.2918083"><ele>21.0</ele><time>2026-04-23T10:54:32.328Z</time></trkpt><trkpt lat="33.9994383" lon="8.2915517"><ele>21.0</ele><time>2026-04-23T10:54:33.329Z</time></trkpt><trkpt lat="33.9995583" lon="8.29129"><ele>21.0</ele><time>2026-04-23T10:54:34.328Z</time></trkpt><trkpt lat="33.9996767" lon="8.29104"><ele>21.0</ele><time>2026-04-23T10:54:35.328Z</time></trkpt><trkpt lat="33.9997933" lon="8.2907883"><ele>21.0</ele><time>2026-04-23T10:54:36.328Z</time></trkpt><trkpt lat="33.9999233" lon="8.2905267"><ele>21.0</ele><time>2026-04-23T10:54:37.329Z</time></trkpt><trkpt lat="34.0000517" lon="8.29027"><ele>21.0</ele><time>2026-04-23T10:54:38.329Z</time></trkpt><trkpt lat="34.0001733" lon="8.29001"><ele>21.0</ele><time>2026-04-23T10:54:39.328Z</time></trkpt><trkpt lat="34.0002933" lon="8.2897517"><ele>21.0</ele><time>2026-04-23T10:54:40.328Z</time></trkpt><trkpt lat="34.0004133" lon="8.28949"><ele>21.0</ele><time>2026-04-23T10:54:41.328Z</time></trkpt><trkpt lat="34.0005317" lon="8.2892217"><ele>21.0</ele><time>2026-04-23T10:54:42.329Z</time></trkpt><trkpt lat="34.000655" lon="8.2889667"><ele>21.0</ele><time>2026-04-23T10:54:43.328Z</time></trkpt><trkpt lat="34.0007767" lon="8.2887067"><ele>21.0</ele><time>2026-04-23T10:54:44.329Z</time></trkpt><trkpt lat="34.0009" lon="8.2884567"><ele>21.0</ele><time>2026-04-23T10:54:45.329Z</time></trkpt><trkpt lat="34.0010183" lon="8.2882033"><ele>21.5</ele><time>2026-04-23T10:54:46.329Z</time></trkpt><trkpt lat="34.0011367" lon="8.287955"><ele>22.0</ele><time>2026-04-23T10:54:47.328Z</time></trkpt><trkpt lat="34.001255" lon="8.2876967"><ele>22.0</ele><time>2026-04-23T10:54:48.329Z</time></trkpt><trkpt lat="34.0013717" lon="8.2874367"><ele>22.0</ele><time>2026-04-23T10:54:49.328Z</time></trkpt><trkpt lat="34.0014917" lon="8.2871783"><ele>22.0</ele><time>2026-04-23T10:54:50.329Z</time></trkpt><trkpt lat="34.001615" lon="8.28692"><ele>22.0</ele><time>2026-04-23T10:54:51.329Z</time></trkpt><trkpt lat="34.0017383" lon="8.2866617"><ele>22.5</ele><time>2026-04-23T10:54:52.329Z</time></trkpt><trkpt lat="34.0018583" lon="8.2864067"><ele>23.0</ele><time>2026-04-23T10:54:53.329Z</time></trkpt><trkpt lat="34.00198" lon="8.2861483"><ele>23.0</ele><time>2026-04-23T10:54:54.328Z</time></trkpt><trkpt lat="34.0020983" lon="8.28589"><ele>23.0</ele><time>2026-04-23T10:54:55.329Z</time></trkpt><trkpt lat="34.0022233" lon="8.2856383"><ele>23.5</ele><time>2026-04-23T10:54:56.328Z</time></trkpt><trkpt lat="34.0023433" lon="8.2853817"><ele>24.0</ele><time>2026-04-23T10:54:57.329Z</time></trkpt><trkpt lat="34.0024667" lon="8.2851167"><ele>24.0</ele><time>2026-04-23T10:54:58.328Z</time></trkpt><trkpt lat="34.0025883" lon="8.28486"><ele>24.0</ele><time>2026-04-23T10:54:59.328Z</time></trkpt><trkpt lat="34.0027067" lon="8.2846033"><ele>23.5</ele><time>2026-04-23T10:55:00.328Z</time></trkpt><trkpt lat="34.0028317" lon="8.2843533"><ele>23.0</ele><time>2026-04-23T10:55:01.328Z</time></trkpt><trkpt lat="34.0029483" lon="8.2841017"><ele>23.0</ele><time>2026-04-23T10:55:02.329Z</time></trkpt><trkpt lat="34.0030733" lon="8.2838417"><ele>23.0</ele><time>2026-04-23T10:55:03.329Z</time></trkpt><trkpt lat="34.0031917" lon="8.2835767"><ele>23.0</ele><time>2026-04-23T10:55:04.328Z</time></trkpt><trkpt lat="34.00331" lon="8.28331"><ele>23.0</ele><time>2026-04-23T10:55:05.328Z</time></trkpt><trkpt lat="34.0034333" lon="8.2830617"><ele>24.0</ele><time>2026-04-23T10:55:06.329Z</time></trkpt><trkpt lat="34.0035533" lon="8.2828"><ele>25.0</ele><time>2026-04-23T10:55:07.329Z</time></trkpt><trkpt lat="34.0036767" lon="8.282545"><ele>25.0</ele><time>2026-04-23T10:55:08.328Z</time></trkpt><trkpt lat="34.0038" lon="8.282285"><ele>25.0</ele><time>2026-04-23T10:55:09.328Z</time></trkpt><trkpt lat="34.0039233" lon="8.28202"><ele>24.0</ele><time>2026-04-23T10:55:10.328Z</time></trkpt><trkpt lat="34.004045" lon="8.2817617"><ele>23.0</ele><time>2026-04-23T10:55:11.327Z</time></trkpt><trkpt lat="34.004165" lon="8.2814933"><ele>23.5</ele><time>2026-04-23T10:55:12.328Z</time></trkpt><trkpt lat="34.0042867" lon="8.2812367"><ele>24.0</ele><time>2026-04-23T10:55:13.328Z</time></trkpt><trkpt lat="34.0044017" lon="8.2809867"><ele>24.0</ele><time>2026-04-23T10:55:14.327Z</time></trkpt><trkpt lat="34.0045217" lon="8.280735"><ele>24.0</ele><time>2026-04-23T10:55:15.327Z</time></trkpt><trkpt lat="34.00464" lon="8.2804733"><ele>24.0</ele><time>2026-04-23T10:55:16.327Z</time></trkpt><trkpt lat="34.0047583" lon="8.280205"><ele>24.0</ele><time>2026-04-23T10:55:17.327Z</time></trkpt><trkpt lat="34.0048767" lon="8.2799433"><ele>23.5</ele><time>2026-04-23T10:55:18.328Z</time></trkpt><trkpt lat="34.005005" lon="8.2796767"><ele>23.0</ele><time>2026-04-23T10:55:19.327Z</time></trkpt><trkpt lat="34.0051233" lon="8.27942"><ele>23.0</ele><time>2026-04-23T10:55:20.328Z</time></trkpt><trkpt lat="34.00524" lon="8.2791633"><ele>23.0</ele><time>2026-04-23T10:55:21.327Z</time></trkpt><trkpt lat="34.0053617" lon="8.2789117"><ele>24.0</ele><time>2026-04-23T10:55:22.328Z</time></trkpt><trkpt lat="34.005485" lon="8.2786533"><ele>25.0</ele><time>2026-04-23T10:55:23.327Z</time></trkpt><trkpt lat="34.0056133" lon="8.2783967"><ele>25.0</ele><time>2026-04-23T10:55:24.328Z</time></trkpt><trkpt lat="34.00574" lon="8.27814"><ele>25.0</ele><time>2026-04-23T10:55:25.328Z</time></trkpt><trkpt lat="34.0058633" lon="8.2778883"><ele>26.0</ele><time>2026-04-23T10:55:26.327Z</time></trkpt><trkpt lat="34.0059883" lon="8.2776383"><ele>27.0</ele><time>2026-04-23T10:55:27.327Z</time></trkpt><trkpt lat="34.0061117" lon="8.2773833"><ele>28.0</ele><time>2026-04-23T10:55:28.328Z</time></trkpt><trkpt lat="34.0062267" lon="8.2771367"><ele>29.0</ele><time>2026-04-23T10:55:29.328Z</time></trkpt><trkpt lat="34.0063433" lon="8.27691"><ele>29.0</ele><time>2026-04-23T10:55:30.327Z</time></trkpt><trkpt lat="34.0064417" lon="8.2767033"><ele>29.0</ele><time>2026-04-23T10:55:31.327Z</time></trkpt><trkpt lat="34.0065317" lon="8.2765083"><ele>29.0</ele><time>2026-04-23T10:55:32.327Z</time></trkpt><trkpt lat="34.006615" lon="8.2763417"><ele>29.6</ele><time>2026-04-23T10:55:33.327Z</time></trkpt><trkpt lat="34.0066867" lon="8.2762133"><ele>30.2</ele><time>2026-04-23T10:55:34.327Z</time></trkpt><trkpt lat="34.00674" lon="8.2761117"><ele>30.800000000000004</ele><time>2026-04-23T10:55:35.328Z</time></trkpt><trkpt lat="34.0067833" lon="8.2760367"><ele>31.400000000000002</ele><time>2026-04-23T10:55:36.327Z</time></trkpt><trkpt lat="34.006825" lon="8.2759583"><ele>32.0</ele><time>2026-04-23T10:55:38.327Z</time></trkpt><trkpt lat="34.006875" lon="8.2759017"><ele>31.999999999999996</ele><time>2026-04-23T10:55:43.328Z</time></trkpt><trkpt lat="34.0069417" lon="8.27581"><ele>32.0</ele><time>2026-04-23T10:55:45.328Z</time></trkpt><trkpt lat="34.0069417" lon="8.2757033"><ele>32.0</ele><time>2026-04-23T10:55:47.328Z</time></trkpt><trkpt lat="34.0068533" lon="8.2756683"><ele>32.0</ele><time>2026-04-23T10:55:49.327Z</time></trkpt><trkpt lat="34.006785" lon="8.2756767"><ele>31.999999999999996</ele><time>2026-04-23T10:55:50.328Z</time></trkpt><trkpt lat="34.00671" lon="8.275685"><ele>32.0</ele><time>2026-04-23T10:55:51.328Z</time></trkpt><trkpt lat="34.0066233" lon="8.2756933"><ele>31.400000000000002</ele><time>2026-04-23T10:55:52.328Z</time></trkpt><trkpt lat="34.006535" lon="8.2756933"><ele>30.800000000000004</ele><time>2026-04-23T10:55:53.328Z</time></trkpt><trkpt lat="34.0064333" lon="8.2756817"><ele>30.2</ele><time>2026-04-23T10:55:54.328Z</time></trkpt><trkpt lat="34.0063233" lon="8.275665"><ele>29.6</ele><time>2026-04-23T10:55:55.327Z</time></trkpt><trkpt lat="34.0061983" lon="8.2756483"><ele>29.0</ele><time>2026-04-23T10:55:56.328Z</time></trkpt><trkpt lat="34.006075" lon="8.2756183"><ele>29.0</ele><time>2026-04-23T10:55:57.327Z</time></trkpt><trkpt lat="34.0059467" lon="8.2755933"><ele>29.0</ele><time>2026-04-23T10:55:58.328Z</time></trkpt><trkpt lat="34.0058083" lon="8.2755683"><ele>29.0</ele><time>2026-04-23T10:55:59.327Z</time></trkpt><trkpt lat="34.0056683" lon="8.2755483"><ele>29.0</ele><time>2026-04-23T10:56:00.328Z</time></trkpt><trkpt lat="34.0055233" lon="8.275525"><ele>28.666666666666664</ele><time>2026-04-23T10:56:01.327Z</time></trkpt><trkpt lat="34.0053733" lon="8.2754983"><ele>28.333333333333336</ele><time>2026-04-23T10:56:02.328Z</time></trkpt><trkpt lat="34.005225" lon="8.2754733"><ele>28.0</ele><time>2026-04-23T10:56:03.327Z</time></trkpt><trkpt lat="34.0050733" lon="8.2754417"><ele>27.666666666666668</ele><time>2026-04-23T10:56:04.328Z</time></trkpt><trkpt lat="34.0049067" lon="8.2754183"><ele>27.333333333333336</ele><time>2026-04-23T10:56:05.328Z</time></trkpt><trkpt lat="34.0047367" lon="8.27539"><ele>27.0</ele><time>2026-04-23T10:56:06.327Z</time></trkpt><trkpt lat="34.0045567" lon="8.2753633"><ele>27.0</ele><time>2026-04-23T10:56:07.328Z</time></trkpt><trkpt lat="34.004375" lon="8.2753417"><ele>27.0</ele><time>2026-04-23T10:56:08.327Z</time></trkpt><trkpt lat="34.0041917" lon="8.2753167"><ele>27.0</ele><time>2026-04-23T10:56:09.327Z</time></trkpt><trkpt lat="34.0040017" lon="8.2752883"><ele>26.0</ele><time>2026-04-23T10:56:10.328Z</time></trkpt><trkpt lat="34.003815" lon="8.2752633"><ele>25.0</ele><time>2026-04-23T10:56:11.327Z</time></trkpt><trkpt lat="34.0036267" lon="8.275235"><ele>24.0</ele><time>2026-04-23T10:56:12.328Z</time></trkpt><trkpt lat="34.0034317" lon="8.2752033"><ele>24.333333333333336</ele><time>2026-04-23T10:56:13.328Z</time></trkpt><trkpt lat="34.00323" lon="8.2751717"><ele>24.666666666666668</ele><time>2026-04-23T10:56:14.327Z</time></trkpt><trkpt lat="34.0030267" lon="8.2751433"><ele>25.0</ele><time>2026-04-23T10:56:15.328Z</time></trkpt><trkpt lat="34.0028183" lon="8.2751133"><ele>25.0</ele><time>2026-04-23T10:56:16.327Z</time></trkpt><trkpt lat="34.002615" lon="8.2750867"><ele>25.0</ele><time>2026-04-23T10:56:17.327Z</time></trkpt><trkpt lat="34.00241" lon="8.2750483"><ele>25.0</ele><time>2026-04-23T10:56:18.328Z</time></trkpt><trkpt lat="34.0021917" lon="8.2750267"><ele>24.666666666666668</ele><time>2026-04-23T10:56:19.328Z</time></trkpt><trkpt lat="34.0019783" lon="8.275"><ele>24.333333333333336</ele><time>2026-04-23T10:56:20.328Z</time></trkpt><trkpt lat="34.0017717" lon="8.2749717"><ele>24.0</ele><time>2026-04-23T10:56:21.328Z</time></trkpt><trkpt lat="34.001565" lon="8.2749433"><ele>24.0</ele><time>2026-04-23T10:56:22.327Z</time></trkpt><trkpt lat="34.0013517" lon="8.274915"><ele>24.0</ele><time>2026-04-23T10:56:23.328Z</time></trkpt><trkpt lat="34.0011383" lon="8.2748883"><ele>24.0</ele><time>2026-04-23T10:56:24.327Z</time></trkpt><trkpt lat="34.00093" lon="8.2748583"><ele>24.0</ele><time>2026-04-23T10:56:25.328Z</time></trkpt><trkpt lat="34.0007233" lon="8.274815"><ele>24.0</ele><time>2026-04-23T10:56:26.328Z</time></trkpt><trkpt lat="34.0004933" lon="8.2747883"><ele>24.0</ele><time>2026-04-23T10:56:27.327Z</time></trkpt><trkpt lat="34.0002733" lon="8.27476"><ele>24.333333333333336</ele><time>2026-04-23T10:56:28.328Z</time></trkpt><trkpt lat="34.000055" lon="8.2747317"><ele>24.666666666666668</ele><time>2026-04-23T10:56:29.328Z</time></trkpt><trkpt lat="33.999835" lon="8.2746983"><ele>25.0</ele><time>2026-04-23T10:56:30.327Z</time></trkpt><trkpt lat="33.99962" lon="8.2746567"><ele>25.0</ele><time>2026-04-23T10:56:31.327Z</time></trkpt><trkpt lat="33.9993983" lon="8.2746167"><ele>25.0</ele><time>2026-04-23T10:56:32.327Z</time></trkpt><trkpt lat="33.9991833" lon="8.2745733"><ele>25.0</ele><time>2026-04-23T10:56:33.327Z</time></trkpt><trkpt lat="33.998955" lon="8.274535"><ele>25.0</ele><time>2026-04-23T10:56:34.327Z</time></trkpt><trkpt lat="33.99873" lon="8.2745"><ele>25.0</ele><time>2026-04-23T10:56:35.327Z</time></trkpt><trkpt lat="33.9985067" lon="8.2744633"><ele>25.0</ele><time>2026-04-23T10:56:36.327Z</time></trkpt><trkpt lat="33.99828" lon="8.2744383"><ele>25.0</ele><time>2026-04-23T10:56:37.327Z</time></trkpt><trkpt lat="33.998055" lon="8.2744117"><ele>25.0</ele><time>2026-04-23T10:56:38.327Z</time></trkpt><trkpt lat="33.9978217" lon="8.274385"><ele>25.0</ele><time>2026-04-23T10:56:39.327Z</time></trkpt><trkpt lat="33.9975933" lon="8.2743567"><ele>24.5</ele><time>2026-04-23T10:56:40.327Z</time></trkpt><trkpt lat="33.9973667" lon="8.27433"><ele>24.0</ele><time>2026-04-23T10:56:41.328Z</time></trkpt><trkpt lat="33.9971417" lon="8.2743083"><ele>24.0</ele><time>2026-04-23T10:56:42.328Z</time></trkpt><trkpt lat="33.9969183" lon="8.2742717"><ele>24.0</ele><time>2026-04-23T10:56:43.327Z</time></trkpt><trkpt lat="33.996685" lon="8.2742433"><ele>24.0</ele><time>2026-04-23T10:56:44.327Z</time></trkpt><trkpt lat="33.9964567" lon="8.2742133"><ele>24.0</ele><time>2026-04-23T10:56:45.328Z</time></trkpt><trkpt lat="33.99623" lon="8.2741767"><ele>24.0</ele><time>2026-04-23T10:56:46.328Z</time></trkpt><trkpt lat="33.99601" lon="8.2741367"><ele>24.0</ele><time>2026-04-23T10:56:47.328Z</time></trkpt><trkpt lat="33.9957817" lon="8.2741017"><ele>23.5</ele><time>2026-04-23T10:56:48.328Z</time></trkpt><trkpt lat="33.99556" lon="8.2740633"><ele>23.0</ele><time>2026-04-23T10:56:49.327Z</time></trkpt><trkpt lat="33.99533" lon="8.274025"><ele>23.0</ele><time>2026-04-23T10:56:50.327Z</time></trkpt><trkpt lat="33.9950933" lon="8.2739917"><ele>23.0</ele><time>2026-04-23T10:56:51.328Z</time></trkpt><trkpt lat="33.994865" lon="8.2739633"><ele>23.5</ele><time>2026-04-23T10:56:52.328Z</time></trkpt><trkpt lat="33.99463" lon="8.2739367"><ele>24.0</ele><time>2026-04-23T10:56:53.328Z</time></trkpt><trkpt lat="33.994405" lon="8.2738983"><ele>24.0</ele><time>2026-04-23T10:56:54.327Z</time></trkpt><trkpt lat="33.9941683" lon="8.2738633"><ele>24.0</ele><time>2026-04-23T10:56:55.327Z</time></trkpt><trkpt lat="33.993935" lon="8.273835"><ele>24.0</ele><time>2026-04-23T10:56:56.327Z</time></trkpt><trkpt lat="33.9937017" lon="8.2738083"><ele>24.0</ele><time>2026-04-23T10:56:57.327Z</time></trkpt><trkpt lat="33.9934667" lon="8.2737833"><ele>23.5</ele><time>2026-04-23T10:56:58.327Z</time></trkpt><trkpt lat="33.9932333" lon="8.2737583"><ele>23.0</ele><time>2026-04-23T10:56:59.327Z</time></trkpt><trkpt lat="33.99301" lon="8.27373"><ele>23.0</ele><time>2026-04-23T10:57:00.328Z</time></trkpt><trkpt lat="33.9927867" lon="8.273705"><ele>23.0</ele><time>2026-04-23T10:57:01.328Z</time></trkpt><trkpt lat="33.9925583" lon="8.2736783"><ele>22.5</ele><time>2026-04-23T10:57:02.328Z</time></trkpt><trkpt lat="33.9923233" lon="8.273655"><ele>22.0</ele><time>2026-04-23T10:57:03.327Z</time></trkpt><trkpt lat="33.9920983" lon="8.2736367"><ele>22.0</ele><time>2026-04-23T10:57:04.327Z</time></trkpt><trkpt lat="33.99187" lon="8.273615"><ele>22.0</ele><time>2026-04-23T10:57:05.328Z</time></trkpt><trkpt lat="33.99165" lon="8.27357"><ele>22.0</ele><time>2026-04-23T10:57:06.327Z</time></trkpt><trkpt lat="33.9914317" lon="8.2735117"><ele>22.0</ele><time>2026-04-23T10:57:07.327Z</time></trkpt><trkpt lat="33.991215" lon="8.2734333"><ele>22.0</ele><time>2026-04-23T10:57:08.328Z</time></trkpt><trkpt lat="33.9910017" lon="8.27334"><ele>22.0</ele><time>2026-04-23T10:57:09.327Z</time></trkpt><trkpt lat="33.9907983" lon="8.2732167"><ele>22.0</ele><time>2026-04-23T10:57:10.327Z</time></trkpt><trkpt lat="33.990595" lon="8.27309"><ele>22.0</ele><time>2026-04-23T10:57:11.328Z</time></trkpt><trkpt lat="33.9903967" lon="8.2729533"><ele>22.0</ele><time>2026-04-23T10:57:12.328Z</time></trkpt><trkpt lat="33.9902017" lon="8.2728017"><ele>22.0</ele><time>2026-04-23T10:57:13.328Z</time></trkpt><trkpt lat="33.9900067" lon="8.2726467"><ele>22.0</ele><time>2026-04-23T10:57:14.328Z</time></trkpt><trkpt lat="33.9898133" lon="8.2724967"><ele>22.0</ele><time>2026-04-23T10:57:15.327Z</time></trkpt><trkpt lat="33.9896117" lon="8.272355"><ele>22.0</ele><time>2026-04-23T10:57:16.328Z</time></trkpt><trkpt lat="33.98941" lon="8.2722133"><ele>22.0</ele><time>2026-04-23T10:57:17.328Z</time></trkpt><trkpt lat="33.9892183" lon="8.2720633"><ele>22.5</ele><time>2026-04-23T10:57:18.327Z</time></trkpt><trkpt lat="33.9890267" lon="8.2719167"><ele>23.0</ele><time>2026-04-23T10:57:19.327Z</time></trkpt><trkpt lat="33.98883" lon="8.27176"><ele>23.0</ele><time>2026-04-23T10:57:20.328Z</time></trkpt><trkpt lat="33.988645" lon="8.2715983"><ele>23.0</ele><time>2026-04-23T10:57:21.328Z</time></trkpt><trkpt lat="33.9884817" lon="8.271425"><ele>23.0</ele><time>2026-04-23T10:57:22.327Z</time></trkpt><trkpt lat="33.9883367" lon="8.27124"><ele>22.666666666666668</ele><time>2026-04-23T10:57:23.328Z</time></trkpt><trkpt lat="33.9882117" lon="8.271025"><ele>22.333333333333332</ele><time>2026-04-23T10:57:24.328Z</time></trkpt><trkpt lat="33.9881067" lon="8.2708083"><ele>22.0</ele><time>2026-04-23T10:57:25.327Z</time></trkpt><trkpt lat="33.9880283" lon="8.2705667"><ele>22.0</ele><time>2026-04-23T10:57:26.327Z</time></trkpt><trkpt lat="33.9879567" lon="8.2703267"><ele>22.0</ele><time>2026-04-23T10:57:27.328Z</time></trkpt><trkpt lat="33.9878867" lon="8.27008"><ele>22.0</ele><time>2026-04-23T10:57:28.328Z</time></trkpt><trkpt lat="33.9878167" lon="8.2698283"><ele>22.333333333333332</ele><time>2026-04-23T10:57:29.328Z</time></trkpt><trkpt lat="33.987745" lon="8.2695817"><ele>22.666666666666668</ele><time>2026-04-23T10:57:30.327Z</time></trkpt><trkpt lat="33.98768" lon="8.2693267"><ele>23.0</ele><time>2026-04-23T10:57:31.328Z</time></trkpt><trkpt lat="33.987595" lon="8.2690783"><ele>23.333333333333336</ele><time>2026-04-23T10:57:32.327Z</time></trkpt><trkpt lat="33.9875033" lon="8.268835"><ele>23.666666666666668</ele><time>2026-04-23T10:57:33.327Z</time></trkpt><trkpt lat="33.9874033" lon="8.2686017"><ele>24.0</ele><time>2026-04-23T10:57:34.328Z</time></trkpt><trkpt lat="33.9872967" lon="8.2683617"><ele>24.0</ele><time>2026-04-23T10:57:35.327Z</time></trkpt><trkpt lat="33.987185" lon="8.268125"><ele>24.0</ele><time>2026-04-23T10:57:36.327Z</time></trkpt><trkpt lat="33.987075" lon="8.2678917"><ele>24.0</ele><time>2026-04-23T10:57:37.328Z</time></trkpt><trkpt lat="33.9869533" lon="8.2676533"><ele>24.0</ele><time>2026-04-23T10:57:38.327Z</time></trkpt><trkpt lat="33.9868367" lon="8.2674167"><ele>24.0</ele><time>2026-04-23T10:57:39.327Z</time></trkpt><trkpt lat="33.9867133" lon="8.2671817"><ele>24.0</ele><time>2026-04-23T10:57:40.327Z</time></trkpt><trkpt lat="33.9866" lon="8.2669433"><ele>24.0</ele><time>2026-04-23T10:57:41.327Z</time></trkpt><trkpt lat="33.98649" lon="8.2667067"><ele>24.0</ele><time>2026-04-23T10:57:42.327Z</time></trkpt><trkpt lat="33.9863717" lon="8.2664717"><ele>24.0</ele><time>2026-04-23T10:57:43.328Z</time></trkpt><trkpt lat="33.98625" lon="8.2662417"><ele>24.0</ele><time>2026-04-23T10:57:44.327Z</time></trkpt><trkpt lat="33.9861217" lon="8.2660133"><ele>24.0</ele><time>2026-04-23T10:57:45.328Z</time></trkpt><trkpt lat="33.986005" lon="8.2657833"><ele>24.666666666666664</ele><time>2026-04-23T10:57:46.327Z</time></trkpt><trkpt lat="33.9858933" lon="8.26555"><ele>25.333333333333332</ele><time>2026-04-23T10:57:47.327Z</time></trkpt><trkpt lat="33.98578" lon="8.2653183"><ele>26.0</ele><time>2026-04-23T10:57:48.328Z</time></trkpt><trkpt lat="33.9856633" lon="8.2650833"><ele>25.5</ele><time>2026-04-23T10:57:49.327Z</time></trkpt><trkpt lat="33.985545" lon="8.2648483"><ele>25.0</ele><time>2026-04-23T10:57:50.328Z</time></trkpt><trkpt lat="33.9854283" lon="8.2646133"><ele>25.0</ele><time>2026-04-23T10:57:51.327Z</time></trkpt><trkpt lat="33.9853167" lon="8.26438"><ele>25.0</ele><time>2026-04-23T10:57:52.327Z</time></trkpt><trkpt lat="33.9852133" lon="8.26414"><ele>25.0</ele><time>2026-04-23T10:57:53.328Z</time></trkpt><trkpt lat="33.9851083" lon="8.2639"><ele>25.0</ele><time>2026-04-23T10:57:54.327Z</time></trkpt><trkpt lat="33.9850017" lon="8.2636533"><ele>25.0</ele><time>2026-04-23T10:57:55.328Z</time></trkpt><trkpt lat="33.984905" lon="8.2634033"><ele>25.0</ele><time>2026-04-23T10:57:56.328Z</time></trkpt><trkpt lat="33.98482" lon="8.26316"><ele>25.0</ele><time>2026-04-23T10:57:57.328Z</time></trkpt><trkpt lat="33.98475" lon="8.2629083"><ele>25.0</ele><time>2026-04-23T10:57:58.327Z</time></trkpt><trkpt lat="33.9846983" lon="8.262655"><ele>25.0</ele><time>2026-04-23T10:57:59.328Z</time></trkpt><trkpt lat="33.984675" lon="8.262395"><ele>25.0</ele><time>2026-04-23T10:58:00.327Z</time></trkpt><trkpt lat="33.9846667" lon="8.2621333"><ele>25.0</ele><time>2026-04-23T10:58:01.328Z</time></trkpt><trkpt lat="33.9846817" lon="8.26188"><ele>25.333333333333336</ele><time>2026-04-23T10:58:02.327Z</time></trkpt><trkpt lat="33.9847167" lon="8.2616283"><ele>25.666666666666664</ele><time>2026-04-23T10:58:03.328Z</time></trkpt><trkpt lat="33.98476" lon="8.26137"><ele>26.0</ele><time>2026-04-23T10:58:04.328Z</time></trkpt><trkpt lat="33.9848133" lon="8.26111"><ele>26.0</ele><time>2026-04-23T10:58:05.327Z</time></trkpt><trkpt lat="33.9848767" lon="8.2608517"><ele>26.0</ele><time>2026-04-23T10:58:06.327Z</time></trkpt><trkpt lat="33.984945" lon="8.2605933"><ele>26.0</ele><time>2026-04-23T10:58:07.327Z</time></trkpt><trkpt lat="33.98502" lon="8.260325"><ele>25.5</ele><time>2026-04-23T10:58:08.327Z</time></trkpt><trkpt lat="33.9850933" lon="8.26006"><ele>25.0</ele><time>2026-04-23T10:58:09.328Z</time></trkpt><trkpt lat="33.9851617" lon="8.2598033"><ele>25.0</ele><time>2026-04-23T10:58:10.327Z</time></trkpt><trkpt lat="33.9852367" lon="8.2595467"><ele>25.0</ele><time>2026-04-23T10:58:11.328Z</time></trkpt><trkpt lat="33.9853167" lon="8.25929"><ele>25.0</ele><time>2026-04-23T10:58:12.327Z</time></trkpt><trkpt lat="33.9853917" lon="8.25903"><ele>25.0</ele><time>2026-04-23T10:58:13.327Z</time></trkpt><trkpt lat="33.9854733" lon="8.25877"><ele>26.0</ele><time>2026-04-23T10:58:14.327Z</time></trkpt><trkpt lat="33.9855583" lon="8.2585167"><ele>27.0</ele><time>2026-04-23T10:58:15.328Z</time></trkpt><trkpt lat="33.9856433" lon="8.2582617"><ele>27.5</ele><time>2026-04-23T10:58:16.327Z</time></trkpt><trkpt lat="33.9857317" lon="8.258"><ele>28.0</ele><time>2026-04-23T10:58:17.328Z</time></trkpt><trkpt lat="33.985825" lon="8.25774"><ele>28.0</ele><time>2026-04-23T10:58:18.327Z</time></trkpt><trkpt lat="33.98592" lon="8.2574817"><ele>28.0</ele><time>2026-04-23T10:58:19.327Z</time></trkpt><trkpt lat="33.9860267" lon="8.25724"><ele>28.0</ele><time>2026-04-23T10:58:20.327Z</time></trkpt><trkpt lat="33.9861533" lon="8.2570083"><ele>28.0</ele><time>2026-04-23T10:58:21.327Z</time></trkpt><trkpt lat="33.9862867" lon="8.2567867"><ele>28.0</ele><time>2026-04-23T10:58:22.327Z</time></trkpt><trkpt lat="33.9864267" lon="8.2565633"><ele>28.0</ele><time>2026-04-23T10:58:23.328Z</time></trkpt><trkpt lat="33.986565" lon="8.2563517"><ele>28.5</ele><time>2026-04-23T10:58:24.328Z</time></trkpt><trkpt lat="33.9867117" lon="8.2561367"><ele>29.0</ele><time>2026-04-23T10:58:25.327Z</time></trkpt><trkpt lat="33.98686" lon="8.2559183"><ele>29.0</ele><time>2026-04-23T10:58:26.327Z</time></trkpt><trkpt lat="33.9870033" lon="8.2557083"><ele>29.0</ele><time>2026-04-23T10:58:27.327Z</time></trkpt><trkpt lat="33.9871367" lon="8.2554817"><ele>29.0</ele><time>2026-04-23T10:58:28.327Z</time></trkpt><trkpt lat="33.9872717" lon="8.2552583"><ele>29.0</ele><time>2026-04-23T10:58:29.328Z</time></trkpt><trkpt lat="33.9874017" lon="8.2550217"><ele>28.5</ele><time>2026-04-23T10:58:30.327Z</time></trkpt><trkpt lat="33.9875167" lon="8.2547783"><ele>28.0</ele><time>2026-04-23T10:58:31.327Z</time></trkpt><trkpt lat="33.9876267" lon="8.2545417"><ele>28.0</ele><time>2026-04-23T10:58:32.327Z</time></trkpt><trkpt lat="33.9877183" lon="8.2542883"><ele>28.0</ele><time>2026-04-23T10:58:33.327Z</time></trkpt><trkpt lat="33.987805" lon="8.25403"><ele>29.0</ele><time>2026-04-23T10:58:34.327Z</time></trkpt><trkpt lat="33.9878867" lon="8.25376"><ele>30.0</ele><time>2026-04-23T10:58:35.327Z</time></trkpt><trkpt lat="33.9879567" lon="8.2534867"><ele>30.0</ele><time>2026-04-23T10:58:36.328Z</time></trkpt><trkpt lat="33.9880217" lon="8.25323"><ele>30.0</ele><time>2026-04-23T10:58:37.327Z</time></trkpt><trkpt lat="33.9880767" lon="8.2529833"><ele>30.0</ele><time>2026-04-23T10:58:38.328Z</time></trkpt><trkpt lat="33.9881233" lon="8.2527483"><ele>30.0</ele><time>2026-04-23T10:58:39.328Z</time></trkpt><trkpt lat="33.9881233" lon="8.25252"><ele>30.0</ele><time>2026-04-23T10:58:40.328Z</time></trkpt><trkpt lat="33.9880817" lon="8.252315"><ele>30.0</ele><time>2026-04-23T10:58:41.328Z</time></trkpt><trkpt lat="33.9880067" lon="8.2521267"><ele>30.333333333333336</ele><time>2026-04-23T10:58:42.328Z</time></trkpt><trkpt lat="33.9879067" lon="8.2519633"><ele>30.666666666666668</ele><time>2026-04-23T10:58:43.328Z</time></trkpt><trkpt lat="33.98779" lon="8.2517967"><ele>31.0</ele><time>2026-04-23T10:58:44.327Z</time></trkpt><trkpt lat="33.9876533" lon="8.2516367"><ele>31.0</ele><time>2026-04-23T10:58:45.328Z</time></trkpt><trkpt lat="33.98751" lon="8.251475"><ele>31.0</ele><time>2026-04-23T10:58:46.328Z</time></trkpt><trkpt lat="33.9873667" lon="8.251325"><ele>31.0</ele><time>2026-04-23T10:58:47.328Z</time></trkpt><trkpt lat="33.9872283" lon="8.2511583"><ele>31.0</ele><time>2026-04-23T10:58:48.328Z</time></trkpt><trkpt lat="33.98709" lon="8.250985"><ele>31.0</ele><time>2026-04-23T10:58:49.327Z</time></trkpt><trkpt lat="33.9869467" lon="8.2508083"><ele>31.0</ele><time>2026-04-23T10:58:50.327Z</time></trkpt><trkpt lat="33.9868033" lon="8.250625"><ele>31.0</ele><time>2026-04-23T10:58:51.328Z</time></trkpt><trkpt lat="33.98667" lon="8.2504333"><ele>31.0</ele><time>2026-04-23T10:58:52.328Z</time></trkpt><trkpt lat="33.986545" lon="8.2502383"><ele>31.0</ele><time>2026-04-23T10:58:53.328Z</time></trkpt><trkpt lat="33.9864333" lon="8.2500283"><ele>31.0</ele><time>2026-04-23T10:58:54.327Z</time></trkpt><trkpt lat="33.9863117" lon="8.2498183"><ele>31.0</ele><time>2026-04-23T10:58:55.328Z</time></trkpt><trkpt lat="33.9861767" lon="8.2496117"><ele>31.0</ele><time>2026-04-23T10:58:56.327Z</time></trkpt><trkpt lat="33.9860367" lon="8.2494"><ele>31.0</ele><time>2026-04-23T10:58:57.327Z</time></trkpt><trkpt lat="33.98589" lon="8.2491917"><ele>31.0</ele><time>2026-04-23T10:58:58.326Z</time></trkpt><trkpt lat="33.98573" lon="8.2490067"><ele>31.0</ele><time>2026-04-23T10:58:59.326Z</time></trkpt><trkpt lat="33.9855633" lon="8.2488267"><ele>31.0</ele><time>2026-04-23T10:59:00.326Z</time></trkpt><trkpt lat="33.985395" lon="8.24866"><ele>31.0</ele><time>2026-04-23T10:59:01.326Z</time></trkpt><trkpt lat="33.9852183" lon="8.2485017"><ele>31.0</ele><time>2026-04-23T10:59:02.327Z</time></trkpt><trkpt lat="33.9850233" lon="8.2483667"><ele>31.0</ele><time>2026-04-23T10:59:03.326Z</time></trkpt><trkpt lat="33.9848233" lon="8.24825"><ele>31.0</ele><time>2026-04-23T10:59:04.326Z</time></trkpt><trkpt lat="33.9846233" lon="8.2481233"><ele>31.0</ele><time>2026-04-23T10:59:05.327Z</time></trkpt><trkpt lat="33.9844183" lon="8.2479967"><ele>31.0</ele><time>2026-04-23T10:59:06.326Z</time></trkpt><trkpt lat="33.98421" lon="8.2478733"><ele>31.0</ele><time>2026-04-23T10:59:07.326Z</time></trkpt><trkpt lat="33.9840083" lon="8.24775"><ele>30.5</ele><time>2026-04-23T10:59:08.327Z</time></trkpt><trkpt lat="33.9838033" lon="8.24762"><ele>30.0</ele><time>2026-04-23T10:59:09.327Z</time></trkpt><trkpt lat="33.9835967" lon="8.2474933"><ele>30.0</ele><time>2026-04-23T10:59:10.327Z</time></trkpt><trkpt lat="33.9834067" lon="8.2473717"><ele>30.0</ele><time>2026-04-23T10:59:11.327Z</time></trkpt><trkpt lat="33.983225" lon="8.247255"><ele>30.0</ele><time>2026-04-23T10:59:12.326Z</time></trkpt><trkpt lat="33.9830733" lon="8.2471317"><ele>30.0</ele><time>2026-04-23T10:59:13.326Z</time></trkpt><trkpt lat="33.982935" lon="8.2469817"><ele>30.0</ele><time>2026-04-23T10:59:14.326Z</time></trkpt><trkpt lat="33.9828067" lon="8.2468183"><ele>30.0</ele><time>2026-04-23T10:59:15.327Z</time></trkpt><trkpt lat="33.9826883" lon="8.2466367"><ele>29.666666666666664</ele><time>2026-04-23T10:59:16.326Z</time></trkpt><trkpt lat="33.9825633" lon="8.2464483"><ele>29.333333333333332</ele><time>2026-04-23T10:59:17.326Z</time></trkpt><trkpt lat="33.98244" lon="8.246255"><ele>29.0</ele><time>2026-04-23T10:59:18.326Z</time></trkpt><trkpt lat="33.9823133" lon="8.2460583"><ele>28.666666666666664</ele><time>2026-04-23T10:59:19.326Z</time></trkpt><trkpt lat="33.982185" lon="8.2458467"><ele>28.333333333333336</ele><time>2026-04-23T10:59:20.326Z</time></trkpt><trkpt lat="33.9820517" lon="8.245645"><ele>28.0</ele><time>2026-04-23T10:59:21.326Z</time></trkpt><trkpt lat="33.98192" lon="8.24544"><ele>28.0</ele><time>2026-04-23T10:59:22.326Z</time></trkpt><trkpt lat="33.9817817" lon="8.2452317"><ele>28.0</ele><time>2026-04-23T10:59:23.326Z</time></trkpt><trkpt lat="33.9816433" lon="8.2450217"><ele>28.0</ele><time>2026-04-23T10:59:24.327Z</time></trkpt><trkpt lat="33.9815067" lon="8.2448017"><ele>28.0</ele><time>2026-04-23T10:59:25.326Z</time></trkpt><trkpt lat="33.9813633" lon="8.2445817"><ele>28.0</ele><time>2026-04-23T10:59:26.327Z</time></trkpt><trkpt lat="33.9812233" lon="8.2443583"><ele>28.0</ele><time>2026-04-23T10:59:27.326Z</time></trkpt><trkpt lat="33.9810867" lon="8.244135"><ele>28.0</ele><time>2026-04-23T10:59:28.327Z</time></trkpt><trkpt lat="33.9809417" lon="8.2439083"><ele>29.0</ele><time>2026-04-23T10:59:29.327Z</time></trkpt><trkpt lat="33.9808" lon="8.2436883"><ele>30.0</ele><time>2026-04-23T10:59:30.326Z</time></trkpt><trkpt lat="33.9806583" lon="8.2434617"><ele>30.0</ele><time>2026-04-23T10:59:31.326Z</time></trkpt><trkpt lat="33.9805133" lon="8.2432433"><ele>30.0</ele><time>2026-04-23T10:59:32.326Z</time></trkpt><trkpt lat="33.9803717" lon="8.2430183"><ele>30.0</ele><time>2026-04-23T10:59:33.326Z</time></trkpt><trkpt lat="33.9802317" lon="8.2427833"><ele>30.0</ele><time>2026-04-23T10:59:34.327Z</time></trkpt><trkpt lat="33.9800883" lon="8.2425517"><ele>30.0</ele><time>2026-04-23T10:59:35.327Z</time></trkpt><trkpt lat="33.9799467" lon="8.2423183"><ele>30.0</ele><time>2026-04-23T10:59:36.326Z</time></trkpt><trkpt lat="33.9798" lon="8.24209"><ele>30.0</ele><time>2026-04-23T10:59:37.326Z</time></trkpt><trkpt lat="33.97965" lon="8.24186"><ele>30.0</ele><time>2026-04-23T10:59:38.327Z</time></trkpt><trkpt lat="33.9795017" lon="8.2416383"><ele>29.5</ele><time>2026-04-23T10:59:39.326Z</time></trkpt><trkpt lat="33.97936" lon="8.24141"><ele>29.0</ele><time>2026-04-23T10:59:40.326Z</time></trkpt><trkpt lat="33.979205" lon="8.2411933"><ele>28.0</ele><time>2026-04-23T10:59:41.326Z</time></trkpt><trkpt lat="33.9790417" lon="8.2409867"><ele>27.0</ele><time>2026-04-23T10:59:42.326Z</time></trkpt><trkpt lat="33.9788633" lon="8.2407983"><ele>28.0</ele><time>2026-04-23T10:59:43.326Z</time></trkpt><trkpt lat="33.978675" lon="8.2406283"><ele>29.0</ele><time>2026-04-23T10:59:44.326Z</time></trkpt><trkpt lat="33.9784883" lon="8.2404633"><ele>28.5</ele><time>2026-04-23T10:59:45.326Z</time></trkpt><trkpt lat="33.9783" lon="8.2403017"><ele>28.0</ele><time>2026-04-23T10:59:46.327Z</time></trkpt><trkpt lat="33.97811" lon="8.2401417"><ele>28.0</ele><time>2026-04-23T10:59:47.326Z</time></trkpt><trkpt lat="33.977925" lon="8.2399783"><ele>28.0</ele><time>2026-04-23T10:59:48.327Z</time></trkpt><trkpt lat="33.97773" lon="8.2398217"><ele>27.5</ele><time>2026-04-23T10:59:49.327Z</time></trkpt><trkpt lat="33.9775283" lon="8.2396667"><ele>27.0</ele><time>2026-04-23T10:59:50.327Z</time></trkpt><trkpt lat="33.97733" lon="8.239515"><ele>27.0</ele><time>2026-04-23T10:59:51.327Z</time></trkpt><trkpt lat="33.9771367" lon="8.239355"><ele>27.0</ele><time>2026-04-23T10:59:52.326Z</time></trkpt><trkpt lat="33.97694" lon="8.2392017"><ele>27.0</ele><time>2026-04-23T10:59:53.326Z</time></trkpt><trkpt lat="33.976735" lon="8.2390683"><ele>27.0</ele><time>2026-04-23T10:59:54.326Z</time></trkpt><trkpt lat="33.976525" lon="8.2389483"><ele>27.0</ele><time>2026-04-23T10:59:55.326Z</time></trkpt><trkpt lat="33.9763083" lon="8.2388483"><ele>27.0</ele><time>2026-04-23T10:59:56.327Z</time></trkpt><trkpt lat="33.976095" lon="8.2387583"><ele>27.0</ele><time>2026-04-23T10:59:57.326Z</time></trkpt><trkpt lat="33.9758817" lon="8.23868"><ele>27.0</ele><time>2026-04-23T10:59:58.326Z</time></trkpt><trkpt lat="33.97566" lon="8.2385733"><ele>26.0</ele><time>2026-04-23T10:59:59.326Z</time></trkpt><trkpt lat="33.9754333" lon="8.23847"><ele>25.0</ele><time>2026-04-23T11:00:00.327Z</time></trkpt><trkpt lat="33.975215" lon="8.23837"><ele>25.0</ele><time>2026-04-23T11:00:01.327Z</time></trkpt><trkpt lat="33.9750033" lon="8.238275"><ele>25.0</ele><time>2026-04-23T11:00:02.327Z</time></trkpt><trkpt lat="33.97479" lon="8.238185"><ele>25.0</ele><time>2026-04-23T11:00:03.327Z</time></trkpt><trkpt lat="33.97457" lon="8.23809"><ele>25.0</ele><time>2026-04-23T11:00:04.327Z</time></trkpt><trkpt lat="33.9743567" lon="8.23799"><ele>24.5</ele><time>2026-04-23T11:00:05.327Z</time></trkpt><trkpt lat="33.974135" lon="8.2378867"><ele>24.0</ele><time>2026-04-23T11:00:06.326Z</time></trkpt><trkpt lat="33.9739167" lon="8.2377817"><ele>24.0</ele><time>2026-04-23T11:00:07.326Z</time></trkpt><trkpt lat="33.9737" lon="8.2376783"><ele>24.0</ele><time>2026-04-23T11:00:08.326Z</time></trkpt><trkpt lat="33.9734967" lon="8.237565"><ele>23.5</ele><time>2026-04-23T11:00:09.326Z</time></trkpt><trkpt lat="33.9732783" lon="8.2374483"><ele>23.0</ele><time>2026-04-23T11:00:10.327Z</time></trkpt><trkpt lat="33.9730683" lon="8.2373267"><ele>24.0</ele><time>2026-04-23T11:00:11.326Z</time></trkpt><trkpt lat="33.9728633" lon="8.2371983"><ele>25.0</ele><time>2026-04-23T11:00:12.326Z</time></trkpt><trkpt lat="33.9726617" lon="8.237055"><ele>24.0</ele><time>2026-04-23T11:00:13.326Z</time></trkpt><trkpt lat="33.97247" lon="8.2368983"><ele>23.0</ele><time>2026-04-23T11:00:14.326Z</time></trkpt><trkpt lat="33.97229" lon="8.23673"><ele>23.0</ele><time>2026-04-23T11:00:15.326Z</time></trkpt><trkpt lat="33.9721233" lon="8.2365417"><ele>23.0</ele><time>2026-04-23T11:00:16.327Z</time></trkpt><trkpt lat="33.9719633" lon="8.2363383"><ele>23.0</ele><time>2026-04-23T11:00:17.326Z</time></trkpt><trkpt lat="33.97181" lon="8.2361167"><ele>23.0</ele><time>2026-04-23T11:00:18.327Z</time></trkpt><trkpt lat="33.971665" lon="8.2358883"><ele>23.5</ele><time>2026-04-23T11:00:19.327Z</time></trkpt><trkpt lat="33.9715333" lon="8.2356433"><ele>24.0</ele><time>2026-04-23T11:00:20.327Z</time></trkpt><trkpt lat="33.971405" lon="8.2354117"><ele>24.0</ele><time>2026-04-23T11:00:21.327Z</time></trkpt><trkpt lat="33.97128" lon="8.2351717"><ele>24.0</ele><time>2026-04-23T11:00:22.327Z</time></trkpt><trkpt lat="33.9711533" lon="8.2349367"><ele>23.5</ele><time>2026-04-23T11:00:23.326Z</time></trkpt><trkpt lat="33.971035" lon="8.2346867"><ele>23.0</ele><time>2026-04-23T11:00:24.326Z</time></trkpt><trkpt lat="33.9709083" lon="8.2344383"><ele>23.0</ele><time>2026-04-23T11:00:25.327Z</time></trkpt><trkpt lat="33.97079" lon="8.234195"><ele>23.0</ele><time>2026-04-23T11:00:26.326Z</time></trkpt><trkpt lat="33.9706633" lon="8.2339467"><ele>23.5</ele><time>2026-04-23T11:00:27.326Z</time></trkpt><trkpt lat="33.9705417" lon="8.2337"><ele>24.0</ele><time>2026-04-23T11:00:28.327Z</time></trkpt><trkpt lat="33.9704217" lon="8.2334567"><ele>24.0</ele><time>2026-04-23T11:00:29.327Z</time></trkpt><trkpt lat="33.9703017" lon="8.233215"><ele>24.0</ele><time>2026-04-23T11:00:30.326Z</time></trkpt><trkpt lat="33.9701817" lon="8.23298"><ele>24.0</ele><time>2026-04-23T11:00:31.327Z</time></trkpt><trkpt lat="33.9700617" lon="8.2327533"><ele>24.0</ele><time>2026-04-23T11:00:32.326Z</time></trkpt><trkpt lat="33.9699567" lon="8.2325517"><ele>24.0</ele><time>2026-04-23T11:00:33.326Z</time></trkpt><trkpt lat="33.969875" lon="8.232405"><ele>24.333333333333332</ele><time>2026-04-23T11:00:34.327Z</time></trkpt><trkpt lat="33.9698133" lon="8.232295"><ele>24.666666666666664</ele><time>2026-04-23T11:00:35.327Z</time></trkpt><trkpt lat="33.9697783" lon="8.2322083"><ele>25.0</ele><time>2026-04-23T11:00:36.327Z</time></trkpt><trkpt lat="33.969745" lon="8.2321333"><ele>25.333333333333332</ele><time>2026-04-23T11:00:37.326Z</time></trkpt><trkpt lat="33.9697117" lon="8.2320667"><ele>25.666666666666664</ele><time>2026-04-23T11:00:38.326Z</time></trkpt><trkpt lat="33.9696767" lon="8.2319983"><ele>26.0</ele><time>2026-04-23T11:00:39.327Z</time></trkpt><trkpt lat="33.969635" lon="8.2319283"><ele>25.999999999999996</ele><time>2026-04-23T11:00:40.326Z</time></trkpt><trkpt lat="33.9695867" lon="8.2318567"><ele>26.0</ele><time>2026-04-23T11:00:41.326Z</time></trkpt><trkpt lat="33.9695333" lon="8.2317733"><ele>26.0</ele><time>2026-04-23T11:00:42.327Z</time></trkpt><trkpt lat="33.9694833" lon="8.2316817"><ele>26.0</ele><time>2026-04-23T11:00:43.326Z</time></trkpt><trkpt lat="33.9694333" lon="8.2315817"><ele>25.999999999999996</ele><time>2026-04-23T11:00:44.326Z</time></trkpt><trkpt lat="33.9693833" lon="8.231485"><ele>26.0</ele><time>2026-04-23T11:00:45.326Z</time></trkpt><trkpt lat="33.9693267" lon="8.23139"><ele>26.0</ele><time>2026-04-23T11:00:46.326Z</time></trkpt><trkpt lat="33.9692633" lon="8.2312767"><ele>26.0</ele><time>2026-04-23T11:00:47.327Z</time></trkpt><trkpt lat="33.969195" lon="8.2311667"><ele>26.0</ele><time>2026-04-23T11:00:48.327Z</time></trkpt><trkpt lat="33.969115" lon="8.2310567"><ele>26.0</ele><time>2026-04-23T11:00:49.326Z</time></trkpt><trkpt lat="33.96904" lon="8.2309383"><ele>25.75</ele><time>2026-04-23T11:00:50.326Z</time></trkpt><trkpt lat="33.96897" lon="8.230805"><ele>25.5</ele><time>2026-04-23T11:00:51.327Z</time></trkpt><trkpt lat="33.9689017" lon="8.230665"><ele>25.25</ele><time>2026-04-23T11:00:52.326Z</time></trkpt><trkpt lat="33.9688383" lon="8.23053"><ele>25.0</ele><time>2026-04-23T11:00:53.327Z</time></trkpt><trkpt lat="33.968785" lon="8.2303867"><ele>25.0</ele><time>2026-04-23T11:00:54.326Z</time></trkpt><trkpt lat="33.968715" lon="8.2302517"><ele>25.0</ele><time>2026-04-23T11:00:55.327Z</time></trkpt><trkpt lat="33.9686383" lon="8.23012"><ele>25.0</ele><time>2026-04-23T11:00:56.326Z</time></trkpt><trkpt lat="33.9685633" lon="8.22998"><ele>25.0</ele><time>2026-04-23T11:00:57.327Z</time></trkpt><trkpt lat="33.9684883" lon="8.2298383"><ele>25.0</ele><time>2026-04-23T11:00:58.326Z</time></trkpt><trkpt lat="33.968415" lon="8.2296917"><ele>25.0</ele><time>2026-04-23T11:00:59.327Z</time></trkpt><trkpt lat="33.9683317" lon="8.2295433"><ele>25.0</ele><time>2026-04-23T11:01:00.327Z</time></trkpt><trkpt lat="33.9682483" lon="8.2293883"><ele>25.0</ele><time>2026-04-23T11:01:01.326Z</time></trkpt><trkpt lat="33.96816" lon="8.2292283"><ele>25.0</ele><time>2026-04-23T11:01:02.327Z</time></trkpt><trkpt lat="33.96807" lon="8.229065"><ele>25.0</ele><time>2026-04-23T11:01:03.326Z</time></trkpt><trkpt lat="33.9679767" lon="8.228895"><ele>25.0</ele><time>2026-04-23T11:01:04.326Z</time></trkpt><trkpt lat="33.967895" lon="8.22872"><ele>24.666666666666668</ele><time>2026-04-23T11:01:05.326Z</time></trkpt><trkpt lat="33.9678033" lon="8.228545"><ele>24.333333333333336</ele><time>2026-04-23T11:01:06.326Z</time></trkpt><trkpt lat="33.9677067" lon="8.2283683"><ele>24.0</ele><time>2026-04-23T11:01:07.326Z</time></trkpt><trkpt lat="33.967615" lon="8.2282"><ele>24.333333333333336</ele><time>2026-04-23T11:01:08.326Z</time></trkpt><trkpt lat="33.96752" lon="8.2280267"><ele>24.666666666666668</ele><time>2026-04-23T11:01:09.326Z</time></trkpt><trkpt lat="33.9674183" lon="8.2278533"><ele>25.0</ele><time>2026-04-23T11:01:10.326Z</time></trkpt><trkpt lat="33.9673183" lon="8.22768"><ele>25.0</ele><time>2026-04-23T11:01:11.327Z</time></trkpt><trkpt lat="33.9672233" lon="8.2275"><ele>25.0</ele><time>2026-04-23T11:01:12.326Z</time></trkpt><trkpt lat="33.9671233" lon="8.2273233"><ele>25.0</ele><time>2026-04-23T11:01:13.327Z</time></trkpt><trkpt lat="33.9670117" lon="8.227145"><ele>25.0</ele><time>2026-04-23T11:01:14.326Z</time></trkpt><trkpt lat="33.966895" lon="8.2269633"><ele>25.0</ele><time>2026-04-23T11:01:15.326Z</time></trkpt><trkpt lat="33.9667867" lon="8.2267733"><ele>25.0</ele><time>2026-04-23T11:01:16.327Z</time></trkpt><trkpt lat="33.9666767" lon="8.2265833"><ele>25.0</ele><time>2026-04-23T11:01:17.326Z</time></trkpt><trkpt lat="33.96656" lon="8.2263883"><ele>25.0</ele><time>2026-04-23T11:01:18.327Z</time></trkpt><trkpt lat="33.9664367" lon="8.2261983"><ele>25.0</ele><time>2026-04-23T11:01:19.327Z</time></trkpt><trkpt lat="33.9663183" lon="8.2260083"><ele>25.0</ele><time>2026-04-23T11:01:20.327Z</time></trkpt><trkpt lat="33.9662" lon="8.22581"><ele>25.0</ele><time>2026-04-23T11:01:21.326Z</time></trkpt><trkpt lat="33.9660783" lon="8.22561"><ele>25.0</ele><time>2026-04-23T11:01:22.327Z</time></trkpt><trkpt lat="33.9659467" lon="8.225415"><ele>25.0</ele><time>2026-04-23T11:01:23.326Z</time></trkpt><trkpt lat="33.96581" lon="8.2252183"><ele>25.0</ele><time>2026-04-23T11:01:24.327Z</time></trkpt><trkpt lat="33.9656767" lon="8.225025"><ele>25.0</ele><time>2026-04-23T11:01:25.327Z</time></trkpt><trkpt lat="33.9655317" lon="8.22484"><ele>25.0</ele><time>2026-04-23T11:01:26.327Z</time></trkpt><trkpt lat="33.96539" lon="8.2246583"><ele>25.0</ele><time>2026-04-23T11:01:27.326Z</time></trkpt><trkpt lat="33.9652383" lon="8.2244817"><ele>25.0</ele><time>2026-04-23T11:01:28.326Z</time></trkpt><trkpt lat="33.9650767" lon="8.2243183"><ele>25.0</ele><time>2026-04-23T11:01:29.326Z</time></trkpt><trkpt lat="33.964915" lon="8.2241533"><ele>25.0</ele><time>2026-04-23T11:01:30.327Z</time></trkpt><trkpt lat="33.9647567" lon="8.2239933"><ele>25.0</ele><time>2026-04-23T11:01:31.326Z</time></trkpt><trkpt lat="33.9646183" lon="8.2238217"><ele>25.0</ele><time>2026-04-23T11:01:32.327Z</time></trkpt><trkpt lat="33.9644633" lon="8.22366"><ele>25.0</ele><time>2026-04-23T11:01:33.326Z</time></trkpt><trkpt lat="33.9643133" lon="8.223495"><ele>25.0</ele><time>2026-04-23T11:01:34.327Z</time></trkpt><trkpt lat="33.9641583" lon="8.2233433"><ele>24.666666666666668</ele><time>2026-04-23T11:01:35.326Z</time></trkpt><trkpt lat="33.9640067" lon="8.22319"><ele>24.333333333333336</ele><time>2026-04-23T11:01:36.326Z</time></trkpt><trkpt lat="33.9638533" lon="8.2230383"><ele>24.0</ele><time>2026-04-23T11:01:37.326Z</time></trkpt><trkpt lat="33.9637017" lon="8.2228883"><ele>24.0</ele><time>2026-04-23T11:01:38.327Z</time></trkpt><trkpt lat="33.963555" lon="8.2227383"><ele>24.0</ele><time>2026-04-23T11:01:39.327Z</time></trkpt><trkpt lat="33.9634017" lon="8.2225833"><ele>24.0</ele><time>2026-04-23T11:01:40.326Z</time></trkpt><trkpt lat="33.963245" lon="8.2224183"><ele>23.666666666666668</ele><time>2026-04-23T11:01:41.326Z</time></trkpt><trkpt lat="33.9631" lon="8.2222567"><ele>23.333333333333336</ele><time>2026-04-23T11:01:42.327Z</time></trkpt><trkpt lat="33.96295" lon="8.22209"><ele>23.0</ele><time>2026-04-23T11:01:43.327Z</time></trkpt><trkpt lat="33.9627983" lon="8.22192"><ele>23.0</ele><time>2026-04-23T11:01:44.326Z</time></trkpt><trkpt lat="33.9626483" lon="8.2217467"><ele>23.0</ele><time>2026-04-23T11:01:45.326Z</time></trkpt><trkpt lat="33.9624933" lon="8.2215717"><ele>23.0</ele><time>2026-04-23T11:01:46.326Z</time></trkpt><trkpt lat="33.96234" lon="8.2213967"><ele>23.333333333333336</ele><time>2026-04-23T11:01:47.326Z</time></trkpt><trkpt lat="33.9621917" lon="8.2212167"><ele>23.666666666666668</ele><time>2026-04-23T11:01:48.326Z</time></trkpt><trkpt lat="33.96203" lon="8.2210383"><ele>24.0</ele><time>2026-04-23T11:01:49.326Z</time></trkpt><trkpt lat="33.96187" lon="8.2208633"><ele>24.0</ele><time>2026-04-23T11:01:50.326Z</time></trkpt><trkpt lat="33.961715" lon="8.2206883"><ele>24.0</ele><time>2026-04-23T11:01:51.327Z</time></trkpt><trkpt lat="33.9615567" lon="8.2205183"><ele>24.0</ele><time>2026-04-23T11:01:52.326Z</time></trkpt><trkpt lat="33.9614033" lon="8.2203467"><ele>24.333333333333336</ele><time>2026-04-23T11:01:53.327Z</time></trkpt><trkpt lat="33.9612483" lon="8.2201717"><ele>24.666666666666668</ele><time>2026-04-23T11:01:54.326Z</time></trkpt><trkpt lat="33.96109" lon="8.22"><ele>25.0</ele><time>2026-04-23T11:01:55.326Z</time></trkpt><trkpt lat="33.9609233" lon="8.2198367"><ele>24.666666666666668</ele><time>2026-04-23T11:01:56.326Z</time></trkpt><trkpt lat="33.9607567" lon="8.2196783"><ele>24.333333333333336</ele><time>2026-04-23T11:01:57.326Z</time></trkpt><trkpt lat="33.9605917" lon="8.2195283"><ele>24.0</ele><time>2026-04-23T11:01:58.326Z</time></trkpt><trkpt lat="33.960425" lon="8.2193883"><ele>24.0</ele><time>2026-04-23T11:01:59.326Z</time></trkpt><trkpt lat="33.9602517" lon="8.2192633"><ele>24.0</ele><time>2026-04-23T11:02:00.326Z</time></trkpt><trkpt lat="33.96009" lon="8.2191417"><ele>24.0</ele><time>2026-04-23T11:02:01.326Z</time></trkpt><trkpt lat="33.959935" lon="8.2190183"><ele>23.666666666666668</ele><time>2026-04-23T11:02:02.326Z</time></trkpt><trkpt lat="33.9597783" lon="8.2189133"><ele>23.333333333333336</ele><time>2026-04-23T11:02:03.326Z</time></trkpt><trkpt lat="33.9596133" lon="8.2188183"><ele>23.0</ele><time>2026-04-23T11:02:04.327Z</time></trkpt><trkpt lat="33.9594683" lon="8.21872"><ele>23.0</ele><time>2026-04-23T11:02:05.326Z</time></trkpt><trkpt lat="33.9593217" lon="8.21863"><ele>23.0</ele><time>2026-04-23T11:02:06.326Z</time></trkpt><trkpt lat="33.9591833" lon="8.2185567"><ele>23.0</ele><time>2026-04-23T11:02:07.327Z</time></trkpt><trkpt lat="33.95905" lon="8.21848"><ele>22.75</ele><time>2026-04-23T11:02:08.327Z</time></trkpt><trkpt lat="33.9589267" lon="8.218415"><ele>22.5</ele><time>2026-04-23T11:02:09.326Z</time></trkpt><trkpt lat="33.9588183" lon="8.2183467"><ele>22.25</ele><time>2026-04-23T11:02:10.326Z</time></trkpt><trkpt lat="33.9587267" lon="8.2182817"><ele>22.0</ele><time>2026-04-23T11:02:11.327Z</time></trkpt><trkpt lat="33.95864" lon="8.218225"><ele>22.0</ele><time>2026-04-23T11:02:12.326Z</time></trkpt><trkpt lat="33.958575" lon="8.21819"><ele>22.0</ele><time>2026-04-23T11:02:13.326Z</time></trkpt><trkpt lat="33.958485" lon="8.2181333"><ele>22.0</ele><time>2026-04-23T11:02:15.327Z</time></trkpt><trkpt lat="33.9583917" lon="8.2180767"><ele>22.0</ele><time>2026-04-23T11:02:17.327Z</time></trkpt><trkpt lat="33.9583367" lon="8.2180383"><ele>22.0</ele><time>2026-04-23T11:02:18.327Z</time></trkpt><trkpt lat="33.95828" lon="8.218"><ele>22.0</ele><time>2026-04-23T11:02:19.326Z</time></trkpt><trkpt lat="33.9581683" lon="8.21792"><ele>22.0</ele><time>2026-04-23T11:02:21.326Z</time></trkpt><trkpt lat="33.9581083" lon="8.2178817"><ele>22.0</ele><time>2026-04-23T11:02:22.327Z</time></trkpt><trkpt lat="33.9580517" lon="8.2178467"><ele>22.0</ele><time>2026-04-23T11:02:23.326Z</time></trkpt><trkpt lat="33.9579883" lon="8.2178133"><ele>22.0</ele><time>2026-04-23T11:02:24.326Z</time></trkpt><trkpt lat="33.9578833" lon="8.217745"><ele>22.0</ele><time>2026-04-23T11:02:26.327Z</time></trkpt><trkpt lat="33.95779" lon="8.2176867"><ele>22.0</ele><time>2026-04-23T11:02:28.326Z</time></trkpt><trkpt lat="33.9577383" lon="8.2175833"><ele>22.0</ele><time>2026-04-23T11:02:30.326Z</time></trkpt><trkpt lat="33.957745" lon="8.2174667"><ele>22.0</ele><time>2026-04-23T11:02:32.326Z</time></trkpt><trkpt lat="33.9578067" lon="8.2173633"><ele>22.0</ele><time>2026-04-23T11:02:34.327Z</time></trkpt><trkpt lat="33.957855" lon="8.21731"><ele>22.0</ele><time>2026-04-23T11:02:35.326Z</time></trkpt><trkpt lat="33.9579167" lon="8.21726"><ele>22.0</ele><time>2026-04-23T11:02:36.326Z</time></trkpt><trkpt lat="33.9579883" lon="8.2172183"><ele>22.0</ele><time>2026-04-23T11:02:37.326Z</time></trkpt><trkpt lat="33.9580517" lon="8.2171833"><ele>22.400000000000002</ele><time>2026-04-23T11:02:38.326Z</time></trkpt><trkpt lat="33.9581517" lon="8.21712"><ele>22.8</ele><time>2026-04-23T11:02:40.327Z</time></trkpt><trkpt lat="33.9582567" lon="8.2170733"><ele>23.2</ele><time>2026-04-23T11:02:42.327Z</time></trkpt><trkpt lat="33.9583217" lon="8.2170467"><ele>23.6</ele><time>2026-04-23T11:02:43.327Z</time></trkpt><trkpt lat="33.95839" lon="8.217015"><ele>24.0</ele><time>2026-04-23T11:02:44.327Z</time></trkpt><trkpt lat="33.958465" lon="8.2169717"><ele>24.0</ele><time>2026-04-23T11:02:45.326Z</time></trkpt><trkpt lat="33.9585483" lon="8.216915"><ele>24.0</ele><time>2026-04-23T11:02:46.326Z</time></trkpt><trkpt lat="33.958635" lon="8.21686"><ele>24.0</ele><time>2026-04-23T11:02:47.326Z</time></trkpt><trkpt lat="33.958735" lon="8.216795"><ele>24.0</ele><time>2026-04-23T11:02:48.327Z</time></trkpt><trkpt lat="33.9588483" lon="8.216735"><ele>24.0</ele><time>2026-04-23T11:02:49.327Z</time></trkpt><trkpt lat="33.95897" lon="8.216665"><ele>24.0</ele><time>2026-04-23T11:02:50.326Z</time></trkpt><trkpt lat="33.95909" lon="8.2165883"><ele>24.0</ele><time>2026-04-23T11:02:51.325Z</time></trkpt><trkpt lat="33.9592183" lon="8.2165133"><ele>24.0</ele><time>2026-04-23T11:02:52.325Z</time></trkpt><trkpt lat="33.9593517" lon="8.216435"><ele>24.0</ele><time>2026-04-23T11:02:53.325Z</time></trkpt><trkpt lat="33.9594883" lon="8.2163517"><ele>24.666666666666664</ele><time>2026-04-23T11:02:54.325Z</time></trkpt><trkpt lat="33.9596267" lon="8.2162617"><ele>25.333333333333332</ele><time>2026-04-23T11:02:55.326Z</time></trkpt><trkpt lat="33.9597717" lon="8.2161817"><ele>26.0</ele><time>2026-04-23T11:02:56.325Z</time></trkpt><trkpt lat="33.959925" lon="8.2160867"><ele>26.333333333333332</ele><time>2026-04-23T11:02:57.325Z</time></trkpt><trkpt lat="33.9600767" lon="8.216005"><ele>26.666666666666664</ele><time>2026-04-23T11:02:58.326Z</time></trkpt><trkpt lat="33.9602367" lon="8.2159183"><ele>27.0</ele><time>2026-04-23T11:02:59.326Z</time></trkpt><trkpt lat="33.96039" lon="8.21583"><ele>27.0</ele><time>2026-04-23T11:03:00.326Z</time></trkpt><trkpt lat="33.9605483" lon="8.2157467"><ele>27.0</ele><time>2026-04-23T11:03:01.326Z</time></trkpt><trkpt lat="33.960705" lon="8.2156517"><ele>27.0</ele><time>2026-04-23T11:03:02.325Z</time></trkpt><trkpt lat="33.9608667" lon="8.2155583"><ele>27.666666666666664</ele><time>2026-04-23T11:03:03.325Z</time></trkpt><trkpt lat="33.9610183" lon="8.2154617"><ele>28.333333333333332</ele><time>2026-04-23T11:03:04.326Z</time></trkpt><trkpt lat="33.9611767" lon="8.2153617"><ele>29.0</ele><time>2026-04-23T11:03:05.325Z</time></trkpt><trkpt lat="33.961335" lon="8.21527"><ele>29.0</ele><time>2026-04-23T11:03:06.325Z</time></trkpt><trkpt lat="33.9614917" lon="8.2151683"><ele>29.0</ele><time>2026-04-23T11:03:07.325Z</time></trkpt><trkpt lat="33.9616633" lon="8.2150533"><ele>29.0</ele><time>2026-04-23T11:03:08.325Z</time></trkpt><trkpt lat="33.9618317" lon="8.214965"><ele>29.0</ele><time>2026-04-23T11:03:09.325Z</time></trkpt><trkpt lat="33.9619967" lon="8.2148667"><ele>29.0</ele><time>2026-04-23T11:03:10.326Z</time></trkpt><trkpt lat="33.96216" lon="8.2147667"><ele>29.0</ele><time>2026-04-23T11:03:11.325Z</time></trkpt><trkpt lat="33.962325" lon="8.2146633"><ele>29.0</ele><time>2026-04-23T11:03:12.325Z</time></trkpt><trkpt lat="33.9624933" lon="8.2145517"><ele>29.0</ele><time>2026-04-23T11:03:13.325Z</time></trkpt><trkpt lat="33.9626583" lon="8.2144367"><ele>29.0</ele><time>2026-04-23T11:03:14.325Z</time></trkpt><trkpt lat="33.9628267" lon="8.2143233"><ele>29.333333333333332</ele><time>2026-04-23T11:03:15.325Z</time></trkpt><trkpt lat="33.962995" lon="8.214225"><ele>29.666666666666664</ele><time>2026-04-23T11:03:16.326Z</time></trkpt><trkpt lat="33.9631617" lon="8.214115"><ele>30.0</ele><time>2026-04-23T11:03:17.326Z</time></trkpt><trkpt lat="33.9633333" lon="8.214015"><ele>31.333333333333336</ele><time>2026-04-23T11:03:18.325Z</time></trkpt><trkpt lat="33.9635067" lon="8.2139167"><ele>32.66666666666667</ele><time>2026-04-23T11:03:19.326Z</time></trkpt><trkpt lat="33.9636683" lon="8.2138167"><ele>34.0</ele><time>2026-04-23T11:03:20.325Z</time></trkpt><trkpt lat="33.96383" lon="8.2137333"><ele>34.0</ele><time>2026-04-23T11:03:21.326Z</time></trkpt><trkpt lat="33.9639917" lon="8.2136417"><ele>34.0</ele><time>2026-04-23T11:03:22.326Z</time></trkpt><trkpt lat="33.96415" lon="8.2135483"><ele>34.0</ele><time>2026-04-23T11:03:23.325Z</time></trkpt><trkpt lat="33.9643067" lon="8.2134583"><ele>34.0</ele><time>2026-04-23T11:03:24.325Z</time></trkpt><trkpt lat="33.9644683" lon="8.2133683"><ele>34.0</ele><time>2026-04-23T11:03:25.326Z</time></trkpt><trkpt lat="33.9646283" lon="8.213285"><ele>34.0</ele><time>2026-04-23T11:03:26.325Z</time></trkpt><trkpt lat="33.9647917" lon="8.2132133"><ele>33.66666666666667</ele><time>2026-04-23T11:03:27.326Z</time></trkpt><trkpt lat="33.96495" lon="8.2131367"><ele>33.333333333333336</ele><time>2026-04-23T11:03:28.325Z</time></trkpt><trkpt lat="33.9651033" lon="8.2130667"><ele>33.0</ele><time>2026-04-23T11:03:29.325Z</time></trkpt><trkpt lat="33.9652633" lon="8.2129867"><ele>34.0</ele><time>2026-04-23T11:03:30.325Z</time></trkpt><trkpt lat="33.9654283" lon="8.2128983"><ele>35.0</ele><time>2026-04-23T11:03:31.325Z</time></trkpt><trkpt lat="33.9655883" lon="8.2128017"><ele>36.0</ele><time>2026-04-23T11:03:32.326Z</time></trkpt><trkpt lat="33.9657433" lon="8.2126867"><ele>36.666666666666664</ele><time>2026-04-23T11:03:33.325Z</time></trkpt><trkpt lat="33.9658967" lon="8.2125733"><ele>37.33333333333333</ele><time>2026-04-23T11:03:34.326Z</time></trkpt><trkpt lat="33.9660483" lon="8.2124533"><ele>38.0</ele><time>2026-04-23T11:03:35.326Z</time></trkpt><trkpt lat="33.96619" lon="8.2123483"><ele>37.666666666666664</ele><time>2026-04-23T11:03:36.325Z</time></trkpt><trkpt lat="33.966335" lon="8.2122417"><ele>37.333333333333336</ele><time>2026-04-23T11:03:37.326Z</time></trkpt><trkpt lat="33.9664867" lon="8.2121533"><ele>37.0</ele><time>2026-04-23T11:03:38.326Z</time></trkpt><trkpt lat="33.9666417" lon="8.2120883"><ele>37.0</ele><time>2026-04-23T11:03:39.326Z</time></trkpt><trkpt lat="33.9668017" lon="8.2120117"><ele>37.0</ele><time>2026-04-23T11:03:40.326Z</time></trkpt><trkpt lat="33.966965" lon="8.2119317"><ele>37.0</ele><time>2026-04-23T11:03:41.326Z</time></trkpt><trkpt lat="33.9671283" lon="8.211845"><ele>37.0</ele><time>2026-04-23T11:03:42.326Z</time></trkpt><trkpt lat="33.9672833" lon="8.21176"><ele>37.0</ele><time>2026-04-23T11:03:43.325Z</time></trkpt><trkpt lat="33.9674267" lon="8.2116667"><ele>37.0</ele><time>2026-04-23T11:03:44.326Z</time></trkpt><trkpt lat="33.967575" lon="8.2115683"><ele>38.0</ele><time>2026-04-23T11:03:45.326Z</time></trkpt><trkpt lat="33.9677183" lon="8.2114733"><ele>39.0</ele><time>2026-04-23T11:03:46.325Z</time></trkpt><trkpt lat="33.9678617" lon="8.2113783"><ele>40.0</ele><time>2026-04-23T11:03:47.326Z</time></trkpt><trkpt lat="33.968005" lon="8.2112833"><ele>40.0</ele><time>2026-04-23T11:03:48.325Z</time></trkpt><trkpt lat="33.9681433" lon="8.21119"><ele>40.0</ele><time>2026-04-23T11:03:49.326Z</time></trkpt><trkpt lat="33.9682967" lon="8.211095"><ele>40.0</ele><time>2026-04-23T11:03:50.325Z</time></trkpt><trkpt lat="33.9684483" lon="8.210995"><ele>41.333333333333336</ele><time>2026-04-23T11:03:51.325Z</time></trkpt><trkpt lat="33.968595" lon="8.210885"><ele>42.666666666666664</ele><time>2026-04-23T11:03:52.325Z</time></trkpt><trkpt lat="33.968745" lon="8.2107867"><ele>44.0</ele><time>2026-04-23T11:03:53.325Z</time></trkpt><trkpt lat="33.9689067" lon="8.2106983"><ele>44.0</ele><time>2026-04-23T11:03:54.326Z</time></trkpt><trkpt lat="33.9690717" lon="8.21063"><ele>44.0</ele><time>2026-04-23T11:03:55.325Z</time></trkpt><trkpt lat="33.9692433" lon="8.210575"><ele>44.0</ele><time>2026-04-23T11:03:56.326Z</time></trkpt><trkpt lat="33.9694183" lon="8.2105283"><ele>44.0</ele><time>2026-04-23T11:03:57.326Z</time></trkpt><trkpt lat="33.9695933" lon="8.2104967"><ele>44.0</ele><time>2026-04-23T11:03:58.325Z</time></trkpt><trkpt lat="33.9697717" lon="8.2104533"><ele>44.0</ele><time>2026-04-23T11:03:59.325Z</time></trkpt><trkpt lat="33.9699517" lon="8.2104267"><ele>44.33333333333333</ele><time>2026-04-23T11:04:00.325Z</time></trkpt><trkpt lat="33.9701283" lon="8.2103867"><ele>44.666666666666664</ele><time>2026-04-23T11:04:01.326Z</time></trkpt><trkpt lat="33.9703117" lon="8.2103333"><ele>45.0</ele><time>2026-04-23T11:04:02.326Z</time></trkpt><trkpt lat="33.9704917" lon="8.210265"><ele>45.0</ele><time>2026-04-23T11:04:03.326Z</time></trkpt><trkpt lat="33.97067" lon="8.2102"><ele>45.0</ele><time>2026-04-23T11:04:04.325Z</time></trkpt><trkpt lat="33.9708467" lon="8.21013"><ele>45.0</ele><time>2026-04-23T11:04:05.325Z</time></trkpt><trkpt lat="33.9710233" lon="8.2100533"><ele>45.666666666666664</ele><time>2026-04-23T11:04:06.326Z</time></trkpt><trkpt lat="33.9712" lon="8.2099833"><ele>46.33333333333333</ele><time>2026-04-23T11:04:07.326Z</time></trkpt><trkpt lat="33.9713467" lon="8.2098933"><ele>47.0</ele><time>2026-04-23T11:04:08.325Z</time></trkpt><trkpt lat="33.97149" lon="8.2097633"><ele>47.33333333333333</ele><time>2026-04-23T11:04:09.325Z</time></trkpt><trkpt lat="33.9716233" lon="8.20961"><ele>47.666666666666664</ele><time>2026-04-23T11:04:10.326Z</time></trkpt><trkpt lat="33.9717317" lon="8.2094383"><ele>48.0</ele><time>2026-04-23T11:04:11.325Z</time></trkpt><trkpt lat="33.9718417" lon="8.2092517"><ele>49.0</ele><time>2026-04-23T11:04:12.326Z</time></trkpt><trkpt lat="33.9719283" lon="8.2090617"><ele>50.0</ele><time>2026-04-23T11:04:13.326Z</time></trkpt><trkpt lat="33.97201" lon="8.2088667"><ele>51.0</ele><time>2026-04-23T11:04:14.325Z</time></trkpt><trkpt lat="33.9720833" lon="8.208665"><ele>51.0</ele><time>2026-04-23T11:04:15.326Z</time></trkpt><trkpt lat="33.9721533" lon="8.2084633"><ele>51.0</ele><time>2026-04-23T11:04:16.325Z</time></trkpt><trkpt lat="33.972215" lon="8.2082567"><ele>51.0</ele><time>2026-04-23T11:04:17.326Z</time></trkpt><trkpt lat="33.9723" lon="8.2080867"><ele>51.0</ele><time>2026-04-23T11:04:18.326Z</time></trkpt><trkpt lat="33.9723967" lon="8.20794"><ele>51.0</ele><time>2026-04-23T11:04:19.325Z</time></trkpt><trkpt lat="33.9725217" lon="8.2078117"><ele>51.0</ele><time>2026-04-23T11:04:20.326Z</time></trkpt><trkpt lat="33.9726583" lon="8.2077"><ele>51.0</ele><time>2026-04-23T11:04:21.326Z</time></trkpt><trkpt lat="33.9728067" lon="8.207585"><ele>51.0</ele><time>2026-04-23T11:04:22.326Z</time></trkpt><trkpt lat="33.9729583" lon="8.2074967"><ele>51.0</ele><time>2026-04-23T11:04:23.325Z</time></trkpt><trkpt lat="33.9731133" lon="8.2074017"><ele>51.0</ele><time>2026-04-23T11:04:24.325Z</time></trkpt><trkpt lat="33.9732667" lon="8.2072967"><ele>51.0</ele><time>2026-04-23T11:04:25.326Z</time></trkpt><trkpt lat="33.9734117" lon="8.207165"><ele>51.0</ele><time>2026-04-23T11:04:26.326Z</time></trkpt><trkpt lat="33.9735533" lon="8.2070183"><ele>52.0</ele><time>2026-04-23T11:04:27.326Z</time></trkpt><trkpt lat="33.9736833" lon="8.20687"><ele>53.0</ele><time>2026-04-23T11:04:28.325Z</time></trkpt><trkpt lat="33.9738133" lon="8.2067267"><ele>54.0</ele><time>2026-04-23T11:04:29.325Z</time></trkpt><trkpt lat="33.9739417" lon="8.206595"><ele>54.33333333333333</ele><time>2026-04-23T11:04:30.326Z</time></trkpt><trkpt lat="33.9740767" lon="8.2064417"><ele>54.666666666666664</ele><time>2026-04-23T11:04:31.326Z</time></trkpt><trkpt lat="33.9742167" lon="8.2062867"><ele>55.0</ele><time>2026-04-23T11:04:32.326Z</time></trkpt><trkpt lat="33.9743367" lon="8.2061667"><ele>55.5</ele><time>2026-04-23T11:04:33.326Z</time></trkpt><trkpt lat="33.9744583" lon="8.2060667"><ele>56.0</ele><time>2026-04-23T11:04:34.325Z</time></trkpt><trkpt lat="33.974565" lon="8.2059833"><ele>56.5</ele><time>2026-04-23T11:04:35.326Z</time></trkpt><trkpt lat="33.9746617" lon="8.2058983"><ele>57.0</ele><time>2026-04-23T11:04:36.325Z</time></trkpt><trkpt lat="33.97475" lon="8.2058267"><ele>57.0</ele><time>2026-04-23T11:04:37.325Z</time></trkpt><trkpt lat="33.9748233" lon="8.2057633"><ele>57.0</ele><time>2026-04-23T11:04:38.325Z</time></trkpt><trkpt lat="33.97489" lon="8.20571"><ele>57.0</ele><time>2026-04-23T11:04:39.325Z</time></trkpt><trkpt lat="33.97498" lon="8.2056333"><ele>57.0</ele><time>2026-04-23T11:04:41.326Z</time></trkpt><trkpt lat="33.9750333" lon="8.2055667"><ele>57.0</ele><time>2026-04-23T11:04:44.325Z</time></trkpt><trkpt lat="33.9750017" lon="8.2054517"><ele>57.25</ele><time>2026-04-23T11:05:04.326Z</time></trkpt><trkpt lat="33.9748833" lon="8.20534"><ele>57.5</ele><time>2026-04-23T11:05:06.326Z</time></trkpt><trkpt lat="33.974805" lon="8.205275"><ele>57.75</ele><time>2026-04-23T11:05:07.325Z</time></trkpt><trkpt lat="33.9747233" lon="8.205205"><ele>58.0</ele><time>2026-04-23T11:05:08.325Z</time></trkpt><trkpt lat="33.9746267" lon="8.2051183"><ele>58.0</ele><time>2026-04-23T11:05:09.325Z</time></trkpt><trkpt lat="33.9745383" lon="8.205025"><ele>58.0</ele><time>2026-04-23T11:05:10.325Z</time></trkpt><trkpt lat="33.974435" lon="8.2049267"><ele>58.0</ele><time>2026-04-23T11:05:11.325Z</time></trkpt><trkpt lat="33.9743217" lon="8.2048167"><ele>58.0</ele><time>2026-04-23T11:05:12.326Z</time></trkpt><trkpt lat="33.97421" lon="8.2047117"><ele>57.666666666666664</ele><time>2026-04-23T11:05:13.325Z</time></trkpt><trkpt lat="33.9740917" lon="8.2045983"><ele>57.33333333333333</ele><time>2026-04-23T11:05:14.325Z</time></trkpt><trkpt lat="33.9739633" lon="8.2044833"><ele>57.0</ele><time>2026-04-23T11:05:15.325Z</time></trkpt><trkpt lat="33.97384" lon="8.20436"><ele>57.0</ele><time>2026-04-23T11:05:16.325Z</time></trkpt><trkpt lat="33.9737033" lon="8.2042417"><ele>57.0</ele><time>2026-04-23T11:05:17.326Z</time></trkpt><trkpt lat="33.9735617" lon="8.2041167"><ele>57.0</ele><time>2026-04-23T11:05:18.326Z</time></trkpt><trkpt lat="33.9734183" lon="8.2039867"><ele>57.0</ele><time>2026-04-23T11:05:19.326Z</time></trkpt><trkpt lat="33.9732717" lon="8.20386"><ele>57.0</ele><time>2026-04-23T11:05:20.326Z</time></trkpt><trkpt lat="33.9731217" lon="8.2037317"><ele>57.0</ele><time>2026-04-23T11:05:21.326Z</time></trkpt><trkpt lat="33.9729683" lon="8.2035983"><ele>57.0</ele><time>2026-04-23T11:05:22.326Z</time></trkpt><trkpt lat="33.9728167" lon="8.2034667"><ele>57.0</ele><time>2026-04-23T11:05:23.325Z</time></trkpt><trkpt lat="33.97267" lon="8.2033283"><ele>57.0</ele><time>2026-04-23T11:05:24.325Z</time></trkpt><trkpt lat="33.972515" lon="8.2031983"><ele>58.0</ele><time>2026-04-23T11:05:25.326Z</time></trkpt><trkpt lat="33.9723667" lon="8.2030517"><ele>59.0</ele><time>2026-04-23T11:05:26.326Z</time></trkpt><trkpt lat="33.97221" lon="8.2029017"><ele>60.0</ele><time>2026-04-23T11:05:27.325Z</time></trkpt><trkpt lat="33.9720533" lon="8.2027567"><ele>60.0</ele><time>2026-04-23T11:05:28.326Z</time></trkpt><trkpt lat="33.9718867" lon="8.2026167"><ele>60.0</ele><time>2026-04-23T11:05:29.325Z</time></trkpt><trkpt lat="33.9717217" lon="8.20247"><ele>60.0</ele><time>2026-04-23T11:05:30.325Z</time></trkpt><trkpt lat="33.9715667" lon="8.2023317"><ele>60.33333333333333</ele><time>2026-04-23T11:05:31.326Z</time></trkpt><trkpt lat="33.97141" lon="8.2021867"><ele>60.666666666666664</ele><time>2026-04-23T11:05:32.325Z</time></trkpt><trkpt lat="33.9712433" lon="8.20204"><ele>61.0</ele><time>2026-04-23T11:05:33.325Z</time></trkpt><trkpt lat="33.9710817" lon="8.20189"><ele>61.0</ele><time>2026-04-23T11:05:34.326Z</time></trkpt><trkpt lat="33.9709167" lon="8.2017417"><ele>61.0</ele><time>2026-04-23T11:05:35.326Z</time></trkpt><trkpt lat="33.9707517" lon="8.20159"><ele>61.0</ele><time>2026-04-23T11:05:36.325Z</time></trkpt><trkpt lat="33.97059" lon="8.20144"><ele>59.666666666666664</ele><time>2026-04-23T11:05:37.326Z</time></trkpt><trkpt lat="33.9704217" lon="8.2012933"><ele>58.33333333333333</ele><time>2026-04-23T11:05:38.326Z</time></trkpt><trkpt lat="33.9702633" lon="8.201145"><ele>57.0</ele><time>2026-04-23T11:05:39.326Z</time></trkpt><trkpt lat="33.9701" lon="8.2009917"><ele>57.66666666666667</ele><time>2026-04-23T11:05:40.325Z</time></trkpt><trkpt lat="33.9699367" lon="8.200835"><ele>58.333333333333336</ele><time>2026-04-23T11:05:41.326Z</time></trkpt><trkpt lat="33.9697733" lon="8.2006817"><ele>59.0</ele><time>2026-04-23T11:05:42.326Z</time></trkpt><trkpt lat="33.9696083" lon="8.200535"><ele>59.0</ele><time>2026-04-23T11:05:43.326Z</time></trkpt><trkpt lat="33.9694417" lon="8.20039"><ele>59.0</ele><time>2026-04-23T11:05:44.325Z</time></trkpt><trkpt lat="33.96927" lon="8.2002417"><ele>59.0</ele><time>2026-04-23T11:05:45.325Z</time></trkpt><trkpt lat="33.9691033" lon="8.2000767"><ele>58.66666666666667</ele><time>2026-04-23T11:05:46.326Z</time></trkpt><trkpt lat="33.9689433" lon="8.199925"><ele>58.33333333333333</ele><time>2026-04-23T11:05:47.326Z</time></trkpt><trkpt lat="33.9687833" lon="8.199775"><ele>58.0</ele><time>2026-04-23T11:05:48.325Z</time></trkpt><trkpt lat="33.96862" lon="8.1996283"><ele>57.666666666666664</ele><time>2026-04-23T11:05:49.326Z</time></trkpt><trkpt lat="33.9684533" lon="8.19949"><ele>57.33333333333333</ele><time>2026-04-23T11:05:50.326Z</time></trkpt><trkpt lat="33.9682933" lon="8.1993433"><ele>57.0</ele><time>2026-04-23T11:05:51.325Z</time></trkpt><trkpt lat="33.9681283" lon="8.1991983"><ele>57.0</ele><time>2026-04-23T11:05:52.325Z</time></trkpt><trkpt lat="33.9679683" lon="8.1990517"><ele>57.0</ele><time>2026-04-23T11:05:53.325Z</time></trkpt><trkpt lat="33.9678083" lon="8.1989017"><ele>57.0</ele><time>2026-04-23T11:05:54.326Z</time></trkpt><trkpt lat="33.96765" lon="8.1987483"><ele>57.66666666666667</ele><time>2026-04-23T11:05:55.325Z</time></trkpt><trkpt lat="33.9674833" lon="8.198605"><ele>58.333333333333336</ele><time>2026-04-23T11:05:56.326Z</time></trkpt><trkpt lat="33.96732" lon="8.19846"><ele>59.0</ele><time>2026-04-23T11:05:57.326Z</time></trkpt><trkpt lat="33.9671533" lon="8.1983133"><ele>59.0</ele><time>2026-04-23T11:05:58.326Z</time></trkpt><trkpt lat="33.96699" lon="8.198165"><ele>59.0</ele><time>2026-04-23T11:05:59.326Z</time></trkpt><trkpt lat="33.96683" lon="8.198015"><ele>59.0</ele><time>2026-04-23T11:06:00.326Z</time></trkpt><trkpt lat="33.9666717" lon="8.1978617"><ele>59.0</ele><time>2026-04-23T11:06:01.326Z</time></trkpt><trkpt lat="33.9665117" lon="8.19771"><ele>59.0</ele><time>2026-04-23T11:06:02.325Z</time></trkpt><trkpt lat="33.96635" lon="8.1975567"><ele>59.0</ele><time>2026-04-23T11:06:03.325Z</time></trkpt><trkpt lat="33.9661817" lon="8.1974067"><ele>59.0</ele><time>2026-04-23T11:06:04.326Z</time></trkpt><trkpt lat="33.9660133" lon="8.1972517"><ele>59.0</ele><time>2026-04-23T11:06:05.326Z</time></trkpt><trkpt lat="33.965855" lon="8.1970867"><ele>59.0</ele><time>2026-04-23T11:06:06.325Z</time></trkpt><trkpt lat="33.9656983" lon="8.1969167"><ele>59.0</ele><time>2026-04-23T11:06:07.326Z</time></trkpt><trkpt lat="33.96554" lon="8.196745"><ele>59.0</ele><time>2026-04-23T11:06:08.325Z</time></trkpt><trkpt lat="33.9653917" lon="8.1965733"><ele>59.0</ele><time>2026-04-23T11:06:09.326Z</time></trkpt><trkpt lat="33.965235" lon="8.1964"><ele>58.66666666666667</ele><time>2026-04-23T11:06:10.326Z</time></trkpt><trkpt lat="33.9650767" lon="8.1962183"><ele>58.33333333333333</ele><time>2026-04-23T11:06:11.326Z</time></trkpt><trkpt lat="33.9649317" lon="8.1960167"><ele>58.0</ele><time>2026-04-23T11:06:12.325Z</time></trkpt><trkpt lat="33.9647783" lon="8.1958217"><ele>59.0</ele><time>2026-04-23T11:06:13.325Z</time></trkpt><trkpt lat="33.9646283" lon="8.1956283"><ele>60.0</ele><time>2026-04-23T11:06:14.325Z</time></trkpt><trkpt lat="33.96448" lon="8.1954267"><ele>61.0</ele><time>2026-04-23T11:06:15.325Z</time></trkpt><trkpt lat="33.9643267" lon="8.195235"><ele>61.0</ele><time>2026-04-23T11:06:16.326Z</time></trkpt><trkpt lat="33.9641733" lon="8.1950383"><ele>61.0</ele><time>2026-04-23T11:06:17.325Z</time></trkpt><trkpt lat="33.9640233" lon="8.194845"><ele>61.0</ele><time>2026-04-23T11:06:18.325Z</time></trkpt><trkpt lat="33.9638783" lon="8.1946533"><ele>61.0</ele><time>2026-04-23T11:06:19.325Z</time></trkpt><trkpt lat="33.9637317" lon="8.1944567"><ele>61.0</ele><time>2026-04-23T11:06:20.326Z</time></trkpt><trkpt lat="33.9635767" lon="8.1942633"><ele>61.0</ele><time>2026-04-23T11:06:21.326Z</time></trkpt><trkpt lat="33.9634233" lon="8.1940633"><ele>60.666666666666664</ele><time>2026-04-23T11:06:22.325Z</time></trkpt><trkpt lat="33.963265" lon="8.1938733"><ele>60.33333333333333</ele><time>2026-04-23T11:06:23.325Z</time></trkpt><trkpt lat="33.9631117" lon="8.1936767"><ele>60.0</ele><time>2026-04-23T11:06:24.325Z</time></trkpt><trkpt lat="33.9629633" lon="8.193475"><ele>60.0</ele><time>2026-04-23T11:06:25.325Z</time></trkpt><trkpt lat="33.9628083" lon="8.1932783"><ele>60.0</ele><time>2026-04-23T11:06:26.326Z</time></trkpt><trkpt lat="33.96265" lon="8.1930717"><ele>59.0</ele><time>2026-04-23T11:06:27.325Z</time></trkpt><trkpt lat="33.96249" lon="8.1928683"><ele>58.0</ele><time>2026-04-23T11:06:28.326Z</time></trkpt><trkpt lat="33.9623317" lon="8.1926617"><ele>58.0</ele><time>2026-04-23T11:06:29.326Z</time></trkpt><trkpt lat="33.9621733" lon="8.1924533"><ele>58.0</ele><time>2026-04-23T11:06:30.326Z</time></trkpt><trkpt lat="33.9620217" lon="8.1922417"><ele>59.0</ele><time>2026-04-23T11:06:31.325Z</time></trkpt><trkpt lat="33.9618633" lon="8.1920367"><ele>60.0</ele><time>2026-04-23T11:06:32.325Z</time></trkpt><trkpt lat="33.9617083" lon="8.19183"><ele>61.0</ele><time>2026-04-23T11:06:33.325Z</time></trkpt><trkpt lat="33.9615517" lon="8.191625"><ele>62.0</ele><time>2026-04-23T11:06:34.325Z</time></trkpt><trkpt lat="33.9613917" lon="8.1914217"><ele>62.0</ele><time>2026-04-23T11:06:35.326Z</time></trkpt><trkpt lat="33.96123" lon="8.19122"><ele>62.0</ele><time>2026-04-23T11:06:36.325Z</time></trkpt><trkpt lat="33.9610717" lon="8.1910233"><ele>62.0</ele><time>2026-04-23T11:06:37.325Z</time></trkpt><trkpt lat="33.9609167" lon="8.1908183"><ele>62.0</ele><time>2026-04-23T11:06:38.326Z</time></trkpt><trkpt lat="33.960755" lon="8.19062"><ele>61.0</ele><time>2026-04-23T11:06:39.324Z</time></trkpt><trkpt lat="33.9605933" lon="8.190425"><ele>60.0</ele><time>2026-04-23T11:06:40.324Z</time></trkpt><trkpt lat="33.9604333" lon="8.1902217"><ele>60.0</ele><time>2026-04-23T11:06:41.324Z</time></trkpt><trkpt lat="33.96028" lon="8.1900183"><ele>60.0</ele><time>2026-04-23T11:06:42.324Z</time></trkpt><trkpt lat="33.96013" lon="8.189815"><ele>59.5</ele><time>2026-04-23T11:06:43.324Z</time></trkpt><trkpt lat="33.9599733" lon="8.189615"><ele>59.0</ele><time>2026-04-23T11:06:44.324Z</time></trkpt><trkpt lat="33.9598183" lon="8.1894033"><ele>59.0</ele><time>2026-04-23T11:06:45.324Z</time></trkpt><trkpt lat="33.95966" lon="8.1891983"><ele>59.0</ele><time>2026-04-23T11:06:46.325Z</time></trkpt><trkpt lat="33.9595" lon="8.1889967"><ele>60.0</ele><time>2026-04-23T11:06:47.325Z</time></trkpt><trkpt lat="33.9593417" lon="8.18879"><ele>61.0</ele><time>2026-04-23T11:06:48.324Z</time></trkpt><trkpt lat="33.9591833" lon="8.1885833"><ele>59.0</ele><time>2026-04-23T11:06:49.325Z</time></trkpt><trkpt lat="33.9590283" lon="8.1883767"><ele>57.0</ele><time>2026-04-23T11:06:50.324Z</time></trkpt><trkpt lat="33.95887" lon="8.1881767"><ele>58.5</ele><time>2026-04-23T11:06:51.324Z</time></trkpt><trkpt lat="33.95871" lon="8.1879683"><ele>60.0</ele><time>2026-04-23T11:06:52.324Z</time></trkpt><trkpt lat="33.9585517" lon="8.1877667"><ele>60.0</ele><time>2026-04-23T11:06:53.324Z</time></trkpt><trkpt lat="33.9583917" lon="8.187575"><ele>60.0</ele><time>2026-04-23T11:06:54.324Z</time></trkpt><trkpt lat="33.9582433" lon="8.18738"><ele>60.0</ele><time>2026-04-23T11:06:55.325Z</time></trkpt><trkpt lat="33.9580933" lon="8.1871833"><ele>59.0</ele><time>2026-04-23T11:06:56.324Z</time></trkpt><trkpt lat="33.9579383" lon="8.1869867"><ele>58.0</ele><time>2026-04-23T11:06:57.324Z</time></trkpt><trkpt lat="33.9577833" lon="8.1867917"><ele>57.0</ele><time>2026-04-23T11:06:58.324Z</time></trkpt><trkpt lat="33.9576367" lon="8.1865917"><ele>56.66666666666667</ele><time>2026-04-23T11:06:59.324Z</time></trkpt><trkpt lat="33.9574917" lon="8.1863917"><ele>56.333333333333336</ele><time>2026-04-23T11:07:00.325Z</time></trkpt><trkpt lat="33.9573383" lon="8.18619"><ele>56.0</ele><time>2026-04-23T11:07:01.324Z</time></trkpt><trkpt lat="33.9571817" lon="8.1859833"><ele>56.0</ele><time>2026-04-23T11:07:02.325Z</time></trkpt><trkpt lat="33.9570183" lon="8.185785"><ele>56.0</ele><time>2026-04-23T11:07:03.324Z</time></trkpt><trkpt lat="33.9568633" lon="8.185585"><ele>56.5</ele><time>2026-04-23T11:07:04.324Z</time></trkpt><trkpt lat="33.956715" lon="8.18538"><ele>57.0</ele><time>2026-04-23T11:07:05.324Z</time></trkpt><trkpt lat="33.9565583" lon="8.1851833"><ele>56.0</ele><time>2026-04-23T11:07:06.325Z</time></trkpt><trkpt lat="33.9564017" lon="8.1849767"><ele>55.0</ele><time>2026-04-23T11:07:07.324Z</time></trkpt><trkpt lat="33.95624" lon="8.184775"><ele>54.666666666666664</ele><time>2026-04-23T11:07:08.325Z</time></trkpt><trkpt lat="33.956085" lon="8.1845783"><ele>54.33333333333333</ele><time>2026-04-23T11:07:09.325Z</time></trkpt><trkpt lat="33.9559317" lon="8.1843867"><ele>54.0</ele><time>2026-04-23T11:07:10.324Z</time></trkpt><trkpt lat="33.9557733" lon="8.18419"><ele>54.5</ele><time>2026-04-23T11:07:11.325Z</time></trkpt><trkpt lat="33.9556067" lon="8.1839933"><ele>55.0</ele><time>2026-04-23T11:07:12.324Z</time></trkpt><trkpt lat="33.9554467" lon="8.1837917"><ele>55.0</ele><time>2026-04-23T11:07:13.324Z</time></trkpt><trkpt lat="33.9552983" lon="8.1835817"><ele>55.0</ele><time>2026-04-23T11:07:14.324Z</time></trkpt><trkpt lat="33.955145" lon="8.1833717"><ele>53.5</ele><time>2026-04-23T11:07:15.325Z</time></trkpt><trkpt lat="33.9549883" lon="8.1831667"><ele>52.0</ele><time>2026-04-23T11:07:16.325Z</time></trkpt><trkpt lat="33.954835" lon="8.1829667"><ele>52.0</ele><time>2026-04-23T11:07:17.325Z</time></trkpt><trkpt lat="33.954675" lon="8.1827667"><ele>52.0</ele><time>2026-04-23T11:07:18.324Z</time></trkpt><trkpt lat="33.9545167" lon="8.1825567"><ele>52.0</ele><time>2026-04-23T11:07:19.325Z</time></trkpt><trkpt lat="33.9543583" lon="8.1823567"><ele>52.0</ele><time>2026-04-23T11:07:20.324Z</time></trkpt><trkpt lat="33.954205" lon="8.182155"><ele>51.0</ele><time>2026-04-23T11:07:21.325Z</time></trkpt><trkpt lat="33.9540483" lon="8.1819517"><ele>50.0</ele><time>2026-04-23T11:07:22.324Z</time></trkpt><trkpt lat="33.95389" lon="8.18174"><ele>50.0</ele><time>2026-04-23T11:07:23.324Z</time></trkpt><trkpt lat="33.9537367" lon="8.1815333"><ele>50.0</ele><time>2026-04-23T11:07:24.325Z</time></trkpt><trkpt lat="33.95358" lon="8.1813283"><ele>50.5</ele><time>2026-04-23T11:07:25.325Z</time></trkpt><trkpt lat="33.9534217" lon="8.1811233"><ele>51.0</ele><time>2026-04-23T11:07:26.324Z</time></trkpt><trkpt lat="33.95326" lon="8.1809183"><ele>50.0</ele><time>2026-04-23T11:07:27.324Z</time></trkpt><trkpt lat="33.9531017" lon="8.1807083"><ele>49.0</ele><time>2026-04-23T11:07:28.324Z</time></trkpt><trkpt lat="33.9529417" lon="8.1805"><ele>48.0</ele><time>2026-04-23T11:07:29.325Z</time></trkpt><trkpt lat="33.9527867" lon="8.18029"><ele>47.0</ele><time>2026-04-23T11:07:30.325Z</time></trkpt><trkpt lat="33.95263" lon="8.1800833"><ele>47.0</ele><time>2026-04-23T11:07:31.325Z</time></trkpt><trkpt lat="33.95247" lon="8.1798717"><ele>47.0</ele><time>2026-04-23T11:07:32.324Z</time></trkpt><trkpt lat="33.95231" lon="8.179665"><ele>47.0</ele><time>2026-04-23T11:07:33.324Z</time></trkpt><trkpt lat="33.9521483" lon="8.1794583"><ele>47.0</ele><time>2026-04-23T11:07:34.324Z</time></trkpt><trkpt lat="33.951995" lon="8.1792583"><ele>47.0</ele><time>2026-04-23T11:07:35.325Z</time></trkpt><trkpt lat="33.951835" lon="8.1790567"><ele>47.0</ele><time>2026-04-23T11:07:36.324Z</time></trkpt><trkpt lat="33.9516767" lon="8.1788533"><ele>46.5</ele><time>2026-04-23T11:07:37.325Z</time></trkpt><trkpt lat="33.9515167" lon="8.178655"><ele>46.0</ele><time>2026-04-23T11:07:38.325Z</time></trkpt><trkpt lat="33.951355" lon="8.1784533"><ele>46.0</ele><time>2026-04-23T11:07:39.324Z</time></trkpt><trkpt lat="33.951195" lon="8.1782533"><ele>46.0</ele><time>2026-04-23T11:07:40.324Z</time></trkpt><trkpt lat="33.951035" lon="8.17805"><ele>46.0</ele><time>2026-04-23T11:07:41.324Z</time></trkpt><trkpt lat="33.9508783" lon="8.17785"><ele>46.0</ele><time>2026-04-23T11:07:42.325Z</time></trkpt><trkpt lat="33.9507183" lon="8.177645"><ele>46.0</ele><time>2026-04-23T11:07:43.324Z</time></trkpt><trkpt lat="33.9505683" lon="8.17744"><ele>46.0</ele><time>2026-04-23T11:07:44.324Z</time></trkpt><trkpt lat="33.9504133" lon="8.1772367"><ele>45.5</ele><time>2026-04-23T11:07:45.325Z</time></trkpt><trkpt lat="33.9502567" lon="8.1770417"><ele>45.0</ele><time>2026-04-23T11:07:46.324Z</time></trkpt><trkpt lat="33.9501033" lon="8.1768417"><ele>44.666666666666664</ele><time>2026-04-23T11:07:47.325Z</time></trkpt><trkpt lat="33.94995" lon="8.176645"><ele>44.33333333333333</ele><time>2026-04-23T11:07:48.324Z</time></trkpt><trkpt lat="33.9498033" lon="8.1764517"><ele>44.0</ele><time>2026-04-23T11:07:49.324Z</time></trkpt><trkpt lat="33.9496583" lon="8.1762683"><ele>44.666666666666664</ele><time>2026-04-23T11:07:50.325Z</time></trkpt><trkpt lat="33.9495167" lon="8.1760917"><ele>45.333333333333336</ele><time>2026-04-23T11:07:51.325Z</time></trkpt><trkpt lat="33.949385" lon="8.1759283"><ele>46.0</ele><time>2026-04-23T11:07:52.324Z</time></trkpt><trkpt lat="33.9492517" lon="8.17577"><ele>45.66666666666667</ele><time>2026-04-23T11:07:53.324Z</time></trkpt><trkpt lat="33.9491233" lon="8.175615"><ele>45.333333333333336</ele><time>2026-04-23T11:07:54.324Z</time></trkpt><trkpt lat="33.9489967" lon="8.175455"><ele>45.0</ele><time>2026-04-23T11:07:55.324Z</time></trkpt><trkpt lat="33.9488783" lon="8.1753"><ele>45.0</ele><time>2026-04-23T11:07:56.324Z</time></trkpt><trkpt lat="33.9487633" lon="8.1751517"><ele>45.0</ele><time>2026-04-23T11:07:57.325Z</time></trkpt><trkpt lat="33.9486517" lon="8.1750083"><ele>45.0</ele><time>2026-04-23T11:07:58.324Z</time></trkpt><trkpt lat="33.94854" lon="8.1748667"><ele>45.0</ele><time>2026-04-23T11:07:59.325Z</time></trkpt><trkpt lat="33.9484367" lon="8.1747283"><ele>45.0</ele><time>2026-04-23T11:08:00.325Z</time></trkpt><trkpt lat="33.9483467" lon="8.1746"><ele>45.0</ele><time>2026-04-23T11:08:01.324Z</time></trkpt><trkpt lat="33.94826" lon="8.1744817"><ele>45.0</ele><time>2026-04-23T11:08:02.325Z</time></trkpt><trkpt lat="33.94817" lon="8.1743733"><ele>45.0</ele><time>2026-04-23T11:08:03.324Z</time></trkpt><trkpt lat="33.9480967" lon="8.1742767"><ele>45.0</ele><time>2026-04-23T11:08:04.324Z</time></trkpt><trkpt lat="33.94803" lon="8.1741783"><ele>45.0</ele><time>2026-04-23T11:08:05.324Z</time></trkpt><trkpt lat="33.9479483" lon="8.1740733"><ele>45.0</ele><time>2026-04-23T11:08:06.324Z</time></trkpt><trkpt lat="33.9478683" lon="8.1739733"><ele>45.0</ele><time>2026-04-23T11:08:07.324Z</time></trkpt><trkpt lat="33.9477917" lon="8.1738733"><ele>45.0</ele><time>2026-04-23T11:08:08.325Z</time></trkpt><trkpt lat="33.947715" lon="8.1737667"><ele>45.0</ele><time>2026-04-23T11:08:09.324Z</time></trkpt><trkpt lat="33.9476317" lon="8.1736517"><ele>45.0</ele><time>2026-04-23T11:08:10.324Z</time></trkpt><trkpt lat="33.947545" lon="8.1735417"><ele>45.0</ele><time>2026-04-23T11:08:11.324Z</time></trkpt><trkpt lat="33.9474583" lon="8.1734317"><ele>45.0</ele><time>2026-04-23T11:08:12.324Z</time></trkpt><trkpt lat="33.9473717" lon="8.1733267"><ele>45.0</ele><time>2026-04-23T11:08:13.324Z</time></trkpt><trkpt lat="33.9472817" lon="8.1732217"><ele>45.0</ele><time>2026-04-23T11:08:14.325Z</time></trkpt><trkpt lat="33.9471917" lon="8.1731083"><ele>45.0</ele><time>2026-04-23T11:08:15.324Z</time></trkpt><trkpt lat="33.9471033" lon="8.1729883"><ele>44.75</ele><time>2026-04-23T11:08:16.325Z</time></trkpt><trkpt lat="33.9470067" lon="8.17287"><ele>44.5</ele><time>2026-04-23T11:08:17.325Z</time></trkpt><trkpt lat="33.9469" lon="8.1727567"><ele>44.25</ele><time>2026-04-23T11:08:18.324Z</time></trkpt><trkpt lat="33.94679" lon="8.1726483"><ele>44.0</ele><time>2026-04-23T11:08:19.324Z</time></trkpt><trkpt lat="33.9466633" lon="8.1725367"><ele>44.0</ele><time>2026-04-23T11:08:20.325Z</time></trkpt><trkpt lat="33.9465333" lon="8.1724167"><ele>44.0</ele><time>2026-04-23T11:08:21.324Z</time></trkpt><trkpt lat="33.9464017" lon="8.1723083"><ele>44.0</ele><time>2026-04-23T11:08:22.324Z</time></trkpt><trkpt lat="33.9462733" lon="8.1721933"><ele>44.33333333333333</ele><time>2026-04-23T11:08:23.325Z</time></trkpt><trkpt lat="33.9461283" lon="8.172085"><ele>44.666666666666664</ele><time>2026-04-23T11:08:24.325Z</time></trkpt><trkpt lat="33.94598" lon="8.1719783"><ele>45.0</ele><time>2026-04-23T11:08:25.325Z</time></trkpt><trkpt lat="33.9458333" lon="8.17186"><ele>43.666666666666664</ele><time>2026-04-23T11:08:26.324Z</time></trkpt><trkpt lat="33.9456883" lon="8.1717617"><ele>42.33333333333333</ele><time>2026-04-23T11:08:27.325Z</time></trkpt><trkpt lat="33.94554" lon="8.1716633"><ele>41.0</ele><time>2026-04-23T11:08:28.325Z</time></trkpt><trkpt lat="33.9453767" lon="8.1715717"><ele>41.33333333333333</ele><time>2026-04-23T11:08:29.325Z</time></trkpt><trkpt lat="33.9452183" lon="8.1714767"><ele>41.666666666666664</ele><time>2026-04-23T11:08:30.324Z</time></trkpt><trkpt lat="33.9450483" lon="8.1713767"><ele>42.0</ele><time>2026-04-23T11:08:31.325Z</time></trkpt><trkpt lat="33.9448767" lon="8.1712583"><ele>42.0</ele><time>2026-04-23T11:08:32.324Z</time></trkpt><trkpt lat="33.944705" lon="8.17114"><ele>42.0</ele><time>2026-04-23T11:08:33.325Z</time></trkpt><trkpt lat="33.94453" lon="8.1710283"><ele>42.0</ele><time>2026-04-23T11:08:34.325Z</time></trkpt><trkpt lat="33.9443583" lon="8.1709033"><ele>41.0</ele><time>2026-04-23T11:08:35.324Z</time></trkpt><trkpt lat="33.94418" lon="8.1707967"><ele>40.0</ele><time>2026-04-23T11:08:36.324Z</time></trkpt><trkpt lat="33.944" lon="8.1706833"><ele>39.0</ele><time>2026-04-23T11:08:37.325Z</time></trkpt><trkpt lat="33.9438217" lon="8.1705733"><ele>39.0</ele><time>2026-04-23T11:08:38.325Z</time></trkpt><trkpt lat="33.94363" lon="8.170465"><ele>39.0</ele><time>2026-04-23T11:08:39.324Z</time></trkpt><trkpt lat="33.94345" lon="8.1703517"><ele>39.0</ele><time>2026-04-23T11:08:40.325Z</time></trkpt><trkpt lat="33.9432633" lon="8.1702367"><ele>37.666666666666664</ele><time>2026-04-23T11:08:41.324Z</time></trkpt><trkpt lat="33.94308" lon="8.1701233"><ele>36.33333333333333</ele><time>2026-04-23T11:08:42.325Z</time></trkpt><trkpt lat="33.9429" lon="8.17001"><ele>35.0</ele><time>2026-04-23T11:08:43.325Z</time></trkpt><trkpt lat="33.9427167" lon="8.1698917"><ele>34.33333333333333</ele><time>2026-04-23T11:08:44.325Z</time></trkpt><trkpt lat="33.942525" lon="8.1697733"><ele>33.666666666666664</ele><time>2026-04-23T11:08:45.324Z</time></trkpt><trkpt lat="33.942335" lon="8.169655"><ele>33.0</ele><time>2026-04-23T11:08:46.324Z</time></trkpt><trkpt lat="33.9421483" lon="8.169535"><ele>33.0</ele><time>2026-04-23T11:08:47.324Z</time></trkpt><trkpt lat="33.9419567" lon="8.1694117"><ele>33.0</ele><time>2026-04-23T11:08:48.324Z</time></trkpt><trkpt lat="33.9417683" lon="8.16929"><ele>33.0</ele><time>2026-04-23T11:08:49.324Z</time></trkpt><trkpt lat="33.9415783" lon="8.16917"><ele>32.333333333333336</ele><time>2026-04-23T11:08:50.324Z</time></trkpt><trkpt lat="33.9413933" lon="8.1690417"><ele>31.666666666666668</ele><time>2026-04-23T11:08:51.324Z</time></trkpt><trkpt lat="33.9412067" lon="8.1689017"><ele>31.0</ele><time>2026-04-23T11:08:52.324Z</time></trkpt><trkpt lat="33.9410317" lon="8.16875"><ele>30.0</ele><time>2026-04-23T11:08:53.324Z</time></trkpt><trkpt lat="33.9408617" lon="8.168585"><ele>29.0</ele><time>2026-04-23T11:08:54.325Z</time></trkpt><trkpt lat="33.940695" lon="8.1684083"><ele>28.0</ele><time>2026-04-23T11:08:55.324Z</time></trkpt><trkpt lat="33.9405317" lon="8.1682367"><ele>28.666666666666668</ele><time>2026-04-23T11:08:56.324Z</time></trkpt><trkpt lat="33.9403767" lon="8.168055"><ele>29.333333333333336</ele><time>2026-04-23T11:08:57.324Z</time></trkpt><trkpt lat="33.9402383" lon="8.1678483"><ele>30.0</ele><time>2026-04-23T11:08:58.325Z</time></trkpt><trkpt lat="33.940105" lon="8.1676367"><ele>29.666666666666664</ele><time>2026-04-23T11:08:59.324Z</time></trkpt><trkpt lat="33.9399767" lon="8.16742"><ele>29.333333333333332</ele><time>2026-04-23T11:09:00.324Z</time></trkpt><trkpt lat="33.9398567" lon="8.1671983"><ele>29.0</ele><time>2026-04-23T11:09:01.325Z</time></trkpt><trkpt lat="33.9397367" lon="8.1669783"><ele>28.666666666666664</ele><time>2026-04-23T11:09:02.325Z</time></trkpt><trkpt lat="33.939605" lon="8.166765"><ele>28.333333333333336</ele><time>2026-04-23T11:09:03.325Z</time></trkpt><trkpt lat="33.93948" lon="8.1665467"><ele>28.0</ele><time>2026-04-23T11:09:04.325Z</time></trkpt><trkpt lat="33.9393467" lon="8.1663267"><ele>28.333333333333336</ele><time>2026-04-23T11:09:05.324Z</time></trkpt><trkpt lat="33.9392183" lon="8.1661117"><ele>28.666666666666664</ele><time>2026-04-23T11:09:06.325Z</time></trkpt><trkpt lat="33.9390967" lon="8.165895"><ele>29.0</ele><time>2026-04-23T11:09:07.324Z</time></trkpt><trkpt lat="33.9389717" lon="8.1656833"><ele>29.333333333333332</ele><time>2026-04-23T11:09:08.325Z</time></trkpt><trkpt lat="33.9388483" lon="8.16547"><ele>29.666666666666664</ele><time>2026-04-23T11:09:09.324Z</time></trkpt><trkpt lat="33.9387233" lon="8.16526"><ele>30.0</ele><time>2026-04-23T11:09:10.325Z</time></trkpt><trkpt lat="33.9385983" lon="8.16505"><ele>30.333333333333336</ele><time>2026-04-23T11:09:11.324Z</time></trkpt><trkpt lat="33.9384733" lon="8.1648383"><ele>30.666666666666668</ele><time>2026-04-23T11:09:12.325Z</time></trkpt><trkpt lat="33.9383533" lon="8.164625"><ele>31.0</ele><time>2026-04-23T11:09:13.325Z</time></trkpt><trkpt lat="33.9382283" lon="8.1644067"><ele>31.0</ele><time>2026-04-23T11:09:14.325Z</time></trkpt><trkpt lat="33.9380983" lon="8.1641933"><ele>31.0</ele><time>2026-04-23T11:09:15.325Z</time></trkpt><trkpt lat="33.9379717" lon="8.1639833"><ele>31.0</ele><time>2026-04-23T11:09:16.324Z</time></trkpt><trkpt lat="33.937845" lon="8.1637733"><ele>31.0</ele><time>2026-04-23T11:09:17.325Z</time></trkpt><trkpt lat="33.93772" lon="8.1635567"><ele>31.0</ele><time>2026-04-23T11:09:18.325Z</time></trkpt><trkpt lat="33.9375933" lon="8.1633367"><ele>31.0</ele><time>2026-04-23T11:09:19.324Z</time></trkpt><trkpt lat="33.9374617" lon="8.1631183"><ele>31.0</ele><time>2026-04-23T11:09:20.325Z</time></trkpt><trkpt lat="33.9373233" lon="8.1629017"><ele>31.0</ele><time>2026-04-23T11:09:21.325Z</time></trkpt><trkpt lat="33.9371983" lon="8.162705"><ele>31.0</ele><time>2026-04-23T11:09:22.324Z</time></trkpt><trkpt lat="33.93707" lon="8.1625017"><ele>31.666666666666668</ele><time>2026-04-23T11:09:23.324Z</time></trkpt><trkpt lat="33.9369417" lon="8.1622917"><ele>32.333333333333336</ele><time>2026-04-23T11:09:24.324Z</time></trkpt><trkpt lat="33.9368083" lon="8.1620867"><ele>33.0</ele><time>2026-04-23T11:09:25.325Z</time></trkpt><trkpt lat="33.9366733" lon="8.1618833"><ele>33.0</ele><time>2026-04-23T11:09:26.325Z</time></trkpt><trkpt lat="33.936535" lon="8.1616817"><ele>33.0</ele><time>2026-04-23T11:09:27.324Z</time></trkpt><trkpt lat="33.9363983" lon="8.1615017"><ele>33.0</ele><time>2026-04-23T11:09:28.324Z</time></trkpt><trkpt lat="33.9362667" lon="8.1613267"><ele>33.666666666666664</ele><time>2026-04-23T11:09:29.324Z</time></trkpt><trkpt lat="33.93613" lon="8.1611683"><ele>34.33333333333333</ele><time>2026-04-23T11:09:30.325Z</time></trkpt><trkpt lat="33.9360117" lon="8.1610133"><ele>35.0</ele><time>2026-04-23T11:09:31.324Z</time></trkpt><trkpt lat="33.9359017" lon="8.160865"><ele>34.0</ele><time>2026-04-23T11:09:32.325Z</time></trkpt><trkpt lat="33.935785" lon="8.160725"><ele>33.0</ele><time>2026-04-23T11:09:33.324Z</time></trkpt><trkpt lat="33.9356733" lon="8.16059"><ele>32.0</ele><time>2026-04-23T11:09:34.325Z</time></trkpt><trkpt lat="33.9355583" lon="8.1604567"><ele>32.0</ele><time>2026-04-23T11:09:35.324Z</time></trkpt><trkpt lat="33.93545" lon="8.160325"><ele>32.0</ele><time>2026-04-23T11:09:36.325Z</time></trkpt><trkpt lat="33.93534" lon="8.160185"><ele>32.0</ele><time>2026-04-23T11:09:37.325Z</time></trkpt><trkpt lat="33.9352283" lon="8.1600383"><ele>32.0</ele><time>2026-04-23T11:09:38.324Z</time></trkpt><trkpt lat="33.9351183" lon="8.159885"><ele>32.0</ele><time>2026-04-23T11:09:39.325Z</time></trkpt><trkpt lat="33.9349967" lon="8.15973"><ele>32.0</ele><time>2026-04-23T11:09:40.324Z</time></trkpt><trkpt lat="33.9348817" lon="8.1595783"><ele>31.666666666666664</ele><time>2026-04-23T11:09:41.324Z</time></trkpt><trkpt lat="33.9347683" lon="8.159425"><ele>31.333333333333336</ele><time>2026-04-23T11:09:42.324Z</time></trkpt><trkpt lat="33.9346617" lon="8.1592683"><ele>31.0</ele><time>2026-04-23T11:09:43.324Z</time></trkpt><trkpt lat="33.93455" lon="8.1591033"><ele>31.666666666666668</ele><time>2026-04-23T11:09:44.324Z</time></trkpt><trkpt lat="33.9344467" lon="8.15894"><ele>32.333333333333336</ele><time>2026-04-23T11:09:45.325Z</time></trkpt><trkpt lat="33.9343367" lon="8.1587733"><ele>33.0</ele><time>2026-04-23T11:09:46.325Z</time></trkpt><trkpt lat="33.9342317" lon="8.15861"><ele>32.666666666666664</ele><time>2026-04-23T11:09:47.325Z</time></trkpt><trkpt lat="33.93413" lon="8.15845"><ele>32.33333333333333</ele><time>2026-04-23T11:09:48.325Z</time></trkpt><trkpt lat="33.9340333" lon="8.1583033"><ele>32.0</ele><time>2026-04-23T11:09:49.324Z</time></trkpt><trkpt lat="33.9339467" lon="8.15815"><ele>32.0</ele><time>2026-04-23T11:09:50.325Z</time></trkpt><trkpt lat="33.93387" lon="8.158025"><ele>32.0</ele><time>2026-04-23T11:09:51.324Z</time></trkpt><trkpt lat="33.9338017" lon="8.157905"><ele>32.0</ele><time>2026-04-23T11:09:52.325Z</time></trkpt><trkpt lat="33.9337383" lon="8.1577883"><ele>32.0</ele><time>2026-04-23T11:09:53.325Z</time></trkpt><trkpt lat="33.933685" lon="8.1576783"><ele>32.0</ele><time>2026-04-23T11:09:54.325Z</time></trkpt><trkpt lat="33.93363" lon="8.157575"><ele>32.0</ele><time>2026-04-23T11:09:55.324Z</time></trkpt><trkpt lat="33.933565" lon="8.157465"><ele>32.0</ele><time>2026-04-23T11:09:56.324Z</time></trkpt><trkpt lat="33.9334967" lon="8.1573517"><ele>32.0</ele><time>2026-04-23T11:09:57.324Z</time></trkpt><trkpt lat="33.9334267" lon="8.1572333"><ele>31.75</ele><time>2026-04-23T11:09:58.324Z</time></trkpt><trkpt lat="33.93335" lon="8.157115"><ele>31.5</ele><time>2026-04-23T11:09:59.325Z</time></trkpt><trkpt lat="33.933275" lon="8.15699"><ele>31.25</ele><time>2026-04-23T11:10:00.324Z</time></trkpt><trkpt lat="33.933205" lon="8.1568617"><ele>31.0</ele><time>2026-04-23T11:10:01.324Z</time></trkpt><trkpt lat="33.9331383" lon="8.15673"><ele>31.0</ele><time>2026-04-23T11:10:02.324Z</time></trkpt><trkpt lat="33.9330683" lon="8.1566017"><ele>31.0</ele><time>2026-04-23T11:10:03.324Z</time></trkpt><trkpt lat="33.93299" lon="8.1564817"><ele>31.0</ele><time>2026-04-23T11:10:04.324Z</time></trkpt><trkpt lat="33.932915" lon="8.1563583"><ele>31.0</ele><time>2026-04-23T11:10:05.324Z</time></trkpt><trkpt lat="33.93284" lon="8.156235"><ele>31.0</ele><time>2026-04-23T11:10:06.325Z</time></trkpt><trkpt lat="33.932765" lon="8.1561117"><ele>31.0</ele><time>2026-04-23T11:10:07.324Z</time></trkpt><trkpt lat="33.9326883" lon="8.1559783"><ele>31.0</ele><time>2026-04-23T11:10:08.325Z</time></trkpt><trkpt lat="33.9326083" lon="8.155845"><ele>31.0</ele><time>2026-04-23T11:10:09.325Z</time></trkpt><trkpt lat="33.9325267" lon="8.155705"><ele>31.666666666666668</ele><time>2026-04-23T11:10:10.324Z</time></trkpt><trkpt lat="33.9324417" lon="8.1555567"><ele>32.333333333333336</ele><time>2026-04-23T11:10:11.324Z</time></trkpt><trkpt lat="33.932345" lon="8.1554033"><ele>33.0</ele><time>2026-04-23T11:10:12.324Z</time></trkpt><trkpt lat="33.9322517" lon="8.15524"><ele>33.0</ele><time>2026-04-23T11:10:13.325Z</time></trkpt><trkpt lat="33.9321517" lon="8.1550817"><ele>33.0</ele><time>2026-04-23T11:10:14.324Z</time></trkpt><trkpt lat="33.9320517" lon="8.1549183"><ele>33.0</ele><time>2026-04-23T11:10:15.325Z</time></trkpt><trkpt lat="33.9319533" lon="8.154755"><ele>33.333333333333336</ele><time>2026-04-23T11:10:16.325Z</time></trkpt><trkpt lat="33.93186" lon="8.1545867"><ele>33.66666666666667</ele><time>2026-04-23T11:10:17.324Z</time></trkpt><trkpt lat="33.93175" lon="8.1544217"><ele>34.0</ele><time>2026-04-23T11:10:18.324Z</time></trkpt><trkpt lat="33.9316367" lon="8.154255"><ele>34.0</ele><time>2026-04-23T11:10:19.324Z</time></trkpt><trkpt lat="33.93153" lon="8.15408"><ele>34.0</ele><time>2026-04-23T11:10:20.325Z</time></trkpt><trkpt lat="33.931425" lon="8.153905"><ele>34.0</ele><time>2026-04-23T11:10:21.324Z</time></trkpt><trkpt lat="33.93132" lon="8.1537233"><ele>34.333333333333336</ele><time>2026-04-23T11:10:22.324Z</time></trkpt><trkpt lat="33.9312083" lon="8.15354"><ele>34.666666666666664</ele><time>2026-04-23T11:10:23.325Z</time></trkpt><trkpt lat="33.9310933" lon="8.1533567"><ele>35.0</ele><time>2026-04-23T11:10:24.324Z</time></trkpt><trkpt lat="33.9309817" lon="8.1531683"><ele>35.33333333333333</ele><time>2026-04-23T11:10:25.325Z</time></trkpt><trkpt lat="33.9308667" lon="8.1529783"><ele>35.666666666666664</ele><time>2026-04-23T11:10:26.325Z</time></trkpt><trkpt lat="33.93075" lon="8.1527917"><ele>36.0</ele><time>2026-04-23T11:10:27.324Z</time></trkpt><trkpt lat="33.9306367" lon="8.1526083"><ele>36.0</ele><time>2026-04-23T11:10:28.324Z</time></trkpt><trkpt lat="33.9305233" lon="8.152415"><ele>36.0</ele><time>2026-04-23T11:10:29.324Z</time></trkpt><trkpt lat="33.9304067" lon="8.1522317"><ele>36.0</ele><time>2026-04-23T11:10:30.324Z</time></trkpt><trkpt lat="33.9302917" lon="8.152045"><ele>36.0</ele><time>2026-04-23T11:10:31.324Z</time></trkpt><trkpt lat="33.93018" lon="8.1518533"><ele>36.0</ele><time>2026-04-23T11:10:32.324Z</time></trkpt><trkpt lat="33.9300667" lon="8.151655"><ele>36.0</ele><time>2026-04-23T11:10:33.323Z</time></trkpt><trkpt lat="33.9299467" lon="8.15146"><ele>36.0</ele><time>2026-04-23T11:10:34.324Z</time></trkpt><trkpt lat="33.9298283" lon="8.1512583"><ele>36.0</ele><time>2026-04-23T11:10:35.324Z</time></trkpt><trkpt lat="33.9297133" lon="8.1510567"><ele>36.0</ele><time>2026-04-23T11:10:36.324Z</time></trkpt><trkpt lat="33.929595" lon="8.1508667"><ele>36.333333333333336</ele><time>2026-04-23T11:10:37.323Z</time></trkpt><trkpt lat="33.9294783" lon="8.1506767"><ele>36.66666666666667</ele><time>2026-04-23T11:10:38.323Z</time></trkpt><trkpt lat="33.9293717" lon="8.1504917"><ele>37.0</ele><time>2026-04-23T11:10:39.323Z</time></trkpt><trkpt lat="33.9292683" lon="8.15029"><ele>37.0</ele><time>2026-04-23T11:10:40.323Z</time></trkpt><trkpt lat="33.92917" lon="8.1500933"><ele>37.0</ele><time>2026-04-23T11:10:41.324Z</time></trkpt><trkpt lat="33.92907" lon="8.1499033"><ele>37.0</ele><time>2026-04-23T11:10:42.324Z</time></trkpt><trkpt lat="33.9289817" lon="8.149715"><ele>37.0</ele><time>2026-04-23T11:10:43.323Z</time></trkpt><trkpt lat="33.9289083" lon="8.1495533"><ele>37.0</ele><time>2026-04-23T11:10:44.324Z</time></trkpt><trkpt lat="33.9288417" lon="8.1494083"><ele>37.0</ele><time>2026-04-23T11:10:45.324Z</time></trkpt><trkpt lat="33.92878" lon="8.1492767"><ele>37.0</ele><time>2026-04-23T11:10:46.323Z</time></trkpt><trkpt lat="33.92873" lon="8.1491633"><ele>37.0</ele><time>2026-04-23T11:10:47.324Z</time></trkpt><trkpt lat="33.92869" lon="8.1490583"><ele>37.0</ele><time>2026-04-23T11:10:48.323Z</time></trkpt><trkpt lat="33.92865" lon="8.14896"><ele>37.0</ele><time>2026-04-23T11:10:49.324Z</time></trkpt><trkpt lat="33.9286167" lon="8.1488617"><ele>37.0</ele><time>2026-04-23T11:10:50.323Z</time></trkpt><trkpt lat="33.9285817" lon="8.1487633"><ele>37.0</ele><time>2026-04-23T11:10:51.323Z</time></trkpt><trkpt lat="33.9285417" lon="8.1486617"><ele>37.0</ele><time>2026-04-23T11:10:52.324Z</time></trkpt><trkpt lat="33.9284983" lon="8.1485633"><ele>37.0</ele><time>2026-04-23T11:10:53.323Z</time></trkpt><trkpt lat="33.92846" lon="8.1484583"><ele>37.0</ele><time>2026-04-23T11:10:54.324Z</time></trkpt><trkpt lat="33.928425" lon="8.1483583"><ele>37.0</ele><time>2026-04-23T11:10:55.324Z</time></trkpt><trkpt lat="33.9283833" lon="8.1482583"><ele>37.0</ele><time>2026-04-23T11:10:56.323Z</time></trkpt><trkpt lat="33.9283383" lon="8.1481583"><ele>37.16666666666667</ele><time>2026-04-23T11:10:57.323Z</time></trkpt><trkpt lat="33.9283" lon="8.1480583"><ele>37.333333333333336</ele><time>2026-04-23T11:10:58.323Z</time></trkpt><trkpt lat="33.928265" lon="8.1479633"><ele>37.5</ele><time>2026-04-23T11:10:59.323Z</time></trkpt><trkpt lat="33.9282367" lon="8.14788"><ele>37.666666666666664</ele><time>2026-04-23T11:11:00.323Z</time></trkpt><trkpt lat="33.928205" lon="8.1478117"><ele>37.83333333333333</ele><time>2026-04-23T11:11:01.323Z</time></trkpt><trkpt lat="33.9281583" lon="8.147685"><ele>38.0</ele><time>2026-04-23T11:11:03.323Z</time></trkpt><trkpt lat="33.9281367" lon="8.14761"><ele>38.0</ele><time>2026-04-23T11:11:04.323Z</time></trkpt><trkpt lat="33.9281133" lon="8.1475333"><ele>38.0</ele><time>2026-04-23T11:11:05.323Z</time></trkpt><trkpt lat="33.9280867" lon="8.14745"><ele>38.0</ele><time>2026-04-23T11:11:06.323Z</time></trkpt><trkpt lat="33.9280567" lon="8.1473583"><ele>38.0</ele><time>2026-04-23T11:11:07.324Z</time></trkpt><trkpt lat="33.9280233" lon="8.1472633"><ele>38.0</ele><time>2026-04-23T11:11:08.323Z</time></trkpt><trkpt lat="33.9279833" lon="8.1471667"><ele>38.0</ele><time>2026-04-23T11:11:09.323Z</time></trkpt><trkpt lat="33.9279383" lon="8.14706"><ele>38.0</ele><time>2026-04-23T11:11:10.324Z</time></trkpt><trkpt lat="33.9278967" lon="8.1469483"><ele>38.0</ele><time>2026-04-23T11:11:11.324Z</time></trkpt><trkpt lat="33.9278433" lon="8.146835"><ele>38.0</ele><time>2026-04-23T11:11:12.323Z</time></trkpt><trkpt lat="33.9277933" lon="8.1467117"><ele>38.0</ele><time>2026-04-23T11:11:13.324Z</time></trkpt><trkpt lat="33.9277467" lon="8.1465883"><ele>38.0</ele><time>2026-04-23T11:11:14.324Z</time></trkpt><trkpt lat="33.9276933" lon="8.1464633"><ele>38.0</ele><time>2026-04-23T11:11:15.323Z</time></trkpt><trkpt lat="33.9276417" lon="8.1463317"><ele>38.0</ele><time>2026-04-23T11:11:16.324Z</time></trkpt><trkpt lat="33.9275883" lon="8.1461983"><ele>38.0</ele><time>2026-04-23T11:11:17.324Z</time></trkpt><trkpt lat="33.9275317" lon="8.1460583"><ele>38.0</ele><time>2026-04-23T11:11:18.323Z</time></trkpt><trkpt lat="33.9274733" lon="8.1459083"><ele>38.0</ele><time>2026-04-23T11:11:19.323Z</time></trkpt><trkpt lat="33.927415" lon="8.145745"><ele>38.0</ele><time>2026-04-23T11:11:20.323Z</time></trkpt><trkpt lat="33.9273483" lon="8.1455983"><ele>38.0</ele><time>2026-04-23T11:11:21.324Z</time></trkpt><trkpt lat="33.9272917" lon="8.1454417"><ele>38.0</ele><time>2026-04-23T11:11:22.324Z</time></trkpt><trkpt lat="33.927235" lon="8.1452833"><ele>38.0</ele><time>2026-04-23T11:11:23.324Z</time></trkpt><trkpt lat="33.9271717" lon="8.1451217"><ele>38.0</ele><time>2026-04-23T11:11:24.324Z</time></trkpt><trkpt lat="33.92711" lon="8.144975"><ele>38.0</ele><time>2026-04-23T11:11:25.323Z</time></trkpt><trkpt lat="33.9270533" lon="8.1448267"><ele>38.0</ele><time>2026-04-23T11:11:26.324Z</time></trkpt><trkpt lat="33.9269983" lon="8.1446683"><ele>38.5</ele><time>2026-04-23T11:11:27.324Z</time></trkpt><trkpt lat="33.92694" lon="8.144515"><ele>39.0</ele><time>2026-04-23T11:11:28.324Z</time></trkpt><trkpt lat="33.9268883" lon="8.1443617"><ele>39.5</ele><time>2026-04-23T11:11:29.324Z</time></trkpt><trkpt lat="33.92683" lon="8.144205"><ele>40.0</ele><time>2026-04-23T11:11:30.323Z</time></trkpt><trkpt lat="33.9267733" lon="8.1440567"><ele>40.25</ele><time>2026-04-23T11:11:31.323Z</time></trkpt><trkpt lat="33.9267117" lon="8.1438983"><ele>40.5</ele><time>2026-04-23T11:11:32.323Z</time></trkpt><trkpt lat="33.9266483" lon="8.1437517"><ele>40.75</ele><time>2026-04-23T11:11:33.324Z</time></trkpt><trkpt lat="33.9265817" lon="8.1435967"><ele>41.0</ele><time>2026-04-23T11:11:34.324Z</time></trkpt><trkpt lat="33.926515" lon="8.14345"><ele>41.0</ele><time>2026-04-23T11:11:35.324Z</time></trkpt><trkpt lat="33.926455" lon="8.1433017"><ele>41.0</ele><time>2026-04-23T11:11:36.323Z</time></trkpt><trkpt lat="33.9263917" lon="8.1431517"><ele>41.0</ele><time>2026-04-23T11:11:37.324Z</time></trkpt><trkpt lat="33.9263267" lon="8.1429933"><ele>41.0</ele><time>2026-04-23T11:11:38.324Z</time></trkpt><trkpt lat="33.926265" lon="8.1428367"><ele>41.0</ele><time>2026-04-23T11:11:39.324Z</time></trkpt><trkpt lat="33.9262083" lon="8.1426833"><ele>41.0</ele><time>2026-04-23T11:11:40.323Z</time></trkpt><trkpt lat="33.9261517" lon="8.142535"><ele>41.0</ele><time>2026-04-23T11:11:41.323Z</time></trkpt><trkpt lat="33.926095" lon="8.1424067"><ele>41.0</ele><time>2026-04-23T11:11:42.324Z</time></trkpt><trkpt lat="33.926045" lon="8.1422917"><ele>41.199999999999996</ele><time>2026-04-23T11:11:43.323Z</time></trkpt><trkpt lat="33.9260067" lon="8.14218"><ele>41.4</ele><time>2026-04-23T11:11:44.324Z</time></trkpt><trkpt lat="33.925975" lon="8.1420783"><ele>41.6</ele><time>2026-04-23T11:11:45.323Z</time></trkpt><trkpt lat="33.9259467" lon="8.1419917"><ele>41.8</ele><time>2026-04-23T11:11:46.323Z</time></trkpt><trkpt lat="33.9259017" lon="8.1418733"><ele>42.0</ele><time>2026-04-23T11:11:48.324Z</time></trkpt><trkpt lat="33.9258567" lon="8.1417767"><ele>42.0</ele><time>2026-04-23T11:12:21.324Z</time></trkpt><trkpt lat="33.9257967" lon="8.1416683"><ele>42.0</ele><time>2026-04-23T11:12:23.324Z</time></trkpt><trkpt lat="33.9257617" lon="8.1415983"><ele>42.0</ele><time>2026-04-23T11:12:24.323Z</time></trkpt><trkpt lat="33.925725" lon="8.141525"><ele>42.0</ele><time>2026-04-23T11:12:25.323Z</time></trkpt><trkpt lat="33.925695" lon="8.141445"><ele>42.0</ele><time>2026-04-23T11:12:26.324Z</time></trkpt><trkpt lat="33.92566" lon="8.1413567"><ele>42.0</ele><time>2026-04-23T11:12:27.323Z</time></trkpt><trkpt lat="33.92562" lon="8.14127"><ele>42.0</ele><time>2026-04-23T11:12:28.324Z</time></trkpt><trkpt lat="33.9255867" lon="8.1411767"><ele>42.0</ele><time>2026-04-23T11:12:29.324Z</time></trkpt><trkpt lat="33.9255467" lon="8.141085"><ele>42.0</ele><time>2026-04-23T11:12:30.323Z</time></trkpt><trkpt lat="33.9255117" lon="8.140995"><ele>42.0</ele><time>2026-04-23T11:12:31.323Z</time></trkpt><trkpt lat="33.9254817" lon="8.1409133"><ele>42.0</ele><time>2026-04-23T11:12:32.323Z</time></trkpt><trkpt lat="33.92545" lon="8.14083"><ele>42.0</ele><time>2026-04-23T11:12:33.323Z</time></trkpt><trkpt lat="33.9254183" lon="8.1407433"><ele>42.166666666666664</ele><time>2026-04-23T11:12:34.323Z</time></trkpt><trkpt lat="33.92539" lon="8.1406517"><ele>42.333333333333336</ele><time>2026-04-23T11:12:35.324Z</time></trkpt><trkpt lat="33.9253633" lon="8.1405633"><ele>42.5</ele><time>2026-04-23T11:12:36.323Z</time></trkpt><trkpt lat="33.9253333" lon="8.1404667"><ele>42.66666666666667</ele><time>2026-04-23T11:12:37.324Z</time></trkpt><trkpt lat="33.9252933" lon="8.14037"><ele>42.833333333333336</ele><time>2026-04-23T11:12:38.323Z</time></trkpt><trkpt lat="33.925265" lon="8.140275"><ele>43.0</ele><time>2026-04-23T11:12:39.323Z</time></trkpt><trkpt lat="33.9252267" lon="8.1401883"><ele>43.0</ele><time>2026-04-23T11:12:40.323Z</time></trkpt><trkpt lat="33.9251833" lon="8.140095"><ele>43.0</ele><time>2026-04-23T11:12:41.323Z</time></trkpt><trkpt lat="33.9251417" lon="8.140005"><ele>43.0</ele><time>2026-04-23T11:12:42.324Z</time></trkpt><trkpt lat="33.9251033" lon="8.13992"><ele>43.0</ele><time>2026-04-23T11:12:43.324Z</time></trkpt><trkpt lat="33.9250667" lon="8.1398333"><ele>43.0</ele><time>2026-04-23T11:12:44.323Z</time></trkpt><trkpt lat="33.9250283" lon="8.1397483"><ele>43.0</ele><time>2026-04-23T11:12:45.324Z</time></trkpt><trkpt lat="33.92498" lon="8.1396733"><ele>42.833333333333336</ele><time>2026-04-23T11:12:46.323Z</time></trkpt><trkpt lat="33.9249433" lon="8.13959"><ele>42.66666666666667</ele><time>2026-04-23T11:12:47.323Z</time></trkpt><trkpt lat="33.9249067" lon="8.1395083"><ele>42.5</ele><time>2026-04-23T11:12:48.323Z</time></trkpt><trkpt lat="33.924875" lon="8.1394183"><ele>42.333333333333336</ele><time>2026-04-23T11:12:49.323Z</time></trkpt><trkpt lat="33.924845" lon="8.1393317"><ele>42.166666666666664</ele><time>2026-04-23T11:12:50.324Z</time></trkpt><trkpt lat="33.9248133" lon="8.139255"><ele>42.0</ele><time>2026-04-23T11:12:51.324Z</time></trkpt><trkpt lat="33.9247767" lon="8.1391783"><ele>42.0</ele><time>2026-04-23T11:12:52.323Z</time></trkpt><trkpt lat="33.9247467" lon="8.1391033"><ele>42.0</ele><time>2026-04-23T11:12:53.324Z</time></trkpt><trkpt lat="33.9247167" lon="8.1390217"><ele>42.0</ele><time>2026-04-23T11:12:54.323Z</time></trkpt><trkpt lat="33.9246933" lon="8.1389467"><ele>42.0</ele><time>2026-04-23T11:12:55.323Z</time></trkpt><trkpt lat="33.9246667" lon="8.1388767"><ele>42.0</ele><time>2026-04-23T11:12:56.324Z</time></trkpt><trkpt lat="33.9246483" lon="8.1388033"><ele>42.0</ele><time>2026-04-23T11:12:57.324Z</time></trkpt><trkpt lat="33.92459" lon="8.1386633"><ele>42.166666666666664</ele><time>2026-04-23T11:12:59.324Z</time></trkpt><trkpt lat="33.9245567" lon="8.13859"><ele>42.333333333333336</ele><time>2026-04-23T11:13:00.324Z</time></trkpt><trkpt lat="33.9245283" lon="8.1385083"><ele>42.5</ele><time>2026-04-23T11:13:01.324Z</time></trkpt><trkpt lat="33.924495" lon="8.138425"><ele>42.66666666666667</ele><time>2026-04-23T11:13:02.324Z</time></trkpt><trkpt lat="33.92446" lon="8.1383383"><ele>42.833333333333336</ele><time>2026-04-23T11:13:03.324Z</time></trkpt><trkpt lat="33.9244217" lon="8.1382533"><ele>43.0</ele><time>2026-04-23T11:13:04.323Z</time></trkpt><trkpt lat="33.924385" lon="8.1381683"><ele>43.4</ele><time>2026-04-23T11:13:05.324Z</time></trkpt><trkpt lat="33.9243567" lon="8.1380833"><ele>43.8</ele><time>2026-04-23T11:13:06.323Z</time></trkpt><trkpt lat="33.9243317" lon="8.138005"><ele>44.2</ele><time>2026-04-23T11:13:07.323Z</time></trkpt><trkpt lat="33.9242717" lon="8.1378833"><ele>44.6</ele><time>2026-04-23T11:13:09.323Z</time></trkpt><trkpt lat="33.9242067" lon="8.1377533"><ele>45.0</ele><time>2026-04-23T11:13:11.324Z</time></trkpt><trkpt lat="33.9241783" lon="8.1376783"><ele>45.166666666666664</ele><time>2026-04-23T11:13:12.323Z</time></trkpt><trkpt lat="33.9241517" lon="8.1375983"><ele>45.333333333333336</ele><time>2026-04-23T11:13:13.323Z</time></trkpt><trkpt lat="33.9241217" lon="8.1375133"><ele>45.5</ele><time>2026-04-23T11:13:14.324Z</time></trkpt><trkpt lat="33.9240933" lon="8.137445"><ele>45.66666666666667</ele><time>2026-04-23T11:13:15.323Z</time></trkpt><trkpt lat="33.9240567" lon="8.137345"><ele>45.833333333333336</ele><time>2026-04-23T11:13:17.323Z</time></trkpt><trkpt lat="33.9240383" lon="8.137265"><ele>46.0</ele><time>2026-04-23T11:13:20.323Z</time></trkpt><trkpt lat="33.9240283" lon="8.1371683"><ele>46.4</ele><time>2026-04-23T11:13:30.323Z</time></trkpt><trkpt lat="33.9240167" lon="8.1370233"><ele>46.8</ele><time>2026-04-23T11:13:34.323Z</time></trkpt><trkpt lat="33.9239583" lon="8.1369083"><ele>47.199999999999996</ele><time>2026-04-23T11:13:36.323Z</time></trkpt><trkpt lat="33.9238983" lon="8.1367917"><ele>47.599999999999994</ele><time>2026-04-23T11:13:38.324Z</time></trkpt><trkpt lat="33.92387" lon="8.1367183"><ele>48.0</ele><time>2026-04-23T11:13:39.323Z</time></trkpt><trkpt lat="33.9238333" lon="8.13663"><ele>48.166666666666664</ele><time>2026-04-23T11:13:40.324Z</time></trkpt><trkpt lat="33.9237933" lon="8.1365383"><ele>48.33333333333333</ele><time>2026-04-23T11:13:41.323Z</time></trkpt><trkpt lat="33.9237617" lon="8.1364567"><ele>48.5</ele><time>2026-04-23T11:13:42.323Z</time></trkpt><trkpt lat="33.923725" lon="8.136375"><ele>48.666666666666664</ele><time>2026-04-23T11:13:43.324Z</time></trkpt><trkpt lat="33.9236833" lon="8.1362967"><ele>48.83333333333333</ele><time>2026-04-23T11:13:44.324Z</time></trkpt><trkpt lat="33.9236433" lon="8.1362133"><ele>49.0</ele><time>2026-04-23T11:13:45.323Z</time></trkpt><trkpt lat="33.9236083" lon="8.1361317"><ele>48.99999999999999</ele><time>2026-04-23T11:13:46.324Z</time></trkpt><trkpt lat="33.92357" lon="8.136045"><ele>49.0</ele><time>2026-04-23T11:13:47.323Z</time></trkpt><trkpt lat="33.9235317" lon="8.1359583"><ele>49.0</ele><time>2026-04-23T11:13:48.323Z</time></trkpt><trkpt lat="33.9234883" lon="8.135875"><ele>49.0</ele><time>2026-04-23T11:13:49.323Z</time></trkpt><trkpt lat="33.9234467" lon="8.1357933"><ele>48.99999999999999</ele><time>2026-04-23T11:13:50.324Z</time></trkpt><trkpt lat="33.92341" lon="8.1357067"><ele>49.0</ele><time>2026-04-23T11:13:51.324Z</time></trkpt><trkpt lat="33.9233733" lon="8.135625"><ele>49.285714285714285</ele><time>2026-04-23T11:13:52.323Z</time></trkpt><trkpt lat="33.9233383" lon="8.1355433"><ele>49.57142857142857</ele><time>2026-04-23T11:13:53.323Z</time></trkpt><trkpt lat="33.9233083" lon="8.1354717"><ele>49.85714285714286</ele><time>2026-04-23T11:13:54.323Z</time></trkpt><trkpt lat="33.9232733" lon="8.1353933"><ele>50.14285714285714</ele><time>2026-04-23T11:13:55.323Z</time></trkpt><trkpt lat="33.9232317" lon="8.13532"><ele>50.42857142857143</ele><time>2026-04-23T11:13:56.323Z</time></trkpt><trkpt lat="33.9231883" lon="8.1352483"><ele>50.714285714285715</ele><time>2026-04-23T11:13:57.323Z</time></trkpt><trkpt lat="33.9231467" lon="8.1351683"><ele>51.0</ele><time>2026-04-23T11:13:58.324Z</time></trkpt><trkpt lat="33.9231017" lon="8.13509"><ele>51.0</ele><time>2026-04-23T11:13:59.324Z</time></trkpt><trkpt lat="33.9230567" lon="8.1350133"><ele>51.0</ele><time>2026-04-23T11:14:00.324Z</time></trkpt><trkpt lat="33.9230167" lon="8.1349383"><ele>51.0</ele><time>2026-04-23T11:14:01.323Z</time></trkpt><trkpt lat="33.9229767" lon="8.1348683"><ele>51.0</ele><time>2026-04-23T11:14:02.323Z</time></trkpt><trkpt lat="33.9229317" lon="8.134805"><ele>51.0</ele><time>2026-04-23T11:14:03.324Z</time></trkpt><trkpt lat="33.9228933" lon="8.1347433"><ele>51.0</ele><time>2026-04-23T11:14:04.323Z</time></trkpt><trkpt lat="33.9228367" lon="8.1346317"><ele>51.199999999999996</ele><time>2026-04-23T11:14:06.324Z</time></trkpt><trkpt lat="33.9227917" lon="8.1345333"><ele>51.4</ele><time>2026-04-23T11:14:08.323Z</time></trkpt><trkpt lat="33.9227317" lon="8.1344333"><ele>51.6</ele><time>2026-04-23T11:14:10.323Z</time></trkpt><trkpt lat="33.92267" lon="8.1343433"><ele>51.8</ele><time>2026-04-23T11:14:12.324Z</time></trkpt><trkpt lat="33.922625" lon="8.1342583"><ele>52.0</ele><time>2026-04-23T11:14:14.323Z</time></trkpt><trkpt lat="33.9225567" lon="8.1341567"><ele>51.8</ele><time>2026-04-23T11:14:16.324Z</time></trkpt><trkpt lat="33.9225033" lon="8.134025"><ele>51.6</ele><time>2026-04-23T11:14:18.324Z</time></trkpt><trkpt lat="33.922445" lon="8.1339083"><ele>51.4</ele><time>2026-04-23T11:14:20.323Z</time></trkpt><trkpt lat="33.922405" lon="8.1337717"><ele>51.199999999999996</ele><time>2026-04-23T11:14:22.322Z</time></trkpt><trkpt lat="33.92238" lon="8.1337017"><ele>51.0</ele><time>2026-04-23T11:14:23.323Z</time></trkpt><trkpt lat="33.922345" lon="8.133635"><ele>51.0</ele><time>2026-04-23T11:14:24.323Z</time></trkpt><trkpt lat="33.9223217" lon="8.1335617"><ele>51.0</ele><time>2026-04-23T11:14:25.322Z</time></trkpt><trkpt lat="33.922295" lon="8.1334833"><ele>51.0</ele><time>2026-04-23T11:14:26.323Z</time></trkpt><trkpt lat="33.922275" lon="8.1334033"><ele>51.0</ele><time>2026-04-23T11:14:27.323Z</time></trkpt><trkpt lat="33.92225" lon="8.13332"><ele>51.0</ele><time>2026-04-23T11:14:28.323Z</time></trkpt><trkpt lat="33.9222267" lon="8.133235"><ele>51.0</ele><time>2026-04-23T11:14:29.322Z</time></trkpt><trkpt lat="33.9221967" lon="8.1331583"><ele>51.0</ele><time>2026-04-23T11:14:30.323Z</time></trkpt><trkpt lat="33.92217" lon="8.1330783"><ele>50.599999999999994</ele><time>2026-04-23T11:14:31.322Z</time></trkpt><trkpt lat="33.9221483" lon="8.133"><ele>50.2</ele><time>2026-04-23T11:14:32.322Z</time></trkpt><trkpt lat="33.92213" lon="8.1329217"><ele>49.8</ele><time>2026-04-23T11:14:33.322Z</time></trkpt><trkpt lat="33.9220883" lon="8.1327817"><ele>49.400000000000006</ele><time>2026-04-23T11:14:35.322Z</time></trkpt><trkpt lat="33.922055" lon="8.132655"><ele>49.0</ele><time>2026-04-23T11:14:37.323Z</time></trkpt><trkpt lat="33.9220233" lon="8.1325617"><ele>48.99999999999999</ele><time>2026-04-23T11:14:39.323Z</time></trkpt><trkpt lat="33.921995" lon="8.1324767"><ele>49.0</ele><time>2026-04-23T11:14:41.323Z</time></trkpt><trkpt lat="33.9219633" lon="8.132355"><ele>49.0</ele><time>2026-04-23T11:14:43.322Z</time></trkpt><trkpt lat="33.9219467" lon="8.1322817"><ele>49.0</ele><time>2026-04-23T11:14:44.322Z</time></trkpt><trkpt lat="33.921925" lon="8.13221"><ele>48.99999999999999</ele><time>2026-04-23T11:14:45.322Z</time></trkpt><trkpt lat="33.9218817" lon="8.1320667"><ele>49.0</ele><time>2026-04-23T11:14:47.322Z</time></trkpt><trkpt lat="33.9218233" lon="8.1319317"><ele>48.6</ele><time>2026-04-23T11:14:49.323Z</time></trkpt><trkpt lat="33.9217983" lon="8.1318617"><ele>48.2</ele><time>2026-04-23T11:14:50.323Z</time></trkpt><trkpt lat="33.921775" lon="8.1317883"><ele>47.800000000000004</ele><time>2026-04-23T11:14:51.322Z</time></trkpt><trkpt lat="33.921755" lon="8.13165"><ele>47.400000000000006</ele><time>2026-04-23T11:14:53.322Z</time></trkpt><trkpt lat="33.92172" lon="8.1315117"><ele>47.0</ele><time>2026-04-23T11:14:55.323Z</time></trkpt><trkpt lat="33.9216883" lon="8.13138"><ele>47.0</ele><time>2026-04-23T11:14:57.323Z</time></trkpt><trkpt lat="33.9216667" lon="8.1312517"><ele>47.0</ele><time>2026-04-23T11:14:59.323Z</time></trkpt><trkpt lat="33.92164" lon="8.1311617"><ele>47.0</ele><time>2026-04-23T11:15:01.323Z</time></trkpt><trkpt lat="33.9216067" lon="8.1310583"><ele>47.0</ele><time>2026-04-23T11:15:03.323Z</time></trkpt><trkpt lat="33.9216017" lon="8.13096"><ele>47.0</ele><time>2026-04-23T11:15:06.323Z</time></trkpt><trkpt lat="33.9215933" lon="8.130825"><ele>47.0</ele><time>2026-04-23T11:15:14.323Z</time></trkpt><trkpt lat="33.9215967" lon="8.1307333"><ele>47.0</ele><time>2026-04-23T11:15:17.322Z</time></trkpt><trkpt lat="33.92158" lon="8.1306367"><ele>47.0</ele><time>2026-04-23T11:15:21.323Z</time></trkpt><trkpt lat="33.9215567" lon="8.1305533"><ele>47.0</ele><time>2026-04-23T11:15:24.323Z</time></trkpt><trkpt lat="33.921545" lon="8.130445"><ele>47.0</ele><time>2026-04-23T11:15:28.323Z</time></trkpt><trkpt lat="33.921545" lon="8.13036"><ele>47.0</ele><time>2026-04-23T11:15:30.322Z</time></trkpt><trkpt lat="33.9215417" lon="8.1302783"><ele>46.666666666666664</ele><time>2026-04-23T11:15:32.323Z</time></trkpt><trkpt lat="33.92154" lon="8.13017"><ele>46.33333333333333</ele><time>2026-04-23T11:15:35.323Z</time></trkpt><trkpt lat="33.9215333" lon="8.1300533"><ele>46.0</ele><time>2026-04-23T11:15:38.322Z</time></trkpt><trkpt lat="33.921525" lon="8.12996"><ele>45.666666666666664</ele><time>2026-04-23T11:15:40.323Z</time></trkpt><trkpt lat="33.9215183" lon="8.12986"><ele>45.333333333333336</ele><time>2026-04-23T11:15:42.323Z</time></trkpt><trkpt lat="33.9215167" lon="8.129755"><ele>45.0</ele><time>2026-04-23T11:15:44.323Z</time></trkpt><trkpt lat="33.9215133" lon="8.1296733"><ele>44.833333333333336</ele><time>2026-04-23T11:15:46.323Z</time></trkpt><trkpt lat="33.9215167" lon="8.1295933"><ele>44.666666666666664</ele><time>2026-04-23T11:15:48.323Z</time></trkpt><trkpt lat="33.9215117" lon="8.12951"><ele>44.5</ele><time>2026-04-23T11:15:51.322Z</time></trkpt><trkpt lat="33.9215083" lon="8.129425"><ele>44.33333333333333</ele><time>2026-04-23T11:15:53.323Z</time></trkpt><trkpt lat="33.9215017" lon="8.1293033"><ele>44.166666666666664</ele><time>2026-04-23T11:15:55.322Z</time></trkpt><trkpt lat="33.9214867" lon="8.1291833"><ele>44.0</ele><time>2026-04-23T11:15:57.322Z</time></trkpt><trkpt lat="33.92148" lon="8.1290683"><ele>44.142857142857146</ele><time>2026-04-23T11:15:59.323Z</time></trkpt><trkpt lat="33.9214817" lon="8.1289917"><ele>44.285714285714285</ele><time>2026-04-23T11:16:00.323Z</time></trkpt><trkpt lat="33.9214783" lon="8.128915"><ele>44.42857142857143</ele><time>2026-04-23T11:16:01.322Z</time></trkpt><trkpt lat="33.9214833" lon="8.128835"><ele>44.57142857142857</ele><time>2026-04-23T11:16:02.322Z</time></trkpt><trkpt lat="33.9214783" lon="8.128755"><ele>44.714285714285715</ele><time>2026-04-23T11:16:03.323Z</time></trkpt><trkpt lat="33.9214733" lon="8.1286667"><ele>44.857142857142854</ele><time>2026-04-23T11:16:04.323Z</time></trkpt><trkpt lat="33.9214717" lon="8.128575"><ele>45.0</ele><time>2026-04-23T11:16:05.323Z</time></trkpt><trkpt lat="33.92147" lon="8.12848"><ele>45.0</ele><time>2026-04-23T11:16:06.322Z</time></trkpt><trkpt lat="33.92147" lon="8.128385"><ele>45.0</ele><time>2026-04-23T11:16:07.322Z</time></trkpt><trkpt lat="33.9214617" lon="8.1282883"><ele>45.0</ele><time>2026-04-23T11:16:08.322Z</time></trkpt><trkpt lat="33.9214567" lon="8.12819"><ele>45.0</ele><time>2026-04-23T11:16:09.322Z</time></trkpt><trkpt lat="33.921455" lon="8.1280983"><ele>45.0</ele><time>2026-04-23T11:16:10.323Z</time></trkpt><trkpt lat="33.9214583" lon="8.1280017"><ele>45.0</ele><time>2026-04-23T11:16:11.322Z</time></trkpt><trkpt lat="33.9214567" lon="8.127905"><ele>45.166666666666664</ele><time>2026-04-23T11:16:12.323Z</time></trkpt><trkpt lat="33.92145" lon="8.1278067"><ele>45.333333333333336</ele><time>2026-04-23T11:16:13.322Z</time></trkpt><trkpt lat="33.9214417" lon="8.1277017"><ele>45.5</ele><time>2026-04-23T11:16:14.323Z</time></trkpt><trkpt lat="33.9214383" lon="8.1275983"><ele>45.66666666666667</ele><time>2026-04-23T11:16:15.322Z</time></trkpt><trkpt lat="33.9214433" lon="8.127505"><ele>45.833333333333336</ele><time>2026-04-23T11:16:16.323Z</time></trkpt><trkpt lat="33.9214417" lon="8.127405"><ele>46.0</ele><time>2026-04-23T11:16:17.323Z</time></trkpt><trkpt lat="33.921435" lon="8.1273167"><ele>46.0</ele><time>2026-04-23T11:16:18.322Z</time></trkpt><trkpt lat="33.9214283" lon="8.1272317"><ele>46.0</ele><time>2026-04-23T11:16:19.323Z</time></trkpt><trkpt lat="33.9214283" lon="8.1271517"><ele>46.0</ele><time>2026-04-23T11:16:20.323Z</time></trkpt><trkpt lat="33.9214317" lon="8.1270733"><ele>46.0</ele><time>2026-04-23T11:16:21.323Z</time></trkpt><trkpt lat="33.9214283" lon="8.1269333"><ele>46.0</ele><time>2026-04-23T11:16:23.323Z</time></trkpt><trkpt lat="33.9214267" lon="8.1267917"><ele>46.0</ele><time>2026-04-23T11:16:25.322Z</time></trkpt><trkpt lat="33.921425" lon="8.1266567"><ele>46.16666666666667</ele><time>2026-04-23T11:16:27.323Z</time></trkpt><trkpt lat="33.9214183" lon="8.1265067"><ele>46.333333333333336</ele><time>2026-04-23T11:16:29.323Z</time></trkpt><trkpt lat="33.9214133" lon="8.1264233"><ele>46.5</ele><time>2026-04-23T11:16:30.322Z</time></trkpt><trkpt lat="33.92141" lon="8.1263283"><ele>46.666666666666664</ele><time>2026-04-23T11:16:31.323Z</time></trkpt><trkpt lat="33.921405" lon="8.12624"><ele>46.83333333333333</ele><time>2026-04-23T11:16:32.322Z</time></trkpt><trkpt lat="33.9214017" lon="8.1261517"><ele>47.0</ele><time>2026-04-23T11:16:33.323Z</time></trkpt><trkpt lat="33.9213967" lon="8.1260683"><ele>47.0</ele><time>2026-04-23T11:16:34.323Z</time></trkpt><trkpt lat="33.9213883" lon="8.1259783"><ele>47.0</ele><time>2026-04-23T11:16:35.323Z</time></trkpt><trkpt lat="33.9213817" lon="8.1258833"><ele>47.0</ele><time>2026-04-23T11:16:36.322Z</time></trkpt><trkpt lat="33.921375" lon="8.1257783"><ele>47.0</ele><time>2026-04-23T11:16:37.323Z</time></trkpt><trkpt lat="33.9213717" lon="8.1256717"><ele>47.0</ele><time>2026-04-23T11:16:38.323Z</time></trkpt><trkpt lat="33.9213683" lon="8.125565"><ele>47.0</ele><time>2026-04-23T11:16:39.323Z</time></trkpt><trkpt lat="33.9213617" lon="8.1254617"><ele>47.5</ele><time>2026-04-23T11:16:40.322Z</time></trkpt><trkpt lat="33.9213567" lon="8.1253567"><ele>48.0</ele><time>2026-04-23T11:16:41.322Z</time></trkpt><trkpt lat="33.9213533" lon="8.1252533"><ele>48.5</ele><time>2026-04-23T11:16:42.322Z</time></trkpt><trkpt lat="33.92135" lon="8.1251517"><ele>49.0</ele><time>2026-04-23T11:16:43.323Z</time></trkpt><trkpt lat="33.9213483" lon="8.1250567"><ele>49.50000000000001</ele><time>2026-04-23T11:16:44.323Z</time></trkpt><trkpt lat="33.921345" lon="8.124965"><ele>50.0</ele><time>2026-04-23T11:16:45.322Z</time></trkpt><trkpt lat="33.9213383" lon="8.1248783"><ele>50.8</ele><time>2026-04-23T11:16:46.323Z</time></trkpt><trkpt lat="33.9213367" lon="8.1248017"><ele>51.6</ele><time>2026-04-23T11:16:47.322Z</time></trkpt><trkpt lat="33.9213317" lon="8.1246617"><ele>52.400000000000006</ele><time>2026-04-23T11:16:49.322Z</time></trkpt><trkpt lat="33.9213283" lon="8.1245067"><ele>53.2</ele><time>2026-04-23T11:16:51.322Z</time></trkpt><trkpt lat="33.9213217" lon="8.1244183"><ele>54.0</ele><time>2026-04-23T11:16:52.322Z</time></trkpt><trkpt lat="33.9213217" lon="8.1243333"><ele>54.0</ele><time>2026-04-23T11:16:53.322Z</time></trkpt><trkpt lat="33.9213217" lon="8.124245"><ele>54.0</ele><time>2026-04-23T11:16:54.323Z</time></trkpt><trkpt lat="33.9213233" lon="8.1241533"><ele>54.0</ele><time>2026-04-23T11:16:55.323Z</time></trkpt><trkpt lat="33.92132" lon="8.124055"><ele>54.0</ele><time>2026-04-23T11:16:56.322Z</time></trkpt><trkpt lat="33.92132" lon="8.1239483"><ele>54.0</ele><time>2026-04-23T11:16:57.323Z</time></trkpt><trkpt lat="33.9213067" lon="8.12384"><ele>54.0</ele><time>2026-04-23T11:16:58.322Z</time></trkpt><trkpt lat="33.9213033" lon="8.1237283"><ele>54.400000000000006</ele><time>2026-04-23T11:16:59.322Z</time></trkpt><trkpt lat="33.9212983" lon="8.1236183"><ele>54.800000000000004</ele><time>2026-04-23T11:17:00.323Z</time></trkpt><trkpt lat="33.9212967" lon="8.12351"><ele>55.199999999999996</ele><time>2026-04-23T11:17:01.322Z</time></trkpt><trkpt lat="33.9212917" lon="8.1233967"><ele>55.599999999999994</ele><time>2026-04-23T11:17:02.323Z</time></trkpt><trkpt lat="33.921285" lon="8.123285"><ele>56.0</ele><time>2026-04-23T11:17:03.323Z</time></trkpt><trkpt lat="33.9212833" lon="8.12317"><ele>56.599999999999994</ele><time>2026-04-23T11:17:04.322Z</time></trkpt><trkpt lat="33.921285" lon="8.123055"><ele>57.199999999999996</ele><time>2026-04-23T11:17:05.322Z</time></trkpt><trkpt lat="33.9212833" lon="8.12294"><ele>57.800000000000004</ele><time>2026-04-23T11:17:06.323Z</time></trkpt><trkpt lat="33.92128" lon="8.1228217"><ele>58.400000000000006</ele><time>2026-04-23T11:17:07.322Z</time></trkpt><trkpt lat="33.9212783" lon="8.1227067"><ele>59.0</ele><time>2026-04-23T11:17:08.322Z</time></trkpt><trkpt lat="33.92127" lon="8.1225867"><ele>59.0</ele><time>2026-04-23T11:17:09.322Z</time></trkpt><trkpt lat="33.92126" lon="8.1224717"><ele>59.00000000000001</ele><time>2026-04-23T11:17:10.322Z</time></trkpt><trkpt lat="33.9212567" lon="8.1223517"><ele>59.00000000000001</ele><time>2026-04-23T11:17:11.323Z</time></trkpt><trkpt lat="33.921255" lon="8.1222383"><ele>59.0</ele><time>2026-04-23T11:17:12.323Z</time></trkpt><trkpt lat="33.92125" lon="8.12213"><ele>59.0</ele><time>2026-04-23T11:17:13.322Z</time></trkpt><trkpt lat="33.921245" lon="8.1220083"><ele>59.75</ele><time>2026-04-23T11:17:14.323Z</time></trkpt><trkpt lat="33.9212433" lon="8.12188"><ele>60.5</ele><time>2026-04-23T11:17:15.322Z</time></trkpt><trkpt lat="33.9212417" lon="8.1217467"><ele>61.25</ele><time>2026-04-23T11:17:16.322Z</time></trkpt><trkpt lat="33.92124" lon="8.121605"><ele>62.0</ele><time>2026-04-23T11:17:17.322Z</time></trkpt><trkpt lat="33.9212367" lon="8.1214617"><ele>62.25</ele><time>2026-04-23T11:17:18.323Z</time></trkpt><trkpt lat="33.9212267" lon="8.1213167"><ele>62.5</ele><time>2026-04-23T11:17:19.322Z</time></trkpt><trkpt lat="33.9212183" lon="8.121175"><ele>62.75</ele><time>2026-04-23T11:17:20.323Z</time></trkpt><trkpt lat="33.9212117" lon="8.1210217"><ele>63.0</ele><time>2026-04-23T11:17:21.323Z</time></trkpt><trkpt lat="33.9212083" lon="8.120875"><ele>63.0</ele><time>2026-04-23T11:17:22.322Z</time></trkpt><trkpt lat="33.92121" lon="8.1207383"><ele>63.0</ele><time>2026-04-23T11:17:23.323Z</time></trkpt><trkpt lat="33.9212167" lon="8.1206133"><ele>63.0</ele><time>2026-04-23T11:17:24.322Z</time></trkpt><trkpt lat="33.921215" lon="8.1204883"><ele>63.0</ele><time>2026-04-23T11:17:25.322Z</time></trkpt><trkpt lat="33.9212067" lon="8.1203667"><ele>63.0</ele><time>2026-04-23T11:17:26.323Z</time></trkpt><trkpt lat="33.9212017" lon="8.1202483"><ele>64.0</ele><time>2026-04-23T11:17:27.323Z</time></trkpt><trkpt lat="33.9211933" lon="8.1201367"><ele>65.0</ele><time>2026-04-23T11:17:28.323Z</time></trkpt><trkpt lat="33.9211883" lon="8.1200267"><ele>66.0</ele><time>2026-04-23T11:17:29.322Z</time></trkpt><trkpt lat="33.921185" lon="8.1199267"><ele>67.0</ele><time>2026-04-23T11:17:30.323Z</time></trkpt><trkpt lat="33.9211783" lon="8.119835"><ele>68.0</ele><time>2026-04-23T11:17:31.322Z</time></trkpt><trkpt lat="33.9211733" lon="8.1197517"><ele>69.0</ele><time>2026-04-23T11:17:32.323Z</time></trkpt><trkpt lat="33.9211717" lon="8.1196733"><ele>69.5</ele><time>2026-04-23T11:17:33.323Z</time></trkpt><trkpt lat="33.9211683" lon="8.1195933"><ele>70.0</ele><time>2026-04-23T11:17:34.323Z</time></trkpt><trkpt lat="33.921165" lon="8.1195083"><ele>70.5</ele><time>2026-04-23T11:17:35.322Z</time></trkpt><trkpt lat="33.9211633" lon="8.119415"><ele>71.0</ele><time>2026-04-23T11:17:36.323Z</time></trkpt><trkpt lat="33.92116" lon="8.1193083"><ele>71.5</ele><time>2026-04-23T11:17:37.323Z</time></trkpt><trkpt lat="33.9211617" lon="8.119195"><ele>72.0</ele><time>2026-04-23T11:17:38.322Z</time></trkpt><trkpt lat="33.9211617" lon="8.119075"><ele>72.25</ele><time>2026-04-23T11:17:39.322Z</time></trkpt><trkpt lat="33.9211667" lon="8.1189567"><ele>72.5</ele><time>2026-04-23T11:17:40.323Z</time></trkpt><trkpt lat="33.92116" lon="8.1188233"><ele>72.75</ele><time>2026-04-23T11:17:41.322Z</time></trkpt><trkpt lat="33.9211583" lon="8.1186783"><ele>73.0</ele><time>2026-04-23T11:17:42.322Z</time></trkpt><trkpt lat="33.9211517" lon="8.118525"><ele>73.0</ele><time>2026-04-23T11:17:43.322Z</time></trkpt><trkpt lat="33.9211483" lon="8.11837"><ele>73.0</ele><time>2026-04-23T11:17:44.323Z</time></trkpt><trkpt lat="33.9211417" lon="8.118215"><ele>73.0</ele><time>2026-04-23T11:17:45.321Z</time></trkpt><trkpt lat="33.9211433" lon="8.11806"><ele>73.0</ele><time>2026-04-23T11:17:46.322Z</time></trkpt><trkpt lat="33.921135" lon="8.1179083"><ele>73.75</ele><time>2026-04-23T11:17:47.322Z</time></trkpt><trkpt lat="33.9211267" lon="8.1177667"><ele>74.5</ele><time>2026-04-23T11:17:48.321Z</time></trkpt><trkpt lat="33.9211217" lon="8.1176267"><ele>75.25</ele><time>2026-04-23T11:17:49.322Z</time></trkpt><trkpt lat="33.9211117" lon="8.1174833"><ele>76.0</ele><time>2026-04-23T11:17:50.322Z</time></trkpt><trkpt lat="33.921095" lon="8.1173367"><ele>77.25</ele><time>2026-04-23T11:17:51.322Z</time></trkpt><trkpt lat="33.9210817" lon="8.117185"><ele>78.5</ele><time>2026-04-23T11:17:52.322Z</time></trkpt><trkpt lat="33.9210567" lon="8.1170367"><ele>79.75</ele><time>2026-04-23T11:17:53.321Z</time></trkpt><trkpt lat="33.9210267" lon="8.1168867"><ele>81.0</ele><time>2026-04-23T11:17:54.322Z</time></trkpt><trkpt lat="33.921005" lon="8.11673"><ele>81.0</ele><time>2026-04-23T11:17:55.322Z</time></trkpt><trkpt lat="33.9209767" lon="8.116575"><ele>81.0</ele><time>2026-04-23T11:17:56.321Z</time></trkpt><trkpt lat="33.92094" lon="8.1164267"><ele>81.0</ele><time>2026-04-23T11:17:57.322Z</time></trkpt><trkpt lat="33.9209033" lon="8.1162783"><ele>81.0</ele><time>2026-04-23T11:17:58.321Z</time></trkpt><trkpt lat="33.9208683" lon="8.116135"><ele>81.6</ele><time>2026-04-23T11:17:59.322Z</time></trkpt><trkpt lat="33.9208333" lon="8.1159883"><ele>82.19999999999999</ele><time>2026-04-23T11:18:00.321Z</time></trkpt><trkpt lat="33.92081" lon="8.1158633"><ele>82.80000000000001</ele><time>2026-04-23T11:18:01.322Z</time></trkpt><trkpt lat="33.9207867" lon="8.11575"><ele>83.4</ele><time>2026-04-23T11:18:02.321Z</time></trkpt><trkpt lat="33.9207633" lon="8.1156483"><ele>84.0</ele><time>2026-04-23T11:18:03.322Z</time></trkpt><trkpt lat="33.9207417" lon="8.1155567"><ele>84.33333333333333</ele><time>2026-04-23T11:18:04.322Z</time></trkpt><trkpt lat="33.920725" lon="8.1154817"><ele>84.66666666666667</ele><time>2026-04-23T11:18:05.321Z</time></trkpt><trkpt lat="33.920705" lon="8.115375"><ele>85.0</ele><time>2026-04-23T11:18:07.321Z</time></trkpt><trkpt lat="33.92068" lon="8.1152867"><ele>85.33333333333334</ele><time>2026-04-23T11:18:09.322Z</time></trkpt><trkpt lat="33.92065" lon="8.1151767"><ele>85.66666666666667</ele><time>2026-04-23T11:18:11.321Z</time></trkpt><trkpt lat="33.9206333" lon="8.1151033"><ele>86.0</ele><time>2026-04-23T11:18:12.322Z</time></trkpt><trkpt lat="33.920615" lon="8.1150217"><ele>86.0</ele><time>2026-04-23T11:18:13.322Z</time></trkpt><trkpt lat="33.9205967" lon="8.11493"><ele>86.0</ele><time>2026-04-23T11:18:14.321Z</time></trkpt><trkpt lat="33.92057" lon="8.1148267"><ele>86.0</ele><time>2026-04-23T11:18:15.322Z</time></trkpt><trkpt lat="33.920545" lon="8.1147117"><ele>86.0</ele><time>2026-04-23T11:18:16.321Z</time></trkpt><trkpt lat="33.9205233" lon="8.1145867"><ele>86.0</ele><time>2026-04-23T11:18:17.321Z</time></trkpt><trkpt lat="33.9204933" lon="8.1144533"><ele>86.0</ele><time>2026-04-23T11:18:18.321Z</time></trkpt><trkpt lat="33.92047" lon="8.11431"><ele>86.0</ele><time>2026-04-23T11:18:19.321Z</time></trkpt><trkpt lat="33.9204367" lon="8.114155"><ele>86.0</ele><time>2026-04-23T11:18:20.321Z</time></trkpt><trkpt lat="33.9204033" lon="8.114"><ele>86.0</ele><time>2026-04-23T11:18:21.321Z</time></trkpt><trkpt lat="33.9203683" lon="8.1138383"><ele>86.0</ele><time>2026-04-23T11:18:22.322Z</time></trkpt><trkpt lat="33.9203367" lon="8.1136717"><ele>86.0</ele><time>2026-04-23T11:18:23.321Z</time></trkpt><trkpt lat="33.9202967" lon="8.1134967"><ele>86.0</ele><time>2026-04-23T11:18:24.321Z</time></trkpt><trkpt lat="33.920255" lon="8.113315"><ele>86.0</ele><time>2026-04-23T11:18:25.321Z</time></trkpt><trkpt lat="33.9202133" lon="8.11313"><ele>86.33333333333334</ele><time>2026-04-23T11:18:26.321Z</time></trkpt><trkpt lat="33.92018" lon="8.1129433"><ele>86.66666666666667</ele><time>2026-04-23T11:18:27.321Z</time></trkpt><trkpt lat="33.9201417" lon="8.11276"><ele>87.0</ele><time>2026-04-23T11:18:28.322Z</time></trkpt><trkpt lat="33.9201017" lon="8.1125767"><ele>87.0</ele><time>2026-04-23T11:18:29.322Z</time></trkpt><trkpt lat="33.9200717" lon="8.1124033"><ele>87.0</ele><time>2026-04-23T11:18:30.321Z</time></trkpt><trkpt lat="33.920035" lon="8.1122483"><ele>87.0</ele><time>2026-04-23T11:18:31.322Z</time></trkpt><trkpt lat="33.9200033" lon="8.112105"><ele>87.0</ele><time>2026-04-23T11:18:32.321Z</time></trkpt><trkpt lat="33.919975" lon="8.1119617"><ele>87.0</ele><time>2026-04-23T11:18:33.321Z</time></trkpt><trkpt lat="33.9199367" lon="8.11182"><ele>87.0</ele><time>2026-04-23T11:18:34.322Z</time></trkpt><trkpt lat="33.9199083" lon="8.111695"><ele>87.0</ele><time>2026-04-23T11:18:35.321Z</time></trkpt><trkpt lat="33.9198883" lon="8.111585"><ele>87.0</ele><time>2026-04-23T11:18:36.321Z</time></trkpt><trkpt lat="33.9198717" lon="8.111485"><ele>87.0</ele><time>2026-04-23T11:18:37.322Z</time></trkpt><trkpt lat="33.919855" lon="8.1114017"><ele>87.0</ele><time>2026-04-23T11:18:38.321Z</time></trkpt><trkpt lat="33.9198283" lon="8.111265"><ele>87.0</ele><time>2026-04-23T11:18:40.321Z</time></trkpt><trkpt lat="33.9197983" lon="8.1111567"><ele>87.0</ele><time>2026-04-23T11:18:42.321Z</time></trkpt><trkpt lat="33.9197667" lon="8.1110817"><ele>87.0</ele><time>2026-04-23T11:18:45.322Z</time></trkpt><trkpt lat="33.9196633" lon="8.111085"><ele>87.0</ele><time>2026-04-23T11:18:48.321Z</time></trkpt><trkpt lat="33.9195617" lon="8.1111533"><ele>87.0</ele><time>2026-04-23T11:18:50.322Z</time></trkpt><trkpt lat="33.9194267" lon="8.111225"><ele>87.0</ele><time>2026-04-23T11:18:52.322Z</time></trkpt><trkpt lat="33.9193433" lon="8.111265"><ele>87.0</ele><time>2026-04-23T11:18:53.322Z</time></trkpt><trkpt lat="33.9192583" lon="8.1112833"><ele>87.0</ele><time>2026-04-23T11:18:54.321Z</time></trkpt><trkpt lat="33.91917" lon="8.111305"><ele>87.0</ele><time>2026-04-23T11:18:55.322Z</time></trkpt><trkpt lat="33.9190733" lon="8.11134"><ele>87.25</ele><time>2026-04-23T11:18:56.322Z</time></trkpt><trkpt lat="33.9189733" lon="8.11138"><ele>87.5</ele><time>2026-04-23T11:18:57.321Z</time></trkpt><trkpt lat="33.9188717" lon="8.1114217"><ele>87.75</ele><time>2026-04-23T11:18:58.321Z</time></trkpt><trkpt lat="33.9187583" lon="8.1114617"><ele>88.0</ele><time>2026-04-23T11:18:59.322Z</time></trkpt><trkpt lat="33.9186317" lon="8.1115033"><ele>88.0</ele><time>2026-04-23T11:19:00.321Z</time></trkpt><trkpt lat="33.9184983" lon="8.1115467"><ele>88.0</ele><time>2026-04-23T11:19:01.321Z</time></trkpt><trkpt lat="33.9183567" lon="8.1115783"><ele>88.0</ele><time>2026-04-23T11:19:02.322Z</time></trkpt><trkpt lat="33.9182133" lon="8.1115983"><ele>88.0</ele><time>2026-04-23T11:19:03.322Z</time></trkpt><trkpt lat="33.9180667" lon="8.11162"><ele>87.33333333333333</ele><time>2026-04-23T11:19:04.322Z</time></trkpt><trkpt lat="33.917925" lon="8.111635"><ele>86.66666666666667</ele><time>2026-04-23T11:19:05.322Z</time></trkpt><trkpt lat="33.917775" lon="8.1116533"><ele>86.0</ele><time>2026-04-23T11:19:06.322Z</time></trkpt><trkpt lat="33.917615" lon="8.1116617"><ele>86.0</ele><time>2026-04-23T11:19:07.322Z</time></trkpt><trkpt lat="33.9174517" lon="8.1116667"><ele>86.0</ele><time>2026-04-23T11:19:08.322Z</time></trkpt><trkpt lat="33.91729" lon="8.111665"><ele>86.0</ele><time>2026-04-23T11:19:09.321Z</time></trkpt><trkpt lat="33.917125" lon="8.11169"><ele>86.0</ele><time>2026-04-23T11:19:10.321Z</time></trkpt><trkpt lat="33.9169567" lon="8.1117167"><ele>86.0</ele><time>2026-04-23T11:19:11.321Z</time></trkpt><trkpt lat="33.9168017" lon="8.1117283"><ele>86.0</ele><time>2026-04-23T11:19:12.321Z</time></trkpt><trkpt lat="33.9166483" lon="8.1117333"><ele>85.66666666666667</ele><time>2026-04-23T11:19:13.321Z</time></trkpt><trkpt lat="33.9164817" lon="8.1117383"><ele>85.33333333333333</ele><time>2026-04-23T11:19:14.321Z</time></trkpt><trkpt lat="33.91631" lon="8.11176"><ele>85.0</ele><time>2026-04-23T11:19:15.322Z</time></trkpt><trkpt lat="33.91615" lon="8.1117783"><ele>85.0</ele><time>2026-04-23T11:19:16.322Z</time></trkpt><trkpt lat="33.9159933" lon="8.111795"><ele>85.0</ele><time>2026-04-23T11:19:17.321Z</time></trkpt><trkpt lat="33.9158483" lon="8.1118083"><ele>85.0</ele><time>2026-04-23T11:19:18.322Z</time></trkpt><trkpt lat="33.9157117" lon="8.11182"><ele>85.0</ele><time>2026-04-23T11:19:19.322Z</time></trkpt><trkpt lat="33.91557" lon="8.111825"><ele>83.33333333333333</ele><time>2026-04-23T11:19:20.321Z</time></trkpt><trkpt lat="33.9154217" lon="8.111835"><ele>81.66666666666667</ele><time>2026-04-23T11:19:21.321Z</time></trkpt><trkpt lat="33.915265" lon="8.11185"><ele>80.0</ele><time>2026-04-23T11:19:22.322Z</time></trkpt><trkpt lat="33.9151117" lon="8.1118817"><ele>79.33333333333334</ele><time>2026-04-23T11:19:23.321Z</time></trkpt><trkpt lat="33.9149583" lon="8.1119383"><ele>78.66666666666667</ele><time>2026-04-23T11:19:24.322Z</time></trkpt><trkpt lat="33.9148017" lon="8.1120083"><ele>78.0</ele><time>2026-04-23T11:19:25.321Z</time></trkpt><trkpt lat="33.9146567" lon="8.1120867"><ele>78.0</ele><time>2026-04-23T11:19:26.321Z</time></trkpt><trkpt lat="33.9145083" lon="8.1121733"><ele>78.0</ele><time>2026-04-23T11:19:27.322Z</time></trkpt><trkpt lat="33.9143633" lon="8.1122667"><ele>78.0</ele><time>2026-04-23T11:19:28.321Z</time></trkpt><trkpt lat="33.9142317" lon="8.1123667"><ele>78.25</ele><time>2026-04-23T11:19:29.322Z</time></trkpt><trkpt lat="33.9141117" lon="8.1124667"><ele>78.5</ele><time>2026-04-23T11:19:30.321Z</time></trkpt><trkpt lat="33.9140017" lon="8.112555"><ele>78.75</ele><time>2026-04-23T11:19:31.321Z</time></trkpt><trkpt lat="33.9138983" lon="8.11263"><ele>79.0</ele><time>2026-04-23T11:19:32.322Z</time></trkpt><trkpt lat="33.9137867" lon="8.1126967"><ele>79.0</ele><time>2026-04-23T11:19:33.321Z</time></trkpt><trkpt lat="33.9136783" lon="8.1127633"><ele>79.0</ele><time>2026-04-23T11:19:34.322Z</time></trkpt><trkpt lat="33.9135617" lon="8.11282"><ele>79.0</ele><time>2026-04-23T11:19:35.322Z</time></trkpt><trkpt lat="33.91344" lon="8.1128833"><ele>79.0</ele><time>2026-04-23T11:19:36.321Z</time></trkpt><trkpt lat="33.9133183" lon="8.1129583"><ele>79.2</ele><time>2026-04-23T11:19:37.321Z</time></trkpt><trkpt lat="33.9132117" lon="8.1130417"><ele>79.4</ele><time>2026-04-23T11:19:38.321Z</time></trkpt><trkpt lat="33.91312" lon="8.113125"><ele>79.6</ele><time>2026-04-23T11:19:39.322Z</time></trkpt><trkpt lat="33.9130567" lon="8.113225"><ele>79.8</ele><time>2026-04-23T11:19:40.321Z</time></trkpt><trkpt lat="33.9130033" lon="8.1133283"><ele>80.0</ele><time>2026-04-23T11:19:41.321Z</time></trkpt><trkpt lat="33.91296" lon="8.113435"><ele>80.0</ele><time>2026-04-23T11:19:42.322Z</time></trkpt><trkpt lat="33.9129283" lon="8.1135417"><ele>80.0</ele><time>2026-04-23T11:19:43.322Z</time></trkpt><trkpt lat="33.91292" lon="8.1136633"><ele>80.0</ele><time>2026-04-23T11:19:44.321Z</time></trkpt><trkpt lat="33.912935" lon="8.1137867"><ele>80.0</ele><time>2026-04-23T11:19:45.322Z</time></trkpt><trkpt lat="33.9129617" lon="8.11389"><ele>80.0</ele><time>2026-04-23T11:19:46.322Z</time></trkpt><trkpt lat="33.913" lon="8.11398"><ele>80.0</ele><time>2026-04-23T11:19:47.321Z</time></trkpt><trkpt lat="33.9130383" lon="8.11406"><ele>80.0</ele><time>2026-04-23T11:19:48.322Z</time></trkpt><trkpt lat="33.9130633" lon="8.1141883"><ele>80.0</ele><time>2026-04-23T11:19:50.321Z</time></trkpt><trkpt lat="33.913035" lon="8.1142567"><ele>80.0</ele><time>2026-04-23T11:19:52.322Z</time></trkpt><trkpt lat="33.9129683" lon="8.1142283"><ele>80.0</ele><time>2026-04-23T11:20:30.322Z</time></trkpt><trkpt lat="33.9129217" lon="8.114145"><ele>80.0</ele><time>2026-04-23T11:20:32.322Z</time></trkpt><trkpt lat="33.9128667" lon="8.1140433"><ele>80.0</ele><time>2026-04-23T11:20:34.321Z</time></trkpt><trkpt lat="33.9128117" lon="8.1139467"><ele>80.0</ele><time>2026-04-23T11:20:36.321Z</time></trkpt><trkpt lat="33.91276" lon="8.113835"><ele>80.0</ele><time>2026-04-23T11:20:38.321Z</time></trkpt><trkpt lat="33.9127133" lon="8.1137267"><ele>80.0</ele><time>2026-04-23T11:20:40.321Z</time></trkpt><trkpt lat="33.9126633" lon="8.11365"><ele>80.0</ele><time>2026-04-23T11:20:42.321Z</time></trkpt><trkpt lat="33.9126" lon="8.1136117"><ele>80.0</ele><time>2026-04-23T11:20:44.322Z</time></trkpt><trkpt lat="33.9125183" lon="8.1136117"><ele>70.0</ele><time>2026-04-23T11:20:47.321Z</time></trkpt></trkseg><trkseg><trkpt lat="33.9124833" lon="8.113715"><ele>70.0</ele><time>2026-04-23T11:56:09.376Z</time></trkpt><trkpt lat="33.9125417" lon="8.1138033"><ele>70.0</ele><time>2026-04-23T11:56:12.377Z</time></trkpt><trkpt lat="33.9126033" lon="8.113845"><ele>70.0</ele><time>2026-04-23T11:56:14.376Z</time></trkpt><trkpt lat="33.9126733" lon="8.1138683"><ele>70.0</ele><time>2026-04-23T11:56:16.376Z</time></trkpt><trkpt lat="33.912745" lon="8.1139117"><ele>70.0</ele><time>2026-04-23T11:56:18.377Z</time></trkpt><trkpt lat="33.9128117" lon="8.11398"><ele>70.0</ele><time>2026-04-23T11:56:20.376Z</time></trkpt><trkpt lat="33.9128617" lon="8.1140533"><ele>71.5</ele><time>2026-04-23T11:56:22.376Z</time></trkpt><trkpt lat="33.9129133" lon="8.1141217"><ele>73.0</ele><time>2026-04-23T11:56:24.376Z</time></trkpt><trkpt lat="33.9129733" lon="8.1141967"><ele>74.5</ele><time>2026-04-23T11:56:26.376Z</time></trkpt><trkpt lat="33.913055" lon="8.1142217"><ele>76.0</ele><time>2026-04-23T11:56:28.376Z</time></trkpt><trkpt lat="33.9131033" lon="8.11415"><ele>77.5</ele><time>2026-04-23T11:56:31.376Z</time></trkpt><trkpt lat="33.9130917" lon="8.1140633"><ele>79.0</ele><time>2026-04-23T11:56:33.376Z</time></trkpt><trkpt lat="33.9130567" lon="8.113945"><ele>79.2</ele><time>2026-04-23T11:56:35.377Z</time></trkpt><trkpt lat="33.9130233" lon="8.1138117"><ele>79.4</ele><time>2026-04-23T11:56:37.376Z</time></trkpt><trkpt lat="33.9130083" lon="8.1137333"><ele>79.6</ele><time>2026-04-23T11:56:38.377Z</time></trkpt><trkpt lat="33.9129967" lon="8.1135817"><ele>79.8</ele><time>2026-04-23T11:56:40.376Z</time></trkpt><trkpt lat="33.9130233" lon="8.11345"><ele>80.0</ele><time>2026-04-23T11:56:42.376Z</time></trkpt><trkpt lat="33.91309" lon="8.1132867"><ele>79.83333333333334</ele><time>2026-04-23T11:56:45.377Z</time></trkpt><trkpt lat="33.9131283" lon="8.1132217"><ele>79.66666666666667</ele><time>2026-04-23T11:56:46.376Z</time></trkpt><trkpt lat="33.9131733" lon="8.1131633"><ele>79.5</ele><time>2026-04-23T11:56:47.376Z</time></trkpt><trkpt lat="33.9132283" lon="8.1131033"><ele>79.33333333333333</ele><time>2026-04-23T11:56:48.377Z</time></trkpt><trkpt lat="33.9132933" lon="8.11304"><ele>79.16666666666666</ele><time>2026-04-23T11:56:49.376Z</time></trkpt><trkpt lat="33.9133633" lon="8.1129783"><ele>79.0</ele><time>2026-04-23T11:56:50.376Z</time></trkpt><trkpt lat="33.9134383" lon="8.1129183"><ele>79.0</ele><time>2026-04-23T11:56:51.377Z</time></trkpt><trkpt lat="33.9135217" lon="8.1128717"><ele>79.0</ele><time>2026-04-23T11:56:52.376Z</time></trkpt><trkpt lat="33.913605" lon="8.1128217"><ele>79.0</ele><time>2026-04-23T11:56:53.376Z</time></trkpt><trkpt lat="33.913695" lon="8.1127633"><ele>79.0</ele><time>2026-04-23T11:56:54.377Z</time></trkpt><trkpt lat="33.9137767" lon="8.1127083"><ele>79.0</ele><time>2026-04-23T11:56:55.377Z</time></trkpt><trkpt lat="33.9138633" lon="8.1126467"><ele>79.0</ele><time>2026-04-23T11:56:56.377Z</time></trkpt><trkpt lat="33.9139567" lon="8.1125783"><ele>79.0</ele><time>2026-04-23T11:56:57.377Z</time></trkpt><trkpt lat="33.9140483" lon="8.1125083"><ele>79.0</ele><time>2026-04-23T11:56:58.377Z</time></trkpt><trkpt lat="33.9141367" lon="8.1124317"><ele>79.0</ele><time>2026-04-23T11:56:59.377Z</time></trkpt><trkpt lat="33.9142317" lon="8.1123583"><ele>79.0</ele><time>2026-04-23T11:57:00.377Z</time></trkpt><trkpt lat="33.91433" lon="8.1122917"><ele>78.8</ele><time>2026-04-23T11:57:01.376Z</time></trkpt><trkpt lat="33.9144283" lon="8.11223"><ele>78.60000000000001</ele><time>2026-04-23T11:57:02.377Z</time></trkpt><trkpt lat="33.91453" lon="8.112175"><ele>78.4</ele><time>2026-04-23T11:57:03.377Z</time></trkpt><trkpt lat="33.9146283" lon="8.1121233"><ele>78.2</ele><time>2026-04-23T11:57:04.376Z</time></trkpt><trkpt lat="33.9147233" lon="8.1120767"><ele>78.0</ele><time>2026-04-23T11:57:05.376Z</time></trkpt><trkpt lat="33.914825" lon="8.1120333"><ele>78.0</ele><time>2026-04-23T11:57:06.376Z</time></trkpt><trkpt lat="33.9149283" lon="8.111995"><ele>78.0</ele><time>2026-04-23T11:57:07.377Z</time></trkpt><trkpt lat="33.91504" lon="8.111955"><ele>78.0</ele><time>2026-04-23T11:57:08.377Z</time></trkpt><trkpt lat="33.9151467" lon="8.11192"><ele>78.0</ele><time>2026-04-23T11:57:09.377Z</time></trkpt><trkpt lat="33.915255" lon="8.1119"><ele>78.0</ele><time>2026-04-23T11:57:10.376Z</time></trkpt><trkpt lat="33.915365" lon="8.1118783"><ele>78.4</ele><time>2026-04-23T11:57:11.376Z</time></trkpt><trkpt lat="33.915465" lon="8.1118617"><ele>78.8</ele><time>2026-04-23T11:57:12.377Z</time></trkpt><trkpt lat="33.9155617" lon="8.11184"><ele>79.2</ele><time>2026-04-23T11:57:13.376Z</time></trkpt><trkpt lat="33.9156633" lon="8.1118267"><ele>79.6</ele><time>2026-04-23T11:57:14.376Z</time></trkpt><trkpt lat="33.9157633" lon="8.111815"><ele>80.0</ele><time>2026-04-23T11:57:15.377Z</time></trkpt><trkpt lat="33.9158633" lon="8.1118117"><ele>80.83333333333334</ele><time>2026-04-23T11:57:16.376Z</time></trkpt><trkpt lat="33.9159683" lon="8.111805"><ele>81.66666666666667</ele><time>2026-04-23T11:57:17.376Z</time></trkpt><trkpt lat="33.916065" lon="8.1117967"><ele>82.5</ele><time>2026-04-23T11:57:18.377Z</time></trkpt><trkpt lat="33.9161517" lon="8.11179"><ele>83.33333333333333</ele><time>2026-04-23T11:57:19.376Z</time></trkpt><trkpt lat="33.9162333" lon="8.1117817"><ele>84.16666666666666</ele><time>2026-04-23T11:57:20.376Z</time></trkpt><trkpt lat="33.916305" lon="8.1117767"><ele>85.0</ele><time>2026-04-23T11:57:21.377Z</time></trkpt><trkpt lat="33.9163733" lon="8.1117717"><ele>85.0</ele><time>2026-04-23T11:57:22.377Z</time></trkpt><trkpt lat="33.9164483" lon="8.1117633"><ele>85.0</ele><time>2026-04-23T11:57:23.376Z</time></trkpt><trkpt lat="33.9165333" lon="8.11175"><ele>85.0</ele><time>2026-04-23T11:57:24.377Z</time></trkpt><trkpt lat="33.9166217" lon="8.1117467"><ele>85.0</ele><time>2026-04-23T11:57:25.376Z</time></trkpt><trkpt lat="33.9167217" lon="8.1117483"><ele>85.0</ele><time>2026-04-23T11:57:26.376Z</time></trkpt><trkpt lat="33.9168217" lon="8.11175"><ele>85.0</ele><time>2026-04-23T11:57:27.376Z</time></trkpt><trkpt lat="33.9169267" lon="8.1117417"><ele>85.2</ele><time>2026-04-23T11:57:28.376Z</time></trkpt><trkpt lat="33.917035" lon="8.11174"><ele>85.4</ele><time>2026-04-23T11:57:29.377Z</time></trkpt><trkpt lat="33.9171417" lon="8.11173"><ele>85.6</ele><time>2026-04-23T11:57:30.377Z</time></trkpt><trkpt lat="33.9172583" lon="8.1117133"><ele>85.8</ele><time>2026-04-23T11:57:31.376Z</time></trkpt><trkpt lat="33.9173683" lon="8.1117017"><ele>86.0</ele><time>2026-04-23T11:57:32.377Z</time></trkpt><trkpt lat="33.9174917" lon="8.1116917"><ele>86.0</ele><time>2026-04-23T11:57:33.376Z</time></trkpt><trkpt lat="33.9176167" lon="8.111685"><ele>86.0</ele><time>2026-04-23T11:57:34.377Z</time></trkpt><trkpt lat="33.9177417" lon="8.11168"><ele>86.0</ele><time>2026-04-23T11:57:35.376Z</time></trkpt><trkpt lat="33.9178717" lon="8.111665"><ele>86.0</ele><time>2026-04-23T11:57:36.377Z</time></trkpt><trkpt lat="33.9180033" lon="8.1116467"><ele>86.0</ele><time>2026-04-23T11:57:37.377Z</time></trkpt><trkpt lat="33.91813" lon="8.111635"><ele>86.0</ele><time>2026-04-23T11:57:38.376Z</time></trkpt><trkpt lat="33.9182567" lon="8.1116183"><ele>86.0</ele><time>2026-04-23T11:57:39.376Z</time></trkpt><trkpt lat="33.9183867" lon="8.1115867"><ele>86.0</ele><time>2026-04-23T11:57:40.377Z</time></trkpt><trkpt lat="33.918515" lon="8.111555"><ele>86.5</ele><time>2026-04-23T11:57:41.376Z</time></trkpt><trkpt lat="33.91864" lon="8.1115183"><ele>87.0</ele><time>2026-04-23T11:57:42.376Z</time></trkpt><trkpt lat="33.91877" lon="8.111485"><ele>87.5</ele><time>2026-04-23T11:57:43.377Z</time></trkpt><trkpt lat="33.9188933" lon="8.11145"><ele>88.0</ele><time>2026-04-23T11:57:44.377Z</time></trkpt><trkpt lat="33.9190133" lon="8.11142"><ele>88.0</ele><time>2026-04-23T11:57:45.377Z</time></trkpt><trkpt lat="33.9191217" lon="8.1113883"><ele>88.0</ele><time>2026-04-23T11:57:46.376Z</time></trkpt><trkpt lat="33.9192233" lon="8.1113617"><ele>88.0</ele><time>2026-04-23T11:57:47.376Z</time></trkpt><trkpt lat="33.9193183" lon="8.111335"><ele>88.0</ele><time>2026-04-23T11:57:48.376Z</time></trkpt><trkpt lat="33.9194017" lon="8.111315"><ele>88.0</ele><time>2026-04-23T11:57:49.376Z</time></trkpt><trkpt lat="33.9194767" lon="8.11129"><ele>87.80000000000001</ele><time>2026-04-23T11:57:50.377Z</time></trkpt><trkpt lat="33.9195467" lon="8.11128"><ele>87.6</ele><time>2026-04-23T11:57:51.377Z</time></trkpt><trkpt lat="33.9196483" lon="8.1112683"><ele>87.4</ele><time>2026-04-23T11:57:53.377Z</time></trkpt><trkpt lat="33.9197333" lon="8.1112517"><ele>87.19999999999999</ele><time>2026-04-23T11:58:03.377Z</time></trkpt><trkpt lat="33.9197667" lon="8.11113"><ele>87.0</ele><time>2026-04-23T11:58:05.377Z</time></trkpt><trkpt lat="33.9197633" lon="8.1109817"><ele>87.0</ele><time>2026-04-23T11:58:07.377Z</time></trkpt><trkpt lat="33.9197333" lon="8.1108233"><ele>87.0</ele><time>2026-04-23T11:58:09.376Z</time></trkpt><trkpt lat="33.9197133" lon="8.1107333"><ele>87.0</ele><time>2026-04-23T11:58:10.376Z</time></trkpt><trkpt lat="33.9196967" lon="8.1106367"><ele>87.0</ele><time>2026-04-23T11:58:11.377Z</time></trkpt><trkpt lat="33.91968" lon="8.1105333"><ele>87.0</ele><time>2026-04-23T11:58:12.376Z</time></trkpt><trkpt lat="33.9196633" lon="8.1104383"><ele>87.16666666666667</ele><time>2026-04-23T11:58:13.377Z</time></trkpt><trkpt lat="33.9196467" lon="8.11035"><ele>87.33333333333333</ele><time>2026-04-23T11:58:14.376Z</time></trkpt><trkpt lat="33.9196283" lon="8.1102683"><ele>87.5</ele><time>2026-04-23T11:58:15.376Z</time></trkpt><trkpt lat="33.9196083" lon="8.11018"><ele>87.66666666666666</ele><time>2026-04-23T11:58:16.376Z</time></trkpt><trkpt lat="33.91959" lon="8.1100867"><ele>87.83333333333333</ele><time>2026-04-23T11:58:17.377Z</time></trkpt><trkpt lat="33.9195733" lon="8.1099783"><ele>88.0</ele><time>2026-04-23T11:58:18.377Z</time></trkpt><trkpt lat="33.9195533" lon="8.1098617"><ele>88.0</ele><time>2026-04-23T11:58:19.376Z</time></trkpt><trkpt lat="33.919535" lon="8.109745"><ele>88.0</ele><time>2026-04-23T11:58:20.377Z</time></trkpt><trkpt lat="33.9195033" lon="8.1096233"><ele>88.0</ele><time>2026-04-23T11:58:21.376Z</time></trkpt><trkpt lat="33.9194733" lon="8.1094967"><ele>88.0</ele><time>2026-04-23T11:58:22.376Z</time></trkpt><trkpt lat="33.91944" lon="8.1093683"><ele>88.0</ele><time>2026-04-23T11:58:23.376Z</time></trkpt><trkpt lat="33.9194167" lon="8.1092333"><ele>88.0</ele><time>2026-04-23T11:58:24.376Z</time></trkpt><trkpt lat="33.9193967" lon="8.109095"><ele>88.0</ele><time>2026-04-23T11:58:25.376Z</time></trkpt><trkpt lat="33.9193683" lon="8.1089567"><ele>88.0</ele><time>2026-04-23T11:58:26.376Z</time></trkpt><trkpt lat="33.9193267" lon="8.1088167"><ele>88.0</ele><time>2026-04-23T11:58:27.376Z</time></trkpt><trkpt lat="33.919295" lon="8.1086667"><ele>88.25</ele><time>2026-04-23T11:58:28.377Z</time></trkpt><trkpt lat="33.9192667" lon="8.10852"><ele>88.5</ele><time>2026-04-23T11:58:29.376Z</time></trkpt><trkpt lat="33.9192333" lon="8.1083667"><ele>88.75</ele><time>2026-04-23T11:58:30.377Z</time></trkpt><trkpt lat="33.919205" lon="8.1082067"><ele>89.0</ele><time>2026-04-23T11:58:31.376Z</time></trkpt><trkpt lat="33.919175" lon="8.1080533"><ele>89.25</ele><time>2026-04-23T11:58:32.377Z</time></trkpt><trkpt lat="33.9191417" lon="8.107895"><ele>89.5</ele><time>2026-04-23T11:58:33.377Z</time></trkpt><trkpt lat="33.9191033" lon="8.1077367"><ele>89.75</ele><time>2026-04-23T11:58:34.377Z</time></trkpt><trkpt lat="33.9190633" lon="8.1075783"><ele>90.0</ele><time>2026-04-23T11:58:35.377Z</time></trkpt><trkpt lat="33.9190267" lon="8.1074117"><ele>90.5</ele><time>2026-04-23T11:58:36.376Z</time></trkpt><trkpt lat="33.9190017" lon="8.10724"><ele>91.0</ele><time>2026-04-23T11:58:37.377Z</time></trkpt><trkpt lat="33.9189633" lon="8.1070783"><ele>91.5</ele><time>2026-04-23T11:58:38.376Z</time></trkpt><trkpt lat="33.9189283" lon="8.1069117"><ele>92.0</ele><time>2026-04-23T11:58:39.377Z</time></trkpt><trkpt lat="33.9188917" lon="8.106745"><ele>92.25</ele><time>2026-04-23T11:58:40.377Z</time></trkpt><trkpt lat="33.9188567" lon="8.1065767"><ele>92.5</ele><time>2026-04-23T11:58:41.377Z</time></trkpt><trkpt lat="33.91882" lon="8.1064133"><ele>92.75</ele><time>2026-04-23T11:58:42.376Z</time></trkpt><trkpt lat="33.9187917" lon="8.1062433"><ele>93.0</ele><time>2026-04-23T11:58:43.377Z</time></trkpt><trkpt lat="33.918755" lon="8.1060767"><ele>93.0</ele><time>2026-04-23T11:58:44.377Z</time></trkpt><trkpt lat="33.9187233" lon="8.1059117"><ele>93.0</ele><time>2026-04-23T11:58:45.376Z</time></trkpt><trkpt lat="33.9186883" lon="8.1057417"><ele>93.0</ele><time>2026-04-23T11:58:46.377Z</time></trkpt><trkpt lat="33.9186583" lon="8.10557"><ele>93.0</ele><time>2026-04-23T11:58:47.377Z</time></trkpt><trkpt lat="33.918625" lon="8.1054033"><ele>93.0</ele><time>2026-04-23T11:58:48.377Z</time></trkpt><trkpt lat="33.918595" lon="8.1052317"><ele>93.0</ele><time>2026-04-23T11:58:49.377Z</time></trkpt><trkpt lat="33.9185567" lon="8.10506"><ele>93.0</ele><time>2026-04-23T11:58:50.377Z</time></trkpt><trkpt lat="33.9185217" lon="8.1048933"><ele>93.0</ele><time>2026-04-23T11:58:51.376Z</time></trkpt><trkpt lat="33.9184883" lon="8.104725"><ele>93.25</ele><time>2026-04-23T11:58:52.377Z</time></trkpt><trkpt lat="33.9184483" lon="8.1045683"><ele>93.5</ele><time>2026-04-23T11:58:53.376Z</time></trkpt><trkpt lat="33.9184067" lon="8.1043983"><ele>93.75</ele><time>2026-04-23T11:58:54.377Z</time></trkpt><trkpt lat="33.9183683" lon="8.10424"><ele>94.0</ele><time>2026-04-23T11:58:55.377Z</time></trkpt><trkpt lat="33.9183367" lon="8.10408"><ele>93.75</ele><time>2026-04-23T11:58:56.376Z</time></trkpt><trkpt lat="33.918305" lon="8.10392"><ele>93.5</ele><time>2026-04-23T11:58:57.377Z</time></trkpt><trkpt lat="33.9182717" lon="8.1037517"><ele>93.25</ele><time>2026-04-23T11:58:58.376Z</time></trkpt><trkpt lat="33.9182233" lon="8.1035733"><ele>93.0</ele><time>2026-04-23T11:58:59.376Z</time></trkpt><trkpt lat="33.918185" lon="8.103395"><ele>94.0</ele><time>2026-04-23T11:59:00.376Z</time></trkpt><trkpt lat="33.9181483" lon="8.10321"><ele>95.0</ele><time>2026-04-23T11:59:01.377Z</time></trkpt><trkpt lat="33.9181033" lon="8.1030217"><ele>96.0</ele><time>2026-04-23T11:59:02.377Z</time></trkpt><trkpt lat="33.9180683" lon="8.10283"><ele>96.0</ele><time>2026-04-23T11:59:03.377Z</time></trkpt><trkpt lat="33.91803" lon="8.10264"><ele>96.0</ele><time>2026-04-23T11:59:04.376Z</time></trkpt><trkpt lat="33.9179933" lon="8.1024467"><ele>96.0</ele><time>2026-04-23T11:59:05.376Z</time></trkpt><trkpt lat="33.9179633" lon="8.1022467"><ele>96.0</ele><time>2026-04-23T11:59:06.377Z</time></trkpt><trkpt lat="33.917915" lon="8.1020417"><ele>96.0</ele><time>2026-04-23T11:59:07.376Z</time></trkpt><trkpt lat="33.9178717" lon="8.1018433"><ele>96.0</ele><time>2026-04-23T11:59:08.376Z</time></trkpt><trkpt lat="33.9178267" lon="8.1016333"><ele>96.66666666666666</ele><time>2026-04-23T11:59:09.377Z</time></trkpt><trkpt lat="33.9177767" lon="8.1014317"><ele>97.33333333333333</ele><time>2026-04-23T11:59:10.377Z</time></trkpt><trkpt lat="33.9177367" lon="8.1012267"><ele>98.0</ele><time>2026-04-23T11:59:11.376Z</time></trkpt><trkpt lat="33.9176883" lon="8.1010167"><ele>98.0</ele><time>2026-04-23T11:59:12.377Z</time></trkpt><trkpt lat="33.9176417" lon="8.1008033"><ele>98.0</ele><time>2026-04-23T11:59:13.377Z</time></trkpt><trkpt lat="33.9175933" lon="8.1005917"><ele>98.0</ele><time>2026-04-23T11:59:14.377Z</time></trkpt><trkpt lat="33.9175517" lon="8.100375"><ele>98.0</ele><time>2026-04-23T11:59:15.376Z</time></trkpt><trkpt lat="33.9175117" lon="8.1001567"><ele>98.0</ele><time>2026-04-23T11:59:16.376Z</time></trkpt><trkpt lat="33.9174667" lon="8.099935"><ele>98.0</ele><time>2026-04-23T11:59:17.376Z</time></trkpt><trkpt lat="33.9174233" lon="8.0997133"><ele>99.0</ele><time>2026-04-23T11:59:18.377Z</time></trkpt><trkpt lat="33.9173783" lon="8.0994917"><ele>100.0</ele><time>2026-04-23T11:59:19.377Z</time></trkpt><trkpt lat="33.917335" lon="8.0992683"><ele>101.0</ele><time>2026-04-23T11:59:20.377Z</time></trkpt><trkpt lat="33.91728" lon="8.0990483"><ele>101.33333333333333</ele><time>2026-04-23T11:59:21.377Z</time></trkpt><trkpt lat="33.9172267" lon="8.09883"><ele>101.66666666666666</ele><time>2026-04-23T11:59:22.377Z</time></trkpt><trkpt lat="33.9171783" lon="8.0986083"><ele>102.0</ele><time>2026-04-23T11:59:23.376Z</time></trkpt><trkpt lat="33.9171317" lon="8.0983833"><ele>103.0</ele><time>2026-04-23T11:59:24.376Z</time></trkpt><trkpt lat="33.91708" lon="8.0981583"><ele>104.0</ele><time>2026-04-23T11:59:25.376Z</time></trkpt><trkpt lat="33.91703" lon="8.0979333"><ele>105.0</ele><time>2026-04-23T11:59:26.377Z</time></trkpt><trkpt lat="33.9169783" lon="8.0977"><ele>105.0</ele><time>2026-04-23T11:59:27.376Z</time></trkpt><trkpt lat="33.916935" lon="8.097465"><ele>105.0</ele><time>2026-04-23T11:59:28.376Z</time></trkpt><trkpt lat="33.9168817" lon="8.0972317"><ele>105.0</ele><time>2026-04-23T11:59:29.375Z</time></trkpt><trkpt lat="33.9168367" lon="8.0970017"><ele>105.33333333333334</ele><time>2026-04-23T11:59:30.376Z</time></trkpt><trkpt lat="33.9167917" lon="8.0967717"><ele>105.66666666666667</ele><time>2026-04-23T11:59:31.375Z</time></trkpt><trkpt lat="33.9167367" lon="8.096535"><ele>106.0</ele><time>2026-04-23T11:59:32.376Z</time></trkpt><trkpt lat="33.9166883" lon="8.0962967"><ele>106.33333333333334</ele><time>2026-04-23T11:59:33.376Z</time></trkpt><trkpt lat="33.9166333" lon="8.096065"><ele>106.66666666666666</ele><time>2026-04-23T11:59:34.375Z</time></trkpt><trkpt lat="33.9165883" lon="8.095825"><ele>107.0</ele><time>2026-04-23T11:59:35.375Z</time></trkpt><trkpt lat="33.916545" lon="8.09559"><ele>107.33333333333333</ele><time>2026-04-23T11:59:36.376Z</time></trkpt><trkpt lat="33.9165017" lon="8.0953567"><ele>107.66666666666666</ele><time>2026-04-23T11:59:37.375Z</time></trkpt><trkpt lat="33.9164467" lon="8.0951217"><ele>108.0</ele><time>2026-04-23T11:59:38.375Z</time></trkpt><trkpt lat="33.9163933" lon="8.094895"><ele>109.0</ele><time>2026-04-23T11:59:39.376Z</time></trkpt><trkpt lat="33.9163433" lon="8.0946633"><ele>110.0</ele><time>2026-04-23T11:59:40.376Z</time></trkpt><trkpt lat="33.91629" lon="8.0944383"><ele>111.0</ele><time>2026-04-23T11:59:41.375Z</time></trkpt><trkpt lat="33.9162433" lon="8.0942183"><ele>112.0</ele><time>2026-04-23T11:59:42.376Z</time></trkpt><trkpt lat="33.9162" lon="8.0940017"><ele>113.0</ele><time>2026-04-23T11:59:43.376Z</time></trkpt><trkpt lat="33.916155" lon="8.0937867"><ele>114.0</ele><time>2026-04-23T11:59:44.375Z</time></trkpt><trkpt lat="33.9161133" lon="8.0935633"><ele>114.0</ele><time>2026-04-23T11:59:45.375Z</time></trkpt><trkpt lat="33.916065" lon="8.0933433"><ele>114.0</ele><time>2026-04-23T11:59:46.376Z</time></trkpt><trkpt lat="33.9160183" lon="8.093125"><ele>114.0</ele><time>2026-04-23T11:59:47.375Z</time></trkpt><trkpt lat="33.9159817" lon="8.09291"><ele>114.33333333333334</ele><time>2026-04-23T11:59:48.375Z</time></trkpt><trkpt lat="33.9159383" lon="8.092715"><ele>114.66666666666667</ele><time>2026-04-23T11:59:49.375Z</time></trkpt><trkpt lat="33.9158967" lon="8.0925333"><ele>115.0</ele><time>2026-04-23T11:59:50.375Z</time></trkpt><trkpt lat="33.9158517" lon="8.0923583"><ele>116.0</ele><time>2026-04-23T11:59:51.375Z</time></trkpt><trkpt lat="33.9158083" lon="8.0921817"><ele>117.0</ele><time>2026-04-23T11:59:52.375Z</time></trkpt><trkpt lat="33.9157733" lon="8.0920017"><ele>118.0</ele><time>2026-04-23T11:59:53.376Z</time></trkpt><trkpt lat="33.9157383" lon="8.09183"><ele>118.0</ele><time>2026-04-23T11:59:54.376Z</time></trkpt><trkpt lat="33.9157083" lon="8.09166"><ele>118.0</ele><time>2026-04-23T11:59:55.375Z</time></trkpt><trkpt lat="33.9156667" lon="8.0914933"><ele>118.0</ele><time>2026-04-23T11:59:56.376Z</time></trkpt><trkpt lat="33.9156283" lon="8.0913283"><ele>118.0</ele><time>2026-04-23T11:59:57.376Z</time></trkpt><trkpt lat="33.91559" lon="8.0911633"><ele>119.0</ele><time>2026-04-23T11:59:58.375Z</time></trkpt><trkpt lat="33.91555" lon="8.09099"><ele>120.0</ele><time>2026-04-23T11:59:59.375Z</time></trkpt><trkpt lat="33.9155167" lon="8.0908067"><ele>121.0</ele><time>2026-04-23T12:00:00.375Z</time></trkpt><trkpt lat="33.915485" lon="8.09063"><ele>121.0</ele><time>2026-04-23T12:00:01.376Z</time></trkpt><trkpt lat="33.9154517" lon="8.090445"><ele>121.0</ele><time>2026-04-23T12:00:02.375Z</time></trkpt><trkpt lat="33.9154133" lon="8.090255"><ele>121.0</ele><time>2026-04-23T12:00:03.375Z</time></trkpt><trkpt lat="33.9153667" lon="8.0900583"><ele>121.0</ele><time>2026-04-23T12:00:04.376Z</time></trkpt><trkpt lat="33.9153183" lon="8.08987"><ele>121.0</ele><time>2026-04-23T12:00:05.376Z</time></trkpt><trkpt lat="33.9152717" lon="8.089675"><ele>121.0</ele><time>2026-04-23T12:00:06.375Z</time></trkpt><trkpt lat="33.9152267" lon="8.089475"><ele>121.0</ele><time>2026-04-23T12:00:07.376Z</time></trkpt><trkpt lat="33.915185" lon="8.0892667"><ele>121.0</ele><time>2026-04-23T12:00:08.375Z</time></trkpt><trkpt lat="33.9151417" lon="8.0890617"><ele>121.0</ele><time>2026-04-23T12:00:09.375Z</time></trkpt><trkpt lat="33.9150967" lon="8.0888717"><ele>121.5</ele><time>2026-04-23T12:00:10.376Z</time></trkpt><trkpt lat="33.9150633" lon="8.0887033"><ele>122.0</ele><time>2026-04-23T12:00:11.376Z</time></trkpt><trkpt lat="33.915035" lon="8.0885633"><ele>122.5</ele><time>2026-04-23T12:00:12.376Z</time></trkpt><trkpt lat="33.9150267" lon="8.0884383"><ele>123.0</ele><time>2026-04-23T12:00:13.376Z</time></trkpt><trkpt lat="33.9150367" lon="8.0883083"><ele>123.0</ele><time>2026-04-23T12:00:14.375Z</time></trkpt><trkpt lat="33.9150417" lon="8.0881817"><ele>123.0</ele><time>2026-04-23T12:00:15.376Z</time></trkpt><trkpt lat="33.91502" lon="8.0880517"><ele>123.0</ele><time>2026-04-23T12:00:16.376Z</time></trkpt><trkpt lat="33.914965" lon="8.08792"><ele>123.0</ele><time>2026-04-23T12:00:17.376Z</time></trkpt><trkpt lat="33.9148967" lon="8.0877917"><ele>123.0</ele><time>2026-04-23T12:00:18.376Z</time></trkpt><trkpt lat="33.9148333" lon="8.0876467"><ele>123.0</ele><time>2026-04-23T12:00:19.376Z</time></trkpt><trkpt lat="33.9147833" lon="8.0874833"><ele>123.0</ele><time>2026-04-23T12:00:20.375Z</time></trkpt><trkpt lat="33.9147433" lon="8.08731"><ele>123.0</ele><time>2026-04-23T12:00:21.375Z</time></trkpt><trkpt lat="33.9147067" lon="8.0871267"><ele>123.0</ele><time>2026-04-23T12:00:22.376Z</time></trkpt><trkpt lat="33.9146717" lon="8.08694"><ele>123.0</ele><time>2026-04-23T12:00:23.375Z</time></trkpt><trkpt lat="33.9146333" lon="8.0867533"><ele>123.0</ele><time>2026-04-23T12:00:24.375Z</time></trkpt><trkpt lat="33.9146017" lon="8.0865467"><ele>123.33333333333334</ele><time>2026-04-23T12:00:25.376Z</time></trkpt><trkpt lat="33.9145583" lon="8.08634"><ele>123.66666666666667</ele><time>2026-04-23T12:00:26.376Z</time></trkpt><trkpt lat="33.9145217" lon="8.0861417"><ele>124.0</ele><time>2026-04-23T12:00:27.376Z</time></trkpt><trkpt lat="33.9144817" lon="8.08594"><ele>123.66666666666667</ele><time>2026-04-23T12:00:28.375Z</time></trkpt><trkpt lat="33.914435" lon="8.08573"><ele>123.33333333333334</ele><time>2026-04-23T12:00:29.375Z</time></trkpt><trkpt lat="33.91439" lon="8.085515"><ele>123.0</ele><time>2026-04-23T12:00:30.376Z</time></trkpt><trkpt lat="33.9143467" lon="8.0853017"><ele>123.0</ele><time>2026-04-23T12:00:31.375Z</time></trkpt><trkpt lat="33.9142967" lon="8.085085"><ele>123.0</ele><time>2026-04-23T12:00:32.376Z</time></trkpt><trkpt lat="33.9142417" lon="8.0848667"><ele>123.0</ele><time>2026-04-23T12:00:33.375Z</time></trkpt><trkpt lat="33.91419" lon="8.084645"><ele>122.33333333333334</ele><time>2026-04-23T12:00:34.376Z</time></trkpt><trkpt lat="33.9141433" lon="8.084415"><ele>121.66666666666667</ele><time>2026-04-23T12:00:35.375Z</time></trkpt><trkpt lat="33.9140933" lon="8.084185"><ele>121.0</ele><time>2026-04-23T12:00:36.375Z</time></trkpt><trkpt lat="33.91405" lon="8.0839517"><ele>122.33333333333334</ele><time>2026-04-23T12:00:37.376Z</time></trkpt><trkpt lat="33.9140033" lon="8.0837133"><ele>123.66666666666666</ele><time>2026-04-23T12:00:38.375Z</time></trkpt><trkpt lat="33.9139483" lon="8.0834733"><ele>125.0</ele><time>2026-04-23T12:00:39.375Z</time></trkpt><trkpt lat="33.9138917" lon="8.0832333"><ele>125.33333333333333</ele><time>2026-04-23T12:00:40.375Z</time></trkpt><trkpt lat="33.9138383" lon="8.0829933"><ele>125.66666666666666</ele><time>2026-04-23T12:00:41.376Z</time></trkpt><trkpt lat="33.913785" lon="8.08275"><ele>126.0</ele><time>2026-04-23T12:00:42.376Z</time></trkpt><trkpt lat="33.913725" lon="8.0825017"><ele>127.33333333333334</ele><time>2026-04-23T12:00:43.376Z</time></trkpt><trkpt lat="33.9136683" lon="8.082255"><ele>128.66666666666669</ele><time>2026-04-23T12:00:44.375Z</time></trkpt><trkpt lat="33.9136217" lon="8.082005"><ele>130.0</ele><time>2026-04-23T12:00:45.375Z</time></trkpt><trkpt lat="33.91357" lon="8.0817583"><ele>130.66666666666669</ele><time>2026-04-23T12:00:46.375Z</time></trkpt><trkpt lat="33.9135217" lon="8.0815083"><ele>131.33333333333334</ele><time>2026-04-23T12:00:47.375Z</time></trkpt><trkpt lat="33.9134683" lon="8.081255"><ele>132.0</ele><time>2026-04-23T12:00:48.376Z</time></trkpt><trkpt lat="33.9134133" lon="8.0810067"><ele>132.0</ele><time>2026-04-23T12:00:49.376Z</time></trkpt><trkpt lat="33.9133583" lon="8.0807517"><ele>132.0</ele><time>2026-04-23T12:00:50.376Z</time></trkpt><trkpt lat="33.9133033" lon="8.0805"><ele>132.0</ele><time>2026-04-23T12:00:51.375Z</time></trkpt><trkpt lat="33.91325" lon="8.080245"><ele>132.0</ele><time>2026-04-23T12:00:52.375Z</time></trkpt><trkpt lat="33.9132033" lon="8.0799933"><ele>132.0</ele><time>2026-04-23T12:00:53.375Z</time></trkpt><trkpt lat="33.9131483" lon="8.0797367"><ele>132.0</ele><time>2026-04-23T12:00:54.375Z</time></trkpt><trkpt lat="33.9130917" lon="8.07948"><ele>132.66666666666666</ele><time>2026-04-23T12:00:55.375Z</time></trkpt><trkpt lat="33.9130383" lon="8.0792267"><ele>133.33333333333331</ele><time>2026-04-23T12:00:56.375Z</time></trkpt><trkpt lat="33.9129867" lon="8.0789717"><ele>134.0</ele><time>2026-04-23T12:00:57.375Z</time></trkpt><trkpt lat="33.912925" lon="8.078715"><ele>134.33333333333331</ele><time>2026-04-23T12:00:58.376Z</time></trkpt><trkpt lat="33.9128683" lon="8.0784583"><ele>134.66666666666666</ele><time>2026-04-23T12:00:59.376Z</time></trkpt><trkpt lat="33.91281" lon="8.078205"><ele>135.0</ele><time>2026-04-23T12:01:00.376Z</time></trkpt><trkpt lat="33.9127583" lon="8.0779483"><ele>136.33333333333334</ele><time>2026-04-23T12:01:01.376Z</time></trkpt><trkpt lat="33.912705" lon="8.0776867"><ele>137.66666666666669</ele><time>2026-04-23T12:01:02.375Z</time></trkpt><trkpt lat="33.9126533" lon="8.0774267"><ele>139.0</ele><time>2026-04-23T12:01:03.375Z</time></trkpt><trkpt lat="33.9126017" lon="8.0771617"><ele>139.0</ele><time>2026-04-23T12:01:04.375Z</time></trkpt><trkpt lat="33.9125467" lon="8.0768983"><ele>139.0</ele><time>2026-04-23T12:01:05.375Z</time></trkpt><trkpt lat="33.9124867" lon="8.0766367"><ele>140.0</ele><time>2026-04-23T12:01:06.376Z</time></trkpt><trkpt lat="33.91243" lon="8.0763717"><ele>141.0</ele><time>2026-04-23T12:01:07.375Z</time></trkpt><trkpt lat="33.91237" lon="8.0761067"><ele>141.0</ele><time>2026-04-23T12:01:08.375Z</time></trkpt><trkpt lat="33.912315" lon="8.075835"><ele>141.0</ele><time>2026-04-23T12:01:09.376Z</time></trkpt><trkpt lat="33.9122667" lon="8.0755617"><ele>141.0</ele><time>2026-04-23T12:01:10.376Z</time></trkpt><trkpt lat="33.9122083" lon="8.075295"><ele>141.0</ele><time>2026-04-23T12:01:11.375Z</time></trkpt><trkpt lat="33.9121467" lon="8.075025"><ele>141.5</ele><time>2026-04-23T12:01:12.376Z</time></trkpt><trkpt lat="33.9120883" lon="8.0747533"><ele>142.0</ele><time>2026-04-23T12:01:13.375Z</time></trkpt><trkpt lat="33.91202" lon="8.0744833"><ele>142.0</ele><time>2026-04-23T12:01:14.375Z</time></trkpt><trkpt lat="33.9119583" lon="8.0742117"><ele>142.0</ele><time>2026-04-23T12:01:15.375Z</time></trkpt><trkpt lat="33.9119" lon="8.073935"><ele>142.0</ele><time>2026-04-23T12:01:16.376Z</time></trkpt><trkpt lat="33.9118383" lon="8.0736633"><ele>142.0</ele><time>2026-04-23T12:01:17.376Z</time></trkpt><trkpt lat="33.9117817" lon="8.0733933"><ele>141.5</ele><time>2026-04-23T12:01:18.375Z</time></trkpt><trkpt lat="33.911725" lon="8.073125"><ele>141.0</ele><time>2026-04-23T12:01:19.375Z</time></trkpt><trkpt lat="33.9116717" lon="8.0728517"><ele>141.0</ele><time>2026-04-23T12:01:20.375Z</time></trkpt><trkpt lat="33.9116217" lon="8.0725683"><ele>141.0</ele><time>2026-04-23T12:01:21.375Z</time></trkpt><trkpt lat="33.9115667" lon="8.0722883"><ele>141.0</ele><time>2026-04-23T12:01:22.375Z</time></trkpt><trkpt lat="33.911505" lon="8.072005"><ele>141.0</ele><time>2026-04-23T12:01:23.375Z</time></trkpt><trkpt lat="33.9114433" lon="8.0717317"><ele>142.0</ele><time>2026-04-23T12:01:24.375Z</time></trkpt><trkpt lat="33.9113817" lon="8.0714517"><ele>143.0</ele><time>2026-04-23T12:01:25.376Z</time></trkpt><trkpt lat="33.9113183" lon="8.0711667"><ele>143.0</ele><time>2026-04-23T12:01:26.375Z</time></trkpt><trkpt lat="33.9112567" lon="8.0708817"><ele>143.0</ele><time>2026-04-23T12:01:27.376Z</time></trkpt><trkpt lat="33.9111983" lon="8.0706"><ele>142.5</ele><time>2026-04-23T12:01:28.376Z</time></trkpt><trkpt lat="33.9111433" lon="8.0703167"><ele>142.0</ele><time>2026-04-23T12:01:29.375Z</time></trkpt><trkpt lat="33.9110833" lon="8.0700317"><ele>142.5</ele><time>2026-04-23T12:01:30.375Z</time></trkpt><trkpt lat="33.9110267" lon="8.069755"><ele>143.0</ele><time>2026-04-23T12:01:31.376Z</time></trkpt><trkpt lat="33.91097" lon="8.0694733"><ele>143.0</ele><time>2026-04-23T12:01:32.375Z</time></trkpt><trkpt lat="33.9109067" lon="8.0691933"><ele>143.0</ele><time>2026-04-23T12:01:33.375Z</time></trkpt><trkpt lat="33.9108467" lon="8.06891"><ele>143.0</ele><time>2026-04-23T12:01:34.375Z</time></trkpt><trkpt lat="33.9107817" lon="8.068625"><ele>143.0</ele><time>2026-04-23T12:01:35.376Z</time></trkpt><trkpt lat="33.91072" lon="8.068345"><ele>144.5</ele><time>2026-04-23T12:01:36.376Z</time></trkpt><trkpt lat="33.9106583" lon="8.0680617"><ele>146.0</ele><time>2026-04-23T12:01:37.375Z</time></trkpt><trkpt lat="33.910595" lon="8.0677817"><ele>146.0</ele><time>2026-04-23T12:01:38.376Z</time></trkpt><trkpt lat="33.9105317" lon="8.0675067"><ele>146.0</ele><time>2026-04-23T12:01:39.375Z</time></trkpt><trkpt lat="33.9104683" lon="8.0672317"><ele>146.0</ele><time>2026-04-23T12:01:40.375Z</time></trkpt><trkpt lat="33.9104117" lon="8.0669533"><ele>146.0</ele><time>2026-04-23T12:01:41.375Z</time></trkpt><trkpt lat="33.910355" lon="8.066685"><ele>146.5</ele><time>2026-04-23T12:01:42.375Z</time></trkpt><trkpt lat="33.910295" lon="8.066415"><ele>147.0</ele><time>2026-04-23T12:01:43.375Z</time></trkpt><trkpt lat="33.9102467" lon="8.0661383"><ele>147.0</ele><time>2026-04-23T12:01:44.375Z</time></trkpt><trkpt lat="33.9101967" lon="8.065855"><ele>147.0</ele><time>2026-04-23T12:01:45.376Z</time></trkpt><trkpt lat="33.9101467" lon="8.065575"><ele>147.0</ele><time>2026-04-23T12:01:46.375Z</time></trkpt><trkpt lat="33.91009" lon="8.0652983"><ele>147.0</ele><time>2026-04-23T12:01:47.375Z</time></trkpt><trkpt lat="33.910035" lon="8.0650417"><ele>147.5</ele><time>2026-04-23T12:01:48.375Z</time></trkpt><trkpt lat="33.90998" lon="8.0647867"><ele>148.0</ele><time>2026-04-23T12:01:49.376Z</time></trkpt><trkpt lat="33.9099283" lon="8.0645133"><ele>148.0</ele><time>2026-04-23T12:01:50.375Z</time></trkpt><trkpt lat="33.9098733" lon="8.0642383"><ele>148.0</ele><time>2026-04-23T12:01:51.375Z</time></trkpt><trkpt lat="33.90982" lon="8.0639633"><ele>147.5</ele><time>2026-04-23T12:01:52.375Z</time></trkpt><trkpt lat="33.90976" lon="8.06369"><ele>147.0</ele><time>2026-04-23T12:01:53.375Z</time></trkpt><trkpt lat="33.9097067" lon="8.0634183"><ele>147.5</ele><time>2026-04-23T12:01:54.376Z</time></trkpt><trkpt lat="33.9096417" lon="8.063145"><ele>148.0</ele><time>2026-04-23T12:01:55.375Z</time></trkpt><trkpt lat="33.90958" lon="8.0628683"><ele>148.0</ele><time>2026-04-23T12:01:56.376Z</time></trkpt><trkpt lat="33.9095167" lon="8.0625933"><ele>148.0</ele><time>2026-04-23T12:01:57.375Z</time></trkpt><trkpt lat="33.909465" lon="8.0623167"><ele>148.0</ele><time>2026-04-23T12:01:58.375Z</time></trkpt><trkpt lat="33.9094083" lon="8.06204"><ele>148.0</ele><time>2026-04-23T12:01:59.376Z</time></trkpt><trkpt lat="33.909355" lon="8.0617617"><ele>149.5</ele><time>2026-04-23T12:02:00.375Z</time></trkpt><trkpt lat="33.9093033" lon="8.0614867"><ele>151.0</ele><time>2026-04-23T12:02:01.375Z</time></trkpt><trkpt lat="33.9092483" lon="8.061215"><ele>152.0</ele><time>2026-04-23T12:02:02.375Z</time></trkpt><trkpt lat="33.9091917" lon="8.06095"><ele>153.0</ele><time>2026-04-23T12:02:03.376Z</time></trkpt><trkpt lat="33.909135" lon="8.0606883"><ele>153.33333333333334</ele><time>2026-04-23T12:02:04.376Z</time></trkpt><trkpt lat="33.9090683" lon="8.0604283"><ele>153.66666666666669</ele><time>2026-04-23T12:02:05.375Z</time></trkpt><trkpt lat="33.9090067" lon="8.06017"><ele>154.0</ele><time>2026-04-23T12:02:06.375Z</time></trkpt><trkpt lat="33.9089433" lon="8.0599067"><ele>155.0</ele><time>2026-04-23T12:02:07.375Z</time></trkpt><trkpt lat="33.9088883" lon="8.05964"><ele>156.0</ele><time>2026-04-23T12:02:08.375Z</time></trkpt><trkpt lat="33.908835" lon="8.05937"><ele>156.5</ele><time>2026-04-23T12:02:09.375Z</time></trkpt><trkpt lat="33.9087867" lon="8.0591"><ele>157.0</ele><time>2026-04-23T12:02:10.375Z</time></trkpt><trkpt lat="33.9087317" lon="8.0588317"><ele>157.0</ele><time>2026-04-23T12:02:11.375Z</time></trkpt><trkpt lat="33.9086667" lon="8.05856"><ele>157.0</ele><time>2026-04-23T12:02:12.376Z</time></trkpt><trkpt lat="33.9086067" lon="8.05829"><ele>156.0</ele><time>2026-04-23T12:02:13.375Z</time></trkpt><trkpt lat="33.9085467" lon="8.058025"><ele>155.0</ele><time>2026-04-23T12:02:14.375Z</time></trkpt><trkpt lat="33.908495" lon="8.0577567"><ele>155.0</ele><time>2026-04-23T12:02:15.375Z</time></trkpt><trkpt lat="33.9084383" lon="8.0574917"><ele>155.0</ele><time>2026-04-23T12:02:16.376Z</time></trkpt><trkpt lat="33.90838" lon="8.0572317"><ele>155.0</ele><time>2026-04-23T12:02:17.375Z</time></trkpt><trkpt lat="33.9083117" lon="8.05698"><ele>155.0</ele><time>2026-04-23T12:02:18.375Z</time></trkpt><trkpt lat="33.90825" lon="8.0567183"><ele>155.0</ele><time>2026-04-23T12:02:19.375Z</time></trkpt><trkpt lat="33.9081933" lon="8.05646"><ele>155.0</ele><time>2026-04-23T12:02:20.375Z</time></trkpt><trkpt lat="33.9081433" lon="8.0561967"><ele>155.0</ele><time>2026-04-23T12:02:21.375Z</time></trkpt><trkpt lat="33.9080833" lon="8.0559267"><ele>154.0</ele><time>2026-04-23T12:02:22.375Z</time></trkpt><trkpt lat="33.908025" lon="8.0556667"><ele>153.0</ele><time>2026-04-23T12:02:23.375Z</time></trkpt><trkpt lat="33.90797" lon="8.0554017"><ele>153.0</ele><time>2026-04-23T12:02:24.375Z</time></trkpt><trkpt lat="33.9079117" lon="8.05513"><ele>153.0</ele><time>2026-04-23T12:02:25.375Z</time></trkpt><trkpt lat="33.9078583" lon="8.054865"><ele>152.5</ele><time>2026-04-23T12:02:26.376Z</time></trkpt><trkpt lat="33.9077983" lon="8.0546017"><ele>152.0</ele><time>2026-04-23T12:02:27.376Z</time></trkpt><trkpt lat="33.9077383" lon="8.054335"><ele>151.0</ele><time>2026-04-23T12:02:28.375Z</time></trkpt><trkpt lat="33.907685" lon="8.0540717"><ele>150.0</ele><time>2026-04-23T12:02:29.375Z</time></trkpt><trkpt lat="33.9076267" lon="8.0538083"><ele>151.0</ele><time>2026-04-23T12:02:30.376Z</time></trkpt><trkpt lat="33.90757" lon="8.053545"><ele>152.0</ele><time>2026-04-23T12:02:31.375Z</time></trkpt><trkpt lat="33.9075183" lon="8.053285"><ele>153.0</ele><time>2026-04-23T12:02:32.375Z</time></trkpt><trkpt lat="33.9074617" lon="8.0530267"><ele>153.0</ele><time>2026-04-23T12:02:33.376Z</time></trkpt><trkpt lat="33.9074033" lon="8.052765"><ele>153.0</ele><time>2026-04-23T12:02:34.375Z</time></trkpt><trkpt lat="33.90735" lon="8.0524933"><ele>153.33333333333334</ele><time>2026-04-23T12:02:35.375Z</time></trkpt><trkpt lat="33.9072917" lon="8.0522367"><ele>153.66666666666669</ele><time>2026-04-23T12:02:36.376Z</time></trkpt><trkpt lat="33.907235" lon="8.0519717"><ele>154.0</ele><time>2026-04-23T12:02:37.375Z</time></trkpt><trkpt lat="33.9071817" lon="8.0517117"><ele>154.33333333333334</ele><time>2026-04-23T12:02:38.376Z</time></trkpt><trkpt lat="33.9071267" lon="8.0514617"><ele>154.66666666666666</ele><time>2026-04-23T12:02:39.376Z</time></trkpt><trkpt lat="33.907075" lon="8.051205"><ele>155.0</ele><time>2026-04-23T12:02:40.375Z</time></trkpt><trkpt lat="33.9070217" lon="8.0509517"><ele>155.33333333333331</ele><time>2026-04-23T12:02:41.375Z</time></trkpt><trkpt lat="33.9069667" lon="8.0506917"><ele>155.66666666666666</ele><time>2026-04-23T12:02:42.376Z</time></trkpt><trkpt lat="33.9069117" lon="8.050435"><ele>156.0</ele><time>2026-04-23T12:02:43.376Z</time></trkpt><trkpt lat="33.9068583" lon="8.050175"><ele>155.66666666666666</ele><time>2026-04-23T12:02:44.375Z</time></trkpt><trkpt lat="33.9067967" lon="8.0499117"><ele>155.33333333333331</ele><time>2026-04-23T12:02:45.376Z</time></trkpt><trkpt lat="33.9067383" lon="8.049655"><ele>155.0</ele><time>2026-04-23T12:02:46.376Z</time></trkpt><trkpt lat="33.9066817" lon="8.04939"><ele>157.0</ele><time>2026-04-23T12:02:47.376Z</time></trkpt><trkpt lat="33.90663" lon="8.049125"><ele>159.0</ele><time>2026-04-23T12:02:48.375Z</time></trkpt><trkpt lat="33.9065733" lon="8.0488533"><ele>159.0</ele><time>2026-04-23T12:02:49.375Z</time></trkpt><trkpt lat="33.9065167" lon="8.0485783"><ele>159.0</ele><time>2026-04-23T12:02:50.375Z</time></trkpt><trkpt lat="33.9064567" lon="8.0483067"><ele>158.5</ele><time>2026-04-23T12:02:51.376Z</time></trkpt><trkpt lat="33.906405" lon="8.04804"><ele>158.0</ele><time>2026-04-23T12:02:52.376Z</time></trkpt><trkpt lat="33.9063467" lon="8.0477717"><ele>158.0</ele><time>2026-04-23T12:02:53.376Z</time></trkpt><trkpt lat="33.906285" lon="8.0475017"><ele>158.0</ele><time>2026-04-23T12:02:54.375Z</time></trkpt><trkpt lat="33.9062233" lon="8.0472333"><ele>156.5</ele><time>2026-04-23T12:02:55.376Z</time></trkpt><trkpt lat="33.9061633" lon="8.046965"><ele>155.0</ele><time>2026-04-23T12:02:56.376Z</time></trkpt><trkpt lat="33.9061033" lon="8.0466967"><ele>154.5</ele><time>2026-04-23T12:02:57.375Z</time></trkpt><trkpt lat="33.906045" lon="8.0464317"><ele>154.0</ele><time>2026-04-23T12:02:58.375Z</time></trkpt><trkpt lat="33.9059833" lon="8.0461683"><ele>154.0</ele><time>2026-04-23T12:02:59.375Z</time></trkpt><trkpt lat="33.9059217" lon="8.0459083"><ele>154.0</ele><time>2026-04-23T12:03:00.376Z</time></trkpt><trkpt lat="33.9058667" lon="8.045645"><ele>156.0</ele><time>2026-04-23T12:03:01.375Z</time></trkpt><trkpt lat="33.9058033" lon="8.0453833"><ele>158.0</ele><time>2026-04-23T12:03:02.375Z</time></trkpt><trkpt lat="33.905745" lon="8.0451167"><ele>158.5</ele><time>2026-04-23T12:03:03.375Z</time></trkpt><trkpt lat="33.9056867" lon="8.0448517"><ele>159.0</ele><time>2026-04-23T12:03:04.374Z</time></trkpt><trkpt lat="33.9056317" lon="8.04459"><ele>159.0</ele><time>2026-04-23T12:03:05.374Z</time></trkpt><trkpt lat="33.9055767" lon="8.0443233"><ele>159.0</ele><time>2026-04-23T12:03:06.374Z</time></trkpt><trkpt lat="33.9055167" lon="8.04406"><ele>159.0</ele><time>2026-04-23T12:03:07.374Z</time></trkpt><trkpt lat="33.9054533" lon="8.0437933"><ele>159.0</ele><time>2026-04-23T12:03:08.374Z</time></trkpt><trkpt lat="33.9054" lon="8.043535"><ele>158.66666666666666</ele><time>2026-04-23T12:03:09.374Z</time></trkpt><trkpt lat="33.9053517" lon="8.04328"><ele>158.33333333333331</ele><time>2026-04-23T12:03:10.375Z</time></trkpt><trkpt lat="33.9053017" lon="8.0430317"><ele>158.0</ele><time>2026-04-23T12:03:11.375Z</time></trkpt><trkpt lat="33.9052517" lon="8.0427833"><ele>158.0</ele><time>2026-04-23T12:03:12.375Z</time></trkpt><trkpt lat="33.9051983" lon="8.0425417"><ele>158.0</ele><time>2026-04-23T12:03:13.374Z</time></trkpt><trkpt lat="33.9051383" lon="8.042305"><ele>158.0</ele><time>2026-04-23T12:03:14.375Z</time></trkpt><trkpt lat="33.905085" lon="8.04207"><ele>158.0</ele><time>2026-04-23T12:03:15.374Z</time></trkpt><trkpt lat="33.9050367" lon="8.0418333"><ele>158.0</ele><time>2026-04-23T12:03:16.375Z</time></trkpt><trkpt lat="33.9049883" lon="8.0415917"><ele>158.0</ele><time>2026-04-23T12:03:17.375Z</time></trkpt><trkpt lat="33.9049417" lon="8.0413567"><ele>158.0</ele><time>2026-04-23T12:03:18.374Z</time></trkpt><trkpt lat="33.9048983" lon="8.04112"><ele>158.0</ele><time>2026-04-23T12:03:19.374Z</time></trkpt><trkpt lat="33.9048483" lon="8.04089"><ele>158.0</ele><time>2026-04-23T12:03:20.375Z</time></trkpt><trkpt lat="33.90479" lon="8.0406617"><ele>158.33333333333331</ele><time>2026-04-23T12:03:21.374Z</time></trkpt><trkpt lat="33.9047367" lon="8.0404233"><ele>158.66666666666666</ele><time>2026-04-23T12:03:22.374Z</time></trkpt><trkpt lat="33.9046883" lon="8.04019"><ele>159.0</ele><time>2026-04-23T12:03:23.374Z</time></trkpt><trkpt lat="33.9046383" lon="8.039955"><ele>159.0</ele><time>2026-04-23T12:03:24.375Z</time></trkpt><trkpt lat="33.9045833" lon="8.0397183"><ele>159.0</ele><time>2026-04-23T12:03:25.374Z</time></trkpt><trkpt lat="33.9045317" lon="8.0394733"><ele>159.0</ele><time>2026-04-23T12:03:26.375Z</time></trkpt><trkpt lat="33.9044783" lon="8.0392267"><ele>158.66666666666666</ele><time>2026-04-23T12:03:27.374Z</time></trkpt><trkpt lat="33.9044233" lon="8.03898"><ele>158.33333333333331</ele><time>2026-04-23T12:03:28.374Z</time></trkpt><trkpt lat="33.9043717" lon="8.0387333"><ele>158.0</ele><time>2026-04-23T12:03:29.374Z</time></trkpt><trkpt lat="33.90432" lon="8.038485"><ele>158.0</ele><time>2026-04-23T12:03:30.374Z</time></trkpt><trkpt lat="33.9042717" lon="8.0382367"><ele>158.0</ele><time>2026-04-23T12:03:31.375Z</time></trkpt><trkpt lat="33.9042183" lon="8.0379867"><ele>158.0</ele><time>2026-04-23T12:03:32.375Z</time></trkpt><trkpt lat="33.9041617" lon="8.03773"><ele>157.0</ele><time>2026-04-23T12:03:33.374Z</time></trkpt><trkpt lat="33.9041033" lon="8.037475"><ele>156.0</ele><time>2026-04-23T12:03:34.375Z</time></trkpt><trkpt lat="33.90405" lon="8.0372167"><ele>155.0</ele><time>2026-04-23T12:03:35.374Z</time></trkpt><trkpt lat="33.9039917" lon="8.0369567"><ele>154.5</ele><time>2026-04-23T12:03:36.374Z</time></trkpt><trkpt lat="33.903935" lon="8.036695"><ele>154.0</ele><time>2026-04-23T12:03:37.374Z</time></trkpt><trkpt lat="33.9038767" lon="8.0364317"><ele>153.5</ele><time>2026-04-23T12:03:38.374Z</time></trkpt><trkpt lat="33.9038267" lon="8.0361583"><ele>153.0</ele><time>2026-04-23T12:03:39.375Z</time></trkpt><trkpt lat="33.9037683" lon="8.0358867"><ele>152.0</ele><time>2026-04-23T12:03:40.375Z</time></trkpt><trkpt lat="33.9037183" lon="8.0356067"><ele>151.0</ele><time>2026-04-23T12:03:41.374Z</time></trkpt><trkpt lat="33.9036617" lon="8.03533"><ele>151.0</ele><time>2026-04-23T12:03:42.375Z</time></trkpt><trkpt lat="33.9036" lon="8.0350567"><ele>151.0</ele><time>2026-04-23T12:03:43.374Z</time></trkpt><trkpt lat="33.9035417" lon="8.034785"><ele>152.0</ele><time>2026-04-23T12:03:44.374Z</time></trkpt><trkpt lat="33.90348" lon="8.0345133"><ele>153.0</ele><time>2026-04-23T12:03:45.374Z</time></trkpt><trkpt lat="33.903425" lon="8.0342367"><ele>153.0</ele><time>2026-04-23T12:03:46.374Z</time></trkpt><trkpt lat="33.903365" lon="8.0339583"><ele>153.0</ele><time>2026-04-23T12:03:47.374Z</time></trkpt><trkpt lat="33.9033067" lon="8.0336717"><ele>153.0</ele><time>2026-04-23T12:03:48.374Z</time></trkpt><trkpt lat="33.903245" lon="8.033395"><ele>153.0</ele><time>2026-04-23T12:03:49.374Z</time></trkpt><trkpt lat="33.9031817" lon="8.0331183"><ele>152.5</ele><time>2026-04-23T12:03:50.375Z</time></trkpt><trkpt lat="33.9031233" lon="8.03284"><ele>152.0</ele><time>2026-04-23T12:03:51.375Z</time></trkpt><trkpt lat="33.9030633" lon="8.032565"><ele>153.0</ele><time>2026-04-23T12:03:52.374Z</time></trkpt><trkpt lat="33.9030017" lon="8.032285"><ele>154.0</ele><time>2026-04-23T12:03:53.374Z</time></trkpt><trkpt lat="33.9029467" lon="8.0320083"><ele>154.0</ele><time>2026-04-23T12:03:54.374Z</time></trkpt><trkpt lat="33.9028967" lon="8.0317333"><ele>154.0</ele><time>2026-04-23T12:03:55.375Z</time></trkpt><trkpt lat="33.9028483" lon="8.0314567"><ele>154.5</ele><time>2026-04-23T12:03:56.375Z</time></trkpt><trkpt lat="33.90279" lon="8.0311817"><ele>155.0</ele><time>2026-04-23T12:03:57.375Z</time></trkpt><trkpt lat="33.9027333" lon="8.0309067"><ele>155.5</ele><time>2026-04-23T12:03:58.374Z</time></trkpt><trkpt lat="33.9026783" lon="8.0306317"><ele>156.0</ele><time>2026-04-23T12:03:59.374Z</time></trkpt><trkpt lat="33.9026167" lon="8.03036"><ele>156.0</ele><time>2026-04-23T12:04:00.374Z</time></trkpt><trkpt lat="33.902555" lon="8.0300967"><ele>156.0</ele><time>2026-04-23T12:04:01.374Z</time></trkpt><trkpt lat="33.9024933" lon="8.029835"><ele>156.0</ele><time>2026-04-23T12:04:02.375Z</time></trkpt><trkpt lat="33.9024367" lon="8.0295633"><ele>156.0</ele><time>2026-04-23T12:04:03.375Z</time></trkpt><trkpt lat="33.902375" lon="8.029295"><ele>156.0</ele><time>2026-04-23T12:04:04.375Z</time></trkpt><trkpt lat="33.9023133" lon="8.029035"><ele>156.0</ele><time>2026-04-23T12:04:05.374Z</time></trkpt><trkpt lat="33.9022567" lon="8.0287767"><ele>156.0</ele><time>2026-04-23T12:04:06.374Z</time></trkpt><trkpt lat="33.9021983" lon="8.028515"><ele>156.33333333333334</ele><time>2026-04-23T12:04:07.374Z</time></trkpt><trkpt lat="33.9021367" lon="8.028255"><ele>156.66666666666669</ele><time>2026-04-23T12:04:08.374Z</time></trkpt><trkpt lat="33.902075" lon="8.0279967"><ele>157.0</ele><time>2026-04-23T12:04:09.374Z</time></trkpt><trkpt lat="33.9020183" lon="8.027735"><ele>158.5</ele><time>2026-04-23T12:04:10.374Z</time></trkpt><trkpt lat="33.9019583" lon="8.02747"><ele>160.0</ele><time>2026-04-23T12:04:11.374Z</time></trkpt><trkpt lat="33.9019033" lon="8.027205"><ele>160.0</ele><time>2026-04-23T12:04:12.375Z</time></trkpt><trkpt lat="33.9018433" lon="8.02694"><ele>160.0</ele><time>2026-04-23T12:04:13.375Z</time></trkpt><trkpt lat="33.9017883" lon="8.0266717"><ele>160.33333333333334</ele><time>2026-04-23T12:04:14.374Z</time></trkpt><trkpt lat="33.9017367" lon="8.0264133"><ele>160.66666666666666</ele><time>2026-04-23T12:04:15.375Z</time></trkpt><trkpt lat="33.901685" lon="8.0261467"><ele>161.0</ele><time>2026-04-23T12:04:16.375Z</time></trkpt><trkpt lat="33.90163" lon="8.0258817"><ele>161.5</ele><time>2026-04-23T12:04:17.375Z</time></trkpt><trkpt lat="33.90157" lon="8.0256083"><ele>162.0</ele><time>2026-04-23T12:04:18.375Z</time></trkpt><trkpt lat="33.9015017" lon="8.0253417"><ele>162.0</ele><time>2026-04-23T12:04:19.374Z</time></trkpt><trkpt lat="33.9014483" lon="8.0250733"><ele>162.0</ele><time>2026-04-23T12:04:20.375Z</time></trkpt><trkpt lat="33.90139" lon="8.024805"><ele>161.5</ele><time>2026-04-23T12:04:21.375Z</time></trkpt><trkpt lat="33.9013267" lon="8.0245367"><ele>161.0</ele><time>2026-04-23T12:04:22.374Z</time></trkpt><trkpt lat="33.901265" lon="8.0242617"><ele>163.0</ele><time>2026-04-23T12:04:23.375Z</time></trkpt><trkpt lat="33.9012083" lon="8.0239917"><ele>165.0</ele><time>2026-04-23T12:04:24.375Z</time></trkpt><trkpt lat="33.90115" lon="8.0237167"><ele>165.0</ele><time>2026-04-23T12:04:25.374Z</time></trkpt><trkpt lat="33.9010933" lon="8.0234333"><ele>165.0</ele><time>2026-04-23T12:04:26.374Z</time></trkpt><trkpt lat="33.9010367" lon="8.0231567"><ele>165.0</ele><time>2026-04-23T12:04:27.374Z</time></trkpt><trkpt lat="33.9009817" lon="8.0228867"><ele>165.0</ele><time>2026-04-23T12:04:28.374Z</time></trkpt><trkpt lat="33.9009267" lon="8.02262"><ele>163.5</ele><time>2026-04-23T12:04:29.374Z</time></trkpt><trkpt lat="33.9008717" lon="8.0223533"><ele>162.0</ele><time>2026-04-23T12:04:30.375Z</time></trkpt><trkpt lat="33.9008167" lon="8.0220817"><ele>162.0</ele><time>2026-04-23T12:04:31.374Z</time></trkpt><trkpt lat="33.9007617" lon="8.0218183"><ele>162.0</ele><time>2026-04-23T12:04:32.375Z</time></trkpt><trkpt lat="33.9007033" lon="8.02155"><ele>163.5</ele><time>2026-04-23T12:04:33.374Z</time></trkpt><trkpt lat="33.900645" lon="8.021275"><ele>165.0</ele><time>2026-04-23T12:04:34.374Z</time></trkpt><trkpt lat="33.9005783" lon="8.0210017"><ele>165.5</ele><time>2026-04-23T12:04:35.374Z</time></trkpt><trkpt lat="33.9005133" lon="8.0207233"><ele>166.0</ele><time>2026-04-23T12:04:36.374Z</time></trkpt><trkpt lat="33.9004567" lon="8.0204417"><ele>166.0</ele><time>2026-04-23T12:04:37.375Z</time></trkpt><trkpt lat="33.9004" lon="8.02016"><ele>166.0</ele><time>2026-04-23T12:04:38.375Z</time></trkpt><trkpt lat="33.9003383" lon="8.0198767"><ele>164.5</ele><time>2026-04-23T12:04:39.374Z</time></trkpt><trkpt lat="33.9002817" lon="8.0195967"><ele>163.0</ele><time>2026-04-23T12:04:40.375Z</time></trkpt><trkpt lat="33.9002217" lon="8.019315"><ele>163.5</ele><time>2026-04-23T12:04:41.375Z</time></trkpt><trkpt lat="33.9001583" lon="8.0190317"><ele>164.0</ele><time>2026-04-23T12:04:42.375Z</time></trkpt><trkpt lat="33.9000983" lon="8.018745"><ele>163.5</ele><time>2026-04-23T12:04:43.375Z</time></trkpt><trkpt lat="33.90004" lon="8.0184617"><ele>163.0</ele><time>2026-04-23T12:04:44.375Z</time></trkpt><trkpt lat="33.8999833" lon="8.018185"><ele>163.0</ele><time>2026-04-23T12:04:45.375Z</time></trkpt><trkpt lat="33.8999267" lon="8.017905"><ele>163.0</ele><time>2026-04-23T12:04:46.374Z</time></trkpt><trkpt lat="33.899865" lon="8.0176283"><ele>163.0</ele><time>2026-04-23T12:04:47.375Z</time></trkpt><trkpt lat="33.8998067" lon="8.0173567"><ele>163.0</ele><time>2026-04-23T12:04:48.374Z</time></trkpt><trkpt lat="33.899745" lon="8.0170783"><ele>163.0</ele><time>2026-04-23T12:04:49.375Z</time></trkpt><trkpt lat="33.89968" lon="8.0168033"><ele>163.0</ele><time>2026-04-23T12:04:50.375Z</time></trkpt><trkpt lat="33.8996217" lon="8.0165317"><ele>164.0</ele><time>2026-04-23T12:04:51.375Z</time></trkpt><trkpt lat="33.8995667" lon="8.016255"><ele>165.0</ele><time>2026-04-23T12:04:52.374Z</time></trkpt><trkpt lat="33.8995117" lon="8.0159867"><ele>165.5</ele><time>2026-04-23T12:04:53.374Z</time></trkpt><trkpt lat="33.8994517" lon="8.015715"><ele>166.0</ele><time>2026-04-23T12:04:54.374Z</time></trkpt><trkpt lat="33.8993917" lon="8.01545"><ele>166.0</ele><time>2026-04-23T12:04:55.374Z</time></trkpt><trkpt lat="33.8993367" lon="8.01518"><ele>166.0</ele><time>2026-04-23T12:04:56.375Z</time></trkpt><trkpt lat="33.89928" lon="8.0149117"><ele>165.0</ele><time>2026-04-23T12:04:57.374Z</time></trkpt><trkpt lat="33.899225" lon="8.01464"><ele>164.0</ele><time>2026-04-23T12:04:58.375Z</time></trkpt><trkpt lat="33.899165" lon="8.01437"><ele>163.0</ele><time>2026-04-23T12:04:59.375Z</time></trkpt><trkpt lat="33.8991033" lon="8.0141"><ele>162.0</ele><time>2026-04-23T12:05:00.375Z</time></trkpt><trkpt lat="33.8990367" lon="8.01383"><ele>162.0</ele><time>2026-04-23T12:05:01.375Z</time></trkpt><trkpt lat="33.8989767" lon="8.0135567"><ele>162.0</ele><time>2026-04-23T12:05:02.374Z</time></trkpt><trkpt lat="33.8989217" lon="8.0132783"><ele>163.5</ele><time>2026-04-23T12:05:03.374Z</time></trkpt><trkpt lat="33.8988667" lon="8.0130083"><ele>165.0</ele><time>2026-04-23T12:05:04.375Z</time></trkpt><trkpt lat="33.8988117" lon="8.012745"><ele>165.0</ele><time>2026-04-23T12:05:05.374Z</time></trkpt><trkpt lat="33.89875" lon="8.012475"><ele>165.0</ele><time>2026-04-23T12:05:06.375Z</time></trkpt><trkpt lat="33.8986917" lon="8.0122033"><ele>165.0</ele><time>2026-04-23T12:05:07.374Z</time></trkpt><trkpt lat="33.8986367" lon="8.01194"><ele>165.0</ele><time>2026-04-23T12:05:08.375Z</time></trkpt><trkpt lat="33.8985767" lon="8.0116917"><ele>165.0</ele><time>2026-04-23T12:05:09.375Z</time></trkpt><trkpt lat="33.8985183" lon="8.01146"><ele>164.66666666666666</ele><time>2026-04-23T12:05:10.375Z</time></trkpt><trkpt lat="33.89847" lon="8.01124"><ele>164.33333333333331</ele><time>2026-04-23T12:05:11.375Z</time></trkpt><trkpt lat="33.8984283" lon="8.0110317"><ele>164.0</ele><time>2026-04-23T12:05:12.374Z</time></trkpt><trkpt lat="33.8983833" lon="8.010835"><ele>163.33333333333331</ele><time>2026-04-23T12:05:13.375Z</time></trkpt><trkpt lat="33.8983433" lon="8.0106433"><ele>162.66666666666666</ele><time>2026-04-23T12:05:14.375Z</time></trkpt><trkpt lat="33.8983033" lon="8.0104483"><ele>162.0</ele><time>2026-04-23T12:05:15.375Z</time></trkpt><trkpt lat="33.8982583" lon="8.0102583"><ele>162.0</ele><time>2026-04-23T12:05:16.374Z</time></trkpt><trkpt lat="33.8982117" lon="8.010065"><ele>162.0</ele><time>2026-04-23T12:05:17.375Z</time></trkpt><trkpt lat="33.8981717" lon="8.0098667"><ele>162.0</ele><time>2026-04-23T12:05:18.374Z</time></trkpt><trkpt lat="33.8981317" lon="8.0096633"><ele>162.0</ele><time>2026-04-23T12:05:19.374Z</time></trkpt><trkpt lat="33.8980883" lon="8.0094567"><ele>162.0</ele><time>2026-04-23T12:05:20.374Z</time></trkpt><trkpt lat="33.8980433" lon="8.0092467"><ele>162.0</ele><time>2026-04-23T12:05:21.374Z</time></trkpt><trkpt lat="33.897995" lon="8.0090283"><ele>162.0</ele><time>2026-04-23T12:05:22.375Z</time></trkpt><trkpt lat="33.89795" lon="8.0088033"><ele>162.0</ele><time>2026-04-23T12:05:23.375Z</time></trkpt><trkpt lat="33.8979067" lon="8.0085733"><ele>162.0</ele><time>2026-04-23T12:05:24.374Z</time></trkpt><trkpt lat="33.897865" lon="8.0083383"><ele>162.0</ele><time>2026-04-23T12:05:25.374Z</time></trkpt><trkpt lat="33.89782" lon="8.0080983"><ele>162.0</ele><time>2026-04-23T12:05:26.375Z</time></trkpt><trkpt lat="33.8977683" lon="8.00786"><ele>162.0</ele><time>2026-04-23T12:05:27.374Z</time></trkpt><trkpt lat="33.89771" lon="8.0076167"><ele>162.33333333333334</ele><time>2026-04-23T12:05:28.374Z</time></trkpt><trkpt lat="33.89765" lon="8.00737"><ele>162.66666666666669</ele><time>2026-04-23T12:05:29.375Z</time></trkpt><trkpt lat="33.897595" lon="8.0071217"><ele>163.0</ele><time>2026-04-23T12:05:30.375Z</time></trkpt><trkpt lat="33.8975383" lon="8.00687"><ele>162.66666666666669</ele><time>2026-04-23T12:05:31.375Z</time></trkpt><trkpt lat="33.8974833" lon="8.006615"><ele>162.33333333333334</ele><time>2026-04-23T12:05:32.374Z</time></trkpt><trkpt lat="33.8974317" lon="8.0063633"><ele>162.0</ele><time>2026-04-23T12:05:33.374Z</time></trkpt><trkpt lat="33.8973733" lon="8.00611"><ele>162.0</ele><time>2026-04-23T12:05:34.375Z</time></trkpt><trkpt lat="33.8973167" lon="8.0058533"><ele>162.0</ele><time>2026-04-23T12:05:35.374Z</time></trkpt><trkpt lat="33.8972533" lon="8.0055933"><ele>162.0</ele><time>2026-04-23T12:05:36.374Z</time></trkpt><trkpt lat="33.8971983" lon="8.0053333"><ele>161.0</ele><time>2026-04-23T12:05:37.374Z</time></trkpt><trkpt lat="33.8971517" lon="8.005075"><ele>160.0</ele><time>2026-04-23T12:05:38.374Z</time></trkpt><trkpt lat="33.8971017" lon="8.0048117"><ele>159.0</ele><time>2026-04-23T12:05:39.375Z</time></trkpt><trkpt lat="33.8970483" lon="8.0045483"><ele>157.5</ele><time>2026-04-23T12:05:40.374Z</time></trkpt><trkpt lat="33.8969933" lon="8.0042783"><ele>156.0</ele><time>2026-04-23T12:05:41.375Z</time></trkpt><trkpt lat="33.89694" lon="8.0040133"><ele>156.0</ele><time>2026-04-23T12:05:42.375Z</time></trkpt><trkpt lat="33.8968867" lon="8.0037533"><ele>156.0</ele><time>2026-04-23T12:05:43.374Z</time></trkpt><trkpt lat="33.896835" lon="8.0034933"><ele>156.0</ele><time>2026-04-23T12:05:44.375Z</time></trkpt><trkpt lat="33.8967833" lon="8.0032283"><ele>155.66666666666666</ele><time>2026-04-23T12:05:45.375Z</time></trkpt><trkpt lat="33.89673" lon="8.002965"><ele>155.33333333333331</ele><time>2026-04-23T12:05:46.374Z</time></trkpt><trkpt lat="33.8966683" lon="8.00271"><ele>155.0</ele><time>2026-04-23T12:05:47.375Z</time></trkpt><trkpt lat="33.896605" lon="8.0024467"><ele>155.0</ele><time>2026-04-23T12:05:48.374Z</time></trkpt><trkpt lat="33.896545" lon="8.0021867"><ele>155.0</ele><time>2026-04-23T12:05:49.375Z</time></trkpt><trkpt lat="33.8964867" lon="8.001925"><ele>155.0</ele><time>2026-04-23T12:05:50.375Z</time></trkpt><trkpt lat="33.896435" lon="8.00166"><ele>155.0</ele><time>2026-04-23T12:05:51.374Z</time></trkpt><trkpt lat="33.896385" lon="8.0013967"><ele>155.0</ele><time>2026-04-23T12:05:52.374Z</time></trkpt><trkpt lat="33.8963283" lon="8.00113"><ele>155.0</ele><time>2026-04-23T12:05:53.375Z</time></trkpt><trkpt lat="33.8962683" lon="8.00087"><ele>155.0</ele><time>2026-04-23T12:05:54.374Z</time></trkpt><trkpt lat="33.8962117" lon="8.0006083"><ele>155.0</ele><time>2026-04-23T12:05:55.374Z</time></trkpt><trkpt lat="33.8961533" lon="8.00034"><ele>155.5</ele><time>2026-04-23T12:05:56.374Z</time></trkpt><trkpt lat="33.896095" lon="8.0000783"><ele>156.0</ele><time>2026-04-23T12:05:57.374Z</time></trkpt><trkpt lat="33.8960317" lon="7.9998167"><ele>156.0</ele><time>2026-04-23T12:05:58.375Z</time></trkpt><trkpt lat="33.8959717" lon="7.9995533"><ele>156.0</ele><time>2026-04-23T12:05:59.375Z</time></trkpt><trkpt lat="33.8959167" lon="7.9992833"><ele>155.5</ele><time>2026-04-23T12:06:00.375Z</time></trkpt><trkpt lat="33.8958633" lon="7.9990167"><ele>155.0</ele><time>2026-04-23T12:06:01.374Z</time></trkpt><trkpt lat="33.89581" lon="7.998755"><ele>155.0</ele><time>2026-04-23T12:06:02.374Z</time></trkpt><trkpt lat="33.89575" lon="7.9984917"><ele>155.0</ele><time>2026-04-23T12:06:03.375Z</time></trkpt><trkpt lat="33.8956933" lon="7.9982217"><ele>154.0</ele><time>2026-04-23T12:06:04.374Z</time></trkpt><trkpt lat="33.8956383" lon="7.9979533"><ele>153.0</ele><time>2026-04-23T12:06:05.375Z</time></trkpt><trkpt lat="33.89558" lon="7.99768"><ele>153.0</ele><time>2026-04-23T12:06:06.375Z</time></trkpt><trkpt lat="33.8955183" lon="7.9974083"><ele>153.0</ele><time>2026-04-23T12:06:07.374Z</time></trkpt><trkpt lat="33.8954617" lon="7.9971383"><ele>153.0</ele><time>2026-04-23T12:06:08.374Z</time></trkpt><trkpt lat="33.8954067" lon="7.9968667"><ele>153.0</ele><time>2026-04-23T12:06:09.375Z</time></trkpt><trkpt lat="33.895345" lon="7.9965967"><ele>153.5</ele><time>2026-04-23T12:06:10.374Z</time></trkpt><trkpt lat="33.8952867" lon="7.996325"><ele>154.0</ele><time>2026-04-23T12:06:11.375Z</time></trkpt><trkpt lat="33.8952267" lon="7.9960517"><ele>155.0</ele><time>2026-04-23T12:06:12.374Z</time></trkpt><trkpt lat="33.8951667" lon="7.9957817"><ele>156.0</ele><time>2026-04-23T12:06:13.375Z</time></trkpt><trkpt lat="33.8951117" lon="7.995515"><ele>155.0</ele><time>2026-04-23T12:06:14.374Z</time></trkpt><trkpt lat="33.8950633" lon="7.9952467"><ele>154.0</ele><time>2026-04-23T12:06:15.374Z</time></trkpt><trkpt lat="33.8950067" lon="7.9949767"><ele>154.0</ele><time>2026-04-23T12:06:16.375Z</time></trkpt><trkpt lat="33.89495" lon="7.9947133"><ele>154.0</ele><time>2026-04-23T12:06:17.374Z</time></trkpt><trkpt lat="33.8948917" lon="7.9944433"><ele>154.0</ele><time>2026-04-23T12:06:18.375Z</time></trkpt><trkpt lat="33.8948367" lon="7.9941767"><ele>154.0</ele><time>2026-04-23T12:06:19.374Z</time></trkpt><trkpt lat="33.894775" lon="7.9939133"><ele>153.5</ele><time>2026-04-23T12:06:20.375Z</time></trkpt><trkpt lat="33.894715" lon="7.9936383"><ele>153.0</ele><time>2026-04-23T12:06:21.374Z</time></trkpt><trkpt lat="33.894665" lon="7.9933683"><ele>153.0</ele><time>2026-04-23T12:06:22.375Z</time></trkpt><trkpt lat="33.8946067" lon="7.9930983"><ele>153.0</ele><time>2026-04-23T12:06:23.375Z</time></trkpt><trkpt lat="33.894545" lon="7.9928317"><ele>153.0</ele><time>2026-04-23T12:06:24.375Z</time></trkpt><trkpt lat="33.8944833" lon="7.9925617"><ele>153.0</ele><time>2026-04-23T12:06:25.374Z</time></trkpt><trkpt lat="33.8944183" lon="7.9922867"><ele>152.5</ele><time>2026-04-23T12:06:26.375Z</time></trkpt><trkpt lat="33.8943583" lon="7.9920083"><ele>152.0</ele><time>2026-04-23T12:06:27.375Z</time></trkpt><trkpt lat="33.894305" lon="7.9917333"><ele>150.0</ele><time>2026-04-23T12:06:28.374Z</time></trkpt><trkpt lat="33.894245" lon="7.9914617"><ele>148.0</ele><time>2026-04-23T12:06:29.375Z</time></trkpt><trkpt lat="33.8941867" lon="7.9911883"><ele>148.0</ele><time>2026-04-23T12:06:30.375Z</time></trkpt><trkpt lat="33.89413" lon="7.9909117"><ele>148.0</ele><time>2026-04-23T12:06:31.374Z</time></trkpt><trkpt lat="33.8940683" lon="7.9906333"><ele>148.0</ele><time>2026-04-23T12:06:32.375Z</time></trkpt><trkpt lat="33.8940117" lon="7.9903567"><ele>148.0</ele><time>2026-04-23T12:06:33.374Z</time></trkpt><trkpt lat="33.89395" lon="7.9900767"><ele>147.5</ele><time>2026-04-23T12:06:34.375Z</time></trkpt><trkpt lat="33.8938883" lon="7.9897983"><ele>147.0</ele><time>2026-04-23T12:06:35.375Z</time></trkpt><trkpt lat="33.8938283" lon="7.9895233"><ele>147.0</ele><time>2026-04-23T12:06:36.374Z</time></trkpt><trkpt lat="33.89377" lon="7.98925"><ele>147.0</ele><time>2026-04-23T12:06:37.374Z</time></trkpt><trkpt lat="33.8937167" lon="7.9889683"><ele>147.0</ele><time>2026-04-23T12:06:38.374Z</time></trkpt><trkpt lat="33.8936533" lon="7.9886917"><ele>147.0</ele><time>2026-04-23T12:06:39.375Z</time></trkpt><trkpt lat="33.893595" lon="7.9884217"><ele>146.5</ele><time>2026-04-23T12:06:40.374Z</time></trkpt><trkpt lat="33.89353" lon="7.98814"><ele>146.0</ele><time>2026-04-23T12:06:41.374Z</time></trkpt><trkpt lat="33.8934617" lon="7.98787"><ele>145.0</ele><time>2026-04-23T12:06:42.374Z</time></trkpt><trkpt lat="33.8934017" lon="7.987595"><ele>144.0</ele><time>2026-04-23T12:06:43.374Z</time></trkpt><trkpt lat="33.8933383" lon="7.9873183"><ele>144.0</ele><time>2026-04-23T12:06:44.375Z</time></trkpt><trkpt lat="33.8932917" lon="7.9870433"><ele>144.0</ele><time>2026-04-23T12:06:45.374Z</time></trkpt><trkpt lat="33.8932333" lon="7.9867717"><ele>143.0</ele><time>2026-04-23T12:06:46.374Z</time></trkpt><trkpt lat="33.89317" lon="7.9865017"><ele>142.0</ele><time>2026-04-23T12:06:47.374Z</time></trkpt><trkpt lat="33.8931183" lon="7.98623"><ele>142.0</ele><time>2026-04-23T12:06:48.374Z</time></trkpt><trkpt lat="33.8930583" lon="7.9859567"><ele>142.0</ele><time>2026-04-23T12:06:49.373Z</time></trkpt><trkpt lat="33.8929967" lon="7.9856867"><ele>142.5</ele><time>2026-04-23T12:06:50.374Z</time></trkpt><trkpt lat="33.8929367" lon="7.9854133"><ele>143.0</ele><time>2026-04-23T12:06:51.374Z</time></trkpt><trkpt lat="33.8928767" lon="7.985145"><ele>143.0</ele><time>2026-04-23T12:06:52.373Z</time></trkpt><trkpt lat="33.8928217" lon="7.9848717"><ele>143.0</ele><time>2026-04-23T12:06:53.374Z</time></trkpt><trkpt lat="33.892765" lon="7.9846017"><ele>143.0</ele><time>2026-04-23T12:06:54.373Z</time></trkpt><trkpt lat="33.8927033" lon="7.9843267"><ele>143.0</ele><time>2026-04-23T12:06:55.373Z</time></trkpt><trkpt lat="33.8926483" lon="7.984055"><ele>142.5</ele><time>2026-04-23T12:06:56.374Z</time></trkpt><trkpt lat="33.892595" lon="7.98378"><ele>142.0</ele><time>2026-04-23T12:06:57.374Z</time></trkpt><trkpt lat="33.8925417" lon="7.9835067"><ele>142.0</ele><time>2026-04-23T12:06:58.374Z</time></trkpt><trkpt lat="33.8924883" lon="7.9832367"><ele>142.0</ele><time>2026-04-23T12:06:59.374Z</time></trkpt><trkpt lat="33.89243" lon="7.982965"><ele>142.0</ele><time>2026-04-23T12:07:00.373Z</time></trkpt><trkpt lat="33.892375" lon="7.9826867"><ele>142.0</ele><time>2026-04-23T12:07:01.373Z</time></trkpt><trkpt lat="33.89231" lon="7.9824067"><ele>143.0</ele><time>2026-04-23T12:07:02.374Z</time></trkpt><trkpt lat="33.8922517" lon="7.9821267"><ele>144.0</ele><time>2026-04-23T12:07:03.374Z</time></trkpt><trkpt lat="33.89219" lon="7.981845"><ele>145.0</ele><time>2026-04-23T12:07:04.374Z</time></trkpt><trkpt lat="33.8921267" lon="7.9815667"><ele>146.0</ele><time>2026-04-23T12:07:05.374Z</time></trkpt><trkpt lat="33.8920667" lon="7.98128"><ele>146.0</ele><time>2026-04-23T12:07:06.373Z</time></trkpt><trkpt lat="33.8920067" lon="7.981005"><ele>146.0</ele><time>2026-04-23T12:07:07.373Z</time></trkpt><trkpt lat="33.8919433" lon="7.9807233"><ele>146.5</ele><time>2026-04-23T12:07:08.373Z</time></trkpt><trkpt lat="33.891885" lon="7.98045"><ele>147.0</ele><time>2026-04-23T12:07:09.374Z</time></trkpt><trkpt lat="33.8918317" lon="7.980175"><ele>146.5</ele><time>2026-04-23T12:07:10.373Z</time></trkpt><trkpt lat="33.8917733" lon="7.9799033"><ele>146.0</ele><time>2026-04-23T12:07:11.374Z</time></trkpt><trkpt lat="33.8917217" lon="7.979635"><ele>144.5</ele><time>2026-04-23T12:07:12.373Z</time></trkpt><trkpt lat="33.8916633" lon="7.9793683"><ele>143.0</ele><time>2026-04-23T12:07:13.374Z</time></trkpt><trkpt lat="33.891605" lon="7.9791017"><ele>143.0</ele><time>2026-04-23T12:07:14.373Z</time></trkpt><trkpt lat="33.891545" lon="7.9788283"><ele>143.0</ele><time>2026-04-23T12:07:15.373Z</time></trkpt><trkpt lat="33.8914867" lon="7.9785517"><ele>142.5</ele><time>2026-04-23T12:07:16.373Z</time></trkpt><trkpt lat="33.8914217" lon="7.97828"><ele>142.0</ele><time>2026-04-23T12:07:17.373Z</time></trkpt><trkpt lat="33.8913633" lon="7.9780067"><ele>142.0</ele><time>2026-04-23T12:07:18.373Z</time></trkpt><trkpt lat="33.8913" lon="7.9777317"><ele>142.0</ele><time>2026-04-23T12:07:19.373Z</time></trkpt><trkpt lat="33.8912417" lon="7.97746"><ele>142.0</ele><time>2026-04-23T12:07:20.373Z</time></trkpt><trkpt lat="33.8911783" lon="7.97719"><ele>142.0</ele><time>2026-04-23T12:07:21.373Z</time></trkpt><trkpt lat="33.89112" lon="7.9769133"><ele>143.0</ele><time>2026-04-23T12:07:22.373Z</time></trkpt><trkpt lat="33.89106" lon="7.97664"><ele>144.0</ele><time>2026-04-23T12:07:23.373Z</time></trkpt><trkpt lat="33.8910017" lon="7.9763617"><ele>144.0</ele><time>2026-04-23T12:07:24.374Z</time></trkpt><trkpt lat="33.8909417" lon="7.9760883"><ele>144.0</ele><time>2026-04-23T12:07:25.373Z</time></trkpt><trkpt lat="33.89089" lon="7.97581"><ele>142.0</ele><time>2026-04-23T12:07:26.374Z</time></trkpt><trkpt lat="33.8908367" lon="7.9755333"><ele>140.0</ele><time>2026-04-23T12:07:27.373Z</time></trkpt><trkpt lat="33.8907783" lon="7.975255"><ele>141.0</ele><time>2026-04-23T12:07:28.373Z</time></trkpt><trkpt lat="33.8907217" lon="7.974985"><ele>142.0</ele><time>2026-04-23T12:07:29.374Z</time></trkpt><trkpt lat="33.8906617" lon="7.974705"><ele>142.0</ele><time>2026-04-23T12:07:30.373Z</time></trkpt><trkpt lat="33.890595" lon="7.9744283"><ele>142.0</ele><time>2026-04-23T12:07:31.373Z</time></trkpt><trkpt lat="33.8905317" lon="7.97415"><ele>142.0</ele><time>2026-04-23T12:07:32.373Z</time></trkpt><trkpt lat="33.8904733" lon="7.97388"><ele>142.0</ele><time>2026-04-23T12:07:33.374Z</time></trkpt><trkpt lat="33.8904067" lon="7.9736117"><ele>142.5</ele><time>2026-04-23T12:07:34.373Z</time></trkpt><trkpt lat="33.890345" lon="7.9733317"><ele>143.0</ele><time>2026-04-23T12:07:35.374Z</time></trkpt><trkpt lat="33.8902817" lon="7.9730517"><ele>143.0</ele><time>2026-04-23T12:07:36.374Z</time></trkpt><trkpt lat="33.890225" lon="7.9727717"><ele>143.0</ele><time>2026-04-23T12:07:37.374Z</time></trkpt><trkpt lat="33.890165" lon="7.9724933"><ele>143.0</ele><time>2026-04-23T12:07:38.373Z</time></trkpt><trkpt lat="33.8901067" lon="7.97222"><ele>143.0</ele><time>2026-04-23T12:07:39.373Z</time></trkpt><trkpt lat="33.8900433" lon="7.97194"><ele>141.0</ele><time>2026-04-23T12:07:40.373Z</time></trkpt><trkpt lat="33.8899867" lon="7.9716633"><ele>139.0</ele><time>2026-04-23T12:07:41.374Z</time></trkpt><trkpt lat="33.889925" lon="7.971385"><ele>139.0</ele><time>2026-04-23T12:07:42.374Z</time></trkpt><trkpt lat="33.889865" lon="7.9711067"><ele>139.0</ele><time>2026-04-23T12:07:43.374Z</time></trkpt><trkpt lat="33.8898083" lon="7.9708317"><ele>139.5</ele><time>2026-04-23T12:07:44.373Z</time></trkpt><trkpt lat="33.8897533" lon="7.97055"><ele>140.0</ele><time>2026-04-23T12:07:45.373Z</time></trkpt><trkpt lat="33.8896933" lon="7.97027"><ele>140.5</ele><time>2026-04-23T12:07:46.373Z</time></trkpt><trkpt lat="33.8896367" lon="7.969995"><ele>141.0</ele><time>2026-04-23T12:07:47.374Z</time></trkpt><trkpt lat="33.889575" lon="7.96972"><ele>141.0</ele><time>2026-04-23T12:07:48.374Z</time></trkpt><trkpt lat="33.8895167" lon="7.9694383"><ele>141.0</ele><time>2026-04-23T12:07:49.374Z</time></trkpt><trkpt lat="33.889455" lon="7.9691533"><ele>140.5</ele><time>2026-04-23T12:07:50.373Z</time></trkpt><trkpt lat="33.88939" lon="7.9688733"><ele>140.0</ele><time>2026-04-23T12:07:51.373Z</time></trkpt><trkpt lat="33.88933" lon="7.9685933"><ele>140.5</ele><time>2026-04-23T12:07:52.374Z</time></trkpt><trkpt lat="33.88927" lon="7.968315"><ele>141.0</ele><time>2026-04-23T12:07:53.374Z</time></trkpt><trkpt lat="33.889215" lon="7.9680383"><ele>141.0</ele><time>2026-04-23T12:07:54.374Z</time></trkpt><trkpt lat="33.8891517" lon="7.9677583"><ele>141.0</ele><time>2026-04-23T12:07:55.373Z</time></trkpt><trkpt lat="33.8890917" lon="7.96748"><ele>141.0</ele><time>2026-04-23T12:07:56.374Z</time></trkpt><trkpt lat="33.8890317" lon="7.9672033"><ele>141.0</ele><time>2026-04-23T12:07:57.374Z</time></trkpt><trkpt lat="33.8889733" lon="7.96692"><ele>140.5</ele><time>2026-04-23T12:07:58.374Z</time></trkpt><trkpt lat="33.8889133" lon="7.96664"><ele>140.0</ele><time>2026-04-23T12:07:59.373Z</time></trkpt><trkpt lat="33.8888567" lon="7.9663583"><ele>140.0</ele><time>2026-04-23T12:08:00.373Z</time></trkpt><trkpt lat="33.888795" lon="7.9660783"><ele>140.0</ele><time>2026-04-23T12:08:01.373Z</time></trkpt><trkpt lat="33.88874" lon="7.9657967"><ele>140.0</ele><time>2026-04-23T12:08:02.373Z</time></trkpt><trkpt lat="33.888685" lon="7.965515"><ele>140.0</ele><time>2026-04-23T12:08:03.373Z</time></trkpt><trkpt lat="33.8886367" lon="7.9652367"><ele>140.5</ele><time>2026-04-23T12:08:04.373Z</time></trkpt><trkpt lat="33.88858" lon="7.964955"><ele>141.0</ele><time>2026-04-23T12:08:05.373Z</time></trkpt><trkpt lat="33.8885233" lon="7.964675"><ele>141.0</ele><time>2026-04-23T12:08:06.373Z</time></trkpt><trkpt lat="33.888465" lon="7.9643983"><ele>141.0</ele><time>2026-04-23T12:08:07.373Z</time></trkpt><trkpt lat="33.8884067" lon="7.9641233"><ele>138.5</ele><time>2026-04-23T12:08:08.374Z</time></trkpt><trkpt lat="33.888345" lon="7.9638483"><ele>136.0</ele><time>2026-04-23T12:08:09.374Z</time></trkpt><trkpt lat="33.88828" lon="7.9635767"><ele>136.5</ele><time>2026-04-23T12:08:10.374Z</time></trkpt><trkpt lat="33.88822" lon="7.9633017"><ele>137.0</ele><time>2026-04-23T12:08:11.373Z</time></trkpt><trkpt lat="33.8881583" lon="7.9630283"><ele>137.0</ele><time>2026-04-23T12:08:12.374Z</time></trkpt><trkpt lat="33.8880983" lon="7.9627483"><ele>137.0</ele><time>2026-04-23T12:08:13.374Z</time></trkpt><trkpt lat="33.8880467" lon="7.9624783"><ele>137.0</ele><time>2026-04-23T12:08:14.374Z</time></trkpt><trkpt lat="33.8879833" lon="7.962205"><ele>137.0</ele><time>2026-04-23T12:08:15.373Z</time></trkpt><trkpt lat="33.88792" lon="7.9619367"><ele>136.5</ele><time>2026-04-23T12:08:16.373Z</time></trkpt><trkpt lat="33.8878617" lon="7.9616733"><ele>136.0</ele><time>2026-04-23T12:08:17.373Z</time></trkpt><trkpt lat="33.887805" lon="7.9614067"><ele>136.0</ele><time>2026-04-23T12:08:18.374Z</time></trkpt><trkpt lat="33.8877483" lon="7.9611383"><ele>136.0</ele><time>2026-04-23T12:08:19.373Z</time></trkpt><trkpt lat="33.88769" lon="7.960865"><ele>135.5</ele><time>2026-04-23T12:08:20.374Z</time></trkpt><trkpt lat="33.887625" lon="7.9605867"><ele>135.0</ele><time>2026-04-23T12:08:21.373Z</time></trkpt><trkpt lat="33.8875633" lon="7.9603117"><ele>133.0</ele><time>2026-04-23T12:08:22.373Z</time></trkpt><trkpt lat="33.8875017" lon="7.9600317"><ele>131.0</ele><time>2026-04-23T12:08:23.373Z</time></trkpt><trkpt lat="33.88744" lon="7.9597567"><ele>131.0</ele><time>2026-04-23T12:08:24.373Z</time></trkpt><trkpt lat="33.88738" lon="7.95948"><ele>131.0</ele><time>2026-04-23T12:08:25.373Z</time></trkpt><trkpt lat="33.88732" lon="7.9592033"><ele>131.5</ele><time>2026-04-23T12:08:26.373Z</time></trkpt><trkpt lat="33.88726" lon="7.9589233"><ele>132.0</ele><time>2026-04-23T12:08:27.374Z</time></trkpt><trkpt lat="33.8871967" lon="7.9586433"><ele>132.0</ele><time>2026-04-23T12:08:28.373Z</time></trkpt><trkpt lat="33.8871367" lon="7.9583667"><ele>132.0</ele><time>2026-04-23T12:08:29.374Z</time></trkpt><trkpt lat="33.8870833" lon="7.9580833"><ele>132.0</ele><time>2026-04-23T12:08:30.373Z</time></trkpt><trkpt lat="33.88702" lon="7.9578033"><ele>132.0</ele><time>2026-04-23T12:08:31.373Z</time></trkpt><trkpt lat="33.8869617" lon="7.95753"><ele>132.0</ele><time>2026-04-23T12:08:32.373Z</time></trkpt><trkpt lat="33.8869017" lon="7.9572567"><ele>132.0</ele><time>2026-04-23T12:08:33.373Z</time></trkpt><trkpt lat="33.88684" lon="7.9569833"><ele>132.0</ele><time>2026-04-23T12:08:34.374Z</time></trkpt><trkpt lat="33.8867833" lon="7.9567117"><ele>132.0</ele><time>2026-04-23T12:08:35.373Z</time></trkpt><trkpt lat="33.886725" lon="7.9564417"><ele>131.0</ele><time>2026-04-23T12:08:36.373Z</time></trkpt><trkpt lat="33.8866683" lon="7.95617"><ele>130.0</ele><time>2026-04-23T12:08:37.373Z</time></trkpt><trkpt lat="33.8866067" lon="7.9558983"><ele>130.5</ele><time>2026-04-23T12:08:38.374Z</time></trkpt><trkpt lat="33.88655" lon="7.955625"><ele>131.0</ele><time>2026-04-23T12:08:39.373Z</time></trkpt><trkpt lat="33.886495" lon="7.9553483"><ele>131.0</ele><time>2026-04-23T12:08:40.373Z</time></trkpt><trkpt lat="33.8864317" lon="7.95507"><ele>131.0</ele><time>2026-04-23T12:08:41.373Z</time></trkpt><trkpt lat="33.88637" lon="7.954795"><ele>131.0</ele><time>2026-04-23T12:08:42.374Z</time></trkpt><trkpt lat="33.8863083" lon="7.9545133"><ele>131.0</ele><time>2026-04-23T12:08:43.374Z</time></trkpt><trkpt lat="33.8862467" lon="7.9542333"><ele>131.5</ele><time>2026-04-23T12:08:44.374Z</time></trkpt><trkpt lat="33.8861833" lon="7.95395"><ele>132.0</ele><time>2026-04-23T12:08:45.374Z</time></trkpt><trkpt lat="33.8861217" lon="7.9536633"><ele>132.0</ele><time>2026-04-23T12:08:46.374Z</time></trkpt><trkpt lat="33.88606" lon="7.9533783"><ele>132.0</ele><time>2026-04-23T12:08:47.373Z</time></trkpt><trkpt lat="33.886005" lon="7.9530917"><ele>131.0</ele><time>2026-04-23T12:08:48.374Z</time></trkpt><trkpt lat="33.88595" lon="7.9528083"><ele>130.0</ele><time>2026-04-23T12:08:49.373Z</time></trkpt><trkpt lat="33.8858883" lon="7.9525283"><ele>127.0</ele><time>2026-04-23T12:08:50.374Z</time></trkpt><trkpt lat="33.8858333" lon="7.95225"><ele>124.0</ele><time>2026-04-23T12:08:51.373Z</time></trkpt><trkpt lat="33.8857733" lon="7.95197"><ele>124.5</ele><time>2026-04-23T12:08:52.373Z</time></trkpt><trkpt lat="33.8857133" lon="7.951695"><ele>125.0</ele><time>2026-04-23T12:08:53.373Z</time></trkpt><trkpt lat="33.885655" lon="7.9514183"><ele>125.0</ele><time>2026-04-23T12:08:54.373Z</time></trkpt><trkpt lat="33.8855967" lon="7.9511383"><ele>125.0</ele><time>2026-04-23T12:08:55.374Z</time></trkpt><trkpt lat="33.8855317" lon="7.950855"><ele>125.5</ele><time>2026-04-23T12:08:56.374Z</time></trkpt><trkpt lat="33.8854683" lon="7.9505783"><ele>126.0</ele><time>2026-04-23T12:08:57.374Z</time></trkpt><trkpt lat="33.885405" lon="7.9503"><ele>126.0</ele><time>2026-04-23T12:08:58.374Z</time></trkpt><trkpt lat="33.8853517" lon="7.950015"><ele>126.0</ele><time>2026-04-23T12:08:59.373Z</time></trkpt><trkpt lat="33.8852933" lon="7.9497333"><ele>126.0</ele><time>2026-04-23T12:09:00.373Z</time></trkpt><trkpt lat="33.88523" lon="7.9494483"><ele>126.0</ele><time>2026-04-23T12:09:01.374Z</time></trkpt><trkpt lat="33.8851667" lon="7.9491683"><ele>126.0</ele><time>2026-04-23T12:09:02.373Z</time></trkpt><trkpt lat="33.8851033" lon="7.9488833"><ele>126.0</ele><time>2026-04-23T12:09:03.374Z</time></trkpt><trkpt lat="33.885045" lon="7.9486"><ele>127.0</ele><time>2026-04-23T12:09:04.374Z</time></trkpt><trkpt lat="33.884985" lon="7.94832"><ele>128.0</ele><time>2026-04-23T12:09:05.373Z</time></trkpt><trkpt lat="33.8849233" lon="7.9480467"><ele>128.0</ele><time>2026-04-23T12:09:06.374Z</time></trkpt><trkpt lat="33.884865" lon="7.9477667"><ele>128.0</ele><time>2026-04-23T12:09:07.373Z</time></trkpt><trkpt lat="33.884805" lon="7.9474833"><ele>128.0</ele><time>2026-04-23T12:09:08.373Z</time></trkpt><trkpt lat="33.8847483" lon="7.9471983"><ele>128.0</ele><time>2026-04-23T12:09:09.373Z</time></trkpt><trkpt lat="33.88469" lon="7.946915"><ele>128.0</ele><time>2026-04-23T12:09:10.373Z</time></trkpt><trkpt lat="33.8846283" lon="7.946635"><ele>128.0</ele><time>2026-04-23T12:09:11.373Z</time></trkpt><trkpt lat="33.8845633" lon="7.9463567"><ele>128.0</ele><time>2026-04-23T12:09:12.373Z</time></trkpt><trkpt lat="33.8844983" lon="7.9460767"><ele>128.0</ele><time>2026-04-23T12:09:13.374Z</time></trkpt><trkpt lat="33.884435" lon="7.9457983"><ele>127.5</ele><time>2026-04-23T12:09:14.373Z</time></trkpt><trkpt lat="33.884375" lon="7.94552"><ele>127.0</ele><time>2026-04-23T12:09:15.373Z</time></trkpt><trkpt lat="33.884315" lon="7.945245"><ele>125.0</ele><time>2026-04-23T12:09:16.373Z</time></trkpt><trkpt lat="33.884255" lon="7.9449733"><ele>123.0</ele><time>2026-04-23T12:09:17.373Z</time></trkpt><trkpt lat="33.8841933" lon="7.9447"><ele>123.0</ele><time>2026-04-23T12:09:18.374Z</time></trkpt><trkpt lat="33.8841383" lon="7.9444283"><ele>123.0</ele><time>2026-04-23T12:09:19.374Z</time></trkpt><trkpt lat="33.88408" lon="7.9441583"><ele>123.5</ele><time>2026-04-23T12:09:20.374Z</time></trkpt><trkpt lat="33.884025" lon="7.9438783"><ele>124.0</ele><time>2026-04-23T12:09:21.374Z</time></trkpt><trkpt lat="33.8839667" lon="7.943595"><ele>124.5</ele><time>2026-04-23T12:09:22.373Z</time></trkpt><trkpt lat="33.8839033" lon="7.94332"><ele>125.0</ele><time>2026-04-23T12:09:23.374Z</time></trkpt><trkpt lat="33.88384" lon="7.9430417"><ele>125.0</ele><time>2026-04-23T12:09:24.373Z</time></trkpt><trkpt lat="33.8837833" lon="7.9427667"><ele>125.0</ele><time>2026-04-23T12:09:25.373Z</time></trkpt><trkpt lat="33.8837217" lon="7.9424967"><ele>125.0</ele><time>2026-04-23T12:09:26.374Z</time></trkpt><trkpt lat="33.883665" lon="7.94222"><ele>125.0</ele><time>2026-04-23T12:09:27.374Z</time></trkpt><trkpt lat="33.8836017" lon="7.9419433"><ele>123.5</ele><time>2026-04-23T12:09:28.374Z</time></trkpt><trkpt lat="33.88354" lon="7.941665"><ele>122.0</ele><time>2026-04-23T12:09:29.373Z</time></trkpt><trkpt lat="33.8834867" lon="7.94139"><ele>122.0</ele><time>2026-04-23T12:09:30.373Z</time></trkpt><trkpt lat="33.8834333" lon="7.9411167"><ele>122.0</ele><time>2026-04-23T12:09:31.373Z</time></trkpt><trkpt lat="33.8833783" lon="7.9408317"><ele>121.0</ele><time>2026-04-23T12:09:32.374Z</time></trkpt><trkpt lat="33.8833183" lon="7.9405517"><ele>120.0</ele><time>2026-04-23T12:09:33.373Z</time></trkpt><trkpt lat="33.8832567" lon="7.94027"><ele>120.0</ele><time>2026-04-23T12:09:34.373Z</time></trkpt><trkpt lat="33.8831917" lon="7.9399867"><ele>120.0</ele><time>2026-04-23T12:09:35.373Z</time></trkpt><trkpt lat="33.8831267" lon="7.9397067"><ele>120.0</ele><time>2026-04-23T12:09:36.373Z</time></trkpt><trkpt lat="33.883065" lon="7.939425"><ele>120.0</ele><time>2026-04-23T12:09:37.374Z</time></trkpt><trkpt lat="33.8830033" lon="7.9391467"><ele>119.5</ele><time>2026-04-23T12:09:38.373Z</time></trkpt><trkpt lat="33.8829433" lon="7.9388583"><ele>119.0</ele><time>2026-04-23T12:09:39.373Z</time></trkpt><trkpt lat="33.8828783" lon="7.9385683"><ele>119.0</ele><time>2026-04-23T12:09:40.373Z</time></trkpt><trkpt lat="33.8828133" lon="7.9382783"><ele>119.0</ele><time>2026-04-23T12:09:41.374Z</time></trkpt><trkpt lat="33.882755" lon="7.9379933"><ele>119.0</ele><time>2026-04-23T12:09:42.373Z</time></trkpt><trkpt lat="33.8826967" lon="7.9377067"><ele>119.0</ele><time>2026-04-23T12:09:43.374Z</time></trkpt><trkpt lat="33.8826333" lon="7.937425"><ele>117.0</ele><time>2026-04-23T12:09:44.373Z</time></trkpt><trkpt lat="33.88257" lon="7.9371433"><ele>115.0</ele><time>2026-04-23T12:09:45.374Z</time></trkpt><trkpt lat="33.8825083" lon="7.93687"><ele>114.5</ele><time>2026-04-23T12:09:46.373Z</time></trkpt><trkpt lat="33.8824517" lon="7.9365833"><ele>114.0</ele><time>2026-04-23T12:09:47.373Z</time></trkpt><trkpt lat="33.8823967" lon="7.9362967"><ele>114.0</ele><time>2026-04-23T12:09:48.374Z</time></trkpt><trkpt lat="33.8823283" lon="7.9360067"><ele>114.0</ele><time>2026-04-23T12:09:49.374Z</time></trkpt><trkpt lat="33.88226" lon="7.9357267"><ele>112.5</ele><time>2026-04-23T12:09:50.374Z</time></trkpt><trkpt lat="33.8821967" lon="7.9354433"><ele>111.0</ele><time>2026-04-23T12:09:51.374Z</time></trkpt><trkpt lat="33.8821383" lon="7.9351633"><ele>111.0</ele><time>2026-04-23T12:09:52.373Z</time></trkpt><trkpt lat="33.8820833" lon="7.9348833"><ele>111.0</ele><time>2026-04-23T12:09:53.373Z</time></trkpt><trkpt lat="33.8820233" lon="7.934605"><ele>111.0</ele><time>2026-04-23T12:09:54.373Z</time></trkpt><trkpt lat="33.881965" lon="7.9343167"><ele>111.0</ele><time>2026-04-23T12:09:55.374Z</time></trkpt><trkpt lat="33.8819083" lon="7.9340317"><ele>110.5</ele><time>2026-04-23T12:09:56.374Z</time></trkpt><trkpt lat="33.8818517" lon="7.9337483"><ele>110.0</ele><time>2026-04-23T12:09:57.373Z</time></trkpt><trkpt lat="33.881785" lon="7.9334633"><ele>110.0</ele><time>2026-04-23T12:09:58.374Z</time></trkpt><trkpt lat="33.881725" lon="7.9331817"><ele>110.0</ele><time>2026-04-23T12:09:59.373Z</time></trkpt><trkpt lat="33.8816633" lon="7.9329017"><ele>110.0</ele><time>2026-04-23T12:10:00.373Z</time></trkpt><trkpt lat="33.8815983" lon="7.9326167"><ele>110.0</ele><time>2026-04-23T12:10:01.373Z</time></trkpt><trkpt lat="33.8815333" lon="7.9323317"><ele>110.0</ele><time>2026-04-23T12:10:02.373Z</time></trkpt><trkpt lat="33.8814717" lon="7.93205"><ele>110.0</ele><time>2026-04-23T12:10:03.374Z</time></trkpt><trkpt lat="33.8814083" lon="7.9317617"><ele>110.0</ele><time>2026-04-23T12:10:04.374Z</time></trkpt><trkpt lat="33.8813467" lon="7.931475"><ele>110.0</ele><time>2026-04-23T12:10:05.374Z</time></trkpt><trkpt lat="33.881285" lon="7.9311867"><ele>110.0</ele><time>2026-04-23T12:10:06.373Z</time></trkpt><trkpt lat="33.8812233" lon="7.930895"><ele>110.0</ele><time>2026-04-23T12:10:07.373Z</time></trkpt><trkpt lat="33.8811633" lon="7.9306033"><ele>110.5</ele><time>2026-04-23T12:10:08.373Z</time></trkpt><trkpt lat="33.8811033" lon="7.9303083"><ele>111.0</ele><time>2026-04-23T12:10:09.374Z</time></trkpt><trkpt lat="33.88104" lon="7.93002"><ele>111.0</ele><time>2026-04-23T12:10:10.374Z</time></trkpt><trkpt lat="33.8809767" lon="7.92974"><ele>111.0</ele><time>2026-04-23T12:10:11.374Z</time></trkpt><trkpt lat="33.8809167" lon="7.9294517"><ele>110.5</ele><time>2026-04-23T12:10:12.373Z</time></trkpt><trkpt lat="33.88086" lon="7.9291667"><ele>110.0</ele><time>2026-04-23T12:10:13.374Z</time></trkpt><trkpt lat="33.8808017" lon="7.9288767"><ele>110.0</ele><time>2026-04-23T12:10:14.373Z</time></trkpt><trkpt lat="33.88074" lon="7.92859"><ele>110.0</ele><time>2026-04-23T12:10:15.374Z</time></trkpt><trkpt lat="33.8806767" lon="7.928305"><ele>110.0</ele><time>2026-04-23T12:10:16.374Z</time></trkpt><trkpt lat="33.8806167" lon="7.9280183"><ele>110.0</ele><time>2026-04-23T12:10:17.373Z</time></trkpt><trkpt lat="33.8805533" lon="7.927735"><ele>110.0</ele><time>2026-04-23T12:10:18.373Z</time></trkpt><trkpt lat="33.8804917" lon="7.9274567"><ele>110.0</ele><time>2026-04-23T12:10:19.374Z</time></trkpt><trkpt lat="33.880435" lon="7.9271783"><ele>110.0</ele><time>2026-04-23T12:10:20.374Z</time></trkpt><trkpt lat="33.880375" lon="7.9268883"><ele>110.0</ele><time>2026-04-23T12:10:21.373Z</time></trkpt><trkpt lat="33.880315" lon="7.9266117"><ele>108.5</ele><time>2026-04-23T12:10:22.374Z</time></trkpt><trkpt lat="33.8802517" lon="7.92633"><ele>107.0</ele><time>2026-04-23T12:10:23.374Z</time></trkpt><trkpt lat="33.8801867" lon="7.9260517"><ele>106.5</ele><time>2026-04-23T12:10:24.374Z</time></trkpt><trkpt lat="33.8801283" lon="7.9257667"><ele>106.0</ele><time>2026-04-23T12:10:25.373Z</time></trkpt><trkpt lat="33.8800667" lon="7.9254733"><ele>105.0</ele><time>2026-04-23T12:10:26.373Z</time></trkpt><trkpt lat="33.8800017" lon="7.92519"><ele>104.0</ele><time>2026-04-23T12:10:27.373Z</time></trkpt><trkpt lat="33.87994" lon="7.9249117"><ele>103.5</ele><time>2026-04-23T12:10:28.373Z</time></trkpt><trkpt lat="33.8798817" lon="7.9246283"><ele>103.0</ele><time>2026-04-23T12:10:29.373Z</time></trkpt><trkpt lat="33.8798133" lon="7.924345"><ele>103.0</ele><time>2026-04-23T12:10:30.373Z</time></trkpt><trkpt lat="33.8797533" lon="7.9240617"><ele>103.0</ele><time>2026-04-23T12:10:31.372Z</time></trkpt><trkpt lat="33.8796883" lon="7.92378"><ele>103.0</ele><time>2026-04-23T12:10:32.372Z</time></trkpt><trkpt lat="33.879625" lon="7.9234967"><ele>103.0</ele><time>2026-04-23T12:10:33.373Z</time></trkpt><trkpt lat="33.8795633" lon="7.9232167"><ele>102.0</ele><time>2026-04-23T12:10:34.372Z</time></trkpt><trkpt lat="33.8795017" lon="7.9229333"><ele>101.0</ele><time>2026-04-23T12:10:35.372Z</time></trkpt><trkpt lat="33.879445" lon="7.92265"><ele>102.5</ele><time>2026-04-23T12:10:36.373Z</time></trkpt><trkpt lat="33.879385" lon="7.9223633"><ele>104.0</ele><time>2026-04-23T12:10:37.372Z</time></trkpt><trkpt lat="33.8793233" lon="7.922075"><ele>104.0</ele><time>2026-04-23T12:10:38.373Z</time></trkpt><trkpt lat="33.8792633" lon="7.9217883"><ele>104.0</ele><time>2026-04-23T12:10:39.372Z</time></trkpt><trkpt lat="33.8792017" lon="7.9215017"><ele>104.5</ele><time>2026-04-23T12:10:40.373Z</time></trkpt><trkpt lat="33.8791367" lon="7.9212167"><ele>105.0</ele><time>2026-04-23T12:10:41.372Z</time></trkpt><trkpt lat="33.879075" lon="7.92093"><ele>104.0</ele><time>2026-04-23T12:10:42.372Z</time></trkpt><trkpt lat="33.879015" lon="7.920645"><ele>103.0</ele><time>2026-04-23T12:10:43.373Z</time></trkpt><trkpt lat="33.87895" lon="7.9203617"><ele>103.0</ele><time>2026-04-23T12:10:44.373Z</time></trkpt><trkpt lat="33.8788867" lon="7.9200733"><ele>103.0</ele><time>2026-04-23T12:10:45.373Z</time></trkpt><trkpt lat="33.8788233" lon="7.919785"><ele>102.5</ele><time>2026-04-23T12:10:46.372Z</time></trkpt><trkpt lat="33.8787683" lon="7.919495"><ele>102.0</ele><time>2026-04-23T12:10:47.373Z</time></trkpt><trkpt lat="33.8787067" lon="7.9192083"><ele>101.5</ele><time>2026-04-23T12:10:48.373Z</time></trkpt><trkpt lat="33.8786467" lon="7.9189167"><ele>101.0</ele><time>2026-04-23T12:10:49.372Z</time></trkpt><trkpt lat="33.8785817" lon="7.9186333"><ele>101.0</ele><time>2026-04-23T12:10:50.372Z</time></trkpt><trkpt lat="33.8785183" lon="7.918345"><ele>101.0</ele><time>2026-04-23T12:10:51.372Z</time></trkpt><trkpt lat="33.878455" lon="7.91806"><ele>100.0</ele><time>2026-04-23T12:10:52.373Z</time></trkpt><trkpt lat="33.8783883" lon="7.9177667"><ele>99.0</ele><time>2026-04-23T12:10:53.373Z</time></trkpt><trkpt lat="33.8783267" lon="7.9174833"><ele>98.5</ele><time>2026-04-23T12:10:54.372Z</time></trkpt><trkpt lat="33.8782683" lon="7.9171967"><ele>98.0</ele><time>2026-04-23T12:10:55.372Z</time></trkpt><trkpt lat="33.8782067" lon="7.9169083"><ele>97.5</ele><time>2026-04-23T12:10:56.372Z</time></trkpt><trkpt lat="33.8781467" lon="7.91662"><ele>97.0</ele><time>2026-04-23T12:10:57.372Z</time></trkpt><trkpt lat="33.878085" lon="7.91633"><ele>97.0</ele><time>2026-04-23T12:10:58.373Z</time></trkpt><trkpt lat="33.878025" lon="7.9160367"><ele>97.0</ele><time>2026-04-23T12:10:59.372Z</time></trkpt><trkpt lat="33.8779633" lon="7.9157433"><ele>97.0</ele><time>2026-04-23T12:11:00.372Z</time></trkpt><trkpt lat="33.8779033" lon="7.91545"><ele>97.0</ele><time>2026-04-23T12:11:01.372Z</time></trkpt><trkpt lat="33.8778333" lon="7.915165"><ele>96.5</ele><time>2026-04-23T12:11:02.372Z</time></trkpt><trkpt lat="33.8777667" lon="7.914875"><ele>96.0</ele><time>2026-04-23T12:11:03.372Z</time></trkpt><trkpt lat="33.8777017" lon="7.9145883"><ele>96.0</ele><time>2026-04-23T12:11:04.373Z</time></trkpt><trkpt lat="33.8776383" lon="7.9143"><ele>96.0</ele><time>2026-04-23T12:11:05.373Z</time></trkpt><trkpt lat="33.8775733" lon="7.9140117"><ele>96.0</ele><time>2026-04-23T12:11:06.373Z</time></trkpt><trkpt lat="33.87751" lon="7.9137267"><ele>96.0</ele><time>2026-04-23T12:11:07.373Z</time></trkpt><trkpt lat="33.8774483" lon="7.9134383"><ele>96.5</ele><time>2026-04-23T12:11:08.372Z</time></trkpt><trkpt lat="33.8773867" lon="7.9131583"><ele>97.0</ele><time>2026-04-23T12:11:09.372Z</time></trkpt><trkpt lat="33.877325" lon="7.912875"><ele>97.0</ele><time>2026-04-23T12:11:10.372Z</time></trkpt><trkpt lat="33.8772583" lon="7.9125933"><ele>97.0</ele><time>2026-04-23T12:11:11.373Z</time></trkpt><trkpt lat="33.8772033" lon="7.9123083"><ele>96.0</ele><time>2026-04-23T12:11:12.373Z</time></trkpt><trkpt lat="33.8771483" lon="7.9120283"><ele>95.0</ele><time>2026-04-23T12:11:13.372Z</time></trkpt><trkpt lat="33.8770867" lon="7.9117433"><ele>96.0</ele><time>2026-04-23T12:11:14.373Z</time></trkpt><trkpt lat="33.877025" lon="7.9114567"><ele>97.0</ele><time>2026-04-23T12:11:15.373Z</time></trkpt><trkpt lat="33.876965" lon="7.9111767"><ele>96.0</ele><time>2026-04-23T12:11:16.372Z</time></trkpt><trkpt lat="33.8769033" lon="7.9109"><ele>95.0</ele><time>2026-04-23T12:11:17.373Z</time></trkpt><trkpt lat="33.8768433" lon="7.9106217"><ele>95.0</ele><time>2026-04-23T12:11:18.373Z</time></trkpt><trkpt lat="33.87679" lon="7.9103467"><ele>95.0</ele><time>2026-04-23T12:11:19.373Z</time></trkpt><trkpt lat="33.8767267" lon="7.910065"><ele>94.5</ele><time>2026-04-23T12:11:20.372Z</time></trkpt><trkpt lat="33.87667" lon="7.909785"><ele>94.0</ele><time>2026-04-23T12:11:21.373Z</time></trkpt><trkpt lat="33.87661" lon="7.9095017"><ele>95.0</ele><time>2026-04-23T12:11:22.372Z</time></trkpt><trkpt lat="33.87655" lon="7.9092267"><ele>96.0</ele><time>2026-04-23T12:11:23.373Z</time></trkpt><trkpt lat="33.8764883" lon="7.9089533"><ele>96.0</ele><time>2026-04-23T12:11:24.372Z</time></trkpt><trkpt lat="33.876425" lon="7.90867"><ele>96.0</ele><time>2026-04-23T12:11:25.372Z</time></trkpt><trkpt lat="33.87637" lon="7.9083833"><ele>95.0</ele><time>2026-04-23T12:11:26.373Z</time></trkpt><trkpt lat="33.8763117" lon="7.9081067"><ele>94.0</ele><time>2026-04-23T12:11:27.372Z</time></trkpt><trkpt lat="33.8762517" lon="7.9078283"><ele>92.5</ele><time>2026-04-23T12:11:28.372Z</time></trkpt><trkpt lat="33.876185" lon="7.9075533"><ele>91.0</ele><time>2026-04-23T12:11:29.372Z</time></trkpt><trkpt lat="33.87613" lon="7.9072633"><ele>91.0</ele><time>2026-04-23T12:11:30.373Z</time></trkpt><trkpt lat="33.8760733" lon="7.90697"><ele>91.0</ele><time>2026-04-23T12:11:31.373Z</time></trkpt><trkpt lat="33.87601" lon="7.906685"><ele>91.0</ele><time>2026-04-23T12:11:32.373Z</time></trkpt><trkpt lat="33.8759483" lon="7.9064033"><ele>91.0</ele><time>2026-04-23T12:11:33.372Z</time></trkpt><trkpt lat="33.8758817" lon="7.9061283"><ele>89.5</ele><time>2026-04-23T12:11:34.372Z</time></trkpt><trkpt lat="33.8758217" lon="7.9058467"><ele>88.0</ele><time>2026-04-23T12:11:35.372Z</time></trkpt><trkpt lat="33.87576" lon="7.90557"><ele>88.0</ele><time>2026-04-23T12:11:36.372Z</time></trkpt><trkpt lat="33.8757017" lon="7.9052867"><ele>88.0</ele><time>2026-04-23T12:11:37.372Z</time></trkpt><trkpt lat="33.8756433" lon="7.905005"><ele>89.0</ele><time>2026-04-23T12:11:38.373Z</time></trkpt><trkpt lat="33.8755817" lon="7.9047267"><ele>90.0</ele><time>2026-04-23T12:11:39.373Z</time></trkpt><trkpt lat="33.8755283" lon="7.9044467"><ele>90.0</ele><time>2026-04-23T12:11:40.372Z</time></trkpt><trkpt lat="33.8754667" lon="7.9041683"><ele>90.0</ele><time>2026-04-23T12:11:41.373Z</time></trkpt><trkpt lat="33.87541" lon="7.9038917"><ele>90.0</ele><time>2026-04-23T12:11:42.373Z</time></trkpt><trkpt lat="33.875345" lon="7.903615"><ele>90.0</ele><time>2026-04-23T12:11:43.373Z</time></trkpt><trkpt lat="33.8752833" lon="7.9033467"><ele>90.0</ele><time>2026-04-23T12:11:44.372Z</time></trkpt><trkpt lat="33.8752267" lon="7.9030817"><ele>90.0</ele><time>2026-04-23T12:11:45.372Z</time></trkpt><trkpt lat="33.8751733" lon="7.9028367"><ele>90.0</ele><time>2026-04-23T12:11:46.372Z</time></trkpt><trkpt lat="33.8751233" lon="7.9026"><ele>88.33333333333333</ele><time>2026-04-23T12:11:47.373Z</time></trkpt><trkpt lat="33.8750783" lon="7.9023783"><ele>86.66666666666666</ele><time>2026-04-23T12:11:48.372Z</time></trkpt><trkpt lat="33.8750267" lon="7.9021717"><ele>85.0</ele><time>2026-04-23T12:11:49.373Z</time></trkpt><trkpt lat="33.8749817" lon="7.90196"><ele>85.0</ele><time>2026-04-23T12:11:50.373Z</time></trkpt><trkpt lat="33.8749433" lon="7.901755"><ele>85.0</ele><time>2026-04-23T12:11:51.372Z</time></trkpt><trkpt lat="33.8749017" lon="7.9015517"><ele>85.0</ele><time>2026-04-23T12:11:52.373Z</time></trkpt><trkpt lat="33.87486" lon="7.9013517"><ele>85.0</ele><time>2026-04-23T12:11:53.372Z</time></trkpt><trkpt lat="33.8748133" lon="7.9011483"><ele>85.0</ele><time>2026-04-23T12:11:54.373Z</time></trkpt><trkpt lat="33.8747717" lon="7.9009433"><ele>85.0</ele><time>2026-04-23T12:11:55.373Z</time></trkpt><trkpt lat="33.8747283" lon="7.90074"><ele>85.0</ele><time>2026-04-23T12:11:56.372Z</time></trkpt><trkpt lat="33.8746917" lon="7.9005383"><ele>85.0</ele><time>2026-04-23T12:11:57.372Z</time></trkpt><trkpt lat="33.8746483" lon="7.90034"><ele>85.0</ele><time>2026-04-23T12:11:58.372Z</time></trkpt><trkpt lat="33.8746033" lon="7.9001417"><ele>85.33333333333333</ele><time>2026-04-23T12:11:59.372Z</time></trkpt><trkpt lat="33.8745583" lon="7.8999433"><ele>85.66666666666667</ele><time>2026-04-23T12:12:00.372Z</time></trkpt><trkpt lat="33.87451" lon="7.8997483"><ele>86.0</ele><time>2026-04-23T12:12:01.373Z</time></trkpt><trkpt lat="33.874465" lon="7.8995517"><ele>86.0</ele><time>2026-04-23T12:12:02.372Z</time></trkpt><trkpt lat="33.87442" lon="7.8993583"><ele>86.0</ele><time>2026-04-23T12:12:03.372Z</time></trkpt><trkpt lat="33.8743733" lon="7.8991617"><ele>86.0</ele><time>2026-04-23T12:12:04.372Z</time></trkpt><trkpt lat="33.8743283" lon="7.8989783"><ele>85.75</ele><time>2026-04-23T12:12:05.373Z</time></trkpt><trkpt lat="33.8742917" lon="7.8988"><ele>85.5</ele><time>2026-04-23T12:12:06.373Z</time></trkpt><trkpt lat="33.8742567" lon="7.89863"><ele>85.25</ele><time>2026-04-23T12:12:07.373Z</time></trkpt><trkpt lat="33.8742183" lon="7.89846"><ele>85.0</ele><time>2026-04-23T12:12:08.372Z</time></trkpt><trkpt lat="33.8741783" lon="7.8982967"><ele>84.25</ele><time>2026-04-23T12:12:09.373Z</time></trkpt><trkpt lat="33.874145" lon="7.8981367"><ele>83.5</ele><time>2026-04-23T12:12:10.373Z</time></trkpt><trkpt lat="33.8741133" lon="7.89797"><ele>82.75</ele><time>2026-04-23T12:12:11.373Z</time></trkpt><trkpt lat="33.87407" lon="7.89782"><ele>82.0</ele><time>2026-04-23T12:12:12.373Z</time></trkpt><trkpt lat="33.8740367" lon="7.8976683"><ele>81.75</ele><time>2026-04-23T12:12:13.372Z</time></trkpt><trkpt lat="33.874" lon="7.8975167"><ele>81.5</ele><time>2026-04-23T12:12:14.372Z</time></trkpt><trkpt lat="33.8739717" lon="7.8973633"><ele>81.25</ele><time>2026-04-23T12:12:15.373Z</time></trkpt><trkpt lat="33.8739517" lon="7.8972067"><ele>81.0</ele><time>2026-04-23T12:12:16.372Z</time></trkpt><trkpt lat="33.8739167" lon="7.8970417"><ele>81.0</ele><time>2026-04-23T12:12:17.372Z</time></trkpt><trkpt lat="33.8738767" lon="7.896885"><ele>81.0</ele><time>2026-04-23T12:12:18.372Z</time></trkpt><trkpt lat="33.8738433" lon="7.896715"><ele>81.0</ele><time>2026-04-23T12:12:19.373Z</time></trkpt><trkpt lat="33.8738117" lon="7.8965517"><ele>81.0</ele><time>2026-04-23T12:12:20.372Z</time></trkpt><trkpt lat="33.8737817" lon="7.896395"><ele>81.19999999999999</ele><time>2026-04-23T12:12:21.373Z</time></trkpt><trkpt lat="33.8737417" lon="7.89626"><ele>81.39999999999999</ele><time>2026-04-23T12:12:22.373Z</time></trkpt><trkpt lat="33.87372" lon="7.8961283"><ele>81.6</ele><time>2026-04-23T12:12:23.373Z</time></trkpt><trkpt lat="33.8736917" lon="7.8960083"><ele>81.8</ele><time>2026-04-23T12:12:24.372Z</time></trkpt><trkpt lat="33.8736717" lon="7.895895"><ele>82.0</ele><time>2026-04-23T12:12:25.372Z</time></trkpt><trkpt lat="33.873645" lon="7.8957783"><ele>82.0</ele><time>2026-04-23T12:12:26.372Z</time></trkpt><trkpt lat="33.8736217" lon="7.895665"><ele>82.0</ele><time>2026-04-23T12:12:27.372Z</time></trkpt><trkpt lat="33.8736" lon="7.8955517"><ele>82.0</ele><time>2026-04-23T12:12:28.373Z</time></trkpt><trkpt lat="33.873585" lon="7.8954517"><ele>82.0</ele><time>2026-04-23T12:12:29.372Z</time></trkpt><trkpt lat="33.8735817" lon="7.8953683"><ele>82.0</ele><time>2026-04-23T12:12:30.372Z</time></trkpt><trkpt lat="33.8736183" lon="7.8952467"><ele>82.0</ele><time>2026-04-23T12:12:32.372Z</time></trkpt><trkpt lat="33.87369" lon="7.895225"><ele>82.0</ele><time>2026-04-23T12:12:35.372Z</time></trkpt><trkpt lat="33.8737583" lon="7.8952233"><ele>82.0</ele><time>2026-04-23T12:12:38.373Z</time></trkpt><trkpt lat="33.8738767" lon="7.8951333"><ele>82.0</ele><time>2026-04-23T12:17:02.372Z</time></trkpt><trkpt lat="33.873815" lon="7.895055"><ele>82.0</ele><time>2026-04-23T12:39:47.364Z</time></trkpt><trkpt lat="33.8737467" lon="7.8950083"><ele>81.19999999999999</ele><time>2026-04-23T12:39:49.365Z</time></trkpt><trkpt lat="33.8736617" lon="7.89496"><ele>80.39999999999999</ele><time>2026-04-23T12:39:51.365Z</time></trkpt><trkpt lat="33.8735833" lon="7.8948983"><ele>79.6</ele><time>2026-04-23T12:39:53.365Z</time></trkpt><trkpt lat="33.8735117" lon="7.8948267"><ele>78.8</ele><time>2026-04-23T12:39:55.365Z</time></trkpt><trkpt lat="33.8734517" lon="7.8947567"><ele>78.0</ele><time>2026-04-23T12:39:57.364Z</time></trkpt><trkpt lat="33.8734067" lon="7.894625"><ele>77.5</ele><time>2026-04-23T12:39:59.364Z</time></trkpt><trkpt lat="33.8733867" lon="7.89449"><ele>77.0</ele><time>2026-04-23T12:40:01.365Z</time></trkpt><trkpt lat="33.8733667" lon="7.8943567"><ele>76.5</ele><time>2026-04-23T12:40:03.365Z</time></trkpt><trkpt lat="33.8733333" lon="7.89422"><ele>76.0</ele><time>2026-04-23T12:40:05.364Z</time></trkpt><trkpt lat="33.8733067" lon="7.8940783"><ele>75.5</ele><time>2026-04-23T12:40:07.364Z</time></trkpt><trkpt lat="33.8732933" lon="7.8940033"><ele>75.0</ele><time>2026-04-23T12:40:08.364Z</time></trkpt><trkpt lat="33.8732767" lon="7.8939183"><ele>74.5</ele><time>2026-04-23T12:40:09.365Z</time></trkpt><trkpt lat="33.87325" lon="7.8938183"><ele>74.0</ele><time>2026-04-23T12:40:10.364Z</time></trkpt><trkpt lat="33.8732283" lon="7.8937033"><ele>73.5</ele><time>2026-04-23T12:40:11.364Z</time></trkpt><trkpt lat="33.8732017" lon="7.8935917"><ele>73.0</ele><time>2026-04-23T12:40:12.364Z</time></trkpt><trkpt lat="33.87317" lon="7.893485"><ele>72.8</ele><time>2026-04-23T12:40:13.365Z</time></trkpt><trkpt lat="33.8731417" lon="7.8933767"><ele>72.6</ele><time>2026-04-23T12:40:14.365Z</time></trkpt><trkpt lat="33.8731183" lon="7.8932633"><ele>72.4</ele><time>2026-04-23T12:40:15.365Z</time></trkpt><trkpt lat="33.8730933" lon="7.8931467"><ele>72.2</ele><time>2026-04-23T12:40:16.365Z</time></trkpt><trkpt lat="33.8730717" lon="7.89303"><ele>72.0</ele><time>2026-04-23T12:40:17.365Z</time></trkpt><trkpt lat="33.8730383" lon="7.892915"><ele>72.0</ele><time>2026-04-23T12:40:18.364Z</time></trkpt><trkpt lat="33.8730033" lon="7.89279"><ele>72.0</ele><time>2026-04-23T12:40:19.365Z</time></trkpt><trkpt lat="33.8729733" lon="7.89266"><ele>72.0</ele><time>2026-04-23T12:40:20.365Z</time></trkpt><trkpt lat="33.8729533" lon="7.8925233"><ele>72.0</ele><time>2026-04-23T12:40:21.365Z</time></trkpt><trkpt lat="33.8729317" lon="7.892385"><ele>71.75</ele><time>2026-04-23T12:40:22.364Z</time></trkpt><trkpt lat="33.872905" lon="7.892245"><ele>71.5</ele><time>2026-04-23T12:40:23.364Z</time></trkpt><trkpt lat="33.8728767" lon="7.8921"><ele>71.25</ele><time>2026-04-23T12:40:24.364Z</time></trkpt><trkpt lat="33.8728433" lon="7.8919517"><ele>71.0</ele><time>2026-04-23T12:40:25.365Z</time></trkpt><trkpt lat="33.8728083" lon="7.8918"><ele>71.0</ele><time>2026-04-23T12:40:26.365Z</time></trkpt><trkpt lat="33.8727767" lon="7.8916467"><ele>71.0</ele><time>2026-04-23T12:40:27.365Z</time></trkpt><trkpt lat="33.8727467" lon="7.8915"><ele>71.0</ele><time>2026-04-23T12:40:28.364Z</time></trkpt><trkpt lat="33.8727267" lon="7.8913617"><ele>71.0</ele><time>2026-04-23T12:40:29.365Z</time></trkpt><trkpt lat="33.872705" lon="7.8912217"><ele>71.0</ele><time>2026-04-23T12:40:30.364Z</time></trkpt><trkpt lat="33.8726817" lon="7.8910767"><ele>71.0</ele><time>2026-04-23T12:40:31.365Z</time></trkpt><trkpt lat="33.872665" lon="7.89093"><ele>71.0</ele><time>2026-04-23T12:40:32.364Z</time></trkpt><trkpt lat="33.8726567" lon="7.8907817"><ele>71.0</ele><time>2026-04-23T12:40:33.364Z</time></trkpt><trkpt lat="33.87266" lon="7.8906333"><ele>71.0</ele><time>2026-04-23T12:40:34.364Z</time></trkpt><trkpt lat="33.872665" lon="7.8904917"><ele>71.0</ele><time>2026-04-23T12:40:35.364Z</time></trkpt><trkpt lat="33.87265" lon="7.8903533"><ele>71.0</ele><time>2026-04-23T12:40:36.365Z</time></trkpt><trkpt lat="33.87265" lon="7.8902083"><ele>71.0</ele><time>2026-04-23T12:40:37.365Z</time></trkpt><trkpt lat="33.8726467" lon="7.8900683"><ele>71.0</ele><time>2026-04-23T12:40:38.364Z</time></trkpt><trkpt lat="33.87265" lon="7.8899233"><ele>71.0</ele><time>2026-04-23T12:40:39.364Z</time></trkpt><trkpt lat="33.8726567" lon="7.8897783"><ele>71.0</ele><time>2026-04-23T12:40:40.365Z</time></trkpt><trkpt lat="33.8726533" lon="7.8896317"><ele>71.0</ele><time>2026-04-23T12:40:41.365Z</time></trkpt><trkpt lat="33.872655" lon="7.88948"><ele>71.0</ele><time>2026-04-23T12:40:42.365Z</time></trkpt><trkpt lat="33.872655" lon="7.8893283"><ele>71.0</ele><time>2026-04-23T12:40:43.365Z</time></trkpt><trkpt lat="33.872655" lon="7.8891833"><ele>71.0</ele><time>2026-04-23T12:40:44.365Z</time></trkpt><trkpt lat="33.8726667" lon="7.88903"><ele>71.0</ele><time>2026-04-23T12:40:45.365Z</time></trkpt><trkpt lat="33.872665" lon="7.8888883"><ele>70.83333333333334</ele><time>2026-04-23T12:40:46.365Z</time></trkpt><trkpt lat="33.872665" lon="7.8887683"><ele>70.66666666666667</ele><time>2026-04-23T12:40:47.365Z</time></trkpt><trkpt lat="33.8726667" lon="7.8886683"><ele>70.5</ele><time>2026-04-23T12:40:48.364Z</time></trkpt><trkpt lat="33.8726683" lon="7.8885833"><ele>70.33333333333333</ele><time>2026-04-23T12:40:49.365Z</time></trkpt><trkpt lat="33.8726717" lon="7.8884967"><ele>70.16666666666666</ele><time>2026-04-23T12:40:50.364Z</time></trkpt><trkpt lat="33.87268" lon="7.8884033"><ele>70.0</ele><time>2026-04-23T12:40:51.365Z</time></trkpt><trkpt lat="33.8726817" lon="7.8883083"><ele>69.66666666666666</ele><time>2026-04-23T12:40:52.365Z</time></trkpt><trkpt lat="33.8726783" lon="7.8882133"><ele>69.33333333333333</ele><time>2026-04-23T12:40:53.364Z</time></trkpt><trkpt lat="33.87267" lon="7.888105"><ele>69.0</ele><time>2026-04-23T12:40:54.364Z</time></trkpt><trkpt lat="33.872665" lon="7.8879967"><ele>68.66666666666667</ele><time>2026-04-23T12:40:55.364Z</time></trkpt><trkpt lat="33.872675" lon="7.8878933"><ele>68.33333333333334</ele><time>2026-04-23T12:40:56.364Z</time></trkpt><trkpt lat="33.8726833" lon="7.8877883"><ele>68.0</ele><time>2026-04-23T12:40:57.364Z</time></trkpt><trkpt lat="33.87269" lon="7.88769"><ele>68.0</ele><time>2026-04-23T12:40:58.364Z</time></trkpt><trkpt lat="33.8726967" lon="7.8875867"><ele>68.0</ele><time>2026-04-23T12:40:59.364Z</time></trkpt><trkpt lat="33.8727067" lon="7.8874933"><ele>68.0</ele><time>2026-04-23T12:41:00.365Z</time></trkpt><trkpt lat="33.872715" lon="7.887385"><ele>68.0</ele><time>2026-04-23T12:41:01.365Z</time></trkpt><trkpt lat="33.87272" lon="7.8872733"><ele>68.0</ele><time>2026-04-23T12:41:02.364Z</time></trkpt><trkpt lat="33.872725" lon="7.8871667"><ele>68.0</ele><time>2026-04-23T12:41:03.365Z</time></trkpt><trkpt lat="33.8727233" lon="7.8870567"><ele>68.0</ele><time>2026-04-23T12:41:04.364Z</time></trkpt><trkpt lat="33.8727183" lon="7.8869517"><ele>68.0</ele><time>2026-04-23T12:41:05.364Z</time></trkpt><trkpt lat="33.8727183" lon="7.8868433"><ele>68.0</ele><time>2026-04-23T12:41:06.365Z</time></trkpt><trkpt lat="33.872715" lon="7.8867283"><ele>68.0</ele><time>2026-04-23T12:41:07.364Z</time></trkpt><trkpt lat="33.87272" lon="7.8866167"><ele>68.0</ele><time>2026-04-23T12:41:08.365Z</time></trkpt><trkpt lat="33.8727217" lon="7.8865117"><ele>68.33333333333334</ele><time>2026-04-23T12:41:09.364Z</time></trkpt><trkpt lat="33.8727233" lon="7.88641"><ele>68.66666666666667</ele><time>2026-04-23T12:41:10.364Z</time></trkpt><trkpt lat="33.8727267" lon="7.8863067"><ele>69.0</ele><time>2026-04-23T12:41:11.365Z</time></trkpt><trkpt lat="33.8727217" lon="7.8862067"><ele>69.33333333333333</ele><time>2026-04-23T12:41:12.364Z</time></trkpt><trkpt lat="33.8727167" lon="7.886095"><ele>69.66666666666666</ele><time>2026-04-23T12:41:13.365Z</time></trkpt><trkpt lat="33.8727117" lon="7.8859767"><ele>70.0</ele><time>2026-04-23T12:41:14.364Z</time></trkpt><trkpt lat="33.8727083" lon="7.8858583"><ele>70.2</ele><time>2026-04-23T12:41:15.364Z</time></trkpt><trkpt lat="33.872705" lon="7.88574"><ele>70.4</ele><time>2026-04-23T12:41:16.365Z</time></trkpt><trkpt lat="33.87269" lon="7.8856167"><ele>70.6</ele><time>2026-04-23T12:41:17.364Z</time></trkpt><trkpt lat="33.8726767" lon="7.8854933"><ele>70.8</ele><time>2026-04-23T12:41:18.364Z</time></trkpt><trkpt lat="33.8726617" lon="7.88537"><ele>71.0</ele><time>2026-04-23T12:41:19.365Z</time></trkpt><trkpt lat="33.8726517" lon="7.8852383"><ele>71.0</ele><time>2026-04-23T12:41:20.364Z</time></trkpt><trkpt lat="33.872635" lon="7.8851033"><ele>71.0</ele><time>2026-04-23T12:41:21.365Z</time></trkpt><trkpt lat="33.8726183" lon="7.8849683"><ele>71.0</ele><time>2026-04-23T12:41:22.364Z</time></trkpt><trkpt lat="33.8726033" lon="7.8848283"><ele>71.0</ele><time>2026-04-23T12:41:23.364Z</time></trkpt><trkpt lat="33.8725917" lon="7.8847067"><ele>71.0</ele><time>2026-04-23T12:41:24.364Z</time></trkpt><trkpt lat="33.8725783" lon="7.8845833"><ele>70.2</ele><time>2026-04-23T12:41:25.365Z</time></trkpt><trkpt lat="33.872565" lon="7.8844567"><ele>69.39999999999999</ele><time>2026-04-23T12:41:26.365Z</time></trkpt><trkpt lat="33.8725517" lon="7.88433"><ele>68.6</ele><time>2026-04-23T12:41:27.364Z</time></trkpt><trkpt lat="33.8725367" lon="7.8841983"><ele>67.8</ele><time>2026-04-23T12:41:28.364Z</time></trkpt><trkpt lat="33.87252" lon="7.88406"><ele>67.0</ele><time>2026-04-23T12:41:29.365Z</time></trkpt><trkpt lat="33.87251" lon="7.8839283"><ele>66.8</ele><time>2026-04-23T12:41:30.364Z</time></trkpt><trkpt lat="33.8725" lon="7.8837967"><ele>66.6</ele><time>2026-04-23T12:41:31.365Z</time></trkpt><trkpt lat="33.8724933" lon="7.8836667"><ele>66.39999999999999</ele><time>2026-04-23T12:41:32.364Z</time></trkpt><trkpt lat="33.8724783" lon="7.8835367"><ele>66.2</ele><time>2026-04-23T12:41:33.365Z</time></trkpt><trkpt lat="33.8724633" lon="7.8834017"><ele>66.0</ele><time>2026-04-23T12:41:34.364Z</time></trkpt><trkpt lat="33.872445" lon="7.8832783"><ele>65.39999999999999</ele><time>2026-04-23T12:41:35.364Z</time></trkpt><trkpt lat="33.8724283" lon="7.8831633"><ele>64.8</ele><time>2026-04-23T12:41:36.364Z</time></trkpt><trkpt lat="33.872415" lon="7.8830433"><ele>64.19999999999999</ele><time>2026-04-23T12:41:37.365Z</time></trkpt><trkpt lat="33.8723983" lon="7.8829167"><ele>63.599999999999994</ele><time>2026-04-23T12:41:38.364Z</time></trkpt><trkpt lat="33.8723817" lon="7.8827817"><ele>63.0</ele><time>2026-04-23T12:41:39.365Z</time></trkpt><trkpt lat="33.8723633" lon="7.8826467"><ele>62.75</ele><time>2026-04-23T12:41:40.364Z</time></trkpt><trkpt lat="33.8723433" lon="7.882495"><ele>62.5</ele><time>2026-04-23T12:41:41.365Z</time></trkpt><trkpt lat="33.8723267" lon="7.8823417"><ele>62.25</ele><time>2026-04-23T12:41:42.364Z</time></trkpt><trkpt lat="33.8723033" lon="7.8821833"><ele>62.0</ele><time>2026-04-23T12:41:43.365Z</time></trkpt><trkpt lat="33.8722767" lon="7.8820233"><ele>62.0</ele><time>2026-04-23T12:41:44.364Z</time></trkpt><trkpt lat="33.8722483" lon="7.881865"><ele>62.0</ele><time>2026-04-23T12:41:45.365Z</time></trkpt><trkpt lat="33.87223" lon="7.8817083"><ele>62.0</ele><time>2026-04-23T12:41:46.364Z</time></trkpt><trkpt lat="33.8722083" lon="7.88156"><ele>62.0</ele><time>2026-04-23T12:41:47.364Z</time></trkpt><trkpt lat="33.87219" lon="7.8814167"><ele>60.833333333333336</ele><time>2026-04-23T12:41:48.365Z</time></trkpt><trkpt lat="33.8721667" lon="7.8812917"><ele>59.66666666666667</ele><time>2026-04-23T12:41:49.365Z</time></trkpt><trkpt lat="33.8721417" lon="7.8811783"><ele>58.5</ele><time>2026-04-23T12:41:50.365Z</time></trkpt><trkpt lat="33.8721167" lon="7.881085"><ele>57.33333333333333</ele><time>2026-04-23T12:41:51.364Z</time></trkpt><trkpt lat="33.8720917" lon="7.8810117"><ele>56.166666666666664</ele><time>2026-04-23T12:41:52.364Z</time></trkpt><trkpt lat="33.872055" lon="7.8809133"><ele>55.0</ele><time>2026-04-23T12:41:54.364Z</time></trkpt><trkpt lat="33.8720183" lon="7.8808233"><ele>54.75</ele><time>2026-04-23T12:41:56.364Z</time></trkpt><trkpt lat="33.871975" lon="7.8807033"><ele>54.5</ele><time>2026-04-23T12:41:58.365Z</time></trkpt><trkpt lat="33.87191" lon="7.8805717"><ele>54.25</ele><time>2026-04-23T12:42:00.365Z</time></trkpt><trkpt lat="33.8718383" lon="7.8804567"><ele>54.0</ele><time>2026-04-23T12:42:02.364Z</time></trkpt><trkpt lat="33.8717667" lon="7.88033"><ele>54.0</ele><time>2026-04-23T12:42:04.364Z</time></trkpt><trkpt lat="33.8717233" lon="7.8802633"><ele>54.0</ele><time>2026-04-23T12:42:05.364Z</time></trkpt><trkpt lat="33.871675" lon="7.8801917"><ele>54.0</ele><time>2026-04-23T12:42:06.364Z</time></trkpt><trkpt lat="33.8716117" lon="7.880125"><ele>54.0</ele><time>2026-04-23T12:42:07.364Z</time></trkpt><trkpt lat="33.8715467" lon="7.88005"><ele>54.0</ele><time>2026-04-23T12:42:08.363Z</time></trkpt><trkpt lat="33.8714917" lon="7.8799667"><ele>54.0</ele><time>2026-04-23T12:42:09.365Z</time></trkpt><trkpt lat="33.8714217" lon="7.8798767"><ele>54.333333333333336</ele><time>2026-04-23T12:42:10.364Z</time></trkpt><trkpt lat="33.871355" lon="7.8797883"><ele>54.66666666666667</ele><time>2026-04-23T12:42:11.364Z</time></trkpt><trkpt lat="33.8712867" lon="7.8796983"><ele>55.0</ele><time>2026-04-23T12:42:12.365Z</time></trkpt><trkpt lat="33.8712233" lon="7.8796167"><ele>55.333333333333336</ele><time>2026-04-23T12:42:13.364Z</time></trkpt><trkpt lat="33.8711683" lon="7.8795483"><ele>55.66666666666667</ele><time>2026-04-23T12:42:14.364Z</time></trkpt><trkpt lat="33.8711267" lon="7.879485"><ele>56.0</ele><time>2026-04-23T12:42:15.364Z</time></trkpt><trkpt lat="33.871075" lon="7.8793717"><ele>56.833333333333336</ele><time>2026-04-23T12:42:17.364Z</time></trkpt><trkpt lat="33.8710467" lon="7.8792533"><ele>57.66666666666667</ele><time>2026-04-23T12:42:19.364Z</time></trkpt><trkpt lat="33.8710417" lon="7.8791683"><ele>58.5</ele><time>2026-04-23T12:42:20.364Z</time></trkpt><trkpt lat="33.87105" lon="7.879085"><ele>59.33333333333333</ele><time>2026-04-23T12:42:21.364Z</time></trkpt><trkpt lat="33.871065" lon="7.8790033"><ele>60.166666666666664</ele><time>2026-04-23T12:42:22.364Z</time></trkpt><trkpt lat="33.8710983" lon="7.8789217"><ele>61.0</ele><time>2026-04-23T12:42:23.363Z</time></trkpt><trkpt lat="33.8711367" lon="7.8788383"><ele>60.99999999999999</ele><time>2026-04-23T12:42:24.363Z</time></trkpt><trkpt lat="33.8711867" lon="7.8787617"><ele>61.0</ele><time>2026-04-23T12:42:25.364Z</time></trkpt><trkpt lat="33.8712333" lon="7.8786967"><ele>61.0</ele><time>2026-04-23T12:42:26.364Z</time></trkpt><trkpt lat="33.871295" lon="7.87864"><ele>61.0</ele><time>2026-04-23T12:42:27.364Z</time></trkpt><trkpt lat="33.87136" lon="7.87859"><ele>60.99999999999999</ele><time>2026-04-23T12:42:28.364Z</time></trkpt><trkpt lat="33.871425" lon="7.8785433"><ele>61.0</ele><time>2026-04-23T12:42:29.363Z</time></trkpt><trkpt lat="33.871495" lon="7.87848"><ele>61.0</ele><time>2026-04-23T12:42:30.363Z</time></trkpt><trkpt lat="33.8715683" lon="7.8784167"><ele>60.99999999999999</ele><time>2026-04-23T12:42:31.364Z</time></trkpt><trkpt lat="33.8716383" lon="7.878345"><ele>60.99999999999999</ele><time>2026-04-23T12:42:32.364Z</time></trkpt><trkpt lat="33.8717067" lon="7.8782667"><ele>61.0</ele><time>2026-04-23T12:42:33.364Z</time></trkpt><trkpt lat="33.871775" lon="7.8781933"><ele>61.0</ele><time>2026-04-23T12:42:34.363Z</time></trkpt><trkpt lat="33.8718533" lon="7.8781133"><ele>61.199999999999996</ele><time>2026-04-23T12:42:35.364Z</time></trkpt><trkpt lat="33.8719267" lon="7.8780383"><ele>61.39999999999999</ele><time>2026-04-23T12:42:36.363Z</time></trkpt><trkpt lat="33.872005" lon="7.8779667"><ele>61.6</ele><time>2026-04-23T12:42:37.363Z</time></trkpt><trkpt lat="33.8720867" lon="7.8778883"><ele>61.8</ele><time>2026-04-23T12:42:38.364Z</time></trkpt><trkpt lat="33.8721617" lon="7.8777967"><ele>62.0</ele><time>2026-04-23T12:42:39.363Z</time></trkpt><trkpt lat="33.872235" lon="7.8776983"><ele>62.00000000000001</ele><time>2026-04-23T12:42:40.363Z</time></trkpt><trkpt lat="33.8722983" lon="7.877605"><ele>62.0</ele><time>2026-04-23T12:42:41.364Z</time></trkpt><trkpt lat="33.872365" lon="7.87752"><ele>62.0</ele><time>2026-04-23T12:42:42.364Z</time></trkpt><trkpt lat="33.872425" lon="7.8774583"><ele>62.0</ele><time>2026-04-23T12:42:43.363Z</time></trkpt><trkpt lat="33.8724817" lon="7.8774067"><ele>62.00000000000001</ele><time>2026-04-23T12:42:44.363Z</time></trkpt><trkpt lat="33.8725317" lon="7.877345"><ele>62.0</ele><time>2026-04-23T12:42:45.364Z</time></trkpt><trkpt lat="33.8725767" lon="7.8772883"><ele>62.333333333333336</ele><time>2026-04-23T12:42:46.364Z</time></trkpt><trkpt lat="33.8726217" lon="7.8772283"><ele>62.66666666666667</ele><time>2026-04-23T12:42:47.364Z</time></trkpt><trkpt lat="33.8726683" lon="7.87717"><ele>63.0</ele><time>2026-04-23T12:42:48.364Z</time></trkpt><trkpt lat="33.87272" lon="7.877035"><ele>63.33333333333333</ele><time>2026-04-23T12:42:50.363Z</time></trkpt><trkpt lat="33.8727317" lon="7.8769533"><ele>63.666666666666664</ele><time>2026-04-23T12:42:51.363Z</time></trkpt><trkpt lat="33.87274" lon="7.87686"><ele>64.0</ele><time>2026-04-23T12:42:52.363Z</time></trkpt><trkpt lat="33.8727517" lon="7.876765"><ele>64.0</ele><time>2026-04-23T12:42:53.364Z</time></trkpt><trkpt lat="33.872765" lon="7.87666"><ele>64.0</ele><time>2026-04-23T12:42:54.363Z</time></trkpt><trkpt lat="33.872775" lon="7.8765467"><ele>64.0</ele><time>2026-04-23T12:42:55.363Z</time></trkpt><trkpt lat="33.8727817" lon="7.87643"><ele>64.0</ele><time>2026-04-23T12:42:56.364Z</time></trkpt><trkpt lat="33.87279" lon="7.876315"><ele>64.0</ele><time>2026-04-23T12:42:57.363Z</time></trkpt><trkpt lat="33.8727967" lon="7.8761933"><ele>64.0</ele><time>2026-04-23T12:42:58.364Z</time></trkpt><trkpt lat="33.8728083" lon="7.876075"><ele>64.0</ele><time>2026-04-23T12:42:59.364Z</time></trkpt><trkpt lat="33.8728283" lon="7.87596"><ele>64.0</ele><time>2026-04-23T12:43:00.363Z</time></trkpt><trkpt lat="33.872855" lon="7.87584"><ele>64.0</ele><time>2026-04-23T12:43:01.364Z</time></trkpt><trkpt lat="33.8728867" lon="7.8757333"><ele>64.0</ele><time>2026-04-23T12:43:02.364Z</time></trkpt><trkpt lat="33.8729217" lon="7.8756283"><ele>64.0</ele><time>2026-04-23T12:43:03.363Z</time></trkpt><trkpt lat="33.872955" lon="7.875525"><ele>64.0</ele><time>2026-04-23T12:43:04.363Z</time></trkpt><trkpt lat="33.8729867" lon="7.8754167"><ele>64.0</ele><time>2026-04-23T12:43:05.364Z</time></trkpt><trkpt lat="33.8730267" lon="7.8753083"><ele>64.0</ele><time>2026-04-23T12:43:06.363Z</time></trkpt><trkpt lat="33.8730617" lon="7.8751933"><ele>64.0</ele><time>2026-04-23T12:43:07.363Z</time></trkpt><trkpt lat="33.8730933" lon="7.8750817"><ele>64.2</ele><time>2026-04-23T12:43:08.364Z</time></trkpt><trkpt lat="33.873135" lon="7.8749733"><ele>64.4</ele><time>2026-04-23T12:43:09.363Z</time></trkpt><trkpt lat="33.8731817" lon="7.874865"><ele>64.6</ele><time>2026-04-23T12:43:10.364Z</time></trkpt><trkpt lat="33.8732167" lon="7.8747517"><ele>64.8</ele><time>2026-04-23T12:43:11.363Z</time></trkpt><trkpt lat="33.8732467" lon="7.8746367"><ele>65.0</ele><time>2026-04-23T12:43:12.364Z</time></trkpt><trkpt lat="33.8732767" lon="7.874515"><ele>65.0</ele><time>2026-04-23T12:43:13.363Z</time></trkpt><trkpt lat="33.8733067" lon="7.8744017"><ele>65.0</ele><time>2026-04-23T12:43:14.363Z</time></trkpt><trkpt lat="33.8733333" lon="7.8742833"><ele>65.0</ele><time>2026-04-23T12:43:15.364Z</time></trkpt><trkpt lat="33.8733533" lon="7.874165"><ele>65.0</ele><time>2026-04-23T12:43:16.364Z</time></trkpt><trkpt lat="33.873365" lon="7.8740433"><ele>65.0</ele><time>2026-04-23T12:43:17.363Z</time></trkpt><trkpt lat="33.8733617" lon="7.873925"><ele>65.2</ele><time>2026-04-23T12:43:18.364Z</time></trkpt><trkpt lat="33.8733533" lon="7.8737983"><ele>65.4</ele><time>2026-04-23T12:43:19.363Z</time></trkpt><trkpt lat="33.8733333" lon="7.8736767"><ele>65.6</ele><time>2026-04-23T12:43:20.364Z</time></trkpt><trkpt lat="33.873315" lon="7.8735583"><ele>65.8</ele><time>2026-04-23T12:43:21.363Z</time></trkpt><trkpt lat="33.8732933" lon="7.8734367"><ele>66.0</ele><time>2026-04-23T12:43:22.363Z</time></trkpt><trkpt lat="33.8732733" lon="7.873315"><ele>66.2</ele><time>2026-04-23T12:43:23.363Z</time></trkpt><trkpt lat="33.8732483" lon="7.8731967"><ele>66.39999999999999</ele><time>2026-04-23T12:43:24.363Z</time></trkpt><trkpt lat="33.8732283" lon="7.87307"><ele>66.6</ele><time>2026-04-23T12:43:25.364Z</time></trkpt><trkpt lat="33.8732033" lon="7.872945"><ele>66.8</ele><time>2026-04-23T12:43:26.364Z</time></trkpt><trkpt lat="33.8731833" lon="7.872815"><ele>67.0</ele><time>2026-04-23T12:43:27.364Z</time></trkpt><trkpt lat="33.87316" lon="7.8726867"><ele>67.0</ele><time>2026-04-23T12:43:28.364Z</time></trkpt><trkpt lat="33.8731283" lon="7.87255"><ele>67.0</ele><time>2026-04-23T12:43:29.364Z</time></trkpt><trkpt lat="33.8730983" lon="7.8724167"><ele>67.0</ele><time>2026-04-23T12:43:30.363Z</time></trkpt><trkpt lat="33.87307" lon="7.8722767"><ele>67.0</ele><time>2026-04-23T12:43:31.363Z</time></trkpt><trkpt lat="33.8730367" lon="7.8721417"><ele>67.0</ele><time>2026-04-23T12:43:32.363Z</time></trkpt><trkpt lat="33.873" lon="7.872005"><ele>67.0</ele><time>2026-04-23T12:43:33.363Z</time></trkpt><trkpt lat="33.872965" lon="7.87188"><ele>67.0</ele><time>2026-04-23T12:43:34.364Z</time></trkpt><trkpt lat="33.8729317" lon="7.87175"><ele>67.0</ele><time>2026-04-23T12:43:35.363Z</time></trkpt><trkpt lat="33.8729033" lon="7.8716183"><ele>67.6</ele><time>2026-04-23T12:43:36.363Z</time></trkpt><trkpt lat="33.8728833" lon="7.8714967"><ele>68.2</ele><time>2026-04-23T12:43:37.363Z</time></trkpt><trkpt lat="33.872865" lon="7.8713767"><ele>68.8</ele><time>2026-04-23T12:43:38.364Z</time></trkpt><trkpt lat="33.87286" lon="7.8712717"><ele>69.4</ele><time>2026-04-23T12:43:39.363Z</time></trkpt><trkpt lat="33.872865" lon="7.87117"><ele>70.0</ele><time>2026-04-23T12:43:40.363Z</time></trkpt><trkpt lat="33.8728717" lon="7.87107"><ele>70.0</ele><time>2026-04-23T12:43:41.363Z</time></trkpt><trkpt lat="33.8728967" lon="7.8709717"><ele>70.0</ele><time>2026-04-23T12:43:42.364Z</time></trkpt><trkpt lat="33.8729283" lon="7.87087"><ele>70.0</ele><time>2026-04-23T12:43:43.363Z</time></trkpt><trkpt lat="33.8729667" lon="7.8707667"><ele>70.0</ele><time>2026-04-23T12:43:44.363Z</time></trkpt><trkpt lat="33.8730083" lon="7.8706617"><ele>70.0</ele><time>2026-04-23T12:43:45.364Z</time></trkpt><trkpt lat="33.8730483" lon="7.8705533"><ele>70.2</ele><time>2026-04-23T12:43:46.363Z</time></trkpt><trkpt lat="33.87309" lon="7.8704483"><ele>70.4</ele><time>2026-04-23T12:43:47.364Z</time></trkpt><trkpt lat="33.8731367" lon="7.8703433"><ele>70.6</ele><time>2026-04-23T12:43:48.363Z</time></trkpt><trkpt lat="33.8731867" lon="7.87024"><ele>70.8</ele><time>2026-04-23T12:43:49.363Z</time></trkpt><trkpt lat="33.8732533" lon="7.8701417"><ele>71.0</ele><time>2026-04-23T12:43:50.364Z</time></trkpt><trkpt lat="33.873325" lon="7.8700417"><ele>71.0</ele><time>2026-04-23T12:43:51.364Z</time></trkpt><trkpt lat="33.8733983" lon="7.869945"><ele>71.0</ele><time>2026-04-23T12:43:52.363Z</time></trkpt><trkpt lat="33.8734733" lon="7.869845"><ele>71.0</ele><time>2026-04-23T12:43:53.364Z</time></trkpt><trkpt lat="33.8735433" lon="7.8697533"><ele>71.0</ele><time>2026-04-23T12:43:54.364Z</time></trkpt><trkpt lat="33.87361" lon="7.8696567"><ele>71.0</ele><time>2026-04-23T12:43:55.363Z</time></trkpt><trkpt lat="33.8736767" lon="7.8695633"><ele>71.6</ele><time>2026-04-23T12:43:56.363Z</time></trkpt><trkpt lat="33.8737417" lon="7.86947"><ele>72.19999999999999</ele><time>2026-04-23T12:43:57.364Z</time></trkpt><trkpt lat="33.8738017" lon="7.8693767"><ele>72.80000000000001</ele><time>2026-04-23T12:43:58.363Z</time></trkpt><trkpt lat="33.8738717" lon="7.869285"><ele>73.4</ele><time>2026-04-23T12:43:59.364Z</time></trkpt><trkpt lat="33.8739433" lon="7.8691917"><ele>74.0</ele><time>2026-04-23T12:44:00.364Z</time></trkpt><trkpt lat="33.87401" lon="7.8691017"><ele>74.0</ele><time>2026-04-23T12:44:01.364Z</time></trkpt><trkpt lat="33.8740867" lon="7.8690167"><ele>74.0</ele><time>2026-04-23T12:44:02.364Z</time></trkpt><trkpt lat="33.8741583" lon="7.868945"><ele>74.0</ele><time>2026-04-23T12:44:03.363Z</time></trkpt><trkpt lat="33.87422" lon="7.8688967"><ele>74.0</ele><time>2026-04-23T12:44:04.363Z</time></trkpt><trkpt lat="33.8742767" lon="7.8688617"><ele>74.0</ele><time>2026-04-23T12:44:05.363Z</time></trkpt><trkpt lat="33.8743533" lon="7.8688233"><ele>74.0</ele><time>2026-04-23T12:44:07.364Z</time></trkpt><trkpt lat="33.8744383" lon="7.8687867"><ele>74.60000000000001</ele><time>2026-04-23T12:44:10.364Z</time></trkpt><trkpt lat="33.8745617" lon="7.86875"><ele>75.2</ele><time>2026-04-23T12:44:12.364Z</time></trkpt><trkpt lat="33.87465" lon="7.8687317"><ele>75.80000000000001</ele><time>2026-04-23T12:44:13.363Z</time></trkpt><trkpt lat="33.8747517" lon="7.868715"><ele>76.4</ele><time>2026-04-23T12:44:14.363Z</time></trkpt><trkpt lat="33.8748567" lon="7.8687"><ele>77.0</ele><time>2026-04-23T12:44:15.364Z</time></trkpt><trkpt lat="33.8749667" lon="7.8686817"><ele>77.0</ele><time>2026-04-23T12:44:16.364Z</time></trkpt><trkpt lat="33.8750783" lon="7.8686717"><ele>77.0</ele><time>2026-04-23T12:44:17.364Z</time></trkpt><trkpt lat="33.8751867" lon="7.8686617"><ele>77.0</ele><time>2026-04-23T12:44:18.364Z</time></trkpt><trkpt lat="33.8752867" lon="7.86866"><ele>77.0</ele><time>2026-04-23T12:44:19.363Z</time></trkpt><trkpt lat="33.8753833" lon="7.8686533"><ele>77.0</ele><time>2026-04-23T12:44:20.363Z</time></trkpt><trkpt lat="33.87548" lon="7.8686433"><ele>77.66666666666667</ele><time>2026-04-23T12:44:21.363Z</time></trkpt><trkpt lat="33.8755683" lon="7.86863"><ele>78.33333333333334</ele><time>2026-04-23T12:44:22.363Z</time></trkpt><trkpt lat="33.87564" lon="7.868635"><ele>79.0</ele><time>2026-04-23T12:44:23.363Z</time></trkpt><trkpt lat="33.8757367" lon="7.8686467"><ele>79.66666666666667</ele><time>2026-04-23T12:44:25.364Z</time></trkpt><trkpt lat="33.8758083" lon="7.8686517"><ele>80.33333333333333</ele><time>2026-04-23T12:44:29.364Z</time></trkpt><trkpt lat="33.87586" lon="7.86858"><ele>81.0</ele><time>2026-04-23T12:44:32.363Z</time></trkpt><trkpt lat="33.875855" lon="7.868495"><ele>80.6</ele><time>2026-04-23T12:44:34.363Z</time></trkpt><trkpt lat="33.875825" lon="7.868345"><ele>80.19999999999999</ele><time>2026-04-23T12:44:36.363Z</time></trkpt><trkpt lat="33.87581" lon="7.8682583"><ele>79.80000000000001</ele><time>2026-04-23T12:44:37.363Z</time></trkpt><trkpt lat="33.87579" lon="7.86816"><ele>79.4</ele><time>2026-04-23T12:44:38.364Z</time></trkpt><trkpt lat="33.8757783" lon="7.8680567"><ele>79.0</ele><time>2026-04-23T12:44:39.364Z</time></trkpt><trkpt lat="33.8757633" lon="7.8679583"><ele>79.0</ele><time>2026-04-23T12:44:40.363Z</time></trkpt><trkpt lat="33.8757483" lon="7.8678767"><ele>79.0</ele><time>2026-04-23T12:44:41.363Z</time></trkpt><trkpt lat="33.8757317" lon="7.8678"><ele>79.0</ele><time>2026-04-23T12:44:42.363Z</time></trkpt><trkpt lat="33.8757133" lon="7.8676717"><ele>79.0</ele><time>2026-04-23T12:44:44.364Z</time></trkpt><trkpt lat="33.8757333" lon="7.8675867"><ele>79.0</ele><time>2026-04-23T12:44:46.364Z</time></trkpt><trkpt lat="33.8758333" lon="7.86756"><ele>79.0</ele><time>2026-04-23T12:44:49.363Z</time></trkpt><trkpt lat="33.8759383" lon="7.867575"><ele>79.0</ele><time>2026-04-23T12:44:51.363Z</time></trkpt><trkpt lat="33.8760083" lon="7.8675783"><ele>79.0</ele><time>2026-04-23T12:44:52.363Z</time></trkpt><trkpt lat="33.87608" lon="7.8675717"><ele>79.0</ele><time>2026-04-23T12:44:53.363Z</time></trkpt><trkpt lat="33.8761583" lon="7.8675733"><ele>79.0</ele><time>2026-04-23T12:44:54.364Z</time></trkpt><trkpt lat="33.8762417" lon="7.867565"><ele>79.0</ele><time>2026-04-23T12:44:55.363Z</time></trkpt><trkpt lat="33.8763317" lon="7.86755"><ele>79.0</ele><time>2026-04-23T12:44:56.363Z</time></trkpt><trkpt lat="33.8764217" lon="7.86754"><ele>79.0</ele><time>2026-04-23T12:44:57.363Z</time></trkpt><trkpt lat="33.8765083" lon="7.8675317"><ele>79.0</ele><time>2026-04-23T12:44:58.364Z</time></trkpt><trkpt lat="33.8765817" lon="7.8675317"><ele>79.0</ele><time>2026-04-23T12:44:59.364Z</time></trkpt><trkpt lat="33.87669" lon="7.8675467"><ele>79.0</ele><time>2026-04-23T12:45:01.364Z</time></trkpt><trkpt lat="33.8767617" lon="7.8675467"><ele>79.0</ele><time>2026-04-23T12:45:03.364Z</time></trkpt><trkpt lat="33.87684" lon="7.86755"><ele>79.0</ele><time>2026-04-23T12:45:05.363Z</time></trkpt><trkpt lat="33.8769133" lon="7.867625"><ele>79.2</ele><time>2026-04-23T12:45:31.362Z</time></trkpt><trkpt lat="33.8769333" lon="7.8677783"><ele>79.4</ele><time>2026-04-23T12:45:33.362Z</time></trkpt><trkpt lat="33.8769517" lon="7.8678667"><ele>79.6</ele><time>2026-04-23T12:45:34.363Z</time></trkpt><trkpt lat="33.8769683" lon="7.86796"><ele>79.8</ele><time>2026-04-23T12:45:35.363Z</time></trkpt><trkpt lat="33.87698" lon="7.8680583"><ele>80.0</ele><time>2026-04-23T12:45:36.363Z</time></trkpt><trkpt lat="33.8769883" lon="7.868165"><ele>80.0</ele><time>2026-04-23T12:45:37.362Z</time></trkpt><trkpt lat="33.877" lon="7.8682733"><ele>80.0</ele><time>2026-04-23T12:45:38.363Z</time></trkpt><trkpt lat="33.8770167" lon="7.8683783"><ele>80.0</ele><time>2026-04-23T12:45:39.363Z</time></trkpt><trkpt lat="33.8770333" lon="7.8684733"><ele>80.0</ele><time>2026-04-23T12:45:40.363Z</time></trkpt><trkpt lat="33.87706" lon="7.8685567"><ele>80.0</ele><time>2026-04-23T12:45:41.362Z</time></trkpt><trkpt lat="33.877075" lon="7.8686433"><ele>80.0</ele><time>2026-04-23T12:45:42.363Z</time></trkpt><trkpt lat="33.877085" lon="7.8687333"><ele>80.33333333333334</ele><time>2026-04-23T12:45:43.362Z</time></trkpt><trkpt lat="33.8770867" lon="7.86882"><ele>80.66666666666667</ele><time>2026-04-23T12:45:44.362Z</time></trkpt><trkpt lat="33.8770867" lon="7.8689133"><ele>81.0</ele><time>2026-04-23T12:45:45.362Z</time></trkpt><trkpt lat="33.87709" lon="7.8690217"><ele>81.33333333333333</ele><time>2026-04-23T12:45:46.362Z</time></trkpt><trkpt lat="33.8771" lon="7.8691417"><ele>81.66666666666666</ele><time>2026-04-23T12:45:47.362Z</time></trkpt><trkpt lat="33.877115" lon="7.8692683"><ele>82.0</ele><time>2026-04-23T12:45:48.363Z</time></trkpt><trkpt lat="33.8771283" lon="7.869395"><ele>82.0</ele><time>2026-04-23T12:45:49.363Z</time></trkpt><trkpt lat="33.87714" lon="7.86952"><ele>82.0</ele><time>2026-04-23T12:45:50.362Z</time></trkpt><trkpt lat="33.8771567" lon="7.869645"><ele>82.0</ele><time>2026-04-23T12:45:51.362Z</time></trkpt><trkpt lat="33.8771767" lon="7.8697633"><ele>82.0</ele><time>2026-04-23T12:45:52.363Z</time></trkpt><trkpt lat="33.8771933" lon="7.86986"><ele>82.0</ele><time>2026-04-23T12:45:53.362Z</time></trkpt><trkpt lat="33.8772067" lon="7.86994"><ele>82.0</ele><time>2026-04-23T12:45:54.363Z</time></trkpt><trkpt lat="33.8772117" lon="7.8700833"><ele>82.0</ele><time>2026-04-23T12:45:56.362Z</time></trkpt><trkpt lat="33.87721" lon="7.8701867"><ele>82.0</ele><time>2026-04-23T12:45:58.363Z</time></trkpt><trkpt lat="33.8772267" lon="7.870275"><ele>82.0</ele><time>2026-04-23T12:46:01.362Z</time></trkpt><trkpt lat="33.8773" lon="7.8703633"><ele>82.0</ele><time>2026-04-23T12:46:03.363Z</time></trkpt><trkpt lat="33.8773667" lon="7.87041"><ele>82.8</ele><time>2026-04-23T12:46:04.363Z</time></trkpt><trkpt lat="33.8774383" lon="7.8704567"><ele>83.6</ele><time>2026-04-23T12:46:05.362Z</time></trkpt><trkpt lat="33.8775183" lon="7.870495"><ele>84.39999999999999</ele><time>2026-04-23T12:46:06.363Z</time></trkpt><trkpt lat="33.877605" lon="7.8705333"><ele>85.19999999999999</ele><time>2026-04-23T12:46:07.363Z</time></trkpt><trkpt lat="33.8776967" lon="7.87058"><ele>86.0</ele><time>2026-04-23T12:46:08.362Z</time></trkpt><trkpt lat="33.8777883" lon="7.8706233"><ele>86.19999999999999</ele><time>2026-04-23T12:46:09.362Z</time></trkpt><trkpt lat="33.87787" lon="7.87066"><ele>86.39999999999999</ele><time>2026-04-23T12:46:10.363Z</time></trkpt><trkpt lat="33.8779667" lon="7.8707"><ele>86.6</ele><time>2026-04-23T12:46:11.363Z</time></trkpt><trkpt lat="33.8780617" lon="7.87075"><ele>86.8</ele><time>2026-04-23T12:46:12.362Z</time></trkpt><trkpt lat="33.87816" lon="7.8707933"><ele>87.0</ele><time>2026-04-23T12:46:13.362Z</time></trkpt><trkpt lat="33.8782517" lon="7.8708367"><ele>87.0</ele><time>2026-04-23T12:46:14.363Z</time></trkpt><trkpt lat="33.8783417" lon="7.870875"><ele>87.0</ele><time>2026-04-23T12:46:15.363Z</time></trkpt><trkpt lat="33.87843" lon="7.87091"><ele>87.0</ele><time>2026-04-23T12:46:16.362Z</time></trkpt><trkpt lat="33.8785167" lon="7.8709483"><ele>87.0</ele><time>2026-04-23T12:46:17.363Z</time></trkpt><trkpt lat="33.878605" lon="7.8709883"><ele>87.0</ele><time>2026-04-23T12:46:18.363Z</time></trkpt><trkpt lat="33.878695" lon="7.87103"><ele>87.33333333333333</ele><time>2026-04-23T12:46:19.363Z</time></trkpt><trkpt lat="33.87879" lon="7.871065"><ele>87.66666666666667</ele><time>2026-04-23T12:46:20.363Z</time></trkpt><trkpt lat="33.878875" lon="7.8710983"><ele>88.0</ele><time>2026-04-23T12:46:21.362Z</time></trkpt><trkpt lat="33.87895" lon="7.87113"><ele>88.33333333333334</ele><time>2026-04-23T12:46:22.363Z</time></trkpt><trkpt lat="33.87903" lon="7.871155"><ele>88.66666666666667</ele><time>2026-04-23T12:46:23.363Z</time></trkpt><trkpt lat="33.87911" lon="7.8711933"><ele>89.0</ele><time>2026-04-23T12:46:24.363Z</time></trkpt><trkpt lat="33.8791983" lon="7.87123"><ele>88.75</ele><time>2026-04-23T12:46:25.363Z</time></trkpt><trkpt lat="33.87929" lon="7.8712733"><ele>88.5</ele><time>2026-04-23T12:46:26.362Z</time></trkpt><trkpt lat="33.8793967" lon="7.871325"><ele>88.25</ele><time>2026-04-23T12:46:27.362Z</time></trkpt><trkpt lat="33.879515" lon="7.871385"><ele>88.0</ele><time>2026-04-23T12:46:28.363Z</time></trkpt><trkpt lat="33.879645" lon="7.871445"><ele>88.0</ele><time>2026-04-23T12:46:29.363Z</time></trkpt><trkpt lat="33.879775" lon="7.8715067"><ele>88.0</ele><time>2026-04-23T12:46:30.363Z</time></trkpt><trkpt lat="33.8799083" lon="7.8715633"><ele>88.0</ele><time>2026-04-23T12:46:31.361Z</time></trkpt><trkpt lat="33.8800433" lon="7.8716383"><ele>88.0</ele><time>2026-04-23T12:46:32.362Z</time></trkpt><trkpt lat="33.88018" lon="7.87171"><ele>89.5</ele><time>2026-04-23T12:46:33.363Z</time></trkpt><trkpt lat="33.88047" lon="7.871845"><ele>91.0</ele><time>2026-04-23T12:46:35.363Z</time></trkpt><trkpt lat="33.880615" lon="7.8719183"><ele>91.0</ele><time>2026-04-23T12:46:36.363Z</time></trkpt><trkpt lat="33.8807617" lon="7.8719883"><ele>91.0</ele><time>2026-04-23T12:46:37.362Z</time></trkpt><trkpt lat="33.8809117" lon="7.8720617"><ele>91.0</ele><time>2026-04-23T12:46:38.362Z</time></trkpt><trkpt lat="33.8810567" lon="7.8721333"><ele>92.0</ele><time>2026-04-23T12:46:39.363Z</time></trkpt><trkpt lat="33.8812083" lon="7.8722183"><ele>93.0</ele><time>2026-04-23T12:46:40.362Z</time></trkpt><trkpt lat="33.8813533" lon="7.87231"><ele>94.0</ele><time>2026-04-23T12:46:41.362Z</time></trkpt><trkpt lat="33.881495" lon="7.872405"><ele>94.0</ele><time>2026-04-23T12:46:42.363Z</time></trkpt><trkpt lat="33.8816467" lon="7.8724967"><ele>94.0</ele><time>2026-04-23T12:46:43.362Z</time></trkpt><trkpt lat="33.8817983" lon="7.87258"><ele>94.0</ele><time>2026-04-23T12:46:44.363Z</time></trkpt><trkpt lat="33.881945" lon="7.8726517"><ele>94.75</ele><time>2026-04-23T12:46:45.362Z</time></trkpt><trkpt lat="33.8820967" lon="7.8727133"><ele>95.5</ele><time>2026-04-23T12:46:46.362Z</time></trkpt><trkpt lat="33.8822417" lon="7.87275"><ele>96.25</ele><time>2026-04-23T12:46:47.363Z</time></trkpt><trkpt lat="33.8823783" lon="7.8727617"><ele>97.0</ele><time>2026-04-23T12:46:48.363Z</time></trkpt><trkpt lat="33.8825133" lon="7.87274"><ele>96.75</ele><time>2026-04-23T12:46:49.362Z</time></trkpt><trkpt lat="33.8826433" lon="7.8726883"><ele>96.5</ele><time>2026-04-23T12:46:50.362Z</time></trkpt><trkpt lat="33.8827767" lon="7.8726283"><ele>96.25</ele><time>2026-04-23T12:46:51.362Z</time></trkpt><trkpt lat="33.882895" lon="7.8725583"><ele>96.0</ele><time>2026-04-23T12:46:52.362Z</time></trkpt><trkpt lat="33.8830267" lon="7.87249"><ele>96.0</ele><time>2026-04-23T12:46:53.363Z</time></trkpt><trkpt lat="33.8831667" lon="7.8724317"><ele>96.0</ele><time>2026-04-23T12:46:54.363Z</time></trkpt><trkpt lat="33.883305" lon="7.872365"><ele>96.0</ele><time>2026-04-23T12:46:55.363Z</time></trkpt><trkpt lat="33.88345" lon="7.8723083"><ele>96.33333333333334</ele><time>2026-04-23T12:46:56.363Z</time></trkpt><trkpt lat="33.88359" lon="7.872245"><ele>96.66666666666667</ele><time>2026-04-23T12:46:57.363Z</time></trkpt><trkpt lat="33.8837317" lon="7.8721783"><ele>97.0</ele><time>2026-04-23T12:46:58.362Z</time></trkpt><trkpt lat="33.88387" lon="7.8720917"><ele>97.0</ele><time>2026-04-23T12:46:59.362Z</time></trkpt><trkpt lat="33.884005" lon="7.871975"><ele>97.0</ele><time>2026-04-23T12:47:00.363Z</time></trkpt><trkpt lat="33.88413" lon="7.8718533"><ele>97.0</ele><time>2026-04-23T12:47:01.362Z</time></trkpt><trkpt lat="33.8842567" lon="7.8717117"><ele>97.0</ele><time>2026-04-23T12:47:02.363Z</time></trkpt><trkpt lat="33.88437" lon="7.8715633"><ele>97.0</ele><time>2026-04-23T12:47:03.363Z</time></trkpt><trkpt lat="33.8844817" lon="7.8713983"><ele>97.0</ele><time>2026-04-23T12:47:04.363Z</time></trkpt><trkpt lat="33.884595" lon="7.8712367"><ele>97.0</ele><time>2026-04-23T12:47:05.363Z</time></trkpt><trkpt lat="33.884705" lon="7.871065"><ele>97.0</ele><time>2026-04-23T12:47:06.362Z</time></trkpt><trkpt lat="33.88482" lon="7.8708983"><ele>97.0</ele><time>2026-04-23T12:47:07.363Z</time></trkpt><trkpt lat="33.88494" lon="7.87073"><ele>97.0</ele><time>2026-04-23T12:47:08.362Z</time></trkpt><trkpt lat="33.8850633" lon="7.8705617"><ele>97.0</ele><time>2026-04-23T12:47:09.362Z</time></trkpt><trkpt lat="33.88518" lon="7.8703933"><ele>97.0</ele><time>2026-04-23T12:47:10.362Z</time></trkpt><trkpt lat="33.8852967" lon="7.8702233"><ele>96.0</ele><time>2026-04-23T12:47:11.363Z</time></trkpt><trkpt lat="33.8854133" lon="7.8700533"><ele>95.0</ele><time>2026-04-23T12:47:12.363Z</time></trkpt><trkpt lat="33.8855367" lon="7.8698783"><ele>94.0</ele><time>2026-04-23T12:47:13.362Z</time></trkpt><trkpt lat="33.8856633" lon="7.8697017"><ele>94.0</ele><time>2026-04-23T12:47:14.362Z</time></trkpt><trkpt lat="33.885795" lon="7.8695217"><ele>94.0</ele><time>2026-04-23T12:47:15.363Z</time></trkpt><trkpt lat="33.88595" lon="7.8693617"><ele>94.0</ele><time>2026-04-23T12:47:16.363Z</time></trkpt><trkpt lat="33.8861117" lon="7.8692083"><ele>92.33333333333333</ele><time>2026-04-23T12:47:17.363Z</time></trkpt><trkpt lat="33.886285" lon="7.869065"><ele>90.66666666666667</ele><time>2026-04-23T12:47:18.363Z</time></trkpt><trkpt lat="33.8864567" lon="7.8689483"><ele>89.0</ele><time>2026-04-23T12:47:19.363Z</time></trkpt><trkpt lat="33.88663" lon="7.8688383"><ele>89.66666666666667</ele><time>2026-04-23T12:47:20.363Z</time></trkpt><trkpt lat="33.8868033" lon="7.8687367"><ele>90.33333333333333</ele><time>2026-04-23T12:47:21.362Z</time></trkpt><trkpt lat="33.8869833" lon="7.8686417"><ele>91.0</ele><time>2026-04-23T12:47:22.362Z</time></trkpt><trkpt lat="33.887165" lon="7.8685483"><ele>91.0</ele><time>2026-04-23T12:47:23.363Z</time></trkpt><trkpt lat="33.8873483" lon="7.8684483"><ele>91.0</ele><time>2026-04-23T12:47:24.363Z</time></trkpt><trkpt lat="33.8875283" lon="7.8683467"><ele>91.0</ele><time>2026-04-23T12:47:25.362Z</time></trkpt><trkpt lat="33.887705" lon="7.868255"><ele>91.33333333333333</ele><time>2026-04-23T12:47:26.362Z</time></trkpt><trkpt lat="33.8878883" lon="7.8681583"><ele>91.66666666666667</ele><time>2026-04-23T12:47:27.363Z</time></trkpt><trkpt lat="33.8880667" lon="7.8680517"><ele>92.0</ele><time>2026-04-23T12:47:28.362Z</time></trkpt><trkpt lat="33.8882533" lon="7.8679483"><ele>92.66666666666667</ele><time>2026-04-23T12:47:29.362Z</time></trkpt><trkpt lat="33.8884417" lon="7.8678467"><ele>93.33333333333333</ele><time>2026-04-23T12:47:30.363Z</time></trkpt><trkpt lat="33.8886317" lon="7.86774"><ele>94.0</ele><time>2026-04-23T12:47:31.362Z</time></trkpt><trkpt lat="33.88883" lon="7.8676283"><ele>93.66666666666666</ele><time>2026-04-23T12:47:32.362Z</time></trkpt><trkpt lat="33.8890283" lon="7.8675167"><ele>93.33333333333333</ele><time>2026-04-23T12:47:33.363Z</time></trkpt><trkpt lat="33.8892233" lon="7.8674033"><ele>93.0</ele><time>2026-04-23T12:47:34.362Z</time></trkpt><trkpt lat="33.8894183" lon="7.8672833"><ele>92.33333333333333</ele><time>2026-04-23T12:47:35.362Z</time></trkpt><trkpt lat="33.8896117" lon="7.8671617"><ele>91.66666666666666</ele><time>2026-04-23T12:47:36.362Z</time></trkpt><trkpt lat="33.889795" lon="7.86703"><ele>91.0</ele><time>2026-04-23T12:47:37.362Z</time></trkpt><trkpt lat="33.8899717" lon="7.866905"><ele>91.33333333333333</ele><time>2026-04-23T12:47:38.363Z</time></trkpt><trkpt lat="33.8901383" lon="7.8667833"><ele>91.66666666666667</ele><time>2026-04-23T12:47:39.363Z</time></trkpt><trkpt lat="33.890285" lon="7.866685"><ele>92.0</ele><time>2026-04-23T12:47:40.362Z</time></trkpt><trkpt lat="33.8904233" lon="7.8666"><ele>92.25</ele><time>2026-04-23T12:47:41.363Z</time></trkpt><trkpt lat="33.8905617" lon="7.86655"><ele>92.5</ele><time>2026-04-23T12:47:42.363Z</time></trkpt><trkpt lat="33.8906983" lon="7.8665367"><ele>92.75</ele><time>2026-04-23T12:47:43.362Z</time></trkpt><trkpt lat="33.8908183" lon="7.8665483"><ele>93.0</ele><time>2026-04-23T12:47:44.363Z</time></trkpt><trkpt lat="33.8909433" lon="7.8665733"><ele>93.0</ele><time>2026-04-23T12:47:45.362Z</time></trkpt><trkpt lat="33.8910717" lon="7.8666083"><ele>93.0</ele><time>2026-04-23T12:47:46.362Z</time></trkpt><trkpt lat="33.89119" lon="7.8666333"><ele>93.0</ele><time>2026-04-23T12:47:47.363Z</time></trkpt><trkpt lat="33.8912967" lon="7.8666483"><ele>93.0</ele><time>2026-04-23T12:47:48.362Z</time></trkpt><trkpt lat="33.8913883" lon="7.866665"><ele>93.0</ele><time>2026-04-23T12:47:49.362Z</time></trkpt><trkpt lat="33.891465" lon="7.8666767"><ele>93.0</ele><time>2026-04-23T12:47:50.363Z</time></trkpt><trkpt lat="33.89153" lon="7.8666883"><ele>93.0</ele><time>2026-04-23T12:47:51.363Z</time></trkpt><trkpt lat="33.8916333" lon="7.8667067"><ele>93.0</ele><time>2026-04-23T12:47:53.363Z</time></trkpt><trkpt lat="33.89172" lon="7.86672"><ele>93.0</ele><time>2026-04-23T12:47:55.363Z</time></trkpt><trkpt lat="33.8918367" lon="7.866735"><ele>93.2</ele><time>2026-04-23T12:47:57.363Z</time></trkpt><trkpt lat="33.891915" lon="7.8667383"><ele>93.4</ele><time>2026-04-23T12:47:58.363Z</time></trkpt><trkpt lat="33.8920067" lon="7.8667367"><ele>93.60000000000001</ele><time>2026-04-23T12:47:59.362Z</time></trkpt><trkpt lat="33.8921117" lon="7.866745"><ele>93.80000000000001</ele><time>2026-04-23T12:48:00.362Z</time></trkpt><trkpt lat="33.8922317" lon="7.866745"><ele>94.0</ele><time>2026-04-23T12:48:01.362Z</time></trkpt><trkpt lat="33.8923633" lon="7.86674"><ele>94.0</ele><time>2026-04-23T12:48:02.362Z</time></trkpt><trkpt lat="33.892495" lon="7.866725"><ele>94.0</ele><time>2026-04-23T12:48:03.362Z</time></trkpt><trkpt lat="33.8926433" lon="7.8667083"><ele>94.0</ele><time>2026-04-23T12:48:04.362Z</time></trkpt><trkpt lat="33.892795" lon="7.8666783"><ele>94.0</ele><time>2026-04-23T12:48:05.363Z</time></trkpt><trkpt lat="33.8929533" lon="7.8666533"><ele>93.33333333333333</ele><time>2026-04-23T12:48:06.363Z</time></trkpt><trkpt lat="33.893115" lon="7.866605"><ele>92.66666666666667</ele><time>2026-04-23T12:48:07.362Z</time></trkpt><trkpt lat="33.89328" lon="7.866545"><ele>92.0</ele><time>2026-04-23T12:48:08.362Z</time></trkpt><trkpt lat="33.8934483" lon="7.86648"><ele>92.0</ele><time>2026-04-23T12:48:09.362Z</time></trkpt><trkpt lat="33.8936183" lon="7.8664083"><ele>92.0</ele><time>2026-04-23T12:48:10.362Z</time></trkpt><trkpt lat="33.8937867" lon="7.8663333"><ele>92.0</ele><time>2026-04-23T12:48:11.363Z</time></trkpt><trkpt lat="33.893955" lon="7.8662517"><ele>92.0</ele><time>2026-04-23T12:48:12.362Z</time></trkpt><trkpt lat="33.8941317" lon="7.8661833"><ele>92.0</ele><time>2026-04-23T12:48:13.363Z</time></trkpt><trkpt lat="33.8943133" lon="7.8661133"><ele>92.0</ele><time>2026-04-23T12:48:14.363Z</time></trkpt><trkpt lat="33.8945" lon="7.8660467"><ele>92.33333333333334</ele><time>2026-04-23T12:48:15.363Z</time></trkpt><trkpt lat="33.8946883" lon="7.8659783"><ele>92.66666666666667</ele><time>2026-04-23T12:48:16.362Z</time></trkpt><trkpt lat="33.89488" lon="7.8659167"><ele>93.0</ele><time>2026-04-23T12:48:17.362Z</time></trkpt><trkpt lat="33.8950833" lon="7.8658583"><ele>92.33333333333333</ele><time>2026-04-23T12:48:18.362Z</time></trkpt><trkpt lat="33.8952783" lon="7.8658033"><ele>91.66666666666666</ele><time>2026-04-23T12:48:19.362Z</time></trkpt><trkpt lat="33.8954817" lon="7.8657467"><ele>91.0</ele><time>2026-04-23T12:48:20.363Z</time></trkpt><trkpt lat="33.8956867" lon="7.8656767"><ele>91.0</ele><time>2026-04-23T12:48:21.362Z</time></trkpt><trkpt lat="33.8958883" lon="7.8655883"><ele>91.0</ele><time>2026-04-23T12:48:22.362Z</time></trkpt><trkpt lat="33.8960933" lon="7.8655083"><ele>91.0</ele><time>2026-04-23T12:48:23.363Z</time></trkpt><trkpt lat="33.8962867" lon="7.8654267"><ele>90.33333333333333</ele><time>2026-04-23T12:48:24.363Z</time></trkpt><trkpt lat="33.8964917" lon="7.8653533"><ele>89.66666666666667</ele><time>2026-04-23T12:48:25.363Z</time></trkpt><trkpt lat="33.8966983" lon="7.8652967"><ele>89.0</ele><time>2026-04-23T12:48:26.362Z</time></trkpt><trkpt lat="33.8968967" lon="7.8652583"><ele>89.0</ele><time>2026-04-23T12:48:27.363Z</time></trkpt><trkpt lat="33.89707" lon="7.8652583"><ele>89.0</ele><time>2026-04-23T12:48:28.363Z</time></trkpt><trkpt lat="33.8972467" lon="7.8652617"><ele>89.0</ele><time>2026-04-23T12:48:29.362Z</time></trkpt><trkpt lat="33.8974017" lon="7.8652833"><ele>89.0</ele><time>2026-04-23T12:48:30.362Z</time></trkpt><trkpt lat="33.89754" lon="7.86529"><ele>89.0</ele><time>2026-04-23T12:48:31.362Z</time></trkpt><trkpt lat="33.897675" lon="7.865285"><ele>89.0</ele><time>2026-04-23T12:48:32.363Z</time></trkpt><trkpt lat="33.897795" lon="7.8652783"><ele>89.0</ele><time>2026-04-23T12:48:33.363Z</time></trkpt><trkpt lat="33.8979" lon="7.8652533"><ele>88.33333333333334</ele><time>2026-04-23T12:48:34.363Z</time></trkpt><trkpt lat="33.8979867" lon="7.86524"><ele>87.66666666666667</ele><time>2026-04-23T12:48:35.363Z</time></trkpt><trkpt lat="33.8980633" lon="7.86523"><ele>87.0</ele><time>2026-04-23T12:48:36.363Z</time></trkpt><trkpt lat="33.8981283" lon="7.8652117"><ele>86.33333333333333</ele><time>2026-04-23T12:48:37.363Z</time></trkpt><trkpt lat="33.8982167" lon="7.8651833"><ele>85.66666666666666</ele><time>2026-04-23T12:48:39.363Z</time></trkpt><trkpt lat="33.8982867" lon="7.865195"><ele>85.0</ele><time>2026-04-23T12:48:42.362Z</time></trkpt><trkpt lat="33.8983533" lon="7.865165"><ele>84.4</ele><time>2026-04-23T12:53:07.36Z</time></trkpt><trkpt lat="33.898475" lon="7.8650933"><ele>83.8</ele><time>2026-04-23T12:53:09.36Z</time></trkpt><trkpt lat="33.8985533" lon="7.86506"><ele>83.19999999999999</ele><time>2026-04-23T12:53:10.361Z</time></trkpt><trkpt lat="33.8986317" lon="7.865015"><ele>82.6</ele><time>2026-04-23T12:53:11.36Z</time></trkpt><trkpt lat="33.89871" lon="7.8649783"><ele>82.0</ele><time>2026-04-23T12:53:12.361Z</time></trkpt><trkpt lat="33.8987867" lon="7.8649433"><ele>82.0</ele><time>2026-04-23T12:53:13.36Z</time></trkpt><trkpt lat="33.898875" lon="7.8649067"><ele>82.0</ele><time>2026-04-23T12:53:14.36Z</time></trkpt><trkpt lat="33.8989617" lon="7.86487"><ele>82.0</ele><time>2026-04-23T12:53:15.36Z</time></trkpt><trkpt lat="33.899055" lon="7.8648317"><ele>82.0</ele><time>2026-04-23T12:53:16.361Z</time></trkpt><trkpt lat="33.8991583" lon="7.8647983"><ele>82.0</ele><time>2026-04-23T12:53:17.361Z</time></trkpt><trkpt lat="33.8992583" lon="7.86477"><ele>82.19999999999999</ele><time>2026-04-23T12:53:18.36Z</time></trkpt><trkpt lat="33.89936" lon="7.8647383"><ele>82.4</ele><time>2026-04-23T12:53:19.361Z</time></trkpt><trkpt lat="33.8994683" lon="7.8647067"><ele>82.6</ele><time>2026-04-23T12:53:20.361Z</time></trkpt><trkpt lat="33.8995833" lon="7.864685"><ele>82.80000000000001</ele><time>2026-04-23T12:53:21.36Z</time></trkpt><trkpt lat="33.899695" lon="7.8646667"><ele>83.0</ele><time>2026-04-23T12:53:22.36Z</time></trkpt><trkpt lat="33.8998117" lon="7.8646383"><ele>83.0</ele><time>2026-04-23T12:53:23.36Z</time></trkpt><trkpt lat="33.899935" lon="7.8646167"><ele>83.0</ele><time>2026-04-23T12:53:24.361Z</time></trkpt><trkpt lat="33.90006" lon="7.8645967"><ele>83.0</ele><time>2026-04-23T12:53:25.36Z</time></trkpt><trkpt lat="33.9001833" lon="7.864575"><ele>83.0</ele><time>2026-04-23T12:53:26.36Z</time></trkpt><trkpt lat="33.90031" lon="7.8645567"><ele>83.0</ele><time>2026-04-23T12:53:27.36Z</time></trkpt><trkpt lat="33.9004383" lon="7.8645283"><ele>83.0</ele><time>2026-04-23T12:53:28.36Z</time></trkpt><trkpt lat="33.900575" lon="7.864495"><ele>83.0</ele><time>2026-04-23T12:53:29.36Z</time></trkpt><trkpt lat="33.900715" lon="7.8644483"><ele>83.0</ele><time>2026-04-23T12:53:30.36Z</time></trkpt><trkpt lat="33.9008617" lon="7.8643917"><ele>83.0</ele><time>2026-04-23T12:53:31.36Z</time></trkpt><trkpt lat="33.90101" lon="7.8643283"><ele>83.0</ele><time>2026-04-23T12:53:32.361Z</time></trkpt><trkpt lat="33.9011667" lon="7.864265"><ele>83.0</ele><time>2026-04-23T12:53:33.36Z</time></trkpt><trkpt lat="33.9013167" lon="7.8642017"><ele>83.0</ele><time>2026-04-23T12:53:34.36Z</time></trkpt><trkpt lat="33.9014617" lon="7.8641267"><ele>83.0</ele><time>2026-04-23T12:53:35.361Z</time></trkpt><trkpt lat="33.90161" lon="7.864055"><ele>83.0</ele><time>2026-04-23T12:53:36.36Z</time></trkpt><trkpt lat="33.90176" lon="7.86399"><ele>83.0</ele><time>2026-04-23T12:53:37.36Z</time></trkpt><trkpt lat="33.90191" lon="7.8639233"><ele>83.0</ele><time>2026-04-23T12:53:38.36Z</time></trkpt><trkpt lat="33.9020667" lon="7.8638583"><ele>83.0</ele><time>2026-04-23T12:53:39.36Z</time></trkpt><trkpt lat="33.902225" lon="7.863785"><ele>83.0</ele><time>2026-04-23T12:53:40.36Z</time></trkpt><trkpt lat="33.9023967" lon="7.8637183"><ele>83.0</ele><time>2026-04-23T12:53:41.36Z</time></trkpt><trkpt lat="33.9025617" lon="7.863655"><ele>83.0</ele><time>2026-04-23T12:53:42.361Z</time></trkpt><trkpt lat="33.9027283" lon="7.8635933"><ele>82.66666666666667</ele><time>2026-04-23T12:53:43.36Z</time></trkpt><trkpt lat="33.9029017" lon="7.8635183"><ele>82.33333333333333</ele><time>2026-04-23T12:53:44.36Z</time></trkpt><trkpt lat="33.9030733" lon="7.86346"><ele>82.0</ele><time>2026-04-23T12:53:45.36Z</time></trkpt><trkpt lat="33.9032533" lon="7.863425"><ele>82.0</ele><time>2026-04-23T12:53:46.36Z</time></trkpt><trkpt lat="33.9034333" lon="7.8633867"><ele>82.0</ele><time>2026-04-23T12:53:47.36Z</time></trkpt><trkpt lat="33.9036183" lon="7.8633433"><ele>82.0</ele><time>2026-04-23T12:53:48.361Z</time></trkpt><trkpt lat="33.9038" lon="7.863315"><ele>82.0</ele><time>2026-04-23T12:53:49.36Z</time></trkpt><trkpt lat="33.9039883" lon="7.863275"><ele>82.0</ele><time>2026-04-23T12:53:50.361Z</time></trkpt><trkpt lat="33.9041767" lon="7.8632167"><ele>82.0</ele><time>2026-04-23T12:53:51.36Z</time></trkpt><trkpt lat="33.90436" lon="7.86315"><ele>82.33333333333333</ele><time>2026-04-23T12:53:52.361Z</time></trkpt><trkpt lat="33.9045383" lon="7.8630833"><ele>82.66666666666667</ele><time>2026-04-23T12:53:53.361Z</time></trkpt><trkpt lat="33.9047133" lon="7.8630067"><ele>83.0</ele><time>2026-04-23T12:53:54.36Z</time></trkpt><trkpt lat="33.9048733" lon="7.862925"><ele>83.0</ele><time>2026-04-23T12:53:55.36Z</time></trkpt><trkpt lat="33.9050367" lon="7.8628383"><ele>83.0</ele><time>2026-04-23T12:53:56.36Z</time></trkpt><trkpt lat="33.9051933" lon="7.8627467"><ele>83.0</ele><time>2026-04-23T12:53:57.36Z</time></trkpt><trkpt lat="33.9053617" lon="7.8626517"><ele>82.66666666666667</ele><time>2026-04-23T12:53:58.361Z</time></trkpt><trkpt lat="33.9055367" lon="7.8625483"><ele>82.33333333333333</ele><time>2026-04-23T12:53:59.361Z</time></trkpt><trkpt lat="33.905705" lon="7.8624383"><ele>82.0</ele><time>2026-04-23T12:54:00.36Z</time></trkpt><trkpt lat="33.90588" lon="7.8623333"><ele>82.0</ele><time>2026-04-23T12:54:01.36Z</time></trkpt><trkpt lat="33.90605" lon="7.862225"><ele>82.0</ele><time>2026-04-23T12:54:02.36Z</time></trkpt><trkpt lat="33.9062233" lon="7.8621167"><ele>82.0</ele><time>2026-04-23T12:54:03.361Z</time></trkpt><trkpt lat="33.9064017" lon="7.8620067"><ele>82.0</ele><time>2026-04-23T12:54:04.36Z</time></trkpt><trkpt lat="33.9065767" lon="7.8618933"><ele>82.0</ele><time>2026-04-23T12:54:05.361Z</time></trkpt><trkpt lat="33.90675" lon="7.861785"><ele>82.0</ele><time>2026-04-23T12:54:06.36Z</time></trkpt><trkpt lat="33.9069283" lon="7.8616683"><ele>81.33333333333333</ele><time>2026-04-23T12:54:07.36Z</time></trkpt><trkpt lat="33.9071067" lon="7.861555"><ele>80.66666666666667</ele><time>2026-04-23T12:54:08.361Z</time></trkpt><trkpt lat="33.9072867" lon="7.8614383"><ele>80.0</ele><time>2026-04-23T12:54:09.36Z</time></trkpt><trkpt lat="33.9074683" lon="7.8613133"><ele>80.66666666666667</ele><time>2026-04-23T12:54:10.361Z</time></trkpt><trkpt lat="33.90765" lon="7.8611933"><ele>81.33333333333333</ele><time>2026-04-23T12:54:11.36Z</time></trkpt><trkpt lat="33.90783" lon="7.861075"><ele>82.0</ele><time>2026-04-23T12:54:12.361Z</time></trkpt><trkpt lat="33.90801" lon="7.860955"><ele>81.0</ele><time>2026-04-23T12:54:13.361Z</time></trkpt><trkpt lat="33.9081917" lon="7.86083"><ele>80.0</ele><time>2026-04-23T12:54:14.361Z</time></trkpt><trkpt lat="33.9083667" lon="7.8607017"><ele>79.0</ele><time>2026-04-23T12:54:15.361Z</time></trkpt><trkpt lat="33.9085417" lon="7.86058"><ele>79.0</ele><time>2026-04-23T12:54:16.361Z</time></trkpt><trkpt lat="33.9087267" lon="7.8604433"><ele>79.0</ele><time>2026-04-23T12:54:17.36Z</time></trkpt><trkpt lat="33.90891" lon="7.8603133"><ele>79.0</ele><time>2026-04-23T12:54:18.361Z</time></trkpt><trkpt lat="33.9090967" lon="7.8601917"><ele>78.0</ele><time>2026-04-23T12:54:19.361Z</time></trkpt><trkpt lat="33.909275" lon="7.8600567"><ele>77.0</ele><time>2026-04-23T12:54:20.361Z</time></trkpt><trkpt lat="33.9094533" lon="7.8599167"><ele>76.0</ele><time>2026-04-23T12:54:21.36Z</time></trkpt><trkpt lat="33.9096283" lon="7.8597933"><ele>76.0</ele><time>2026-04-23T12:54:22.361Z</time></trkpt><trkpt lat="33.9097967" lon="7.8596767"><ele>76.0</ele><time>2026-04-23T12:54:23.361Z</time></trkpt><trkpt lat="33.9099667" lon="7.8595583"><ele>76.0</ele><time>2026-04-23T12:54:24.36Z</time></trkpt><trkpt lat="33.9101317" lon="7.8594367"><ele>76.0</ele><time>2026-04-23T12:54:25.361Z</time></trkpt><trkpt lat="33.9103" lon="7.859315"><ele>76.0</ele><time>2026-04-23T12:54:26.36Z</time></trkpt><trkpt lat="33.91047" lon="7.859175"><ele>76.0</ele><time>2026-04-23T12:54:27.36Z</time></trkpt><trkpt lat="33.9106367" lon="7.8590467"><ele>76.0</ele><time>2026-04-23T12:54:28.36Z</time></trkpt><trkpt lat="33.9107983" lon="7.8589183"><ele>76.0</ele><time>2026-04-23T12:54:29.36Z</time></trkpt><trkpt lat="33.9109433" lon="7.8587717"><ele>76.0</ele><time>2026-04-23T12:54:30.36Z</time></trkpt><trkpt lat="33.91109" lon="7.8586067"><ele>73.66666666666666</ele><time>2026-04-23T12:54:31.36Z</time></trkpt><trkpt lat="33.9112283" lon="7.8584433"><ele>71.33333333333333</ele><time>2026-04-23T12:54:32.36Z</time></trkpt><trkpt lat="33.91137" lon="7.8582683"><ele>69.0</ele><time>2026-04-23T12:54:33.36Z</time></trkpt><trkpt lat="33.9115083" lon="7.8580817"><ele>69.0</ele><time>2026-04-23T12:54:34.361Z</time></trkpt><trkpt lat="33.91164" lon="7.8579"><ele>69.0</ele><time>2026-04-23T12:54:35.36Z</time></trkpt><trkpt lat="33.9117833" lon="7.8577133"><ele>69.0</ele><time>2026-04-23T12:54:36.361Z</time></trkpt><trkpt lat="33.9119283" lon="7.8575317"><ele>67.33333333333333</ele><time>2026-04-23T12:54:37.361Z</time></trkpt><trkpt lat="33.9120717" lon="7.8573467"><ele>65.66666666666666</ele><time>2026-04-23T12:54:38.36Z</time></trkpt><trkpt lat="33.9122133" lon="7.85717"><ele>64.0</ele><time>2026-04-23T12:54:39.36Z</time></trkpt><trkpt lat="33.9123567" lon="7.856995"><ele>64.0</ele><time>2026-04-23T12:54:40.361Z</time></trkpt><trkpt lat="33.9125017" lon="7.8568133"><ele>64.0</ele><time>2026-04-23T12:54:41.361Z</time></trkpt><trkpt lat="33.9126433" lon="7.8566317"><ele>64.0</ele><time>2026-04-23T12:54:42.36Z</time></trkpt><trkpt lat="33.912785" lon="7.856445"><ele>63.0</ele><time>2026-04-23T12:54:43.361Z</time></trkpt><trkpt lat="33.91293" lon="7.8562683"><ele>62.0</ele><time>2026-04-23T12:54:44.36Z</time></trkpt><trkpt lat="33.9130667" lon="7.8560883"><ele>61.0</ele><time>2026-04-23T12:54:45.36Z</time></trkpt><trkpt lat="33.91321" lon="7.855905"><ele>60.0</ele><time>2026-04-23T12:54:46.36Z</time></trkpt><trkpt lat="33.9133567" lon="7.855725"><ele>59.0</ele><time>2026-04-23T12:54:47.361Z</time></trkpt><trkpt lat="33.913515" lon="7.8555533"><ele>58.0</ele><time>2026-04-23T12:54:48.361Z</time></trkpt><trkpt lat="33.9136667" lon="7.8553767"><ele>57.0</ele><time>2026-04-23T12:54:49.361Z</time></trkpt><trkpt lat="33.9138317" lon="7.855215"><ele>56.0</ele><time>2026-04-23T12:54:50.361Z</time></trkpt><trkpt lat="33.9139967" lon="7.85505"><ele>55.0</ele><time>2026-04-23T12:54:51.361Z</time></trkpt><trkpt lat="33.91417" lon="7.8549017"><ele>54.0</ele><time>2026-04-23T12:54:52.361Z</time></trkpt><trkpt lat="33.9143467" lon="7.8547583"><ele>53.0</ele><time>2026-04-23T12:54:53.361Z</time></trkpt><trkpt lat="33.9145233" lon="7.854615"><ele>52.0</ele><time>2026-04-23T12:54:54.36Z</time></trkpt><trkpt lat="33.9146983" lon="7.8544717"><ele>52.0</ele><time>2026-04-23T12:54:55.36Z</time></trkpt><trkpt lat="33.9148633" lon="7.854325"><ele>52.0</ele><time>2026-04-23T12:54:56.36Z</time></trkpt><trkpt lat="33.9150267" lon="7.854165"><ele>52.0</ele><time>2026-04-23T12:54:57.36Z</time></trkpt><trkpt lat="33.9151883" lon="7.854"><ele>50.666666666666664</ele><time>2026-04-23T12:54:58.361Z</time></trkpt><trkpt lat="33.915335" lon="7.8538367"><ele>49.33333333333333</ele><time>2026-04-23T12:54:59.36Z</time></trkpt><trkpt lat="33.9154833" lon="7.8536617"><ele>48.0</ele><time>2026-04-23T12:55:00.361Z</time></trkpt><trkpt lat="33.91563" lon="7.853485"><ele>47.333333333333336</ele><time>2026-04-23T12:55:01.36Z</time></trkpt><trkpt lat="33.915775" lon="7.8532933"><ele>46.66666666666667</ele><time>2026-04-23T12:55:02.36Z</time></trkpt><trkpt lat="33.915915" lon="7.8531"><ele>46.0</ele><time>2026-04-23T12:55:03.36Z</time></trkpt><trkpt lat="33.916055" lon="7.8529117"><ele>45.333333333333336</ele><time>2026-04-23T12:55:04.361Z</time></trkpt><trkpt lat="33.9161983" lon="7.8527183"><ele>44.666666666666664</ele><time>2026-04-23T12:55:05.36Z</time></trkpt><trkpt lat="33.916335" lon="7.8525217"><ele>44.0</ele><time>2026-04-23T12:55:06.361Z</time></trkpt><trkpt lat="33.9164733" lon="7.85233"><ele>43.33333333333333</ele><time>2026-04-23T12:55:07.36Z</time></trkpt><trkpt lat="33.9166067" lon="7.85213"><ele>42.666666666666664</ele><time>2026-04-23T12:55:08.36Z</time></trkpt><trkpt lat="33.91673" lon="7.851925"><ele>42.0</ele><time>2026-04-23T12:55:09.36Z</time></trkpt><trkpt lat="33.9168533" lon="7.8517217"><ele>42.0</ele><time>2026-04-23T12:55:10.36Z</time></trkpt><trkpt lat="33.916975" lon="7.85153"><ele>42.0</ele><time>2026-04-23T12:55:11.359Z</time></trkpt><trkpt lat="33.9171067" lon="7.8513283"><ele>42.0</ele><time>2026-04-23T12:55:12.36Z</time></trkpt><trkpt lat="33.9172467" lon="7.8511367"><ele>42.0</ele><time>2026-04-23T12:55:13.359Z</time></trkpt><trkpt lat="33.9173817" lon="7.8509433"><ele>42.0</ele><time>2026-04-23T12:55:14.36Z</time></trkpt><trkpt lat="33.9175267" lon="7.8507483"><ele>42.0</ele><time>2026-04-23T12:55:15.36Z</time></trkpt><trkpt lat="33.9176717" lon="7.85056"><ele>42.0</ele><time>2026-04-23T12:55:16.359Z</time></trkpt><trkpt lat="33.9178167" lon="7.8503717"><ele>42.0</ele><time>2026-04-23T12:55:17.359Z</time></trkpt><trkpt lat="33.9179633" lon="7.850185"><ele>42.0</ele><time>2026-04-23T12:55:18.36Z</time></trkpt><trkpt lat="33.918115" lon="7.850005"><ele>42.0</ele><time>2026-04-23T12:55:19.36Z</time></trkpt><trkpt lat="33.9182683" lon="7.8498317"><ele>42.0</ele><time>2026-04-23T12:55:20.36Z</time></trkpt><trkpt lat="33.9184217" lon="7.849675"><ele>42.0</ele><time>2026-04-23T12:55:21.36Z</time></trkpt><trkpt lat="33.918575" lon="7.84955"><ele>41.333333333333336</ele><time>2026-04-23T12:55:22.36Z</time></trkpt><trkpt lat="33.9187233" lon="7.849445"><ele>40.66666666666667</ele><time>2026-04-23T12:55:23.36Z</time></trkpt><trkpt lat="33.918885" lon="7.8493633"><ele>40.0</ele><time>2026-04-23T12:55:24.36Z</time></trkpt><trkpt lat="33.9190533" lon="7.8492767"><ele>39.333333333333336</ele><time>2026-04-23T12:55:25.36Z</time></trkpt><trkpt lat="33.9192167" lon="7.8491967"><ele>38.666666666666664</ele><time>2026-04-23T12:55:26.359Z</time></trkpt><trkpt lat="33.9193767" lon="7.8491067"><ele>38.0</ele><time>2026-04-23T12:55:27.36Z</time></trkpt><trkpt lat="33.9195" lon="7.8489917"><ele>37.666666666666664</ele><time>2026-04-23T12:55:28.36Z</time></trkpt><trkpt lat="33.9196017" lon="7.8488567"><ele>37.333333333333336</ele><time>2026-04-23T12:55:29.36Z</time></trkpt><trkpt lat="33.9197017" lon="7.848705"><ele>37.0</ele><time>2026-04-23T12:55:30.359Z</time></trkpt><trkpt lat="33.91978" lon="7.848535"><ele>38.0</ele><time>2026-04-23T12:55:31.36Z</time></trkpt><trkpt lat="33.919855" lon="7.8483567"><ele>39.0</ele><time>2026-04-23T12:55:32.359Z</time></trkpt><trkpt lat="33.91993" lon="7.8481683"><ele>40.0</ele><time>2026-04-23T12:55:33.359Z</time></trkpt><trkpt lat="33.9200067" lon="7.8479833"><ele>40.0</ele><time>2026-04-23T12:55:34.36Z</time></trkpt><trkpt lat="33.920095" lon="7.8477967"><ele>40.0</ele><time>2026-04-23T12:55:35.359Z</time></trkpt><trkpt lat="33.9201817" lon="7.8476083"><ele>40.0</ele><time>2026-04-23T12:55:36.36Z</time></trkpt><trkpt lat="33.9202733" lon="7.8474267"><ele>40.0</ele><time>2026-04-23T12:55:37.359Z</time></trkpt><trkpt lat="33.9203717" lon="7.847245"><ele>40.0</ele><time>2026-04-23T12:55:38.359Z</time></trkpt><trkpt lat="33.9204667" lon="7.8470617"><ele>40.0</ele><time>2026-04-23T12:55:39.359Z</time></trkpt><trkpt lat="33.92055" lon="7.846885"><ele>40.0</ele><time>2026-04-23T12:55:40.36Z</time></trkpt><trkpt lat="33.9206367" lon="7.84671"><ele>40.0</ele><time>2026-04-23T12:55:41.36Z</time></trkpt><trkpt lat="33.9207267" lon="7.8465383"><ele>40.0</ele><time>2026-04-23T12:55:42.36Z</time></trkpt><trkpt lat="33.920815" lon="7.8463683"><ele>39.333333333333336</ele><time>2026-04-23T12:55:43.359Z</time></trkpt><trkpt lat="33.9209083" lon="7.8462017"><ele>38.666666666666664</ele><time>2026-04-23T12:55:44.359Z</time></trkpt><trkpt lat="33.9210067" lon="7.8460367"><ele>38.0</ele><time>2026-04-23T12:55:45.359Z</time></trkpt><trkpt lat="33.9211083" lon="7.845875"><ele>38.0</ele><time>2026-04-23T12:55:46.359Z</time></trkpt><trkpt lat="33.9212267" lon="7.8457417"><ele>38.0</ele><time>2026-04-23T12:55:47.359Z</time></trkpt><trkpt lat="33.9213683" lon="7.8456367"><ele>38.0</ele><time>2026-04-23T12:55:48.359Z</time></trkpt><trkpt lat="33.9215233" lon="7.8455317"><ele>38.0</ele><time>2026-04-23T12:55:49.36Z</time></trkpt><trkpt lat="33.9216867" lon="7.84543"><ele>38.0</ele><time>2026-04-23T12:55:50.359Z</time></trkpt><trkpt lat="33.921845" lon="7.845345"><ele>38.0</ele><time>2026-04-23T12:55:51.359Z</time></trkpt><trkpt lat="33.9220017" lon="7.84526"><ele>38.33333333333333</ele><time>2026-04-23T12:55:52.36Z</time></trkpt><trkpt lat="33.92215" lon="7.8451783"><ele>38.666666666666664</ele><time>2026-04-23T12:55:53.359Z</time></trkpt><trkpt lat="33.9222983" lon="7.84509"><ele>39.0</ele><time>2026-04-23T12:55:54.36Z</time></trkpt><trkpt lat="33.9224533" lon="7.8450083"><ele>39.333333333333336</ele><time>2026-04-23T12:55:55.359Z</time></trkpt><trkpt lat="33.9226083" lon="7.844925"><ele>39.66666666666667</ele><time>2026-04-23T12:55:56.359Z</time></trkpt><trkpt lat="33.922765" lon="7.8448467"><ele>40.0</ele><time>2026-04-23T12:55:57.36Z</time></trkpt><trkpt lat="33.922915" lon="7.84476"><ele>40.0</ele><time>2026-04-23T12:55:58.36Z</time></trkpt><trkpt lat="33.92307" lon="7.8446767"><ele>40.0</ele><time>2026-04-23T12:55:59.359Z</time></trkpt><trkpt lat="33.9232317" lon="7.8446033"><ele>40.0</ele><time>2026-04-23T12:56:00.359Z</time></trkpt><trkpt lat="33.9233917" lon="7.844535"><ele>40.66666666666667</ele><time>2026-04-23T12:56:01.36Z</time></trkpt><trkpt lat="33.9235567" lon="7.84449"><ele>41.333333333333336</ele><time>2026-04-23T12:56:02.36Z</time></trkpt><trkpt lat="33.9237283" lon="7.8444467"><ele>42.0</ele><time>2026-04-23T12:56:03.359Z</time></trkpt><trkpt lat="33.9238983" lon="7.8443983"><ele>42.0</ele><time>2026-04-23T12:56:04.36Z</time></trkpt><trkpt lat="33.9240633" lon="7.8443717"><ele>42.0</ele><time>2026-04-23T12:56:05.359Z</time></trkpt><trkpt lat="33.9242317" lon="7.844345"><ele>42.0</ele><time>2026-04-23T12:56:06.36Z</time></trkpt><trkpt lat="33.9243967" lon="7.8443267"><ele>42.333333333333336</ele><time>2026-04-23T12:56:07.36Z</time></trkpt><trkpt lat="33.9245667" lon="7.84431"><ele>42.66666666666667</ele><time>2026-04-23T12:56:08.36Z</time></trkpt><trkpt lat="33.9247367" lon="7.8442917"><ele>43.0</ele><time>2026-04-23T12:56:09.359Z</time></trkpt><trkpt lat="33.924905" lon="7.84428"><ele>43.333333333333336</ele><time>2026-04-23T12:56:10.36Z</time></trkpt><trkpt lat="33.925075" lon="7.8442783"><ele>43.666666666666664</ele><time>2026-04-23T12:56:11.36Z</time></trkpt><trkpt lat="33.9252533" lon="7.8442833"><ele>44.0</ele><time>2026-04-23T12:56:12.36Z</time></trkpt><trkpt lat="33.9254317" lon="7.8442983"><ele>44.0</ele><time>2026-04-23T12:56:13.359Z</time></trkpt><trkpt lat="33.92561" lon="7.84432"><ele>44.0</ele><time>2026-04-23T12:56:14.36Z</time></trkpt><trkpt lat="33.92578" lon="7.8443433"><ele>44.0</ele><time>2026-04-23T12:56:15.36Z</time></trkpt><trkpt lat="33.9259467" lon="7.844365"><ele>44.33333333333333</ele><time>2026-04-23T12:56:16.36Z</time></trkpt><trkpt lat="33.9261167" lon="7.8443733"><ele>44.666666666666664</ele><time>2026-04-23T12:56:17.359Z</time></trkpt><trkpt lat="33.92628" lon="7.8443783"><ele>45.0</ele><time>2026-04-23T12:56:18.359Z</time></trkpt><trkpt lat="33.92644" lon="7.844365"><ele>45.0</ele><time>2026-04-23T12:56:19.36Z</time></trkpt><trkpt lat="33.9265933" lon="7.8443367"><ele>45.0</ele><time>2026-04-23T12:56:20.36Z</time></trkpt><trkpt lat="33.9267233" lon="7.8443483"><ele>45.0</ele><time>2026-04-23T12:56:21.36Z</time></trkpt><trkpt lat="33.92684" lon="7.8443417"><ele>45.0</ele><time>2026-04-23T12:56:22.359Z</time></trkpt><trkpt lat="33.9269583" lon="7.844315"><ele>45.25</ele><time>2026-04-23T12:56:23.36Z</time></trkpt><trkpt lat="33.92708" lon="7.844285"><ele>45.5</ele><time>2026-04-23T12:56:24.36Z</time></trkpt><trkpt lat="33.927205" lon="7.84424"><ele>45.75</ele><time>2026-04-23T12:56:25.359Z</time></trkpt><trkpt lat="33.9273317" lon="7.8441917"><ele>46.0</ele><time>2026-04-23T12:56:26.36Z</time></trkpt><trkpt lat="33.9274567" lon="7.8441317"><ele>46.25</ele><time>2026-04-23T12:56:27.359Z</time></trkpt><trkpt lat="33.9275783" lon="7.8440667"><ele>46.5</ele><time>2026-04-23T12:56:28.359Z</time></trkpt><trkpt lat="33.9276983" lon="7.843975"><ele>46.75</ele><time>2026-04-23T12:56:29.36Z</time></trkpt><trkpt lat="33.927815" lon="7.84386"><ele>47.0</ele><time>2026-04-23T12:56:30.36Z</time></trkpt><trkpt lat="33.9279383" lon="7.8437333"><ele>47.0</ele><time>2026-04-23T12:56:31.36Z</time></trkpt><trkpt lat="33.9280533" lon="7.843605"><ele>47.0</ele><time>2026-04-23T12:56:32.359Z</time></trkpt><trkpt lat="33.9281767" lon="7.84347"><ele>47.0</ele><time>2026-04-23T12:56:33.36Z</time></trkpt><trkpt lat="33.9283117" lon="7.8433283"><ele>47.0</ele><time>2026-04-23T12:56:34.36Z</time></trkpt><trkpt lat="33.9284483" lon="7.8431917"><ele>47.0</ele><time>2026-04-23T12:56:35.359Z</time></trkpt><trkpt lat="33.9285883" lon="7.843055"><ele>47.0</ele><time>2026-04-23T12:56:36.359Z</time></trkpt><trkpt lat="33.9287283" lon="7.8429183"><ele>47.0</ele><time>2026-04-23T12:56:37.359Z</time></trkpt><trkpt lat="33.9288833" lon="7.8427867"><ele>47.0</ele><time>2026-04-23T12:56:38.359Z</time></trkpt><trkpt lat="33.9290333" lon="7.8426567"><ele>47.0</ele><time>2026-04-23T12:56:39.359Z</time></trkpt><trkpt lat="33.9291867" lon="7.8425383"><ele>47.666666666666664</ele><time>2026-04-23T12:56:40.36Z</time></trkpt><trkpt lat="33.92935" lon="7.8424117"><ele>48.33333333333333</ele><time>2026-04-23T12:56:41.36Z</time></trkpt><trkpt lat="33.929515" lon="7.8422867"><ele>49.0</ele><time>2026-04-23T12:56:42.359Z</time></trkpt><trkpt lat="33.9296883" lon="7.8421683"><ele>49.0</ele><time>2026-04-23T12:56:43.359Z</time></trkpt><trkpt lat="33.929865" lon="7.842055"><ele>49.0</ele><time>2026-04-23T12:56:44.36Z</time></trkpt><trkpt lat="33.930045" lon="7.8419467"><ele>49.0</ele><time>2026-04-23T12:56:45.36Z</time></trkpt><trkpt lat="33.93023" lon="7.841845"><ele>48.666666666666664</ele><time>2026-04-23T12:56:46.359Z</time></trkpt><trkpt lat="33.93042" lon="7.8417567"><ele>48.33333333333333</ele><time>2026-04-23T12:56:47.36Z</time></trkpt><trkpt lat="33.9306133" lon="7.84168"><ele>48.0</ele><time>2026-04-23T12:56:48.36Z</time></trkpt><trkpt lat="33.9308067" lon="7.84159"><ele>48.33333333333333</ele><time>2026-04-23T12:56:49.36Z</time></trkpt><trkpt lat="33.9309983" lon="7.84149"><ele>48.666666666666664</ele><time>2026-04-23T12:56:50.359Z</time></trkpt><trkpt lat="33.931185" lon="7.8413917"><ele>49.0</ele><time>2026-04-23T12:56:51.36Z</time></trkpt><trkpt lat="33.9313717" lon="7.8413"><ele>49.0</ele><time>2026-04-23T12:56:52.36Z</time></trkpt><trkpt lat="33.9315483" lon="7.8412067"><ele>49.0</ele><time>2026-04-23T12:56:53.359Z</time></trkpt><trkpt lat="33.93173" lon="7.8411333"><ele>49.0</ele><time>2026-04-23T12:56:54.359Z</time></trkpt><trkpt lat="33.9319133" lon="7.8410767"><ele>48.666666666666664</ele><time>2026-04-23T12:56:55.359Z</time></trkpt><trkpt lat="33.932095" lon="7.8410383"><ele>48.33333333333333</ele><time>2026-04-23T12:56:56.359Z</time></trkpt><trkpt lat="33.9322783" lon="7.8410033"><ele>48.0</ele><time>2026-04-23T12:56:57.36Z</time></trkpt><trkpt lat="33.9324733" lon="7.84098"><ele>46.666666666666664</ele><time>2026-04-23T12:56:58.359Z</time></trkpt><trkpt lat="33.9326683" lon="7.840945"><ele>45.33333333333333</ele><time>2026-04-23T12:56:59.359Z</time></trkpt><trkpt lat="33.9328567" lon="7.8408767"><ele>44.0</ele><time>2026-04-23T12:57:00.359Z</time></trkpt><trkpt lat="33.93304" lon="7.840785"><ele>44.0</ele><time>2026-04-23T12:57:01.36Z</time></trkpt><trkpt lat="33.93322" lon="7.8406917"><ele>44.0</ele><time>2026-04-23T12:57:02.36Z</time></trkpt><trkpt lat="33.9333967" lon="7.8405917"><ele>44.0</ele><time>2026-04-23T12:57:03.36Z</time></trkpt><trkpt lat="33.9335783" lon="7.840475"><ele>43.666666666666664</ele><time>2026-04-23T12:57:04.36Z</time></trkpt><trkpt lat="33.93376" lon="7.8403733"><ele>43.333333333333336</ele><time>2026-04-23T12:57:05.359Z</time></trkpt><trkpt lat="33.933945" lon="7.8403"><ele>43.0</ele><time>2026-04-23T12:57:06.36Z</time></trkpt><trkpt lat="33.9341383" lon="7.8402383"><ele>41.333333333333336</ele><time>2026-04-23T12:57:07.359Z</time></trkpt><trkpt lat="33.9343383" lon="7.84019"><ele>39.666666666666664</ele><time>2026-04-23T12:57:08.36Z</time></trkpt><trkpt lat="33.9345317" lon="7.8401567"><ele>38.0</ele><time>2026-04-23T12:57:09.359Z</time></trkpt><trkpt lat="33.9347217" lon="7.8401383"><ele>37.666666666666664</ele><time>2026-04-23T12:57:10.359Z</time></trkpt><trkpt lat="33.9349117" lon="7.84012"><ele>37.333333333333336</ele><time>2026-04-23T12:57:11.36Z</time></trkpt><trkpt lat="33.9351083" lon="7.8400917"><ele>37.0</ele><time>2026-04-23T12:57:12.359Z</time></trkpt><trkpt lat="33.93531" lon="7.8400433"><ele>36.66666666666667</ele><time>2026-04-23T12:57:13.36Z</time></trkpt><trkpt lat="33.9355083" lon="7.8399783"><ele>36.333333333333336</ele><time>2026-04-23T12:57:14.359Z</time></trkpt><trkpt lat="33.9357017" lon="7.8399333"><ele>36.0</ele><time>2026-04-23T12:57:15.359Z</time></trkpt><trkpt lat="33.935905" lon="7.8398833"><ele>35.666666666666664</ele><time>2026-04-23T12:57:16.36Z</time></trkpt><trkpt lat="33.9361017" lon="7.8398433"><ele>35.33333333333333</ele><time>2026-04-23T12:57:17.359Z</time></trkpt><trkpt lat="33.9362983" lon="7.8398117"><ele>35.0</ele><time>2026-04-23T12:57:18.36Z</time></trkpt><trkpt lat="33.9364867" lon="7.839775"><ele>35.0</ele><time>2026-04-23T12:57:19.36Z</time></trkpt><trkpt lat="33.9366533" lon="7.8397233"><ele>35.0</ele><time>2026-04-23T12:57:20.359Z</time></trkpt><trkpt lat="33.9368033" lon="7.8396567"><ele>35.0</ele><time>2026-04-23T12:57:21.359Z</time></trkpt><trkpt lat="33.936945" lon="7.839575"><ele>34.0</ele><time>2026-04-23T12:57:22.359Z</time></trkpt><trkpt lat="33.9370933" lon="7.8394933"><ele>33.0</ele><time>2026-04-23T12:57:23.359Z</time></trkpt><trkpt lat="33.93724" lon="7.839405"><ele>32.0</ele><time>2026-04-23T12:57:24.359Z</time></trkpt><trkpt lat="33.9373967" lon="7.8393167"><ele>31.0</ele><time>2026-04-23T12:57:25.36Z</time></trkpt><trkpt lat="33.93756" lon="7.8392283"><ele>30.0</ele><time>2026-04-23T12:57:26.36Z</time></trkpt><trkpt lat="33.9377217" lon="7.8391367"><ele>29.0</ele><time>2026-04-23T12:57:27.359Z</time></trkpt><trkpt lat="33.9378883" lon="7.8390467"><ele>29.0</ele><time>2026-04-23T12:57:28.359Z</time></trkpt><trkpt lat="33.9380633" lon="7.8389583"><ele>29.0</ele><time>2026-04-23T12:57:29.359Z</time></trkpt><trkpt lat="33.9382533" lon="7.8388867"><ele>29.0</ele><time>2026-04-23T12:57:30.36Z</time></trkpt><trkpt lat="33.9384433" lon="7.838825"><ele>28.666666666666664</ele><time>2026-04-23T12:57:31.36Z</time></trkpt><trkpt lat="33.9386383" lon="7.8387867"><ele>28.333333333333336</ele><time>2026-04-23T12:57:32.359Z</time></trkpt><trkpt lat="33.9388217" lon="7.83876"><ele>28.0</ele><time>2026-04-23T12:57:33.359Z</time></trkpt><trkpt lat="33.939005" lon="7.838735"><ele>28.0</ele><time>2026-04-23T12:57:34.36Z</time></trkpt><trkpt lat="33.9391917" lon="7.8386867"><ele>28.0</ele><time>2026-04-23T12:57:35.359Z</time></trkpt><trkpt lat="33.9393783" lon="7.8386333"><ele>28.0</ele><time>2026-04-23T12:57:36.359Z</time></trkpt><trkpt lat="33.939575" lon="7.83856"><ele>27.333333333333336</ele><time>2026-04-23T12:57:37.36Z</time></trkpt><trkpt lat="33.9397683" lon="7.838485"><ele>26.666666666666664</ele><time>2026-04-23T12:57:38.359Z</time></trkpt><trkpt lat="33.939955" lon="7.8384167"><ele>26.0</ele><time>2026-04-23T12:57:39.36Z</time></trkpt><trkpt lat="33.94014" lon="7.83834"><ele>25.0</ele><time>2026-04-23T12:57:40.36Z</time></trkpt><trkpt lat="33.9403283" lon="7.8382633"><ele>24.0</ele><time>2026-04-23T12:57:41.359Z</time></trkpt><trkpt lat="33.940505" lon="7.83818"><ele>23.0</ele><time>2026-04-23T12:57:42.359Z</time></trkpt><trkpt lat="33.9406883" lon="7.8380883"><ele>23.0</ele><time>2026-04-23T12:57:43.36Z</time></trkpt><trkpt lat="33.940865" lon="7.8379967"><ele>23.0</ele><time>2026-04-23T12:57:44.359Z</time></trkpt><trkpt lat="33.9410483" lon="7.83791"><ele>23.0</ele><time>2026-04-23T12:57:45.36Z</time></trkpt><trkpt lat="33.9412283" lon="7.837825"><ele>22.333333333333336</ele><time>2026-04-23T12:57:46.359Z</time></trkpt><trkpt lat="33.9414133" lon="7.8377283"><ele>21.666666666666668</ele><time>2026-04-23T12:57:47.359Z</time></trkpt><trkpt lat="33.9415933" lon="7.8376283"><ele>21.0</ele><time>2026-04-23T12:57:48.359Z</time></trkpt><trkpt lat="33.9417783" lon="7.8375283"><ele>20.333333333333332</ele><time>2026-04-23T12:57:49.36Z</time></trkpt><trkpt lat="33.9419617" lon="7.837435"><ele>19.666666666666664</ele><time>2026-04-23T12:57:50.359Z</time></trkpt><trkpt lat="33.9421533" lon="7.8373567"><ele>19.0</ele><time>2026-04-23T12:57:51.36Z</time></trkpt><trkpt lat="33.94235" lon="7.8372867"><ele>19.0</ele><time>2026-04-23T12:57:52.359Z</time></trkpt><trkpt lat="33.9425433" lon="7.8372217"><ele>19.0</ele><time>2026-04-23T12:57:53.359Z</time></trkpt><trkpt lat="33.942745" lon="7.8371717"><ele>19.0</ele><time>2026-04-23T12:57:54.359Z</time></trkpt><trkpt lat="33.9429483" lon="7.837115"><ele>18.333333333333332</ele><time>2026-04-23T12:57:55.359Z</time></trkpt><trkpt lat="33.9431483" lon="7.8370633"><ele>17.666666666666668</ele><time>2026-04-23T12:57:56.359Z</time></trkpt><trkpt lat="33.9433467" lon="7.8370183"><ele>17.0</ele><time>2026-04-23T12:57:57.359Z</time></trkpt><trkpt lat="33.9435533" lon="7.8369667"><ele>17.0</ele><time>2026-04-23T12:57:58.359Z</time></trkpt><trkpt lat="33.9437633" lon="7.8368967"><ele>17.0</ele><time>2026-04-23T12:57:59.36Z</time></trkpt><trkpt lat="33.9439683" lon="7.8368333"><ele>17.0</ele><time>2026-04-23T12:58:00.36Z</time></trkpt><trkpt lat="33.94417" lon="7.8367733"><ele>17.666666666666668</ele><time>2026-04-23T12:58:01.359Z</time></trkpt><trkpt lat="33.9443717" lon="7.8367117"><ele>18.333333333333332</ele><time>2026-04-23T12:58:02.359Z</time></trkpt><trkpt lat="33.9445817" lon="7.8366417"><ele>19.0</ele><time>2026-04-23T12:58:03.359Z</time></trkpt><trkpt lat="33.9447817" lon="7.8365933"><ele>19.0</ele><time>2026-04-23T12:58:04.359Z</time></trkpt><trkpt lat="33.944965" lon="7.836545"><ele>19.0</ele><time>2026-04-23T12:58:05.36Z</time></trkpt><trkpt lat="33.94514" lon="7.8364917"><ele>19.0</ele><time>2026-04-23T12:58:06.36Z</time></trkpt><trkpt lat="33.9453" lon="7.8364383"><ele>19.0</ele><time>2026-04-23T12:58:07.359Z</time></trkpt><trkpt lat="33.9454567" lon="7.8363883"><ele>19.0</ele><time>2026-04-23T12:58:08.36Z</time></trkpt><trkpt lat="33.945625" lon="7.8363517"><ele>19.0</ele><time>2026-04-23T12:58:09.359Z</time></trkpt><trkpt lat="33.9457967" lon="7.8362983"><ele>18.0</ele><time>2026-04-23T12:58:10.36Z</time></trkpt><trkpt lat="33.9459683" lon="7.8362567"><ele>17.0</ele><time>2026-04-23T12:58:11.359Z</time></trkpt><trkpt lat="33.94614" lon="7.83622"><ele>16.0</ele><time>2026-04-23T12:58:12.36Z</time></trkpt><trkpt lat="33.9463183" lon="7.8361883"><ele>16.0</ele><time>2026-04-23T12:58:13.36Z</time></trkpt><trkpt lat="33.9464967" lon="7.8361483"><ele>16.0</ele><time>2026-04-23T12:58:14.36Z</time></trkpt><trkpt lat="33.946675" lon="7.8361167"><ele>16.0</ele><time>2026-04-23T12:58:15.36Z</time></trkpt><trkpt lat="33.9468617" lon="7.83608"><ele>16.0</ele><time>2026-04-23T12:58:16.359Z</time></trkpt><trkpt lat="33.947055" lon="7.8360367"><ele>16.0</ele><time>2026-04-23T12:58:17.358Z</time></trkpt><trkpt lat="33.9472417" lon="7.8359983"><ele>16.0</ele><time>2026-04-23T12:58:18.358Z</time></trkpt><trkpt lat="33.94743" lon="7.8359533"><ele>16.333333333333332</ele><time>2026-04-23T12:58:19.358Z</time></trkpt><trkpt lat="33.9476183" lon="7.8359167"><ele>16.666666666666668</ele><time>2026-04-23T12:58:20.358Z</time></trkpt><trkpt lat="33.947805" lon="7.8358767"><ele>17.0</ele><time>2026-04-23T12:58:21.359Z</time></trkpt><trkpt lat="33.9479917" lon="7.8358317"><ele>17.0</ele><time>2026-04-23T12:58:22.359Z</time></trkpt><trkpt lat="33.9481817" lon="7.83579"><ele>17.0</ele><time>2026-04-23T12:58:23.358Z</time></trkpt><trkpt lat="33.948365" lon="7.8357333"><ele>17.0</ele><time>2026-04-23T12:58:24.358Z</time></trkpt><trkpt lat="33.948545" lon="7.8356867"><ele>17.0</ele><time>2026-04-23T12:58:25.358Z</time></trkpt><trkpt lat="33.9487283" lon="7.83563"><ele>17.0</ele><time>2026-04-23T12:58:26.358Z</time></trkpt><trkpt lat="33.9489067" lon="7.8355617"><ele>17.0</ele><time>2026-04-23T12:58:27.359Z</time></trkpt><trkpt lat="33.94908" lon="7.8354817"><ele>16.333333333333336</ele><time>2026-04-23T12:58:28.358Z</time></trkpt><trkpt lat="33.949245" lon="7.8354117"><ele>15.666666666666668</ele><time>2026-04-23T12:58:29.359Z</time></trkpt><trkpt lat="33.949415" lon="7.835355"><ele>15.0</ele><time>2026-04-23T12:58:30.358Z</time></trkpt><trkpt lat="33.9495917" lon="7.8353017"><ele>15.0</ele><time>2026-04-23T12:58:31.359Z</time></trkpt><trkpt lat="33.94977" lon="7.8352733"><ele>15.0</ele><time>2026-04-23T12:58:32.358Z</time></trkpt><trkpt lat="33.9499433" lon="7.835285"><ele>15.0</ele><time>2026-04-23T12:58:33.359Z</time></trkpt><trkpt lat="33.9501167" lon="7.8353217"><ele>13.666666666666666</ele><time>2026-04-23T12:58:34.358Z</time></trkpt><trkpt lat="33.950295" lon="7.83538"><ele>12.333333333333332</ele><time>2026-04-23T12:58:35.358Z</time></trkpt><trkpt lat="33.9504517" lon="7.835475"><ele>11.0</ele><time>2026-04-23T12:58:36.359Z</time></trkpt><trkpt lat="33.95061" lon="7.8355733"><ele>11.0</ele><time>2026-04-23T12:58:37.358Z</time></trkpt><trkpt lat="33.950765" lon="7.835675"><ele>11.0</ele><time>2026-04-23T12:58:38.359Z</time></trkpt><trkpt lat="33.950915" lon="7.83578"><ele>11.0</ele><time>2026-04-23T12:58:39.358Z</time></trkpt><trkpt lat="33.9510633" lon="7.8358883"><ele>11.0</ele><time>2026-04-23T12:58:40.358Z</time></trkpt><trkpt lat="33.9512133" lon="7.8360033"><ele>11.0</ele><time>2026-04-23T12:58:41.358Z</time></trkpt><trkpt lat="33.9513633" lon="7.8361217"><ele>11.0</ele><time>2026-04-23T12:58:42.358Z</time></trkpt><trkpt lat="33.95152" lon="7.836235"><ele>11.0</ele><time>2026-04-23T12:58:43.359Z</time></trkpt><trkpt lat="33.9516817" lon="7.8363483"><ele>11.0</ele><time>2026-04-23T12:58:44.358Z</time></trkpt><trkpt lat="33.9518417" lon="7.8364483"><ele>11.0</ele><time>2026-04-23T12:58:45.359Z</time></trkpt><trkpt lat="33.9520017" lon="7.836555"><ele>10.666666666666666</ele><time>2026-04-23T12:58:46.358Z</time></trkpt><trkpt lat="33.9521683" lon="7.836655"><ele>10.333333333333334</ele><time>2026-04-23T12:58:47.359Z</time></trkpt><trkpt lat="33.9523333" lon="7.836765"><ele>10.0</ele><time>2026-04-23T12:58:48.359Z</time></trkpt><trkpt lat="33.9525033" lon="7.8368767"><ele>10.0</ele><time>2026-04-23T12:58:49.359Z</time></trkpt><trkpt lat="33.9526667" lon="7.8369867"><ele>10.0</ele><time>2026-04-23T12:58:50.359Z</time></trkpt><trkpt lat="33.95283" lon="7.8371"><ele>10.0</ele><time>2026-04-23T12:58:51.359Z</time></trkpt><trkpt lat="33.9529917" lon="7.8372217"><ele>10.0</ele><time>2026-04-23T12:58:52.358Z</time></trkpt><trkpt lat="33.9531583" lon="7.8373367"><ele>10.0</ele><time>2026-04-23T12:58:53.359Z</time></trkpt><trkpt lat="33.9533267" lon="7.837445"><ele>10.0</ele><time>2026-04-23T12:58:54.358Z</time></trkpt><trkpt lat="33.9534933" lon="7.8375517"><ele>9.333333333333334</ele><time>2026-04-23T12:58:55.358Z</time></trkpt><trkpt lat="33.9536617" lon="7.837655"><ele>8.666666666666666</ele><time>2026-04-23T12:58:56.359Z</time></trkpt><trkpt lat="33.95383" lon="7.837755"><ele>8.0</ele><time>2026-04-23T12:58:57.359Z</time></trkpt><trkpt lat="33.9540083" lon="7.837845"><ele>8.0</ele><time>2026-04-23T12:58:58.358Z</time></trkpt><trkpt lat="33.954185" lon="7.8379433"><ele>8.0</ele><time>2026-04-23T12:58:59.359Z</time></trkpt><trkpt lat="33.954355" lon="7.8380467"><ele>8.0</ele><time>2026-04-23T12:59:00.358Z</time></trkpt><trkpt lat="33.954525" lon="7.838155"><ele>8.0</ele><time>2026-04-23T12:59:01.358Z</time></trkpt><trkpt lat="33.9546933" lon="7.8382717"><ele>8.0</ele><time>2026-04-23T12:59:02.358Z</time></trkpt><trkpt lat="33.9548617" lon="7.83839"><ele>8.0</ele><time>2026-04-23T12:59:03.358Z</time></trkpt><trkpt lat="33.95503" lon="7.8385117"><ele>8.0</ele><time>2026-04-23T12:59:04.358Z</time></trkpt><trkpt lat="33.955195" lon="7.838635"><ele>8.0</ele><time>2026-04-23T12:59:05.358Z</time></trkpt><trkpt lat="33.9553683" lon="7.8387417"><ele>8.0</ele><time>2026-04-23T12:59:06.359Z</time></trkpt><trkpt lat="33.9555417" lon="7.8388533"><ele>8.0</ele><time>2026-04-23T12:59:07.358Z</time></trkpt><trkpt lat="33.9557133" lon="7.8389483"><ele>8.0</ele><time>2026-04-23T12:59:08.358Z</time></trkpt><trkpt lat="33.95589" lon="7.83903"><ele>8.0</ele><time>2026-04-23T12:59:09.358Z</time></trkpt><trkpt lat="33.9560717" lon="7.83911"><ele>7.666666666666666</ele><time>2026-04-23T12:59:10.358Z</time></trkpt><trkpt lat="33.9562617" lon="7.8391767"><ele>7.333333333333334</ele><time>2026-04-23T12:59:11.359Z</time></trkpt><trkpt lat="33.956455" lon="7.8392433"><ele>7.0</ele><time>2026-04-23T12:59:12.358Z</time></trkpt><trkpt lat="33.9566367" lon="7.8393233"><ele>7.0</ele><time>2026-04-23T12:59:13.358Z</time></trkpt><trkpt lat="33.95682" lon="7.8394133"><ele>7.0</ele><time>2026-04-23T12:59:14.359Z</time></trkpt><trkpt lat="33.9569983" lon="7.839515"><ele>7.0</ele><time>2026-04-23T12:59:15.359Z</time></trkpt><trkpt lat="33.95718" lon="7.83963"><ele>7.0</ele><time>2026-04-23T12:59:16.359Z</time></trkpt><trkpt lat="33.9573533" lon="7.8397517"><ele>7.0</ele><time>2026-04-23T12:59:17.358Z</time></trkpt><trkpt lat="33.9575267" lon="7.8398767"><ele>7.0</ele><time>2026-04-23T12:59:18.359Z</time></trkpt><trkpt lat="33.9576967" lon="7.83999"><ele>7.333333333333334</ele><time>2026-04-23T12:59:19.359Z</time></trkpt><trkpt lat="33.95787" lon="7.8400917"><ele>7.666666666666666</ele><time>2026-04-23T12:59:20.358Z</time></trkpt><trkpt lat="33.9580483" lon="7.8401917"><ele>8.0</ele><time>2026-04-23T12:59:21.358Z</time></trkpt><trkpt lat="33.95823" lon="7.8402933"><ele>7.666666666666666</ele><time>2026-04-23T12:59:22.359Z</time></trkpt><trkpt lat="33.9584133" lon="7.840395"><ele>7.333333333333334</ele><time>2026-04-23T12:59:23.359Z</time></trkpt><trkpt lat="33.9585933" lon="7.840505"><ele>7.0</ele><time>2026-04-23T12:59:24.359Z</time></trkpt><trkpt lat="33.958775" lon="7.8406367"><ele>7.0</ele><time>2026-04-23T12:59:25.358Z</time></trkpt><trkpt lat="33.9589417" lon="7.8407733"><ele>7.0</ele><time>2026-04-23T12:59:26.358Z</time></trkpt><trkpt lat="33.9591017" lon="7.84092"><ele>7.0</ele><time>2026-04-23T12:59:27.358Z</time></trkpt><trkpt lat="33.9592533" lon="7.8410667"><ele>7.333333333333334</ele><time>2026-04-23T12:59:28.359Z</time></trkpt><trkpt lat="33.9593933" lon="7.8412233"><ele>7.666666666666666</ele><time>2026-04-23T12:59:29.358Z</time></trkpt><trkpt lat="33.9595267" lon="7.8413917"><ele>8.0</ele><time>2026-04-23T12:59:30.358Z</time></trkpt><trkpt lat="33.95965" lon="7.84157"><ele>8.0</ele><time>2026-04-23T12:59:31.358Z</time></trkpt><trkpt lat="33.9597867" lon="7.8417433"><ele>8.0</ele><time>2026-04-23T12:59:32.358Z</time></trkpt><trkpt lat="33.9599283" lon="7.841915"><ele>8.0</ele><time>2026-04-23T12:59:33.358Z</time></trkpt><trkpt lat="33.9600767" lon="7.8420683"><ele>7.0</ele><time>2026-04-23T12:59:34.359Z</time></trkpt><trkpt lat="33.9602367" lon="7.8422233"><ele>6.0</ele><time>2026-04-23T12:59:35.359Z</time></trkpt><trkpt lat="33.960405" lon="7.8423667"><ele>5.0</ele><time>2026-04-23T12:59:36.358Z</time></trkpt><trkpt lat="33.9605817" lon="7.8424967"><ele>5.0</ele><time>2026-04-23T12:59:37.359Z</time></trkpt><trkpt lat="33.9607583" lon="7.842625"><ele>5.0</ele><time>2026-04-23T12:59:38.359Z</time></trkpt><trkpt lat="33.9609383" lon="7.842745"><ele>5.0</ele><time>2026-04-23T12:59:39.358Z</time></trkpt><trkpt lat="33.9611217" lon="7.8428767"><ele>5.333333333333334</ele><time>2026-04-23T12:59:40.358Z</time></trkpt><trkpt lat="33.961305" lon="7.8430133"><ele>5.666666666666667</ele><time>2026-04-23T12:59:41.358Z</time></trkpt><trkpt lat="33.96149" lon="7.8431367"><ele>6.0</ele><time>2026-04-23T12:59:42.358Z</time></trkpt><trkpt lat="33.96168" lon="7.8432533"><ele>6.0</ele><time>2026-04-23T12:59:43.358Z</time></trkpt><trkpt lat="33.9618733" lon="7.8433667"><ele>6.0</ele><time>2026-04-23T12:59:44.359Z</time></trkpt><trkpt lat="33.962065" lon="7.8434783"><ele>6.0</ele><time>2026-04-23T12:59:45.358Z</time></trkpt><trkpt lat="33.9622567" lon="7.8435867"><ele>6.0</ele><time>2026-04-23T12:59:46.359Z</time></trkpt><trkpt lat="33.96245" lon="7.8436917"><ele>6.0</ele><time>2026-04-23T12:59:47.359Z</time></trkpt><trkpt lat="33.9626433" lon="7.8437933"><ele>6.0</ele><time>2026-04-23T12:59:48.358Z</time></trkpt><trkpt lat="33.9628367" lon="7.8439"><ele>6.0</ele><time>2026-04-23T12:59:49.358Z</time></trkpt><trkpt lat="33.96303" lon="7.8440083"><ele>6.0</ele><time>2026-04-23T12:59:50.358Z</time></trkpt><trkpt lat="33.96323" lon="7.8441133"><ele>6.0</ele><time>2026-04-23T12:59:51.358Z</time></trkpt><trkpt lat="33.9634283" lon="7.8442267"><ele>5.333333333333333</ele><time>2026-04-23T12:59:52.359Z</time></trkpt><trkpt lat="33.9636283" lon="7.8443383"><ele>4.666666666666666</ele><time>2026-04-23T12:59:53.358Z</time></trkpt><trkpt lat="33.9638267" lon="7.8444583"><ele>4.0</ele><time>2026-04-23T12:59:54.358Z</time></trkpt><trkpt lat="33.964025" lon="7.8445867"><ele>3.5</ele><time>2026-04-23T12:59:55.358Z</time></trkpt><trkpt lat="33.9642217" lon="7.8447183"><ele>3.0</ele><time>2026-04-23T12:59:56.358Z</time></trkpt><trkpt lat="33.9644233" lon="7.8448517"><ele>3.0</ele><time>2026-04-23T12:59:57.359Z</time></trkpt><trkpt lat="33.96462" lon="7.84499"><ele>3.0</ele><time>2026-04-23T12:59:58.358Z</time></trkpt><trkpt lat="33.96481" lon="7.8451267"><ele>3.0</ele><time>2026-04-23T12:59:59.359Z</time></trkpt><trkpt lat="33.9650017" lon="7.845255"><ele>3.666666666666667</ele><time>2026-04-23T13:00:00.358Z</time></trkpt><trkpt lat="33.9651983" lon="7.8453833"><ele>4.333333333333334</ele><time>2026-04-23T13:00:01.358Z</time></trkpt><trkpt lat="33.9653983" lon="7.8455"><ele>5.0</ele><time>2026-04-23T13:00:02.359Z</time></trkpt><trkpt lat="33.9655967" lon="7.8456183"><ele>5.0</ele><time>2026-04-23T13:00:03.359Z</time></trkpt><trkpt lat="33.9657967" lon="7.8457267"><ele>5.0</ele><time>2026-04-23T13:00:04.359Z</time></trkpt><trkpt lat="33.9659983" lon="7.845835"><ele>5.0</ele><time>2026-04-23T13:00:05.359Z</time></trkpt><trkpt lat="33.9662067" lon="7.8459317"><ele>5.333333333333334</ele><time>2026-04-23T13:00:06.359Z</time></trkpt><trkpt lat="33.9664133" lon="7.846035"><ele>5.666666666666667</ele><time>2026-04-23T13:00:07.358Z</time></trkpt><trkpt lat="33.9666167" lon="7.8461283"><ele>6.0</ele><time>2026-04-23T13:00:08.358Z</time></trkpt><trkpt lat="33.9668217" lon="7.846235"><ele>5.333333333333333</ele><time>2026-04-23T13:00:09.359Z</time></trkpt><trkpt lat="33.9670283" lon="7.8463367"><ele>4.666666666666666</ele><time>2026-04-23T13:00:10.359Z</time></trkpt><trkpt lat="33.967235" lon="7.84644"><ele>4.0</ele><time>2026-04-23T13:00:11.359Z</time></trkpt><trkpt lat="33.9674417" lon="7.8465417"><ele>4.0</ele><time>2026-04-23T13:00:12.358Z</time></trkpt><trkpt lat="33.9676533" lon="7.8466367"><ele>4.0</ele><time>2026-04-23T13:00:13.358Z</time></trkpt><trkpt lat="33.96787" lon="7.846725"><ele>4.5</ele><time>2026-04-23T13:00:14.359Z</time></trkpt><trkpt lat="33.9680817" lon="7.8468133"><ele>5.0</ele><time>2026-04-23T13:00:15.359Z</time></trkpt><trkpt lat="33.9683017" lon="7.8469133"><ele>4.0</ele><time>2026-04-23T13:00:16.358Z</time></trkpt><trkpt lat="33.9685133" lon="7.8470217"><ele>3.0</ele><time>2026-04-23T13:00:17.358Z</time></trkpt><trkpt lat="33.96872" lon="7.847135"><ele>3.0</ele><time>2026-04-23T13:00:18.358Z</time></trkpt><trkpt lat="33.968925" lon="7.8472417"><ele>3.0</ele><time>2026-04-23T13:00:19.358Z</time></trkpt><trkpt lat="33.96912" lon="7.8473683"><ele>3.0</ele><time>2026-04-23T13:00:20.359Z</time></trkpt><trkpt lat="33.9693217" lon="7.8474817"><ele>3.0</ele><time>2026-04-23T13:00:21.358Z</time></trkpt><trkpt lat="33.969525" lon="7.8475933"><ele>3.0</ele><time>2026-04-23T13:00:22.359Z</time></trkpt><trkpt lat="33.9697283" lon="7.8477067"><ele>3.0</ele><time>2026-04-23T13:00:23.359Z</time></trkpt><trkpt lat="33.9699283" lon="7.8478233"><ele>3.0</ele><time>2026-04-23T13:00:24.359Z</time></trkpt><trkpt lat="33.9701217" lon="7.847935"><ele>3.0</ele><time>2026-04-23T13:00:25.359Z</time></trkpt><trkpt lat="33.9703217" lon="7.84804"><ele>3.0</ele><time>2026-04-23T13:00:26.359Z</time></trkpt><trkpt lat="33.970525" lon="7.8481567"><ele>3.0</ele><time>2026-04-23T13:00:27.358Z</time></trkpt><trkpt lat="33.9707283" lon="7.8482733"><ele>3.0</ele><time>2026-04-23T13:00:28.359Z</time></trkpt><trkpt lat="33.9709333" lon="7.8484033"><ele>2.6666666666666665</ele><time>2026-04-23T13:00:29.358Z</time></trkpt><trkpt lat="33.971135" lon="7.8485233"><ele>2.333333333333333</ele><time>2026-04-23T13:00:30.359Z</time></trkpt><trkpt lat="33.9713317" lon="7.84865"><ele>2.0</ele><time>2026-04-23T13:00:31.358Z</time></trkpt><trkpt lat="33.9715283" lon="7.848775"><ele>1.3333333333333333</ele><time>2026-04-23T13:00:32.358Z</time></trkpt><trkpt lat="33.9717217" lon="7.8488917"><ele>0.6666666666666666</ele><time>2026-04-23T13:00:33.358Z</time></trkpt><trkpt lat="33.9719167" lon="7.8490183"><ele>0.0</ele><time>2026-04-23T13:00:34.358Z</time></trkpt><trkpt lat="33.9721117" lon="7.8491483"><ele>0.0</ele><time>2026-04-23T13:00:35.358Z</time></trkpt><trkpt lat="33.9722983" lon="7.8492767"><ele>0.0</ele><time>2026-04-23T13:00:36.359Z</time></trkpt><trkpt lat="33.972485" lon="7.849415"><ele>0.0</ele><time>2026-04-23T13:00:37.359Z</time></trkpt><trkpt lat="33.9726767" lon="7.8495483"><ele>0.6666666666666666</ele><time>2026-04-23T13:00:38.359Z</time></trkpt><trkpt lat="33.9728683" lon="7.8496717"><ele>1.3333333333333333</ele><time>2026-04-23T13:00:39.358Z</time></trkpt><trkpt lat="33.973065" lon="7.849785"><ele>2.0</ele><time>2026-04-23T13:00:40.359Z</time></trkpt><trkpt lat="33.9732583" lon="7.8498983"><ele>2.0</ele><time>2026-04-23T13:00:41.359Z</time></trkpt><trkpt lat="33.9734533" lon="7.850005"><ele>2.0</ele><time>2026-04-23T13:00:42.358Z</time></trkpt><trkpt lat="33.97365" lon="7.8501183"><ele>2.0</ele><time>2026-04-23T13:00:43.359Z</time></trkpt><trkpt lat="33.97384" lon="7.85023"><ele>2.0</ele><time>2026-04-23T13:00:44.358Z</time></trkpt><trkpt lat="33.9740283" lon="7.8503467"><ele>2.0</ele><time>2026-04-23T13:00:45.358Z</time></trkpt><trkpt lat="33.9742133" lon="7.8504717"><ele>2.0</ele><time>2026-04-23T13:00:46.358Z</time></trkpt><trkpt lat="33.974395" lon="7.8506067"><ele>2.333333333333333</ele><time>2026-04-23T13:00:47.358Z</time></trkpt><trkpt lat="33.9745717" lon="7.8507567"><ele>2.6666666666666665</ele><time>2026-04-23T13:00:48.359Z</time></trkpt><trkpt lat="33.974745" lon="7.8508967"><ele>3.0</ele><time>2026-04-23T13:00:49.359Z</time></trkpt><trkpt lat="33.9749117" lon="7.8510467"><ele>2.0</ele><time>2026-04-23T13:00:50.359Z</time></trkpt><trkpt lat="33.9750783" lon="7.8511983"><ele>1.0</ele><time>2026-04-23T13:00:51.358Z</time></trkpt><trkpt lat="33.975255" lon="7.851355"><ele>0.0</ele><time>2026-04-23T13:00:52.359Z</time></trkpt><trkpt lat="33.97543" lon="7.8515"><ele>0.0</ele><time>2026-04-23T13:00:53.358Z</time></trkpt><trkpt lat="33.9756083" lon="7.85164"><ele>0.0</ele><time>2026-04-23T13:00:54.358Z</time></trkpt><trkpt lat="33.975785" lon="7.8517817"><ele>0.0</ele><time>2026-04-23T13:00:55.359Z</time></trkpt><trkpt lat="33.9759617" lon="7.8519283"><ele>-0.3333333333333333</ele><time>2026-04-23T13:00:56.359Z</time></trkpt><trkpt lat="33.976135" lon="7.8520767"><ele>-0.6666666666666666</ele><time>2026-04-23T13:00:57.358Z</time></trkpt><trkpt lat="33.9763133" lon="7.85222"><ele>-1.0</ele><time>2026-04-23T13:00:58.358Z</time></trkpt><trkpt lat="33.9764967" lon="7.8523517"><ele>-1.0</ele><time>2026-04-23T13:00:59.359Z</time></trkpt><trkpt lat="33.9766833" lon="7.8524767"><ele>-1.0</ele><time>2026-04-23T13:01:00.358Z</time></trkpt><trkpt lat="33.976875" lon="7.8526017"><ele>-1.0</ele><time>2026-04-23T13:01:01.358Z</time></trkpt><trkpt lat="33.9770617" lon="7.8527283"><ele>0.0</ele><time>2026-04-23T13:01:02.358Z</time></trkpt><trkpt lat="33.9772533" lon="7.8528467"><ele>1.0</ele><time>2026-04-23T13:01:03.358Z</time></trkpt><trkpt lat="33.9774467" lon="7.8529583"><ele>2.0</ele><time>2026-04-23T13:01:04.358Z</time></trkpt><trkpt lat="33.9776433" lon="7.8530783"><ele>2.0</ele><time>2026-04-23T13:01:05.359Z</time></trkpt><trkpt lat="33.9778367" lon="7.853205"><ele>2.0</ele><time>2026-04-23T13:01:06.358Z</time></trkpt><trkpt lat="33.9780283" lon="7.85333"><ele>2.0</ele><time>2026-04-23T13:01:07.358Z</time></trkpt><trkpt lat="33.9782167" lon="7.853465"><ele>1.0</ele><time>2026-04-23T13:01:08.358Z</time></trkpt><trkpt lat="33.9784017" lon="7.8535983"><ele>0.0</ele><time>2026-04-23T13:01:09.359Z</time></trkpt><trkpt lat="33.9785817" lon="7.8537233"><ele>-1.0</ele><time>2026-04-23T13:01:10.359Z</time></trkpt><trkpt lat="33.9787683" lon="7.8538517"><ele>-1.0</ele><time>2026-04-23T13:01:11.358Z</time></trkpt><trkpt lat="33.9789533" lon="7.8539717"><ele>-1.0</ele><time>2026-04-23T13:01:12.358Z</time></trkpt><trkpt lat="33.9791433" lon="7.8540733"><ele>-1.0</ele><time>2026-04-23T13:01:13.358Z</time></trkpt><trkpt lat="33.9793367" lon="7.8541733"><ele>-1.0</ele><time>2026-04-23T13:01:14.359Z</time></trkpt><trkpt lat="33.97954" lon="7.8542583"><ele>-1.0</ele><time>2026-04-23T13:01:15.358Z</time></trkpt><trkpt lat="33.97975" lon="7.8543367"><ele>-1.0</ele><time>2026-04-23T13:01:16.359Z</time></trkpt><trkpt lat="33.9799583" lon="7.8544233"><ele>-1.0</ele><time>2026-04-23T13:01:17.358Z</time></trkpt><trkpt lat="33.9801617" lon="7.8545067"><ele>-1.0</ele><time>2026-04-23T13:01:18.359Z</time></trkpt><trkpt lat="33.9803583" lon="7.8545933"><ele>-1.0</ele><time>2026-04-23T13:01:19.359Z</time></trkpt><trkpt lat="33.98056" lon="7.854685"><ele>-1.0</ele><time>2026-04-23T13:01:20.358Z</time></trkpt><trkpt lat="33.98076" lon="7.8547783"><ele>-1.0</ele><time>2026-04-23T13:01:21.359Z</time></trkpt><trkpt lat="33.980965" lon="7.8548617"><ele>-1.0</ele><time>2026-04-23T13:01:22.359Z</time></trkpt><trkpt lat="33.9811767" lon="7.8549217"><ele>-0.3333333333333333</ele><time>2026-04-23T13:01:23.358Z</time></trkpt><trkpt lat="33.98139" lon="7.8549883"><ele>0.3333333333333333</ele><time>2026-04-23T13:01:24.358Z</time></trkpt><trkpt lat="33.98161" lon="7.8550483"><ele>1.0</ele><time>2026-04-23T13:01:25.359Z</time></trkpt><trkpt lat="33.9818217" lon="7.8550983"><ele>0.6666666666666666</ele><time>2026-04-23T13:01:26.358Z</time></trkpt><trkpt lat="33.9820283" lon="7.8551333"><ele>0.3333333333333333</ele><time>2026-04-23T13:01:27.357Z</time></trkpt><trkpt lat="33.982235" lon="7.855155"><ele>0.0</ele><time>2026-04-23T13:01:28.358Z</time></trkpt><trkpt lat="33.98245" lon="7.8551633"><ele>1.0</ele><time>2026-04-23T13:01:29.358Z</time></trkpt><trkpt lat="33.9826617" lon="7.855165"><ele>2.0</ele><time>2026-04-23T13:01:30.358Z</time></trkpt><trkpt lat="33.9828733" lon="7.85517"><ele>3.0</ele><time>2026-04-23T13:01:31.357Z</time></trkpt><trkpt lat="33.9830783" lon="7.85518"><ele>3.0</ele><time>2026-04-23T13:01:32.357Z</time></trkpt><trkpt lat="33.9832833" lon="7.855185"><ele>3.0</ele><time>2026-04-23T13:01:33.357Z</time></trkpt><trkpt lat="33.983485" lon="7.855205"><ele>3.0</ele><time>2026-04-23T13:01:34.357Z</time></trkpt><trkpt lat="33.9836817" lon="7.8552333"><ele>3.333333333333333</ele><time>2026-04-23T13:01:35.357Z</time></trkpt><trkpt lat="33.9838717" lon="7.8552683"><ele>3.6666666666666665</ele><time>2026-04-23T13:01:36.357Z</time></trkpt><trkpt lat="33.9840517" lon="7.85531"><ele>4.0</ele><time>2026-04-23T13:01:37.358Z</time></trkpt><trkpt lat="33.9842083" lon="7.8553417"><ele>4.0</ele><time>2026-04-23T13:01:38.357Z</time></trkpt><trkpt lat="33.98435" lon="7.8553483"><ele>4.0</ele><time>2026-04-23T13:01:39.357Z</time></trkpt><trkpt lat="33.9844833" lon="7.8553317"><ele>4.0</ele><time>2026-04-23T13:01:40.358Z</time></trkpt><trkpt lat="33.9846117" lon="7.8552917"><ele>4.0</ele><time>2026-04-23T13:01:41.357Z</time></trkpt><trkpt lat="33.98474" lon="7.855245"><ele>4.0</ele><time>2026-04-23T13:01:42.358Z</time></trkpt><trkpt lat="33.9848733" lon="7.8551767"><ele>4.0</ele><time>2026-04-23T13:01:43.358Z</time></trkpt><trkpt lat="33.9849983" lon="7.8550883"><ele>4.0</ele><time>2026-04-23T13:01:44.358Z</time></trkpt><trkpt lat="33.9851317" lon="7.8549867"><ele>4.0</ele><time>2026-04-23T13:01:45.357Z</time></trkpt><trkpt lat="33.9852667" lon="7.8548817"><ele>3.0</ele><time>2026-04-23T13:01:46.357Z</time></trkpt><trkpt lat="33.9854033" lon="7.8547717"><ele>2.0</ele><time>2026-04-23T13:01:47.357Z</time></trkpt><trkpt lat="33.9855383" lon="7.85467"><ele>1.0</ele><time>2026-04-23T13:01:48.358Z</time></trkpt><trkpt lat="33.9856867" lon="7.854565"><ele>1.0</ele><time>2026-04-23T13:01:49.358Z</time></trkpt><trkpt lat="33.9858367" lon="7.8544517"><ele>1.0</ele><time>2026-04-23T13:01:50.358Z</time></trkpt><trkpt lat="33.985995" lon="7.8543517"><ele>1.0</ele><time>2026-04-23T13:01:51.358Z</time></trkpt><trkpt lat="33.9861467" lon="7.8542533"><ele>0.0</ele><time>2026-04-23T13:01:52.357Z</time></trkpt><trkpt lat="33.9863033" lon="7.8541467"><ele>-1.0</ele><time>2026-04-23T13:01:53.357Z</time></trkpt><trkpt lat="33.9864667" lon="7.854045"><ele>-2.0</ele><time>2026-04-23T13:01:54.357Z</time></trkpt><trkpt lat="33.986625" lon="7.8539317"><ele>-1.6666666666666665</ele><time>2026-04-23T13:01:55.357Z</time></trkpt><trkpt lat="33.986755" lon="7.8537967"><ele>-1.3333333333333333</ele><time>2026-04-23T13:01:56.357Z</time></trkpt><trkpt lat="33.9868883" lon="7.85364"><ele>-1.0</ele><time>2026-04-23T13:01:57.357Z</time></trkpt><trkpt lat="33.9870033" lon="7.8534783"><ele>-0.6666666666666666</ele><time>2026-04-23T13:01:58.357Z</time></trkpt><trkpt lat="33.9871067" lon="7.8533067"><ele>-0.3333333333333333</ele><time>2026-04-23T13:01:59.357Z</time></trkpt><trkpt lat="33.9871817" lon="7.85312"><ele>0.0</ele><time>2026-04-23T13:02:00.357Z</time></trkpt><trkpt lat="33.987235" lon="7.85292"><ele>0.0</ele><time>2026-04-23T13:02:01.358Z</time></trkpt><trkpt lat="33.9872733" lon="7.8527217"><ele>0.0</ele><time>2026-04-23T13:02:02.358Z</time></trkpt><trkpt lat="33.9873183" lon="7.8525383"><ele>0.0</ele><time>2026-04-23T13:02:03.358Z</time></trkpt><trkpt lat="33.9873567" lon="7.8523633"><ele>0.3333333333333333</ele><time>2026-04-23T13:02:04.358Z</time></trkpt><trkpt lat="33.987385" lon="7.85218"><ele>0.6666666666666666</ele><time>2026-04-23T13:02:05.358Z</time></trkpt><trkpt lat="33.987415" lon="7.8519967"><ele>1.0</ele><time>2026-04-23T13:02:06.357Z</time></trkpt><trkpt lat="33.9874483" lon="7.8518233"><ele>1.0</ele><time>2026-04-23T13:02:07.358Z</time></trkpt><trkpt lat="33.9874683" lon="7.8516483"><ele>1.0</ele><time>2026-04-23T13:02:08.358Z</time></trkpt><trkpt lat="33.9875017" lon="7.85148"><ele>1.0</ele><time>2026-04-23T13:02:09.358Z</time></trkpt><trkpt lat="33.9875383" lon="7.8513217"><ele>1.0</ele><time>2026-04-23T13:02:10.358Z</time></trkpt><trkpt lat="33.9875683" lon="7.8511617"><ele>0.25</ele><time>2026-04-23T13:02:11.357Z</time></trkpt><trkpt lat="33.9876017" lon="7.8510083"><ele>-0.5</ele><time>2026-04-23T13:02:12.357Z</time></trkpt><trkpt lat="33.9876567" lon="7.8508633"><ele>-1.25</ele><time>2026-04-23T13:02:13.358Z</time></trkpt><trkpt lat="33.98773" lon="7.85072"><ele>-2.0</ele><time>2026-04-23T13:02:14.358Z</time></trkpt><trkpt lat="33.9878033" lon="7.8505817"><ele>-2.0</ele><time>2026-04-23T13:02:15.357Z</time></trkpt><trkpt lat="33.9878967" lon="7.8504633"><ele>-2.0</ele><time>2026-04-23T13:02:16.357Z</time></trkpt><trkpt lat="33.98799" lon="7.85035"><ele>-2.0</ele><time>2026-04-23T13:02:17.357Z</time></trkpt><trkpt lat="33.9880833" lon="7.85025"><ele>-2.0</ele><time>2026-04-23T13:02:18.357Z</time></trkpt><trkpt lat="33.9881733" lon="7.8501633"><ele>-2.0</ele><time>2026-04-23T13:02:19.357Z</time></trkpt><trkpt lat="33.9882533" lon="7.8500767"><ele>-2.0</ele><time>2026-04-23T13:02:20.358Z</time></trkpt><trkpt lat="33.988335" lon="7.8499967"><ele>-2.0</ele><time>2026-04-23T13:02:21.357Z</time></trkpt><trkpt lat="33.9884233" lon="7.8499167"><ele>-2.0</ele><time>2026-04-23T13:02:22.357Z</time></trkpt><trkpt lat="33.988515" lon="7.8498333"><ele>-2.0</ele><time>2026-04-23T13:02:23.358Z</time></trkpt><trkpt lat="33.9886083" lon="7.8497433"><ele>-2.0</ele><time>2026-04-23T13:02:24.358Z</time></trkpt><trkpt lat="33.9887" lon="7.8496433"><ele>-2.0</ele><time>2026-04-23T13:02:25.357Z</time></trkpt><trkpt lat="33.9887967" lon="7.8495383"><ele>-2.0</ele><time>2026-04-23T13:02:26.358Z</time></trkpt><trkpt lat="33.9888883" lon="7.8494283"><ele>-2.0</ele><time>2026-04-23T13:02:27.357Z</time></trkpt><trkpt lat="33.9889783" lon="7.849315"><ele>-3.0</ele><time>2026-04-23T13:02:28.358Z</time></trkpt><trkpt lat="33.98907" lon="7.8492033"><ele>-4.0</ele><time>2026-04-23T13:02:29.357Z</time></trkpt><trkpt lat="33.9891633" lon="7.8490917"><ele>-5.0</ele><time>2026-04-23T13:02:30.357Z</time></trkpt><trkpt lat="33.98926" lon="7.8489783"><ele>-6.0</ele><time>2026-04-23T13:02:31.358Z</time></trkpt><trkpt lat="33.9893617" lon="7.848865"><ele>-6.0</ele><time>2026-04-23T13:02:32.357Z</time></trkpt><trkpt lat="33.989455" lon="7.8487467"><ele>-6.0</ele><time>2026-04-23T13:02:33.358Z</time></trkpt><trkpt lat="33.9895617" lon="7.8486217"><ele>-6.0</ele><time>2026-04-23T13:02:34.357Z</time></trkpt><trkpt lat="33.989665" lon="7.8485"><ele>-6.0</ele><time>2026-04-23T13:02:35.357Z</time></trkpt><trkpt lat="33.989765" lon="7.8483783"><ele>-6.25</ele><time>2026-04-23T13:02:36.357Z</time></trkpt><trkpt lat="33.9898667" lon="7.8482583"><ele>-6.5</ele><time>2026-04-23T13:02:37.357Z</time></trkpt><trkpt lat="33.9899733" lon="7.8481417"><ele>-6.75</ele><time>2026-04-23T13:02:38.358Z</time></trkpt><trkpt lat="33.990075" lon="7.84803"><ele>-7.0</ele><time>2026-04-23T13:02:39.357Z</time></trkpt><trkpt lat="33.9901667" lon="7.847925"><ele>-7.0</ele><time>2026-04-23T13:02:40.357Z</time></trkpt><trkpt lat="33.990245" lon="7.8478333"><ele>-6.999999999999999</ele><time>2026-04-23T13:02:41.358Z</time></trkpt><trkpt lat="33.99032" lon="7.84775"><ele>-6.999999999999999</ele><time>2026-04-23T13:02:42.358Z</time></trkpt><trkpt lat="33.9903817" lon="7.8476717"><ele>-7.0</ele><time>2026-04-23T13:02:43.357Z</time></trkpt><trkpt lat="33.990435" lon="7.8475983"><ele>-7.0</ele><time>2026-04-23T13:02:44.357Z</time></trkpt><trkpt lat="33.9904983" lon="7.84753"><ele>-6.8</ele><time>2026-04-23T13:02:45.357Z</time></trkpt><trkpt lat="33.9905617" lon="7.8474533"><ele>-6.6</ele><time>2026-04-23T13:02:46.358Z</time></trkpt><trkpt lat="33.9906283" lon="7.8473783"><ele>-6.3999999999999995</ele><time>2026-04-23T13:02:47.357Z</time></trkpt><trkpt lat="33.99069" lon="7.8472933"><ele>-6.199999999999999</ele><time>2026-04-23T13:02:48.357Z</time></trkpt><trkpt lat="33.9907533" lon="7.8472067"><ele>-6.0</ele><time>2026-04-23T13:02:49.357Z</time></trkpt><trkpt lat="33.9908083" lon="7.847115"><ele>-6.0</ele><time>2026-04-23T13:02:50.357Z</time></trkpt><trkpt lat="33.9908667" lon="7.84702"><ele>-6.0</ele><time>2026-04-23T13:02:51.358Z</time></trkpt><trkpt lat="33.9909267" lon="7.8469233"><ele>-6.0</ele><time>2026-04-23T13:02:52.357Z</time></trkpt><trkpt lat="33.99098" lon="7.8468233"><ele>-6.0</ele><time>2026-04-23T13:02:53.358Z</time></trkpt><trkpt lat="33.991045" lon="7.8467183"><ele>-6.0</ele><time>2026-04-23T13:02:54.358Z</time></trkpt><trkpt lat="33.9911067" lon="7.84662"><ele>-6.0</ele><time>2026-04-23T13:02:55.358Z</time></trkpt><trkpt lat="33.9911667" lon="7.8465267"><ele>-6.0</ele><time>2026-04-23T13:02:56.357Z</time></trkpt><trkpt lat="33.991235" lon="7.8464317"><ele>-6.0</ele><time>2026-04-23T13:02:57.357Z</time></trkpt><trkpt lat="33.991305" lon="7.8463383"><ele>-6.0</ele><time>2026-04-23T13:02:58.358Z</time></trkpt><trkpt lat="33.99138" lon="7.84624"><ele>-6.0</ele><time>2026-04-23T13:02:59.357Z</time></trkpt><trkpt lat="33.9914517" lon="7.84614"><ele>-6.0</ele><time>2026-04-23T13:03:00.358Z</time></trkpt><trkpt lat="33.9915217" lon="7.846035"><ele>-6.0</ele><time>2026-04-23T13:03:01.358Z</time></trkpt><trkpt lat="33.9915917" lon="7.8459383"><ele>-6.0</ele><time>2026-04-23T13:03:02.357Z</time></trkpt><trkpt lat="33.9916633" lon="7.84584"><ele>-6.0</ele><time>2026-04-23T13:03:03.358Z</time></trkpt><trkpt lat="33.9917417" lon="7.8457383"><ele>-6.0</ele><time>2026-04-23T13:03:04.358Z</time></trkpt><trkpt lat="33.9918217" lon="7.84564"><ele>-6.6</ele><time>2026-04-23T13:03:05.358Z</time></trkpt><trkpt lat="33.9918933" lon="7.84554"><ele>-7.199999999999999</ele><time>2026-04-23T13:03:06.358Z</time></trkpt><trkpt lat="33.9919633" lon="7.8454417"><ele>-7.800000000000001</ele><time>2026-04-23T13:03:07.358Z</time></trkpt><trkpt lat="33.9920317" lon="7.8453367"><ele>-8.4</ele><time>2026-04-23T13:03:08.358Z</time></trkpt><trkpt lat="33.9920983" lon="7.8452283"><ele>-9.0</ele><time>2026-04-23T13:03:09.357Z</time></trkpt><trkpt lat="33.992165" lon="7.8451183"><ele>-9.0</ele><time>2026-04-23T13:03:10.358Z</time></trkpt><trkpt lat="33.9922233" lon="7.845005"><ele>-9.0</ele><time>2026-04-23T13:03:11.357Z</time></trkpt><trkpt lat="33.99228" lon="7.8448983"><ele>-9.0</ele><time>2026-04-23T13:03:12.358Z</time></trkpt><trkpt lat="33.9923417" lon="7.8448"><ele>-9.0</ele><time>2026-04-23T13:03:13.357Z</time></trkpt><trkpt lat="33.9924083" lon="7.844705"><ele>-9.0</ele><time>2026-04-23T13:03:14.357Z</time></trkpt><trkpt lat="33.9924783" lon="7.8446117"><ele>-9.0</ele><time>2026-04-23T13:03:15.358Z</time></trkpt><trkpt lat="33.99254" lon="7.844525"><ele>-9.0</ele><time>2026-04-23T13:03:16.357Z</time></trkpt><trkpt lat="33.992605" lon="7.8444467"><ele>-9.0</ele><time>2026-04-23T13:03:17.358Z</time></trkpt><trkpt lat="33.9926683" lon="7.8443733"><ele>-9.0</ele><time>2026-04-23T13:03:18.358Z</time></trkpt><trkpt lat="33.992735" lon="7.8443"><ele>-9.0</ele><time>2026-04-23T13:03:19.357Z</time></trkpt><trkpt lat="33.9927983" lon="7.8442317"><ele>-9.2</ele><time>2026-04-23T13:03:20.357Z</time></trkpt><trkpt lat="33.9928617" lon="7.8441733"><ele>-9.4</ele><time>2026-04-23T13:03:21.357Z</time></trkpt><trkpt lat="33.9929183" lon="7.8441283"><ele>-9.6</ele><time>2026-04-23T13:03:22.358Z</time></trkpt><trkpt lat="33.9930167" lon="7.8440467"><ele>-9.8</ele><time>2026-04-23T13:03:24.357Z</time></trkpt><trkpt lat="33.993105" lon="7.8439717"><ele>-10.0</ele><time>2026-04-23T13:03:26.357Z</time></trkpt><trkpt lat="33.99319" lon="7.8439067"><ele>-10.0</ele><time>2026-04-23T13:03:28.357Z</time></trkpt><trkpt lat="33.9932717" lon="7.8438567"><ele>-10.0</ele><time>2026-04-23T13:03:30.358Z</time></trkpt><trkpt lat="33.9933267" lon="7.8438133"><ele>-10.0</ele><time>2026-04-23T13:03:32.357Z</time></trkpt><trkpt lat="33.9934017" lon="7.8437567"><ele>-10.0</ele><time>2026-04-23T13:17:05.353Z</time></trkpt><trkpt lat="33.99347" lon="7.84371"><ele>-10.0</ele><time>2026-04-23T13:17:07.353Z</time></trkpt><trkpt lat="33.9935283" lon="7.8436567"><ele>-10.0</ele><time>2026-04-23T13:17:09.352Z</time></trkpt><trkpt lat="33.9935833" lon="7.8436133"><ele>-10.0</ele><time>2026-04-23T13:17:11.352Z</time></trkpt><trkpt lat="33.99362" lon="7.8435417"><ele>-10.0</ele><time>2026-04-23T13:17:14.352Z</time></trkpt><trkpt lat="33.9936217" lon="7.8434483"><ele>-10.0</ele><time>2026-04-23T13:17:17.352Z</time></trkpt><trkpt lat="33.9936217" lon="7.84336"><ele>-10.0</ele><time>2026-04-23T13:17:20.353Z</time></trkpt><trkpt lat="33.9936033" lon="7.843275"><ele>-10.0</ele><time>2026-04-23T13:17:23.352Z</time></trkpt><trkpt lat="33.99352" lon="7.8433117"><ele>-10.0</ele><time>2026-04-23T13:17:27.352Z</time></trkpt><trkpt lat="33.9935133" lon="7.8433917"><ele>-10.0</ele><time>2026-04-23T13:17:30.353Z</time></trkpt><trkpt lat="33.9935867" lon="7.8433883"><ele>-9.666666666666668</ele><time>2026-04-23T13:17:33.353Z</time></trkpt><trkpt lat="33.993645" lon="7.8432983"><ele>-9.333333333333334</ele><time>2026-04-23T13:17:36.352Z</time></trkpt><trkpt lat="33.99372" lon="7.8432483"><ele>-9.0</ele><time>2026-04-23T13:17:39.353Z</time></trkpt><trkpt lat="33.9937883" lon="7.8432767"><ele>-8.666666666666666</ele><time>2026-04-23T13:17:42.353Z</time></trkpt><trkpt lat="33.993855" lon="7.8433333"><ele>-8.333333333333332</ele><time>2026-04-23T13:17:44.353Z</time></trkpt><trkpt lat="33.9939333" lon="7.84337"><ele>-8.0</ele><time>2026-04-23T13:17:46.352Z</time></trkpt><trkpt lat="33.994025" lon="7.843395"><ele>-7.999999999999999</ele><time>2026-04-23T13:17:48.352Z</time></trkpt><trkpt lat="33.9941" lon="7.8433933"><ele>-8.0</ele><time>2026-04-23T13:17:50.353Z</time></trkpt><trkpt lat="33.9941883" lon="7.8433833"><ele>-8.0</ele><time>2026-04-23T13:17:53.352Z</time></trkpt><trkpt lat="33.9942" lon="7.8432417"><ele>-8.0</ele><time>2026-04-23T13:18:02.353Z</time></trkpt><trkpt lat="33.9941417" lon="7.8431833"><ele>-7.999999999999999</ele><time>2026-04-23T13:18:06.352Z</time></trkpt><trkpt lat="33.9940767" lon="7.843255"><ele>-8.0</ele><time>2026-04-23T13:29:28.35Z</time></trkpt><trkpt lat="33.99399" lon="7.8433067"><ele>-8.0</ele><time>2026-04-23T13:29:30.35Z</time></trkpt><trkpt lat="33.9939033" lon="7.8433617"><ele>-8.0</ele><time>2026-04-23T13:29:32.349Z</time></trkpt><trkpt lat="33.99383" lon="7.8434167"><ele>-8.0</ele><time>2026-04-23T13:29:34.35Z</time></trkpt><trkpt lat="33.9937633" lon="7.84346"><ele>-8.0</ele><time>2026-04-23T13:29:36.349Z</time></trkpt><trkpt lat="33.9936683" lon="7.8435183"><ele>-8.0</ele><time>2026-04-23T13:29:38.35Z</time></trkpt><trkpt lat="33.9935683" lon="7.843585"><ele>-8.4</ele><time>2026-04-23T13:29:40.35Z</time></trkpt><trkpt lat="33.9934667" lon="7.8436483"><ele>-8.8</ele><time>2026-04-23T13:29:42.35Z</time></trkpt><trkpt lat="33.993375" lon="7.8437183"><ele>-9.2</ele><time>2026-04-23T13:29:44.35Z</time></trkpt><trkpt lat="33.99327" lon="7.8438083"><ele>-9.6</ele><time>2026-04-23T13:29:46.35Z</time></trkpt><trkpt lat="33.9932167" lon="7.843855"><ele>-10.0</ele><time>2026-04-23T13:29:47.349Z</time></trkpt><trkpt lat="33.99316" lon="7.843905"><ele>-10.0</ele><time>2026-04-23T13:29:48.35Z</time></trkpt><trkpt lat="33.9930967" lon="7.8439567"><ele>-10.0</ele><time>2026-04-23T13:29:49.35Z</time></trkpt><trkpt lat="33.9930367" lon="7.8440017"><ele>-10.0</ele><time>2026-04-23T13:29:50.349Z</time></trkpt><trkpt lat="33.9929817" lon="7.8440417"><ele>-10.0</ele><time>2026-04-23T13:29:51.349Z</time></trkpt><trkpt lat="33.9929267" lon="7.8440917"><ele>-10.0</ele><time>2026-04-23T13:29:52.35Z</time></trkpt><trkpt lat="33.9928733" lon="7.8441367"><ele>-10.0</ele><time>2026-04-23T13:29:53.349Z</time></trkpt><trkpt lat="33.9927683" lon="7.8442367"><ele>-10.0</ele><time>2026-04-23T13:29:55.349Z</time></trkpt><trkpt lat="33.9927183" lon="7.844295"><ele>-10.0</ele><time>2026-04-23T13:29:56.349Z</time></trkpt><trkpt lat="33.9926133" lon="7.8444183"><ele>-10.0</ele><time>2026-04-23T13:29:58.35Z</time></trkpt><trkpt lat="33.9925683" lon="7.8444833"><ele>-10.0</ele><time>2026-04-23T13:29:59.349Z</time></trkpt><trkpt lat="33.9925217" lon="7.8445517"><ele>-10.0</ele><time>2026-04-23T13:30:00.35Z</time></trkpt><trkpt lat="33.9924833" lon="7.8446133"><ele>-10.0</ele><time>2026-04-23T13:30:01.35Z</time></trkpt><trkpt lat="33.99242" lon="7.8447367"><ele>-9.8</ele><time>2026-04-23T13:30:03.35Z</time></trkpt><trkpt lat="33.9923667" lon="7.8448517"><ele>-9.6</ele><time>2026-04-23T13:30:05.349Z</time></trkpt><trkpt lat="33.992325" lon="7.8449483"><ele>-9.4</ele><time>2026-04-23T13:30:07.35Z</time></trkpt><trkpt lat="33.99231" lon="7.8450333"><ele>-9.2</ele><time>2026-04-23T13:30:09.349Z</time></trkpt><trkpt lat="33.9923" lon="7.845115"><ele>-9.0</ele><time>2026-04-23T13:30:11.35Z</time></trkpt><trkpt lat="33.992285" lon="7.8452467"><ele>-9.000000000000002</ele><time>2026-04-23T13:30:13.35Z</time></trkpt><trkpt lat="33.9922867" lon="7.8453283"><ele>-9.0</ele><time>2026-04-23T13:30:14.349Z</time></trkpt><trkpt lat="33.9922833" lon="7.8454117"><ele>-9.0</ele><time>2026-04-23T13:30:15.349Z</time></trkpt><trkpt lat="33.9922767" lon="7.84549"><ele>-9.0</ele><time>2026-04-23T13:30:16.349Z</time></trkpt><trkpt lat="33.99227" lon="7.8455683"><ele>-9.0</ele><time>2026-04-23T13:30:17.349Z</time></trkpt><trkpt lat="33.9922667" lon="7.8456467"><ele>-9.000000000000002</ele><time>2026-04-23T13:30:18.349Z</time></trkpt><trkpt lat="33.99227" lon="7.845725"><ele>-9.0</ele><time>2026-04-23T13:30:19.349Z</time></trkpt><trkpt lat="33.9922767" lon="7.84582"><ele>-9.0</ele><time>2026-04-23T13:30:20.349Z</time></trkpt><trkpt lat="33.99228" lon="7.8459233"><ele>-9.0</ele><time>2026-04-23T13:30:21.35Z</time></trkpt><trkpt lat="33.992285" lon="7.8460417"><ele>-9.0</ele><time>2026-04-23T13:30:22.35Z</time></trkpt><trkpt lat="33.9922883" lon="7.8461733"><ele>-9.0</ele><time>2026-04-23T13:30:23.349Z</time></trkpt><trkpt lat="33.9923067" lon="7.846435"><ele>-8.6</ele><time>2026-04-23T13:30:25.35Z</time></trkpt><trkpt lat="33.992315" lon="7.8465517"><ele>-8.2</ele><time>2026-04-23T13:30:26.35Z</time></trkpt><trkpt lat="33.99233" lon="7.846665"><ele>-7.799999999999999</ele><time>2026-04-23T13:30:27.349Z</time></trkpt><trkpt lat="33.9923367" lon="7.84678"><ele>-7.3999999999999995</ele><time>2026-04-23T13:30:28.349Z</time></trkpt><trkpt lat="33.9923533" lon="7.8468883"><ele>-7.0</ele><time>2026-04-23T13:30:29.349Z</time></trkpt><trkpt lat="33.9923733" lon="7.8469967"><ele>-6.8</ele><time>2026-04-23T13:30:30.348Z</time></trkpt><trkpt lat="33.9923933" lon="7.847115"><ele>-6.6</ele><time>2026-04-23T13:30:31.348Z</time></trkpt><trkpt lat="33.9924133" lon="7.847225"><ele>-6.3999999999999995</ele><time>2026-04-23T13:30:32.348Z</time></trkpt><trkpt lat="33.99244" lon="7.8473383"><ele>-6.199999999999999</ele><time>2026-04-23T13:30:33.348Z</time></trkpt><trkpt lat="33.9924633" lon="7.8474367"><ele>-6.0</ele><time>2026-04-23T13:30:34.349Z</time></trkpt><trkpt lat="33.992485" lon="7.8475283"><ele>-5.999999999999999</ele><time>2026-04-23T13:30:35.348Z</time></trkpt><trkpt lat="33.9925133" lon="7.84761"><ele>-6.0</ele><time>2026-04-23T13:30:36.348Z</time></trkpt><trkpt lat="33.9925333" lon="7.8476833"><ele>-6.0</ele><time>2026-04-23T13:30:37.348Z</time></trkpt><trkpt lat="33.9925517" lon="7.8477633"><ele>-6.0</ele><time>2026-04-23T13:30:38.349Z</time></trkpt><trkpt lat="33.9925767" lon="7.84784"><ele>-6.0</ele><time>2026-04-23T13:30:39.348Z</time></trkpt><trkpt lat="33.9926033" lon="7.8479217"><ele>-5.999999999999999</ele><time>2026-04-23T13:30:40.349Z</time></trkpt><trkpt lat="33.9926317" lon="7.8480083"><ele>-6.0</ele><time>2026-04-23T13:30:41.349Z</time></trkpt><trkpt lat="33.99266" lon="7.8481017"><ele>-6.199999999999999</ele><time>2026-04-23T13:30:42.349Z</time></trkpt><trkpt lat="33.992695" lon="7.8482033"><ele>-6.3999999999999995</ele><time>2026-04-23T13:30:43.349Z</time></trkpt><trkpt lat="33.99273" lon="7.8483067"><ele>-6.6</ele><time>2026-04-23T13:30:44.348Z</time></trkpt><trkpt lat="33.9927767" lon="7.848425"><ele>-6.8</ele><time>2026-04-23T13:30:45.349Z</time></trkpt><trkpt lat="33.9928133" lon="7.8485383"><ele>-7.0</ele><time>2026-04-23T13:30:46.348Z</time></trkpt><trkpt lat="33.9928533" lon="7.848645"><ele>-7.199999999999999</ele><time>2026-04-23T13:30:47.348Z</time></trkpt><trkpt lat="33.9928983" lon="7.84875"><ele>-7.3999999999999995</ele><time>2026-04-23T13:30:48.348Z</time></trkpt><trkpt lat="33.9929367" lon="7.84887"><ele>-7.6000000000000005</ele><time>2026-04-23T13:30:49.348Z</time></trkpt><trkpt lat="33.9929783" lon="7.8489867"><ele>-7.800000000000001</ele><time>2026-04-23T13:30:50.349Z</time></trkpt><trkpt lat="33.9930117" lon="7.849105"><ele>-8.0</ele><time>2026-04-23T13:30:51.349Z</time></trkpt><trkpt lat="33.9930533" lon="7.84922"><ele>-7.800000000000001</ele><time>2026-04-23T13:30:52.348Z</time></trkpt><trkpt lat="33.99309" lon="7.8493417"><ele>-7.6000000000000005</ele><time>2026-04-23T13:30:53.349Z</time></trkpt><trkpt lat="33.9931233" lon="7.8494733"><ele>-7.3999999999999995</ele><time>2026-04-23T13:30:54.349Z</time></trkpt><trkpt lat="33.9931533" lon="7.8496"><ele>-7.199999999999999</ele><time>2026-04-23T13:30:55.349Z</time></trkpt><trkpt lat="33.993185" lon="7.8497267"><ele>-7.0</ele><time>2026-04-23T13:30:56.348Z</time></trkpt><trkpt lat="33.99322" lon="7.8498533"><ele>-7.0</ele><time>2026-04-23T13:30:57.348Z</time></trkpt><trkpt lat="33.9932583" lon="7.8499833"><ele>-7.0</ele><time>2026-04-23T13:30:58.349Z</time></trkpt><trkpt lat="33.9932917" lon="7.8501233"><ele>-7.0</ele><time>2026-04-23T13:30:59.348Z</time></trkpt><trkpt lat="33.9933217" lon="7.85025"><ele>-7.0</ele><time>2026-04-23T13:31:00.349Z</time></trkpt><trkpt lat="33.99336" lon="7.850375"><ele>-7.0</ele><time>2026-04-23T13:31:01.348Z</time></trkpt><trkpt lat="33.9934033" lon="7.8505033"><ele>-7.0</ele><time>2026-04-23T13:31:02.348Z</time></trkpt><trkpt lat="33.9934483" lon="7.8506233"><ele>-7.0</ele><time>2026-04-23T13:31:03.348Z</time></trkpt><trkpt lat="33.9934833" lon="7.85076"><ele>-7.0</ele><time>2026-04-23T13:31:04.349Z</time></trkpt><trkpt lat="33.9935233" lon="7.8508817"><ele>-6.75</ele><time>2026-04-23T13:31:05.349Z</time></trkpt><trkpt lat="33.9935583" lon="7.8510133"><ele>-6.5</ele><time>2026-04-23T13:31:06.349Z</time></trkpt><trkpt lat="33.9935867" lon="7.8511517"><ele>-6.25</ele><time>2026-04-23T13:31:07.349Z</time></trkpt><trkpt lat="33.99363" lon="7.8512883"><ele>-6.0</ele><time>2026-04-23T13:31:08.349Z</time></trkpt><trkpt lat="33.9936667" lon="7.8514283"><ele>-6.0</ele><time>2026-04-23T13:31:09.348Z</time></trkpt><trkpt lat="33.9937" lon="7.8515717"><ele>-6.0</ele><time>2026-04-23T13:31:10.348Z</time></trkpt><trkpt lat="33.9937367" lon="7.8516933"><ele>-6.0</ele><time>2026-04-23T13:31:11.348Z</time></trkpt><trkpt lat="33.9937733" lon="7.85183"><ele>-6.0</ele><time>2026-04-23T13:31:12.349Z</time></trkpt><trkpt lat="33.9938167" lon="7.8519517"><ele>-6.75</ele><time>2026-04-23T13:31:13.348Z</time></trkpt><trkpt lat="33.9938483" lon="7.8520933"><ele>-7.5</ele><time>2026-04-23T13:31:14.348Z</time></trkpt><trkpt lat="33.9938867" lon="7.852225"><ele>-8.25</ele><time>2026-04-23T13:31:15.348Z</time></trkpt><trkpt lat="33.993925" lon="7.8523683"><ele>-9.0</ele><time>2026-04-23T13:31:16.348Z</time></trkpt><trkpt lat="33.99396" lon="7.8525033"><ele>-9.75</ele><time>2026-04-23T13:31:17.348Z</time></trkpt><trkpt lat="33.9939933" lon="7.85264"><ele>-10.5</ele><time>2026-04-23T13:31:18.348Z</time></trkpt><trkpt lat="33.9940233" lon="7.8527783"><ele>-11.25</ele><time>2026-04-23T13:31:19.348Z</time></trkpt><trkpt lat="33.99406" lon="7.85292"><ele>-12.0</ele><time>2026-04-23T13:31:20.348Z</time></trkpt><trkpt lat="33.994095" lon="7.8530533"><ele>-12.0</ele><time>2026-04-23T13:31:21.348Z</time></trkpt><trkpt lat="33.994125" lon="7.8531933"><ele>-12.0</ele><time>2026-04-23T13:31:22.349Z</time></trkpt><trkpt lat="33.9941533" lon="7.8533267"><ele>-12.0</ele><time>2026-04-23T13:31:23.349Z</time></trkpt><trkpt lat="33.9941833" lon="7.85346"><ele>-12.0</ele><time>2026-04-23T13:31:24.349Z</time></trkpt><trkpt lat="33.9942167" lon="7.853595"><ele>-12.0</ele><time>2026-04-23T13:31:25.348Z</time></trkpt><trkpt lat="33.9942433" lon="7.853735"><ele>-12.0</ele><time>2026-04-23T13:31:26.348Z</time></trkpt><trkpt lat="33.99427" lon="7.8538717"><ele>-12.0</ele><time>2026-04-23T13:31:27.349Z</time></trkpt><trkpt lat="33.9942917" lon="7.8540033"><ele>-12.0</ele><time>2026-04-23T13:31:28.349Z</time></trkpt><trkpt lat="33.9943133" lon="7.85414"><ele>-12.0</ele><time>2026-04-23T13:31:29.348Z</time></trkpt><trkpt lat="33.9943283" lon="7.8542833"><ele>-12.0</ele><time>2026-04-23T13:31:30.349Z</time></trkpt><trkpt lat="33.99434" lon="7.8544183"><ele>-12.0</ele><time>2026-04-23T13:31:31.349Z</time></trkpt><trkpt lat="33.994355" lon="7.85456"><ele>-12.0</ele><time>2026-04-23T13:31:32.349Z</time></trkpt><trkpt lat="33.99437" lon="7.8547017"><ele>-11.6</ele><time>2026-04-23T13:31:33.349Z</time></trkpt><trkpt lat="33.9943767" lon="7.8548317"><ele>-11.2</ele><time>2026-04-23T13:31:34.348Z</time></trkpt><trkpt lat="33.99439" lon="7.8549533"><ele>-10.8</ele><time>2026-04-23T13:31:35.349Z</time></trkpt><trkpt lat="33.9944" lon="7.8550833"><ele>-10.4</ele><time>2026-04-23T13:31:36.349Z</time></trkpt><trkpt lat="33.9943983" lon="7.85522"><ele>-10.0</ele><time>2026-04-23T13:31:37.348Z</time></trkpt><trkpt lat="33.9944033" lon="7.8553617"><ele>-9.75</ele><time>2026-04-23T13:31:38.349Z</time></trkpt><trkpt lat="33.9943967" lon="7.8555083"><ele>-9.5</ele><time>2026-04-23T13:31:39.349Z</time></trkpt><trkpt lat="33.994395" lon="7.8556467"><ele>-9.25</ele><time>2026-04-23T13:31:40.348Z</time></trkpt><trkpt lat="33.99439" lon="7.8557867"><ele>-9.0</ele><time>2026-04-23T13:31:41.349Z</time></trkpt><trkpt lat="33.9943783" lon="7.8559167"><ele>-8.4</ele><time>2026-04-23T13:31:42.348Z</time></trkpt><trkpt lat="33.99436" lon="7.8560433"><ele>-7.800000000000001</ele><time>2026-04-23T13:31:43.348Z</time></trkpt><trkpt lat="33.9943383" lon="7.8561683"><ele>-7.199999999999999</ele><time>2026-04-23T13:31:44.349Z</time></trkpt><trkpt lat="33.9943183" lon="7.8563"><ele>-6.6</ele><time>2026-04-23T13:31:45.348Z</time></trkpt><trkpt lat="33.9942933" lon="7.8564217"><ele>-6.0</ele><time>2026-04-23T13:31:46.349Z</time></trkpt><trkpt lat="33.9942733" lon="7.8565567"><ele>-6.0</ele><time>2026-04-23T13:31:47.348Z</time></trkpt><trkpt lat="33.99425" lon="7.8566917"><ele>-6.0</ele><time>2026-04-23T13:31:48.349Z</time></trkpt><trkpt lat="33.9942183" lon="7.856825"><ele>-6.0</ele><time>2026-04-23T13:31:49.348Z</time></trkpt><trkpt lat="33.99418" lon="7.856965"><ele>-6.0</ele><time>2026-04-23T13:31:50.348Z</time></trkpt><trkpt lat="33.9941617" lon="7.8571017"><ele>-7.5</ele><time>2026-04-23T13:31:51.348Z</time></trkpt><trkpt lat="33.9941317" lon="7.857255"><ele>-9.0</ele><time>2026-04-23T13:31:52.348Z</time></trkpt><trkpt lat="33.99411" lon="7.857395"><ele>-10.5</ele><time>2026-04-23T13:31:53.348Z</time></trkpt><trkpt lat="33.9940867" lon="7.8575317"><ele>-12.0</ele><time>2026-04-23T13:31:54.349Z</time></trkpt><trkpt lat="33.99406" lon="7.857665"><ele>-12.0</ele><time>2026-04-23T13:31:55.348Z</time></trkpt><trkpt lat="33.9940283" lon="7.8577983"><ele>-12.0</ele><time>2026-04-23T13:31:56.348Z</time></trkpt><trkpt lat="33.9939967" lon="7.85793"><ele>-12.0</ele><time>2026-04-23T13:31:57.349Z</time></trkpt><trkpt lat="33.9939667" lon="7.8580733"><ele>-12.0</ele><time>2026-04-23T13:31:58.348Z</time></trkpt><trkpt lat="33.9939333" lon="7.858215"><ele>-12.0</ele><time>2026-04-23T13:31:59.348Z</time></trkpt><trkpt lat="33.9938933" lon="7.8583483"><ele>-12.0</ele><time>2026-04-23T13:32:00.349Z</time></trkpt><trkpt lat="33.993865" lon="7.85849"><ele>-12.0</ele><time>2026-04-23T13:32:01.348Z</time></trkpt><trkpt lat="33.99383" lon="7.85863"><ele>-12.0</ele><time>2026-04-23T13:32:02.349Z</time></trkpt><trkpt lat="33.993795" lon="7.8587683"><ele>-11.5</ele><time>2026-04-23T13:32:03.349Z</time></trkpt><trkpt lat="33.9937617" lon="7.858905"><ele>-11.0</ele><time>2026-04-23T13:32:04.349Z</time></trkpt><trkpt lat="33.99373" lon="7.8590383"><ele>-10.5</ele><time>2026-04-23T13:32:05.348Z</time></trkpt><trkpt lat="33.99369" lon="7.859175"><ele>-10.0</ele><time>2026-04-23T13:32:06.348Z</time></trkpt><trkpt lat="33.99365" lon="7.859305"><ele>-9.75</ele><time>2026-04-23T13:32:07.348Z</time></trkpt><trkpt lat="33.9936133" lon="7.8594383"><ele>-9.5</ele><time>2026-04-23T13:32:08.348Z</time></trkpt><trkpt lat="33.9935783" lon="7.85958"><ele>-9.25</ele><time>2026-04-23T13:32:09.348Z</time></trkpt><trkpt lat="33.9935467" lon="7.8597117"><ele>-9.0</ele><time>2026-04-23T13:32:10.349Z</time></trkpt><trkpt lat="33.99351" lon="7.859845"><ele>-9.0</ele><time>2026-04-23T13:32:11.349Z</time></trkpt><trkpt lat="33.9934783" lon="7.859985"><ele>-9.0</ele><time>2026-04-23T13:32:12.349Z</time></trkpt><trkpt lat="33.9934483" lon="7.8601217"><ele>-9.0</ele><time>2026-04-23T13:32:13.348Z</time></trkpt><trkpt lat="33.9934267" lon="7.8602667"><ele>-9.0</ele><time>2026-04-23T13:32:14.349Z</time></trkpt><trkpt lat="33.993415" lon="7.8604117"><ele>-9.0</ele><time>2026-04-23T13:32:15.348Z</time></trkpt><trkpt lat="33.9934033" lon="7.8605583"><ele>-9.0</ele><time>2026-04-23T13:32:16.348Z</time></trkpt><trkpt lat="33.9933917" lon="7.8606983"><ele>-9.0</ele><time>2026-04-23T13:32:17.349Z</time></trkpt><trkpt lat="33.993385" lon="7.8608467"><ele>-9.0</ele><time>2026-04-23T13:32:18.348Z</time></trkpt><trkpt lat="33.9933817" lon="7.8609933"><ele>-9.0</ele><time>2026-04-23T13:32:19.348Z</time></trkpt><trkpt lat="33.993385" lon="7.8611433"><ele>-9.0</ele><time>2026-04-23T13:32:20.349Z</time></trkpt><trkpt lat="33.9933833" lon="7.8612917"><ele>-9.0</ele><time>2026-04-23T13:32:21.349Z</time></trkpt><trkpt lat="33.9933767" lon="7.861425"><ele>-9.0</ele><time>2026-04-23T13:32:22.348Z</time></trkpt><trkpt lat="33.9933783" lon="7.8615733"><ele>-9.0</ele><time>2026-04-23T13:32:23.349Z</time></trkpt><trkpt lat="33.99338" lon="7.861715"><ele>-9.0</ele><time>2026-04-23T13:32:24.348Z</time></trkpt><trkpt lat="33.9933767" lon="7.8618683"><ele>-9.0</ele><time>2026-04-23T13:32:25.349Z</time></trkpt><trkpt lat="33.9933817" lon="7.86202"><ele>-9.0</ele><time>2026-04-23T13:32:26.349Z</time></trkpt><trkpt lat="33.9933983" lon="7.8621617"><ele>-8.75</ele><time>2026-04-23T13:32:27.348Z</time></trkpt><trkpt lat="33.9933983" lon="7.86229"><ele>-8.5</ele><time>2026-04-23T13:32:28.349Z</time></trkpt><trkpt lat="33.9934017" lon="7.8624417"><ele>-8.25</ele><time>2026-04-23T13:32:29.348Z</time></trkpt><trkpt lat="33.9934033" lon="7.862585"><ele>-8.0</ele><time>2026-04-23T13:32:30.348Z</time></trkpt><trkpt lat="33.9934083" lon="7.8627333"><ele>-8.5</ele><time>2026-04-23T13:32:31.348Z</time></trkpt><trkpt lat="33.9934167" lon="7.86289"><ele>-9.0</ele><time>2026-04-23T13:32:32.348Z</time></trkpt><trkpt lat="33.9934267" lon="7.86303"><ele>-9.5</ele><time>2026-04-23T13:32:33.349Z</time></trkpt><trkpt lat="33.9934317" lon="7.863155"><ele>-10.0</ele><time>2026-04-23T13:32:34.349Z</time></trkpt><trkpt lat="33.9934417" lon="7.8632967"><ele>-10.0</ele><time>2026-04-23T13:32:35.348Z</time></trkpt><trkpt lat="33.9934483" lon="7.8634367"><ele>-10.0</ele><time>2026-04-23T13:32:36.349Z</time></trkpt><trkpt lat="33.99345" lon="7.863575"><ele>-10.0</ele><time>2026-04-23T13:32:37.348Z</time></trkpt><trkpt lat="33.99345" lon="7.8637317"><ele>-10.0</ele><time>2026-04-23T13:32:38.348Z</time></trkpt><trkpt lat="33.9934533" lon="7.8638817"><ele>-10.0</ele><time>2026-04-23T13:32:39.348Z</time></trkpt><trkpt lat="33.993455" lon="7.8640233"><ele>-10.0</ele><time>2026-04-23T13:32:40.349Z</time></trkpt><trkpt lat="33.9934533" lon="7.8641583"><ele>-10.0</ele><time>2026-04-23T13:32:41.348Z</time></trkpt><trkpt lat="33.9934633" lon="7.8642967"><ele>-10.0</ele><time>2026-04-23T13:32:42.349Z</time></trkpt><trkpt lat="33.9934683" lon="7.86443"><ele>-10.0</ele><time>2026-04-23T13:32:43.349Z</time></trkpt><trkpt lat="33.993475" lon="7.8645667"><ele>-10.0</ele><time>2026-04-23T13:32:44.349Z</time></trkpt><trkpt lat="33.993485" lon="7.8646967"><ele>-10.0</ele><time>2026-04-23T13:32:45.349Z</time></trkpt><trkpt lat="33.9934967" lon="7.864845"><ele>-10.0</ele><time>2026-04-23T13:32:46.349Z</time></trkpt><trkpt lat="33.9935083" lon="7.86499"><ele>-10.0</ele><time>2026-04-23T13:32:47.349Z</time></trkpt><trkpt lat="33.9935183" lon="7.8651283"><ele>-10.0</ele><time>2026-04-23T13:32:48.348Z</time></trkpt><trkpt lat="33.9935317" lon="7.8652667"><ele>-10.0</ele><time>2026-04-23T13:32:49.348Z</time></trkpt><trkpt lat="33.9935483" lon="7.8654033"><ele>-10.0</ele><time>2026-04-23T13:32:50.349Z</time></trkpt><trkpt lat="33.993565" lon="7.8655317"><ele>-10.0</ele><time>2026-04-23T13:32:51.348Z</time></trkpt><trkpt lat="33.9935917" lon="7.8656667"><ele>-10.0</ele><time>2026-04-23T13:32:52.348Z</time></trkpt><trkpt lat="33.99362" lon="7.8658067"><ele>-10.0</ele><time>2026-04-23T13:32:53.348Z</time></trkpt><trkpt lat="33.9936467" lon="7.8659417"><ele>-10.0</ele><time>2026-04-23T13:32:54.348Z</time></trkpt><trkpt lat="33.9936733" lon="7.8660733"><ele>-10.0</ele><time>2026-04-23T13:32:55.348Z</time></trkpt><trkpt lat="33.993695" lon="7.8662033"><ele>-10.0</ele><time>2026-04-23T13:32:56.348Z</time></trkpt><trkpt lat="33.993725" lon="7.8663367"><ele>-10.0</ele><time>2026-04-23T13:32:57.348Z</time></trkpt><trkpt lat="33.993755" lon="7.8664667"><ele>-10.0</ele><time>2026-04-23T13:32:58.348Z</time></trkpt><trkpt lat="33.993785" lon="7.8666017"><ele>-10.0</ele><time>2026-04-23T13:32:59.348Z</time></trkpt><trkpt lat="33.9938183" lon="7.8667383"><ele>-10.0</ele><time>2026-04-23T13:33:00.348Z</time></trkpt><trkpt lat="33.99386" lon="7.8668717"><ele>-10.0</ele><time>2026-04-23T13:33:01.349Z</time></trkpt><trkpt lat="33.9939033" lon="7.867015"><ele>-10.0</ele><time>2026-04-23T13:33:02.349Z</time></trkpt><trkpt lat="33.9939417" lon="7.8671517"><ele>-10.0</ele><time>2026-04-23T13:33:03.348Z</time></trkpt><trkpt lat="33.9939833" lon="7.8672767"><ele>-10.0</ele><time>2026-04-23T13:33:04.348Z</time></trkpt><trkpt lat="33.9940317" lon="7.8674033"><ele>-10.0</ele><time>2026-04-23T13:33:05.348Z</time></trkpt><trkpt lat="33.9940733" lon="7.867525"><ele>-10.0</ele><time>2026-04-23T13:33:06.349Z</time></trkpt><trkpt lat="33.9941217" lon="7.8676433"><ele>-10.0</ele><time>2026-04-23T13:33:07.348Z</time></trkpt><trkpt lat="33.9941783" lon="7.86776"><ele>-10.5</ele><time>2026-04-23T13:33:08.349Z</time></trkpt><trkpt lat="33.99423" lon="7.867885"><ele>-11.0</ele><time>2026-04-23T13:33:09.348Z</time></trkpt><trkpt lat="33.9942767" lon="7.8680167"><ele>-11.5</ele><time>2026-04-23T13:33:10.348Z</time></trkpt><trkpt lat="33.9943367" lon="7.8681517"><ele>-12.0</ele><time>2026-04-23T13:33:11.349Z</time></trkpt><trkpt lat="33.9943883" lon="7.8682867"><ele>-12.0</ele><time>2026-04-23T13:33:12.349Z</time></trkpt><trkpt lat="33.9944433" lon="7.8684133"><ele>-12.0</ele><time>2026-04-23T13:33:13.349Z</time></trkpt><trkpt lat="33.9945017" lon="7.8685383"><ele>-12.0</ele><time>2026-04-23T13:33:14.348Z</time></trkpt><trkpt lat="33.99457" lon="7.86867"><ele>-12.0</ele><time>2026-04-23T13:33:15.349Z</time></trkpt><trkpt lat="33.9946317" lon="7.8687917"><ele>-12.0</ele><time>2026-04-23T13:33:16.349Z</time></trkpt><trkpt lat="33.9947033" lon="7.8689217"><ele>-12.0</ele><time>2026-04-23T13:33:17.349Z</time></trkpt><trkpt lat="33.9947633" lon="7.8690567"><ele>-12.0</ele><time>2026-04-23T13:33:18.349Z</time></trkpt><trkpt lat="33.9948267" lon="7.8691767"><ele>-12.0</ele><time>2026-04-23T13:33:19.349Z</time></trkpt><trkpt lat="33.9948867" lon="7.869295"><ele>-12.0</ele><time>2026-04-23T13:33:20.348Z</time></trkpt><trkpt lat="33.994945" lon="7.8694167"><ele>-12.0</ele><time>2026-04-23T13:33:21.348Z</time></trkpt><trkpt lat="33.9950017" lon="7.8695317"><ele>-12.0</ele><time>2026-04-23T13:33:22.349Z</time></trkpt><trkpt lat="33.995055" lon="7.8696467"><ele>-12.0</ele><time>2026-04-23T13:33:23.348Z</time></trkpt><trkpt lat="33.9951217" lon="7.869755"><ele>-12.0</ele><time>2026-04-23T13:33:24.349Z</time></trkpt><trkpt lat="33.9951917" lon="7.8698617"><ele>-12.0</ele><time>2026-04-23T13:33:25.348Z</time></trkpt><trkpt lat="33.995255" lon="7.86997"><ele>-12.0</ele><time>2026-04-23T13:33:26.349Z</time></trkpt><trkpt lat="33.9953383" lon="7.8700633"><ele>-12.0</ele><time>2026-04-23T13:33:27.349Z</time></trkpt><trkpt lat="33.9954117" lon="7.8701633"><ele>-12.0</ele><time>2026-04-23T13:33:28.348Z</time></trkpt><trkpt lat="33.9955" lon="7.870265"><ele>-12.0</ele><time>2026-04-23T13:33:29.348Z</time></trkpt><trkpt lat="33.9955833" lon="7.8703717"><ele>-12.0</ele><time>2026-04-23T13:33:30.349Z</time></trkpt><trkpt lat="33.99566" lon="7.8704683"><ele>-12.0</ele><time>2026-04-23T13:33:31.348Z</time></trkpt><trkpt lat="33.9957383" lon="7.87058"><ele>-12.0</ele><time>2026-04-23T13:33:32.349Z</time></trkpt><trkpt lat="33.99582" lon="7.8706833"><ele>-12.2</ele><time>2026-04-23T13:33:33.349Z</time></trkpt><trkpt lat="33.9958983" lon="7.8707817"><ele>-12.399999999999999</ele><time>2026-04-23T13:33:34.348Z</time></trkpt><trkpt lat="33.9959733" lon="7.8708817"><ele>-12.600000000000001</ele><time>2026-04-23T13:33:35.349Z</time></trkpt><trkpt lat="33.9960417" lon="7.8709783"><ele>-12.8</ele><time>2026-04-23T13:33:36.348Z</time></trkpt><trkpt lat="33.9961233" lon="7.87107"><ele>-13.0</ele><time>2026-04-23T13:33:37.348Z</time></trkpt><trkpt lat="33.9962033" lon="7.8711633"><ele>-13.5</ele><time>2026-04-23T13:33:38.348Z</time></trkpt><trkpt lat="33.9962717" lon="7.87126"><ele>-14.0</ele><time>2026-04-23T13:33:39.349Z</time></trkpt><trkpt lat="33.996355" lon="7.871365"><ele>-14.5</ele><time>2026-04-23T13:33:40.348Z</time></trkpt><trkpt lat="33.99644" lon="7.871465"><ele>-15.0</ele><time>2026-04-23T13:33:41.348Z</time></trkpt><trkpt lat="33.9965267" lon="7.8715683"><ele>-15.0</ele><time>2026-04-23T13:33:42.349Z</time></trkpt><trkpt lat="33.9966117" lon="7.8716633"><ele>-15.0</ele><time>2026-04-23T13:33:43.349Z</time></trkpt><trkpt lat="33.9966967" lon="7.871755"><ele>-15.0</ele><time>2026-04-23T13:33:44.348Z</time></trkpt><trkpt lat="33.99679" lon="7.87185"><ele>-15.0</ele><time>2026-04-23T13:33:45.348Z</time></trkpt><trkpt lat="33.99688" lon="7.8719417"><ele>-14.25</ele><time>2026-04-23T13:33:46.348Z</time></trkpt><trkpt lat="33.9969667" lon="7.8720367"><ele>-13.5</ele><time>2026-04-23T13:33:47.347Z</time></trkpt><trkpt lat="33.9970417" lon="7.8721433"><ele>-12.75</ele><time>2026-04-23T13:33:48.347Z</time></trkpt><trkpt lat="33.9971217" lon="7.8722467"><ele>-12.0</ele><time>2026-04-23T13:33:49.348Z</time></trkpt><trkpt lat="33.9972" lon="7.8723533"><ele>-12.0</ele><time>2026-04-23T13:33:50.348Z</time></trkpt><trkpt lat="33.99728" lon="7.8724533"><ele>-12.0</ele><time>2026-04-23T13:33:51.347Z</time></trkpt><trkpt lat="33.9973583" lon="7.8725533"><ele>-12.0</ele><time>2026-04-23T13:33:52.347Z</time></trkpt><trkpt lat="33.9974383" lon="7.8726433"><ele>-12.0</ele><time>2026-04-23T13:33:53.348Z</time></trkpt><trkpt lat="33.997515" lon="7.8727317"><ele>-12.0</ele><time>2026-04-23T13:33:54.348Z</time></trkpt><trkpt lat="33.9975933" lon="7.8728167"><ele>-11.8</ele><time>2026-04-23T13:33:55.348Z</time></trkpt><trkpt lat="33.9976783" lon="7.8728967"><ele>-11.6</ele><time>2026-04-23T13:33:56.348Z</time></trkpt><trkpt lat="33.9977583" lon="7.87299"><ele>-11.4</ele><time>2026-04-23T13:33:57.348Z</time></trkpt><trkpt lat="33.9978317" lon="7.8730817"><ele>-11.200000000000001</ele><time>2026-04-23T13:33:58.347Z</time></trkpt><trkpt lat="33.9979067" lon="7.8731717"><ele>-11.0</ele><time>2026-04-23T13:33:59.347Z</time></trkpt><trkpt lat="33.9979833" lon="7.8732667"><ele>-11.0</ele><time>2026-04-23T13:34:00.347Z</time></trkpt><trkpt lat="33.9980433" lon="7.8733517"><ele>-11.0</ele><time>2026-04-23T13:34:01.347Z</time></trkpt><trkpt lat="33.9981067" lon="7.8734383"><ele>-11.0</ele><time>2026-04-23T13:34:02.347Z</time></trkpt><trkpt lat="33.9981683" lon="7.8735317"><ele>-11.0</ele><time>2026-04-23T13:34:03.348Z</time></trkpt><trkpt lat="33.99823" lon="7.87364"><ele>-11.0</ele><time>2026-04-23T13:34:04.347Z</time></trkpt><trkpt lat="33.9982933" lon="7.8737433"><ele>-11.0</ele><time>2026-04-23T13:34:05.348Z</time></trkpt><trkpt lat="33.998365" lon="7.8738483"><ele>-11.0</ele><time>2026-04-23T13:34:06.347Z</time></trkpt><trkpt lat="33.998445" lon="7.873935"><ele>-11.0</ele><time>2026-04-23T13:34:07.348Z</time></trkpt><trkpt lat="33.9985267" lon="7.8740167"><ele>-11.0</ele><time>2026-04-23T13:34:08.347Z</time></trkpt><trkpt lat="33.99862" lon="7.874105"><ele>-11.0</ele><time>2026-04-23T13:34:09.348Z</time></trkpt><trkpt lat="33.9987183" lon="7.8741917"><ele>-11.0</ele><time>2026-04-23T13:34:10.347Z</time></trkpt><trkpt lat="33.9988167" lon="7.8742667"><ele>-11.0</ele><time>2026-04-23T13:34:11.348Z</time></trkpt><trkpt lat="33.9989167" lon="7.8743333"><ele>-11.0</ele><time>2026-04-23T13:34:12.348Z</time></trkpt><trkpt lat="33.9990183" lon="7.8744"><ele>-11.0</ele><time>2026-04-23T13:34:13.348Z</time></trkpt><trkpt lat="33.999115" lon="7.8744633"><ele>-11.4</ele><time>2026-04-23T13:34:14.348Z</time></trkpt><trkpt lat="33.9991983" lon="7.8745333"><ele>-11.8</ele><time>2026-04-23T13:34:15.348Z</time></trkpt><trkpt lat="33.9992783" lon="7.8745967"><ele>-12.200000000000001</ele><time>2026-04-23T13:34:16.348Z</time></trkpt><trkpt lat="33.9993533" lon="7.874655"><ele>-12.600000000000001</ele><time>2026-04-23T13:34:17.348Z</time></trkpt><trkpt lat="33.9994267" lon="7.8747183"><ele>-13.0</ele><time>2026-04-23T13:34:18.347Z</time></trkpt><trkpt lat="33.9994933" lon="7.8747983"><ele>-13.0</ele><time>2026-04-23T13:34:19.347Z</time></trkpt><trkpt lat="33.999555" lon="7.8748917"><ele>-13.0</ele><time>2026-04-23T13:34:20.347Z</time></trkpt><trkpt lat="33.9996233" lon="7.874975"><ele>-13.0</ele><time>2026-04-23T13:34:21.347Z</time></trkpt><trkpt lat="33.9996783" lon="7.8750783"><ele>-13.0</ele><time>2026-04-23T13:34:22.348Z</time></trkpt><trkpt lat="33.9997233" lon="7.8751783"><ele>-13.0</ele><time>2026-04-23T13:34:23.348Z</time></trkpt><trkpt lat="33.9997683" lon="7.8752717"><ele>-12.8</ele><time>2026-04-23T13:34:24.347Z</time></trkpt><trkpt lat="33.9998067" lon="7.8753767"><ele>-12.600000000000001</ele><time>2026-04-23T13:34:25.348Z</time></trkpt><trkpt lat="33.99985" lon="7.8754733"><ele>-12.399999999999999</ele><time>2026-04-23T13:34:26.347Z</time></trkpt><trkpt lat="33.9999083" lon="7.8755783"><ele>-12.2</ele><time>2026-04-23T13:34:27.347Z</time></trkpt><trkpt lat="33.999955" lon="7.87569"><ele>-12.0</ele><time>2026-04-23T13:34:28.347Z</time></trkpt><trkpt lat="34.0000167" lon="7.875795"><ele>-12.0</ele><time>2026-04-23T13:34:29.348Z</time></trkpt><trkpt lat="34.0000733" lon="7.87591"><ele>-12.0</ele><time>2026-04-23T13:34:30.347Z</time></trkpt><trkpt lat="34.000125" lon="7.8760233"><ele>-12.0</ele><time>2026-04-23T13:34:31.347Z</time></trkpt><trkpt lat="34.0001817" lon="7.876135"><ele>-12.0</ele><time>2026-04-23T13:34:32.347Z</time></trkpt><trkpt lat="34.00024" lon="7.8762383"><ele>-12.0</ele><time>2026-04-23T13:34:33.348Z</time></trkpt><trkpt lat="34.0002933" lon="7.8763483"><ele>-12.399999999999999</ele><time>2026-04-23T13:34:34.347Z</time></trkpt><trkpt lat="34.0003433" lon="7.8764483"><ele>-12.799999999999999</ele><time>2026-04-23T13:34:35.348Z</time></trkpt><trkpt lat="34.0003983" lon="7.8765533"><ele>-13.2</ele><time>2026-04-23T13:34:36.347Z</time></trkpt><trkpt lat="34.0004617" lon="7.8766667"><ele>-13.6</ele><time>2026-04-23T13:34:37.348Z</time></trkpt><trkpt lat="34.0005217" lon="7.876785"><ele>-14.0</ele><time>2026-04-23T13:34:38.348Z</time></trkpt><trkpt lat="34.00058" lon="7.8769017"><ele>-14.0</ele><time>2026-04-23T13:34:39.348Z</time></trkpt><trkpt lat="34.0006367" lon="7.8770167"><ele>-14.0</ele><time>2026-04-23T13:34:40.347Z</time></trkpt><trkpt lat="34.0006967" lon="7.8771333"><ele>-14.0</ele><time>2026-04-23T13:34:41.348Z</time></trkpt><trkpt lat="34.0007567" lon="7.8772583"><ele>-14.0</ele><time>2026-04-23T13:34:42.348Z</time></trkpt><trkpt lat="34.0008267" lon="7.8773817"><ele>-13.5</ele><time>2026-04-23T13:34:43.347Z</time></trkpt><trkpt lat="34.0008883" lon="7.8774983"><ele>-13.0</ele><time>2026-04-23T13:34:44.348Z</time></trkpt><trkpt lat="34.000955" lon="7.877615"><ele>-12.5</ele><time>2026-04-23T13:34:45.348Z</time></trkpt><trkpt lat="34.0010233" lon="7.8777367"><ele>-12.0</ele><time>2026-04-23T13:34:46.348Z</time></trkpt><trkpt lat="34.00109" lon="7.8778533"><ele>-11.75</ele><time>2026-04-23T13:34:47.347Z</time></trkpt><trkpt lat="34.0011533" lon="7.877965"><ele>-11.5</ele><time>2026-04-23T13:34:48.348Z</time></trkpt><trkpt lat="34.0012133" lon="7.8780817"><ele>-11.25</ele><time>2026-04-23T13:34:49.348Z</time></trkpt><trkpt lat="34.00127" lon="7.8782017"><ele>-11.0</ele><time>2026-04-23T13:34:50.347Z</time></trkpt><trkpt lat="34.001325" lon="7.878325"><ele>-11.25</ele><time>2026-04-23T13:34:51.347Z</time></trkpt><trkpt lat="34.0013833" lon="7.8784433"><ele>-11.5</ele><time>2026-04-23T13:34:52.347Z</time></trkpt><trkpt lat="34.0014383" lon="7.8785683"><ele>-11.75</ele><time>2026-04-23T13:34:53.347Z</time></trkpt><trkpt lat="34.0014983" lon="7.878695"><ele>-12.0</ele><time>2026-04-23T13:34:54.348Z</time></trkpt><trkpt lat="34.0015533" lon="7.87882"><ele>-12.0</ele><time>2026-04-23T13:34:55.347Z</time></trkpt><trkpt lat="34.0016133" lon="7.87894"><ele>-12.0</ele><time>2026-04-23T13:34:56.347Z</time></trkpt><trkpt lat="34.0016717" lon="7.8790583"><ele>-12.0</ele><time>2026-04-23T13:34:57.347Z</time></trkpt><trkpt lat="34.0017333" lon="7.879185"><ele>-12.0</ele><time>2026-04-23T13:34:58.347Z</time></trkpt><trkpt lat="34.0017833" lon="7.8793067"><ele>-11.5</ele><time>2026-04-23T13:34:59.348Z</time></trkpt><trkpt lat="34.0018433" lon="7.8794233"><ele>-11.0</ele><time>2026-04-23T13:35:00.347Z</time></trkpt><trkpt lat="34.001905" lon="7.8795483"><ele>-10.5</ele><time>2026-04-23T13:35:01.348Z</time></trkpt><trkpt lat="34.001955" lon="7.8796767"><ele>-10.0</ele><time>2026-04-23T13:35:02.348Z</time></trkpt><trkpt lat="34.002005" lon="7.8797983"><ele>-10.0</ele><time>2026-04-23T13:35:03.348Z</time></trkpt><trkpt lat="34.002065" lon="7.87992"><ele>-10.0</ele><time>2026-04-23T13:35:04.348Z</time></trkpt><trkpt lat="34.0021233" lon="7.8800483"><ele>-10.0</ele><time>2026-04-23T13:35:05.347Z</time></trkpt><trkpt lat="34.0021833" lon="7.880165"><ele>-10.0</ele><time>2026-04-23T13:35:06.348Z</time></trkpt><trkpt lat="34.0022383" lon="7.880285"><ele>-10.0</ele><time>2026-04-23T13:35:07.348Z</time></trkpt><trkpt lat="34.0022917" lon="7.8804167"><ele>-10.0</ele><time>2026-04-23T13:35:08.347Z</time></trkpt><trkpt lat="34.0023533" lon="7.8805367"><ele>-10.0</ele><time>2026-04-23T13:35:09.348Z</time></trkpt><trkpt lat="34.0024117" lon="7.8806583"><ele>-10.0</ele><time>2026-04-23T13:35:10.348Z</time></trkpt><trkpt lat="34.00247" lon="7.8807767"><ele>-10.25</ele><time>2026-04-23T13:35:11.348Z</time></trkpt><trkpt lat="34.0025267" lon="7.8808917"><ele>-10.5</ele><time>2026-04-23T13:35:12.348Z</time></trkpt><trkpt lat="34.0025867" lon="7.8810133"><ele>-10.75</ele><time>2026-04-23T13:35:13.347Z</time></trkpt><trkpt lat="34.00264" lon="7.88113"><ele>-11.0</ele><time>2026-04-23T13:35:14.347Z</time></trkpt><trkpt lat="34.00271" lon="7.8812483"><ele>-11.0</ele><time>2026-04-23T13:35:15.348Z</time></trkpt><trkpt lat="34.0027767" lon="7.8813717"><ele>-11.0</ele><time>2026-04-23T13:35:16.347Z</time></trkpt><trkpt lat="34.0028383" lon="7.8814933"><ele>-11.0</ele><time>2026-04-23T13:35:17.348Z</time></trkpt><trkpt lat="34.0029017" lon="7.8816133"><ele>-11.0</ele><time>2026-04-23T13:35:18.347Z</time></trkpt><trkpt lat="34.00296" lon="7.88174"><ele>-11.25</ele><time>2026-04-23T13:35:19.347Z</time></trkpt><trkpt lat="34.0030167" lon="7.8818617"><ele>-11.5</ele><time>2026-04-23T13:35:20.348Z</time></trkpt><trkpt lat="34.0030717" lon="7.881985"><ele>-11.75</ele><time>2026-04-23T13:35:21.347Z</time></trkpt><trkpt lat="34.0031267" lon="7.88211"><ele>-12.0</ele><time>2026-04-23T13:35:22.348Z</time></trkpt><trkpt lat="34.0031833" lon="7.8822317"><ele>-12.0</ele><time>2026-04-23T13:35:23.348Z</time></trkpt><trkpt lat="34.003245" lon="7.8823517"><ele>-12.0</ele><time>2026-04-23T13:35:24.348Z</time></trkpt><trkpt lat="34.0033" lon="7.8824733"><ele>-12.0</ele><time>2026-04-23T13:35:25.347Z</time></trkpt><trkpt lat="34.0033417" lon="7.8825917"><ele>-12.0</ele><time>2026-04-23T13:35:26.348Z</time></trkpt><trkpt lat="34.0033783" lon="7.8826967"><ele>-12.0</ele><time>2026-04-23T13:35:27.348Z</time></trkpt><trkpt lat="34.0034017" lon="7.8827917"><ele>-11.833333333333334</ele><time>2026-04-23T13:35:28.348Z</time></trkpt><trkpt lat="34.0034367" lon="7.882885"><ele>-11.666666666666666</ele><time>2026-04-23T13:35:29.348Z</time></trkpt><trkpt lat="34.0034617" lon="7.8829683"><ele>-11.5</ele><time>2026-04-23T13:35:30.348Z</time></trkpt><trkpt lat="34.0034817" lon="7.8830433"><ele>-11.333333333333332</ele><time>2026-04-23T13:35:31.347Z</time></trkpt><trkpt lat="34.00353" lon="7.8831683"><ele>-11.166666666666666</ele><time>2026-04-23T13:35:33.348Z</time></trkpt><trkpt lat="34.00356" lon="7.88327"><ele>-11.0</ele><time>2026-04-23T13:35:35.347Z</time></trkpt><trkpt lat="34.00359" lon="7.8833967"><ele>-11.0</ele><time>2026-04-23T13:36:23.347Z</time></trkpt><trkpt lat="34.0036183" lon="7.883545"><ele>-11.0</ele><time>2026-04-23T13:36:25.348Z</time></trkpt><trkpt lat="34.003635" lon="7.8836433"><ele>-11.0</ele><time>2026-04-23T13:36:26.347Z</time></trkpt><trkpt lat="34.0036533" lon="7.883755"><ele>-11.0</ele><time>2026-04-23T13:36:27.348Z</time></trkpt><trkpt lat="34.0036783" lon="7.8838683"><ele>-11.0</ele><time>2026-04-23T13:36:28.348Z</time></trkpt><trkpt lat="34.0037083" lon="7.8839883"><ele>-11.0</ele><time>2026-04-23T13:36:29.347Z</time></trkpt><trkpt lat="34.0037367" lon="7.88411"><ele>-11.0</ele><time>2026-04-23T13:36:30.348Z</time></trkpt><trkpt lat="34.0037583" lon="7.8842383"><ele>-11.0</ele><time>2026-04-23T13:36:31.347Z</time></trkpt><trkpt lat="34.003785" lon="7.8843667"><ele>-11.0</ele><time>2026-04-23T13:36:32.348Z</time></trkpt><trkpt lat="34.003815" lon="7.884495"><ele>-11.0</ele><time>2026-04-23T13:36:33.347Z</time></trkpt><trkpt lat="34.0038433" lon="7.8846217"><ele>-11.0</ele><time>2026-04-23T13:36:34.348Z</time></trkpt><trkpt lat="34.0038683" lon="7.884755"><ele>-11.0</ele><time>2026-04-23T13:36:35.348Z</time></trkpt><trkpt lat="34.0038983" lon="7.8848917"><ele>-11.0</ele><time>2026-04-23T13:36:36.347Z</time></trkpt><trkpt lat="34.0039283" lon="7.8850283"><ele>-11.0</ele><time>2026-04-23T13:36:37.347Z</time></trkpt><trkpt lat="34.0039567" lon="7.8851667"><ele>-10.75</ele><time>2026-04-23T13:36:38.347Z</time></trkpt><trkpt lat="34.0039833" lon="7.8853017"><ele>-10.5</ele><time>2026-04-23T13:36:39.348Z</time></trkpt><trkpt lat="34.0040067" lon="7.8854533"><ele>-10.25</ele><time>2026-04-23T13:36:40.348Z</time></trkpt><trkpt lat="34.00403" lon="7.8855933"><ele>-10.0</ele><time>2026-04-23T13:36:41.348Z</time></trkpt><trkpt lat="34.0040483" lon="7.88574"><ele>-10.0</ele><time>2026-04-23T13:36:42.348Z</time></trkpt><trkpt lat="34.0040717" lon="7.8858817"><ele>-10.0</ele><time>2026-04-23T13:36:43.347Z</time></trkpt><trkpt lat="34.0041" lon="7.8860267"><ele>-10.0</ele><time>2026-04-23T13:36:44.348Z</time></trkpt><trkpt lat="34.00413" lon="7.8861617"><ele>-10.0</ele><time>2026-04-23T13:36:45.347Z</time></trkpt><trkpt lat="34.00416" lon="7.8862917"><ele>-10.0</ele><time>2026-04-23T13:36:46.348Z</time></trkpt><trkpt lat="34.0041917" lon="7.8864167"><ele>-10.0</ele><time>2026-04-23T13:36:47.348Z</time></trkpt><trkpt lat="34.0042183" lon="7.8865483"><ele>-10.0</ele><time>2026-04-23T13:36:48.347Z</time></trkpt><trkpt lat="34.0042417" lon="7.8866817"><ele>-10.0</ele><time>2026-04-23T13:36:49.348Z</time></trkpt><trkpt lat="34.004265" lon="7.8868183"><ele>-10.0</ele><time>2026-04-23T13:36:50.347Z</time></trkpt><trkpt lat="34.0042933" lon="7.8869467"><ele>-10.0</ele><time>2026-04-23T13:36:51.348Z</time></trkpt><trkpt lat="34.0043233" lon="7.8870767"><ele>-10.0</ele><time>2026-04-23T13:36:52.347Z</time></trkpt><trkpt lat="34.0043567" lon="7.887215"><ele>-10.0</ele><time>2026-04-23T13:36:53.348Z</time></trkpt><trkpt lat="34.004385" lon="7.8873483"><ele>-10.0</ele><time>2026-04-23T13:36:54.348Z</time></trkpt><trkpt lat="34.0044133" lon="7.8874817"><ele>-9.6</ele><time>2026-04-23T13:36:55.347Z</time></trkpt><trkpt lat="34.004445" lon="7.8876117"><ele>-9.2</ele><time>2026-04-23T13:36:56.348Z</time></trkpt><trkpt lat="34.00448" lon="7.8877483"><ele>-8.8</ele><time>2026-04-23T13:36:57.347Z</time></trkpt><trkpt lat="34.00451" lon="7.88787"><ele>-8.4</ele><time>2026-04-23T13:36:58.347Z</time></trkpt><trkpt lat="34.00454" lon="7.8879983"><ele>-8.0</ele><time>2026-04-23T13:36:59.348Z</time></trkpt><trkpt lat="34.0045667" lon="7.8881267"><ele>-8.0</ele><time>2026-04-23T13:37:00.348Z</time></trkpt><trkpt lat="34.004595" lon="7.8882633"><ele>-8.0</ele><time>2026-04-23T13:37:01.347Z</time></trkpt><trkpt lat="34.0046217" lon="7.88839"><ele>-8.0</ele><time>2026-04-23T13:37:02.347Z</time></trkpt><trkpt lat="34.00465" lon="7.8885233"><ele>-8.0</ele><time>2026-04-23T13:37:03.347Z</time></trkpt><trkpt lat="34.00468" lon="7.8886517"><ele>-8.0</ele><time>2026-04-23T13:37:04.348Z</time></trkpt><trkpt lat="34.0046967" lon="7.8887833"><ele>-8.0</ele><time>2026-04-23T13:37:05.347Z</time></trkpt><trkpt lat="34.0047067" lon="7.8889117"><ele>-8.0</ele><time>2026-04-23T13:37:06.347Z</time></trkpt><trkpt lat="34.0047083" lon="7.88903"><ele>-8.0</ele><time>2026-04-23T13:37:07.347Z</time></trkpt><trkpt lat="34.0047133" lon="7.8891617"><ele>-8.0</ele><time>2026-04-23T13:37:08.348Z</time></trkpt><trkpt lat="34.0047233" lon="7.8892917"><ele>-8.5</ele><time>2026-04-23T13:37:09.347Z</time></trkpt><trkpt lat="34.0047317" lon="7.8894233"><ele>-9.0</ele><time>2026-04-23T13:37:10.348Z</time></trkpt><trkpt lat="34.0047417" lon="7.8895583"><ele>-9.5</ele><time>2026-04-23T13:37:11.348Z</time></trkpt><trkpt lat="34.004745" lon="7.8896967"><ele>-10.0</ele><time>2026-04-23T13:37:12.347Z</time></trkpt><trkpt lat="34.004755" lon="7.8898333"><ele>-10.0</ele><time>2026-04-23T13:37:13.348Z</time></trkpt><trkpt lat="34.0047633" lon="7.8899667"><ele>-10.0</ele><time>2026-04-23T13:37:14.347Z</time></trkpt><trkpt lat="34.00477" lon="7.8901017"><ele>-10.0</ele><time>2026-04-23T13:37:15.347Z</time></trkpt><trkpt lat="34.0047767" lon="7.8902333"><ele>-10.0</ele><time>2026-04-23T13:37:16.346Z</time></trkpt><trkpt lat="34.00478" lon="7.89037"><ele>-10.0</ele><time>2026-04-23T13:37:17.347Z</time></trkpt><trkpt lat="34.0047767" lon="7.8905017"><ele>-10.0</ele><time>2026-04-23T13:37:18.347Z</time></trkpt><trkpt lat="34.004775" lon="7.8906367"><ele>-10.0</ele><time>2026-04-23T13:37:19.346Z</time></trkpt><trkpt lat="34.0047717" lon="7.890775"><ele>-10.0</ele><time>2026-04-23T13:37:20.346Z</time></trkpt><trkpt lat="34.0047717" lon="7.8909067"><ele>-10.0</ele><time>2026-04-23T13:37:21.347Z</time></trkpt><trkpt lat="34.0047717" lon="7.8910433"><ele>-10.0</ele><time>2026-04-23T13:37:22.347Z</time></trkpt><trkpt lat="34.0047733" lon="7.891185"><ele>-10.0</ele><time>2026-04-23T13:37:23.346Z</time></trkpt><trkpt lat="34.004765" lon="7.8913333"><ele>-10.0</ele><time>2026-04-23T13:37:24.347Z</time></trkpt><trkpt lat="34.0047667" lon="7.8914767"><ele>-10.0</ele><time>2026-04-23T13:37:25.346Z</time></trkpt><trkpt lat="34.0047767" lon="7.8916133"><ele>-10.0</ele><time>2026-04-23T13:37:26.347Z</time></trkpt><trkpt lat="34.0047917" lon="7.89175"><ele>-9.75</ele><time>2026-04-23T13:37:27.347Z</time></trkpt><trkpt lat="34.0048133" lon="7.8918867"><ele>-9.5</ele><time>2026-04-23T13:37:28.346Z</time></trkpt><trkpt lat="34.0048333" lon="7.8920183"><ele>-9.25</ele><time>2026-04-23T13:37:29.346Z</time></trkpt><trkpt lat="34.0048583" lon="7.8921583"><ele>-9.0</ele><time>2026-04-23T13:37:30.346Z</time></trkpt><trkpt lat="34.0048833" lon="7.8922967"><ele>-9.0</ele><time>2026-04-23T13:37:31.346Z</time></trkpt><trkpt lat="34.0049083" lon="7.89244"><ele>-9.0</ele><time>2026-04-23T13:37:32.347Z</time></trkpt><trkpt lat="34.0049333" lon="7.8925767"><ele>-9.0</ele><time>2026-04-23T13:37:33.346Z</time></trkpt><trkpt lat="34.0049783" lon="7.8927033"><ele>-9.0</ele><time>2026-04-23T13:37:34.346Z</time></trkpt><trkpt lat="34.0050367" lon="7.8928167"><ele>-9.25</ele><time>2026-04-23T13:37:35.346Z</time></trkpt><trkpt lat="34.0050917" lon="7.89294"><ele>-9.5</ele><time>2026-04-23T13:37:36.346Z</time></trkpt><trkpt lat="34.005145" lon="7.8930667"><ele>-9.75</ele><time>2026-04-23T13:37:37.346Z</time></trkpt><trkpt lat="34.0051933" lon="7.8931933"><ele>-10.0</ele><time>2026-04-23T13:37:38.346Z</time></trkpt><trkpt lat="34.00524" lon="7.8933183"><ele>-10.25</ele><time>2026-04-23T13:37:39.346Z</time></trkpt><trkpt lat="34.0052833" lon="7.8934433"><ele>-10.5</ele><time>2026-04-23T13:37:40.346Z</time></trkpt><trkpt lat="34.005335" lon="7.893575"><ele>-10.75</ele><time>2026-04-23T13:37:41.346Z</time></trkpt><trkpt lat="34.00539" lon="7.8937033"><ele>-11.0</ele><time>2026-04-23T13:37:42.346Z</time></trkpt><trkpt lat="34.00546" lon="7.8938217"><ele>-11.0</ele><time>2026-04-23T13:37:43.347Z</time></trkpt><trkpt lat="34.0055383" lon="7.8939333"><ele>-11.0</ele><time>2026-04-23T13:37:44.346Z</time></trkpt><trkpt lat="34.0056183" lon="7.894035"><ele>-11.0</ele><time>2026-04-23T13:37:45.347Z</time></trkpt><trkpt lat="34.005695" lon="7.8941367"><ele>-11.0</ele><time>2026-04-23T13:37:46.347Z</time></trkpt><trkpt lat="34.0057733" lon="7.8942383"><ele>-10.25</ele><time>2026-04-23T13:37:47.346Z</time></trkpt><trkpt lat="34.0058617" lon="7.894335"><ele>-9.5</ele><time>2026-04-23T13:37:48.346Z</time></trkpt><trkpt lat="34.0059483" lon="7.8944333"><ele>-8.75</ele><time>2026-04-23T13:37:49.347Z</time></trkpt><trkpt lat="34.0060283" lon="7.8945333"><ele>-8.0</ele><time>2026-04-23T13:37:50.346Z</time></trkpt><trkpt lat="34.0061017" lon="7.89463"><ele>-8.0</ele><time>2026-04-23T13:37:51.347Z</time></trkpt><trkpt lat="34.0061717" lon="7.8947233"><ele>-8.0</ele><time>2026-04-23T13:37:52.347Z</time></trkpt><trkpt lat="34.00626" lon="7.8948083"><ele>-8.0</ele><time>2026-04-23T13:37:53.347Z</time></trkpt><trkpt lat="34.0063633" lon="7.89488"><ele>-8.0</ele><time>2026-04-23T13:37:54.346Z</time></trkpt><trkpt lat="34.0064583" lon="7.894955"><ele>-8.0</ele><time>2026-04-23T13:37:55.346Z</time></trkpt><trkpt lat="34.0065333" lon="7.8950217"><ele>-8.0</ele><time>2026-04-23T13:37:56.347Z</time></trkpt><trkpt lat="34.0066167" lon="7.89509"><ele>-8.0</ele><time>2026-04-23T13:37:57.347Z</time></trkpt><trkpt lat="34.0067067" lon="7.8951567"><ele>-8.0</ele><time>2026-04-23T13:37:58.346Z</time></trkpt><trkpt lat="34.0067967" lon="7.8952117"><ele>-8.0</ele><time>2026-04-23T13:37:59.346Z</time></trkpt><trkpt lat="34.0068783" lon="7.8952917"><ele>-7.6000000000000005</ele><time>2026-04-23T13:38:00.346Z</time></trkpt><trkpt lat="34.006955" lon="7.8953667"><ele>-7.200000000000001</ele><time>2026-04-23T13:38:01.346Z</time></trkpt><trkpt lat="34.0070167" lon="7.895445"><ele>-6.8</ele><time>2026-04-23T13:38:02.347Z</time></trkpt><trkpt lat="34.0070983" lon="7.895515"><ele>-6.4</ele><time>2026-04-23T13:38:03.347Z</time></trkpt><trkpt lat="34.0071733" lon="7.8955933"><ele>-6.0</ele><time>2026-04-23T13:38:04.347Z</time></trkpt><trkpt lat="34.0072417" lon="7.8956717"><ele>-6.0</ele><time>2026-04-23T13:38:05.346Z</time></trkpt><trkpt lat="34.007325" lon="7.8957483"><ele>-6.0</ele><time>2026-04-23T13:38:06.347Z</time></trkpt><trkpt lat="34.0074067" lon="7.8958233"><ele>-6.0</ele><time>2026-04-23T13:38:07.346Z</time></trkpt><trkpt lat="34.0074933" lon="7.895905"><ele>-6.0</ele><time>2026-04-23T13:38:08.347Z</time></trkpt><trkpt lat="34.0075767" lon="7.89599"><ele>-6.0</ele><time>2026-04-23T13:38:09.347Z</time></trkpt><trkpt lat="34.0076583" lon="7.8960883"><ele>-6.4</ele><time>2026-04-23T13:38:10.346Z</time></trkpt><trkpt lat="34.0077317" lon="7.8961933"><ele>-6.8</ele><time>2026-04-23T13:38:11.347Z</time></trkpt><trkpt lat="34.00779" lon="7.8963033"><ele>-7.200000000000001</ele><time>2026-04-23T13:38:12.346Z</time></trkpt><trkpt lat="34.007835" lon="7.8964233"><ele>-7.6000000000000005</ele><time>2026-04-23T13:38:13.347Z</time></trkpt><trkpt lat="34.007865" lon="7.8965467"><ele>-8.0</ele><time>2026-04-23T13:38:14.347Z</time></trkpt><trkpt lat="34.007885" lon="7.89667"><ele>-8.25</ele><time>2026-04-23T13:38:15.346Z</time></trkpt><trkpt lat="34.0079083" lon="7.8968"><ele>-8.5</ele><time>2026-04-23T13:38:16.347Z</time></trkpt><trkpt lat="34.007925" lon="7.89694"><ele>-8.75</ele><time>2026-04-23T13:38:17.347Z</time></trkpt><trkpt lat="34.00794" lon="7.897075"><ele>-9.0</ele><time>2026-04-23T13:38:18.347Z</time></trkpt><trkpt lat="34.007955" lon="7.89722"><ele>-9.0</ele><time>2026-04-23T13:38:19.346Z</time></trkpt><trkpt lat="34.0079667" lon="7.897365"><ele>-9.0</ele><time>2026-04-23T13:38:20.346Z</time></trkpt><trkpt lat="34.0079733" lon="7.89751"><ele>-9.0</ele><time>2026-04-23T13:38:21.347Z</time></trkpt><trkpt lat="34.00799" lon="7.8976633"><ele>-9.0</ele><time>2026-04-23T13:38:22.346Z</time></trkpt><trkpt lat="34.008005" lon="7.8978233"><ele>-8.75</ele><time>2026-04-23T13:38:23.346Z</time></trkpt><trkpt lat="34.0080233" lon="7.8979783"><ele>-8.5</ele><time>2026-04-23T13:38:24.347Z</time></trkpt><trkpt lat="34.0080417" lon="7.8981317"><ele>-8.25</ele><time>2026-04-23T13:38:25.346Z</time></trkpt><trkpt lat="34.008065" lon="7.8982783"><ele>-8.0</ele><time>2026-04-23T13:38:26.346Z</time></trkpt><trkpt lat="34.0080933" lon="7.8984233"><ele>-8.0</ele><time>2026-04-23T13:38:27.346Z</time></trkpt><trkpt lat="34.0081183" lon="7.8985767"><ele>-8.0</ele><time>2026-04-23T13:38:28.346Z</time></trkpt><trkpt lat="34.0081533" lon="7.89873"><ele>-8.0</ele><time>2026-04-23T13:38:29.347Z</time></trkpt><trkpt lat="34.0081967" lon="7.8988783"><ele>-8.0</ele><time>2026-04-23T13:38:30.347Z</time></trkpt><trkpt lat="34.0082283" lon="7.8990217"><ele>-8.0</ele><time>2026-04-23T13:38:31.346Z</time></trkpt><trkpt lat="34.0082733" lon="7.8991733"><ele>-8.0</ele><time>2026-04-23T13:38:32.346Z</time></trkpt><trkpt lat="34.00832" lon="7.899325"><ele>-8.0</ele><time>2026-04-23T13:38:33.346Z</time></trkpt><trkpt lat="34.0083583" lon="7.8994817"><ele>-8.0</ele><time>2026-04-23T13:38:34.346Z</time></trkpt><trkpt lat="34.00839" lon="7.89963"><ele>-8.5</ele><time>2026-04-23T13:38:35.346Z</time></trkpt><trkpt lat="34.0084317" lon="7.8997933"><ele>-9.0</ele><time>2026-04-23T13:38:36.347Z</time></trkpt><trkpt lat="34.0084683" lon="7.8999683"><ele>-9.5</ele><time>2026-04-23T13:38:37.347Z</time></trkpt><trkpt lat="34.00849" lon="7.90014"><ele>-10.0</ele><time>2026-04-23T13:38:38.346Z</time></trkpt><trkpt lat="34.008515" lon="7.9003083"><ele>-10.0</ele><time>2026-04-23T13:38:39.346Z</time></trkpt><trkpt lat="34.0085383" lon="7.9004767"><ele>-10.0</ele><time>2026-04-23T13:38:40.346Z</time></trkpt><trkpt lat="34.0085633" lon="7.9006417"><ele>-10.0</ele><time>2026-04-23T13:38:41.346Z</time></trkpt><trkpt lat="34.00859" lon="7.90081"><ele>-10.0</ele><time>2026-04-23T13:38:42.347Z</time></trkpt><trkpt lat="34.0086167" lon="7.9009717"><ele>-9.75</ele><time>2026-04-23T13:38:43.347Z</time></trkpt><trkpt lat="34.0086367" lon="7.9011367"><ele>-9.5</ele><time>2026-04-23T13:38:44.346Z</time></trkpt><trkpt lat="34.0086617" lon="7.90131"><ele>-9.25</ele><time>2026-04-23T13:38:45.347Z</time></trkpt><trkpt lat="34.0086867" lon="7.9014783"><ele>-9.0</ele><time>2026-04-23T13:38:46.347Z</time></trkpt><trkpt lat="34.0087117" lon="7.9016367"><ele>-8.75</ele><time>2026-04-23T13:38:47.346Z</time></trkpt><trkpt lat="34.0087433" lon="7.9017917"><ele>-8.5</ele><time>2026-04-23T13:38:48.347Z</time></trkpt><trkpt lat="34.0087783" lon="7.9019433"><ele>-8.25</ele><time>2026-04-23T13:38:49.346Z</time></trkpt><trkpt lat="34.0088033" lon="7.9021033"><ele>-8.0</ele><time>2026-04-23T13:38:50.347Z</time></trkpt><trkpt lat="34.0088267" lon="7.9022733"><ele>-8.0</ele><time>2026-04-23T13:38:51.347Z</time></trkpt><trkpt lat="34.008855" lon="7.9024217"><ele>-8.0</ele><time>2026-04-23T13:38:52.346Z</time></trkpt><trkpt lat="34.0088783" lon="7.9025733"><ele>-8.0</ele><time>2026-04-23T13:38:53.347Z</time></trkpt><trkpt lat="34.0089017" lon="7.9027233"><ele>-8.0</ele><time>2026-04-23T13:38:54.346Z</time></trkpt><trkpt lat="34.0089267" lon="7.9028917"><ele>-8.0</ele><time>2026-04-23T13:38:55.347Z</time></trkpt><trkpt lat="34.0089517" lon="7.90306"><ele>-8.0</ele><time>2026-04-23T13:38:56.347Z</time></trkpt><trkpt lat="34.0089783" lon="7.903225"><ele>-8.0</ele><time>2026-04-23T13:38:57.346Z</time></trkpt><trkpt lat="34.0090017" lon="7.9033917"><ele>-8.0</ele><time>2026-04-23T13:38:58.347Z</time></trkpt><trkpt lat="34.0090283" lon="7.9035483"><ele>-8.0</ele><time>2026-04-23T13:38:59.347Z</time></trkpt><trkpt lat="34.0090567" lon="7.903705"><ele>-8.0</ele><time>2026-04-23T13:39:00.347Z</time></trkpt><trkpt lat="34.0090833" lon="7.90387"><ele>-8.0</ele><time>2026-04-23T13:39:01.346Z</time></trkpt><trkpt lat="34.00911" lon="7.90403"><ele>-8.0</ele><time>2026-04-23T13:39:02.346Z</time></trkpt><trkpt lat="34.009135" lon="7.9041967"><ele>-8.0</ele><time>2026-04-23T13:39:03.347Z</time></trkpt><trkpt lat="34.009155" lon="7.9043567"><ele>-8.0</ele><time>2026-04-23T13:39:04.347Z</time></trkpt><trkpt lat="34.00918" lon="7.9045217"><ele>-8.0</ele><time>2026-04-23T13:39:05.346Z</time></trkpt><trkpt lat="34.009205" lon="7.9046917"><ele>-8.0</ele><time>2026-04-23T13:39:06.347Z</time></trkpt><trkpt lat="34.0092283" lon="7.9048583"><ele>-8.0</ele><time>2026-04-23T13:39:07.346Z</time></trkpt><trkpt lat="34.0092483" lon="7.90502"><ele>-8.0</ele><time>2026-04-23T13:39:08.347Z</time></trkpt><trkpt lat="34.0092767" lon="7.9051783"><ele>-8.0</ele><time>2026-04-23T13:39:09.347Z</time></trkpt><trkpt lat="34.0092983" lon="7.90534"><ele>-8.0</ele><time>2026-04-23T13:39:10.346Z</time></trkpt><trkpt lat="34.009325" lon="7.9055033"><ele>-8.0</ele><time>2026-04-23T13:39:11.346Z</time></trkpt><trkpt lat="34.00935" lon="7.90567"><ele>-8.0</ele><time>2026-04-23T13:39:12.347Z</time></trkpt><trkpt lat="34.009375" lon="7.9058283"><ele>-8.0</ele><time>2026-04-23T13:39:13.346Z</time></trkpt><trkpt lat="34.0094017" lon="7.90599"><ele>-8.0</ele><time>2026-04-23T13:39:14.347Z</time></trkpt><trkpt lat="34.009425" lon="7.9061533"><ele>-8.25</ele><time>2026-04-23T13:39:15.346Z</time></trkpt><trkpt lat="34.0094483" lon="7.906315"><ele>-8.5</ele><time>2026-04-23T13:39:16.347Z</time></trkpt><trkpt lat="34.0094717" lon="7.9064767"><ele>-8.75</ele><time>2026-04-23T13:39:17.346Z</time></trkpt><trkpt lat="34.0094867" lon="7.9066467"><ele>-9.0</ele><time>2026-04-23T13:39:18.346Z</time></trkpt><trkpt lat="34.00951" lon="7.90681"><ele>-9.0</ele><time>2026-04-23T13:39:19.346Z</time></trkpt><trkpt lat="34.009535" lon="7.90698"><ele>-9.0</ele><time>2026-04-23T13:39:20.347Z</time></trkpt><trkpt lat="34.0095567" lon="7.9071533"><ele>-9.0</ele><time>2026-04-23T13:39:21.346Z</time></trkpt><trkpt lat="34.0095867" lon="7.9073183"><ele>-9.0</ele><time>2026-04-23T13:39:22.347Z</time></trkpt><trkpt lat="34.0096133" lon="7.9074867"><ele>-8.75</ele><time>2026-04-23T13:39:23.346Z</time></trkpt><trkpt lat="34.00964" lon="7.9076517"><ele>-8.5</ele><time>2026-04-23T13:39:24.347Z</time></trkpt><trkpt lat="34.0096683" lon="7.9078117"><ele>-8.25</ele><time>2026-04-23T13:39:25.347Z</time></trkpt><trkpt lat="34.0096867" lon="7.9079833"><ele>-8.0</ele><time>2026-04-23T13:39:26.347Z</time></trkpt><trkpt lat="34.009705" lon="7.9081517"><ele>-8.0</ele><time>2026-04-23T13:39:27.347Z</time></trkpt><trkpt lat="34.0097283" lon="7.908315"><ele>-8.0</ele><time>2026-04-23T13:39:28.347Z</time></trkpt><trkpt lat="34.0097533" lon="7.90848"><ele>-8.0</ele><time>2026-04-23T13:39:29.346Z</time></trkpt><trkpt lat="34.0097767" lon="7.908645"><ele>-8.0</ele><time>2026-04-23T13:39:30.346Z</time></trkpt><trkpt lat="34.0097917" lon="7.908825"><ele>-8.0</ele><time>2026-04-23T13:39:31.347Z</time></trkpt><trkpt lat="34.0098117" lon="7.9090033"><ele>-8.0</ele><time>2026-04-23T13:39:32.346Z</time></trkpt><trkpt lat="34.009835" lon="7.9091733"><ele>-8.0</ele><time>2026-04-23T13:39:33.347Z</time></trkpt><trkpt lat="34.0098583" lon="7.90935"><ele>-8.0</ele><time>2026-04-23T13:39:34.347Z</time></trkpt><trkpt lat="34.0098817" lon="7.90952"><ele>-8.25</ele><time>2026-04-23T13:39:35.346Z</time></trkpt><trkpt lat="34.0099" lon="7.909695"><ele>-8.5</ele><time>2026-04-23T13:39:36.347Z</time></trkpt><trkpt lat="34.009925" lon="7.9098633"><ele>-8.75</ele><time>2026-04-23T13:39:37.347Z</time></trkpt><trkpt lat="34.0099433" lon="7.9100317"><ele>-9.0</ele><time>2026-04-23T13:39:38.346Z</time></trkpt><trkpt lat="34.0099633" lon="7.9102"><ele>-9.0</ele><time>2026-04-23T13:39:39.347Z</time></trkpt><trkpt lat="34.00999" lon="7.910365"><ele>-9.0</ele><time>2026-04-23T13:39:40.346Z</time></trkpt><trkpt lat="34.01001" lon="7.9105383"><ele>-9.0</ele><time>2026-04-23T13:39:41.346Z</time></trkpt><trkpt lat="34.010035" lon="7.91071"><ele>-9.0</ele><time>2026-04-23T13:39:42.347Z</time></trkpt><trkpt lat="34.010065" lon="7.9108733"><ele>-9.0</ele><time>2026-04-23T13:39:43.346Z</time></trkpt><trkpt lat="34.01009" lon="7.9110467"><ele>-9.0</ele><time>2026-04-23T13:39:44.347Z</time></trkpt><trkpt lat="34.0101183" lon="7.91122"><ele>-9.0</ele><time>2026-04-23T13:39:45.347Z</time></trkpt><trkpt lat="34.0101367" lon="7.9113933"><ele>-9.0</ele><time>2026-04-23T13:39:46.347Z</time></trkpt><trkpt lat="34.0101633" lon="7.9115617"><ele>-9.0</ele><time>2026-04-23T13:39:47.346Z</time></trkpt><trkpt lat="34.0101833" lon="7.911725"><ele>-9.0</ele><time>2026-04-23T13:39:48.346Z</time></trkpt><trkpt lat="34.0102133" lon="7.9118883"><ele>-9.0</ele><time>2026-04-23T13:39:49.347Z</time></trkpt><trkpt lat="34.010235" lon="7.9120533"><ele>-9.0</ele><time>2026-04-23T13:39:50.347Z</time></trkpt><trkpt lat="34.0102633" lon="7.91221"><ele>-9.25</ele><time>2026-04-23T13:39:51.347Z</time></trkpt><trkpt lat="34.0102833" lon="7.9123733"><ele>-9.5</ele><time>2026-04-23T13:39:52.347Z</time></trkpt><trkpt lat="34.0103033" lon="7.9125417"><ele>-9.75</ele><time>2026-04-23T13:39:53.347Z</time></trkpt><trkpt lat="34.0103267" lon="7.9127067"><ele>-10.0</ele><time>2026-04-23T13:39:54.346Z</time></trkpt><trkpt lat="34.01035" lon="7.91287"><ele>-10.0</ele><time>2026-04-23T13:39:55.347Z</time></trkpt><trkpt lat="34.01037" lon="7.913035"><ele>-10.0</ele><time>2026-04-23T13:39:56.347Z</time></trkpt><trkpt lat="34.01039" lon="7.9132033"><ele>-10.0</ele><time>2026-04-23T13:39:57.347Z</time></trkpt><trkpt lat="34.0104133" lon="7.9133667"><ele>-10.0</ele><time>2026-04-23T13:39:58.346Z</time></trkpt><trkpt lat="34.0104383" lon="7.9135317"><ele>-9.5</ele><time>2026-04-23T13:39:59.347Z</time></trkpt><trkpt lat="34.0104633" lon="7.9136967"><ele>-9.0</ele><time>2026-04-23T13:40:00.346Z</time></trkpt><trkpt lat="34.0104917" lon="7.9138617"><ele>-8.5</ele><time>2026-04-23T13:40:01.346Z</time></trkpt><trkpt lat="34.0105233" lon="7.9140233"><ele>-8.0</ele><time>2026-04-23T13:40:02.346Z</time></trkpt><trkpt lat="34.0105567" lon="7.9141817"><ele>-7.5</ele><time>2026-04-23T13:40:03.346Z</time></trkpt><trkpt lat="34.01059" lon="7.91434"><ele>-7.0</ele><time>2026-04-23T13:40:04.347Z</time></trkpt><trkpt lat="34.0106217" lon="7.9144967"><ele>-6.5</ele><time>2026-04-23T13:40:05.347Z</time></trkpt><trkpt lat="34.0106517" lon="7.9146617"><ele>-6.0</ele><time>2026-04-23T13:40:06.346Z</time></trkpt><trkpt lat="34.01068" lon="7.91482"><ele>-6.0</ele><time>2026-04-23T13:40:07.346Z</time></trkpt><trkpt lat="34.0107083" lon="7.9149783"><ele>-6.0</ele><time>2026-04-23T13:40:08.347Z</time></trkpt><trkpt lat="34.0107283" lon="7.9151417"><ele>-6.0</ele><time>2026-04-23T13:40:09.347Z</time></trkpt><trkpt lat="34.0107483" lon="7.915305"><ele>-6.0</ele><time>2026-04-23T13:40:10.346Z</time></trkpt><trkpt lat="34.0107683" lon="7.9154633"><ele>-6.0</ele><time>2026-04-23T13:40:11.346Z</time></trkpt><trkpt lat="34.0107917" lon="7.9156233"><ele>-6.0</ele><time>2026-04-23T13:40:12.346Z</time></trkpt><trkpt lat="34.0108167" lon="7.91579"><ele>-6.0</ele><time>2026-04-23T13:40:13.347Z</time></trkpt><trkpt lat="34.0108433" lon="7.9159567"><ele>-6.0</ele><time>2026-04-23T13:40:14.347Z</time></trkpt><trkpt lat="34.010865" lon="7.91611"><ele>-6.4</ele><time>2026-04-23T13:40:15.346Z</time></trkpt><trkpt lat="34.01088" lon="7.9162433"><ele>-6.8</ele><time>2026-04-23T13:40:16.347Z</time></trkpt><trkpt lat="34.0109" lon="7.9163633"><ele>-7.200000000000001</ele><time>2026-04-23T13:40:17.347Z</time></trkpt><trkpt lat="34.0109217" lon="7.9164717"><ele>-7.6000000000000005</ele><time>2026-04-23T13:40:18.347Z</time></trkpt><trkpt lat="34.0109383" lon="7.9165733"><ele>-8.0</ele><time>2026-04-23T13:40:19.346Z</time></trkpt><trkpt lat="34.0109583" lon="7.91667"><ele>-8.166666666666666</ele><time>2026-04-23T13:40:20.347Z</time></trkpt><trkpt lat="34.010975" lon="7.9167533"><ele>-8.333333333333332</ele><time>2026-04-23T13:40:21.346Z</time></trkpt><trkpt lat="34.01099" lon="7.91683"><ele>-8.5</ele><time>2026-04-23T13:40:22.347Z</time></trkpt><trkpt lat="34.011005" lon="7.9169617"><ele>-8.666666666666666</ele><time>2026-04-23T13:40:24.346Z</time></trkpt><trkpt lat="34.0110283" lon="7.917055"><ele>-8.833333333333334</ele><time>2026-04-23T13:40:26.346Z</time></trkpt><trkpt lat="34.0110717" lon="7.9171133"><ele>-9.0</ele><time>2026-04-23T13:40:29.346Z</time></trkpt><trkpt lat="34.011165" lon="7.9170917"><ele>-9.0</ele><time>2026-04-23T13:40:47.346Z</time></trkpt><trkpt lat="34.0112317" lon="7.9170683"><ele>-9.0</ele><time>2026-04-23T13:40:48.345Z</time></trkpt><trkpt lat="34.0113117" lon="7.9170333"><ele>-9.0</ele><time>2026-04-23T13:40:49.345Z</time></trkpt><trkpt lat="34.0113983" lon="7.9170033"><ele>-9.0</ele><time>2026-04-23T13:40:50.345Z</time></trkpt><trkpt lat="34.0114983" lon="7.9169767"><ele>-9.0</ele><time>2026-04-23T13:40:51.346Z</time></trkpt><trkpt lat="34.0116067" lon="7.91696"><ele>-9.25</ele><time>2026-04-23T13:40:52.345Z</time></trkpt><trkpt lat="34.011725" lon="7.9169367"><ele>-9.5</ele><time>2026-04-23T13:40:53.346Z</time></trkpt><trkpt lat="34.0118483" lon="7.916915"><ele>-9.75</ele><time>2026-04-23T13:40:54.345Z</time></trkpt><trkpt lat="34.0119717" lon="7.9169017"><ele>-10.0</ele><time>2026-04-23T13:40:55.345Z</time></trkpt><trkpt lat="34.0120917" lon="7.9168783"><ele>-10.0</ele><time>2026-04-23T13:40:56.346Z</time></trkpt><trkpt lat="34.0122083" lon="7.9168433"><ele>-10.0</ele><time>2026-04-23T13:40:57.345Z</time></trkpt><trkpt lat="34.012325" lon="7.9168017"><ele>-10.0</ele><time>2026-04-23T13:40:58.346Z</time></trkpt><trkpt lat="34.01243" lon="7.91676"><ele>-10.0</ele><time>2026-04-23T13:40:59.345Z</time></trkpt><trkpt lat="34.0125267" lon="7.9167283"><ele>-10.6</ele><time>2026-04-23T13:41:00.345Z</time></trkpt><trkpt lat="34.0126183" lon="7.9167083"><ele>-11.2</ele><time>2026-04-23T13:41:01.345Z</time></trkpt><trkpt lat="34.0127033" lon="7.9167033"><ele>-11.8</ele><time>2026-04-23T13:41:02.346Z</time></trkpt><trkpt lat="34.012805" lon="7.9167133"><ele>-12.4</ele><time>2026-04-23T13:41:03.346Z</time></trkpt><trkpt lat="34.0129117" lon="7.9167217"><ele>-13.0</ele><time>2026-04-23T13:41:04.346Z</time></trkpt><trkpt lat="34.0130267" lon="7.9167217"><ele>-13.0</ele><time>2026-04-23T13:41:05.346Z</time></trkpt><trkpt lat="34.0131533" lon="7.91671"><ele>-13.0</ele><time>2026-04-23T13:41:06.345Z</time></trkpt><trkpt lat="34.0132833" lon="7.916705"><ele>-13.0</ele><time>2026-04-23T13:41:07.345Z</time></trkpt><trkpt lat="34.0134233" lon="7.9166983"><ele>-13.0</ele><time>2026-04-23T13:41:08.346Z</time></trkpt><trkpt lat="34.013575" lon="7.91669"><ele>-12.666666666666666</ele><time>2026-04-23T13:41:09.346Z</time></trkpt><trkpt lat="34.013735" lon="7.91667"><ele>-12.333333333333332</ele><time>2026-04-23T13:41:10.346Z</time></trkpt><trkpt lat="34.0138983" lon="7.9166417"><ele>-12.0</ele><time>2026-04-23T13:41:11.345Z</time></trkpt><trkpt lat="34.0140633" lon="7.9166133"><ele>-11.6</ele><time>2026-04-23T13:41:12.346Z</time></trkpt><trkpt lat="34.014205" lon="7.9165967"><ele>-11.2</ele><time>2026-04-23T13:41:13.345Z</time></trkpt><trkpt lat="34.014325" lon="7.9165833"><ele>-10.8</ele><time>2026-04-23T13:41:14.346Z</time></trkpt><trkpt lat="34.01443" lon="7.9165667"><ele>-10.4</ele><time>2026-04-23T13:41:15.345Z</time></trkpt><trkpt lat="34.014505" lon="7.9165483"><ele>-10.0</ele><time>2026-04-23T13:41:16.345Z</time></trkpt><trkpt lat="34.0145767" lon="7.9165067"><ele>-10.0</ele><time>2026-04-23T13:41:18.345Z</time></trkpt><trkpt lat="34.0145783" lon="7.916415"><ele>-10.0</ele><time>2026-04-23T13:41:48.345Z</time></trkpt><trkpt lat="34.0145917" lon="7.9163033"><ele>-10.0</ele><time>2026-04-23T13:41:49.345Z</time></trkpt><trkpt lat="34.014605" lon="7.9161817"><ele>-10.0</ele><time>2026-04-23T13:41:50.346Z</time></trkpt><trkpt lat="34.0146167" lon="7.9160667"><ele>-10.0</ele><time>2026-04-23T13:41:51.345Z</time></trkpt><trkpt lat="34.014645" lon="7.9159633"><ele>-10.0</ele><time>2026-04-23T13:41:52.345Z</time></trkpt><trkpt lat="34.01468" lon="7.915875"><ele>-10.0</ele><time>2026-04-23T13:41:53.346Z</time></trkpt><trkpt lat="34.0147317" lon="7.9157983"><ele>-10.0</ele><time>2026-04-23T13:41:54.346Z</time></trkpt><trkpt lat="34.0147883" lon="7.9157283"><ele>-10.0</ele><time>2026-04-23T13:41:55.345Z</time></trkpt><trkpt lat="34.01486" lon="7.9156883"><ele>-10.0</ele><time>2026-04-23T13:41:56.345Z</time></trkpt><trkpt lat="34.0149433" lon="7.9156783"><ele>-10.0</ele><time>2026-04-23T13:41:57.346Z</time></trkpt><trkpt lat="34.01503" lon="7.9156933"><ele>-10.0</ele><time>2026-04-23T13:41:58.345Z</time></trkpt><trkpt lat="34.0151167" lon="7.9157233"><ele>-10.0</ele><time>2026-04-23T13:41:59.346Z</time></trkpt><trkpt lat="34.0152017" lon="7.915775"><ele>-10.0</ele><time>2026-04-23T13:42:00.345Z</time></trkpt><trkpt lat="34.0152833" lon="7.9158333"><ele>-10.0</ele><time>2026-04-23T13:42:01.345Z</time></trkpt><trkpt lat="34.015355" lon="7.91588"><ele>-10.0</ele><time>2026-04-23T13:42:02.346Z</time></trkpt><trkpt lat="34.015425" lon="7.9159183"><ele>-10.0</ele><time>2026-04-23T13:42:03.345Z</time></trkpt><trkpt lat="34.0154917" lon="7.9159467"><ele>-10.0</ele><time>2026-04-23T13:42:04.345Z</time></trkpt><trkpt lat="34.0155617" lon="7.915945"><ele>-10.0</ele><time>2026-04-23T13:42:05.346Z</time></trkpt><trkpt lat="34.0156267" lon="7.91592"><ele>-10.0</ele><time>2026-04-23T13:42:06.345Z</time></trkpt><trkpt lat="34.0156833" lon="7.915885"><ele>-10.0</ele><time>2026-04-23T13:42:07.346Z</time></trkpt><trkpt lat="34.0157367" lon="7.91584"><ele>-10.0</ele><time>2026-04-23T13:42:08.346Z</time></trkpt><trkpt lat="34.01578" lon="7.915775"><ele>-10.0</ele><time>2026-04-23T13:42:09.345Z</time></trkpt><trkpt lat="34.0158233" lon="7.9156433"><ele>-11.8</ele><time>2026-04-23T13:42:11.345Z</time></trkpt><trkpt lat="34.0158383" lon="7.91556"><ele>-13.6</ele><time>2026-04-23T13:42:12.345Z</time></trkpt><trkpt lat="34.0158467" lon="7.9154517"><ele>-15.399999999999999</ele><time>2026-04-23T13:42:13.345Z</time></trkpt><trkpt lat="34.0158567" lon="7.9153283"><ele>-17.2</ele><time>2026-04-23T13:42:14.346Z</time></trkpt><trkpt lat="34.015865" lon="7.9151883"><ele>-19.0</ele><time>2026-04-23T13:42:15.345Z</time></trkpt><trkpt lat="34.0158733" lon="7.9150217"><ele>-19.0</ele><time>2026-04-23T13:42:16.345Z</time></trkpt><trkpt lat="34.0158867" lon="7.9148417"><ele>-19.0</ele><time>2026-04-23T13:42:17.345Z</time></trkpt><trkpt lat="34.0159083" lon="7.9146367"><ele>-19.0</ele><time>2026-04-23T13:42:18.345Z</time></trkpt><trkpt lat="34.0159317" lon="7.9144217"><ele>-18.333333333333332</ele><time>2026-04-23T13:42:19.346Z</time></trkpt><trkpt lat="34.0159683" lon="7.9142067"><ele>-17.666666666666668</ele><time>2026-04-23T13:42:20.345Z</time></trkpt><trkpt lat="34.0160033" lon="7.9139967"><ele>-17.0</ele><time>2026-04-23T13:42:21.346Z</time></trkpt><trkpt lat="34.0160617" lon="7.9137967"><ele>-17.0</ele><time>2026-04-23T13:42:22.345Z</time></trkpt><trkpt lat="34.0161017" lon="7.9136017"><ele>-17.0</ele><time>2026-04-23T13:42:23.346Z</time></trkpt><trkpt lat="34.0161533" lon="7.91343"><ele>-17.0</ele><time>2026-04-23T13:42:24.346Z</time></trkpt><trkpt lat="34.016195" lon="7.913265"><ele>-16.75</ele><time>2026-04-23T13:42:25.345Z</time></trkpt><trkpt lat="34.0162167" lon="7.9131167"><ele>-16.5</ele><time>2026-04-23T13:42:26.346Z</time></trkpt><trkpt lat="34.0162267" lon="7.912985"><ele>-16.25</ele><time>2026-04-23T13:42:27.345Z</time></trkpt><trkpt lat="34.0162383" lon="7.91285"><ele>-16.0</ele><time>2026-04-23T13:42:28.345Z</time></trkpt><trkpt lat="34.0162467" lon="7.91271"><ele>-16.0</ele><time>2026-04-23T13:42:29.345Z</time></trkpt><trkpt lat="34.0162733" lon="7.91258"><ele>-16.0</ele><time>2026-04-23T13:42:30.346Z</time></trkpt><trkpt lat="34.0162933" lon="7.91246"><ele>-16.0</ele><time>2026-04-23T13:42:31.345Z</time></trkpt><trkpt lat="34.0162917" lon="7.9123567"><ele>-16.0</ele><time>2026-04-23T13:42:32.345Z</time></trkpt><trkpt lat="34.01629" lon="7.9122483"><ele>-16.0</ele><time>2026-04-23T13:42:33.346Z</time></trkpt><trkpt lat="34.016275" lon="7.9121533"><ele>-15.833333333333332</ele><time>2026-04-23T13:42:34.346Z</time></trkpt><trkpt lat="34.0162583" lon="7.9120633"><ele>-15.666666666666666</ele><time>2026-04-23T13:42:35.345Z</time></trkpt><trkpt lat="34.0162433" lon="7.911985"><ele>-15.5</ele><time>2026-04-23T13:42:36.346Z</time></trkpt><trkpt lat="34.0162383" lon="7.9118467"><ele>-15.333333333333332</ele><time>2026-04-23T13:42:38.346Z</time></trkpt><trkpt lat="34.0162583" lon="7.911735"><ele>-15.166666666666666</ele><time>2026-04-23T13:42:40.346Z</time></trkpt><trkpt lat="34.0162467" lon="7.91164"><ele>-15.0</ele><time>2026-04-23T13:42:42.346Z</time></trkpt><trkpt lat="34.0162" lon="7.9115433"><ele>-15.0</ele><time>2026-04-23T13:42:44.346Z</time></trkpt><trkpt lat="34.0161183" lon="7.91154"><ele>-15.0</ele><time>2026-04-23T13:42:47.345Z</time></trkpt><trkpt lat="34.0160833" lon="7.91163"><ele>-15.0</ele><time>2026-04-23T13:43:17.346Z</time></trkpt><trkpt lat="34.01601" lon="7.9117033"><ele>-15.0</ele><time>2026-04-23T13:43:19.345Z</time></trkpt><trkpt lat="34.0159333" lon="7.9117417"><ele>-15.0</ele><time>2026-04-23T13:43:21.345Z</time></trkpt><trkpt lat="34.0158517" lon="7.9117183"><ele>-15.0</ele><time>2026-04-23T13:43:23.345Z</time></trkpt><trkpt lat="34.0157817" lon="7.9116517"><ele>-14.2</ele><time>2026-04-23T13:43:25.345Z</time></trkpt><trkpt lat="34.015695" lon="7.9116167"><ele>-13.4</ele><time>2026-04-23T14:15:03.339Z</time></trkpt><trkpt lat="34.0156167" lon="7.9115783"><ele>-12.600000000000001</ele><time>2026-04-23T14:15:05.339Z</time></trkpt><trkpt lat="34.0155233" lon="7.9114867"><ele>-11.8</ele><time>2026-04-23T14:15:07.338Z</time></trkpt><trkpt lat="34.0154717" lon="7.9114367"><ele>-11.0</ele><time>2026-04-23T14:15:08.339Z</time></trkpt><trkpt lat="34.0153933" lon="7.91135"><ele>-11.0</ele><time>2026-04-23T14:15:10.339Z</time></trkpt><trkpt lat="34.01532" lon="7.9112717"><ele>-11.0</ele><time>2026-04-23T14:15:12.339Z</time></trkpt><trkpt lat="34.0152683" lon="7.9112133"><ele>-11.0</ele><time>2026-04-23T14:15:14.337Z</time></trkpt><trkpt lat="34.0152167" lon="7.9113283"><ele>-11.0</ele><time>2026-04-23T14:15:17.338Z</time></trkpt><trkpt lat="34.0152033" lon="7.911455"><ele>-11.0</ele><time>2026-04-23T14:15:19.338Z</time></trkpt><trkpt lat="34.0152083" lon="7.91158"><ele>-11.0</ele><time>2026-04-23T14:15:21.337Z</time></trkpt><trkpt lat="34.0152283" lon="7.9117"><ele>-11.0</ele><time>2026-04-23T14:15:23.338Z</time></trkpt><trkpt lat="34.015255" lon="7.9118383"><ele>-11.0</ele><time>2026-04-23T14:15:25.338Z</time></trkpt><trkpt lat="34.0152717" lon="7.9119217"><ele>-11.0</ele><time>2026-04-23T14:15:26.337Z</time></trkpt><trkpt lat="34.015285" lon="7.912015"><ele>-11.0</ele><time>2026-04-23T14:15:27.337Z</time></trkpt><trkpt lat="34.0153" lon="7.912105"><ele>-11.0</ele><time>2026-04-23T14:15:28.337Z</time></trkpt><trkpt lat="34.0153183" lon="7.9122033"><ele>-10.666666666666666</ele><time>2026-04-23T14:15:29.337Z</time></trkpt><trkpt lat="34.0153333" lon="7.9123"><ele>-10.333333333333332</ele><time>2026-04-23T14:15:30.337Z</time></trkpt><trkpt lat="34.01535" lon="7.912405"><ele>-10.0</ele><time>2026-04-23T14:15:31.337Z</time></trkpt><trkpt lat="34.0153667" lon="7.9125133"><ele>-9.666666666666666</ele><time>2026-04-23T14:15:32.337Z</time></trkpt><trkpt lat="34.0153833" lon="7.9126217"><ele>-9.333333333333334</ele><time>2026-04-23T14:15:33.337Z</time></trkpt><trkpt lat="34.0154" lon="7.912735"><ele>-9.0</ele><time>2026-04-23T14:15:34.337Z</time></trkpt><trkpt lat="34.0154217" lon="7.9128467"><ele>-9.0</ele><time>2026-04-23T14:15:35.338Z</time></trkpt><trkpt lat="34.01545" lon="7.9129633"><ele>-9.0</ele><time>2026-04-23T14:15:36.337Z</time></trkpt><trkpt lat="34.015465" lon="7.9130767"><ele>-9.0</ele><time>2026-04-23T14:15:37.337Z</time></trkpt><trkpt lat="34.015485" lon="7.9132017"><ele>-9.0</ele><time>2026-04-23T14:15:38.337Z</time></trkpt><trkpt lat="34.0155033" lon="7.9133267"><ele>-9.0</ele><time>2026-04-23T14:15:39.337Z</time></trkpt><trkpt lat="34.0155217" lon="7.9134467"><ele>-9.0</ele><time>2026-04-23T14:15:40.338Z</time></trkpt><trkpt lat="34.0155367" lon="7.9135633"><ele>-9.0</ele><time>2026-04-23T14:15:41.337Z</time></trkpt><trkpt lat="34.0155567" lon="7.9136783"><ele>-9.0</ele><time>2026-04-23T14:15:42.337Z</time></trkpt><trkpt lat="34.01557" lon="7.913795"><ele>-9.0</ele><time>2026-04-23T14:15:43.338Z</time></trkpt><trkpt lat="34.015585" lon="7.913895"><ele>-9.0</ele><time>2026-04-23T14:15:44.338Z</time></trkpt><trkpt lat="34.01561" lon="7.9140017"><ele>-9.0</ele><time>2026-04-23T14:15:45.338Z</time></trkpt><trkpt lat="34.0156367" lon="7.9141067"><ele>-9.0</ele><time>2026-04-23T14:15:46.337Z</time></trkpt><trkpt lat="34.01566" lon="7.9142117"><ele>-9.0</ele><time>2026-04-23T14:15:47.337Z</time></trkpt><trkpt lat="34.0156867" lon="7.9143217"><ele>-9.0</ele><time>2026-04-23T14:15:48.337Z</time></trkpt><trkpt lat="34.0157083" lon="7.9144217"><ele>-9.0</ele><time>2026-04-23T14:15:49.338Z</time></trkpt><trkpt lat="34.0157317" lon="7.9145133"><ele>-9.0</ele><time>2026-04-23T14:15:50.338Z</time></trkpt><trkpt lat="34.0157567" lon="7.9146083"><ele>-9.4</ele><time>2026-04-23T14:15:51.337Z</time></trkpt><trkpt lat="34.0157883" lon="7.9147083"><ele>-9.8</ele><time>2026-04-23T14:15:52.338Z</time></trkpt><trkpt lat="34.01581" lon="7.91479"><ele>-10.200000000000001</ele><time>2026-04-23T14:15:53.338Z</time></trkpt><trkpt lat="34.0158317" lon="7.9148617"><ele>-10.600000000000001</ele><time>2026-04-23T14:15:54.338Z</time></trkpt><trkpt lat="34.01585" lon="7.9149967"><ele>-11.0</ele><time>2026-04-23T14:15:56.337Z</time></trkpt><trkpt lat="34.015835" lon="7.9151333"><ele>-10.833333333333332</ele><time>2026-04-23T14:15:58.338Z</time></trkpt><trkpt lat="34.0158283" lon="7.9152183"><ele>-10.666666666666666</ele><time>2026-04-23T14:15:59.338Z</time></trkpt><trkpt lat="34.0158267" lon="7.915305"><ele>-10.5</ele><time>2026-04-23T14:16:00.337Z</time></trkpt><trkpt lat="34.0158233" lon="7.9154283"><ele>-10.333333333333334</ele><time>2026-04-23T14:16:02.338Z</time></trkpt><trkpt lat="34.0158167" lon="7.9155117"><ele>-10.166666666666668</ele><time>2026-04-23T14:16:04.337Z</time></trkpt><trkpt lat="34.0158083" lon="7.9155933"><ele>-10.0</ele><time>2026-04-23T14:16:06.338Z</time></trkpt><trkpt lat="34.015795" lon="7.9156733"><ele>-10.0</ele><time>2026-04-23T14:16:08.337Z</time></trkpt><trkpt lat="34.0157733" lon="7.9157683"><ele>-10.0</ele><time>2026-04-23T14:16:10.338Z</time></trkpt><trkpt lat="34.01576" lon="7.9159117"><ele>-10.0</ele><time>2026-04-23T14:16:12.338Z</time></trkpt><trkpt lat="34.015765" lon="7.91602"><ele>-10.0</ele><time>2026-04-23T14:16:14.338Z</time></trkpt><trkpt lat="34.0157933" lon="7.9161067"><ele>-10.0</ele><time>2026-04-23T14:16:16.338Z</time></trkpt><trkpt lat="34.0158233" lon="7.9162017"><ele>-11.666666666666668</ele><time>2026-04-23T14:16:18.337Z</time></trkpt><trkpt lat="34.0158633" lon="7.91633"><ele>-13.333333333333334</ele><time>2026-04-23T14:16:20.337Z</time></trkpt><trkpt lat="34.0158933" lon="7.91641"><ele>-15.0</ele><time>2026-04-23T14:16:21.338Z</time></trkpt><trkpt lat="34.015925" lon="7.916495"><ele>-16.666666666666668</ele><time>2026-04-23T14:16:22.338Z</time></trkpt><trkpt lat="34.0159567" lon="7.9165833"><ele>-18.333333333333336</ele><time>2026-04-23T14:16:23.338Z</time></trkpt><trkpt lat="34.0159817" lon="7.91667"><ele>-20.0</ele><time>2026-04-23T14:16:24.337Z</time></trkpt><trkpt lat="34.0160033" lon="7.9167583"><ele>-20.0</ele><time>2026-04-23T14:16:25.337Z</time></trkpt><trkpt lat="34.0160217" lon="7.9168433"><ele>-20.0</ele><time>2026-04-23T14:16:26.338Z</time></trkpt><trkpt lat="34.01603" lon="7.91692"><ele>-20.0</ele><time>2026-04-23T14:16:27.337Z</time></trkpt><trkpt lat="34.0160183" lon="7.9170433"><ele>-20.0</ele><time>2026-04-23T14:16:29.337Z</time></trkpt><trkpt lat="34.01598" lon="7.9171333"><ele>-20.0</ele><time>2026-04-23T14:16:31.337Z</time></trkpt><trkpt lat="34.015945" lon="7.9172133"><ele>-20.0</ele><time>2026-04-23T14:16:33.338Z</time></trkpt><trkpt lat="34.0159" lon="7.9173083"><ele>-20.0</ele><time>2026-04-23T14:16:35.337Z</time></trkpt><trkpt lat="34.0158617" lon="7.9174533"><ele>-20.0</ele><time>2026-04-23T14:16:37.337Z</time></trkpt><trkpt lat="34.015845" lon="7.9175417"><ele>-20.0</ele><time>2026-04-23T14:16:38.338Z</time></trkpt><trkpt lat="34.015835" lon="7.9176317"><ele>-20.0</ele><time>2026-04-23T14:16:39.337Z</time></trkpt><trkpt lat="34.0158233" lon="7.917725"><ele>-20.0</ele><time>2026-04-23T14:16:40.338Z</time></trkpt><trkpt lat="34.0158067" lon="7.9178267"><ele>-20.0</ele><time>2026-04-23T14:16:41.338Z</time></trkpt><trkpt lat="34.0158" lon="7.9179317"><ele>-18.2</ele><time>2026-04-23T14:16:42.337Z</time></trkpt><trkpt lat="34.0157867" lon="7.918035"><ele>-16.4</ele><time>2026-04-23T14:16:43.337Z</time></trkpt><trkpt lat="34.01577" lon="7.9181483"><ele>-14.600000000000001</ele><time>2026-04-23T14:16:44.338Z</time></trkpt><trkpt lat="34.0157633" lon="7.9182683"><ele>-12.8</ele><time>2026-04-23T14:16:45.337Z</time></trkpt><trkpt lat="34.0157583" lon="7.91838"><ele>-11.0</ele><time>2026-04-23T14:16:46.337Z</time></trkpt><trkpt lat="34.0157533" lon="7.9184983"><ele>-11.0</ele><time>2026-04-23T14:16:47.337Z</time></trkpt><trkpt lat="34.0157483" lon="7.91861"><ele>-11.0</ele><time>2026-04-23T14:16:48.338Z</time></trkpt><trkpt lat="34.0157483" lon="7.9187233"><ele>-11.0</ele><time>2026-04-23T14:16:49.337Z</time></trkpt><trkpt lat="34.0157533" lon="7.9188383"><ele>-11.0</ele><time>2026-04-23T14:16:50.338Z</time></trkpt><trkpt lat="34.015765" lon="7.9189583"><ele>-11.0</ele><time>2026-04-23T14:16:51.338Z</time></trkpt><trkpt lat="34.0157767" lon="7.9190767"><ele>-11.0</ele><time>2026-04-23T14:16:52.338Z</time></trkpt><trkpt lat="34.015795" lon="7.919195"><ele>-11.0</ele><time>2026-04-23T14:16:53.338Z</time></trkpt><trkpt lat="34.0158183" lon="7.919305"><ele>-11.0</ele><time>2026-04-23T14:16:54.337Z</time></trkpt><trkpt lat="34.01584" lon="7.9194117"><ele>-11.0</ele><time>2026-04-23T14:16:55.338Z</time></trkpt><trkpt lat="34.0158667" lon="7.9195133"><ele>-11.0</ele><time>2026-04-23T14:16:56.337Z</time></trkpt><trkpt lat="34.0158917" lon="7.9196217"><ele>-11.8</ele><time>2026-04-23T14:16:57.337Z</time></trkpt><trkpt lat="34.0159133" lon="7.9197333"><ele>-12.600000000000001</ele><time>2026-04-23T14:16:58.338Z</time></trkpt><trkpt lat="34.0159367" lon="7.919845"><ele>-13.4</ele><time>2026-04-23T14:16:59.338Z</time></trkpt><trkpt lat="34.0159567" lon="7.9199583"><ele>-14.2</ele><time>2026-04-23T14:17:00.337Z</time></trkpt><trkpt lat="34.015975" lon="7.9200733"><ele>-15.0</ele><time>2026-04-23T14:17:01.338Z</time></trkpt><trkpt lat="34.0159917" lon="7.92019"><ele>-15.0</ele><time>2026-04-23T14:17:02.337Z</time></trkpt><trkpt lat="34.016005" lon="7.9203083"><ele>-15.0</ele><time>2026-04-23T14:17:03.337Z</time></trkpt><trkpt lat="34.0160133" lon="7.9204217"><ele>-15.0</ele><time>2026-04-23T14:17:04.338Z</time></trkpt><trkpt lat="34.016025" lon="7.92054"><ele>-15.0</ele><time>2026-04-23T14:17:05.337Z</time></trkpt><trkpt lat="34.0160383" lon="7.9206633"><ele>-15.0</ele><time>2026-04-23T14:17:06.338Z</time></trkpt><trkpt lat="34.01605" lon="7.9207883"><ele>-14.8</ele><time>2026-04-23T14:17:07.338Z</time></trkpt><trkpt lat="34.0160583" lon="7.9209117"><ele>-14.6</ele><time>2026-04-23T14:17:08.337Z</time></trkpt><trkpt lat="34.016065" lon="7.92104"><ele>-14.399999999999999</ele><time>2026-04-23T14:17:09.338Z</time></trkpt><trkpt lat="34.016075" lon="7.921175"><ele>-14.2</ele><time>2026-04-23T14:17:10.338Z</time></trkpt><trkpt lat="34.0160783" lon="7.9213133"><ele>-14.0</ele><time>2026-04-23T14:17:11.338Z</time></trkpt><trkpt lat="34.01609" lon="7.9214533"><ele>-14.0</ele><time>2026-04-23T14:17:12.337Z</time></trkpt><trkpt lat="34.016105" lon="7.9215883"><ele>-14.0</ele><time>2026-04-23T14:17:13.338Z</time></trkpt><trkpt lat="34.0161183" lon="7.92172"><ele>-14.0</ele><time>2026-04-23T14:17:14.337Z</time></trkpt><trkpt lat="34.0161283" lon="7.9218583"><ele>-14.0</ele><time>2026-04-23T14:17:15.337Z</time></trkpt><trkpt lat="34.0161383" lon="7.9219967"><ele>-13.2</ele><time>2026-04-23T14:17:16.338Z</time></trkpt><trkpt lat="34.0161483" lon="7.9221383"><ele>-12.399999999999999</ele><time>2026-04-23T14:17:17.337Z</time></trkpt><trkpt lat="34.0161567" lon="7.92227"><ele>-11.6</ele><time>2026-04-23T14:17:18.338Z</time></trkpt><trkpt lat="34.01617" lon="7.9224"><ele>-10.8</ele><time>2026-04-23T14:17:19.337Z</time></trkpt><trkpt lat="34.0161867" lon="7.9225333"><ele>-10.0</ele><time>2026-04-23T14:17:20.337Z</time></trkpt><trkpt lat="34.0162" lon="7.922665"><ele>-10.0</ele><time>2026-04-23T14:17:21.337Z</time></trkpt><trkpt lat="34.01621" lon="7.9227983"><ele>-10.0</ele><time>2026-04-23T14:17:22.337Z</time></trkpt><trkpt lat="34.016225" lon="7.922935"><ele>-10.0</ele><time>2026-04-23T14:17:23.337Z</time></trkpt><trkpt lat="34.016245" lon="7.923075"><ele>-10.0</ele><time>2026-04-23T14:17:24.337Z</time></trkpt><trkpt lat="34.0162733" lon="7.9232067"><ele>-10.0</ele><time>2026-04-23T14:17:25.337Z</time></trkpt><trkpt lat="34.0163017" lon="7.9233383"><ele>-10.0</ele><time>2026-04-23T14:17:26.338Z</time></trkpt><trkpt lat="34.016325" lon="7.9234733"><ele>-10.0</ele><time>2026-04-23T14:17:27.337Z</time></trkpt><trkpt lat="34.0163567" lon="7.92361"><ele>-10.0</ele><time>2026-04-23T14:17:28.337Z</time></trkpt><trkpt lat="34.0163817" lon="7.9237433"><ele>-10.0</ele><time>2026-04-23T14:17:29.337Z</time></trkpt><trkpt lat="34.01641" lon="7.92388"><ele>-10.0</ele><time>2026-04-23T14:17:30.337Z</time></trkpt><trkpt lat="34.0164367" lon="7.9240183"><ele>-10.0</ele><time>2026-04-23T14:17:31.337Z</time></trkpt><trkpt lat="34.0164567" lon="7.9241583"><ele>-10.0</ele><time>2026-04-23T14:17:32.338Z</time></trkpt><trkpt lat="34.0164783" lon="7.92429"><ele>-10.0</ele><time>2026-04-23T14:17:33.337Z</time></trkpt><trkpt lat="34.0165067" lon="7.9244167"><ele>-10.0</ele><time>2026-04-23T14:17:34.337Z</time></trkpt><trkpt lat="34.016525" lon="7.9245533"><ele>-10.0</ele><time>2026-04-23T14:17:35.337Z</time></trkpt><trkpt lat="34.0165433" lon="7.92468"><ele>-10.0</ele><time>2026-04-23T14:17:36.337Z</time></trkpt><trkpt lat="34.016565" lon="7.9248083"><ele>-10.0</ele><time>2026-04-23T14:17:37.337Z</time></trkpt><trkpt lat="34.0165833" lon="7.9249383"><ele>-9.8</ele><time>2026-04-23T14:17:38.338Z</time></trkpt><trkpt lat="34.0166" lon="7.9250633"><ele>-9.6</ele><time>2026-04-23T14:17:39.337Z</time></trkpt><trkpt lat="34.0166217" lon="7.9251917"><ele>-9.4</ele><time>2026-04-23T14:17:40.338Z</time></trkpt><trkpt lat="34.0166417" lon="7.9253217"><ele>-9.2</ele><time>2026-04-23T14:17:41.338Z</time></trkpt><trkpt lat="34.0166567" lon="7.92546"><ele>-9.0</ele><time>2026-04-23T14:17:42.338Z</time></trkpt><trkpt lat="34.01667" lon="7.9255883"><ele>-10.2</ele><time>2026-04-23T14:17:43.337Z</time></trkpt><trkpt lat="34.0166833" lon="7.92572"><ele>-11.4</ele><time>2026-04-23T14:17:44.337Z</time></trkpt><trkpt lat="34.0167" lon="7.92585"><ele>-12.6</ele><time>2026-04-23T14:17:45.337Z</time></trkpt><trkpt lat="34.0167067" lon="7.9259767"><ele>-13.8</ele><time>2026-04-23T14:17:46.338Z</time></trkpt><trkpt lat="34.01672" lon="7.9261067"><ele>-15.0</ele><time>2026-04-23T14:17:47.337Z</time></trkpt><trkpt lat="34.016725" lon="7.926235"><ele>-15.25</ele><time>2026-04-23T14:17:48.337Z</time></trkpt><trkpt lat="34.0167283" lon="7.9263683"><ele>-15.5</ele><time>2026-04-23T14:17:49.337Z</time></trkpt><trkpt lat="34.0167283" lon="7.9265117"><ele>-15.75</ele><time>2026-04-23T14:17:50.338Z</time></trkpt><trkpt lat="34.0167317" lon="7.9266467"><ele>-16.0</ele><time>2026-04-23T14:17:51.338Z</time></trkpt><trkpt lat="34.016735" lon="7.926785"><ele>-16.0</ele><time>2026-04-23T14:17:52.337Z</time></trkpt><trkpt lat="34.0167433" lon="7.926925"><ele>-16.0</ele><time>2026-04-23T14:17:53.338Z</time></trkpt><trkpt lat="34.0167467" lon="7.92706"><ele>-16.0</ele><time>2026-04-23T14:17:54.338Z</time></trkpt><trkpt lat="34.016755" lon="7.9271917"><ele>-16.0</ele><time>2026-04-23T14:17:55.338Z</time></trkpt><trkpt lat="34.0167617" lon="7.9273283"><ele>-16.0</ele><time>2026-04-23T14:17:56.337Z</time></trkpt><trkpt lat="34.0167767" lon="7.9274717"><ele>-16.0</ele><time>2026-04-23T14:17:57.338Z</time></trkpt><trkpt lat="34.0167833" lon="7.9276133"><ele>-16.0</ele><time>2026-04-23T14:17:58.338Z</time></trkpt><trkpt lat="34.0167867" lon="7.9277467"><ele>-16.0</ele><time>2026-04-23T14:17:59.337Z</time></trkpt><trkpt lat="34.0167967" lon="7.9278817"><ele>-15.75</ele><time>2026-04-23T14:18:00.338Z</time></trkpt><trkpt lat="34.01681" lon="7.9280233"><ele>-15.5</ele><time>2026-04-23T14:18:01.337Z</time></trkpt><trkpt lat="34.0168133" lon="7.928165"><ele>-15.25</ele><time>2026-04-23T14:18:02.338Z</time></trkpt><trkpt lat="34.0168217" lon="7.9283033"><ele>-15.0</ele><time>2026-04-23T14:18:03.337Z</time></trkpt><trkpt lat="34.0168333" lon="7.92844"><ele>-14.5</ele><time>2026-04-23T14:18:04.337Z</time></trkpt><trkpt lat="34.01684" lon="7.9285717"><ele>-14.0</ele><time>2026-04-23T14:18:05.337Z</time></trkpt><trkpt lat="34.01685" lon="7.928705"><ele>-13.5</ele><time>2026-04-23T14:18:06.338Z</time></trkpt><trkpt lat="34.01686" lon="7.9288383"><ele>-13.0</ele><time>2026-04-23T14:18:07.338Z</time></trkpt><trkpt lat="34.016875" lon="7.92898"><ele>-13.0</ele><time>2026-04-23T14:18:08.337Z</time></trkpt><trkpt lat="34.01689" lon="7.9291133"><ele>-13.0</ele><time>2026-04-23T14:18:09.338Z</time></trkpt><trkpt lat="34.0169" lon="7.9292417"><ele>-13.0</ele><time>2026-04-23T14:18:10.337Z</time></trkpt><trkpt lat="34.01692" lon="7.9293733"><ele>-13.0</ele><time>2026-04-23T14:18:11.337Z</time></trkpt><trkpt lat="34.01694" lon="7.9295033"><ele>-13.0</ele><time>2026-04-23T14:18:12.337Z</time></trkpt><trkpt lat="34.016965" lon="7.9296333"><ele>-12.600000000000001</ele><time>2026-04-23T14:18:13.337Z</time></trkpt><trkpt lat="34.0169833" lon="7.92977"><ele>-12.200000000000001</ele><time>2026-04-23T14:18:14.337Z</time></trkpt><trkpt lat="34.016995" lon="7.9299017"><ele>-11.8</ele><time>2026-04-23T14:18:15.337Z</time></trkpt><trkpt lat="34.0170067" lon="7.9300267"><ele>-11.4</ele><time>2026-04-23T14:18:16.338Z</time></trkpt><trkpt lat="34.0170217" lon="7.9301617"><ele>-11.0</ele><time>2026-04-23T14:18:17.337Z</time></trkpt><trkpt lat="34.0170433" lon="7.9302983"><ele>-10.75</ele><time>2026-04-23T14:18:18.338Z</time></trkpt><trkpt lat="34.0170567" lon="7.9304333"><ele>-10.5</ele><time>2026-04-23T14:18:19.338Z</time></trkpt><trkpt lat="34.017075" lon="7.93057"><ele>-10.25</ele><time>2026-04-23T14:18:20.337Z</time></trkpt><trkpt lat="34.0170917" lon="7.9307083"><ele>-10.0</ele><time>2026-04-23T14:18:21.337Z</time></trkpt><trkpt lat="34.0171133" lon="7.9308417"><ele>-10.25</ele><time>2026-04-23T14:18:22.338Z</time></trkpt><trkpt lat="34.0171383" lon="7.93098"><ele>-10.5</ele><time>2026-04-23T14:18:23.338Z</time></trkpt><trkpt lat="34.0171583" lon="7.9311133"><ele>-10.75</ele><time>2026-04-23T14:18:24.338Z</time></trkpt><trkpt lat="34.01718" lon="7.9312483"><ele>-11.0</ele><time>2026-04-23T14:18:25.337Z</time></trkpt><trkpt lat="34.0171933" lon="7.9313767"><ele>-11.0</ele><time>2026-04-23T14:18:26.337Z</time></trkpt><trkpt lat="34.0172133" lon="7.9315133"><ele>-11.0</ele><time>2026-04-23T14:18:27.337Z</time></trkpt><trkpt lat="34.01724" lon="7.93165"><ele>-11.0</ele><time>2026-04-23T14:18:28.338Z</time></trkpt><trkpt lat="34.01726" lon="7.9317917"><ele>-11.0</ele><time>2026-04-23T14:18:29.338Z</time></trkpt><trkpt lat="34.0172767" lon="7.9319267"><ele>-10.5</ele><time>2026-04-23T14:18:30.337Z</time></trkpt><trkpt lat="34.01729" lon="7.9320667"><ele>-10.0</ele><time>2026-04-23T14:18:31.337Z</time></trkpt><trkpt lat="34.017295" lon="7.9322067"><ele>-9.5</ele><time>2026-04-23T14:18:32.338Z</time></trkpt><trkpt lat="34.0173017" lon="7.93235"><ele>-9.0</ele><time>2026-04-23T14:18:33.338Z</time></trkpt><trkpt lat="34.0173117" lon="7.93248"><ele>-9.0</ele><time>2026-04-23T14:18:34.337Z</time></trkpt><trkpt lat="34.0173283" lon="7.9326133"><ele>-9.0</ele><time>2026-04-23T14:18:35.337Z</time></trkpt><trkpt lat="34.0173583" lon="7.9327467"><ele>-9.0</ele><time>2026-04-23T14:18:36.338Z</time></trkpt><trkpt lat="34.0173867" lon="7.932865"><ele>-9.0</ele><time>2026-04-23T14:18:37.338Z</time></trkpt><trkpt lat="34.01742" lon="7.93298"><ele>-9.0</ele><time>2026-04-23T14:18:38.337Z</time></trkpt><trkpt lat="34.0174483" lon="7.9331017"><ele>-9.0</ele><time>2026-04-23T14:18:39.338Z</time></trkpt><trkpt lat="34.0174817" lon="7.93323"><ele>-9.0</ele><time>2026-04-23T14:18:40.337Z</time></trkpt><trkpt lat="34.01751" lon="7.933365"><ele>-9.0</ele><time>2026-04-23T14:18:41.337Z</time></trkpt><trkpt lat="34.0175383" lon="7.9334983"><ele>-9.0</ele><time>2026-04-23T14:18:42.338Z</time></trkpt><trkpt lat="34.01756" lon="7.9336317"><ele>-10.6</ele><time>2026-04-23T14:18:43.338Z</time></trkpt><trkpt lat="34.0175783" lon="7.9337583"><ele>-12.2</ele><time>2026-04-23T14:18:44.338Z</time></trkpt><trkpt lat="34.0175967" lon="7.9338833"><ele>-13.799999999999999</ele><time>2026-04-23T14:18:45.336Z</time></trkpt><trkpt lat="34.0176283" lon="7.9340117"><ele>-15.4</ele><time>2026-04-23T14:18:46.336Z</time></trkpt><trkpt lat="34.017655" lon="7.9341283"><ele>-17.0</ele><time>2026-04-23T14:18:47.336Z</time></trkpt><trkpt lat="34.017685" lon="7.9342467"><ele>-17.2</ele><time>2026-04-23T14:18:48.337Z</time></trkpt><trkpt lat="34.0177117" lon="7.934365"><ele>-17.4</ele><time>2026-04-23T14:18:49.336Z</time></trkpt><trkpt lat="34.0177433" lon="7.9344967"><ele>-17.6</ele><time>2026-04-23T14:18:50.336Z</time></trkpt><trkpt lat="34.0177633" lon="7.9346283"><ele>-17.8</ele><time>2026-04-23T14:18:51.337Z</time></trkpt><trkpt lat="34.01777" lon="7.9347517"><ele>-18.0</ele><time>2026-04-23T14:18:52.336Z</time></trkpt><trkpt lat="34.017775" lon="7.9348717"><ele>-18.0</ele><time>2026-04-23T14:18:53.337Z</time></trkpt><trkpt lat="34.0177817" lon="7.93499"><ele>-18.0</ele><time>2026-04-23T14:18:54.337Z</time></trkpt><trkpt lat="34.0177833" lon="7.935115"><ele>-18.0</ele><time>2026-04-23T14:18:55.336Z</time></trkpt><trkpt lat="34.0177767" lon="7.9352383"><ele>-18.0</ele><time>2026-04-23T14:18:56.337Z</time></trkpt><trkpt lat="34.017775" lon="7.935355"><ele>-18.0</ele><time>2026-04-23T14:18:57.336Z</time></trkpt><trkpt lat="34.0177733" lon="7.9354767"><ele>-18.2</ele><time>2026-04-23T14:18:58.336Z</time></trkpt><trkpt lat="34.017775" lon="7.9356017"><ele>-18.4</ele><time>2026-04-23T14:18:59.336Z</time></trkpt><trkpt lat="34.0177733" lon="7.9357267"><ele>-18.599999999999998</ele><time>2026-04-23T14:19:00.336Z</time></trkpt><trkpt lat="34.017765" lon="7.9358483"><ele>-18.8</ele><time>2026-04-23T14:19:01.336Z</time></trkpt><trkpt lat="34.017755" lon="7.9359733"><ele>-19.0</ele><time>2026-04-23T14:19:02.337Z</time></trkpt><trkpt lat="34.0177483" lon="7.9361117"><ele>-19.0</ele><time>2026-04-23T14:19:03.336Z</time></trkpt><trkpt lat="34.0177367" lon="7.9362417"><ele>-19.0</ele><time>2026-04-23T14:19:04.336Z</time></trkpt><trkpt lat="34.0177217" lon="7.9363783"><ele>-19.0</ele><time>2026-04-23T14:19:05.337Z</time></trkpt><trkpt lat="34.01771" lon="7.9365117"><ele>-19.0</ele><time>2026-04-23T14:19:06.337Z</time></trkpt><trkpt lat="34.0176983" lon="7.936645"><ele>-19.0</ele><time>2026-04-23T14:19:07.336Z</time></trkpt><trkpt lat="34.0176817" lon="7.9367733"><ele>-19.0</ele><time>2026-04-23T14:19:08.337Z</time></trkpt><trkpt lat="34.0176783" lon="7.9369067"><ele>-19.0</ele><time>2026-04-23T14:19:09.336Z</time></trkpt><trkpt lat="34.0176817" lon="7.937045"><ele>-19.0</ele><time>2026-04-23T14:19:10.336Z</time></trkpt><trkpt lat="34.0176867" lon="7.9371767"><ele>-19.0</ele><time>2026-04-23T14:19:11.337Z</time></trkpt><trkpt lat="34.0176783" lon="7.9373083"><ele>-19.0</ele><time>2026-04-23T14:19:12.337Z</time></trkpt><trkpt lat="34.017675" lon="7.9374333"><ele>-19.0</ele><time>2026-04-23T14:19:13.337Z</time></trkpt><trkpt lat="34.017665" lon="7.9375517"><ele>-19.0</ele><time>2026-04-23T14:19:14.337Z</time></trkpt><trkpt lat="34.0176617" lon="7.9376717"><ele>-19.0</ele><time>2026-04-23T14:19:15.336Z</time></trkpt><trkpt lat="34.017655" lon="7.9377967"><ele>-19.0</ele><time>2026-04-23T14:19:16.336Z</time></trkpt><trkpt lat="34.0176533" lon="7.9379317"><ele>-19.0</ele><time>2026-04-23T14:19:17.336Z</time></trkpt><trkpt lat="34.0176533" lon="7.938055"><ele>-19.0</ele><time>2026-04-23T14:19:18.336Z</time></trkpt><trkpt lat="34.0176567" lon="7.9381733"><ele>-19.0</ele><time>2026-04-23T14:19:19.336Z</time></trkpt><trkpt lat="34.0176583" lon="7.9382933"><ele>-19.0</ele><time>2026-04-23T14:19:20.336Z</time></trkpt><trkpt lat="34.0176633" lon="7.9384167"><ele>-19.0</ele><time>2026-04-23T14:19:21.337Z</time></trkpt><trkpt lat="34.0176667" lon="7.9385483"><ele>-19.0</ele><time>2026-04-23T14:19:22.336Z</time></trkpt><trkpt lat="34.0176667" lon="7.9386683"><ele>-19.0</ele><time>2026-04-23T14:19:23.336Z</time></trkpt><trkpt lat="34.0176617" lon="7.938785"><ele>-19.0</ele><time>2026-04-23T14:19:24.336Z</time></trkpt><trkpt lat="34.0176533" lon="7.93891"><ele>-19.0</ele><time>2026-04-23T14:19:25.337Z</time></trkpt><trkpt lat="34.01764" lon="7.9390333"><ele>-19.0</ele><time>2026-04-23T14:19:26.336Z</time></trkpt><trkpt lat="34.017625" lon="7.9391617"><ele>-19.0</ele><time>2026-04-23T14:19:27.337Z</time></trkpt><trkpt lat="34.01761" lon="7.93929"><ele>-19.4</ele><time>2026-04-23T14:19:28.337Z</time></trkpt><trkpt lat="34.0175983" lon="7.9394217"><ele>-19.799999999999997</ele><time>2026-04-23T14:19:29.337Z</time></trkpt><trkpt lat="34.0175833" lon="7.9395483"><ele>-20.200000000000003</ele><time>2026-04-23T14:19:30.336Z</time></trkpt><trkpt lat="34.0175667" lon="7.9396767"><ele>-20.6</ele><time>2026-04-23T14:19:31.336Z</time></trkpt><trkpt lat="34.0175433" lon="7.9398067"><ele>-21.0</ele><time>2026-04-23T14:19:32.336Z</time></trkpt><trkpt lat="34.01751" lon="7.9399333"><ele>-20.400000000000002</ele><time>2026-04-23T14:19:33.337Z</time></trkpt><trkpt lat="34.0174817" lon="7.9400667"><ele>-19.8</ele><time>2026-04-23T14:19:34.336Z</time></trkpt><trkpt lat="34.01745" lon="7.9401833"><ele>-19.200000000000003</ele><time>2026-04-23T14:19:35.336Z</time></trkpt><trkpt lat="34.0174083" lon="7.9403033"><ele>-18.6</ele><time>2026-04-23T14:19:36.337Z</time></trkpt><trkpt lat="34.01736" lon="7.9404217"><ele>-18.0</ele><time>2026-04-23T14:19:37.336Z</time></trkpt><trkpt lat="34.0173117" lon="7.940535"><ele>-18.0</ele><time>2026-04-23T14:19:38.336Z</time></trkpt><trkpt lat="34.0172483" lon="7.94064"><ele>-18.0</ele><time>2026-04-23T14:19:39.337Z</time></trkpt><trkpt lat="34.0171883" lon="7.9407267"><ele>-18.0</ele><time>2026-04-23T14:19:40.337Z</time></trkpt><trkpt lat="34.0171333" lon="7.9408217"><ele>-18.0</ele><time>2026-04-23T14:19:41.337Z</time></trkpt><trkpt lat="34.0170717" lon="7.9409133"><ele>-18.0</ele><time>2026-04-23T14:19:42.337Z</time></trkpt><trkpt lat="34.017025" lon="7.9409933"><ele>-18.166666666666668</ele><time>2026-04-23T14:19:43.337Z</time></trkpt><trkpt lat="34.016975" lon="7.941065"><ele>-18.333333333333332</ele><time>2026-04-23T14:19:44.336Z</time></trkpt><trkpt lat="34.0169133" lon="7.9411283"><ele>-18.5</ele><time>2026-04-23T14:19:45.337Z</time></trkpt><trkpt lat="34.0168417" lon="7.9411867"><ele>-18.666666666666664</ele><time>2026-04-23T14:19:46.336Z</time></trkpt><trkpt lat="34.016765" lon="7.9412367"><ele>-18.833333333333332</ele><time>2026-04-23T14:19:47.336Z</time></trkpt><trkpt lat="34.01669" lon="7.9412733"><ele>-19.0</ele><time>2026-04-23T14:19:48.336Z</time></trkpt><trkpt lat="34.01662" lon="7.9413233"><ele>-19.0</ele><time>2026-04-23T14:19:49.337Z</time></trkpt><trkpt lat="34.0165633" lon="7.9413767"><ele>-19.0</ele><time>2026-04-23T14:19:50.337Z</time></trkpt><trkpt lat="34.0165183" lon="7.9414483"><ele>-19.0</ele><time>2026-04-23T14:19:51.336Z</time></trkpt><trkpt lat="34.0164783" lon="7.9415333"><ele>-19.0</ele><time>2026-04-23T14:19:52.336Z</time></trkpt><trkpt lat="34.016445" lon="7.941625"><ele>-19.0</ele><time>2026-04-23T14:19:53.337Z</time></trkpt><trkpt lat="34.0164117" lon="7.941715"><ele>-19.0</ele><time>2026-04-23T14:19:54.336Z</time></trkpt><trkpt lat="34.0163783" lon="7.94181"><ele>-18.5</ele><time>2026-04-23T14:19:55.337Z</time></trkpt><trkpt lat="34.016355" lon="7.941905"><ele>-18.0</ele><time>2026-04-23T14:19:56.337Z</time></trkpt><trkpt lat="34.0163367" lon="7.941995"><ele>-17.5</ele><time>2026-04-23T14:19:57.337Z</time></trkpt><trkpt lat="34.0163283" lon="7.9420883"><ele>-17.0</ele><time>2026-04-23T14:19:58.337Z</time></trkpt><trkpt lat="34.0163317" lon="7.9421867"><ele>-16.5</ele><time>2026-04-23T14:19:59.337Z</time></trkpt><trkpt lat="34.01633" lon="7.942285"><ele>-16.0</ele><time>2026-04-23T14:20:00.337Z</time></trkpt><trkpt lat="34.016325" lon="7.9423883"><ele>-15.999999999999998</ele><time>2026-04-23T14:20:01.337Z</time></trkpt><trkpt lat="34.0163083" lon="7.9424833"><ele>-16.0</ele><time>2026-04-23T14:20:02.337Z</time></trkpt><trkpt lat="34.0162883" lon="7.9425783"><ele>-16.0</ele><time>2026-04-23T14:20:03.336Z</time></trkpt><trkpt lat="34.0162617" lon="7.9426767"><ele>-16.0</ele><time>2026-04-23T14:20:04.336Z</time></trkpt><trkpt lat="34.01623" lon="7.9427817"><ele>-15.999999999999998</ele><time>2026-04-23T14:20:05.336Z</time></trkpt><trkpt lat="34.0162017" lon="7.94288"><ele>-16.0</ele><time>2026-04-23T14:20:06.337Z</time></trkpt><trkpt lat="34.0161783" lon="7.9429833"><ele>-16.166666666666664</ele><time>2026-04-23T14:20:07.336Z</time></trkpt><trkpt lat="34.0161517" lon="7.94309"><ele>-16.333333333333332</ele><time>2026-04-23T14:20:08.336Z</time></trkpt><trkpt lat="34.01613" lon="7.9431833"><ele>-16.5</ele><time>2026-04-23T14:20:09.337Z</time></trkpt><trkpt lat="34.0161133" lon="7.943275"><ele>-16.666666666666668</ele><time>2026-04-23T14:20:10.337Z</time></trkpt><trkpt lat="34.0161017" lon="7.94337"><ele>-16.833333333333336</ele><time>2026-04-23T14:20:11.337Z</time></trkpt><trkpt lat="34.016095" lon="7.94347"><ele>-17.0</ele><time>2026-04-23T14:20:12.337Z</time></trkpt><trkpt lat="34.0160917" lon="7.943565"><ele>-17.0</ele><time>2026-04-23T14:20:13.337Z</time></trkpt><trkpt lat="34.016105" lon="7.9436667"><ele>-17.0</ele><time>2026-04-23T14:20:14.336Z</time></trkpt><trkpt lat="34.0161183" lon="7.9437617"><ele>-17.0</ele><time>2026-04-23T14:20:15.337Z</time></trkpt><trkpt lat="34.0161317" lon="7.94387"><ele>-17.0</ele><time>2026-04-23T14:20:16.337Z</time></trkpt><trkpt lat="34.0161417" lon="7.9439683"><ele>-17.0</ele><time>2026-04-23T14:20:17.337Z</time></trkpt><trkpt lat="34.0161533" lon="7.9440617"><ele>-17.0</ele><time>2026-04-23T14:20:18.337Z</time></trkpt><trkpt lat="34.0161567" lon="7.9441417"><ele>-16.666666666666668</ele><time>2026-04-23T14:20:19.336Z</time></trkpt><trkpt lat="34.0161583" lon="7.94422"><ele>-16.333333333333336</ele><time>2026-04-23T14:20:20.336Z</time></trkpt><trkpt lat="34.0161583" lon="7.944305"><ele>-16.0</ele><time>2026-04-23T14:20:21.336Z</time></trkpt><trkpt lat="34.01616" lon="7.94439"><ele>-15.666666666666668</ele><time>2026-04-23T14:20:22.337Z</time></trkpt><trkpt lat="34.0161683" lon="7.9444917"><ele>-15.333333333333334</ele><time>2026-04-23T14:20:23.336Z</time></trkpt><trkpt lat="34.0161833" lon="7.9446"><ele>-15.0</ele><time>2026-04-23T14:20:24.336Z</time></trkpt><trkpt lat="34.0161917" lon="7.9447033"><ele>-15.0</ele><time>2026-04-23T14:20:25.337Z</time></trkpt><trkpt lat="34.0162083" lon="7.94481"><ele>-15.0</ele><time>2026-04-23T14:20:26.336Z</time></trkpt><trkpt lat="34.0162217" lon="7.944915"><ele>-15.0</ele><time>2026-04-23T14:20:27.336Z</time></trkpt><trkpt lat="34.0162333" lon="7.94501"><ele>-15.0</ele><time>2026-04-23T14:20:28.336Z</time></trkpt><trkpt lat="34.0162417" lon="7.9450933"><ele>-15.0</ele><time>2026-04-23T14:20:29.337Z</time></trkpt><trkpt lat="34.01625" lon="7.9451917"><ele>-15.0</ele><time>2026-04-23T14:20:30.337Z</time></trkpt><trkpt lat="34.01626" lon="7.9452833"><ele>-14.833333333333334</ele><time>2026-04-23T14:20:31.337Z</time></trkpt><trkpt lat="34.01627" lon="7.9453783"><ele>-14.666666666666668</ele><time>2026-04-23T14:20:32.337Z</time></trkpt><trkpt lat="34.0162733" lon="7.9454717"><ele>-14.5</ele><time>2026-04-23T14:20:33.337Z</time></trkpt><trkpt lat="34.0162717" lon="7.9455683"><ele>-14.333333333333334</ele><time>2026-04-23T14:20:34.336Z</time></trkpt><trkpt lat="34.0162717" lon="7.94567"><ele>-14.166666666666668</ele><time>2026-04-23T14:20:35.337Z</time></trkpt><trkpt lat="34.0162733" lon="7.94577"><ele>-14.0</ele><time>2026-04-23T14:20:36.336Z</time></trkpt><trkpt lat="34.0162767" lon="7.945865"><ele>-14.000000000000002</ele><time>2026-04-23T14:20:37.336Z</time></trkpt><trkpt lat="34.0162767" lon="7.9459583"><ele>-14.0</ele><time>2026-04-23T14:20:38.336Z</time></trkpt><trkpt lat="34.0162817" lon="7.9460417"><ele>-14.0</ele><time>2026-04-23T14:20:39.336Z</time></trkpt><trkpt lat="34.01629" lon="7.9461217"><ele>-14.0</ele><time>2026-04-23T14:20:40.337Z</time></trkpt><trkpt lat="34.0163033" lon="7.94628"><ele>-14.000000000000002</ele><time>2026-04-23T14:20:42.337Z</time></trkpt><trkpt lat="34.0163183" lon="7.9463717"><ele>-14.0</ele><time>2026-04-23T14:20:43.336Z</time></trkpt><trkpt lat="34.0163233" lon="7.9464517"><ele>-14.0</ele><time>2026-04-23T14:20:44.336Z</time></trkpt><trkpt lat="34.0163333" lon="7.9465733"><ele>-13.999999999999998</ele><time>2026-04-23T14:20:46.337Z</time></trkpt><trkpt lat="34.0163367" lon="7.9466567"><ele>-13.999999999999998</ele><time>2026-04-23T14:20:48.336Z</time></trkpt><trkpt lat="34.0163133" lon="7.946735"><ele>-14.0</ele><time>2026-04-23T14:20:52.336Z</time></trkpt><trkpt lat="34.01622" lon="7.9466817"><ele>-14.0</ele><time>2026-04-23T14:20:56.336Z</time></trkpt><trkpt lat="34.0161467" lon="7.9465833"><ele>-14.0</ele><time>2026-04-23T14:20:58.336Z</time></trkpt><trkpt lat="34.0160633" lon="7.946465"><ele>-13.999999999999998</ele><time>2026-04-23T14:21:00.336Z</time></trkpt><trkpt lat="34.0160167" lon="7.9464067"><ele>-13.999999999999998</ele><time>2026-04-23T14:21:01.336Z</time></trkpt><trkpt lat="34.0159767" lon="7.9463433"><ele>-14.0</ele><time>2026-04-23T14:21:02.336Z</time></trkpt><trkpt lat="34.0159083" lon="7.9462367"><ele>-14.0</ele><time>2026-04-23T14:21:04.337Z</time></trkpt><trkpt lat="34.0158417" lon="7.9461917"><ele>-14.166666666666668</ele><time>2026-04-23T14:21:06.336Z</time></trkpt><trkpt lat="34.01578" lon="7.94621"><ele>-14.333333333333334</ele><time>2026-04-23T14:21:08.336Z</time></trkpt><trkpt lat="34.0157217" lon="7.9462667"><ele>-14.5</ele><time>2026-04-23T14:21:14.337Z</time></trkpt><trkpt lat="34.015655" lon="7.94635"><ele>-14.666666666666668</ele><time>2026-04-23T14:21:16.337Z</time></trkpt><trkpt lat="34.0156217" lon="7.946415"><ele>-14.833333333333334</ele><time>2026-04-23T14:21:17.336Z</time></trkpt><trkpt lat="34.015595" lon="7.9465617"><ele>-15.0</ele><time>2026-04-23T14:21:19.337Z</time></trkpt><trkpt lat="34.0155867" lon="7.9466433"><ele>-15.0</ele><time>2026-04-23T14:21:20.336Z</time></trkpt><trkpt lat="34.0155917" lon="7.946725"><ele>-15.0</ele><time>2026-04-23T14:21:21.337Z</time></trkpt><trkpt lat="34.01559" lon="7.94681"><ele>-15.0</ele><time>2026-04-23T14:21:22.337Z</time></trkpt><trkpt lat="34.0155933" lon="7.946895"><ele>-15.0</ele><time>2026-04-23T14:21:23.337Z</time></trkpt><trkpt lat="34.0155983" lon="7.9469783"><ele>-15.0</ele><time>2026-04-23T14:21:24.336Z</time></trkpt><trkpt lat="34.0156067" lon="7.947075"><ele>-15.0</ele><time>2026-04-23T14:21:25.336Z</time></trkpt><trkpt lat="34.0156117" lon="7.9471717"><ele>-15.0</ele><time>2026-04-23T14:21:26.336Z</time></trkpt><trkpt lat="34.01562" lon="7.9472633"><ele>-15.0</ele><time>2026-04-23T14:21:27.337Z</time></trkpt><trkpt lat="34.0156233" lon="7.9473533"><ele>-15.0</ele><time>2026-04-23T14:21:28.337Z</time></trkpt><trkpt lat="34.0156217" lon="7.94744"><ele>-15.0</ele><time>2026-04-23T14:21:29.336Z</time></trkpt><trkpt lat="34.0156133" lon="7.9475233"><ele>-15.0</ele><time>2026-04-23T14:21:30.337Z</time></trkpt><trkpt lat="34.0155683" lon="7.94766"><ele>-15.0</ele><time>2026-04-23T14:21:32.336Z</time></trkpt><trkpt lat="34.0155283" lon="7.9477283"><ele>-15.0</ele><time>2026-04-23T14:21:33.336Z</time></trkpt><trkpt lat="34.0154817" lon="7.9478033"><ele>-15.0</ele><time>2026-04-23T14:21:34.336Z</time></trkpt><trkpt lat="34.0154367" lon="7.9478783"><ele>-15.0</ele><time>2026-04-23T14:21:35.336Z</time></trkpt><trkpt lat="34.0154033" lon="7.947955"><ele>-15.0</ele><time>2026-04-23T14:21:36.336Z</time></trkpt><trkpt lat="34.015365" lon="7.9480283"><ele>-15.0</ele><time>2026-04-23T14:21:37.336Z</time></trkpt><trkpt lat="34.0153367" lon="7.9481083"><ele>-15.0</ele><time>2026-04-23T14:21:38.337Z</time></trkpt><trkpt lat="34.01532" lon="7.9481983"><ele>-15.0</ele><time>2026-04-23T14:21:39.337Z</time></trkpt><trkpt lat="34.0153033" lon="7.9482967"><ele>-15.0</ele><time>2026-04-23T14:21:40.336Z</time></trkpt><trkpt lat="34.0152933" lon="7.9483933"><ele>-15.0</ele><time>2026-04-23T14:21:41.336Z</time></trkpt><trkpt lat="34.0152933" lon="7.9484883"><ele>-15.0</ele><time>2026-04-23T14:21:42.337Z</time></trkpt><trkpt lat="34.0153017" lon="7.9485833"><ele>-15.0</ele><time>2026-04-23T14:21:43.337Z</time></trkpt><trkpt lat="34.0153167" lon="7.9486833"><ele>-15.0</ele><time>2026-04-23T14:21:44.336Z</time></trkpt><trkpt lat="34.0153267" lon="7.9487783"><ele>-15.0</ele><time>2026-04-23T14:21:45.337Z</time></trkpt><trkpt lat="34.0153367" lon="7.9488767"><ele>-15.0</ele><time>2026-04-23T14:21:46.337Z</time></trkpt><trkpt lat="34.0153467" lon="7.9489717"><ele>-15.0</ele><time>2026-04-23T14:21:47.336Z</time></trkpt><trkpt lat="34.015365" lon="7.9490683"><ele>-15.0</ele><time>2026-04-23T14:21:48.337Z</time></trkpt><trkpt lat="34.0153883" lon="7.9491683"><ele>-15.0</ele><time>2026-04-23T14:21:49.336Z</time></trkpt><trkpt lat="34.0154033" lon="7.94926"><ele>-15.0</ele><time>2026-04-23T14:21:50.336Z</time></trkpt><trkpt lat="34.0154217" lon="7.9493617"><ele>-15.0</ele><time>2026-04-23T14:21:51.336Z</time></trkpt><trkpt lat="34.0154417" lon="7.94947"><ele>-15.0</ele><time>2026-04-23T14:21:52.337Z</time></trkpt><trkpt lat="34.01545" lon="7.9495817"><ele>-15.0</ele><time>2026-04-23T14:21:53.337Z</time></trkpt><trkpt lat="34.0154533" lon="7.9496883"><ele>-15.0</ele><time>2026-04-23T14:21:54.336Z</time></trkpt><trkpt lat="34.0154633" lon="7.9497983"><ele>-15.0</ele><time>2026-04-23T14:21:55.337Z</time></trkpt><trkpt lat="34.015475" lon="7.9499083"><ele>-15.0</ele><time>2026-04-23T14:21:56.337Z</time></trkpt><trkpt lat="34.0154833" lon="7.95002"><ele>-15.2</ele><time>2026-04-23T14:21:57.337Z</time></trkpt><trkpt lat="34.015495" lon="7.9501383"><ele>-15.4</ele><time>2026-04-23T14:21:58.336Z</time></trkpt><trkpt lat="34.015505" lon="7.9502517"><ele>-15.600000000000001</ele><time>2026-04-23T14:21:59.337Z</time></trkpt><trkpt lat="34.01552" lon="7.9503683"><ele>-15.8</ele><time>2026-04-23T14:22:00.336Z</time></trkpt><trkpt lat="34.0155283" lon="7.950475"><ele>-16.0</ele><time>2026-04-23T14:22:01.337Z</time></trkpt><trkpt lat="34.0155383" lon="7.9505883"><ele>-16.0</ele><time>2026-04-23T14:22:02.337Z</time></trkpt><trkpt lat="34.015545" lon="7.9506933"><ele>-16.0</ele><time>2026-04-23T14:22:03.335Z</time></trkpt><trkpt lat="34.01555" lon="7.9507967"><ele>-16.0</ele><time>2026-04-23T14:22:04.335Z</time></trkpt><trkpt lat="34.0155483" lon="7.950905"><ele>-16.0</ele><time>2026-04-23T14:22:05.335Z</time></trkpt><trkpt lat="34.01555" lon="7.95102"><ele>-16.0</ele><time>2026-04-23T14:22:06.336Z</time></trkpt><trkpt lat="34.0155567" lon="7.9511417"><ele>-15.600000000000001</ele><time>2026-04-23T14:22:07.336Z</time></trkpt><trkpt lat="34.0155667" lon="7.9512633"><ele>-15.200000000000001</ele><time>2026-04-23T14:22:08.335Z</time></trkpt><trkpt lat="34.015575" lon="7.9513783"><ele>-14.799999999999999</ele><time>2026-04-23T14:22:09.335Z</time></trkpt><trkpt lat="34.0155817" lon="7.951495"><ele>-14.399999999999999</ele><time>2026-04-23T14:22:10.335Z</time></trkpt><trkpt lat="34.015595" lon="7.9516167"><ele>-14.0</ele><time>2026-04-23T14:22:11.335Z</time></trkpt><trkpt lat="34.0156033" lon="7.951735"><ele>-13.6</ele><time>2026-04-23T14:22:12.336Z</time></trkpt><trkpt lat="34.0156133" lon="7.95186"><ele>-13.2</ele><time>2026-04-23T14:22:13.335Z</time></trkpt><trkpt lat="34.0156233" lon="7.951985"><ele>-12.799999999999999</ele><time>2026-04-23T14:22:14.335Z</time></trkpt><trkpt lat="34.0156317" lon="7.9521083"><ele>-12.399999999999999</ele><time>2026-04-23T14:22:15.335Z</time></trkpt><trkpt lat="34.0156417" lon="7.9522317"><ele>-12.0</ele><time>2026-04-23T14:22:16.336Z</time></trkpt><trkpt lat="34.0156567" lon="7.9523467"><ele>-12.0</ele><time>2026-04-23T14:22:17.336Z</time></trkpt><trkpt lat="34.01567" lon="7.9524683"><ele>-12.0</ele><time>2026-04-23T14:22:18.336Z</time></trkpt><trkpt lat="34.0156783" lon="7.9525933"><ele>-12.0</ele><time>2026-04-23T14:22:19.336Z</time></trkpt><trkpt lat="34.01569" lon="7.9527283"><ele>-12.0</ele><time>2026-04-23T14:22:20.335Z</time></trkpt><trkpt lat="34.0156933" lon="7.9528667"><ele>-12.0</ele><time>2026-04-23T14:22:21.336Z</time></trkpt><trkpt lat="34.0156967" lon="7.953015"><ele>-12.0</ele><time>2026-04-23T14:22:22.336Z</time></trkpt><trkpt lat="34.0157033" lon="7.953155"><ele>-12.0</ele><time>2026-04-23T14:22:23.335Z</time></trkpt><trkpt lat="34.0157217" lon="7.9532867"><ele>-12.0</ele><time>2026-04-23T14:22:24.335Z</time></trkpt><trkpt lat="34.0157417" lon="7.9534183"><ele>-12.0</ele><time>2026-04-23T14:22:25.336Z</time></trkpt><trkpt lat="34.0157533" lon="7.9535533"><ele>-12.2</ele><time>2026-04-23T14:22:26.336Z</time></trkpt><trkpt lat="34.015765" lon="7.9536817"><ele>-12.399999999999999</ele><time>2026-04-23T14:22:27.336Z</time></trkpt><trkpt lat="34.0157767" lon="7.9538133"><ele>-12.600000000000001</ele><time>2026-04-23T14:22:28.335Z</time></trkpt><trkpt lat="34.0157933" lon="7.9539417"><ele>-12.8</ele><time>2026-04-23T14:22:29.335Z</time></trkpt><trkpt lat="34.015805" lon="7.9540617"><ele>-13.0</ele><time>2026-04-23T14:22:30.335Z</time></trkpt><trkpt lat="34.0158117" lon="7.9541867"><ele>-13.2</ele><time>2026-04-23T14:22:31.336Z</time></trkpt><trkpt lat="34.0158217" lon="7.9543183"><ele>-13.4</ele><time>2026-04-23T14:22:32.336Z</time></trkpt><trkpt lat="34.0158383" lon="7.954445"><ele>-13.599999999999998</ele><time>2026-04-23T14:22:33.335Z</time></trkpt><trkpt lat="34.0158533" lon="7.9545733"><ele>-13.799999999999999</ele><time>2026-04-23T14:22:34.336Z</time></trkpt><trkpt lat="34.0158583" lon="7.9547033"><ele>-14.0</ele><time>2026-04-23T14:22:35.335Z</time></trkpt><trkpt lat="34.0158683" lon="7.9548383"><ele>-14.0</ele><time>2026-04-23T14:22:36.335Z</time></trkpt><trkpt lat="34.0158783" lon="7.9549683"><ele>-13.999999999999998</ele><time>2026-04-23T14:22:37.336Z</time></trkpt><trkpt lat="34.01589" lon="7.955105"><ele>-13.999999999999998</ele><time>2026-04-23T14:22:38.336Z</time></trkpt><trkpt lat="34.0158967" lon="7.955235"><ele>-14.0</ele><time>2026-04-23T14:22:39.335Z</time></trkpt><trkpt lat="34.0159117" lon="7.95537"><ele>-14.0</ele><time>2026-04-23T14:22:40.336Z</time></trkpt><trkpt lat="34.0159267" lon="7.95549"><ele>-13.2</ele><time>2026-04-23T14:22:41.335Z</time></trkpt><trkpt lat="34.0159433" lon="7.95561"><ele>-12.399999999999999</ele><time>2026-04-23T14:22:42.335Z</time></trkpt><trkpt lat="34.0159567" lon="7.9557283"><ele>-11.6</ele><time>2026-04-23T14:22:43.335Z</time></trkpt><trkpt lat="34.0159617" lon="7.95585"><ele>-10.8</ele><time>2026-04-23T14:22:44.336Z</time></trkpt><trkpt lat="34.0159683" lon="7.9559817"><ele>-10.0</ele><time>2026-04-23T14:22:45.335Z</time></trkpt><trkpt lat="34.0159767" lon="7.956105"><ele>-10.0</ele><time>2026-04-23T14:22:46.335Z</time></trkpt><trkpt lat="34.0159833" lon="7.956225"><ele>-10.0</ele><time>2026-04-23T14:22:47.336Z</time></trkpt><trkpt lat="34.0159917" lon="7.95635"><ele>-10.0</ele><time>2026-04-23T14:22:48.336Z</time></trkpt><trkpt lat="34.016" lon="7.95648"><ele>-10.0</ele><time>2026-04-23T14:22:49.336Z</time></trkpt><trkpt lat="34.0160167" lon="7.9566017"><ele>-10.0</ele><time>2026-04-23T14:22:50.336Z</time></trkpt><trkpt lat="34.0160267" lon="7.95673"><ele>-10.6</ele><time>2026-04-23T14:22:51.335Z</time></trkpt><trkpt lat="34.016035" lon="7.9568517"><ele>-11.2</ele><time>2026-04-23T14:22:52.336Z</time></trkpt><trkpt lat="34.01604" lon="7.9569833"><ele>-11.8</ele><time>2026-04-23T14:22:53.336Z</time></trkpt><trkpt lat="34.0160467" lon="7.95711"><ele>-12.4</ele><time>2026-04-23T14:22:54.335Z</time></trkpt><trkpt lat="34.016055" lon="7.9572417"><ele>-13.0</ele><time>2026-04-23T14:22:55.335Z</time></trkpt><trkpt lat="34.0160633" lon="7.95737"><ele>-13.0</ele><time>2026-04-23T14:22:56.336Z</time></trkpt><trkpt lat="34.016075" lon="7.957505"><ele>-13.0</ele><time>2026-04-23T14:22:57.336Z</time></trkpt><trkpt lat="34.0160867" lon="7.9576333"><ele>-13.0</ele><time>2026-04-23T14:22:58.335Z</time></trkpt><trkpt lat="34.0160967" lon="7.9577633"><ele>-13.0</ele><time>2026-04-23T14:22:59.335Z</time></trkpt><trkpt lat="34.0161067" lon="7.95789"><ele>-13.0</ele><time>2026-04-23T14:23:00.335Z</time></trkpt><trkpt lat="34.0161233" lon="7.9580133"><ele>-13.2</ele><time>2026-04-23T14:23:01.335Z</time></trkpt><trkpt lat="34.0161333" lon="7.9581417"><ele>-13.4</ele><time>2026-04-23T14:23:02.336Z</time></trkpt><trkpt lat="34.01615" lon="7.9582767"><ele>-13.599999999999998</ele><time>2026-04-23T14:23:03.336Z</time></trkpt><trkpt lat="34.0161583" lon="7.9584033"><ele>-13.799999999999999</ele><time>2026-04-23T14:23:04.336Z</time></trkpt><trkpt lat="34.0161633" lon="7.9585317"><ele>-14.0</ele><time>2026-04-23T14:23:05.335Z</time></trkpt><trkpt lat="34.0161717" lon="7.9586517"><ele>-14.0</ele><time>2026-04-23T14:23:06.336Z</time></trkpt><trkpt lat="34.016175" lon="7.95878"><ele>-13.999999999999998</ele><time>2026-04-23T14:23:07.336Z</time></trkpt><trkpt lat="34.0161767" lon="7.9589167"><ele>-13.999999999999998</ele><time>2026-04-23T14:23:08.335Z</time></trkpt><trkpt lat="34.0161817" lon="7.9590467"><ele>-14.0</ele><time>2026-04-23T14:23:09.335Z</time></trkpt><trkpt lat="34.016185" lon="7.9591767"><ele>-14.0</ele><time>2026-04-23T14:23:10.336Z</time></trkpt><trkpt lat="34.0161917" lon="7.9593083"><ele>-13.799999999999999</ele><time>2026-04-23T14:23:11.335Z</time></trkpt><trkpt lat="34.016195" lon="7.959445"><ele>-13.599999999999998</ele><time>2026-04-23T14:23:12.335Z</time></trkpt><trkpt lat="34.0162017" lon="7.95958"><ele>-13.4</ele><time>2026-04-23T14:23:13.336Z</time></trkpt><trkpt lat="34.0162017" lon="7.9597117"><ele>-13.2</ele><time>2026-04-23T14:23:14.335Z</time></trkpt><trkpt lat="34.0162133" lon="7.9598467"><ele>-13.0</ele><time>2026-04-23T14:23:15.335Z</time></trkpt><trkpt lat="34.0162267" lon="7.95998"><ele>-12.8</ele><time>2026-04-23T14:23:16.336Z</time></trkpt><trkpt lat="34.01624" lon="7.9601117"><ele>-12.600000000000001</ele><time>2026-04-23T14:23:17.335Z</time></trkpt><trkpt lat="34.0162617" lon="7.96024"><ele>-12.399999999999999</ele><time>2026-04-23T14:23:18.336Z</time></trkpt><trkpt lat="34.0162817" lon="7.9603683"><ele>-12.2</ele><time>2026-04-23T14:23:19.335Z</time></trkpt><trkpt lat="34.0162933" lon="7.9604933"><ele>-12.0</ele><time>2026-04-23T14:23:20.336Z</time></trkpt><trkpt lat="34.0163083" lon="7.9606167"><ele>-12.0</ele><time>2026-04-23T14:23:21.336Z</time></trkpt><trkpt lat="34.0163083" lon="7.9607283"><ele>-12.0</ele><time>2026-04-23T14:23:22.335Z</time></trkpt><trkpt lat="34.01631" lon="7.960855"><ele>-12.0</ele><time>2026-04-23T14:23:23.336Z</time></trkpt><trkpt lat="34.0163133" lon="7.960985"><ele>-12.0</ele><time>2026-04-23T14:23:24.336Z</time></trkpt><trkpt lat="34.016315" lon="7.9611167"><ele>-12.0</ele><time>2026-04-23T14:23:25.335Z</time></trkpt><trkpt lat="34.01632" lon="7.961245"><ele>-12.399999999999999</ele><time>2026-04-23T14:23:26.335Z</time></trkpt><trkpt lat="34.016335" lon="7.9613683"><ele>-12.799999999999999</ele><time>2026-04-23T14:23:27.336Z</time></trkpt><trkpt lat="34.01634" lon="7.9615"><ele>-13.2</ele><time>2026-04-23T14:23:28.335Z</time></trkpt><trkpt lat="34.0163533" lon="7.961625"><ele>-13.6</ele><time>2026-04-23T14:23:29.336Z</time></trkpt><trkpt lat="34.0163633" lon="7.96176"><ele>-14.0</ele><time>2026-04-23T14:23:30.335Z</time></trkpt><trkpt lat="34.0163783" lon="7.96189"><ele>-14.25</ele><time>2026-04-23T14:23:31.335Z</time></trkpt><trkpt lat="34.0164" lon="7.9620183"><ele>-14.5</ele><time>2026-04-23T14:23:32.336Z</time></trkpt><trkpt lat="34.0164183" lon="7.962155"><ele>-14.75</ele><time>2026-04-23T14:23:33.335Z</time></trkpt><trkpt lat="34.0164417" lon="7.9622917"><ele>-15.0</ele><time>2026-04-23T14:23:34.336Z</time></trkpt><trkpt lat="34.016465" lon="7.9624233"><ele>-15.0</ele><time>2026-04-23T14:23:35.335Z</time></trkpt><trkpt lat="34.0164817" lon="7.9625583"><ele>-15.0</ele><time>2026-04-23T14:23:36.335Z</time></trkpt><trkpt lat="34.0164933" lon="7.9626883"><ele>-15.0</ele><time>2026-04-23T14:23:37.336Z</time></trkpt><trkpt lat="34.0164983" lon="7.9628167"><ele>-15.0</ele><time>2026-04-23T14:23:38.335Z</time></trkpt><trkpt lat="34.0165" lon="7.9629433"><ele>-15.0</ele><time>2026-04-23T14:23:39.336Z</time></trkpt><trkpt lat="34.0164933" lon="7.96307"><ele>-15.0</ele><time>2026-04-23T14:23:40.335Z</time></trkpt><trkpt lat="34.0164933" lon="7.9631933"><ele>-15.0</ele><time>2026-04-23T14:23:41.336Z</time></trkpt><trkpt lat="34.0164933" lon="7.963325"><ele>-15.0</ele><time>2026-04-23T14:23:42.335Z</time></trkpt><trkpt lat="34.016495" lon="7.9634483"><ele>-15.0</ele><time>2026-04-23T14:23:43.335Z</time></trkpt><trkpt lat="34.01649" lon="7.9635733"><ele>-15.0</ele><time>2026-04-23T14:23:44.335Z</time></trkpt><trkpt lat="34.0164967" lon="7.9637"><ele>-14.6</ele><time>2026-04-23T14:23:45.336Z</time></trkpt><trkpt lat="34.0164967" lon="7.96383"><ele>-14.2</ele><time>2026-04-23T14:23:46.335Z</time></trkpt><trkpt lat="34.0164967" lon="7.96396"><ele>-13.8</ele><time>2026-04-23T14:23:47.336Z</time></trkpt><trkpt lat="34.01649" lon="7.9640867"><ele>-13.4</ele><time>2026-04-23T14:23:48.335Z</time></trkpt><trkpt lat="34.0164867" lon="7.96422"><ele>-13.0</ele><time>2026-04-23T14:23:49.335Z</time></trkpt><trkpt lat="34.01648" lon="7.96435"><ele>-13.0</ele><time>2026-04-23T14:23:50.335Z</time></trkpt><trkpt lat="34.0164783" lon="7.96448"><ele>-13.0</ele><time>2026-04-23T14:23:51.335Z</time></trkpt><trkpt lat="34.01648" lon="7.9646117"><ele>-13.0</ele><time>2026-04-23T14:23:52.336Z</time></trkpt><trkpt lat="34.0164733" lon="7.9647367"><ele>-13.0</ele><time>2026-04-23T14:23:53.335Z</time></trkpt><trkpt lat="34.0164683" lon="7.9648683"><ele>-13.0</ele><time>2026-04-23T14:23:54.335Z</time></trkpt><trkpt lat="34.016455" lon="7.96499"><ele>-13.0</ele><time>2026-04-23T14:23:55.336Z</time></trkpt><trkpt lat="34.0164467" lon="7.9651167"><ele>-13.0</ele><time>2026-04-23T14:23:56.335Z</time></trkpt><trkpt lat="34.0164333" lon="7.9652417"><ele>-13.0</ele><time>2026-04-23T14:23:57.336Z</time></trkpt><trkpt lat="34.016415" lon="7.96537"><ele>-13.0</ele><time>2026-04-23T14:23:58.335Z</time></trkpt><trkpt lat="34.0163967" lon="7.9654917"><ele>-13.0</ele><time>2026-04-23T14:23:59.335Z</time></trkpt><trkpt lat="34.016375" lon="7.9656183"><ele>-12.999999999999998</ele><time>2026-04-23T14:24:00.335Z</time></trkpt><trkpt lat="34.01637" lon="7.9657417"><ele>-13.0</ele><time>2026-04-23T14:24:01.336Z</time></trkpt><trkpt lat="34.0163567" lon="7.9658567"><ele>-13.0</ele><time>2026-04-23T14:24:02.336Z</time></trkpt><trkpt lat="34.016345" lon="7.96596"><ele>-13.0</ele><time>2026-04-23T14:24:03.336Z</time></trkpt><trkpt lat="34.0163283" lon="7.96604"><ele>-12.999999999999998</ele><time>2026-04-23T14:24:04.335Z</time></trkpt><trkpt lat="34.0162833" lon="7.96614"><ele>-13.0</ele><time>2026-04-23T14:24:06.335Z</time></trkpt><trkpt lat="34.0162233" lon="7.966205"><ele>-12.666666666666666</ele><time>2026-04-23T14:24:08.336Z</time></trkpt><trkpt lat="34.0161483" lon="7.966255"><ele>-12.333333333333332</ele><time>2026-04-23T14:24:39.335Z</time></trkpt><trkpt lat="34.01609" lon="7.9662867"><ele>-12.0</ele><time>2026-04-23T14:24:40.335Z</time></trkpt><trkpt lat="34.016015" lon="7.9663283"><ele>-11.666666666666666</ele><time>2026-04-23T14:24:41.336Z</time></trkpt><trkpt lat="34.0159367" lon="7.9663733"><ele>-11.333333333333332</ele><time>2026-04-23T14:24:42.336Z</time></trkpt><trkpt lat="34.0158583" lon="7.9664133"><ele>-11.0</ele><time>2026-04-23T14:24:43.336Z</time></trkpt><trkpt lat="34.0157767" lon="7.966455"><ele>-11.0</ele><time>2026-04-23T14:24:44.336Z</time></trkpt><trkpt lat="34.0156917" lon="7.9665"><ele>-11.0</ele><time>2026-04-23T14:24:45.336Z</time></trkpt><trkpt lat="34.0156167" lon="7.9665433"><ele>-11.0</ele><time>2026-04-23T14:24:46.336Z</time></trkpt><trkpt lat="34.015555" lon="7.9666067"><ele>-11.0</ele><time>2026-04-23T14:24:47.335Z</time></trkpt><trkpt lat="34.015505" lon="7.96667"><ele>-11.0</ele><time>2026-04-23T14:24:48.336Z</time></trkpt><trkpt lat="34.015425" lon="7.9668133"><ele>-11.166666666666666</ele><time>2026-04-23T14:24:50.336Z</time></trkpt><trkpt lat="34.01538" lon="7.9668867"><ele>-11.333333333333332</ele><time>2026-04-23T14:24:51.335Z</time></trkpt><trkpt lat="34.0153383" lon="7.9669583"><ele>-11.5</ele><time>2026-04-23T14:24:52.336Z</time></trkpt><trkpt lat="34.0152917" lon="7.9670367"><ele>-11.666666666666666</ele><time>2026-04-23T14:24:53.336Z</time></trkpt><trkpt lat="34.0152517" lon="7.96712"><ele>-11.833333333333334</ele><time>2026-04-23T14:24:54.336Z</time></trkpt><trkpt lat="34.0152267" lon="7.96721"><ele>-12.0</ele><time>2026-04-23T14:24:55.335Z</time></trkpt><trkpt lat="34.0152167" lon="7.967295"><ele>-12.0</ele><time>2026-04-23T14:24:56.336Z</time></trkpt><trkpt lat="34.0152017" lon="7.96737"><ele>-12.0</ele><time>2026-04-23T14:24:57.335Z</time></trkpt><trkpt lat="34.015195" lon="7.9674633"><ele>-12.0</ele><time>2026-04-23T14:24:59.335Z</time></trkpt><trkpt lat="34.01521" lon="7.967555"><ele>-12.0</ele><time>2026-04-23T14:25:09.336Z</time></trkpt><trkpt lat="34.015235" lon="7.9677067"><ele>-12.0</ele><time>2026-04-23T14:25:11.336Z</time></trkpt><trkpt lat="34.0152517" lon="7.9677817"><ele>-12.0</ele><time>2026-04-23T14:25:12.336Z</time></trkpt><trkpt lat="34.0153083" lon="7.9679083"><ele>-12.6</ele><time>2026-04-23T14:25:14.335Z</time></trkpt><trkpt lat="34.0153433" lon="7.9679783"><ele>-13.2</ele><time>2026-04-23T14:25:15.335Z</time></trkpt><trkpt lat="34.01538" lon="7.968055"><ele>-13.8</ele><time>2026-04-23T14:25:16.334Z</time></trkpt><trkpt lat="34.0154367" lon="7.9681817"><ele>-14.4</ele><time>2026-04-23T14:25:18.335Z</time></trkpt><trkpt lat="34.0154617" lon="7.9682933"><ele>-15.0</ele><time>2026-04-23T14:25:20.334Z</time></trkpt><trkpt lat="34.0155" lon="7.9684117"><ele>-15.6</ele><time>2026-04-23T14:25:22.335Z</time></trkpt><trkpt lat="34.01554" lon="7.9685467"><ele>-16.2</ele><time>2026-04-23T14:25:24.334Z</time></trkpt><trkpt lat="34.015605" lon="7.9686733"><ele>-16.8</ele><time>2026-04-23T14:25:26.335Z</time></trkpt><trkpt lat="34.015645" lon="7.9687383"><ele>-17.4</ele><time>2026-04-23T14:25:27.335Z</time></trkpt><trkpt lat="34.0156883" lon="7.9688133"><ele>-18.0</ele><time>2026-04-23T14:25:28.334Z</time></trkpt><trkpt lat="34.0157317" lon="7.9688917"><ele>-18.000000000000004</ele><time>2026-04-23T14:25:29.335Z</time></trkpt><trkpt lat="34.01577" lon="7.9689633"><ele>-18.0</ele><time>2026-04-23T14:25:30.335Z</time></trkpt><trkpt lat="34.0158117" lon="7.9690417"><ele>-18.0</ele><time>2026-04-23T14:25:31.334Z</time></trkpt><trkpt lat="34.015855" lon="7.9691167"><ele>-18.0</ele><time>2026-04-23T14:25:32.335Z</time></trkpt><trkpt lat="34.015895" lon="7.9691817"><ele>-18.0</ele><time>2026-04-23T14:25:33.335Z</time></trkpt><trkpt lat="34.0159367" lon="7.9692517"><ele>-18.000000000000004</ele><time>2026-04-23T14:25:34.335Z</time></trkpt><trkpt lat="34.0159767" lon="7.9693233"><ele>-18.0</ele><time>2026-04-23T14:25:35.334Z</time></trkpt><trkpt lat="34.01601" lon="7.9693917"><ele>-17.4</ele><time>2026-04-23T14:25:36.334Z</time></trkpt><trkpt lat="34.0160733" lon="7.9695083"><ele>-16.8</ele><time>2026-04-23T14:25:38.335Z</time></trkpt><trkpt lat="34.016135" lon="7.969605"><ele>-16.2</ele><time>2026-04-23T14:25:40.335Z</time></trkpt><trkpt lat="34.0161867" lon="7.9696817"><ele>-15.6</ele><time>2026-04-23T14:25:42.334Z</time></trkpt><trkpt lat="34.0162517" lon="7.9697983"><ele>-15.0</ele><time>2026-04-23T14:25:44.335Z</time></trkpt><trkpt lat="34.01629" lon="7.96987"><ele>-15.0</ele><time>2026-04-23T14:25:45.335Z</time></trkpt><trkpt lat="34.01633" lon="7.9699483"><ele>-15.0</ele><time>2026-04-23T14:25:46.335Z</time></trkpt><trkpt lat="34.0163733" lon="7.9700283"><ele>-15.0</ele><time>2026-04-23T14:25:47.335Z</time></trkpt><trkpt lat="34.0164117" lon="7.970115"><ele>-15.0</ele><time>2026-04-23T14:25:48.335Z</time></trkpt><trkpt lat="34.016455" lon="7.970195"><ele>-15.0</ele><time>2026-04-23T14:25:49.335Z</time></trkpt><trkpt lat="34.0164983" lon="7.9702667"><ele>-15.0</ele><time>2026-04-23T14:25:50.334Z</time></trkpt><trkpt lat="34.0165333" lon="7.970345"><ele>-14.857142857142858</ele><time>2026-04-23T14:25:51.335Z</time></trkpt><trkpt lat="34.0165767" lon="7.9704083"><ele>-14.714285714285714</ele><time>2026-04-23T14:25:52.335Z</time></trkpt><trkpt lat="34.0166217" lon="7.9704633"><ele>-14.571428571428571</ele><time>2026-04-23T14:25:53.335Z</time></trkpt><trkpt lat="34.0166817" lon="7.9705033"><ele>-14.428571428571429</ele><time>2026-04-23T14:25:54.335Z</time></trkpt><trkpt lat="34.0167383" lon="7.9705467"><ele>-14.285714285714285</ele><time>2026-04-23T14:25:55.334Z</time></trkpt><trkpt lat="34.0167967" lon="7.9705833"><ele>-14.142857142857142</ele><time>2026-04-23T14:25:56.335Z</time></trkpt><trkpt lat="34.0168533" lon="7.9706167"><ele>-14.0</ele><time>2026-04-23T14:25:57.335Z</time></trkpt><trkpt lat="34.016955" lon="7.9706833"><ele>-13.6</ele><time>2026-04-23T14:25:59.334Z</time></trkpt><trkpt lat="34.01702" lon="7.9707567"><ele>-13.2</ele><time>2026-04-23T14:26:01.334Z</time></trkpt><trkpt lat="34.017095" lon="7.9707567"><ele>-12.799999999999999</ele><time>2026-04-23T14:26:56.335Z</time></trkpt><trkpt lat="34.0171767" lon="7.9706917"><ele>-12.399999999999999</ele><time>2026-04-23T14:26:58.335Z</time></trkpt><trkpt lat="34.01725" lon="7.9706"><ele>-12.0</ele><time>2026-04-23T14:27:00.334Z</time></trkpt><trkpt lat="34.0173117" lon="7.9704917"><ele>-12.0</ele><time>2026-04-23T14:27:02.335Z</time></trkpt><trkpt lat="34.0173483" lon="7.9704233"><ele>-12.0</ele><time>2026-04-23T14:27:03.334Z</time></trkpt><trkpt lat="34.0173867" lon="7.9703517"><ele>-12.0</ele><time>2026-04-23T14:27:04.335Z</time></trkpt><trkpt lat="34.0174317" lon="7.9702967"><ele>-12.0</ele><time>2026-04-23T14:27:05.334Z</time></trkpt><trkpt lat="34.01749" lon="7.9702283"><ele>-12.0</ele><time>2026-04-23T14:27:07.335Z</time></trkpt><trkpt lat="34.0175567" lon="7.97031"><ele>-12.0</ele><time>2026-04-23T14:27:35.334Z</time></trkpt><trkpt lat="34.0176267" lon="7.97044"><ele>-12.333333333333334</ele><time>2026-04-23T14:27:37.335Z</time></trkpt><trkpt lat="34.0176733" lon="7.9705217"><ele>-12.666666666666668</ele><time>2026-04-23T14:27:38.335Z</time></trkpt><trkpt lat="34.01772" lon="7.9706033"><ele>-13.0</ele><time>2026-04-23T14:27:39.335Z</time></trkpt><trkpt lat="34.01777" lon="7.9706933"><ele>-13.333333333333334</ele><time>2026-04-23T14:27:40.334Z</time></trkpt><trkpt lat="34.0178167" lon="7.9707817"><ele>-13.666666666666668</ele><time>2026-04-23T14:27:41.335Z</time></trkpt><trkpt lat="34.0178583" lon="7.9708717"><ele>-14.0</ele><time>2026-04-23T14:27:42.334Z</time></trkpt><trkpt lat="34.017905" lon="7.9709567"><ele>-14.000000000000002</ele><time>2026-04-23T14:27:43.334Z</time></trkpt><trkpt lat="34.0179483" lon="7.971045"><ele>-14.0</ele><time>2026-04-23T14:27:44.334Z</time></trkpt><trkpt lat="34.01799" lon="7.9711317"><ele>-14.0</ele><time>2026-04-23T14:27:45.335Z</time></trkpt><trkpt lat="34.0180267" lon="7.9712217"><ele>-14.0</ele><time>2026-04-23T14:27:46.334Z</time></trkpt><trkpt lat="34.018055" lon="7.9713033"><ele>-14.000000000000002</ele><time>2026-04-23T14:27:47.334Z</time></trkpt><trkpt lat="34.018075" lon="7.9713917"><ele>-14.0</ele><time>2026-04-23T14:27:48.334Z</time></trkpt><trkpt lat="34.0180917" lon="7.9714783"><ele>-14.000000000000002</ele><time>2026-04-23T14:27:49.335Z</time></trkpt><trkpt lat="34.0181067" lon="7.97158"><ele>-14.0</ele><time>2026-04-23T14:27:50.334Z</time></trkpt><trkpt lat="34.0181217" lon="7.9716883"><ele>-14.0</ele><time>2026-04-23T14:27:51.334Z</time></trkpt><trkpt lat="34.0181317" lon="7.9717933"><ele>-14.0</ele><time>2026-04-23T14:27:52.335Z</time></trkpt><trkpt lat="34.018135" lon="7.9719017"><ele>-14.000000000000002</ele><time>2026-04-23T14:27:53.334Z</time></trkpt><trkpt lat="34.018135" lon="7.9720067"><ele>-14.0</ele><time>2026-04-23T14:27:54.334Z</time></trkpt><trkpt lat="34.01813" lon="7.9721083"><ele>-14.0</ele><time>2026-04-23T14:27:55.335Z</time></trkpt><trkpt lat="34.0181167" lon="7.972215"><ele>-13.999999999999998</ele><time>2026-04-23T14:27:56.335Z</time></trkpt><trkpt lat="34.0181017" lon="7.9723233"><ele>-13.999999999999998</ele><time>2026-04-23T14:27:57.335Z</time></trkpt><trkpt lat="34.0180917" lon="7.97244"><ele>-14.0</ele><time>2026-04-23T14:27:58.334Z</time></trkpt><trkpt lat="34.018075" lon="7.9725533"><ele>-14.0</ele><time>2026-04-23T14:27:59.334Z</time></trkpt><trkpt lat="34.0180633" lon="7.972665"><ele>-14.2</ele><time>2026-04-23T14:28:00.335Z</time></trkpt><trkpt lat="34.0180617" lon="7.972775"><ele>-14.399999999999999</ele><time>2026-04-23T14:28:01.335Z</time></trkpt><trkpt lat="34.0180617" lon="7.9728817"><ele>-14.6</ele><time>2026-04-23T14:28:02.334Z</time></trkpt><trkpt lat="34.0180633" lon="7.972995"><ele>-14.8</ele><time>2026-04-23T14:28:03.334Z</time></trkpt><trkpt lat="34.0180733" lon="7.9731033"><ele>-15.0</ele><time>2026-04-23T14:28:04.335Z</time></trkpt><trkpt lat="34.0180783" lon="7.9732133"><ele>-15.0</ele><time>2026-04-23T14:28:05.335Z</time></trkpt><trkpt lat="34.0180883" lon="7.973325"><ele>-15.0</ele><time>2026-04-23T14:28:06.335Z</time></trkpt><trkpt lat="34.018095" lon="7.9734317"><ele>-15.0</ele><time>2026-04-23T14:28:07.335Z</time></trkpt><trkpt lat="34.0180983" lon="7.9735417"><ele>-15.0</ele><time>2026-04-23T14:28:08.334Z</time></trkpt><trkpt lat="34.0181067" lon="7.9736583"><ele>-15.0</ele><time>2026-04-23T14:28:09.334Z</time></trkpt><trkpt lat="34.018115" lon="7.9737733"><ele>-14.4</ele><time>2026-04-23T14:28:10.334Z</time></trkpt><trkpt lat="34.0181267" lon="7.9738917"><ele>-13.8</ele><time>2026-04-23T14:28:11.334Z</time></trkpt><trkpt lat="34.0181383" lon="7.9740033"><ele>-13.2</ele><time>2026-04-23T14:28:12.335Z</time></trkpt><trkpt lat="34.0181567" lon="7.9741067"><ele>-12.6</ele><time>2026-04-23T14:28:13.334Z</time></trkpt><trkpt lat="34.0181683" lon="7.9742167"><ele>-12.0</ele><time>2026-04-23T14:28:14.334Z</time></trkpt><trkpt lat="34.0181883" lon="7.974315"><ele>-12.0</ele><time>2026-04-23T14:28:15.335Z</time></trkpt><trkpt lat="34.0182133" lon="7.97442"><ele>-12.0</ele><time>2026-04-23T14:28:16.333Z</time></trkpt><trkpt lat="34.0182467" lon="7.974525"><ele>-12.0</ele><time>2026-04-23T14:28:17.334Z</time></trkpt><trkpt lat="34.0182683" lon="7.9746317"><ele>-12.0</ele><time>2026-04-23T14:28:18.334Z</time></trkpt><trkpt lat="34.0182967" lon="7.9747383"><ele>-12.0</ele><time>2026-04-23T14:28:19.334Z</time></trkpt><trkpt lat="34.01832" lon="7.9748433"><ele>-12.833333333333334</ele><time>2026-04-23T14:28:20.333Z</time></trkpt><trkpt lat="34.0183467" lon="7.9749483"><ele>-13.666666666666668</ele><time>2026-04-23T14:28:21.333Z</time></trkpt><trkpt lat="34.01837" lon="7.975055"><ele>-14.5</ele><time>2026-04-23T14:28:22.333Z</time></trkpt><trkpt lat="34.0183817" lon="7.97516"><ele>-15.333333333333334</ele><time>2026-04-23T14:28:23.334Z</time></trkpt><trkpt lat="34.0183967" lon="7.9752483"><ele>-16.166666666666668</ele><time>2026-04-23T14:28:24.334Z</time></trkpt><trkpt lat="34.0183967" lon="7.9753333"><ele>-17.0</ele><time>2026-04-23T14:28:25.333Z</time></trkpt><trkpt lat="34.0183917" lon="7.9754167"><ele>-17.0</ele><time>2026-04-23T14:28:26.334Z</time></trkpt><trkpt lat="34.01837" lon="7.9755017"><ele>-17.0</ele><time>2026-04-23T14:28:27.334Z</time></trkpt><trkpt lat="34.0183367" lon="7.9755917"><ele>-17.0</ele><time>2026-04-23T14:28:28.333Z</time></trkpt><trkpt lat="34.0183" lon="7.9756867"><ele>-17.0</ele><time>2026-04-23T14:28:29.333Z</time></trkpt><trkpt lat="34.018265" lon="7.9757917"><ele>-17.0</ele><time>2026-04-23T14:28:30.334Z</time></trkpt><trkpt lat="34.0182333" lon="7.9758883"><ele>-17.0</ele><time>2026-04-23T14:28:31.333Z</time></trkpt><trkpt lat="34.018205" lon="7.9759767"><ele>-16.666666666666668</ele><time>2026-04-23T14:28:32.333Z</time></trkpt><trkpt lat="34.018175" lon="7.97606"><ele>-16.333333333333336</ele><time>2026-04-23T14:28:33.334Z</time></trkpt><trkpt lat="34.0181433" lon="7.9761383"><ele>-16.0</ele><time>2026-04-23T14:28:34.334Z</time></trkpt><trkpt lat="34.0180983" lon="7.9762267"><ele>-15.666666666666668</ele><time>2026-04-23T14:28:35.334Z</time></trkpt><trkpt lat="34.0180583" lon="7.9763217"><ele>-15.333333333333334</ele><time>2026-04-23T14:28:36.333Z</time></trkpt><trkpt lat="34.0180217" lon="7.97642"><ele>-15.0</ele><time>2026-04-23T14:28:37.333Z</time></trkpt><trkpt lat="34.0179867" lon="7.976515"><ele>-15.0</ele><time>2026-04-23T14:28:38.333Z</time></trkpt><trkpt lat="34.0179517" lon="7.9766083"><ele>-15.0</ele><time>2026-04-23T14:28:39.334Z</time></trkpt><trkpt lat="34.0179217" lon="7.9767067"><ele>-15.0</ele><time>2026-04-23T14:28:40.334Z</time></trkpt><trkpt lat="34.01789" lon="7.9768067"><ele>-15.0</ele><time>2026-04-23T14:28:41.334Z</time></trkpt><trkpt lat="34.01786" lon="7.9769067"><ele>-15.0</ele><time>2026-04-23T14:28:42.334Z</time></trkpt><trkpt lat="34.0178233" lon="7.9770033"><ele>-15.0</ele><time>2026-04-23T14:28:43.334Z</time></trkpt><trkpt lat="34.0177867" lon="7.9771"><ele>-15.333333333333334</ele><time>2026-04-23T14:28:44.334Z</time></trkpt><trkpt lat="34.0177417" lon="7.9771867"><ele>-15.666666666666668</ele><time>2026-04-23T14:28:45.334Z</time></trkpt><trkpt lat="34.0176933" lon="7.9772767"><ele>-16.0</ele><time>2026-04-23T14:28:46.333Z</time></trkpt><trkpt lat="34.01765" lon="7.9773617"><ele>-16.333333333333336</ele><time>2026-04-23T14:28:47.334Z</time></trkpt><trkpt lat="34.0176183" lon="7.9774533"><ele>-16.666666666666668</ele><time>2026-04-23T14:28:48.334Z</time></trkpt><trkpt lat="34.0176" lon="7.9775517"><ele>-17.0</ele><time>2026-04-23T14:28:49.334Z</time></trkpt><trkpt lat="34.0175783" lon="7.97766"><ele>-17.6</ele><time>2026-04-23T14:28:50.334Z</time></trkpt><trkpt lat="34.01756" lon="7.9777667"><ele>-18.2</ele><time>2026-04-23T14:28:51.334Z</time></trkpt><trkpt lat="34.0175483" lon="7.9778783"><ele>-18.8</ele><time>2026-04-23T14:28:52.333Z</time></trkpt><trkpt lat="34.0175283" lon="7.9779917"><ele>-19.4</ele><time>2026-04-23T14:28:53.334Z</time></trkpt><trkpt lat="34.017495" lon="7.9781"><ele>-20.0</ele><time>2026-04-23T14:28:54.334Z</time></trkpt><trkpt lat="34.0174617" lon="7.9782067"><ele>-20.0</ele><time>2026-04-23T14:28:55.333Z</time></trkpt><trkpt lat="34.0174267" lon="7.9783133"><ele>-20.0</ele><time>2026-04-23T14:28:56.334Z</time></trkpt><trkpt lat="34.0173867" lon="7.978425"><ele>-20.0</ele><time>2026-04-23T14:28:57.333Z</time></trkpt><trkpt lat="34.0173467" lon="7.9785367"><ele>-20.0</ele><time>2026-04-23T14:28:58.334Z</time></trkpt><trkpt lat="34.0173117" lon="7.978645"><ele>-20.0</ele><time>2026-04-23T14:28:59.333Z</time></trkpt><trkpt lat="34.0172767" lon="7.9787517"><ele>-19.4</ele><time>2026-04-23T14:29:00.333Z</time></trkpt><trkpt lat="34.0172433" lon="7.9788533"><ele>-18.8</ele><time>2026-04-23T14:29:01.333Z</time></trkpt><trkpt lat="34.0172133" lon="7.97896"><ele>-18.2</ele><time>2026-04-23T14:29:02.334Z</time></trkpt><trkpt lat="34.0171817" lon="7.9790683"><ele>-17.6</ele><time>2026-04-23T14:29:03.333Z</time></trkpt><trkpt lat="34.017145" lon="7.97918"><ele>-17.0</ele><time>2026-04-23T14:29:04.334Z</time></trkpt><trkpt lat="34.017115" lon="7.9792867"><ele>-17.0</ele><time>2026-04-23T14:29:05.334Z</time></trkpt><trkpt lat="34.017085" lon="7.9793967"><ele>-17.0</ele><time>2026-04-23T14:29:06.333Z</time></trkpt><trkpt lat="34.0170583" lon="7.9795033"><ele>-17.0</ele><time>2026-04-23T14:29:07.333Z</time></trkpt><trkpt lat="34.0170317" lon="7.979605"><ele>-17.0</ele><time>2026-04-23T14:29:08.333Z</time></trkpt><trkpt lat="34.017" lon="7.9797067"><ele>-17.0</ele><time>2026-04-23T14:29:09.334Z</time></trkpt><trkpt lat="34.01696" lon="7.9798117"><ele>-17.0</ele><time>2026-04-23T14:29:10.333Z</time></trkpt><trkpt lat="34.0169233" lon="7.97992"><ele>-17.0</ele><time>2026-04-23T14:29:11.334Z</time></trkpt><trkpt lat="34.016885" lon="7.9800267"><ele>-17.0</ele><time>2026-04-23T14:29:12.333Z</time></trkpt><trkpt lat="34.01684" lon="7.980125"><ele>-17.0</ele><time>2026-04-23T14:29:13.334Z</time></trkpt><trkpt lat="34.0167967" lon="7.98021"><ele>-17.0</ele><time>2026-04-23T14:29:14.333Z</time></trkpt><trkpt lat="34.0167583" lon="7.9802933"><ele>-17.0</ele><time>2026-04-23T14:29:15.333Z</time></trkpt><trkpt lat="34.016715" lon="7.980395"><ele>-17.2</ele><time>2026-04-23T14:29:16.334Z</time></trkpt><trkpt lat="34.0166683" lon="7.9804883"><ele>-17.4</ele><time>2026-04-23T14:29:17.333Z</time></trkpt><trkpt lat="34.0166217" lon="7.9805833"><ele>-17.6</ele><time>2026-04-23T14:29:18.334Z</time></trkpt><trkpt lat="34.0165767" lon="7.9806767"><ele>-17.8</ele><time>2026-04-23T14:29:19.333Z</time></trkpt><trkpt lat="34.0165217" lon="7.98077"><ele>-18.0</ele><time>2026-04-23T14:29:20.334Z</time></trkpt><trkpt lat="34.0164583" lon="7.9808617"><ele>-18.8</ele><time>2026-04-23T14:29:21.334Z</time></trkpt><trkpt lat="34.0163967" lon="7.980955"><ele>-19.6</ele><time>2026-04-23T14:29:22.333Z</time></trkpt><trkpt lat="34.016345" lon="7.98105"><ele>-20.400000000000002</ele><time>2026-04-23T14:29:23.334Z</time></trkpt><trkpt lat="34.0162917" lon="7.9811433"><ele>-21.200000000000003</ele><time>2026-04-23T14:29:24.334Z</time></trkpt><trkpt lat="34.016235" lon="7.98124"><ele>-22.0</ele><time>2026-04-23T14:29:25.333Z</time></trkpt><trkpt lat="34.0161883" lon="7.9813417"><ele>-22.0</ele><time>2026-04-23T14:29:26.333Z</time></trkpt><trkpt lat="34.0161467" lon="7.981435"><ele>-22.0</ele><time>2026-04-23T14:29:27.334Z</time></trkpt><trkpt lat="34.0161217" lon="7.9815133"><ele>-22.0</ele><time>2026-04-23T14:29:28.334Z</time></trkpt><trkpt lat="34.0160883" lon="7.9816183"><ele>-22.0</ele><time>2026-04-23T14:29:30.333Z</time></trkpt><trkpt lat="34.0160533" lon="7.9817133"><ele>-22.0</ele><time>2026-04-23T14:30:04.334Z</time></trkpt><trkpt lat="34.01608" lon="7.9817867"><ele>-22.0</ele><time>2026-04-23T14:30:07.334Z</time></trkpt><trkpt lat="34.0161383" lon="7.9817017"><ele>-22.0</ele><time>2026-04-23T14:30:10.334Z</time></trkpt><trkpt lat="34.0161667" lon="7.9815683"><ele>-22.0</ele><time>2026-04-23T14:30:12.334Z</time></trkpt><trkpt lat="34.0161683" lon="7.981435"><ele>-22.0</ele><time>2026-04-23T14:30:14.333Z</time></trkpt><trkpt lat="34.01618" lon="7.9813333"><ele>-22.0</ele><time>2026-04-23T14:30:16.333Z</time></trkpt><trkpt lat="34.0162017" lon="7.98126"><ele>-22.0</ele><time>2026-04-23T14:32:03.333Z</time></trkpt><trkpt lat="34.0162733" lon="7.9811367"><ele>-22.0</ele><time>2026-04-23T14:32:05.332Z</time></trkpt><trkpt lat="34.0163183" lon="7.9810517"><ele>-22.0</ele><time>2026-04-23T14:32:06.332Z</time></trkpt><trkpt lat="34.0163633" lon="7.9809667"><ele>-22.0</ele><time>2026-04-23T14:32:07.332Z</time></trkpt><trkpt lat="34.0164117" lon="7.980885"><ele>-22.0</ele><time>2026-04-23T14:32:08.332Z</time></trkpt><trkpt lat="34.0164617" lon="7.9808"><ele>-22.0</ele><time>2026-04-23T14:32:09.333Z</time></trkpt><trkpt lat="34.01651" lon="7.9807117"><ele>-22.0</ele><time>2026-04-23T14:32:10.333Z</time></trkpt><trkpt lat="34.0165633" lon="7.98062"><ele>-21.6</ele><time>2026-04-23T14:32:11.333Z</time></trkpt><trkpt lat="34.0166167" lon="7.9805267"><ele>-21.200000000000003</ele><time>2026-04-23T14:32:12.332Z</time></trkpt><trkpt lat="34.01667" lon="7.9804317"><ele>-20.8</ele><time>2026-04-23T14:32:13.332Z</time></trkpt><trkpt lat="34.0167183" lon="7.9803283"><ele>-20.4</ele><time>2026-04-23T14:32:14.332Z</time></trkpt><trkpt lat="34.0167667" lon="7.9802333"><ele>-20.0</ele><time>2026-04-23T14:32:15.332Z</time></trkpt><trkpt lat="34.0168183" lon="7.9801317"><ele>-19.6</ele><time>2026-04-23T14:32:16.333Z</time></trkpt><trkpt lat="34.0168633" lon="7.98004"><ele>-19.2</ele><time>2026-04-23T14:32:17.332Z</time></trkpt><trkpt lat="34.0169017" lon="7.97994"><ele>-18.8</ele><time>2026-04-23T14:32:18.333Z</time></trkpt><trkpt lat="34.0169367" lon="7.9798333"><ele>-18.4</ele><time>2026-04-23T14:32:19.333Z</time></trkpt><trkpt lat="34.016975" lon="7.979725"><ele>-18.0</ele><time>2026-04-23T14:32:20.332Z</time></trkpt><trkpt lat="34.0170167" lon="7.9796067"><ele>-17.8</ele><time>2026-04-23T14:32:21.332Z</time></trkpt><trkpt lat="34.0170667" lon="7.979495"><ele>-17.6</ele><time>2026-04-23T14:32:22.332Z</time></trkpt><trkpt lat="34.0171217" lon="7.9793833"><ele>-17.4</ele><time>2026-04-23T14:32:23.332Z</time></trkpt><trkpt lat="34.0171883" lon="7.97927"><ele>-17.2</ele><time>2026-04-23T14:32:24.333Z</time></trkpt><trkpt lat="34.0172467" lon="7.9791417"><ele>-17.0</ele><time>2026-04-23T14:32:25.332Z</time></trkpt><trkpt lat="34.01735" lon="7.97886"><ele>-17.0</ele><time>2026-04-23T14:32:27.332Z</time></trkpt><trkpt lat="34.0173967" lon="7.9787133"><ele>-17.0</ele><time>2026-04-23T14:32:28.333Z</time></trkpt><trkpt lat="34.0174317" lon="7.9785733"><ele>-17.0</ele><time>2026-04-23T14:32:29.332Z</time></trkpt><trkpt lat="34.0174617" lon="7.9784267"><ele>-17.0</ele><time>2026-04-23T14:32:30.333Z</time></trkpt><trkpt lat="34.0174867" lon="7.9782767"><ele>-17.75</ele><time>2026-04-23T14:32:31.332Z</time></trkpt><trkpt lat="34.0175067" lon="7.9781267"><ele>-18.5</ele><time>2026-04-23T14:32:32.332Z</time></trkpt><trkpt lat="34.01753" lon="7.9779717"><ele>-19.25</ele><time>2026-04-23T14:32:33.332Z</time></trkpt><trkpt lat="34.0175583" lon="7.9778267"><ele>-20.0</ele><time>2026-04-23T14:32:34.333Z</time></trkpt><trkpt lat="34.0175917" lon="7.977675"><ele>-20.0</ele><time>2026-04-23T14:32:35.332Z</time></trkpt><trkpt lat="34.0176233" lon="7.97753"><ele>-20.0</ele><time>2026-04-23T14:32:36.333Z</time></trkpt><trkpt lat="34.01767" lon="7.9773833"><ele>-20.0</ele><time>2026-04-23T14:32:37.332Z</time></trkpt><trkpt lat="34.0177267" lon="7.9772417"><ele>-20.0</ele><time>2026-04-23T14:32:38.332Z</time></trkpt><trkpt lat="34.0177783" lon="7.977105"><ele>-19.25</ele><time>2026-04-23T14:32:39.332Z</time></trkpt><trkpt lat="34.017825" lon="7.97697"><ele>-18.5</ele><time>2026-04-23T14:32:40.333Z</time></trkpt><trkpt lat="34.01788" lon="7.9768383"><ele>-17.75</ele><time>2026-04-23T14:32:41.333Z</time></trkpt><trkpt lat="34.0179283" lon="7.976715"><ele>-17.0</ele><time>2026-04-23T14:32:42.332Z</time></trkpt><trkpt lat="34.0179583" lon="7.9766033"><ele>-16.666666666666668</ele><time>2026-04-23T14:32:43.332Z</time></trkpt><trkpt lat="34.0179917" lon="7.9764917"><ele>-16.333333333333336</ele><time>2026-04-23T14:32:44.333Z</time></trkpt><trkpt lat="34.0180217" lon="7.9763817"><ele>-16.0</ele><time>2026-04-23T14:32:45.332Z</time></trkpt><trkpt lat="34.01805" lon="7.9762933"><ele>-15.666666666666668</ele><time>2026-04-23T14:32:46.332Z</time></trkpt><trkpt lat="34.0180783" lon="7.976215"><ele>-15.333333333333334</ele><time>2026-04-23T14:32:47.332Z</time></trkpt><trkpt lat="34.0181067" lon="7.9761467"><ele>-15.0</ele><time>2026-04-23T14:32:48.332Z</time></trkpt><trkpt lat="34.0181667" lon="7.976065"><ele>-15.0</ele><time>2026-04-23T14:32:50.332Z</time></trkpt><trkpt lat="34.01821" lon="7.975995"><ele>-15.0</ele><time>2026-04-23T14:32:53.332Z</time></trkpt><trkpt lat="34.0182317" lon="7.9759217"><ele>-15.0</ele><time>2026-04-23T14:33:31.332Z</time></trkpt><trkpt lat="34.01825" lon="7.9758483"><ele>-15.0</ele><time>2026-04-23T14:33:33.332Z</time></trkpt><trkpt lat="34.0182917" lon="7.97573"><ele>-15.0</ele><time>2026-04-23T14:33:35.333Z</time></trkpt><trkpt lat="34.018315" lon="7.9756583"><ele>-15.0</ele><time>2026-04-23T14:33:36.332Z</time></trkpt><trkpt lat="34.0183567" lon="7.9755233"><ele>-15.333333333333334</ele><time>2026-04-23T14:33:38.332Z</time></trkpt><trkpt lat="34.0184083" lon="7.9754033"><ele>-15.666666666666668</ele><time>2026-04-23T14:33:40.332Z</time></trkpt><trkpt lat="34.0184317" lon="7.975315"><ele>-16.0</ele><time>2026-04-23T14:33:42.333Z</time></trkpt><trkpt lat="34.01838" lon="7.9752683"><ele>-16.333333333333336</ele><time>2026-04-23T14:33:46.333Z</time></trkpt><trkpt lat="34.0183467" lon="7.975345"><ele>-16.666666666666668</ele><time>2026-04-23T14:33:48.332Z</time></trkpt><trkpt lat="34.0183333" lon="7.9754533"><ele>-17.0</ele><time>2026-04-23T14:33:50.333Z</time></trkpt><trkpt lat="34.018335" lon="7.9755983"><ele>-17.0</ele><time>2026-04-23T14:33:52.333Z</time></trkpt><trkpt lat="34.0183233" lon="7.975735"><ele>-17.0</ele><time>2026-04-23T14:33:54.332Z</time></trkpt><trkpt lat="34.0182817" lon="7.9758567"><ele>-17.0</ele><time>2026-04-23T14:33:56.332Z</time></trkpt><trkpt lat="34.0182383" lon="7.9759467"><ele>-17.0</ele><time>2026-04-23T14:33:58.333Z</time></trkpt><trkpt lat="34.0181783" lon="7.976035"><ele>-17.0</ele><time>2026-04-23T14:34:30.331Z</time></trkpt><trkpt lat="34.01813" lon="7.9761467"><ele>-17.0</ele><time>2026-04-23T14:34:32.332Z</time></trkpt><trkpt lat="34.0181033" lon="7.9762283"><ele>-17.0</ele><time>2026-04-23T14:34:33.331Z</time></trkpt><trkpt lat="34.0180667" lon="7.9763217"><ele>-17.0</ele><time>2026-04-23T14:34:34.331Z</time></trkpt><trkpt lat="34.0180333" lon="7.9764367"><ele>-17.0</ele><time>2026-04-23T14:34:35.331Z</time></trkpt><trkpt lat="34.0179933" lon="7.9765617"><ele>-17.0</ele><time>2026-04-23T14:34:36.332Z</time></trkpt><trkpt lat="34.0179483" lon="7.9766967"><ele>-17.0</ele><time>2026-04-23T14:34:37.332Z</time></trkpt><trkpt lat="34.0178917" lon="7.9768333"><ele>-17.0</ele><time>2026-04-23T14:34:38.332Z</time></trkpt><trkpt lat="34.0178317" lon="7.9769617"><ele>-17.0</ele><time>2026-04-23T14:34:39.331Z</time></trkpt><trkpt lat="34.0177833" lon="7.9770933"><ele>-17.0</ele><time>2026-04-23T14:34:40.332Z</time></trkpt><trkpt lat="34.0177283" lon="7.97723"><ele>-17.0</ele><time>2026-04-23T14:34:41.332Z</time></trkpt><trkpt lat="34.0176817" lon="7.9773817"><ele>-17.0</ele><time>2026-04-23T14:34:42.332Z</time></trkpt><trkpt lat="34.0176417" lon="7.977545"><ele>-17.0</ele><time>2026-04-23T14:34:43.331Z</time></trkpt><trkpt lat="34.0175967" lon="7.9777"><ele>-17.0</ele><time>2026-04-23T14:34:44.332Z</time></trkpt><trkpt lat="34.01757" lon="7.9778517"><ele>-17.0</ele><time>2026-04-23T14:34:45.332Z</time></trkpt><trkpt lat="34.017535" lon="7.978"><ele>-17.0</ele><time>2026-04-23T14:34:46.331Z</time></trkpt><trkpt lat="34.0174917" lon="7.9781483"><ele>-17.0</ele><time>2026-04-23T14:34:47.331Z</time></trkpt><trkpt lat="34.0174467" lon="7.9783017"><ele>-17.0</ele><time>2026-04-23T14:34:48.332Z</time></trkpt><trkpt lat="34.0173967" lon="7.9784583"><ele>-17.0</ele><time>2026-04-23T14:34:49.332Z</time></trkpt><trkpt lat="34.01734" lon="7.9786117"><ele>-17.0</ele><time>2026-04-23T14:34:50.331Z</time></trkpt><trkpt lat="34.017285" lon="7.9787733"><ele>-17.0</ele><time>2026-04-23T14:34:51.332Z</time></trkpt><trkpt lat="34.0172367" lon="7.97892"><ele>-17.0</ele><time>2026-04-23T14:34:52.331Z</time></trkpt><trkpt lat="34.0171933" lon="7.9790817"><ele>-17.0</ele><time>2026-04-23T14:34:53.332Z</time></trkpt><trkpt lat="34.0171467" lon="7.9792417"><ele>-17.0</ele><time>2026-04-23T14:34:54.332Z</time></trkpt><trkpt lat="34.0170967" lon="7.9793967"><ele>-17.0</ele><time>2026-04-23T14:34:55.331Z</time></trkpt><trkpt lat="34.01706" lon="7.9795483"><ele>-17.0</ele><time>2026-04-23T14:34:56.331Z</time></trkpt><trkpt lat="34.0170183" lon="7.9796967"><ele>-17.0</ele><time>2026-04-23T14:34:57.332Z</time></trkpt><trkpt lat="34.016975" lon="7.9798467"><ele>-17.0</ele><time>2026-04-23T14:34:58.331Z</time></trkpt><trkpt lat="34.016925" lon="7.9799833"><ele>-17.0</ele><time>2026-04-23T14:34:59.332Z</time></trkpt><trkpt lat="34.01687" lon="7.980125"><ele>-17.0</ele><time>2026-04-23T14:35:00.331Z</time></trkpt><trkpt lat="34.0168067" lon="7.9802467"><ele>-17.25</ele><time>2026-04-23T14:35:01.332Z</time></trkpt><trkpt lat="34.0167433" lon="7.9803667"><ele>-17.5</ele><time>2026-04-23T14:35:02.332Z</time></trkpt><trkpt lat="34.0166767" lon="7.9804883"><ele>-17.75</ele><time>2026-04-23T14:35:03.331Z</time></trkpt><trkpt lat="34.0166067" lon="7.9806183"><ele>-18.0</ele><time>2026-04-23T14:35:04.331Z</time></trkpt><trkpt lat="34.0165367" lon="7.9807717"><ele>-18.666666666666668</ele><time>2026-04-23T14:35:05.331Z</time></trkpt><trkpt lat="34.0164783" lon="7.9808683"><ele>-19.333333333333332</ele><time>2026-04-23T14:35:06.332Z</time></trkpt><trkpt lat="34.016415" lon="7.9809617"><ele>-20.0</ele><time>2026-04-23T14:35:07.332Z</time></trkpt><trkpt lat="34.0163617" lon="7.9810483"><ele>-20.666666666666664</ele><time>2026-04-23T14:35:08.332Z</time></trkpt><trkpt lat="34.0163217" lon="7.98113"><ele>-21.333333333333332</ele><time>2026-04-23T14:35:09.331Z</time></trkpt><trkpt lat="34.016285" lon="7.9811933"><ele>-22.0</ele><time>2026-04-23T14:35:10.331Z</time></trkpt><trkpt lat="34.0162433" lon="7.9813083"><ele>-22.0</ele><time>2026-04-23T14:35:12.332Z</time></trkpt><trkpt lat="34.0162083" lon="7.9813983"><ele>-22.0</ele><time>2026-04-23T14:35:15.332Z</time></trkpt><trkpt lat="34.01617" lon="7.9814767"><ele>-22.0</ele><time>2026-04-23T14:35:18.332Z</time></trkpt><trkpt lat="34.01613" lon="7.9815633"><ele>-22.0</ele><time>2026-04-23T14:35:21.331Z</time></trkpt><trkpt lat="34.016085" lon="7.9816583"><ele>-22.0</ele><time>2026-04-23T14:35:24.331Z</time></trkpt><trkpt lat="34.016065" lon="7.9817367"><ele>-22.0</ele><time>2026-04-23T14:35:38.331Z</time></trkpt><trkpt lat="34.01604" lon="7.9818167"><ele>-21.6</ele><time>2026-04-23T14:35:39.332Z</time></trkpt><trkpt lat="34.016015" lon="7.9819133"><ele>-21.200000000000003</ele><time>2026-04-23T14:35:40.331Z</time></trkpt><trkpt lat="34.0159867" lon="7.9820117"><ele>-20.8</ele><time>2026-04-23T14:35:41.331Z</time></trkpt><trkpt lat="34.0159533" lon="7.9821167"><ele>-20.4</ele><time>2026-04-23T14:35:42.331Z</time></trkpt><trkpt lat="34.0159233" lon="7.9822267"><ele>-20.0</ele><time>2026-04-23T14:35:43.332Z</time></trkpt><trkpt lat="34.0158933" lon="7.9823367"><ele>-20.0</ele><time>2026-04-23T14:35:44.332Z</time></trkpt><trkpt lat="34.0158533" lon="7.9824517"><ele>-20.0</ele><time>2026-04-23T14:35:45.332Z</time></trkpt><trkpt lat="34.01582" lon="7.9825733"><ele>-20.0</ele><time>2026-04-23T14:35:46.332Z</time></trkpt><trkpt lat="34.01578" lon="7.982695"><ele>-20.0</ele><time>2026-04-23T14:35:47.331Z</time></trkpt><trkpt lat="34.015745" lon="7.9828217"><ele>-20.0</ele><time>2026-04-23T14:35:48.331Z</time></trkpt><trkpt lat="34.0157017" lon="7.9829483"><ele>-19.75</ele><time>2026-04-23T14:35:49.331Z</time></trkpt><trkpt lat="34.0156617" lon="7.98308"><ele>-19.5</ele><time>2026-04-23T14:35:50.332Z</time></trkpt><trkpt lat="34.0156217" lon="7.98321"><ele>-19.25</ele><time>2026-04-23T14:35:51.331Z</time></trkpt><trkpt lat="34.0155883" lon="7.9833367"><ele>-19.0</ele><time>2026-04-23T14:35:52.331Z</time></trkpt><trkpt lat="34.0155567" lon="7.9834667"><ele>-19.0</ele><time>2026-04-23T14:35:53.332Z</time></trkpt><trkpt lat="34.0155217" lon="7.9835867"><ele>-19.0</ele><time>2026-04-23T14:35:54.332Z</time></trkpt><trkpt lat="34.0154667" lon="7.9837083"><ele>-19.0</ele><time>2026-04-23T14:35:55.332Z</time></trkpt><trkpt lat="34.0154083" lon="7.9838233"><ele>-19.0</ele><time>2026-04-23T14:35:56.332Z</time></trkpt><trkpt lat="34.01534" lon="7.9839483"><ele>-19.0</ele><time>2026-04-23T14:35:57.332Z</time></trkpt><trkpt lat="34.01528" lon="7.9840583"><ele>-19.0</ele><time>2026-04-23T14:35:58.332Z</time></trkpt><trkpt lat="34.0152217" lon="7.9841717"><ele>-19.0</ele><time>2026-04-23T14:35:59.331Z</time></trkpt><trkpt lat="34.015155" lon="7.9842883"><ele>-19.0</ele><time>2026-04-23T14:36:00.331Z</time></trkpt><trkpt lat="34.015095" lon="7.9844117"><ele>-19.0</ele><time>2026-04-23T14:36:01.332Z</time></trkpt><trkpt lat="34.0150333" lon="7.9845367"><ele>-19.0</ele><time>2026-04-23T14:36:02.331Z</time></trkpt><trkpt lat="34.0149667" lon="7.9846583"><ele>-19.0</ele><time>2026-04-23T14:36:03.331Z</time></trkpt><trkpt lat="34.0149033" lon="7.98479"><ele>-19.0</ele><time>2026-04-23T14:36:04.331Z</time></trkpt><trkpt lat="34.0148333" lon="7.9849133"><ele>-18.0</ele><time>2026-04-23T14:36:05.331Z</time></trkpt><trkpt lat="34.014765" lon="7.9850417"><ele>-17.0</ele><time>2026-04-23T14:36:06.331Z</time></trkpt><trkpt lat="34.0147017" lon="7.98517"><ele>-16.0</ele><time>2026-04-23T14:36:07.332Z</time></trkpt><trkpt lat="34.0146317" lon="7.9853"><ele>-15.0</ele><time>2026-04-23T14:36:08.332Z</time></trkpt><trkpt lat="34.0145533" lon="7.9854217"><ele>-15.0</ele><time>2026-04-23T14:36:09.332Z</time></trkpt><trkpt lat="34.0144817" lon="7.9855483"><ele>-15.0</ele><time>2026-04-23T14:36:10.332Z</time></trkpt><trkpt lat="34.0144133" lon="7.9856733"><ele>-15.0</ele><time>2026-04-23T14:36:11.331Z</time></trkpt><trkpt lat="34.01435" lon="7.9857917"><ele>-15.0</ele><time>2026-04-23T14:36:12.331Z</time></trkpt><trkpt lat="34.0142817" lon="7.9859067"><ele>-15.0</ele><time>2026-04-23T14:36:13.332Z</time></trkpt><trkpt lat="34.014215" lon="7.9860133"><ele>-15.0</ele><time>2026-04-23T14:36:14.331Z</time></trkpt><trkpt lat="34.01414" lon="7.9861233"><ele>-15.0</ele><time>2026-04-23T14:36:15.332Z</time></trkpt><trkpt lat="34.014065" lon="7.986225"><ele>-15.0</ele><time>2026-04-23T14:36:16.331Z</time></trkpt><trkpt lat="34.0139833" lon="7.986315"><ele>-15.25</ele><time>2026-04-23T14:36:17.331Z</time></trkpt><trkpt lat="34.0138817" lon="7.9864017"><ele>-15.5</ele><time>2026-04-23T14:36:18.331Z</time></trkpt><trkpt lat="34.0137883" lon="7.9864833"><ele>-15.75</ele><time>2026-04-23T14:36:19.331Z</time></trkpt><trkpt lat="34.0136967" lon="7.98656"><ele>-16.0</ele><time>2026-04-23T14:36:20.331Z</time></trkpt><trkpt lat="34.0135967" lon="7.98663"><ele>-16.25</ele><time>2026-04-23T14:36:21.332Z</time></trkpt><trkpt lat="34.0135083" lon="7.9867017"><ele>-16.5</ele><time>2026-04-23T14:36:22.331Z</time></trkpt><trkpt lat="34.0134217" lon="7.9867883"><ele>-16.75</ele><time>2026-04-23T14:36:23.332Z</time></trkpt><trkpt lat="34.0133383" lon="7.986885"><ele>-17.0</ele><time>2026-04-23T14:36:24.332Z</time></trkpt><trkpt lat="34.01326" lon="7.9869867"><ele>-16.6</ele><time>2026-04-23T14:36:25.331Z</time></trkpt><trkpt lat="34.0131833" lon="7.9870933"><ele>-16.2</ele><time>2026-04-23T14:36:26.331Z</time></trkpt><trkpt lat="34.0131067" lon="7.9872017"><ele>-15.8</ele><time>2026-04-23T14:36:27.331Z</time></trkpt><trkpt lat="34.0130417" lon="7.987315"><ele>-15.4</ele><time>2026-04-23T14:36:28.331Z</time></trkpt><trkpt lat="34.012985" lon="7.9874117"><ele>-15.0</ele><time>2026-04-23T14:36:29.332Z</time></trkpt><trkpt lat="34.012935" lon="7.9874983"><ele>-15.166666666666666</ele><time>2026-04-23T14:36:30.332Z</time></trkpt><trkpt lat="34.012885" lon="7.98758"><ele>-15.333333333333332</ele><time>2026-04-23T14:36:31.331Z</time></trkpt><trkpt lat="34.0128367" lon="7.9876567"><ele>-15.5</ele><time>2026-04-23T14:36:32.331Z</time></trkpt><trkpt lat="34.0127883" lon="7.9877333"><ele>-15.666666666666666</ele><time>2026-04-23T14:36:33.331Z</time></trkpt><trkpt lat="34.01274" lon="7.9878167"><ele>-15.833333333333332</ele><time>2026-04-23T14:36:34.331Z</time></trkpt><trkpt lat="34.012695" lon="7.987905"><ele>-16.0</ele><time>2026-04-23T14:36:35.331Z</time></trkpt><trkpt lat="34.01265" lon="7.9880033"><ele>-16.0</ele><time>2026-04-23T14:36:36.332Z</time></trkpt><trkpt lat="34.0125967" lon="7.9881167"><ele>-16.0</ele><time>2026-04-23T14:36:37.332Z</time></trkpt><trkpt lat="34.0125583" lon="7.9882183"><ele>-16.0</ele><time>2026-04-23T14:36:38.331Z</time></trkpt><trkpt lat="34.01252" lon="7.9883267"><ele>-16.0</ele><time>2026-04-23T14:36:39.331Z</time></trkpt><trkpt lat="34.0124867" lon="7.9884367"><ele>-16.0</ele><time>2026-04-23T14:36:40.331Z</time></trkpt><trkpt lat="34.0124483" lon="7.98855"><ele>-15.666666666666666</ele><time>2026-04-23T14:36:41.331Z</time></trkpt><trkpt lat="34.0124133" lon="7.98867"><ele>-15.333333333333332</ele><time>2026-04-23T14:36:42.332Z</time></trkpt><trkpt lat="34.01238" lon="7.98878"><ele>-15.0</ele><time>2026-04-23T14:36:43.332Z</time></trkpt><trkpt lat="34.0123583" lon="7.9888767"><ele>-14.666666666666668</ele><time>2026-04-23T14:36:44.331Z</time></trkpt><trkpt lat="34.0123417" lon="7.988955"><ele>-14.333333333333334</ele><time>2026-04-23T14:36:45.331Z</time></trkpt><trkpt lat="34.0123183" lon="7.98903"><ele>-14.0</ele><time>2026-04-23T14:36:46.331Z</time></trkpt><trkpt lat="34.0122733" lon="7.989145"><ele>-14.0</ele><time>2026-04-23T14:36:48.332Z</time></trkpt><trkpt lat="34.0122117" lon="7.9892583"><ele>-13.999999999999998</ele><time>2026-04-23T14:36:50.331Z</time></trkpt><trkpt lat="34.012115" lon="7.989355"><ele>-13.999999999999998</ele><time>2026-04-23T14:36:52.331Z</time></trkpt><trkpt lat="34.0120383" lon="7.9894033"><ele>-14.0</ele><time>2026-04-23T14:36:54.332Z</time></trkpt><trkpt lat="34.0119633" lon="7.9894217"><ele>-14.0</ele><time>2026-04-23T14:36:57.331Z</time></trkpt><trkpt lat="34.0118817" lon="7.98945"><ele>-14.000000000000002</ele><time>2026-04-23T14:37:00.331Z</time></trkpt><trkpt lat="34.01181" lon="7.9894817"><ele>-14.0</ele><time>2026-04-23T14:37:02.332Z</time></trkpt><trkpt lat="34.0117033" lon="7.989515"><ele>-14.0</ele><time>2026-04-23T14:37:04.331Z</time></trkpt><trkpt lat="34.01163" lon="7.9895367"><ele>-14.0</ele><time>2026-04-23T14:37:05.332Z</time></trkpt><trkpt lat="34.01154" lon="7.9895533"><ele>-14.000000000000002</ele><time>2026-04-23T14:37:06.331Z</time></trkpt><trkpt lat="34.0114483" lon="7.9895767"><ele>-14.0</ele><time>2026-04-23T14:37:07.331Z</time></trkpt><trkpt lat="34.0113533" lon="7.9895917"><ele>-14.2</ele><time>2026-04-23T14:37:08.331Z</time></trkpt><trkpt lat="34.0112567" lon="7.9896083"><ele>-14.399999999999999</ele><time>2026-04-23T14:37:09.331Z</time></trkpt><trkpt lat="34.0111517" lon="7.9896217"><ele>-14.6</ele><time>2026-04-23T14:37:10.332Z</time></trkpt><trkpt lat="34.01105" lon="7.9896433"><ele>-14.8</ele><time>2026-04-23T14:37:11.331Z</time></trkpt><trkpt lat="34.01096" lon="7.989655"><ele>-15.0</ele><time>2026-04-23T14:37:12.331Z</time></trkpt><trkpt lat="34.010875" lon="7.98968"><ele>-14.166666666666666</ele><time>2026-04-23T14:37:13.332Z</time></trkpt><trkpt lat="34.010805" lon="7.9897033"><ele>-13.333333333333334</ele><time>2026-04-23T14:37:14.332Z</time></trkpt><trkpt lat="34.0107317" lon="7.9897217"><ele>-12.5</ele><time>2026-04-23T14:37:15.331Z</time></trkpt><trkpt lat="34.0106567" lon="7.98974"><ele>-11.666666666666668</ele><time>2026-04-23T14:37:16.332Z</time></trkpt><trkpt lat="34.0105933" lon="7.9897517"><ele>-10.833333333333334</ele><time>2026-04-23T14:37:17.332Z</time></trkpt><trkpt lat="34.01049" lon="7.989775"><ele>-10.0</ele><time>2026-04-23T14:37:19.332Z</time></trkpt><trkpt lat="34.010425" lon="7.9898017"><ele>-10.0</ele><time>2026-04-23T14:37:21.331Z</time></trkpt><trkpt lat="34.0103483" lon="7.98984"><ele>-10.0</ele><time>2026-04-23T14:37:47.331Z</time></trkpt><trkpt lat="34.0102933" lon="7.9899"><ele>-10.0</ele><time>2026-04-23T14:37:49.331Z</time></trkpt><trkpt lat="34.0102617" lon="7.989975"><ele>-10.0</ele><time>2026-04-23T14:42:04.33Z</time></trkpt><trkpt lat="34.010325" lon="7.9899667"><ele>-10.0</ele><time>2026-04-23T14:42:07.33Z</time></trkpt><trkpt lat="34.010385" lon="7.9898883"><ele>-10.0</ele><time>2026-04-23T14:42:09.329Z</time></trkpt><trkpt lat="34.0104567" lon="7.9897917"><ele>-10.0</ele><time>2026-04-23T14:42:11.329Z</time></trkpt><trkpt lat="34.0105483" lon="7.9897333"><ele>-10.0</ele><time>2026-04-23T14:42:13.329Z</time></trkpt><trkpt lat="34.0106833" lon="7.9897083"><ele>-10.0</ele><time>2026-04-23T14:42:15.33Z</time></trkpt><trkpt lat="34.0107617" lon="7.9897017"><ele>-10.0</ele><time>2026-04-23T14:42:16.329Z</time></trkpt><trkpt lat="34.0108417" lon="7.989685"><ele>-10.0</ele><time>2026-04-23T14:42:17.329Z</time></trkpt><trkpt lat="34.0109383" lon="7.9896617"><ele>-11.0</ele><time>2026-04-23T14:42:18.329Z</time></trkpt><trkpt lat="34.01104" lon="7.9896383"><ele>-12.0</ele><time>2026-04-23T14:42:19.33Z</time></trkpt><trkpt lat="34.0111383" lon="7.98962"><ele>-13.0</ele><time>2026-04-23T14:42:20.329Z</time></trkpt><trkpt lat="34.0112383" lon="7.9896033"><ele>-14.0</ele><time>2026-04-23T14:42:21.329Z</time></trkpt><trkpt lat="34.0113383" lon="7.989585"><ele>-15.0</ele><time>2026-04-23T14:42:22.33Z</time></trkpt><trkpt lat="34.0114367" lon="7.9895633"><ele>-15.0</ele><time>2026-04-23T14:42:23.329Z</time></trkpt><trkpt lat="34.0115317" lon="7.98954"><ele>-15.0</ele><time>2026-04-23T14:42:24.329Z</time></trkpt><trkpt lat="34.0116283" lon="7.9895167"><ele>-15.0</ele><time>2026-04-23T14:42:25.33Z</time></trkpt><trkpt lat="34.0117283" lon="7.989485"><ele>-15.0</ele><time>2026-04-23T14:42:26.329Z</time></trkpt><trkpt lat="34.011825" lon="7.9894567"><ele>-15.0</ele><time>2026-04-23T14:42:27.329Z</time></trkpt><trkpt lat="34.0119133" lon="7.989425"><ele>-14.833333333333334</ele><time>2026-04-23T14:42:28.33Z</time></trkpt><trkpt lat="34.0119817" lon="7.989395"><ele>-14.666666666666668</ele><time>2026-04-23T14:42:29.329Z</time></trkpt><trkpt lat="34.0120433" lon="7.9893633"><ele>-14.5</ele><time>2026-04-23T14:42:30.329Z</time></trkpt><trkpt lat="34.012125" lon="7.9893283"><ele>-14.333333333333334</ele><time>2026-04-23T14:42:32.329Z</time></trkpt><trkpt lat="34.0121883" lon="7.98937"><ele>-14.166666666666668</ele><time>2026-04-23T14:42:36.329Z</time></trkpt><trkpt lat="34.0122433" lon="7.9894433"><ele>-14.0</ele><time>2026-04-23T14:42:39.33Z</time></trkpt><trkpt lat="34.0122367" lon="7.9895583"><ele>-14.0</ele><time>2026-04-23T14:42:42.329Z</time></trkpt><trkpt lat="34.012215" lon="7.98968"><ele>-13.999999999999998</ele><time>2026-04-23T14:42:44.329Z</time></trkpt><trkpt lat="34.0121633" lon="7.98982"><ele>-13.999999999999998</ele><time>2026-04-23T14:42:46.329Z</time></trkpt><trkpt lat="34.01214" lon="7.9899017"><ele>-14.0</ele><time>2026-04-23T14:42:47.329Z</time></trkpt><trkpt lat="34.0121217" lon="7.9899883"><ele>-14.0</ele><time>2026-04-23T14:42:48.329Z</time></trkpt><trkpt lat="34.0120983" lon="7.990085"><ele>-14.333333333333334</ele><time>2026-04-23T14:42:49.329Z</time></trkpt><trkpt lat="34.0120667" lon="7.990175"><ele>-14.666666666666668</ele><time>2026-04-23T14:42:50.33Z</time></trkpt><trkpt lat="34.01204" lon="7.9902633"><ele>-15.0</ele><time>2026-04-23T14:42:51.329Z</time></trkpt><trkpt lat="34.012015" lon="7.9903617"><ele>-15.333333333333332</ele><time>2026-04-23T14:42:52.329Z</time></trkpt><trkpt lat="34.0119933" lon="7.9904583"><ele>-15.666666666666666</ele><time>2026-04-23T14:42:53.33Z</time></trkpt><trkpt lat="34.0119633" lon="7.9905583"><ele>-16.0</ele><time>2026-04-23T14:42:54.33Z</time></trkpt><trkpt lat="34.011935" lon="7.9906583"><ele>-16.0</ele><time>2026-04-23T14:42:55.329Z</time></trkpt><trkpt lat="34.0119083" lon="7.990765"><ele>-16.0</ele><time>2026-04-23T14:42:56.329Z</time></trkpt><trkpt lat="34.011885" lon="7.9908767"><ele>-16.0</ele><time>2026-04-23T14:42:57.329Z</time></trkpt><trkpt lat="34.0118533" lon="7.99099"><ele>-16.0</ele><time>2026-04-23T14:42:58.329Z</time></trkpt><trkpt lat="34.011825" lon="7.99111"><ele>-16.0</ele><time>2026-04-23T14:42:59.329Z</time></trkpt><trkpt lat="34.0117967" lon="7.9912317"><ele>-16.0</ele><time>2026-04-23T14:43:00.329Z</time></trkpt><trkpt lat="34.0117667" lon="7.991355"><ele>-16.0</ele><time>2026-04-23T14:43:01.329Z</time></trkpt><trkpt lat="34.011735" lon="7.991475"><ele>-16.0</ele><time>2026-04-23T14:43:02.329Z</time></trkpt><trkpt lat="34.0117067" lon="7.9916067"><ele>-16.0</ele><time>2026-04-23T14:43:03.329Z</time></trkpt><trkpt lat="34.01168" lon="7.991735"><ele>-16.0</ele><time>2026-04-23T14:43:04.33Z</time></trkpt><trkpt lat="34.01165" lon="7.9918617"><ele>-15.0</ele><time>2026-04-23T14:43:05.329Z</time></trkpt><trkpt lat="34.01162" lon="7.9919967"><ele>-14.0</ele><time>2026-04-23T14:43:06.33Z</time></trkpt><trkpt lat="34.0115933" lon="7.9921467"><ele>-13.0</ele><time>2026-04-23T14:43:07.329Z</time></trkpt><trkpt lat="34.011565" lon="7.9922867"><ele>-12.0</ele><time>2026-04-23T14:43:08.329Z</time></trkpt><trkpt lat="34.011535" lon="7.992425"><ele>-11.75</ele><time>2026-04-23T14:43:09.33Z</time></trkpt><trkpt lat="34.011505" lon="7.9925683"><ele>-11.5</ele><time>2026-04-23T14:43:10.33Z</time></trkpt><trkpt lat="34.01148" lon="7.9927033"><ele>-11.25</ele><time>2026-04-23T14:43:11.329Z</time></trkpt><trkpt lat="34.011455" lon="7.99284"><ele>-11.0</ele><time>2026-04-23T14:43:12.33Z</time></trkpt><trkpt lat="34.0114317" lon="7.9929717"><ele>-11.0</ele><time>2026-04-23T14:43:13.328Z</time></trkpt><trkpt lat="34.0114083" lon="7.9931067"><ele>-11.0</ele><time>2026-04-23T14:43:14.329Z</time></trkpt><trkpt lat="34.0113817" lon="7.993245"><ele>-11.0</ele><time>2026-04-23T14:43:15.329Z</time></trkpt><trkpt lat="34.0113533" lon="7.9933833"><ele>-11.0</ele><time>2026-04-23T14:43:16.329Z</time></trkpt><trkpt lat="34.011325" lon="7.9935233"><ele>-11.25</ele><time>2026-04-23T14:43:17.328Z</time></trkpt><trkpt lat="34.0112933" lon="7.99366"><ele>-11.5</ele><time>2026-04-23T14:43:18.328Z</time></trkpt><trkpt lat="34.0112617" lon="7.9937967"><ele>-11.75</ele><time>2026-04-23T14:43:19.328Z</time></trkpt><trkpt lat="34.0112267" lon="7.9939267"><ele>-12.0</ele><time>2026-04-23T14:43:20.329Z</time></trkpt><trkpt lat="34.0112033" lon="7.9940533"><ele>-13.0</ele><time>2026-04-23T14:43:21.328Z</time></trkpt><trkpt lat="34.0111767" lon="7.9941917"><ele>-14.0</ele><time>2026-04-23T14:43:22.329Z</time></trkpt><trkpt lat="34.01115" lon="7.9943283"><ele>-15.0</ele><time>2026-04-23T14:43:23.329Z</time></trkpt><trkpt lat="34.0111183" lon="7.9944617"><ele>-16.0</ele><time>2026-04-23T14:43:24.328Z</time></trkpt><trkpt lat="34.0110967" lon="7.9946"><ele>-16.0</ele><time>2026-04-23T14:43:25.328Z</time></trkpt><trkpt lat="34.011075" lon="7.9947367"><ele>-16.0</ele><time>2026-04-23T14:43:26.328Z</time></trkpt><trkpt lat="34.01105" lon="7.994875"><ele>-16.0</ele><time>2026-04-23T14:43:27.329Z</time></trkpt><trkpt lat="34.0110217" lon="7.995005"><ele>-16.0</ele><time>2026-04-23T14:43:28.329Z</time></trkpt><trkpt lat="34.010995" lon="7.9951367"><ele>-16.0</ele><time>2026-04-23T14:43:29.329Z</time></trkpt><trkpt lat="34.0109733" lon="7.9952617"><ele>-16.0</ele><time>2026-04-23T14:43:30.329Z</time></trkpt><trkpt lat="34.010945" lon="7.995395"><ele>-16.0</ele><time>2026-04-23T14:43:31.329Z</time></trkpt><trkpt lat="34.0109183" lon="7.9955267"><ele>-16.0</ele><time>2026-04-23T14:43:32.328Z</time></trkpt><trkpt lat="34.0108883" lon="7.99566"><ele>-16.0</ele><time>2026-04-23T14:43:33.328Z</time></trkpt><trkpt lat="34.010865" lon="7.9957933"><ele>-16.0</ele><time>2026-04-23T14:43:34.329Z</time></trkpt><trkpt lat="34.010845" lon="7.9959267"><ele>-16.0</ele><time>2026-04-23T14:43:35.328Z</time></trkpt><trkpt lat="34.0108317" lon="7.9960583"><ele>-16.0</ele><time>2026-04-23T14:43:36.329Z</time></trkpt><trkpt lat="34.0108083" lon="7.99619"><ele>-16.0</ele><time>2026-04-23T14:43:37.329Z</time></trkpt><trkpt lat="34.010785" lon="7.9963267"><ele>-15.8</ele><time>2026-04-23T14:43:38.329Z</time></trkpt><trkpt lat="34.010755" lon="7.9964583"><ele>-15.600000000000001</ele><time>2026-04-23T14:43:39.328Z</time></trkpt><trkpt lat="34.0107367" lon="7.9965833"><ele>-15.4</ele><time>2026-04-23T14:43:40.329Z</time></trkpt><trkpt lat="34.01072" lon="7.996715"><ele>-15.2</ele><time>2026-04-23T14:43:41.329Z</time></trkpt><trkpt lat="34.0107017" lon="7.9968583"><ele>-15.0</ele><time>2026-04-23T14:43:42.328Z</time></trkpt><trkpt lat="34.0106933" lon="7.996995"><ele>-15.0</ele><time>2026-04-23T14:43:43.328Z</time></trkpt><trkpt lat="34.0106833" lon="7.9971283"><ele>-15.0</ele><time>2026-04-23T14:43:44.328Z</time></trkpt><trkpt lat="34.0106833" lon="7.997265"><ele>-15.0</ele><time>2026-04-23T14:43:45.329Z</time></trkpt><trkpt lat="34.0106867" lon="7.9974017"><ele>-15.0</ele><time>2026-04-23T14:43:46.328Z</time></trkpt><trkpt lat="34.0106933" lon="7.9975333"><ele>-15.0</ele><time>2026-04-23T14:43:47.328Z</time></trkpt><trkpt lat="34.0107" lon="7.99767"><ele>-15.0</ele><time>2026-04-23T14:43:48.328Z</time></trkpt><trkpt lat="34.010705" lon="7.997815"><ele>-15.0</ele><time>2026-04-23T14:43:49.329Z</time></trkpt><trkpt lat="34.0107133" lon="7.9979483"><ele>-15.0</ele><time>2026-04-23T14:43:50.328Z</time></trkpt><trkpt lat="34.010715" lon="7.9980833"><ele>-15.0</ele><time>2026-04-23T14:43:51.329Z</time></trkpt><trkpt lat="34.010715" lon="7.9982167"><ele>-15.25</ele><time>2026-04-23T14:43:52.328Z</time></trkpt><trkpt lat="34.0107133" lon="7.9983533"><ele>-15.5</ele><time>2026-04-23T14:43:53.328Z</time></trkpt><trkpt lat="34.010705" lon="7.99849"><ele>-15.75</ele><time>2026-04-23T14:43:54.329Z</time></trkpt><trkpt lat="34.0106933" lon="7.9986267"><ele>-16.0</ele><time>2026-04-23T14:43:55.329Z</time></trkpt><trkpt lat="34.010685" lon="7.9987583"><ele>-16.0</ele><time>2026-04-23T14:43:56.328Z</time></trkpt><trkpt lat="34.0106783" lon="7.9988983"><ele>-16.0</ele><time>2026-04-23T14:43:57.329Z</time></trkpt><trkpt lat="34.0106733" lon="7.9990333"><ele>-16.0</ele><time>2026-04-23T14:43:58.329Z</time></trkpt><trkpt lat="34.01067" lon="7.9991683"><ele>-16.0</ele><time>2026-04-23T14:43:59.328Z</time></trkpt><trkpt lat="34.01066" lon="7.9993117"><ele>-15.8</ele><time>2026-04-23T14:44:00.329Z</time></trkpt><trkpt lat="34.0106567" lon="7.9994483"><ele>-15.600000000000001</ele><time>2026-04-23T14:44:01.328Z</time></trkpt><trkpt lat="34.0106483" lon="7.9995783"><ele>-15.4</ele><time>2026-04-23T14:44:02.329Z</time></trkpt><trkpt lat="34.01064" lon="7.9997133"><ele>-15.2</ele><time>2026-04-23T14:44:03.328Z</time></trkpt><trkpt lat="34.0106283" lon="7.9998517"><ele>-15.0</ele><time>2026-04-23T14:44:04.329Z</time></trkpt><trkpt lat="34.0106167" lon="7.99999"><ele>-15.0</ele><time>2026-04-23T14:44:05.329Z</time></trkpt><trkpt lat="34.010615" lon="8.000125"><ele>-15.0</ele><time>2026-04-23T14:44:06.328Z</time></trkpt><trkpt lat="34.0106133" lon="8.0002617"><ele>-15.0</ele><time>2026-04-23T14:44:07.328Z</time></trkpt><trkpt lat="34.01062" lon="8.0003967"><ele>-15.0</ele><time>2026-04-23T14:44:08.328Z</time></trkpt><trkpt lat="34.01063" lon="8.0005367"><ele>-15.0</ele><time>2026-04-23T14:44:09.328Z</time></trkpt><trkpt lat="34.010635" lon="8.00067"><ele>-15.0</ele><time>2026-04-23T14:44:10.328Z</time></trkpt><trkpt lat="34.0106433" lon="8.0008033"><ele>-15.0</ele><time>2026-04-23T14:44:11.328Z</time></trkpt><trkpt lat="34.0106483" lon="8.00094"><ele>-15.0</ele><time>2026-04-23T14:44:12.329Z</time></trkpt><trkpt lat="34.0106517" lon="8.0010883"><ele>-15.0</ele><time>2026-04-23T14:44:13.328Z</time></trkpt><trkpt lat="34.0106617" lon="8.0012433"><ele>-15.0</ele><time>2026-04-23T14:44:14.329Z</time></trkpt><trkpt lat="34.0106667" lon="8.001395"><ele>-15.0</ele><time>2026-04-23T14:44:15.329Z</time></trkpt><trkpt lat="34.0106717" lon="8.0015467"><ele>-15.0</ele><time>2026-04-23T14:44:16.329Z</time></trkpt><trkpt lat="34.0106817" lon="8.00169"><ele>-15.0</ele><time>2026-04-23T14:44:17.328Z</time></trkpt><trkpt lat="34.0106967" lon="8.0018367"><ele>-15.0</ele><time>2026-04-23T14:44:18.329Z</time></trkpt><trkpt lat="34.0107183" lon="8.0019733"><ele>-15.0</ele><time>2026-04-23T14:44:19.329Z</time></trkpt><trkpt lat="34.0107317" lon="8.0021117"><ele>-15.0</ele><time>2026-04-23T14:44:20.328Z</time></trkpt><trkpt lat="34.01075" lon="8.0022517"><ele>-15.0</ele><time>2026-04-23T14:44:21.328Z</time></trkpt><trkpt lat="34.0107717" lon="8.002395"><ele>-15.0</ele><time>2026-04-23T14:44:22.328Z</time></trkpt><trkpt lat="34.0107933" lon="8.0025283"><ele>-15.0</ele><time>2026-04-23T14:44:23.328Z</time></trkpt><trkpt lat="34.0108083" lon="8.002665"><ele>-15.0</ele><time>2026-04-23T14:44:24.328Z</time></trkpt><trkpt lat="34.01082" lon="8.0027967"><ele>-14.75</ele><time>2026-04-23T14:44:25.328Z</time></trkpt><trkpt lat="34.010835" lon="8.002935"><ele>-14.5</ele><time>2026-04-23T14:44:26.329Z</time></trkpt><trkpt lat="34.01085" lon="8.0030667"><ele>-14.25</ele><time>2026-04-23T14:44:27.328Z</time></trkpt><trkpt lat="34.010865" lon="8.0032033"><ele>-14.0</ele><time>2026-04-23T14:44:28.329Z</time></trkpt><trkpt lat="34.0108867" lon="8.0033483"><ele>-14.0</ele><time>2026-04-23T14:44:29.328Z</time></trkpt><trkpt lat="34.0109083" lon="8.0034917"><ele>-14.0</ele><time>2026-04-23T14:44:30.328Z</time></trkpt><trkpt lat="34.0109283" lon="8.0036317"><ele>-14.0</ele><time>2026-04-23T14:44:31.329Z</time></trkpt><trkpt lat="34.0109517" lon="8.003775"><ele>-14.0</ele><time>2026-04-23T14:44:32.329Z</time></trkpt><trkpt lat="34.0109733" lon="8.0039267"><ele>-14.0</ele><time>2026-04-23T14:44:33.328Z</time></trkpt><trkpt lat="34.01099" lon="8.0040733"><ele>-14.0</ele><time>2026-04-23T14:44:34.328Z</time></trkpt><trkpt lat="34.011" lon="8.0042117"><ele>-14.0</ele><time>2026-04-23T14:44:35.328Z</time></trkpt><trkpt lat="34.0110067" lon="8.0043517"><ele>-14.0</ele><time>2026-04-23T14:44:36.328Z</time></trkpt><trkpt lat="34.0110133" lon="8.0044917"><ele>-14.25</ele><time>2026-04-23T14:44:37.328Z</time></trkpt><trkpt lat="34.0110317" lon="8.0046333"><ele>-14.5</ele><time>2026-04-23T14:44:38.328Z</time></trkpt><trkpt lat="34.011045" lon="8.00478"><ele>-14.75</ele><time>2026-04-23T14:44:39.329Z</time></trkpt><trkpt lat="34.0110567" lon="8.0049267"><ele>-15.0</ele><time>2026-04-23T14:44:40.328Z</time></trkpt><trkpt lat="34.011075" lon="8.0050717"><ele>-15.0</ele><time>2026-04-23T14:44:41.329Z</time></trkpt><trkpt lat="34.0110883" lon="8.0052183"><ele>-15.0</ele><time>2026-04-23T14:44:42.329Z</time></trkpt><trkpt lat="34.0111033" lon="8.0053617"><ele>-15.0</ele><time>2026-04-23T14:44:43.329Z</time></trkpt><trkpt lat="34.0111133" lon="8.005505"><ele>-15.0</ele><time>2026-04-23T14:44:44.328Z</time></trkpt><trkpt lat="34.0111283" lon="8.005655"><ele>-15.0</ele><time>2026-04-23T14:44:45.328Z</time></trkpt><trkpt lat="34.0111367" lon="8.0058017"><ele>-15.0</ele><time>2026-04-23T14:44:46.329Z</time></trkpt><trkpt lat="34.01114" lon="8.0059467"><ele>-15.0</ele><time>2026-04-23T14:44:47.329Z</time></trkpt><trkpt lat="34.01115" lon="8.006095"><ele>-15.0</ele><time>2026-04-23T14:44:48.328Z</time></trkpt><trkpt lat="34.0111583" lon="8.00624"><ele>-15.25</ele><time>2026-04-23T14:44:49.328Z</time></trkpt><trkpt lat="34.0111667" lon="8.0063817"><ele>-15.5</ele><time>2026-04-23T14:44:50.329Z</time></trkpt><trkpt lat="34.0111683" lon="8.006525"><ele>-15.75</ele><time>2026-04-23T14:44:51.329Z</time></trkpt><trkpt lat="34.0111733" lon="8.0066783"><ele>-16.0</ele><time>2026-04-23T14:44:52.329Z</time></trkpt><trkpt lat="34.0111733" lon="8.0068283"><ele>-16.25</ele><time>2026-04-23T14:44:53.329Z</time></trkpt><trkpt lat="34.0111717" lon="8.0069817"><ele>-16.5</ele><time>2026-04-23T14:44:54.329Z</time></trkpt><trkpt lat="34.0111767" lon="8.007135"><ele>-16.75</ele><time>2026-04-23T14:44:55.329Z</time></trkpt><trkpt lat="34.01117" lon="8.0072867"><ele>-17.0</ele><time>2026-04-23T14:44:56.329Z</time></trkpt><trkpt lat="34.01117" lon="8.0074317"><ele>-16.5</ele><time>2026-04-23T14:44:57.329Z</time></trkpt><trkpt lat="34.0111567" lon="8.00759"><ele>-16.0</ele><time>2026-04-23T14:44:58.329Z</time></trkpt><trkpt lat="34.0111433" lon="8.00774"><ele>-15.5</ele><time>2026-04-23T14:44:59.329Z</time></trkpt><trkpt lat="34.0111283" lon="8.00789"><ele>-15.0</ele><time>2026-04-23T14:45:00.328Z</time></trkpt><trkpt lat="34.0111217" lon="8.00804"><ele>-15.0</ele><time>2026-04-23T14:45:01.328Z</time></trkpt><trkpt lat="34.0111217" lon="8.0081967"><ele>-15.0</ele><time>2026-04-23T14:45:02.329Z</time></trkpt><trkpt lat="34.01112" lon="8.0083617"><ele>-15.0</ele><time>2026-04-23T14:45:03.329Z</time></trkpt><trkpt lat="34.011115" lon="8.0085267"><ele>-15.0</ele><time>2026-04-23T14:45:04.328Z</time></trkpt><trkpt lat="34.0111167" lon="8.0086883"><ele>-15.0</ele><time>2026-04-23T14:45:05.329Z</time></trkpt><trkpt lat="34.0111167" lon="8.008855"><ele>-15.0</ele><time>2026-04-23T14:45:06.328Z</time></trkpt><trkpt lat="34.0111133" lon="8.00903"><ele>-15.0</ele><time>2026-04-23T14:45:07.328Z</time></trkpt><trkpt lat="34.0111217" lon="8.009205"><ele>-15.0</ele><time>2026-04-23T14:45:08.328Z</time></trkpt><trkpt lat="34.011135" lon="8.0093833"><ele>-14.75</ele><time>2026-04-23T14:45:09.329Z</time></trkpt><trkpt lat="34.0111417" lon="8.00956"><ele>-14.5</ele><time>2026-04-23T14:45:10.329Z</time></trkpt><trkpt lat="34.01115" lon="8.00974"><ele>-14.25</ele><time>2026-04-23T14:45:11.329Z</time></trkpt><trkpt lat="34.01116" lon="8.0099183"><ele>-14.0</ele><time>2026-04-23T14:45:12.329Z</time></trkpt><trkpt lat="34.011175" lon="8.0101017"><ele>-13.333333333333334</ele><time>2026-04-23T14:45:13.328Z</time></trkpt><trkpt lat="34.0111967" lon="8.0102833"><ele>-12.666666666666668</ele><time>2026-04-23T14:45:14.329Z</time></trkpt><trkpt lat="34.0112217" lon="8.0104733"><ele>-12.0</ele><time>2026-04-23T14:45:15.329Z</time></trkpt><trkpt lat="34.01125" lon="8.010665"><ele>-12.0</ele><time>2026-04-23T14:45:16.328Z</time></trkpt><trkpt lat="34.0112817" lon="8.0108617"><ele>-12.0</ele><time>2026-04-23T14:45:17.328Z</time></trkpt><trkpt lat="34.0113117" lon="8.011055"><ele>-12.0</ele><time>2026-04-23T14:45:18.329Z</time></trkpt><trkpt lat="34.0113417" lon="8.0112433"><ele>-12.0</ele><time>2026-04-23T14:45:19.329Z</time></trkpt><trkpt lat="34.0113683" lon="8.0114167"><ele>-12.0</ele><time>2026-04-23T14:45:20.329Z</time></trkpt><trkpt lat="34.011385" lon="8.0115867"><ele>-12.0</ele><time>2026-04-23T14:45:21.328Z</time></trkpt><trkpt lat="34.0114" lon="8.0117583"><ele>-12.0</ele><time>2026-04-23T14:45:22.329Z</time></trkpt><trkpt lat="34.0114183" lon="8.011915"><ele>-12.0</ele><time>2026-04-23T14:45:23.328Z</time></trkpt><trkpt lat="34.0114367" lon="8.0120767"><ele>-12.0</ele><time>2026-04-23T14:45:24.328Z</time></trkpt><trkpt lat="34.0114533" lon="8.0122383"><ele>-12.0</ele><time>2026-04-23T14:45:25.328Z</time></trkpt><trkpt lat="34.0114767" lon="8.0123967"><ele>-12.0</ele><time>2026-04-23T14:45:26.328Z</time></trkpt><trkpt lat="34.0114983" lon="8.012555"><ele>-11.25</ele><time>2026-04-23T14:45:27.329Z</time></trkpt><trkpt lat="34.011525" lon="8.0127167"><ele>-10.5</ele><time>2026-04-23T14:45:28.329Z</time></trkpt><trkpt lat="34.0115483" lon="8.012865"><ele>-9.75</ele><time>2026-04-23T14:45:29.328Z</time></trkpt><trkpt lat="34.0115733" lon="8.0129967"><ele>-9.0</ele><time>2026-04-23T14:45:30.329Z</time></trkpt><trkpt lat="34.01159" lon="8.0131167"><ele>-9.0</ele><time>2026-04-23T14:45:31.328Z</time></trkpt><trkpt lat="34.0115917" lon="8.0132317"><ele>-9.0</ele><time>2026-04-23T14:45:32.329Z</time></trkpt><trkpt lat="34.011585" lon="8.0133567"><ele>-9.0</ele><time>2026-04-23T14:45:33.329Z</time></trkpt><trkpt lat="34.0115767" lon="8.013485"><ele>-9.0</ele><time>2026-04-23T14:45:34.328Z</time></trkpt><trkpt lat="34.0115633" lon="8.01361"><ele>-9.0</ele><time>2026-04-23T14:45:35.329Z</time></trkpt><trkpt lat="34.0115483" lon="8.0137383"><ele>-9.0</ele><time>2026-04-23T14:45:36.328Z</time></trkpt><trkpt lat="34.0115317" lon="8.0138683"><ele>-9.0</ele><time>2026-04-23T14:45:37.329Z</time></trkpt><trkpt lat="34.0115133" lon="8.0139967"><ele>-9.0</ele><time>2026-04-23T14:45:38.328Z</time></trkpt><trkpt lat="34.0114933" lon="8.0141233"><ele>-9.0</ele><time>2026-04-23T14:45:39.328Z</time></trkpt><trkpt lat="34.0114683" lon="8.014245"><ele>-9.0</ele><time>2026-04-23T14:45:40.329Z</time></trkpt><trkpt lat="34.01143" lon="8.0143683"><ele>-9.0</ele><time>2026-04-23T14:45:41.329Z</time></trkpt><trkpt lat="34.01139" lon="8.01449"><ele>-9.0</ele><time>2026-04-23T14:45:42.328Z</time></trkpt><trkpt lat="34.0113433" lon="8.014615"><ele>-9.0</ele><time>2026-04-23T14:45:43.328Z</time></trkpt><trkpt lat="34.0112967" lon="8.0147417"><ele>-9.0</ele><time>2026-04-23T14:45:44.328Z</time></trkpt><trkpt lat="34.011245" lon="8.01486"><ele>-9.0</ele><time>2026-04-23T14:45:45.329Z</time></trkpt><trkpt lat="34.0112017" lon="8.014975"><ele>-9.833333333333334</ele><time>2026-04-23T14:45:46.328Z</time></trkpt><trkpt lat="34.011165" lon="8.0150733"><ele>-10.666666666666668</ele><time>2026-04-23T14:45:47.329Z</time></trkpt><trkpt lat="34.0111367" lon="8.01516"><ele>-11.5</ele><time>2026-04-23T14:45:48.328Z</time></trkpt><trkpt lat="34.0110817" lon="8.0152167"><ele>-12.333333333333334</ele><time>2026-04-23T14:45:49.328Z</time></trkpt><trkpt lat="34.0110617" lon="8.0152967"><ele>-13.166666666666668</ele><time>2026-04-23T14:45:50.329Z</time></trkpt><trkpt lat="34.011035" lon="8.0153867"><ele>-14.0</ele><time>2026-04-23T14:45:52.328Z</time></trkpt><trkpt lat="34.0109983" lon="8.0154733"><ele>-14.000000000000002</ele><time>2026-04-23T14:45:59.329Z</time></trkpt><trkpt lat="34.0109617" lon="8.0155383"><ele>-14.0</ele><time>2026-04-23T14:46:00.328Z</time></trkpt><trkpt lat="34.0109267" lon="8.0156233"><ele>-14.0</ele><time>2026-04-23T14:46:01.328Z</time></trkpt><trkpt lat="34.0108817" lon="8.0157233"><ele>-14.0</ele><time>2026-04-23T14:46:02.328Z</time></trkpt><trkpt lat="34.0108367" lon="8.0158233"><ele>-14.000000000000002</ele><time>2026-04-23T14:46:03.328Z</time></trkpt><trkpt lat="34.0107883" lon="8.0159167"><ele>-14.0</ele><time>2026-04-23T14:46:04.329Z</time></trkpt><trkpt lat="34.0107333" lon="8.01601"><ele>-13.399999999999999</ele><time>2026-04-23T14:46:05.329Z</time></trkpt><trkpt lat="34.0106833" lon="8.0161083"><ele>-12.799999999999999</ele><time>2026-04-23T14:46:06.329Z</time></trkpt><trkpt lat="34.0106367" lon="8.0162133"><ele>-12.2</ele><time>2026-04-23T14:46:07.328Z</time></trkpt><trkpt lat="34.0105833" lon="8.0163283"><ele>-11.600000000000001</ele><time>2026-04-23T14:46:08.328Z</time></trkpt><trkpt lat="34.0105317" lon="8.016445"><ele>-11.0</ele><time>2026-04-23T14:46:09.328Z</time></trkpt><trkpt lat="34.0104767" lon="8.016555"><ele>-11.200000000000001</ele><time>2026-04-23T14:46:10.328Z</time></trkpt><trkpt lat="34.0104233" lon="8.0166717"><ele>-11.4</ele><time>2026-04-23T14:46:11.327Z</time></trkpt><trkpt lat="34.0103733" lon="8.016785"><ele>-11.6</ele><time>2026-04-23T14:46:12.327Z</time></trkpt><trkpt lat="34.0103283" lon="8.0169117"><ele>-11.8</ele><time>2026-04-23T14:46:13.327Z</time></trkpt><trkpt lat="34.0102817" lon="8.0170317"><ele>-12.0</ele><time>2026-04-23T14:46:14.327Z</time></trkpt><trkpt lat="34.0102333" lon="8.0171567"><ele>-12.0</ele><time>2026-04-23T14:46:15.327Z</time></trkpt><trkpt lat="34.0101883" lon="8.0172783"><ele>-12.0</ele><time>2026-04-23T14:46:16.327Z</time></trkpt><trkpt lat="34.0101367" lon="8.0174"><ele>-12.0</ele><time>2026-04-23T14:46:17.328Z</time></trkpt><trkpt lat="34.0100833" lon="8.0175167"><ele>-12.0</ele><time>2026-04-23T14:46:18.327Z</time></trkpt><trkpt lat="34.0100217" lon="8.0176433"><ele>-11.25</ele><time>2026-04-23T14:46:19.328Z</time></trkpt><trkpt lat="34.0099617" lon="8.0177617"><ele>-10.5</ele><time>2026-04-23T14:46:20.328Z</time></trkpt><trkpt lat="34.00991" lon="8.0178833"><ele>-9.75</ele><time>2026-04-23T14:46:21.327Z</time></trkpt><trkpt lat="34.0098517" lon="8.018"><ele>-9.0</ele><time>2026-04-23T14:46:22.328Z</time></trkpt><trkpt lat="34.0097983" lon="8.0181183"><ele>-9.0</ele><time>2026-04-23T14:46:23.328Z</time></trkpt><trkpt lat="34.009745" lon="8.01824"><ele>-9.0</ele><time>2026-04-23T14:46:24.327Z</time></trkpt><trkpt lat="34.0096983" lon="8.0183567"><ele>-9.0</ele><time>2026-04-23T14:46:25.328Z</time></trkpt><trkpt lat="34.0096517" lon="8.0184783"><ele>-9.0</ele><time>2026-04-23T14:46:26.327Z</time></trkpt><trkpt lat="34.0096033" lon="8.018605"><ele>-9.0</ele><time>2026-04-23T14:46:27.327Z</time></trkpt><trkpt lat="34.00956" lon="8.0187367"><ele>-9.5</ele><time>2026-04-23T14:46:28.328Z</time></trkpt><trkpt lat="34.00951" lon="8.018865"><ele>-10.0</ele><time>2026-04-23T14:46:29.328Z</time></trkpt><trkpt lat="34.0094683" lon="8.0189917"><ele>-10.5</ele><time>2026-04-23T14:46:30.328Z</time></trkpt><trkpt lat="34.0094183" lon="8.019125"><ele>-11.0</ele><time>2026-04-23T14:46:31.328Z</time></trkpt><trkpt lat="34.0093733" lon="8.0192633"><ele>-11.0</ele><time>2026-04-23T14:46:32.327Z</time></trkpt><trkpt lat="34.009325" lon="8.0194017"><ele>-11.0</ele><time>2026-04-23T14:46:33.328Z</time></trkpt><trkpt lat="34.0092817" lon="8.0195317"><ele>-11.0</ele><time>2026-04-23T14:46:34.328Z</time></trkpt><trkpt lat="34.0092383" lon="8.019665"><ele>-11.0</ele><time>2026-04-23T14:46:35.328Z</time></trkpt><trkpt lat="34.0091967" lon="8.019795"><ele>-10.75</ele><time>2026-04-23T14:46:36.327Z</time></trkpt><trkpt lat="34.0091517" lon="8.0199367"><ele>-10.5</ele><time>2026-04-23T14:46:37.327Z</time></trkpt><trkpt lat="34.0091017" lon="8.0200683"><ele>-10.25</ele><time>2026-04-23T14:46:38.328Z</time></trkpt><trkpt lat="34.00906" lon="8.0202067"><ele>-10.0</ele><time>2026-04-23T14:46:39.327Z</time></trkpt><trkpt lat="34.00903" lon="8.02035"><ele>-10.0</ele><time>2026-04-23T14:46:40.328Z</time></trkpt><trkpt lat="34.0090067" lon="8.020485"><ele>-10.0</ele><time>2026-04-23T14:46:41.328Z</time></trkpt><trkpt lat="34.0089767" lon="8.0206267"><ele>-10.0</ele><time>2026-04-23T14:46:42.328Z</time></trkpt><trkpt lat="34.0089633" lon="8.0207683"><ele>-10.0</ele><time>2026-04-23T14:46:43.327Z</time></trkpt><trkpt lat="34.0089567" lon="8.0209233"><ele>-10.2</ele><time>2026-04-23T14:46:44.327Z</time></trkpt><trkpt lat="34.0089567" lon="8.021065"><ele>-10.4</ele><time>2026-04-23T14:46:45.327Z</time></trkpt><trkpt lat="34.00895" lon="8.0211967"><ele>-10.600000000000001</ele><time>2026-04-23T14:46:46.327Z</time></trkpt><trkpt lat="34.008955" lon="8.021325"><ele>-10.8</ele><time>2026-04-23T14:46:47.327Z</time></trkpt><trkpt lat="34.00896" lon="8.02144"><ele>-11.0</ele><time>2026-04-23T14:46:48.327Z</time></trkpt><trkpt lat="34.00897" lon="8.0215533"><ele>-11.0</ele><time>2026-04-23T14:46:49.328Z</time></trkpt><trkpt lat="34.00898" lon="8.0216567"><ele>-11.0</ele><time>2026-04-23T14:46:50.327Z</time></trkpt><trkpt lat="34.00899" lon="8.0217717"><ele>-11.0</ele><time>2026-04-23T14:46:51.327Z</time></trkpt><trkpt lat="34.0089983" lon="8.0218833"><ele>-11.0</ele><time>2026-04-23T14:46:52.327Z</time></trkpt><trkpt lat="34.0090117" lon="8.022005"><ele>-11.0</ele><time>2026-04-23T14:46:53.327Z</time></trkpt><trkpt lat="34.00902" lon="8.0221283"><ele>-11.0</ele><time>2026-04-23T14:46:54.328Z</time></trkpt><trkpt lat="34.0090267" lon="8.0222467"><ele>-11.0</ele><time>2026-04-23T14:46:55.328Z</time></trkpt><trkpt lat="34.0090367" lon="8.02237"><ele>-11.0</ele><time>2026-04-23T14:46:56.328Z</time></trkpt><trkpt lat="34.009045" lon="8.0225"><ele>-11.0</ele><time>2026-04-23T14:46:57.327Z</time></trkpt><trkpt lat="34.0090533" lon="8.022635"><ele>-11.0</ele><time>2026-04-23T14:46:58.328Z</time></trkpt><trkpt lat="34.0090683" lon="8.0227633"><ele>-11.0</ele><time>2026-04-23T14:46:59.328Z</time></trkpt><trkpt lat="34.009085" lon="8.0228867"><ele>-11.0</ele><time>2026-04-23T14:47:00.327Z</time></trkpt><trkpt lat="34.0091033" lon="8.0229983"><ele>-11.0</ele><time>2026-04-23T14:47:01.328Z</time></trkpt><trkpt lat="34.0091233" lon="8.0230967"><ele>-11.0</ele><time>2026-04-23T14:47:02.328Z</time></trkpt><trkpt lat="34.0091417" lon="8.023185"><ele>-11.0</ele><time>2026-04-23T14:47:03.328Z</time></trkpt><trkpt lat="34.009165" lon="8.02326"><ele>-11.0</ele><time>2026-04-23T14:47:04.328Z</time></trkpt><trkpt lat="34.0092" lon="8.02338"><ele>-11.333333333333332</ele><time>2026-04-23T14:47:06.328Z</time></trkpt><trkpt lat="34.0092617" lon="8.02349"><ele>-11.666666666666666</ele><time>2026-04-23T14:47:08.328Z</time></trkpt><trkpt lat="34.009305" lon="8.0235517"><ele>-12.0</ele><time>2026-04-23T14:47:09.328Z</time></trkpt><trkpt lat="34.00935" lon="8.02362"><ele>-12.333333333333332</ele><time>2026-04-23T14:47:10.327Z</time></trkpt><trkpt lat="34.0094067" lon="8.0236933"><ele>-12.666666666666666</ele><time>2026-04-23T14:47:11.327Z</time></trkpt><trkpt lat="34.0094667" lon="8.0237683"><ele>-13.0</ele><time>2026-04-23T14:47:12.327Z</time></trkpt><trkpt lat="34.009525" lon="8.02385"><ele>-13.0</ele><time>2026-04-23T14:47:13.327Z</time></trkpt><trkpt lat="34.0095783" lon="8.02393"><ele>-13.0</ele><time>2026-04-23T14:47:14.328Z</time></trkpt><trkpt lat="34.0096317" lon="8.0240167"><ele>-13.0</ele><time>2026-04-23T14:47:15.327Z</time></trkpt><trkpt lat="34.009685" lon="8.0241133"><ele>-13.0</ele><time>2026-04-23T14:47:16.327Z</time></trkpt><trkpt lat="34.009735" lon="8.0242083"><ele>-13.0</ele><time>2026-04-23T14:47:17.327Z</time></trkpt><trkpt lat="34.0097883" lon="8.0243133"><ele>-12.8</ele><time>2026-04-23T14:47:18.327Z</time></trkpt><trkpt lat="34.0098367" lon="8.0244117"><ele>-12.600000000000001</ele><time>2026-04-23T14:47:19.328Z</time></trkpt><trkpt lat="34.009885" lon="8.024515"><ele>-12.399999999999999</ele><time>2026-04-23T14:47:20.327Z</time></trkpt><trkpt lat="34.0099333" lon="8.0246183"><ele>-12.2</ele><time>2026-04-23T14:47:21.327Z</time></trkpt><trkpt lat="34.0099833" lon="8.0247167"><ele>-12.0</ele><time>2026-04-23T14:47:22.328Z</time></trkpt><trkpt lat="34.0100267" lon="8.0248083"><ele>-12.333333333333334</ele><time>2026-04-23T14:47:23.327Z</time></trkpt><trkpt lat="34.0100667" lon="8.024905"><ele>-12.666666666666668</ele><time>2026-04-23T14:47:24.328Z</time></trkpt><trkpt lat="34.0101017" lon="8.0250033"><ele>-13.0</ele><time>2026-04-23T14:47:25.328Z</time></trkpt><trkpt lat="34.01014" lon="8.025105"><ele>-13.333333333333334</ele><time>2026-04-23T14:47:26.327Z</time></trkpt><trkpt lat="34.010175" lon="8.0252033"><ele>-13.666666666666668</ele><time>2026-04-23T14:47:27.327Z</time></trkpt><trkpt lat="34.0102067" lon="8.0253"><ele>-14.0</ele><time>2026-04-23T14:47:28.327Z</time></trkpt><trkpt lat="34.0102533" lon="8.0253967"><ele>-14.000000000000002</ele><time>2026-04-23T14:47:29.328Z</time></trkpt><trkpt lat="34.0103067" lon="8.0254817"><ele>-14.0</ele><time>2026-04-23T14:47:30.328Z</time></trkpt><trkpt lat="34.0103633" lon="8.02557"><ele>-14.0</ele><time>2026-04-23T14:47:31.328Z</time></trkpt><trkpt lat="34.0104183" lon="8.02565"><ele>-14.0</ele><time>2026-04-23T14:47:32.327Z</time></trkpt><trkpt lat="34.010465" lon="8.025735"><ele>-14.000000000000002</ele><time>2026-04-23T14:47:33.327Z</time></trkpt><trkpt lat="34.0105083" lon="8.025825"><ele>-14.0</ele><time>2026-04-23T14:47:34.328Z</time></trkpt><trkpt lat="34.0105417" lon="8.0259317"><ele>-14.0</ele><time>2026-04-23T14:47:35.328Z</time></trkpt><trkpt lat="34.010565" lon="8.0260433"><ele>-13.999999999999998</ele><time>2026-04-23T14:47:36.327Z</time></trkpt><trkpt lat="34.0105933" lon="8.026155"><ele>-13.999999999999998</ele><time>2026-04-23T14:47:37.328Z</time></trkpt><trkpt lat="34.0106267" lon="8.0262683"><ele>-14.0</ele><time>2026-04-23T14:47:38.327Z</time></trkpt><trkpt lat="34.01066" lon="8.026385"><ele>-14.0</ele><time>2026-04-23T14:47:39.328Z</time></trkpt><trkpt lat="34.010695" lon="8.0265033"><ele>-14.0</ele><time>2026-04-23T14:47:40.327Z</time></trkpt><trkpt lat="34.0107267" lon="8.0266217"><ele>-13.999999999999998</ele><time>2026-04-23T14:47:41.328Z</time></trkpt><trkpt lat="34.010765" lon="8.0267333"><ele>-13.999999999999998</ele><time>2026-04-23T14:47:42.327Z</time></trkpt><trkpt lat="34.0108017" lon="8.02684"><ele>-14.0</ele><time>2026-04-23T14:47:43.328Z</time></trkpt><trkpt lat="34.0108467" lon="8.026935"><ele>-14.0</ele><time>2026-04-23T14:47:44.328Z</time></trkpt><trkpt lat="34.0108867" lon="8.027035"><ele>-14.399999999999999</ele><time>2026-04-23T14:47:45.328Z</time></trkpt><trkpt lat="34.0109367" lon="8.0271417"><ele>-14.799999999999999</ele><time>2026-04-23T14:47:46.327Z</time></trkpt><trkpt lat="34.0109867" lon="8.0272483"><ele>-15.200000000000001</ele><time>2026-04-23T14:47:47.328Z</time></trkpt><trkpt lat="34.0110467" lon="8.0273417"><ele>-15.600000000000001</ele><time>2026-04-23T14:47:48.327Z</time></trkpt><trkpt lat="34.0111067" lon="8.0274417"><ele>-16.0</ele><time>2026-04-23T14:47:49.328Z</time></trkpt><trkpt lat="34.011165" lon="8.02754"><ele>-16.0</ele><time>2026-04-23T14:47:50.327Z</time></trkpt><trkpt lat="34.0112283" lon="8.027635"><ele>-16.0</ele><time>2026-04-23T14:47:51.327Z</time></trkpt><trkpt lat="34.0112967" lon="8.0277267"><ele>-16.0</ele><time>2026-04-23T14:47:52.328Z</time></trkpt><trkpt lat="34.0113717" lon="8.0278217"><ele>-16.0</ele><time>2026-04-23T14:47:53.328Z</time></trkpt><trkpt lat="34.0114517" lon="8.0279083"><ele>-16.0</ele><time>2026-04-23T14:47:54.328Z</time></trkpt><trkpt lat="34.011535" lon="8.0279867"><ele>-16.0</ele><time>2026-04-23T14:47:55.327Z</time></trkpt><trkpt lat="34.0116217" lon="8.0280683"><ele>-16.0</ele><time>2026-04-23T14:47:56.327Z</time></trkpt><trkpt lat="34.0117067" lon="8.02815"><ele>-16.0</ele><time>2026-04-23T14:47:57.327Z</time></trkpt><trkpt lat="34.0117883" lon="8.0282217"><ele>-16.0</ele><time>2026-04-23T14:47:58.327Z</time></trkpt><trkpt lat="34.01186" lon="8.0282967"><ele>-16.0</ele><time>2026-04-23T14:47:59.327Z</time></trkpt><trkpt lat="34.011925" lon="8.0283733"><ele>-16.6</ele><time>2026-04-23T14:48:00.327Z</time></trkpt><trkpt lat="34.0119833" lon="8.0284617"><ele>-17.200000000000003</ele><time>2026-04-23T14:48:01.328Z</time></trkpt><trkpt lat="34.0120417" lon="8.0285517"><ele>-17.799999999999997</ele><time>2026-04-23T14:48:02.327Z</time></trkpt><trkpt lat="34.0120983" lon="8.028655"><ele>-18.4</ele><time>2026-04-23T14:48:03.327Z</time></trkpt><trkpt lat="34.01216" lon="8.0287517"><ele>-19.0</ele><time>2026-04-23T14:48:04.328Z</time></trkpt><trkpt lat="34.0122133" lon="8.02885"><ele>-19.0</ele><time>2026-04-23T14:48:05.327Z</time></trkpt><trkpt lat="34.0122683" lon="8.0289467"><ele>-19.0</ele><time>2026-04-23T14:48:06.327Z</time></trkpt><trkpt lat="34.012335" lon="8.02905"><ele>-19.0</ele><time>2026-04-23T14:48:07.328Z</time></trkpt><trkpt lat="34.0123983" lon="8.0291583"><ele>-19.0</ele><time>2026-04-23T14:48:08.328Z</time></trkpt><trkpt lat="34.0124567" lon="8.0292567"><ele>-19.0</ele><time>2026-04-23T14:48:09.327Z</time></trkpt><trkpt lat="34.01252" lon="8.0293533"><ele>-18.8</ele><time>2026-04-23T14:48:10.327Z</time></trkpt><trkpt lat="34.012595" lon="8.0294517"><ele>-18.599999999999998</ele><time>2026-04-23T14:48:11.327Z</time></trkpt><trkpt lat="34.0126683" lon="8.02955"><ele>-18.4</ele><time>2026-04-23T14:48:12.328Z</time></trkpt><trkpt lat="34.01274" lon="8.0296517"><ele>-18.2</ele><time>2026-04-23T14:48:13.327Z</time></trkpt><trkpt lat="34.0128117" lon="8.0297533"><ele>-18.0</ele><time>2026-04-23T14:48:14.327Z</time></trkpt><trkpt lat="34.0128783" lon="8.0298517"><ele>-18.0</ele><time>2026-04-23T14:48:15.328Z</time></trkpt><trkpt lat="34.0129417" lon="8.02995"><ele>-18.0</ele><time>2026-04-23T14:48:16.328Z</time></trkpt><trkpt lat="34.013005" lon="8.03005"><ele>-18.0</ele><time>2026-04-23T14:48:17.327Z</time></trkpt><trkpt lat="34.01307" lon="8.0301533"><ele>-18.0</ele><time>2026-04-23T14:48:18.327Z</time></trkpt><trkpt lat="34.0131333" lon="8.0302633"><ele>-18.0</ele><time>2026-04-23T14:48:19.327Z</time></trkpt><trkpt lat="34.0132033" lon="8.03037"><ele>-17.75</ele><time>2026-04-23T14:48:20.328Z</time></trkpt><trkpt lat="34.01328" lon="8.0304717"><ele>-17.5</ele><time>2026-04-23T14:48:21.327Z</time></trkpt><trkpt lat="34.01336" lon="8.03057"><ele>-17.25</ele><time>2026-04-23T14:48:22.327Z</time></trkpt><trkpt lat="34.0134433" lon="8.0306583"><ele>-17.0</ele><time>2026-04-23T14:48:23.327Z</time></trkpt><trkpt lat="34.0135283" lon="8.0307533"><ele>-17.75</ele><time>2026-04-23T14:48:24.327Z</time></trkpt><trkpt lat="34.0136133" lon="8.030845"><ele>-18.5</ele><time>2026-04-23T14:48:25.328Z</time></trkpt><trkpt lat="34.0137" lon="8.030935"><ele>-19.25</ele><time>2026-04-23T14:48:26.328Z</time></trkpt><trkpt lat="34.0137867" lon="8.0310217"><ele>-20.0</ele><time>2026-04-23T14:48:27.327Z</time></trkpt><trkpt lat="34.0138683" lon="8.0311083"><ele>-20.0</ele><time>2026-04-23T14:48:28.328Z</time></trkpt><trkpt lat="34.0139367" lon="8.0312067"><ele>-20.0</ele><time>2026-04-23T14:48:29.328Z</time></trkpt><trkpt lat="34.0139967" lon="8.0313017"><ele>-20.0</ele><time>2026-04-23T14:48:30.327Z</time></trkpt><trkpt lat="34.014055" lon="8.0314017"><ele>-20.0</ele><time>2026-04-23T14:48:31.328Z</time></trkpt><trkpt lat="34.0141083" lon="8.031505"><ele>-20.0</ele><time>2026-04-23T14:48:32.327Z</time></trkpt><trkpt lat="34.01416" lon="8.031615"><ele>-19.6</ele><time>2026-04-23T14:48:33.327Z</time></trkpt><trkpt lat="34.0142083" lon="8.0317217"><ele>-19.2</ele><time>2026-04-23T14:48:34.327Z</time></trkpt><trkpt lat="34.0142567" lon="8.0318333"><ele>-18.8</ele><time>2026-04-23T14:48:35.328Z</time></trkpt><trkpt lat="34.0143167" lon="8.0319417"><ele>-18.4</ele><time>2026-04-23T14:48:36.328Z</time></trkpt><trkpt lat="34.0143783" lon="8.0320583"><ele>-18.0</ele><time>2026-04-23T14:48:37.327Z</time></trkpt><trkpt lat="34.0144433" lon="8.03217"><ele>-18.0</ele><time>2026-04-23T14:48:38.327Z</time></trkpt><trkpt lat="34.014505" lon="8.032285"><ele>-18.0</ele><time>2026-04-23T14:48:39.328Z</time></trkpt><trkpt lat="34.0145717" lon="8.0324017"><ele>-18.0</ele><time>2026-04-23T14:48:40.328Z</time></trkpt><trkpt lat="34.0146433" lon="8.0325233"><ele>-18.0</ele><time>2026-04-23T14:48:41.327Z</time></trkpt><trkpt lat="34.0147117" lon="8.032635"><ele>-17.75</ele><time>2026-04-23T14:48:42.327Z</time></trkpt><trkpt lat="34.0147783" lon="8.0327517"><ele>-17.5</ele><time>2026-04-23T14:48:43.327Z</time></trkpt><trkpt lat="34.0148417" lon="8.032865"><ele>-17.25</ele><time>2026-04-23T14:48:44.327Z</time></trkpt><trkpt lat="34.0149033" lon="8.03298"><ele>-17.0</ele><time>2026-04-23T14:48:45.327Z</time></trkpt><trkpt lat="34.0149617" lon="8.0330983"><ele>-17.0</ele><time>2026-04-23T14:48:46.328Z</time></trkpt><trkpt lat="34.015025" lon="8.0332067"><ele>-17.0</ele><time>2026-04-23T14:48:47.328Z</time></trkpt><trkpt lat="34.0150833" lon="8.0333317"><ele>-17.0</ele><time>2026-04-23T14:48:48.328Z</time></trkpt><trkpt lat="34.0151383" lon="8.0334433"><ele>-17.0</ele><time>2026-04-23T14:48:49.327Z</time></trkpt><trkpt lat="34.01518" lon="8.0335517"><ele>-17.0</ele><time>2026-04-23T14:48:50.327Z</time></trkpt><trkpt lat="34.0152283" lon="8.03368"><ele>-17.25</ele><time>2026-04-23T14:48:51.328Z</time></trkpt><trkpt lat="34.015275" lon="8.0338"><ele>-17.5</ele><time>2026-04-23T14:48:52.327Z</time></trkpt><trkpt lat="34.0153317" lon="8.03392"><ele>-17.75</ele><time>2026-04-23T14:48:53.327Z</time></trkpt><trkpt lat="34.01538" lon="8.0340567"><ele>-18.0</ele><time>2026-04-23T14:48:54.328Z</time></trkpt><trkpt lat="34.0154333" lon="8.0341783"><ele>-18.5</ele><time>2026-04-23T14:48:55.327Z</time></trkpt><trkpt lat="34.0154817" lon="8.0343033"><ele>-19.0</ele><time>2026-04-23T14:48:56.328Z</time></trkpt><trkpt lat="34.0155333" lon="8.0344283"><ele>-19.5</ele><time>2026-04-23T14:48:57.328Z</time></trkpt><trkpt lat="34.0155817" lon="8.0345517"><ele>-20.0</ele><time>2026-04-23T14:48:58.327Z</time></trkpt><trkpt lat="34.015635" lon="8.0346767"><ele>-20.0</ele><time>2026-04-23T14:48:59.327Z</time></trkpt><trkpt lat="34.0156883" lon="8.0347933"><ele>-20.0</ele><time>2026-04-23T14:49:00.328Z</time></trkpt><trkpt lat="34.01574" lon="8.03492"><ele>-20.0</ele><time>2026-04-23T14:49:01.327Z</time></trkpt><trkpt lat="34.0157783" lon="8.0350367"><ele>-20.0</ele><time>2026-04-23T14:49:02.327Z</time></trkpt><trkpt lat="34.015815" lon="8.0351533"><ele>-20.0</ele><time>2026-04-23T14:49:03.327Z</time></trkpt><trkpt lat="34.0158567" lon="8.0352733"><ele>-19.5</ele><time>2026-04-23T14:49:04.327Z</time></trkpt><trkpt lat="34.0158967" lon="8.035405"><ele>-19.0</ele><time>2026-04-23T14:49:05.328Z</time></trkpt><trkpt lat="34.01594" lon="8.0355317"><ele>-18.5</ele><time>2026-04-23T14:49:06.328Z</time></trkpt><trkpt lat="34.0159883" lon="8.035655"><ele>-18.0</ele><time>2026-04-23T14:49:07.327Z</time></trkpt><trkpt lat="34.0160367" lon="8.035775"><ele>-18.0</ele><time>2026-04-23T14:49:08.327Z</time></trkpt><trkpt lat="34.0160833" lon="8.0358983"><ele>-18.0</ele><time>2026-04-23T14:49:09.328Z</time></trkpt><trkpt lat="34.0161267" lon="8.0360167"><ele>-18.0</ele><time>2026-04-23T14:49:10.327Z</time></trkpt><trkpt lat="34.01616" lon="8.0361383"><ele>-18.0</ele><time>2026-04-23T14:49:11.327Z</time></trkpt><trkpt lat="34.0162033" lon="8.0362667"><ele>-18.0</ele><time>2026-04-23T14:49:12.326Z</time></trkpt><trkpt lat="34.0162417" lon="8.036395"><ele>-18.0</ele><time>2026-04-23T14:49:13.326Z</time></trkpt><trkpt lat="34.0162767" lon="8.03652"><ele>-18.0</ele><time>2026-04-23T14:49:14.326Z</time></trkpt><trkpt lat="34.0163083" lon="8.0366517"><ele>-18.0</ele><time>2026-04-23T14:49:15.327Z</time></trkpt><trkpt lat="34.0163483" lon="8.036785"><ele>-18.0</ele><time>2026-04-23T14:49:16.327Z</time></trkpt><trkpt lat="34.0163817" lon="8.036915"><ele>-18.5</ele><time>2026-04-23T14:49:17.327Z</time></trkpt><trkpt lat="34.0164167" lon="8.03705"><ele>-19.0</ele><time>2026-04-23T14:49:18.327Z</time></trkpt><trkpt lat="34.0164433" lon="8.03718"><ele>-19.5</ele><time>2026-04-23T14:49:19.326Z</time></trkpt><trkpt lat="34.016475" lon="8.0373183"><ele>-20.0</ele><time>2026-04-23T14:49:20.326Z</time></trkpt><trkpt lat="34.0164967" lon="8.0374517"><ele>-19.75</ele><time>2026-04-23T14:49:21.327Z</time></trkpt><trkpt lat="34.0165167" lon="8.03759"><ele>-19.5</ele><time>2026-04-23T14:49:22.327Z</time></trkpt><trkpt lat="34.016535" lon="8.0377283"><ele>-19.25</ele><time>2026-04-23T14:49:23.326Z</time></trkpt><trkpt lat="34.0165533" lon="8.0378667"><ele>-19.0</ele><time>2026-04-23T14:49:24.326Z</time></trkpt><trkpt lat="34.0165833" lon="8.0380033"><ele>-19.0</ele><time>2026-04-23T14:49:25.327Z</time></trkpt><trkpt lat="34.0166183" lon="8.0381383"><ele>-19.0</ele><time>2026-04-23T14:49:26.326Z</time></trkpt><trkpt lat="34.0166533" lon="8.0382733"><ele>-19.0</ele><time>2026-04-23T14:49:27.327Z</time></trkpt><trkpt lat="34.0166833" lon="8.0384"><ele>-19.0</ele><time>2026-04-23T14:49:28.327Z</time></trkpt><trkpt lat="34.0167217" lon="8.0385283"><ele>-19.0</ele><time>2026-04-23T14:49:29.327Z</time></trkpt><trkpt lat="34.0167583" lon="8.038665"><ele>-19.0</ele><time>2026-04-23T14:49:30.327Z</time></trkpt><trkpt lat="34.0167917" lon="8.0387967"><ele>-19.0</ele><time>2026-04-23T14:49:31.326Z</time></trkpt><trkpt lat="34.0168283" lon="8.0389367"><ele>-19.0</ele><time>2026-04-23T14:49:32.327Z</time></trkpt><trkpt lat="34.016865" lon="8.0390733"><ele>-18.0</ele><time>2026-04-23T14:49:33.326Z</time></trkpt><trkpt lat="34.0168917" lon="8.039215"><ele>-17.0</ele><time>2026-04-23T14:49:34.326Z</time></trkpt><trkpt lat="34.0169217" lon="8.0393567"><ele>-16.0</ele><time>2026-04-23T14:49:35.327Z</time></trkpt><trkpt lat="34.016945" lon="8.0394933"><ele>-15.0</ele><time>2026-04-23T14:49:36.327Z</time></trkpt><trkpt lat="34.0169717" lon="8.0396317"><ele>-15.0</ele><time>2026-04-23T14:49:37.326Z</time></trkpt><trkpt lat="34.0169983" lon="8.0397683"><ele>-15.0</ele><time>2026-04-23T14:49:38.326Z</time></trkpt><trkpt lat="34.017025" lon="8.0399083"><ele>-15.0</ele><time>2026-04-23T14:49:39.327Z</time></trkpt><trkpt lat="34.0170417" lon="8.04004"><ele>-15.0</ele><time>2026-04-23T14:49:40.326Z</time></trkpt><trkpt lat="34.0170567" lon="8.0401817"><ele>-15.5</ele><time>2026-04-23T14:49:41.327Z</time></trkpt><trkpt lat="34.017075" lon="8.0403183"><ele>-16.0</ele><time>2026-04-23T14:49:42.326Z</time></trkpt><trkpt lat="34.0170933" lon="8.0404683"><ele>-16.5</ele><time>2026-04-23T14:49:43.326Z</time></trkpt><trkpt lat="34.0171" lon="8.0406183"><ele>-17.0</ele><time>2026-04-23T14:49:44.326Z</time></trkpt><trkpt lat="34.017105" lon="8.040765"><ele>-17.25</ele><time>2026-04-23T14:49:45.326Z</time></trkpt><trkpt lat="34.01711" lon="8.0409117"><ele>-17.5</ele><time>2026-04-23T14:49:46.327Z</time></trkpt><trkpt lat="34.0171017" lon="8.041055"><ele>-17.75</ele><time>2026-04-23T14:49:47.327Z</time></trkpt><trkpt lat="34.0170967" lon="8.0412033"><ele>-18.0</ele><time>2026-04-23T14:49:48.326Z</time></trkpt><trkpt lat="34.01709" lon="8.0413567"><ele>-18.0</ele><time>2026-04-23T14:49:49.326Z</time></trkpt><trkpt lat="34.017085" lon="8.04151"><ele>-18.0</ele><time>2026-04-23T14:49:50.326Z</time></trkpt><trkpt lat="34.0170817" lon="8.0416633"><ele>-18.0</ele><time>2026-04-23T14:49:51.326Z</time></trkpt><trkpt lat="34.0170817" lon="8.0418117"><ele>-18.0</ele><time>2026-04-23T14:49:52.327Z</time></trkpt><trkpt lat="34.0170817" lon="8.0419633"><ele>-17.75</ele><time>2026-04-23T14:49:53.327Z</time></trkpt><trkpt lat="34.0170817" lon="8.042115"><ele>-17.5</ele><time>2026-04-23T14:49:54.327Z</time></trkpt><trkpt lat="34.01709" lon="8.0422733"><ele>-17.25</ele><time>2026-04-23T14:49:55.327Z</time></trkpt><trkpt lat="34.0170867" lon="8.0424267"><ele>-17.0</ele><time>2026-04-23T14:49:56.327Z</time></trkpt><trkpt lat="34.0170933" lon="8.04258"><ele>-16.75</ele><time>2026-04-23T14:49:57.326Z</time></trkpt><trkpt lat="34.017095" lon="8.04274"><ele>-16.5</ele><time>2026-04-23T14:49:58.327Z</time></trkpt><trkpt lat="34.0171083" lon="8.042895"><ele>-16.25</ele><time>2026-04-23T14:49:59.326Z</time></trkpt><trkpt lat="34.0171183" lon="8.043065"><ele>-16.0</ele><time>2026-04-23T14:50:00.327Z</time></trkpt><trkpt lat="34.017125" lon="8.0432433"><ele>-16.25</ele><time>2026-04-23T14:50:01.326Z</time></trkpt><trkpt lat="34.0171283" lon="8.043415"><ele>-16.5</ele><time>2026-04-23T14:50:02.327Z</time></trkpt><trkpt lat="34.0171317" lon="8.0435867"><ele>-16.75</ele><time>2026-04-23T14:50:03.326Z</time></trkpt><trkpt lat="34.017135" lon="8.04376"><ele>-17.0</ele><time>2026-04-23T14:50:04.327Z</time></trkpt><trkpt lat="34.017145" lon="8.0439283"><ele>-17.0</ele><time>2026-04-23T14:50:05.327Z</time></trkpt><trkpt lat="34.0171467" lon="8.044095"><ele>-17.0</ele><time>2026-04-23T14:50:06.327Z</time></trkpt><trkpt lat="34.0171533" lon="8.0442733"><ele>-17.0</ele><time>2026-04-23T14:50:07.326Z</time></trkpt><trkpt lat="34.0171567" lon="8.044455"><ele>-17.0</ele><time>2026-04-23T14:50:08.326Z</time></trkpt><trkpt lat="34.0171683" lon="8.044635"><ele>-17.5</ele><time>2026-04-23T14:50:09.327Z</time></trkpt><trkpt lat="34.0171783" lon="8.0448017"><ele>-18.0</ele><time>2026-04-23T14:50:10.326Z</time></trkpt><trkpt lat="34.01719" lon="8.04496"><ele>-18.5</ele><time>2026-04-23T14:50:11.326Z</time></trkpt><trkpt lat="34.0172017" lon="8.0451117"><ele>-19.0</ele><time>2026-04-23T14:50:12.326Z</time></trkpt><trkpt lat="34.0172117" lon="8.0452567"><ele>-19.25</ele><time>2026-04-23T14:50:13.326Z</time></trkpt><trkpt lat="34.01722" lon="8.0454083"><ele>-19.5</ele><time>2026-04-23T14:50:14.326Z</time></trkpt><trkpt lat="34.0172267" lon="8.0455583"><ele>-19.75</ele><time>2026-04-23T14:50:15.327Z</time></trkpt><trkpt lat="34.0172433" lon="8.0457083"><ele>-20.0</ele><time>2026-04-23T14:50:16.327Z</time></trkpt><trkpt lat="34.01726" lon="8.0458583"><ele>-19.5</ele><time>2026-04-23T14:50:17.326Z</time></trkpt><trkpt lat="34.017275" lon="8.0460133"><ele>-19.0</ele><time>2026-04-23T14:50:18.327Z</time></trkpt><trkpt lat="34.0172883" lon="8.0461733"><ele>-18.5</ele><time>2026-04-23T14:50:19.327Z</time></trkpt><trkpt lat="34.017305" lon="8.0463367"><ele>-18.0</ele><time>2026-04-23T14:50:20.327Z</time></trkpt><trkpt lat="34.017315" lon="8.0464917"><ele>-17.75</ele><time>2026-04-23T14:50:21.327Z</time></trkpt><trkpt lat="34.0173333" lon="8.0466533"><ele>-17.5</ele><time>2026-04-23T14:50:22.326Z</time></trkpt><trkpt lat="34.0173533" lon="8.0468133"><ele>-17.25</ele><time>2026-04-23T14:50:23.327Z</time></trkpt><trkpt lat="34.0173783" lon="8.0469767"><ele>-17.0</ele><time>2026-04-23T14:50:24.327Z</time></trkpt><trkpt lat="34.0174017" lon="8.0471383"><ele>-17.0</ele><time>2026-04-23T14:50:25.326Z</time></trkpt><trkpt lat="34.0174267" lon="8.0473"><ele>-17.0</ele><time>2026-04-23T14:50:26.327Z</time></trkpt><trkpt lat="34.017455" lon="8.0474617"><ele>-17.0</ele><time>2026-04-23T14:50:27.326Z</time></trkpt><trkpt lat="34.0174817" lon="8.0476133"><ele>-17.0</ele><time>2026-04-23T14:50:28.327Z</time></trkpt><trkpt lat="34.01751" lon="8.0477633"><ele>-17.2</ele><time>2026-04-23T14:50:29.327Z</time></trkpt><trkpt lat="34.01753" lon="8.0479033"><ele>-17.4</ele><time>2026-04-23T14:50:30.326Z</time></trkpt><trkpt lat="34.01755" lon="8.0480367"><ele>-17.6</ele><time>2026-04-23T14:50:31.326Z</time></trkpt><trkpt lat="34.0175717" lon="8.04816"><ele>-17.8</ele><time>2026-04-23T14:50:32.327Z</time></trkpt><trkpt lat="34.0175883" lon="8.0482717"><ele>-18.0</ele><time>2026-04-23T14:50:33.327Z</time></trkpt><trkpt lat="34.0176" lon="8.04838"><ele>-18.0</ele><time>2026-04-23T14:50:34.327Z</time></trkpt><trkpt lat="34.017615" lon="8.0484883"><ele>-18.0</ele><time>2026-04-23T14:50:35.327Z</time></trkpt><trkpt lat="34.0176383" lon="8.0486017"><ele>-18.0</ele><time>2026-04-23T14:50:36.327Z</time></trkpt><trkpt lat="34.0176633" lon="8.0487217"><ele>-18.0</ele><time>2026-04-23T14:50:37.326Z</time></trkpt><trkpt lat="34.0176883" lon="8.0488433"><ele>-18.0</ele><time>2026-04-23T14:50:38.327Z</time></trkpt><trkpt lat="34.01771" lon="8.048965"><ele>-18.0</ele><time>2026-04-23T14:50:39.327Z</time></trkpt><trkpt lat="34.0177383" lon="8.0490933"><ele>-18.0</ele><time>2026-04-23T14:50:40.326Z</time></trkpt><trkpt lat="34.01777" lon="8.0492267"><ele>-18.0</ele><time>2026-04-23T14:50:41.326Z</time></trkpt><trkpt lat="34.0178" lon="8.0493533"><ele>-18.0</ele><time>2026-04-23T14:50:42.327Z</time></trkpt><trkpt lat="34.0178317" lon="8.049485"><ele>-18.0</ele><time>2026-04-23T14:50:43.327Z</time></trkpt><trkpt lat="34.0178617" lon="8.0496183"><ele>-18.0</ele><time>2026-04-23T14:50:44.327Z</time></trkpt><trkpt lat="34.0178917" lon="8.0497483"><ele>-18.0</ele><time>2026-04-23T14:50:45.327Z</time></trkpt><trkpt lat="34.0179233" lon="8.049885"><ele>-18.0</ele><time>2026-04-23T14:50:46.327Z</time></trkpt><trkpt lat="34.0179567" lon="8.05002"><ele>-18.0</ele><time>2026-04-23T14:50:47.327Z</time></trkpt><trkpt lat="34.01799" lon="8.0501633"><ele>-17.5</ele><time>2026-04-23T14:50:48.326Z</time></trkpt><trkpt lat="34.0180183" lon="8.0503033"><ele>-17.0</ele><time>2026-04-23T14:50:49.326Z</time></trkpt><trkpt lat="34.018045" lon="8.0504467"><ele>-16.5</ele><time>2026-04-23T14:50:50.326Z</time></trkpt><trkpt lat="34.01808" lon="8.05059"><ele>-16.0</ele><time>2026-04-23T14:50:51.327Z</time></trkpt><trkpt lat="34.0181183" lon="8.050735"><ele>-15.75</ele><time>2026-04-23T14:50:52.326Z</time></trkpt><trkpt lat="34.0181583" lon="8.050875"><ele>-15.5</ele><time>2026-04-23T14:50:53.327Z</time></trkpt><trkpt lat="34.0182083" lon="8.05101"><ele>-15.25</ele><time>2026-04-23T14:50:54.327Z</time></trkpt><trkpt lat="34.018255" lon="8.051155"><ele>-15.0</ele><time>2026-04-23T14:50:55.327Z</time></trkpt><trkpt lat="34.0183017" lon="8.05128"><ele>-15.333333333333334</ele><time>2026-04-23T14:50:56.327Z</time></trkpt><trkpt lat="34.0183467" lon="8.0514"><ele>-15.666666666666668</ele><time>2026-04-23T14:50:57.327Z</time></trkpt><trkpt lat="34.018395" lon="8.0514983"><ele>-16.0</ele><time>2026-04-23T14:50:58.327Z</time></trkpt><trkpt lat="34.018435" lon="8.0515883"><ele>-16.333333333333336</ele><time>2026-04-23T14:50:59.326Z</time></trkpt><trkpt lat="34.018475" lon="8.0516683"><ele>-16.666666666666668</ele><time>2026-04-23T14:51:00.326Z</time></trkpt><trkpt lat="34.01851" lon="8.051745"><ele>-17.0</ele><time>2026-04-23T14:51:01.326Z</time></trkpt><trkpt lat="34.0185417" lon="8.0518217"><ele>-17.0</ele><time>2026-04-23T14:51:02.327Z</time></trkpt><trkpt lat="34.0185667" lon="8.051905"><ele>-17.0</ele><time>2026-04-23T14:51:03.326Z</time></trkpt><trkpt lat="34.0185983" lon="8.051985"><ele>-17.0</ele><time>2026-04-23T14:51:04.327Z</time></trkpt><trkpt lat="34.0186317" lon="8.05207"><ele>-17.0</ele><time>2026-04-23T14:51:05.327Z</time></trkpt><trkpt lat="34.0186583" lon="8.05215"><ele>-17.0</ele><time>2026-04-23T14:51:06.326Z</time></trkpt><trkpt lat="34.0186883" lon="8.0522233"><ele>-17.0</ele><time>2026-04-23T14:51:07.327Z</time></trkpt><trkpt lat="34.018735" lon="8.0523483"><ele>-17.2</ele><time>2026-04-23T14:51:09.327Z</time></trkpt><trkpt lat="34.0187733" lon="8.052465"><ele>-17.4</ele><time>2026-04-23T14:51:11.326Z</time></trkpt><trkpt lat="34.0188067" lon="8.0525667"><ele>-17.6</ele><time>2026-04-23T14:51:13.326Z</time></trkpt><trkpt lat="34.0188433" lon="8.0526833"><ele>-17.8</ele><time>2026-04-23T14:51:15.326Z</time></trkpt><trkpt lat="34.0188817" lon="8.052835"><ele>-18.0</ele><time>2026-04-23T14:51:17.327Z</time></trkpt><trkpt lat="34.018925" lon="8.05298"><ele>-18.0</ele><time>2026-04-23T14:51:19.326Z</time></trkpt><trkpt lat="34.0189467" lon="8.05306"><ele>-18.0</ele><time>2026-04-23T14:51:20.326Z</time></trkpt><trkpt lat="34.01897" lon="8.0531467"><ele>-18.0</ele><time>2026-04-23T14:51:21.327Z</time></trkpt><trkpt lat="34.0189967" lon="8.0532317"><ele>-18.0</ele><time>2026-04-23T14:51:22.326Z</time></trkpt><trkpt lat="34.0190217" lon="8.05332"><ele>-18.0</ele><time>2026-04-23T14:51:23.326Z</time></trkpt><trkpt lat="34.0190467" lon="8.05341"><ele>-18.0</ele><time>2026-04-23T14:51:24.327Z</time></trkpt><trkpt lat="34.0190733" lon="8.0535067"><ele>-17.833333333333332</ele><time>2026-04-23T14:51:25.326Z</time></trkpt><trkpt lat="34.0191017" lon="8.0536033"><ele>-17.666666666666668</ele><time>2026-04-23T14:51:26.327Z</time></trkpt><trkpt lat="34.01913" lon="8.0537"><ele>-17.5</ele><time>2026-04-23T14:51:27.326Z</time></trkpt><trkpt lat="34.019155" lon="8.0538017"><ele>-17.333333333333336</ele><time>2026-04-23T14:51:28.326Z</time></trkpt><trkpt lat="34.0191883" lon="8.0538983"><ele>-17.166666666666668</ele><time>2026-04-23T14:51:29.326Z</time></trkpt><trkpt lat="34.0192183" lon="8.0540017"><ele>-17.0</ele><time>2026-04-23T14:51:30.326Z</time></trkpt><trkpt lat="34.0192533" lon="8.0540967"><ele>-17.166666666666668</ele><time>2026-04-23T14:51:31.327Z</time></trkpt><trkpt lat="34.01928" lon="8.0541833"><ele>-17.333333333333336</ele><time>2026-04-23T14:51:32.327Z</time></trkpt><trkpt lat="34.01932" lon="8.0542633"><ele>-17.5</ele><time>2026-04-23T14:51:33.326Z</time></trkpt><trkpt lat="34.0193617" lon="8.0543433"><ele>-17.666666666666668</ele><time>2026-04-23T14:51:34.327Z</time></trkpt><trkpt lat="34.019395" lon="8.0544383"><ele>-17.833333333333332</ele><time>2026-04-23T14:51:35.326Z</time></trkpt><trkpt lat="34.0194217" lon="8.0545383"><ele>-18.0</ele><time>2026-04-23T14:51:36.326Z</time></trkpt><trkpt lat="34.0194367" lon="8.0546383"><ele>-18.0</ele><time>2026-04-23T14:51:37.327Z</time></trkpt><trkpt lat="34.019455" lon="8.0547367"><ele>-18.0</ele><time>2026-04-23T14:51:38.327Z</time></trkpt><trkpt lat="34.01947" lon="8.0548317"><ele>-18.0</ele><time>2026-04-23T14:51:39.327Z</time></trkpt><trkpt lat="34.01949" lon="8.0549333"><ele>-18.0</ele><time>2026-04-23T14:51:40.326Z</time></trkpt><trkpt lat="34.019515" lon="8.0550383"><ele>-18.0</ele><time>2026-04-23T14:51:41.327Z</time></trkpt><trkpt lat="34.0195367" lon="8.0551483"><ele>-18.0</ele><time>2026-04-23T14:51:42.327Z</time></trkpt><trkpt lat="34.0195567" lon="8.0552583"><ele>-18.0</ele><time>2026-04-23T14:51:43.326Z</time></trkpt><trkpt lat="34.0195783" lon="8.0553683"><ele>-18.0</ele><time>2026-04-23T14:51:44.327Z</time></trkpt><trkpt lat="34.019595" lon="8.0554867"><ele>-18.0</ele><time>2026-04-23T14:51:45.326Z</time></trkpt><trkpt lat="34.019615" lon="8.0556083"><ele>-18.0</ele><time>2026-04-23T14:51:46.326Z</time></trkpt><trkpt lat="34.0196333" lon="8.0557333"><ele>-18.0</ele><time>2026-04-23T14:51:47.326Z</time></trkpt><trkpt lat="34.0196517" lon="8.0558567"><ele>-18.0</ele><time>2026-04-23T14:51:48.326Z</time></trkpt><trkpt lat="34.0196733" lon="8.055985"><ele>-18.0</ele><time>2026-04-23T14:51:49.326Z</time></trkpt><trkpt lat="34.0197" lon="8.0561133"><ele>-18.0</ele><time>2026-04-23T14:51:50.326Z</time></trkpt><trkpt lat="34.0197317" lon="8.0562417"><ele>-18.0</ele><time>2026-04-23T14:51:51.327Z</time></trkpt><trkpt lat="34.0197617" lon="8.0563783"><ele>-18.0</ele><time>2026-04-23T14:51:52.326Z</time></trkpt><trkpt lat="34.019795" lon="8.0565133"><ele>-18.25</ele><time>2026-04-23T14:51:53.326Z</time></trkpt><trkpt lat="34.0198317" lon="8.05665"><ele>-18.5</ele><time>2026-04-23T14:51:54.326Z</time></trkpt><trkpt lat="34.0198617" lon="8.0567817"><ele>-18.75</ele><time>2026-04-23T14:51:55.326Z</time></trkpt><trkpt lat="34.019895" lon="8.0569217"><ele>-19.0</ele><time>2026-04-23T14:51:56.326Z</time></trkpt><trkpt lat="34.0199283" lon="8.0570567"><ele>-19.0</ele><time>2026-04-23T14:51:57.326Z</time></trkpt><trkpt lat="34.0199667" lon="8.0572067"><ele>-19.0</ele><time>2026-04-23T14:51:58.326Z</time></trkpt><trkpt lat="34.0200083" lon="8.05735"><ele>-19.0</ele><time>2026-04-23T14:51:59.327Z</time></trkpt><trkpt lat="34.02006" lon="8.057495"><ele>-19.0</ele><time>2026-04-23T14:52:00.326Z</time></trkpt><trkpt lat="34.0201" lon="8.0576333"><ele>-18.5</ele><time>2026-04-23T14:52:01.327Z</time></trkpt><trkpt lat="34.020145" lon="8.0577767"><ele>-18.0</ele><time>2026-04-23T14:52:02.327Z</time></trkpt><trkpt lat="34.0201967" lon="8.0579217"><ele>-17.5</ele><time>2026-04-23T14:52:03.327Z</time></trkpt><trkpt lat="34.0202433" lon="8.0580583"><ele>-17.0</ele><time>2026-04-23T14:52:04.327Z</time></trkpt><trkpt lat="34.0202867" lon="8.05819"><ele>-16.75</ele><time>2026-04-23T14:52:05.327Z</time></trkpt><trkpt lat="34.0203333" lon="8.0583317"><ele>-16.5</ele><time>2026-04-23T14:52:06.327Z</time></trkpt><trkpt lat="34.020375" lon="8.0584783"><ele>-16.25</ele><time>2026-04-23T14:52:07.326Z</time></trkpt><trkpt lat="34.0204117" lon="8.05862"><ele>-16.0</ele><time>2026-04-23T14:52:08.326Z</time></trkpt><trkpt lat="34.0204517" lon="8.05876"><ele>-16.0</ele><time>2026-04-23T14:52:09.327Z</time></trkpt><trkpt lat="34.02049" lon="8.0588933"><ele>-16.0</ele><time>2026-04-23T14:52:10.327Z</time></trkpt><trkpt lat="34.02053" lon="8.0590383"><ele>-16.0</ele><time>2026-04-23T14:52:11.327Z</time></trkpt><trkpt lat="34.0205667" lon="8.059185"><ele>-16.0</ele><time>2026-04-23T14:52:12.326Z</time></trkpt><trkpt lat="34.02061" lon="8.0593367"><ele>-16.25</ele><time>2026-04-23T14:52:13.326Z</time></trkpt><trkpt lat="34.0206567" lon="8.05949"><ele>-16.5</ele><time>2026-04-23T14:52:14.326Z</time></trkpt><trkpt lat="34.02071" lon="8.059645"><ele>-16.75</ele><time>2026-04-23T14:52:15.326Z</time></trkpt><trkpt lat="34.020765" lon="8.0598017"><ele>-17.0</ele><time>2026-04-23T14:52:16.325Z</time></trkpt><trkpt lat="34.0208133" lon="8.0599517"><ele>-17.0</ele><time>2026-04-23T14:52:17.326Z</time></trkpt><trkpt lat="34.0208733" lon="8.0601083"><ele>-17.0</ele><time>2026-04-23T14:52:18.325Z</time></trkpt><trkpt lat="34.0209317" lon="8.0602567"><ele>-17.0</ele><time>2026-04-23T14:52:19.325Z</time></trkpt><trkpt lat="34.020985" lon="8.0604033"><ele>-17.0</ele><time>2026-04-23T14:52:20.325Z</time></trkpt><trkpt lat="34.0210367" lon="8.0605533"><ele>-17.0</ele><time>2026-04-23T14:52:21.326Z</time></trkpt><trkpt lat="34.02109" lon="8.0607117"><ele>-17.0</ele><time>2026-04-23T14:52:22.326Z</time></trkpt><trkpt lat="34.0211467" lon="8.0608683"><ele>-17.0</ele><time>2026-04-23T14:52:23.325Z</time></trkpt><trkpt lat="34.0212" lon="8.061025"><ele>-17.0</ele><time>2026-04-23T14:52:24.325Z</time></trkpt><trkpt lat="34.021255" lon="8.06118"><ele>-17.25</ele><time>2026-04-23T14:52:25.325Z</time></trkpt><trkpt lat="34.0213117" lon="8.0613417"><ele>-17.5</ele><time>2026-04-23T14:52:26.325Z</time></trkpt><trkpt lat="34.0213683" lon="8.061495"><ele>-17.75</ele><time>2026-04-23T14:52:27.325Z</time></trkpt><trkpt lat="34.0214267" lon="8.0616417"><ele>-18.0</ele><time>2026-04-23T14:52:28.326Z</time></trkpt><trkpt lat="34.0214867" lon="8.0617983"><ele>-18.0</ele><time>2026-04-23T14:52:29.325Z</time></trkpt><trkpt lat="34.0215483" lon="8.0619583"><ele>-18.0</ele><time>2026-04-23T14:52:30.325Z</time></trkpt><trkpt lat="34.0216183" lon="8.0621167"><ele>-18.0</ele><time>2026-04-23T14:52:31.326Z</time></trkpt><trkpt lat="34.0216833" lon="8.0622633"><ele>-18.0</ele><time>2026-04-23T14:52:32.325Z</time></trkpt><trkpt lat="34.0217533" lon="8.0624217"><ele>-18.25</ele><time>2026-04-23T14:52:33.325Z</time></trkpt><trkpt lat="34.02182" lon="8.06258"><ele>-18.5</ele><time>2026-04-23T14:52:34.325Z</time></trkpt><trkpt lat="34.0218883" lon="8.0627433"><ele>-18.75</ele><time>2026-04-23T14:52:35.325Z</time></trkpt><trkpt lat="34.02196" lon="8.0629017"><ele>-19.0</ele><time>2026-04-23T14:52:36.326Z</time></trkpt><trkpt lat="34.0220233" lon="8.0630583"><ele>-19.0</ele><time>2026-04-23T14:52:37.325Z</time></trkpt><trkpt lat="34.0220833" lon="8.0632133"><ele>-19.0</ele><time>2026-04-23T14:52:38.325Z</time></trkpt><trkpt lat="34.0221433" lon="8.0633583"><ele>-19.0</ele><time>2026-04-23T14:52:39.325Z</time></trkpt><trkpt lat="34.0221983" lon="8.0634983"><ele>-19.0</ele><time>2026-04-23T14:52:40.325Z</time></trkpt><trkpt lat="34.022245" lon="8.0636467"><ele>-18.75</ele><time>2026-04-23T14:52:41.326Z</time></trkpt><trkpt lat="34.0222883" lon="8.0637933"><ele>-18.5</ele><time>2026-04-23T14:52:42.326Z</time></trkpt><trkpt lat="34.0223317" lon="8.0639417"><ele>-18.25</ele><time>2026-04-23T14:52:43.326Z</time></trkpt><trkpt lat="34.0223683" lon="8.0640833"><ele>-18.0</ele><time>2026-04-23T14:52:44.325Z</time></trkpt><trkpt lat="34.0224083" lon="8.0642367"><ele>-18.0</ele><time>2026-04-23T14:52:45.325Z</time></trkpt><trkpt lat="34.02245" lon="8.064385"><ele>-18.0</ele><time>2026-04-23T14:52:46.325Z</time></trkpt><trkpt lat="34.0224967" lon="8.064545"><ele>-18.0</ele><time>2026-04-23T14:52:47.326Z</time></trkpt><trkpt lat="34.0225383" lon="8.064715"><ele>-18.0</ele><time>2026-04-23T14:52:48.326Z</time></trkpt><trkpt lat="34.022575" lon="8.0648767"><ele>-18.0</ele><time>2026-04-23T14:52:49.325Z</time></trkpt><trkpt lat="34.0226183" lon="8.0650367"><ele>-18.0</ele><time>2026-04-23T14:52:50.326Z</time></trkpt><trkpt lat="34.0226533" lon="8.0651933"><ele>-18.0</ele><time>2026-04-23T14:52:51.325Z</time></trkpt><trkpt lat="34.0227" lon="8.065345"><ele>-18.0</ele><time>2026-04-23T14:52:52.325Z</time></trkpt><trkpt lat="34.0227483" lon="8.0654967"><ele>-18.0</ele><time>2026-04-23T14:52:53.325Z</time></trkpt><trkpt lat="34.0227933" lon="8.0656483"><ele>-18.0</ele><time>2026-04-23T14:52:54.326Z</time></trkpt><trkpt lat="34.0228267" lon="8.0658033"><ele>-18.0</ele><time>2026-04-23T14:52:55.325Z</time></trkpt><trkpt lat="34.0228633" lon="8.0659467"><ele>-18.0</ele><time>2026-04-23T14:52:56.325Z</time></trkpt><trkpt lat="34.0229067" lon="8.06609"><ele>-17.75</ele><time>2026-04-23T14:52:57.326Z</time></trkpt><trkpt lat="34.02295" lon="8.0662367"><ele>-17.5</ele><time>2026-04-23T14:52:58.326Z</time></trkpt><trkpt lat="34.0229917" lon="8.066385"><ele>-17.25</ele><time>2026-04-23T14:52:59.325Z</time></trkpt><trkpt lat="34.0230317" lon="8.0665283"><ele>-17.0</ele><time>2026-04-23T14:53:00.325Z</time></trkpt><trkpt lat="34.0230733" lon="8.0666767"><ele>-17.0</ele><time>2026-04-23T14:53:01.326Z</time></trkpt><trkpt lat="34.0231083" lon="8.0668217"><ele>-17.0</ele><time>2026-04-23T14:53:02.325Z</time></trkpt><trkpt lat="34.0231483" lon="8.0669683"><ele>-17.0</ele><time>2026-04-23T14:53:03.325Z</time></trkpt><trkpt lat="34.0232" lon="8.0671367"><ele>-17.0</ele><time>2026-04-23T14:53:04.326Z</time></trkpt><trkpt lat="34.023245" lon="8.0672933"><ele>-17.0</ele><time>2026-04-23T14:53:05.325Z</time></trkpt><trkpt lat="34.0232767" lon="8.0674417"><ele>-17.0</ele><time>2026-04-23T14:53:06.325Z</time></trkpt><trkpt lat="34.023315" lon="8.0675883"><ele>-17.0</ele><time>2026-04-23T14:53:07.325Z</time></trkpt><trkpt lat="34.0233517" lon="8.0677433"><ele>-17.0</ele><time>2026-04-23T14:53:08.325Z</time></trkpt><trkpt lat="34.0233967" lon="8.0679017"><ele>-17.25</ele><time>2026-04-23T14:53:09.325Z</time></trkpt><trkpt lat="34.02344" lon="8.0680517"><ele>-17.5</ele><time>2026-04-23T14:53:10.326Z</time></trkpt><trkpt lat="34.0234767" lon="8.068205"><ele>-17.75</ele><time>2026-04-23T14:53:11.325Z</time></trkpt><trkpt lat="34.023515" lon="8.0683617"><ele>-18.0</ele><time>2026-04-23T14:53:12.326Z</time></trkpt><trkpt lat="34.023545" lon="8.0685133"><ele>-18.0</ele><time>2026-04-23T14:53:13.325Z</time></trkpt><trkpt lat="34.0235817" lon="8.0686617"><ele>-18.0</ele><time>2026-04-23T14:53:14.325Z</time></trkpt><trkpt lat="34.023625" lon="8.0688167"><ele>-18.0</ele><time>2026-04-23T14:53:15.326Z</time></trkpt><trkpt lat="34.0236667" lon="8.0689667"><ele>-18.0</ele><time>2026-04-23T14:53:16.326Z</time></trkpt><trkpt lat="34.0237117" lon="8.069125"><ele>-18.0</ele><time>2026-04-23T14:53:17.325Z</time></trkpt><trkpt lat="34.0237567" lon="8.069275"><ele>-18.0</ele><time>2026-04-23T14:53:18.325Z</time></trkpt><trkpt lat="34.023795" lon="8.0694267"><ele>-18.0</ele><time>2026-04-23T14:53:19.326Z</time></trkpt><trkpt lat="34.02383" lon="8.0695683"><ele>-18.0</ele><time>2026-04-23T14:53:20.326Z</time></trkpt><trkpt lat="34.0238617" lon="8.06971"><ele>-18.0</ele><time>2026-04-23T14:53:21.325Z</time></trkpt><trkpt lat="34.0238983" lon="8.0698517"><ele>-18.0</ele><time>2026-04-23T14:53:22.325Z</time></trkpt><trkpt lat="34.0239267" lon="8.0699967"><ele>-18.0</ele><time>2026-04-23T14:53:23.325Z</time></trkpt><trkpt lat="34.02396" lon="8.0701433"><ele>-18.0</ele><time>2026-04-23T14:53:24.325Z</time></trkpt><trkpt lat="34.0239967" lon="8.0702967"><ele>-18.0</ele><time>2026-04-23T14:53:25.326Z</time></trkpt><trkpt lat="34.0240283" lon="8.0704533"><ele>-18.0</ele><time>2026-04-23T14:53:26.326Z</time></trkpt><trkpt lat="34.0240667" lon="8.070605"><ele>-18.0</ele><time>2026-04-23T14:53:27.326Z</time></trkpt><trkpt lat="34.0240967" lon="8.070755"><ele>-18.0</ele><time>2026-04-23T14:53:28.325Z</time></trkpt><trkpt lat="34.0241233" lon="8.0709117"><ele>-17.5</ele><time>2026-04-23T14:53:29.325Z</time></trkpt><trkpt lat="34.0241533" lon="8.0710583"><ele>-17.0</ele><time>2026-04-23T14:53:30.325Z</time></trkpt><trkpt lat="34.0241917" lon="8.0712133"><ele>-16.5</ele><time>2026-04-23T14:53:31.326Z</time></trkpt><trkpt lat="34.02423" lon="8.0713717"><ele>-16.0</ele><time>2026-04-23T14:53:32.325Z</time></trkpt><trkpt lat="34.0242567" lon="8.0715317"><ele>-15.75</ele><time>2026-04-23T14:53:33.326Z</time></trkpt><trkpt lat="34.0242833" lon="8.07169"><ele>-15.5</ele><time>2026-04-23T14:53:34.325Z</time></trkpt><trkpt lat="34.0243167" lon="8.0718467"><ele>-15.25</ele><time>2026-04-23T14:53:35.325Z</time></trkpt><trkpt lat="34.0243483" lon="8.0720017"><ele>-15.0</ele><time>2026-04-23T14:53:36.325Z</time></trkpt><trkpt lat="34.0243683" lon="8.072155"><ele>-15.0</ele><time>2026-04-23T14:53:37.325Z</time></trkpt><trkpt lat="34.0243917" lon="8.072315"><ele>-15.0</ele><time>2026-04-23T14:53:38.325Z</time></trkpt><trkpt lat="34.0244233" lon="8.0724683"><ele>-15.0</ele><time>2026-04-23T14:53:39.326Z</time></trkpt><trkpt lat="34.0244583" lon="8.0726267"><ele>-15.0</ele><time>2026-04-23T14:53:40.325Z</time></trkpt><trkpt lat="34.02449" lon="8.07279"><ele>-15.25</ele><time>2026-04-23T14:53:41.326Z</time></trkpt><trkpt lat="34.0245183" lon="8.072945"><ele>-15.5</ele><time>2026-04-23T14:53:42.326Z</time></trkpt><trkpt lat="34.0245517" lon="8.0731067"><ele>-15.75</ele><time>2026-04-23T14:53:43.325Z</time></trkpt><trkpt lat="34.0245883" lon="8.0732717"><ele>-16.0</ele><time>2026-04-23T14:53:44.325Z</time></trkpt><trkpt lat="34.0246233" lon="8.0734333"><ele>-16.0</ele><time>2026-04-23T14:53:45.325Z</time></trkpt><trkpt lat="34.0246533" lon="8.0736"><ele>-16.0</ele><time>2026-04-23T14:53:46.325Z</time></trkpt><trkpt lat="34.02467" lon="8.07376"><ele>-16.0</ele><time>2026-04-23T14:53:47.325Z</time></trkpt><trkpt lat="34.0246967" lon="8.07392"><ele>-16.0</ele><time>2026-04-23T14:53:48.325Z</time></trkpt><trkpt lat="34.0247183" lon="8.07407"><ele>-16.5</ele><time>2026-04-23T14:53:49.326Z</time></trkpt><trkpt lat="34.0247383" lon="8.0742283"><ele>-17.0</ele><time>2026-04-23T14:53:50.325Z</time></trkpt><trkpt lat="34.024755" lon="8.0743817"><ele>-17.5</ele><time>2026-04-23T14:53:51.326Z</time></trkpt><trkpt lat="34.02478" lon="8.0745367"><ele>-18.0</ele><time>2026-04-23T14:53:52.325Z</time></trkpt><trkpt lat="34.024815" lon="8.074685"><ele>-18.0</ele><time>2026-04-23T14:53:53.325Z</time></trkpt><trkpt lat="34.0248483" lon="8.0748433"><ele>-18.0</ele><time>2026-04-23T14:53:54.325Z</time></trkpt><trkpt lat="34.02487" lon="8.075"><ele>-18.0</ele><time>2026-04-23T14:53:55.326Z</time></trkpt><trkpt lat="34.0248967" lon="8.0751567"><ele>-18.0</ele><time>2026-04-23T14:53:56.326Z</time></trkpt><trkpt lat="34.0249267" lon="8.07531"><ele>-17.5</ele><time>2026-04-23T14:53:57.326Z</time></trkpt><trkpt lat="34.0249617" lon="8.0754567"><ele>-17.0</ele><time>2026-04-23T14:53:58.325Z</time></trkpt><trkpt lat="34.0249917" lon="8.0755983"><ele>-16.5</ele><time>2026-04-23T14:53:59.326Z</time></trkpt><trkpt lat="34.02504" lon="8.0757383"><ele>-16.0</ele><time>2026-04-23T14:54:00.326Z</time></trkpt><trkpt lat="34.0250933" lon="8.075875"><ele>-15.5</ele><time>2026-04-23T14:54:01.326Z</time></trkpt><trkpt lat="34.025135" lon="8.0760133"><ele>-15.0</ele><time>2026-04-23T14:54:02.325Z</time></trkpt><trkpt lat="34.0251683" lon="8.0761567"><ele>-14.5</ele><time>2026-04-23T14:54:03.325Z</time></trkpt><trkpt lat="34.0252117" lon="8.076305"><ele>-14.0</ele><time>2026-04-23T14:54:04.326Z</time></trkpt><trkpt lat="34.02526" lon="8.076445"><ele>-14.0</ele><time>2026-04-23T14:54:05.326Z</time></trkpt><trkpt lat="34.0253067" lon="8.0765867"><ele>-14.0</ele><time>2026-04-23T14:54:06.326Z</time></trkpt><trkpt lat="34.02535" lon="8.076725"><ele>-14.0</ele><time>2026-04-23T14:54:07.325Z</time></trkpt><trkpt lat="34.0253983" lon="8.0768583"><ele>-14.0</ele><time>2026-04-23T14:54:08.325Z</time></trkpt><trkpt lat="34.0254483" lon="8.076995"><ele>-14.0</ele><time>2026-04-23T14:54:09.326Z</time></trkpt><trkpt lat="34.0254933" lon="8.0771333"><ele>-14.0</ele><time>2026-04-23T14:54:10.326Z</time></trkpt><trkpt lat="34.0255483" lon="8.0772817"><ele>-14.0</ele><time>2026-04-23T14:54:11.326Z</time></trkpt><trkpt lat="34.0256" lon="8.0774233"><ele>-14.0</ele><time>2026-04-23T14:54:12.325Z</time></trkpt><trkpt lat="34.0256533" lon="8.0775633"><ele>-14.5</ele><time>2026-04-23T14:54:13.325Z</time></trkpt><trkpt lat="34.0257083" lon="8.0777033"><ele>-15.0</ele><time>2026-04-23T14:54:14.325Z</time></trkpt><trkpt lat="34.0257633" lon="8.0778467"><ele>-15.5</ele><time>2026-04-23T14:54:15.325Z</time></trkpt><trkpt lat="34.0258233" lon="8.0779933"><ele>-16.0</ele><time>2026-04-23T14:54:16.326Z</time></trkpt><trkpt lat="34.02588" lon="8.078135"><ele>-16.25</ele><time>2026-04-23T14:54:17.326Z</time></trkpt><trkpt lat="34.0259417" lon="8.0782783"><ele>-16.5</ele><time>2026-04-23T14:54:18.325Z</time></trkpt><trkpt lat="34.0260017" lon="8.0784183"><ele>-16.75</ele><time>2026-04-23T14:54:19.326Z</time></trkpt><trkpt lat="34.0260717" lon="8.0785667"><ele>-17.0</ele><time>2026-04-23T14:54:20.326Z</time></trkpt><trkpt lat="34.026135" lon="8.0787117"><ele>-17.0</ele><time>2026-04-23T14:54:21.326Z</time></trkpt><trkpt lat="34.0262" lon="8.0788583"><ele>-17.0</ele><time>2026-04-23T14:54:22.325Z</time></trkpt><trkpt lat="34.0262633" lon="8.0789983"><ele>-17.0</ele><time>2026-04-23T14:54:23.325Z</time></trkpt><trkpt lat="34.0263233" lon="8.079145"><ele>-17.0</ele><time>2026-04-23T14:54:24.326Z</time></trkpt><trkpt lat="34.0263817" lon="8.0792917"><ele>-17.0</ele><time>2026-04-23T14:54:25.325Z</time></trkpt><trkpt lat="34.0264467" lon="8.079435"><ele>-17.0</ele><time>2026-04-23T14:54:26.326Z</time></trkpt><trkpt lat="34.02652" lon="8.0795917"><ele>-17.0</ele><time>2026-04-23T14:54:27.326Z</time></trkpt><trkpt lat="34.0265967" lon="8.0797383"><ele>-17.0</ele><time>2026-04-23T14:54:28.325Z</time></trkpt><trkpt lat="34.0266717" lon="8.0798917"><ele>-16.75</ele><time>2026-04-23T14:54:29.326Z</time></trkpt><trkpt lat="34.0267417" lon="8.0800433"><ele>-16.5</ele><time>2026-04-23T14:54:30.326Z</time></trkpt><trkpt lat="34.0268083" lon="8.080195"><ele>-16.25</ele><time>2026-04-23T14:54:31.325Z</time></trkpt><trkpt lat="34.0268817" lon="8.0803383"><ele>-16.0</ele><time>2026-04-23T14:54:32.326Z</time></trkpt><trkpt lat="34.0269583" lon="8.0804933"><ele>-16.0</ele><time>2026-04-23T14:54:33.326Z</time></trkpt><trkpt lat="34.027035" lon="8.0806417"><ele>-16.0</ele><time>2026-04-23T14:54:34.325Z</time></trkpt><trkpt lat="34.0271117" lon="8.08079"><ele>-16.0</ele><time>2026-04-23T14:54:35.325Z</time></trkpt><trkpt lat="34.0271883" lon="8.0809333"><ele>-16.0</ele><time>2026-04-23T14:54:36.325Z</time></trkpt><trkpt lat="34.0272583" lon="8.0810817"><ele>-16.0</ele><time>2026-04-23T14:54:37.326Z</time></trkpt><trkpt lat="34.02733" lon="8.081225"><ele>-16.0</ele><time>2026-04-23T14:54:38.326Z</time></trkpt><trkpt lat="34.0274" lon="8.0813733"><ele>-16.0</ele><time>2026-04-23T14:54:39.326Z</time></trkpt><trkpt lat="34.0274617" lon="8.081515"><ele>-16.0</ele><time>2026-04-23T14:54:40.325Z</time></trkpt><trkpt lat="34.0275267" lon="8.0816567"><ele>-16.0</ele><time>2026-04-23T14:54:41.325Z</time></trkpt><trkpt lat="34.0275983" lon="8.0818017"><ele>-16.0</ele><time>2026-04-23T14:54:42.325Z</time></trkpt><trkpt lat="34.0276717" lon="8.08195"><ele>-16.0</ele><time>2026-04-23T14:54:43.325Z</time></trkpt><trkpt lat="34.027745" lon="8.0820983"><ele>-16.0</ele><time>2026-04-23T14:54:44.326Z</time></trkpt><trkpt lat="34.0278217" lon="8.08225"><ele>-16.0</ele><time>2026-04-23T14:54:45.325Z</time></trkpt><trkpt lat="34.0279017" lon="8.0823967"><ele>-16.0</ele><time>2026-04-23T14:54:46.326Z</time></trkpt><trkpt lat="34.027975" lon="8.0825417"><ele>-16.0</ele><time>2026-04-23T14:54:47.325Z</time></trkpt><trkpt lat="34.0280433" lon="8.0826883"><ele>-16.0</ele><time>2026-04-23T14:54:48.326Z</time></trkpt><trkpt lat="34.0281117" lon="8.0828383"><ele>-16.0</ele><time>2026-04-23T14:54:49.326Z</time></trkpt><trkpt lat="34.0281783" lon="8.082985"><ele>-16.0</ele><time>2026-04-23T14:54:50.326Z</time></trkpt><trkpt lat="34.0282467" lon="8.0831333"><ele>-16.0</ele><time>2026-04-23T14:54:51.325Z</time></trkpt><trkpt lat="34.02832" lon="8.0832817"><ele>-16.0</ele><time>2026-04-23T14:54:52.326Z</time></trkpt><trkpt lat="34.0283917" lon="8.0834283"><ele>-16.0</ele><time>2026-04-23T14:54:53.325Z</time></trkpt><trkpt lat="34.0284583" lon="8.0835783"><ele>-16.0</ele><time>2026-04-23T14:54:54.326Z</time></trkpt><trkpt lat="34.0285233" lon="8.0837283"><ele>-16.0</ele><time>2026-04-23T14:54:55.326Z</time></trkpt><trkpt lat="34.028585" lon="8.083875"><ele>-16.0</ele><time>2026-04-23T14:54:56.325Z</time></trkpt><trkpt lat="34.02865" lon="8.0840233"><ele>-15.75</ele><time>2026-04-23T14:54:57.325Z</time></trkpt><trkpt lat="34.0287117" lon="8.08417"><ele>-15.5</ele><time>2026-04-23T14:54:58.325Z</time></trkpt><trkpt lat="34.0287767" lon="8.0843183"><ele>-15.25</ele><time>2026-04-23T14:54:59.325Z</time></trkpt><trkpt lat="34.0288433" lon="8.0844717"><ele>-15.0</ele><time>2026-04-23T14:55:00.326Z</time></trkpt><trkpt lat="34.0289167" lon="8.0846167"><ele>-15.0</ele><time>2026-04-23T14:55:01.326Z</time></trkpt><trkpt lat="34.02899" lon="8.0847667"><ele>-15.0</ele><time>2026-04-23T14:55:02.326Z</time></trkpt><trkpt lat="34.0290583" lon="8.0849067"><ele>-15.0</ele><time>2026-04-23T14:55:03.325Z</time></trkpt><trkpt lat="34.0291283" lon="8.08505"><ele>-15.0</ele><time>2026-04-23T14:55:04.325Z</time></trkpt><trkpt lat="34.0291983" lon="8.085195"><ele>-15.25</ele><time>2026-04-23T14:55:05.325Z</time></trkpt><trkpt lat="34.0292733" lon="8.0853433"><ele>-15.5</ele><time>2026-04-23T14:55:06.325Z</time></trkpt><trkpt lat="34.0293483" lon="8.08549"><ele>-15.75</ele><time>2026-04-23T14:55:07.326Z</time></trkpt><trkpt lat="34.0294317" lon="8.0856483"><ele>-16.0</ele><time>2026-04-23T14:55:08.326Z</time></trkpt><trkpt lat="34.02951" lon="8.0857967"><ele>-16.0</ele><time>2026-04-23T14:55:09.326Z</time></trkpt><trkpt lat="34.0295883" lon="8.085945"><ele>-16.0</ele><time>2026-04-23T14:55:10.326Z</time></trkpt><trkpt lat="34.0296617" lon="8.086095"><ele>-16.0</ele><time>2026-04-23T14:55:11.326Z</time></trkpt><trkpt lat="34.0297417" lon="8.0862467"><ele>-16.0</ele><time>2026-04-23T14:55:12.325Z</time></trkpt><trkpt lat="34.02982" lon="8.086405"><ele>-16.0</ele><time>2026-04-23T14:55:13.325Z</time></trkpt><trkpt lat="34.0298967" lon="8.0865583"><ele>-16.0</ele><time>2026-04-23T14:55:14.325Z</time></trkpt><trkpt lat="34.0299717" lon="8.086715"><ele>-16.0</ele><time>2026-04-23T14:55:15.325Z</time></trkpt><trkpt lat="34.0300483" lon="8.0868717"><ele>-16.0</ele><time>2026-04-23T14:55:16.325Z</time></trkpt><trkpt lat="34.0301333" lon="8.087025"><ele>-16.333333333333332</ele><time>2026-04-23T14:55:17.326Z</time></trkpt><trkpt lat="34.03022" lon="8.0871783"><ele>-16.666666666666668</ele><time>2026-04-23T14:55:18.326Z</time></trkpt><trkpt lat="34.030295" lon="8.0873333"><ele>-17.0</ele><time>2026-04-23T14:55:19.326Z</time></trkpt><trkpt lat="34.03037" lon="8.0875"><ele>-16.333333333333336</ele><time>2026-04-23T14:55:20.326Z</time></trkpt><trkpt lat="34.0304467" lon="8.0876617"><ele>-15.666666666666668</ele><time>2026-04-23T14:55:21.325Z</time></trkpt><trkpt lat="34.0305333" lon="8.08782"><ele>-15.0</ele><time>2026-04-23T14:55:22.325Z</time></trkpt><trkpt lat="34.0306167" lon="8.0879733"><ele>-15.0</ele><time>2026-04-23T14:55:23.326Z</time></trkpt><trkpt lat="34.0306933" lon="8.0881233"><ele>-15.0</ele><time>2026-04-23T14:55:24.325Z</time></trkpt><trkpt lat="34.0307717" lon="8.0882733"><ele>-15.0</ele><time>2026-04-23T14:55:25.324Z</time></trkpt><trkpt lat="34.03086" lon="8.08842"><ele>-15.0</ele><time>2026-04-23T14:55:26.325Z</time></trkpt><trkpt lat="34.030945" lon="8.0885683"><ele>-15.0</ele><time>2026-04-23T14:55:27.324Z</time></trkpt><trkpt lat="34.031025" lon="8.0887217"><ele>-15.0</ele><time>2026-04-23T14:55:28.325Z</time></trkpt><trkpt lat="34.0311083" lon="8.088875"><ele>-15.0</ele><time>2026-04-23T14:55:29.325Z</time></trkpt><trkpt lat="34.0311883" lon="8.0890233"><ele>-15.0</ele><time>2026-04-23T14:55:30.324Z</time></trkpt><trkpt lat="34.0312683" lon="8.0891767"><ele>-15.0</ele><time>2026-04-23T14:55:31.325Z</time></trkpt><trkpt lat="34.03135" lon="8.0893283"><ele>-15.0</ele><time>2026-04-23T14:55:32.324Z</time></trkpt><trkpt lat="34.0314333" lon="8.089485"><ele>-15.0</ele><time>2026-04-23T14:55:33.324Z</time></trkpt><trkpt lat="34.0315167" lon="8.0896317"><ele>-15.0</ele><time>2026-04-23T14:55:34.324Z</time></trkpt><trkpt lat="34.0315983" lon="8.0897883"><ele>-15.0</ele><time>2026-04-23T14:55:35.324Z</time></trkpt><trkpt lat="34.0316733" lon="8.0899417"><ele>-15.0</ele><time>2026-04-23T14:55:36.325Z</time></trkpt><trkpt lat="34.0317517" lon="8.0901083"><ele>-15.0</ele><time>2026-04-23T14:55:37.324Z</time></trkpt><trkpt lat="34.0318267" lon="8.09027"><ele>-15.0</ele><time>2026-04-23T14:55:38.325Z</time></trkpt><trkpt lat="34.0319017" lon="8.0904317"><ele>-15.0</ele><time>2026-04-23T14:55:39.325Z</time></trkpt><trkpt lat="34.0319767" lon="8.0905917"><ele>-15.0</ele><time>2026-04-23T14:55:40.325Z</time></trkpt><trkpt lat="34.0320533" lon="8.0907517"><ele>-15.0</ele><time>2026-04-23T14:55:41.325Z</time></trkpt><trkpt lat="34.0321383" lon="8.0909133"><ele>-15.0</ele><time>2026-04-23T14:55:42.324Z</time></trkpt><trkpt lat="34.0322233" lon="8.0910767"><ele>-15.0</ele><time>2026-04-23T14:55:43.325Z</time></trkpt><trkpt lat="34.0323033" lon="8.0912367"><ele>-15.0</ele><time>2026-04-23T14:55:44.324Z</time></trkpt><trkpt lat="34.032385" lon="8.091405"><ele>-15.0</ele><time>2026-04-23T14:55:45.324Z</time></trkpt><trkpt lat="34.0324583" lon="8.0915667"><ele>-15.0</ele><time>2026-04-23T14:55:46.324Z</time></trkpt><trkpt lat="34.0325367" lon="8.0917317"><ele>-15.0</ele><time>2026-04-23T14:55:47.324Z</time></trkpt><trkpt lat="34.0326133" lon="8.0918917"><ele>-15.0</ele><time>2026-04-23T14:55:48.324Z</time></trkpt><trkpt lat="34.0326967" lon="8.0920533"><ele>-15.0</ele><time>2026-04-23T14:55:49.325Z</time></trkpt><trkpt lat="34.0327833" lon="8.0922133"><ele>-15.0</ele><time>2026-04-23T14:55:50.324Z</time></trkpt><trkpt lat="34.032865" lon="8.0923667"><ele>-15.0</ele><time>2026-04-23T14:55:51.325Z</time></trkpt><trkpt lat="34.0329433" lon="8.092525"><ele>-15.0</ele><time>2026-04-23T14:55:52.325Z</time></trkpt><trkpt lat="34.0330217" lon="8.0926767"><ele>-15.0</ele><time>2026-04-23T14:55:53.324Z</time></trkpt><trkpt lat="34.0330867" lon="8.0928167"><ele>-15.0</ele><time>2026-04-23T14:55:54.325Z</time></trkpt><trkpt lat="34.0331533" lon="8.0929417"><ele>-15.0</ele><time>2026-04-23T14:55:55.325Z</time></trkpt><trkpt lat="34.03322" lon="8.09307"><ele>-15.0</ele><time>2026-04-23T14:55:56.324Z</time></trkpt><trkpt lat="34.03329" lon="8.093205"><ele>-15.0</ele><time>2026-04-23T14:55:57.325Z</time></trkpt><trkpt lat="34.0333783" lon="8.09335"><ele>-15.0</ele><time>2026-04-23T14:55:58.324Z</time></trkpt><trkpt lat="34.0334683" lon="8.0935"><ele>-15.0</ele><time>2026-04-23T14:55:59.324Z</time></trkpt><trkpt lat="34.03356" lon="8.093645"><ele>-15.0</ele><time>2026-04-23T14:56:00.325Z</time></trkpt><trkpt lat="34.0336367" lon="8.093795"><ele>-15.0</ele><time>2026-04-23T14:56:01.325Z</time></trkpt><trkpt lat="34.0337" lon="8.093945"><ele>-15.0</ele><time>2026-04-23T14:56:02.325Z</time></trkpt><trkpt lat="34.03376" lon="8.0940917"><ele>-15.0</ele><time>2026-04-23T14:56:03.324Z</time></trkpt><trkpt lat="34.03382" lon="8.0942483"><ele>-15.0</ele><time>2026-04-23T14:56:04.324Z</time></trkpt><trkpt lat="34.03388" lon="8.09441"><ele>-15.0</ele><time>2026-04-23T14:56:05.324Z</time></trkpt><trkpt lat="34.0339283" lon="8.094575"><ele>-15.0</ele><time>2026-04-23T14:56:06.325Z</time></trkpt><trkpt lat="34.0339767" lon="8.094745"><ele>-15.0</ele><time>2026-04-23T14:56:07.324Z</time></trkpt><trkpt lat="34.0340217" lon="8.0949133"><ele>-15.0</ele><time>2026-04-23T14:56:08.325Z</time></trkpt><trkpt lat="34.034055" lon="8.0950783"><ele>-15.0</ele><time>2026-04-23T14:56:09.324Z</time></trkpt><trkpt lat="34.0340883" lon="8.09525"><ele>-15.0</ele><time>2026-04-23T14:56:10.324Z</time></trkpt><trkpt lat="34.0341183" lon="8.0954283"><ele>-15.0</ele><time>2026-04-23T14:56:11.325Z</time></trkpt><trkpt lat="34.0341417" lon="8.095605"><ele>-14.75</ele><time>2026-04-23T14:56:12.324Z</time></trkpt><trkpt lat="34.0341667" lon="8.0957767"><ele>-14.5</ele><time>2026-04-23T14:56:13.324Z</time></trkpt><trkpt lat="34.0341967" lon="8.0959467"><ele>-14.25</ele><time>2026-04-23T14:56:14.325Z</time></trkpt><trkpt lat="34.0342283" lon="8.096115"><ele>-14.0</ele><time>2026-04-23T14:56:15.325Z</time></trkpt><trkpt lat="34.0342633" lon="8.09628"><ele>-14.0</ele><time>2026-04-23T14:56:16.325Z</time></trkpt><trkpt lat="34.034305" lon="8.0964467"><ele>-14.0</ele><time>2026-04-23T14:56:17.325Z</time></trkpt><trkpt lat="34.0343433" lon="8.09661"><ele>-14.0</ele><time>2026-04-23T14:56:18.325Z</time></trkpt><trkpt lat="34.03438" lon="8.096765"><ele>-14.0</ele><time>2026-04-23T14:56:19.325Z</time></trkpt><trkpt lat="34.0344267" lon="8.09692"><ele>-14.0</ele><time>2026-04-23T14:56:20.324Z</time></trkpt><trkpt lat="34.0344767" lon="8.09707"><ele>-14.0</ele><time>2026-04-23T14:56:21.324Z</time></trkpt><trkpt lat="34.0345267" lon="8.0972183"><ele>-14.0</ele><time>2026-04-23T14:56:22.324Z</time></trkpt><trkpt lat="34.0345833" lon="8.09737"><ele>-14.0</ele><time>2026-04-23T14:56:23.324Z</time></trkpt><trkpt lat="34.0346383" lon="8.097525"><ele>-14.0</ele><time>2026-04-23T14:56:24.325Z</time></trkpt><trkpt lat="34.034685" lon="8.0976733"><ele>-14.0</ele><time>2026-04-23T14:56:25.324Z</time></trkpt><trkpt lat="34.0347383" lon="8.09782"><ele>-14.0</ele><time>2026-04-23T14:56:26.325Z</time></trkpt><trkpt lat="34.0348117" lon="8.09796"><ele>-14.0</ele><time>2026-04-23T14:56:27.324Z</time></trkpt><trkpt lat="34.0348917" lon="8.0980933"><ele>-14.0</ele><time>2026-04-23T14:56:28.325Z</time></trkpt><trkpt lat="34.0349733" lon="8.0982283"><ele>-14.0</ele><time>2026-04-23T14:56:29.325Z</time></trkpt><trkpt lat="34.0350617" lon="8.0983633"><ele>-14.0</ele><time>2026-04-23T14:56:30.325Z</time></trkpt><trkpt lat="34.035145" lon="8.0984967"><ele>-14.0</ele><time>2026-04-23T14:56:31.325Z</time></trkpt><trkpt lat="34.0352333" lon="8.0986333"><ele>-13.75</ele><time>2026-04-23T14:56:32.325Z</time></trkpt><trkpt lat="34.03532" lon="8.0987683"><ele>-13.5</ele><time>2026-04-23T14:56:33.324Z</time></trkpt><trkpt lat="34.0354133" lon="8.0989017"><ele>-13.25</ele><time>2026-04-23T14:56:34.324Z</time></trkpt><trkpt lat="34.0355083" lon="8.09904"><ele>-13.0</ele><time>2026-04-23T14:56:35.325Z</time></trkpt><trkpt lat="34.0356033" lon="8.0991733"><ele>-13.0</ele><time>2026-04-23T14:56:36.325Z</time></trkpt><trkpt lat="34.0356933" lon="8.0993067"><ele>-13.0</ele><time>2026-04-23T14:56:37.324Z</time></trkpt><trkpt lat="34.035785" lon="8.0994483"><ele>-13.0</ele><time>2026-04-23T14:56:38.325Z</time></trkpt><trkpt lat="34.03588" lon="8.0995933"><ele>-13.0</ele><time>2026-04-23T14:56:39.324Z</time></trkpt><trkpt lat="34.0359683" lon="8.09974"><ele>-13.25</ele><time>2026-04-23T14:56:40.324Z</time></trkpt><trkpt lat="34.036045" lon="8.099895"><ele>-13.5</ele><time>2026-04-23T14:56:41.325Z</time></trkpt><trkpt lat="34.03612" lon="8.1000433"><ele>-13.75</ele><time>2026-04-23T14:56:42.324Z</time></trkpt><trkpt lat="34.0362" lon="8.1002017"><ele>-14.0</ele><time>2026-04-23T14:56:43.324Z</time></trkpt><trkpt lat="34.0362733" lon="8.1003583"><ele>-14.25</ele><time>2026-04-23T14:56:44.324Z</time></trkpt><trkpt lat="34.0363417" lon="8.100515"><ele>-14.5</ele><time>2026-04-23T14:56:45.324Z</time></trkpt><trkpt lat="34.0364083" lon="8.1006767"><ele>-14.75</ele><time>2026-04-23T14:56:46.324Z</time></trkpt><trkpt lat="34.036485" lon="8.1008333"><ele>-15.0</ele><time>2026-04-23T14:56:47.324Z</time></trkpt><trkpt lat="34.0365567" lon="8.1009917"><ele>-15.0</ele><time>2026-04-23T14:56:48.325Z</time></trkpt><trkpt lat="34.0366267" lon="8.1011467"><ele>-15.0</ele><time>2026-04-23T14:56:49.325Z</time></trkpt><trkpt lat="34.0367" lon="8.101295"><ele>-15.0</ele><time>2026-04-23T14:56:50.325Z</time></trkpt><trkpt lat="34.0367667" lon="8.1014483"><ele>-15.0</ele><time>2026-04-23T14:56:51.324Z</time></trkpt><trkpt lat="34.0368283" lon="8.1016133"><ele>-14.75</ele><time>2026-04-23T14:56:52.324Z</time></trkpt><trkpt lat="34.03689" lon="8.101765"><ele>-14.5</ele><time>2026-04-23T14:56:53.325Z</time></trkpt><trkpt lat="34.0369467" lon="8.10192"><ele>-14.25</ele><time>2026-04-23T14:56:54.324Z</time></trkpt><trkpt lat="34.0370083" lon="8.102075"><ele>-14.0</ele><time>2026-04-23T14:56:55.324Z</time></trkpt><trkpt lat="34.037075" lon="8.1022233"><ele>-14.0</ele><time>2026-04-23T14:56:56.325Z</time></trkpt><trkpt lat="34.03715" lon="8.1023717"><ele>-14.0</ele><time>2026-04-23T14:56:57.325Z</time></trkpt><trkpt lat="34.0372217" lon="8.1025217"><ele>-14.0</ele><time>2026-04-23T14:56:58.324Z</time></trkpt><trkpt lat="34.0372917" lon="8.1026717"><ele>-14.0</ele><time>2026-04-23T14:56:59.324Z</time></trkpt><trkpt lat="34.0373583" lon="8.10282"><ele>-14.0</ele><time>2026-04-23T14:57:00.325Z</time></trkpt><trkpt lat="34.0374317" lon="8.1029633"><ele>-14.0</ele><time>2026-04-23T14:57:01.325Z</time></trkpt><trkpt lat="34.03751" lon="8.1031083"><ele>-14.0</ele><time>2026-04-23T14:57:02.325Z</time></trkpt><trkpt lat="34.0375883" lon="8.1032583"><ele>-14.0</ele><time>2026-04-23T14:57:03.323Z</time></trkpt><trkpt lat="34.0376633" lon="8.1034017"><ele>-14.0</ele><time>2026-04-23T14:57:04.325Z</time></trkpt><trkpt lat="34.037745" lon="8.10355"><ele>-14.0</ele><time>2026-04-23T14:57:05.324Z</time></trkpt><trkpt lat="34.0378183" lon="8.103695"><ele>-14.0</ele><time>2026-04-23T14:57:06.324Z</time></trkpt><trkpt lat="34.0378967" lon="8.10384"><ele>-14.0</ele><time>2026-04-23T14:57:07.324Z</time></trkpt><trkpt lat="34.0379683" lon="8.1039783"><ele>-14.0</ele><time>2026-04-23T14:57:08.324Z</time></trkpt><trkpt lat="34.038045" lon="8.10413"><ele>-14.0</ele><time>2026-04-23T14:57:09.325Z</time></trkpt><trkpt lat="34.0381183" lon="8.1042783"><ele>-14.0</ele><time>2026-04-23T14:57:10.325Z</time></trkpt><trkpt lat="34.0381933" lon="8.104425"><ele>-14.0</ele><time>2026-04-23T14:57:11.325Z</time></trkpt><trkpt lat="34.03827" lon="8.1045717"><ele>-14.0</ele><time>2026-04-23T14:57:12.324Z</time></trkpt><trkpt lat="34.0383483" lon="8.104725"><ele>-14.0</ele><time>2026-04-23T14:57:13.324Z</time></trkpt><trkpt lat="34.0384267" lon="8.1048733"><ele>-14.0</ele><time>2026-04-23T14:57:14.324Z</time></trkpt><trkpt lat="34.03852" lon="8.1050217"><ele>-14.0</ele><time>2026-04-23T14:57:15.324Z</time></trkpt><trkpt lat="34.0386133" lon="8.1051667"><ele>-14.0</ele><time>2026-04-23T14:57:16.324Z</time></trkpt><trkpt lat="34.0387133" lon="8.105305"><ele>-14.0</ele><time>2026-04-23T14:57:17.325Z</time></trkpt><trkpt lat="34.0388117" lon="8.105445"><ele>-14.0</ele><time>2026-04-23T14:57:18.325Z</time></trkpt><trkpt lat="34.03891" lon="8.10558"><ele>-14.0</ele><time>2026-04-23T14:57:19.324Z</time></trkpt><trkpt lat="34.0390133" lon="8.1057083"><ele>-14.0</ele><time>2026-04-23T14:57:20.325Z</time></trkpt><trkpt lat="34.039115" lon="8.10584"><ele>-14.0</ele><time>2026-04-23T14:57:21.324Z</time></trkpt><trkpt lat="34.0392183" lon="8.105975"><ele>-13.333333333333334</ele><time>2026-04-23T14:57:22.325Z</time></trkpt><trkpt lat="34.0393167" lon="8.106115"><ele>-12.666666666666668</ele><time>2026-04-23T14:57:23.324Z</time></trkpt><trkpt lat="34.0394183" lon="8.10625"><ele>-12.0</ele><time>2026-04-23T14:57:24.324Z</time></trkpt><trkpt lat="34.0395167" lon="8.1063883"><ele>-12.0</ele><time>2026-04-23T14:57:25.324Z</time></trkpt><trkpt lat="34.0396183" lon="8.1065233"><ele>-12.0</ele><time>2026-04-23T14:57:26.325Z</time></trkpt><trkpt lat="34.0397133" lon="8.1066617"><ele>-12.0</ele><time>2026-04-23T14:57:27.325Z</time></trkpt><trkpt lat="34.039805" lon="8.1068033"><ele>-12.0</ele><time>2026-04-23T14:57:28.325Z</time></trkpt><trkpt lat="34.039895" lon="8.106945"><ele>-12.0</ele><time>2026-04-23T14:57:29.325Z</time></trkpt><trkpt lat="34.0399833" lon="8.107085"><ele>-12.0</ele><time>2026-04-23T14:57:30.325Z</time></trkpt><trkpt lat="34.0400733" lon="8.1072283"><ele>-12.0</ele><time>2026-04-23T14:57:31.325Z</time></trkpt><trkpt lat="34.0401667" lon="8.1073717"><ele>-12.0</ele><time>2026-04-23T14:57:32.325Z</time></trkpt><trkpt lat="34.040255" lon="8.1075117"><ele>-12.0</ele><time>2026-04-23T14:57:33.324Z</time></trkpt><trkpt lat="34.0403433" lon="8.1076533"><ele>-12.0</ele><time>2026-04-23T14:57:34.325Z</time></trkpt><trkpt lat="34.0404333" lon="8.1078"><ele>-12.0</ele><time>2026-04-23T14:57:35.324Z</time></trkpt><trkpt lat="34.0405267" lon="8.107945"><ele>-12.0</ele><time>2026-04-23T14:57:36.325Z</time></trkpt><trkpt lat="34.04062" lon="8.1080983"><ele>-12.0</ele><time>2026-04-23T14:57:37.324Z</time></trkpt><trkpt lat="34.04071" lon="8.1082517"><ele>-12.0</ele><time>2026-04-23T14:57:38.324Z</time></trkpt><trkpt lat="34.0407967" lon="8.1084017"><ele>-12.333333333333332</ele><time>2026-04-23T14:57:39.324Z</time></trkpt><trkpt lat="34.0408767" lon="8.108555"><ele>-12.666666666666666</ele><time>2026-04-23T14:57:40.324Z</time></trkpt><trkpt lat="34.0409533" lon="8.108715"><ele>-13.0</ele><time>2026-04-23T14:57:41.324Z</time></trkpt><trkpt lat="34.0410283" lon="8.1088783"><ele>-13.0</ele><time>2026-04-23T14:57:42.325Z</time></trkpt><trkpt lat="34.0411" lon="8.1090433"><ele>-13.0</ele><time>2026-04-23T14:57:43.325Z</time></trkpt><trkpt lat="34.04117" lon="8.1092183"><ele>-13.0</ele><time>2026-04-23T14:57:44.324Z</time></trkpt><trkpt lat="34.0412333" lon="8.10939"><ele>-12.666666666666666</ele><time>2026-04-23T14:57:45.325Z</time></trkpt><trkpt lat="34.04129" lon="8.1095683"><ele>-12.333333333333332</ele><time>2026-04-23T14:57:46.325Z</time></trkpt><trkpt lat="34.0413433" lon="8.10974"><ele>-12.0</ele><time>2026-04-23T14:57:47.325Z</time></trkpt><trkpt lat="34.0414" lon="8.1099167"><ele>-12.0</ele><time>2026-04-23T14:57:48.325Z</time></trkpt><trkpt lat="34.0414517" lon="8.11009"><ele>-12.0</ele><time>2026-04-23T14:57:49.324Z</time></trkpt><trkpt lat="34.0415033" lon="8.1102683"><ele>-12.0</ele><time>2026-04-23T14:57:50.325Z</time></trkpt><trkpt lat="34.04155" lon="8.110445"><ele>-12.0</ele><time>2026-04-23T14:57:51.325Z</time></trkpt><trkpt lat="34.0415983" lon="8.110625"><ele>-12.0</ele><time>2026-04-23T14:57:52.324Z</time></trkpt><trkpt lat="34.0416467" lon="8.110805"><ele>-12.0</ele><time>2026-04-23T14:57:53.325Z</time></trkpt><trkpt lat="34.0416933" lon="8.110985"><ele>-12.333333333333332</ele><time>2026-04-23T14:57:54.325Z</time></trkpt><trkpt lat="34.0417483" lon="8.1111667"><ele>-12.666666666666666</ele><time>2026-04-23T14:57:55.324Z</time></trkpt><trkpt lat="34.0418" lon="8.111345"><ele>-13.0</ele><time>2026-04-23T14:57:56.325Z</time></trkpt><trkpt lat="34.0418583" lon="8.1115217"><ele>-12.666666666666666</ele><time>2026-04-23T14:57:57.325Z</time></trkpt><trkpt lat="34.041915" lon="8.111695"><ele>-12.333333333333332</ele><time>2026-04-23T14:57:58.325Z</time></trkpt><trkpt lat="34.0419733" lon="8.111865"><ele>-12.0</ele><time>2026-04-23T14:57:59.324Z</time></trkpt><trkpt lat="34.0420317" lon="8.112035"><ele>-12.0</ele><time>2026-04-23T14:58:00.324Z</time></trkpt><trkpt lat="34.0420917" lon="8.1122033"><ele>-12.0</ele><time>2026-04-23T14:58:01.325Z</time></trkpt><trkpt lat="34.042145" lon="8.11238"><ele>-12.0</ele><time>2026-04-23T14:58:02.324Z</time></trkpt><trkpt lat="34.0422" lon="8.112555"><ele>-11.666666666666666</ele><time>2026-04-23T14:58:03.324Z</time></trkpt><trkpt lat="34.0422583" lon="8.1127383"><ele>-11.333333333333332</ele><time>2026-04-23T14:58:04.324Z</time></trkpt><trkpt lat="34.04231" lon="8.1129217"><ele>-11.0</ele><time>2026-04-23T14:58:05.324Z</time></trkpt><trkpt lat="34.0423617" lon="8.1131"><ele>-11.0</ele><time>2026-04-23T14:58:06.324Z</time></trkpt><trkpt lat="34.0424183" lon="8.113285"><ele>-11.0</ele><time>2026-04-23T14:58:07.325Z</time></trkpt><trkpt lat="34.0424767" lon="8.113465"><ele>-11.0</ele><time>2026-04-23T14:58:08.324Z</time></trkpt><trkpt lat="34.0425333" lon="8.1136333"><ele>-11.333333333333332</ele><time>2026-04-23T14:58:09.325Z</time></trkpt><trkpt lat="34.0425917" lon="8.1138017"><ele>-11.666666666666666</ele><time>2026-04-23T14:58:10.324Z</time></trkpt><trkpt lat="34.0426467" lon="8.11397"><ele>-12.0</ele><time>2026-04-23T14:58:11.325Z</time></trkpt><trkpt lat="34.04271" lon="8.1141333"><ele>-12.333333333333332</ele><time>2026-04-23T14:58:12.325Z</time></trkpt><trkpt lat="34.0427783" lon="8.1142983"><ele>-12.666666666666666</ele><time>2026-04-23T14:58:13.325Z</time></trkpt><trkpt lat="34.042845" lon="8.11447"><ele>-13.0</ele><time>2026-04-23T14:58:14.325Z</time></trkpt><trkpt lat="34.04291" lon="8.114635"><ele>-13.0</ele><time>2026-04-23T14:58:15.325Z</time></trkpt><trkpt lat="34.04297" lon="8.11481"><ele>-13.0</ele><time>2026-04-23T14:58:16.324Z</time></trkpt><trkpt lat="34.0430383" lon="8.1149767"><ele>-13.0</ele><time>2026-04-23T14:58:17.324Z</time></trkpt><trkpt lat="34.043105" lon="8.1151467"><ele>-13.0</ele><time>2026-04-23T14:58:18.325Z</time></trkpt><trkpt lat="34.0431767" lon="8.1153133"><ele>-13.0</ele><time>2026-04-23T14:58:19.324Z</time></trkpt><trkpt lat="34.04325" lon="8.1154783"><ele>-13.0</ele><time>2026-04-23T14:58:20.324Z</time></trkpt><trkpt lat="34.0433283" lon="8.1156333"><ele>-12.0</ele><time>2026-04-23T14:58:21.324Z</time></trkpt><trkpt lat="34.0434133" lon="8.1157867"><ele>-11.0</ele><time>2026-04-23T14:58:22.325Z</time></trkpt><trkpt lat="34.0435033" lon="8.1159433"><ele>-10.0</ele><time>2026-04-23T14:58:23.325Z</time></trkpt><trkpt lat="34.0435883" lon="8.1160967"><ele>-10.0</ele><time>2026-04-23T14:58:24.325Z</time></trkpt><trkpt lat="34.0436717" lon="8.1162467"><ele>-10.0</ele><time>2026-04-23T14:58:25.325Z</time></trkpt><trkpt lat="34.04376" lon="8.1164033"><ele>-10.0</ele><time>2026-04-23T14:58:26.324Z</time></trkpt><trkpt lat="34.0438517" lon="8.1165517"><ele>-10.333333333333334</ele><time>2026-04-23T14:58:27.325Z</time></trkpt><trkpt lat="34.0439333" lon="8.1167017"><ele>-10.666666666666666</ele><time>2026-04-23T14:58:28.325Z</time></trkpt><trkpt lat="34.0440183" lon="8.1168617"><ele>-11.0</ele><time>2026-04-23T14:58:29.325Z</time></trkpt><trkpt lat="34.044095" lon="8.1170267"><ele>-11.0</ele><time>2026-04-23T14:58:30.325Z</time></trkpt><trkpt lat="34.0441733" lon="8.1171883"><ele>-11.0</ele><time>2026-04-23T14:58:31.324Z</time></trkpt><trkpt lat="34.044245" lon="8.1173517"><ele>-11.0</ele><time>2026-04-23T14:58:32.324Z</time></trkpt><trkpt lat="34.0443083" lon="8.1175233"><ele>-11.0</ele><time>2026-04-23T14:58:33.324Z</time></trkpt><trkpt lat="34.0443733" lon="8.1176917"><ele>-11.0</ele><time>2026-04-23T14:58:34.325Z</time></trkpt><trkpt lat="34.044435" lon="8.117855"><ele>-11.0</ele><time>2026-04-23T14:58:35.324Z</time></trkpt><trkpt lat="34.044495" lon="8.1180217"><ele>-11.0</ele><time>2026-04-23T14:58:36.324Z</time></trkpt><trkpt lat="34.04455" lon="8.1181933"><ele>-11.0</ele><time>2026-04-23T14:58:37.325Z</time></trkpt><trkpt lat="34.0446067" lon="8.1183633"><ele>-11.0</ele><time>2026-04-23T14:58:38.324Z</time></trkpt><trkpt lat="34.0446583" lon="8.1185383"><ele>-10.666666666666666</ele><time>2026-04-23T14:58:39.324Z</time></trkpt><trkpt lat="34.0447117" lon="8.1187117"><ele>-10.333333333333334</ele><time>2026-04-23T14:58:40.325Z</time></trkpt><trkpt lat="34.0447617" lon="8.118885"><ele>-10.0</ele><time>2026-04-23T14:58:41.325Z</time></trkpt><trkpt lat="34.0448133" lon="8.1190567"><ele>-10.0</ele><time>2026-04-23T14:58:42.324Z</time></trkpt><trkpt lat="34.0448667" lon="8.119225"><ele>-10.0</ele><time>2026-04-23T14:58:43.324Z</time></trkpt><trkpt lat="34.0449217" lon="8.1193967"><ele>-10.0</ele><time>2026-04-23T14:58:44.324Z</time></trkpt><trkpt lat="34.044975" lon="8.1195733"><ele>-10.0</ele><time>2026-04-23T14:58:45.324Z</time></trkpt><trkpt lat="34.0450217" lon="8.1197333"><ele>-10.0</ele><time>2026-04-23T14:58:46.324Z</time></trkpt><trkpt lat="34.04506" lon="8.1198933"><ele>-10.0</ele><time>2026-04-23T14:58:47.323Z</time></trkpt><trkpt lat="34.0450917" lon="8.1200517"><ele>-10.0</ele><time>2026-04-23T14:58:48.324Z</time></trkpt><trkpt lat="34.0451217" lon="8.120215"><ele>-10.0</ele><time>2026-04-23T14:58:49.324Z</time></trkpt><trkpt lat="34.045155" lon="8.120375"><ele>-10.0</ele><time>2026-04-23T14:58:50.323Z</time></trkpt><trkpt lat="34.0451917" lon="8.1205417"><ele>-10.0</ele><time>2026-04-23T14:58:51.323Z</time></trkpt><trkpt lat="34.0452383" lon="8.1207083"><ele>-10.0</ele><time>2026-04-23T14:58:52.324Z</time></trkpt><trkpt lat="34.0452717" lon="8.1208733"><ele>-10.25</ele><time>2026-04-23T14:58:53.324Z</time></trkpt><trkpt lat="34.0452967" lon="8.1210467"><ele>-10.5</ele><time>2026-04-23T14:58:54.324Z</time></trkpt><trkpt lat="34.04532" lon="8.12122"><ele>-10.75</ele><time>2026-04-23T14:58:55.324Z</time></trkpt><trkpt lat="34.0453383" lon="8.1213883"><ele>-11.0</ele><time>2026-04-23T14:58:56.324Z</time></trkpt><trkpt lat="34.0453567" lon="8.1215383"><ele>-10.833333333333332</ele><time>2026-04-23T14:58:57.324Z</time></trkpt><trkpt lat="34.045375" lon="8.1216683"><ele>-10.666666666666666</ele><time>2026-04-23T14:58:58.323Z</time></trkpt><trkpt lat="34.045395" lon="8.1217817"><ele>-10.5</ele><time>2026-04-23T14:58:59.324Z</time></trkpt><trkpt lat="34.0454217" lon="8.1218817"><ele>-10.333333333333334</ele><time>2026-04-23T14:59:00.323Z</time></trkpt><trkpt lat="34.045445" lon="8.1219683"><ele>-10.166666666666668</ele><time>2026-04-23T14:59:01.324Z</time></trkpt><trkpt lat="34.04548" lon="8.1220483"><ele>-10.0</ele><time>2026-04-23T14:59:02.324Z</time></trkpt><trkpt lat="34.0455267" lon="8.12213"><ele>-10.0</ele><time>2026-04-23T14:59:03.324Z</time></trkpt><trkpt lat="34.04557" lon="8.12222"><ele>-10.0</ele><time>2026-04-23T14:59:04.324Z</time></trkpt><trkpt lat="34.0456217" lon="8.12231"><ele>-10.0</ele><time>2026-04-23T14:59:05.324Z</time></trkpt><trkpt lat="34.04568" lon="8.1224033"><ele>-10.0</ele><time>2026-04-23T14:59:06.324Z</time></trkpt><trkpt lat="34.0457383" lon="8.122505"><ele>-10.0</ele><time>2026-04-23T14:59:07.323Z</time></trkpt><trkpt lat="34.0457933" lon="8.1226017"><ele>-9.8</ele><time>2026-04-23T14:59:08.323Z</time></trkpt><trkpt lat="34.04585" lon="8.1227017"><ele>-9.6</ele><time>2026-04-23T14:59:09.324Z</time></trkpt><trkpt lat="34.0459067" lon="8.1228033"><ele>-9.4</ele><time>2026-04-23T14:59:10.324Z</time></trkpt><trkpt lat="34.0459683" lon="8.1229083"><ele>-9.2</ele><time>2026-04-23T14:59:11.324Z</time></trkpt><trkpt lat="34.04603" lon="8.1230117"><ele>-9.0</ele><time>2026-04-23T14:59:12.323Z</time></trkpt><trkpt lat="34.0460967" lon="8.1231133"><ele>-9.0</ele><time>2026-04-23T14:59:13.323Z</time></trkpt><trkpt lat="34.04616" lon="8.12322"><ele>-9.0</ele><time>2026-04-23T14:59:14.324Z</time></trkpt><trkpt lat="34.0462217" lon="8.1233267"><ele>-9.0</ele><time>2026-04-23T14:59:15.324Z</time></trkpt><trkpt lat="34.0462833" lon="8.123435"><ele>-9.0</ele><time>2026-04-23T14:59:16.324Z</time></trkpt><trkpt lat="34.0463417" lon="8.1235517"><ele>-9.0</ele><time>2026-04-23T14:59:17.323Z</time></trkpt><trkpt lat="34.0464067" lon="8.1236633"><ele>-9.25</ele><time>2026-04-23T14:59:18.323Z</time></trkpt><trkpt lat="34.0464717" lon="8.1237817"><ele>-9.5</ele><time>2026-04-23T14:59:19.324Z</time></trkpt><trkpt lat="34.0465333" lon="8.1239"><ele>-9.75</ele><time>2026-04-23T14:59:20.324Z</time></trkpt><trkpt lat="34.0465983" lon="8.1240133"><ele>-10.0</ele><time>2026-04-23T14:59:21.323Z</time></trkpt><trkpt lat="34.0466517" lon="8.1241217"><ele>-10.2</ele><time>2026-04-23T14:59:22.324Z</time></trkpt><trkpt lat="34.0466983" lon="8.124225"><ele>-10.4</ele><time>2026-04-23T14:59:23.323Z</time></trkpt><trkpt lat="34.0467433" lon="8.124335"><ele>-10.600000000000001</ele><time>2026-04-23T14:59:24.324Z</time></trkpt><trkpt lat="34.04679" lon="8.124445"><ele>-10.8</ele><time>2026-04-23T14:59:25.323Z</time></trkpt><trkpt lat="34.0468383" lon="8.1245583"><ele>-11.0</ele><time>2026-04-23T14:59:26.324Z</time></trkpt><trkpt lat="34.046885" lon="8.1246733"><ele>-11.0</ele><time>2026-04-23T14:59:27.323Z</time></trkpt><trkpt lat="34.046935" lon="8.1247917"><ele>-11.0</ele><time>2026-04-23T14:59:28.324Z</time></trkpt><trkpt lat="34.0469783" lon="8.1249083"><ele>-11.0</ele><time>2026-04-23T14:59:29.323Z</time></trkpt><trkpt lat="34.0470133" lon="8.1250317"><ele>-11.0</ele><time>2026-04-23T14:59:30.323Z</time></trkpt><trkpt lat="34.0470433" lon="8.12516"><ele>-11.0</ele><time>2026-04-23T14:59:31.323Z</time></trkpt><trkpt lat="34.0470683" lon="8.1252967"><ele>-10.75</ele><time>2026-04-23T14:59:32.323Z</time></trkpt><trkpt lat="34.047085" lon="8.1254333"><ele>-10.5</ele><time>2026-04-23T14:59:33.324Z</time></trkpt><trkpt lat="34.0471033" lon="8.1255733"><ele>-10.25</ele><time>2026-04-23T14:59:34.324Z</time></trkpt><trkpt lat="34.0471233" lon="8.1257133"><ele>-10.0</ele><time>2026-04-23T14:59:35.324Z</time></trkpt><trkpt lat="34.0471417" lon="8.12586"><ele>-10.0</ele><time>2026-04-23T14:59:36.324Z</time></trkpt><trkpt lat="34.0471633" lon="8.1260017"><ele>-10.0</ele><time>2026-04-23T14:59:37.323Z</time></trkpt><trkpt lat="34.0471883" lon="8.1261433"><ele>-10.0</ele><time>2026-04-23T14:59:38.324Z</time></trkpt><trkpt lat="34.0472367" lon="8.12643"><ele>-10.0</ele><time>2026-04-23T14:59:40.324Z</time></trkpt><trkpt lat="34.0472517" lon="8.126575"><ele>-10.0</ele><time>2026-04-23T14:59:41.324Z</time></trkpt><trkpt lat="34.0472717" lon="8.1267033"><ele>-10.0</ele><time>2026-04-23T14:59:42.324Z</time></trkpt><trkpt lat="34.047285" lon="8.1268383"><ele>-10.0</ele><time>2026-04-23T14:59:43.324Z</time></trkpt><trkpt lat="34.0472883" lon="8.126975"><ele>-10.0</ele><time>2026-04-23T14:59:44.323Z</time></trkpt><trkpt lat="34.0472967" lon="8.1271067"><ele>-10.0</ele><time>2026-04-23T14:59:45.324Z</time></trkpt><trkpt lat="34.0473033" lon="8.1272383"><ele>-10.0</ele><time>2026-04-23T14:59:46.324Z</time></trkpt><trkpt lat="34.0473117" lon="8.1273783"><ele>-10.0</ele><time>2026-04-23T14:59:47.323Z</time></trkpt><trkpt lat="34.0473267" lon="8.1275117"><ele>-10.0</ele><time>2026-04-23T14:59:48.323Z</time></trkpt><trkpt lat="34.047345" lon="8.1276483"><ele>-10.0</ele><time>2026-04-23T14:59:49.324Z</time></trkpt><trkpt lat="34.0473583" lon="8.1277817"><ele>-10.0</ele><time>2026-04-23T14:59:50.323Z</time></trkpt><trkpt lat="34.047385" lon="8.1279133"><ele>-10.0</ele><time>2026-04-23T14:59:51.323Z</time></trkpt><trkpt lat="34.0474133" lon="8.128045"><ele>-10.0</ele><time>2026-04-23T14:59:52.324Z</time></trkpt><trkpt lat="34.04744" lon="8.1281783"><ele>-9.75</ele><time>2026-04-23T14:59:53.323Z</time></trkpt><trkpt lat="34.0474667" lon="8.1283183"><ele>-9.5</ele><time>2026-04-23T14:59:54.324Z</time></trkpt><trkpt lat="34.0474967" lon="8.128455"><ele>-9.25</ele><time>2026-04-23T14:59:55.323Z</time></trkpt><trkpt lat="34.04753" lon="8.1285917"><ele>-9.0</ele><time>2026-04-23T14:59:56.324Z</time></trkpt><trkpt lat="34.0475583" lon="8.1287267"><ele>-9.0</ele><time>2026-04-23T14:59:57.324Z</time></trkpt><trkpt lat="34.0475833" lon="8.12887"><ele>-9.0</ele><time>2026-04-23T14:59:58.323Z</time></trkpt><trkpt lat="34.0476" lon="8.1290117"><ele>-9.0</ele><time>2026-04-23T14:59:59.324Z</time></trkpt><trkpt lat="34.0476233" lon="8.12915"><ele>-9.0</ele><time>2026-04-23T15:00:00.324Z</time></trkpt><trkpt lat="34.0476417" lon="8.129285"><ele>-9.25</ele><time>2026-04-23T15:00:01.323Z</time></trkpt><trkpt lat="34.0476717" lon="8.1294333"><ele>-9.5</ele><time>2026-04-23T15:00:02.324Z</time></trkpt><trkpt lat="34.0477017" lon="8.12957"><ele>-9.75</ele><time>2026-04-23T15:00:03.323Z</time></trkpt><trkpt lat="34.0477367" lon="8.1297083"><ele>-10.0</ele><time>2026-04-23T15:00:04.323Z</time></trkpt><trkpt lat="34.0477683" lon="8.1298533"><ele>-10.0</ele><time>2026-04-23T15:00:05.324Z</time></trkpt><trkpt lat="34.0478083" lon="8.129995"><ele>-10.0</ele><time>2026-04-23T15:00:06.323Z</time></trkpt><trkpt lat="34.0478783" lon="8.1302733"><ele>-10.0</ele><time>2026-04-23T15:00:08.324Z</time></trkpt><trkpt lat="34.0479067" lon="8.130415"><ele>-10.0</ele><time>2026-04-23T15:00:09.323Z</time></trkpt><trkpt lat="34.0479333" lon="8.1305617"><ele>-10.0</ele><time>2026-04-23T15:00:10.324Z</time></trkpt><trkpt lat="34.0479583" lon="8.1307017"><ele>-10.0</ele><time>2026-04-23T15:00:11.324Z</time></trkpt><trkpt lat="34.0479767" lon="8.1308383"><ele>-10.0</ele><time>2026-04-23T15:00:12.323Z</time></trkpt><trkpt lat="34.0479933" lon="8.1309817"><ele>-10.0</ele><time>2026-04-23T15:00:13.324Z</time></trkpt><trkpt lat="34.0480017" lon="8.13113"><ele>-10.0</ele><time>2026-04-23T15:00:14.323Z</time></trkpt><trkpt lat="34.048015" lon="8.13128"><ele>-10.0</ele><time>2026-04-23T15:00:15.324Z</time></trkpt><trkpt lat="34.04803" lon="8.1314283"><ele>-10.0</ele><time>2026-04-23T15:00:16.323Z</time></trkpt><trkpt lat="34.0480467" lon="8.13158"><ele>-9.75</ele><time>2026-04-23T15:00:17.323Z</time></trkpt><trkpt lat="34.0480617" lon="8.1317317"><ele>-9.5</ele><time>2026-04-23T15:00:18.324Z</time></trkpt><trkpt lat="34.048075" lon="8.1318833"><ele>-9.25</ele><time>2026-04-23T15:00:19.323Z</time></trkpt><trkpt lat="34.0480917" lon="8.1320317"><ele>-9.0</ele><time>2026-04-23T15:00:20.324Z</time></trkpt><trkpt lat="34.0481033" lon="8.1321883"><ele>-9.0</ele><time>2026-04-23T15:00:21.323Z</time></trkpt><trkpt lat="34.048125" lon="8.1323483"><ele>-9.0</ele><time>2026-04-23T15:00:22.324Z</time></trkpt><trkpt lat="34.0481383" lon="8.132515"><ele>-9.0</ele><time>2026-04-23T15:00:23.323Z</time></trkpt><trkpt lat="34.048145" lon="8.13268"><ele>-9.0</ele><time>2026-04-23T15:00:24.323Z</time></trkpt><trkpt lat="34.04815" lon="8.13284"><ele>-9.0</ele><time>2026-04-23T15:00:25.324Z</time></trkpt><trkpt lat="34.0481617" lon="8.132995"><ele>-9.0</ele><time>2026-04-23T15:00:26.323Z</time></trkpt><trkpt lat="34.0481817" lon="8.13315"><ele>-9.0</ele><time>2026-04-23T15:00:27.323Z</time></trkpt><trkpt lat="34.0482067" lon="8.1333017"><ele>-9.0</ele><time>2026-04-23T15:00:28.323Z</time></trkpt><trkpt lat="34.0482267" lon="8.1334583"><ele>-9.0</ele><time>2026-04-23T15:00:29.324Z</time></trkpt><trkpt lat="34.0482533" lon="8.1336083"><ele>-9.0</ele><time>2026-04-23T15:00:30.323Z</time></trkpt><trkpt lat="34.0482817" lon="8.1337633"><ele>-9.0</ele><time>2026-04-23T15:00:31.324Z</time></trkpt><trkpt lat="34.04831" lon="8.1339333"><ele>-9.0</ele><time>2026-04-23T15:00:32.324Z</time></trkpt><trkpt lat="34.0483383" lon="8.1340967"><ele>-9.25</ele><time>2026-04-23T15:00:33.324Z</time></trkpt><trkpt lat="34.0483633" lon="8.1342533"><ele>-9.5</ele><time>2026-04-23T15:00:34.323Z</time></trkpt><trkpt lat="34.04838" lon="8.1343983"><ele>-9.75</ele><time>2026-04-23T15:00:35.323Z</time></trkpt><trkpt lat="34.0483967" lon="8.13454"><ele>-10.0</ele><time>2026-04-23T15:00:36.324Z</time></trkpt><trkpt lat="34.048415" lon="8.1346917"><ele>-10.0</ele><time>2026-04-23T15:00:37.324Z</time></trkpt><trkpt lat="34.04842" lon="8.1348417"><ele>-10.0</ele><time>2026-04-23T15:00:38.323Z</time></trkpt><trkpt lat="34.0484317" lon="8.134985"><ele>-10.0</ele><time>2026-04-23T15:00:39.324Z</time></trkpt><trkpt lat="34.0484433" lon="8.1351267"><ele>-10.0</ele><time>2026-04-23T15:00:40.323Z</time></trkpt><trkpt lat="34.0484517" lon="8.1352683"><ele>-9.75</ele><time>2026-04-23T15:00:41.323Z</time></trkpt><trkpt lat="34.0484583" lon="8.13541"><ele>-9.5</ele><time>2026-04-23T15:00:42.324Z</time></trkpt><trkpt lat="34.0484617" lon="8.13555"><ele>-9.25</ele><time>2026-04-23T15:00:43.323Z</time></trkpt><trkpt lat="34.0484617" lon="8.1356917"><ele>-9.0</ele><time>2026-04-23T15:00:44.324Z</time></trkpt><trkpt lat="34.04847" lon="8.135835"><ele>-9.0</ele><time>2026-04-23T15:00:45.324Z</time></trkpt><trkpt lat="34.048475" lon="8.135975"><ele>-9.0</ele><time>2026-04-23T15:00:46.323Z</time></trkpt><trkpt lat="34.04847" lon="8.136095"><ele>-9.0</ele><time>2026-04-23T15:00:47.324Z</time></trkpt><trkpt lat="34.0484617" lon="8.1362133"><ele>-9.0</ele><time>2026-04-23T15:00:48.323Z</time></trkpt><trkpt lat="34.0484517" lon="8.13632"><ele>-9.0</ele><time>2026-04-23T15:00:49.324Z</time></trkpt><trkpt lat="34.0484467" lon="8.13641"><ele>-9.0</ele><time>2026-04-23T15:00:50.323Z</time></trkpt><trkpt lat="34.0484433" lon="8.1364883"><ele>-9.0</ele><time>2026-04-23T15:00:51.324Z</time></trkpt><trkpt lat="34.0484583" lon="8.13661"><ele>-9.0</ele><time>2026-04-23T15:00:53.324Z</time></trkpt><trkpt lat="34.0484983" lon="8.1367183"><ele>-9.0</ele><time>2026-04-23T15:00:55.324Z</time></trkpt><trkpt lat="34.0485667" lon="8.1368017"><ele>-9.0</ele><time>2026-04-23T15:00:57.324Z</time></trkpt><trkpt lat="34.0486333" lon="8.1368433"><ele>-9.0</ele><time>2026-04-23T15:00:59.323Z</time></trkpt><trkpt lat="34.048695" lon="8.136905"><ele>-8.666666666666666</ele><time>2026-04-23T15:02:17.322Z</time></trkpt><trkpt lat="34.0487717" lon="8.136985"><ele>-8.333333333333334</ele><time>2026-04-23T15:02:19.323Z</time></trkpt><trkpt lat="34.0487933" lon="8.13707"><ele>-8.0</ele><time>2026-04-23T15:02:22.322Z</time></trkpt><trkpt lat="34.0487367" lon="8.13711"><ele>-7.666666666666667</ele><time>2026-04-23T15:02:24.323Z</time></trkpt><trkpt lat="34.0486317" lon="8.137165"><ele>-7.333333333333334</ele><time>2026-04-23T15:02:26.323Z</time></trkpt><trkpt lat="34.04857" lon="8.1372133"><ele>-7.0</ele><time>2026-04-23T15:02:27.322Z</time></trkpt><trkpt lat="34.0485067" lon="8.1372517"><ele>-7.000000000000001</ele><time>2026-04-23T15:02:28.323Z</time></trkpt><trkpt lat="34.0484383" lon="8.1372933"><ele>-7.0</ele><time>2026-04-23T15:02:29.322Z</time></trkpt><trkpt lat="34.0483667" lon="8.13734"><ele>-7.0</ele><time>2026-04-23T15:02:30.322Z</time></trkpt><trkpt lat="34.0482933" lon="8.1373917"><ele>-7.0</ele><time>2026-04-23T15:02:31.322Z</time></trkpt><trkpt lat="34.04821" lon="8.13744"><ele>-7.000000000000001</ele><time>2026-04-23T15:02:32.323Z</time></trkpt><trkpt lat="34.0481217" lon="8.137495"><ele>-7.0</ele><time>2026-04-23T15:02:33.323Z</time></trkpt><trkpt lat="34.0480283" lon="8.1375583"><ele>-7.0</ele><time>2026-04-23T15:02:34.322Z</time></trkpt><trkpt lat="34.0479333" lon="8.13762"><ele>-7.0</ele><time>2026-04-23T15:02:35.323Z</time></trkpt><trkpt lat="34.047835" lon="8.137685"><ele>-7.0</ele><time>2026-04-23T15:02:36.322Z</time></trkpt><trkpt lat="34.047735" lon="8.137755"><ele>-7.0</ele><time>2026-04-23T15:02:37.323Z</time></trkpt><trkpt lat="34.0476283" lon="8.1378183"><ele>-7.0</ele><time>2026-04-23T15:02:38.323Z</time></trkpt><trkpt lat="34.0475117" lon="8.137895"><ele>-7.0</ele><time>2026-04-23T15:02:39.322Z</time></trkpt><trkpt lat="34.0473967" lon="8.1379633"><ele>-7.0</ele><time>2026-04-23T15:02:40.322Z</time></trkpt><trkpt lat="34.04728" lon="8.13804"><ele>-7.0</ele><time>2026-04-23T15:02:41.323Z</time></trkpt><trkpt lat="34.0471583" lon="8.138105"><ele>-7.0</ele><time>2026-04-23T15:02:42.322Z</time></trkpt><trkpt lat="34.0469233" lon="8.1382583"><ele>-7.0</ele><time>2026-04-23T15:02:44.322Z</time></trkpt><trkpt lat="34.0468067" lon="8.13834"><ele>-7.0</ele><time>2026-04-23T15:02:45.323Z</time></trkpt><trkpt lat="34.04668" lon="8.13842"><ele>-6.75</ele><time>2026-04-23T15:02:46.323Z</time></trkpt><trkpt lat="34.0465567" lon="8.1385"><ele>-6.5</ele><time>2026-04-23T15:02:47.323Z</time></trkpt><trkpt lat="34.0464317" lon="8.138575"><ele>-6.25</ele><time>2026-04-23T15:02:48.323Z</time></trkpt><trkpt lat="34.0463" lon="8.1386633"><ele>-6.0</ele><time>2026-04-23T15:02:49.323Z</time></trkpt><trkpt lat="34.0461717" lon="8.13875"><ele>-6.0</ele><time>2026-04-23T15:02:50.323Z</time></trkpt><trkpt lat="34.0460383" lon="8.1388317"><ele>-6.0</ele><time>2026-04-23T15:02:51.323Z</time></trkpt><trkpt lat="34.045895" lon="8.1389167"><ele>-6.0</ele><time>2026-04-23T15:02:52.322Z</time></trkpt><trkpt lat="34.0457483" lon="8.1390033"><ele>-5.666666666666667</ele><time>2026-04-23T15:02:53.322Z</time></trkpt><trkpt lat="34.045605" lon="8.1391067"><ele>-5.333333333333334</ele><time>2026-04-23T15:02:54.322Z</time></trkpt><trkpt lat="34.0454583" lon="8.1392067"><ele>-5.0</ele><time>2026-04-23T15:02:55.323Z</time></trkpt><trkpt lat="34.0451517" lon="8.1393933"><ele>-5.0</ele><time>2026-04-23T15:02:57.322Z</time></trkpt><trkpt lat="34.0450017" lon="8.1394933"><ele>-5.0</ele><time>2026-04-23T15:02:58.322Z</time></trkpt><trkpt lat="34.0448483" lon="8.1395933"><ele>-5.0</ele><time>2026-04-23T15:02:59.323Z</time></trkpt><trkpt lat="34.044695" lon="8.1396917"><ele>-5.333333333333334</ele><time>2026-04-23T15:03:00.322Z</time></trkpt><trkpt lat="34.0445467" lon="8.1397933"><ele>-5.666666666666667</ele><time>2026-04-23T15:03:01.323Z</time></trkpt><trkpt lat="34.0443967" lon="8.1398883"><ele>-6.0</ele><time>2026-04-23T15:03:02.322Z</time></trkpt><trkpt lat="34.044245" lon="8.13999"><ele>-6.0</ele><time>2026-04-23T15:03:03.322Z</time></trkpt><trkpt lat="34.0440883" lon="8.140085"><ele>-6.0</ele><time>2026-04-23T15:03:04.322Z</time></trkpt><trkpt lat="34.043935" lon="8.1401883"><ele>-6.0</ele><time>2026-04-23T15:03:05.323Z</time></trkpt><trkpt lat="34.043785" lon="8.14029"><ele>-6.0</ele><time>2026-04-23T15:03:06.323Z</time></trkpt><trkpt lat="34.043635" lon="8.1403933"><ele>-6.0</ele><time>2026-04-23T15:03:07.323Z</time></trkpt><trkpt lat="34.043485" lon="8.1404883"><ele>-6.0</ele><time>2026-04-23T15:03:08.323Z</time></trkpt><trkpt lat="34.043335" lon="8.1405817"><ele>-6.333333333333334</ele><time>2026-04-23T15:03:09.322Z</time></trkpt><trkpt lat="34.0431867" lon="8.1406783"><ele>-6.666666666666667</ele><time>2026-04-23T15:03:10.323Z</time></trkpt><trkpt lat="34.043035" lon="8.1407667"><ele>-7.0</ele><time>2026-04-23T15:03:11.323Z</time></trkpt><trkpt lat="34.0428817" lon="8.1408683"><ele>-6.333333333333334</ele><time>2026-04-23T15:03:12.323Z</time></trkpt><trkpt lat="34.042735" lon="8.1409683"><ele>-5.666666666666667</ele><time>2026-04-23T15:03:13.322Z</time></trkpt><trkpt lat="34.0425833" lon="8.1410567"><ele>-5.0</ele><time>2026-04-23T15:03:14.323Z</time></trkpt><trkpt lat="34.0424333" lon="8.1411483"><ele>-5.0</ele><time>2026-04-23T15:03:15.323Z</time></trkpt><trkpt lat="34.0422817" lon="8.14124"><ele>-5.0</ele><time>2026-04-23T15:03:16.322Z</time></trkpt><trkpt lat="34.04213" lon="8.1413383"><ele>-5.0</ele><time>2026-04-23T15:03:17.322Z</time></trkpt><trkpt lat="34.0419783" lon="8.1414283"><ele>-5.0</ele><time>2026-04-23T15:03:18.323Z</time></trkpt><trkpt lat="34.0418233" lon="8.1415183"><ele>-5.0</ele><time>2026-04-23T15:03:19.322Z</time></trkpt><trkpt lat="34.04167" lon="8.1416117"><ele>-5.0</ele><time>2026-04-23T15:03:20.323Z</time></trkpt><trkpt lat="34.041515" lon="8.1417067"><ele>-4.666666666666667</ele><time>2026-04-23T15:03:21.322Z</time></trkpt><trkpt lat="34.04136" lon="8.1418067"><ele>-4.333333333333333</ele><time>2026-04-23T15:03:22.323Z</time></trkpt><trkpt lat="34.04121" lon="8.1419183"><ele>-4.0</ele><time>2026-04-23T15:03:23.323Z</time></trkpt><trkpt lat="34.0410533" lon="8.14202"><ele>-4.0</ele><time>2026-04-23T15:03:24.322Z</time></trkpt><trkpt lat="34.0408967" lon="8.1421117"><ele>-4.0</ele><time>2026-04-23T15:03:25.322Z</time></trkpt><trkpt lat="34.0407383" lon="8.1422083"><ele>-4.0</ele><time>2026-04-23T15:03:26.322Z</time></trkpt><trkpt lat="34.0405767" lon="8.1423117"><ele>-4.0</ele><time>2026-04-23T15:03:27.323Z</time></trkpt><trkpt lat="34.0404167" lon="8.1424117"><ele>-4.0</ele><time>2026-04-23T15:03:28.323Z</time></trkpt><trkpt lat="34.0402567" lon="8.14251"><ele>-4.0</ele><time>2026-04-23T15:03:29.323Z</time></trkpt><trkpt lat="34.0400933" lon="8.1426083"><ele>-3.5</ele><time>2026-04-23T15:03:30.323Z</time></trkpt><trkpt lat="34.0397683" lon="8.142815"><ele>-3.0</ele><time>2026-04-23T15:03:32.322Z</time></trkpt><trkpt lat="34.03961" lon="8.1429183"><ele>-3.0</ele><time>2026-04-23T15:03:33.323Z</time></trkpt><trkpt lat="34.0394483" lon="8.14302"><ele>-3.0</ele><time>2026-04-23T15:03:34.323Z</time></trkpt><trkpt lat="34.039295" lon="8.1431233"><ele>-3.0</ele><time>2026-04-23T15:03:35.323Z</time></trkpt><trkpt lat="34.03914" lon="8.143225"><ele>-2.6666666666666665</ele><time>2026-04-23T15:03:36.323Z</time></trkpt><trkpt lat="34.0389783" lon="8.14333"><ele>-2.333333333333333</ele><time>2026-04-23T15:03:37.323Z</time></trkpt><trkpt lat="34.03882" lon="8.14342"><ele>-2.0</ele><time>2026-04-23T15:03:38.322Z</time></trkpt><trkpt lat="34.038665" lon="8.1435083"><ele>-2.0</ele><time>2026-04-23T15:03:39.322Z</time></trkpt><trkpt lat="34.0385117" lon="8.1436033"><ele>-2.0</ele><time>2026-04-23T15:03:40.322Z</time></trkpt><trkpt lat="34.0382067" lon="8.1437933"><ele>-2.0</ele><time>2026-04-23T15:03:42.322Z</time></trkpt><trkpt lat="34.03806" lon="8.143895"><ele>-2.0</ele><time>2026-04-23T15:03:43.323Z</time></trkpt><trkpt lat="34.0379117" lon="8.143995"><ele>-2.0</ele><time>2026-04-23T15:03:44.322Z</time></trkpt><trkpt lat="34.03776" lon="8.1440917"><ele>-2.0</ele><time>2026-04-23T15:03:45.323Z</time></trkpt><trkpt lat="34.0376033" lon="8.1441883"><ele>-2.0</ele><time>2026-04-23T15:03:46.322Z</time></trkpt><trkpt lat="34.03745" lon="8.1442833"><ele>-2.0</ele><time>2026-04-23T15:03:47.323Z</time></trkpt><trkpt lat="34.0373" lon="8.1443717"><ele>-2.333333333333333</ele><time>2026-04-23T15:03:48.322Z</time></trkpt><trkpt lat="34.0371483" lon="8.1444583"><ele>-2.6666666666666665</ele><time>2026-04-23T15:03:49.322Z</time></trkpt><trkpt lat="34.0369933" lon="8.14456"><ele>-3.0</ele><time>2026-04-23T15:03:50.323Z</time></trkpt><trkpt lat="34.0368367" lon="8.1446567"><ele>-3.0</ele><time>2026-04-23T15:03:51.322Z</time></trkpt><trkpt lat="34.0366767" lon="8.14476"><ele>-3.0</ele><time>2026-04-23T15:03:52.322Z</time></trkpt><trkpt lat="34.0365217" lon="8.14486"><ele>-3.0</ele><time>2026-04-23T15:03:53.322Z</time></trkpt><trkpt lat="34.036365" lon="8.1449617"><ele>-2.0</ele><time>2026-04-23T15:03:54.323Z</time></trkpt><trkpt lat="34.0362083" lon="8.1450567"><ele>-1.0</ele><time>2026-04-23T15:03:55.323Z</time></trkpt><trkpt lat="34.0360633" lon="8.1451467"><ele>0.0</ele><time>2026-04-23T15:03:56.323Z</time></trkpt><trkpt lat="34.0359283" lon="8.1452267"><ele>0.0</ele><time>2026-04-23T15:03:57.322Z</time></trkpt><trkpt lat="34.03581" lon="8.14531"><ele>0.0</ele><time>2026-04-23T15:03:58.323Z</time></trkpt><trkpt lat="34.0356983" lon="8.1453983"><ele>0.0</ele><time>2026-04-23T15:03:59.322Z</time></trkpt><trkpt lat="34.0356083" lon="8.1454717"><ele>0.0</ele><time>2026-04-23T15:04:00.322Z</time></trkpt><trkpt lat="34.03553" lon="8.1455283"><ele>0.0</ele><time>2026-04-23T15:04:01.323Z</time></trkpt><trkpt lat="34.0354633" lon="8.1455767"><ele>0.0</ele><time>2026-04-23T15:04:02.323Z</time></trkpt><trkpt lat="34.0353717" lon="8.1456583"><ele>0.0</ele><time>2026-04-23T15:04:04.323Z</time></trkpt><trkpt lat="34.0353167" lon="8.1457167"><ele>0.0</ele><time>2026-04-23T15:04:06.322Z</time></trkpt><trkpt lat="34.0352533" lon="8.1457733"><ele>0.0</ele><time>2026-04-23T15:05:00.322Z</time></trkpt><trkpt lat="34.0352" lon="8.1458483"><ele>0.0</ele><time>2026-04-23T15:05:02.322Z</time></trkpt><trkpt lat="34.0351133" lon="8.1459783"><ele>0.2</ele><time>2026-04-23T15:05:04.322Z</time></trkpt><trkpt lat="34.0350517" lon="8.1460533"><ele>0.4</ele><time>2026-04-23T15:05:05.322Z</time></trkpt><trkpt lat="34.0349833" lon="8.1461367"><ele>0.6000000000000001</ele><time>2026-04-23T15:05:06.323Z</time></trkpt><trkpt lat="34.0349" lon="8.14623"><ele>0.8</ele><time>2026-04-23T15:05:07.322Z</time></trkpt><trkpt lat="34.0348067" lon="8.146325"><ele>1.0</ele><time>2026-04-23T15:05:08.323Z</time></trkpt><trkpt lat="34.0347217" lon="8.1464317"><ele>1.0</ele><time>2026-04-23T15:05:09.322Z</time></trkpt><trkpt lat="34.0346233" lon="8.14656"><ele>1.0</ele><time>2026-04-23T15:05:10.322Z</time></trkpt><trkpt lat="34.03453" lon="8.14669"><ele>1.0</ele><time>2026-04-23T15:05:11.322Z</time></trkpt><trkpt lat="34.034445" lon="8.14682"><ele>1.0</ele><time>2026-04-23T15:05:12.321Z</time></trkpt><trkpt lat="34.0343667" lon="8.1469283"><ele>1.0</ele><time>2026-04-23T15:05:13.322Z</time></trkpt><trkpt lat="34.0343" lon="8.1470167"><ele>1.0</ele><time>2026-04-23T15:05:14.322Z</time></trkpt><trkpt lat="34.034245" lon="8.1471017"><ele>1.0</ele><time>2026-04-23T15:05:15.321Z</time></trkpt><trkpt lat="34.034185" lon="8.1471867"><ele>1.0</ele><time>2026-04-23T15:05:16.321Z</time></trkpt><trkpt lat="34.034115" lon="8.1472833"><ele>1.0</ele><time>2026-04-23T15:05:17.322Z</time></trkpt><trkpt lat="34.0340317" lon="8.1473817"><ele>1.0</ele><time>2026-04-23T15:05:18.321Z</time></trkpt><trkpt lat="34.03394" lon="8.1475017"><ele>1.0</ele><time>2026-04-23T15:05:19.322Z</time></trkpt><trkpt lat="34.0338417" lon="8.1476167"><ele>1.0</ele><time>2026-04-23T15:05:20.321Z</time></trkpt><trkpt lat="34.033755" lon="8.1477367"><ele>1.0</ele><time>2026-04-23T15:05:21.322Z</time></trkpt><trkpt lat="34.0336683" lon="8.1478633"><ele>1.0</ele><time>2026-04-23T15:05:22.321Z</time></trkpt><trkpt lat="34.0335767" lon="8.1479767"><ele>1.0</ele><time>2026-04-23T15:05:23.321Z</time></trkpt><trkpt lat="34.03349" lon="8.14809"><ele>1.0</ele><time>2026-04-23T15:05:24.321Z</time></trkpt><trkpt lat="34.0334067" lon="8.1482117"><ele>1.0</ele><time>2026-04-23T15:05:25.322Z</time></trkpt><trkpt lat="34.0333167" lon="8.1483317"><ele>1.75</ele><time>2026-04-23T15:05:26.321Z</time></trkpt><trkpt lat="34.03322" lon="8.14845"><ele>2.5</ele><time>2026-04-23T15:05:27.322Z</time></trkpt><trkpt lat="34.0331267" lon="8.1485783"><ele>3.25</ele><time>2026-04-23T15:05:28.321Z</time></trkpt><trkpt lat="34.0330367" lon="8.1487067"><ele>4.0</ele><time>2026-04-23T15:05:29.321Z</time></trkpt><trkpt lat="34.0329317" lon="8.1488433"><ele>4.0</ele><time>2026-04-23T15:05:30.322Z</time></trkpt><trkpt lat="34.0328283" lon="8.1489867"><ele>4.0</ele><time>2026-04-23T15:05:31.322Z</time></trkpt><trkpt lat="34.0327233" lon="8.1491217"><ele>4.0</ele><time>2026-04-23T15:05:32.322Z</time></trkpt><trkpt lat="34.0326167" lon="8.1492667"><ele>4.0</ele><time>2026-04-23T15:05:33.321Z</time></trkpt><trkpt lat="34.0325117" lon="8.1494117"><ele>4.0</ele><time>2026-04-23T15:05:34.322Z</time></trkpt><trkpt lat="34.0324067" lon="8.1495633"><ele>4.0</ele><time>2026-04-23T15:05:35.321Z</time></trkpt><trkpt lat="34.0322983" lon="8.149715"><ele>4.0</ele><time>2026-04-23T15:05:36.321Z</time></trkpt><trkpt lat="34.0321933" lon="8.1498633"><ele>4.0</ele><time>2026-04-23T15:05:37.322Z</time></trkpt><trkpt lat="34.032075" lon="8.1500083"><ele>4.0</ele><time>2026-04-23T15:05:38.322Z</time></trkpt><trkpt lat="34.0319733" lon="8.1501433"><ele>3.6666666666666665</ele><time>2026-04-23T15:05:39.322Z</time></trkpt><trkpt lat="34.03187" lon="8.1502817"><ele>3.333333333333333</ele><time>2026-04-23T15:05:40.321Z</time></trkpt><trkpt lat="34.0317633" lon="8.1504333"><ele>3.0</ele><time>2026-04-23T15:05:41.322Z</time></trkpt><trkpt lat="34.0316483" lon="8.1505817"><ele>4.0</ele><time>2026-04-23T15:05:42.322Z</time></trkpt><trkpt lat="34.03154" lon="8.1507267"><ele>5.0</ele><time>2026-04-23T15:05:43.321Z</time></trkpt><trkpt lat="34.0314233" lon="8.1508783"><ele>6.0</ele><time>2026-04-23T15:05:44.322Z</time></trkpt><trkpt lat="34.0313033" lon="8.1510267"><ele>6.0</ele><time>2026-04-23T15:05:45.321Z</time></trkpt><trkpt lat="34.0311817" lon="8.1511933"><ele>6.0</ele><time>2026-04-23T15:05:46.322Z</time></trkpt><trkpt lat="34.0310583" lon="8.15136"><ele>6.0</ele><time>2026-04-23T15:05:47.322Z</time></trkpt><trkpt lat="34.0309333" lon="8.1515283"><ele>6.333333333333334</ele><time>2026-04-23T15:05:48.322Z</time></trkpt><trkpt lat="34.0308067" lon="8.1516883"><ele>6.666666666666667</ele><time>2026-04-23T15:05:49.321Z</time></trkpt><trkpt lat="34.030675" lon="8.151855"><ele>7.0</ele><time>2026-04-23T15:05:50.322Z</time></trkpt><trkpt lat="34.03054" lon="8.15203"><ele>7.0</ele><time>2026-04-23T15:05:51.322Z</time></trkpt><trkpt lat="34.030405" lon="8.1522"><ele>7.0</ele><time>2026-04-23T15:05:52.321Z</time></trkpt><trkpt lat="34.03027" lon="8.152375"><ele>7.0</ele><time>2026-04-23T15:05:53.322Z</time></trkpt><trkpt lat="34.0301333" lon="8.1525567"><ele>7.0</ele><time>2026-04-23T15:05:54.321Z</time></trkpt><trkpt lat="34.0299967" lon="8.15274"><ele>7.0</ele><time>2026-04-23T15:05:55.321Z</time></trkpt><trkpt lat="34.0298617" lon="8.1529283"><ele>7.0</ele><time>2026-04-23T15:05:56.322Z</time></trkpt><trkpt lat="34.029715" lon="8.1531167"><ele>7.333333333333334</ele><time>2026-04-23T15:05:57.321Z</time></trkpt><trkpt lat="34.02957" lon="8.1533133"><ele>7.666666666666666</ele><time>2026-04-23T15:05:58.322Z</time></trkpt><trkpt lat="34.0294283" lon="8.1535017"><ele>8.0</ele><time>2026-04-23T15:05:59.321Z</time></trkpt><trkpt lat="34.0292867" lon="8.1536883"><ele>8.0</ele><time>2026-04-23T15:06:00.321Z</time></trkpt><trkpt lat="34.029145" lon="8.153875"><ele>8.0</ele><time>2026-04-23T15:06:01.322Z</time></trkpt><trkpt lat="34.0290017" lon="8.1540667"><ele>8.0</ele><time>2026-04-23T15:06:02.321Z</time></trkpt><trkpt lat="34.0288633" lon="8.1542583"><ele>8.0</ele><time>2026-04-23T15:06:03.322Z</time></trkpt><trkpt lat="34.0287217" lon="8.154445"><ele>8.0</ele><time>2026-04-23T15:06:04.321Z</time></trkpt><trkpt lat="34.0285733" lon="8.154635"><ele>8.0</ele><time>2026-04-23T15:06:05.321Z</time></trkpt><trkpt lat="34.0284233" lon="8.1548283"><ele>9.0</ele><time>2026-04-23T15:06:06.322Z</time></trkpt><trkpt lat="34.028275" lon="8.1550267"><ele>10.0</ele><time>2026-04-23T15:06:07.321Z</time></trkpt><trkpt lat="34.0281267" lon="8.15522"><ele>11.0</ele><time>2026-04-23T15:06:08.322Z</time></trkpt><trkpt lat="34.027975" lon="8.155415"><ele>11.0</ele><time>2026-04-23T15:06:09.322Z</time></trkpt><trkpt lat="34.0278233" lon="8.15561"><ele>11.0</ele><time>2026-04-23T15:06:10.322Z</time></trkpt><trkpt lat="34.0276717" lon="8.1558083"><ele>11.0</ele><time>2026-04-23T15:06:11.322Z</time></trkpt><trkpt lat="34.0275233" lon="8.1560017"><ele>11.0</ele><time>2026-04-23T15:06:12.321Z</time></trkpt><trkpt lat="34.0273683" lon="8.156195"><ele>11.0</ele><time>2026-04-23T15:06:13.322Z</time></trkpt><trkpt lat="34.02722" lon="8.1563917"><ele>11.0</ele><time>2026-04-23T15:06:14.321Z</time></trkpt><trkpt lat="34.0270683" lon="8.1565917"><ele>11.0</ele><time>2026-04-23T15:06:15.322Z</time></trkpt><trkpt lat="34.0269167" lon="8.1567817"><ele>11.0</ele><time>2026-04-23T15:06:16.322Z</time></trkpt><trkpt lat="34.0267783" lon="8.156975"><ele>11.0</ele><time>2026-04-23T15:06:17.321Z</time></trkpt><trkpt lat="34.0266417" lon="8.15717"><ele>11.333333333333332</ele><time>2026-04-23T15:06:18.322Z</time></trkpt><trkpt lat="34.0265033" lon="8.15737"><ele>11.666666666666666</ele><time>2026-04-23T15:06:19.322Z</time></trkpt><trkpt lat="34.0263583" lon="8.1575683"><ele>12.0</ele><time>2026-04-23T15:06:20.321Z</time></trkpt><trkpt lat="34.0262167" lon="8.1577683"><ele>12.0</ele><time>2026-04-23T15:06:21.321Z</time></trkpt><trkpt lat="34.0260733" lon="8.157975"><ele>12.0</ele><time>2026-04-23T15:06:22.322Z</time></trkpt><trkpt lat="34.0259267" lon="8.15818"><ele>12.0</ele><time>2026-04-23T15:06:23.321Z</time></trkpt><trkpt lat="34.0257817" lon="8.15838"><ele>12.666666666666668</ele><time>2026-04-23T15:06:24.321Z</time></trkpt><trkpt lat="34.0256367" lon="8.1585783"><ele>13.333333333333334</ele><time>2026-04-23T15:06:25.322Z</time></trkpt><trkpt lat="34.0254883" lon="8.1587767"><ele>14.0</ele><time>2026-04-23T15:06:26.322Z</time></trkpt><trkpt lat="34.0253333" lon="8.158975"><ele>13.666666666666668</ele><time>2026-04-23T15:06:27.321Z</time></trkpt><trkpt lat="34.025185" lon="8.15917"><ele>13.333333333333332</ele><time>2026-04-23T15:06:28.321Z</time></trkpt><trkpt lat="34.025035" lon="8.159375"><ele>13.0</ele><time>2026-04-23T15:06:29.321Z</time></trkpt><trkpt lat="34.0248833" lon="8.15958"><ele>14.0</ele><time>2026-04-23T15:06:30.322Z</time></trkpt><trkpt lat="34.0247417" lon="8.1597867"><ele>15.0</ele><time>2026-04-23T15:06:31.322Z</time></trkpt><trkpt lat="34.0245967" lon="8.1599883"><ele>16.0</ele><time>2026-04-23T15:06:32.321Z</time></trkpt><trkpt lat="34.0244483" lon="8.1601817"><ele>16.0</ele><time>2026-04-23T15:06:33.321Z</time></trkpt><trkpt lat="34.0242917" lon="8.1603833"><ele>16.0</ele><time>2026-04-23T15:06:34.322Z</time></trkpt><trkpt lat="34.0241317" lon="8.1605867"><ele>16.5</ele><time>2026-04-23T15:06:35.321Z</time></trkpt><trkpt lat="34.0239717" lon="8.1607867"><ele>17.0</ele><time>2026-04-23T15:06:36.322Z</time></trkpt><trkpt lat="34.0238167" lon="8.1609933"><ele>17.0</ele><time>2026-04-23T15:06:37.321Z</time></trkpt><trkpt lat="34.02366" lon="8.161195"><ele>17.0</ele><time>2026-04-23T15:06:38.322Z</time></trkpt><trkpt lat="34.023505" lon="8.1613967"><ele>17.0</ele><time>2026-04-23T15:06:39.322Z</time></trkpt><trkpt lat="34.023355" lon="8.1615967"><ele>17.0</ele><time>2026-04-23T15:06:40.321Z</time></trkpt><trkpt lat="34.0232017" lon="8.1618017"><ele>18.0</ele><time>2026-04-23T15:06:41.322Z</time></trkpt><trkpt lat="34.0230467" lon="8.1619967"><ele>19.0</ele><time>2026-04-23T15:06:42.321Z</time></trkpt><trkpt lat="34.0228933" lon="8.1622"><ele>19.0</ele><time>2026-04-23T15:06:43.322Z</time></trkpt><trkpt lat="34.02274" lon="8.1623983"><ele>19.0</ele><time>2026-04-23T15:06:44.321Z</time></trkpt><trkpt lat="34.0225917" lon="8.1626"><ele>19.0</ele><time>2026-04-23T15:06:45.321Z</time></trkpt><trkpt lat="34.0224367" lon="8.162805"><ele>20.0</ele><time>2026-04-23T15:06:46.321Z</time></trkpt><trkpt lat="34.0222833" lon="8.1630067"><ele>21.0</ele><time>2026-04-23T15:06:47.322Z</time></trkpt><trkpt lat="34.022125" lon="8.1632"><ele>21.0</ele><time>2026-04-23T15:06:48.322Z</time></trkpt><trkpt lat="34.0219683" lon="8.1633933"><ele>21.0</ele><time>2026-04-23T15:06:49.322Z</time></trkpt><trkpt lat="34.0218167" lon="8.1635883"><ele>21.0</ele><time>2026-04-23T15:06:50.322Z</time></trkpt><trkpt lat="34.021665" lon="8.1637967"><ele>21.0</ele><time>2026-04-23T15:06:51.322Z</time></trkpt><trkpt lat="34.021515" lon="8.1639933"><ele>21.0</ele><time>2026-04-23T15:06:52.321Z</time></trkpt><trkpt lat="34.0213683" lon="8.1641933"><ele>21.0</ele><time>2026-04-23T15:06:53.322Z</time></trkpt><trkpt lat="34.021225" lon="8.1643967"><ele>21.333333333333332</ele><time>2026-04-23T15:06:54.322Z</time></trkpt><trkpt lat="34.021075" lon="8.1646017"><ele>21.666666666666664</ele><time>2026-04-23T15:06:55.321Z</time></trkpt><trkpt lat="34.020925" lon="8.164795"><ele>22.0</ele><time>2026-04-23T15:06:56.322Z</time></trkpt><trkpt lat="34.0207767" lon="8.165"><ele>22.5</ele><time>2026-04-23T15:06:57.322Z</time></trkpt><trkpt lat="34.0206333" lon="8.1652117"><ele>23.0</ele><time>2026-04-23T15:06:58.321Z</time></trkpt><trkpt lat="34.0204717" lon="8.1654183"><ele>23.0</ele><time>2026-04-23T15:06:59.321Z</time></trkpt><trkpt lat="34.02033" lon="8.1656167"><ele>23.0</ele><time>2026-04-23T15:07:00.321Z</time></trkpt><trkpt lat="34.02018" lon="8.1658133"><ele>23.0</ele><time>2026-04-23T15:07:01.322Z</time></trkpt><trkpt lat="34.020025" lon="8.1660183"><ele>22.5</ele><time>2026-04-23T15:07:02.321Z</time></trkpt><trkpt lat="34.0198783" lon="8.1662233"><ele>22.0</ele><time>2026-04-23T15:07:03.322Z</time></trkpt><trkpt lat="34.019715" lon="8.1664183"><ele>22.5</ele><time>2026-04-23T15:07:04.322Z</time></trkpt><trkpt lat="34.0195617" lon="8.1666183"><ele>23.0</ele><time>2026-04-23T15:07:05.322Z</time></trkpt><trkpt lat="34.0194117" lon="8.1668233"><ele>23.0</ele><time>2026-04-23T15:07:06.322Z</time></trkpt><trkpt lat="34.01925" lon="8.1670217"><ele>23.0</ele><time>2026-04-23T15:07:07.321Z</time></trkpt><trkpt lat="34.0190933" lon="8.16723"><ele>24.0</ele><time>2026-04-23T15:07:08.321Z</time></trkpt><trkpt lat="34.018935" lon="8.16744"><ele>25.0</ele><time>2026-04-23T15:07:09.322Z</time></trkpt><trkpt lat="34.0187733" lon="8.16765"><ele>25.0</ele><time>2026-04-23T15:07:10.322Z</time></trkpt><trkpt lat="34.0186167" lon="8.167855"><ele>25.0</ele><time>2026-04-23T15:07:11.321Z</time></trkpt><trkpt lat="34.0184617" lon="8.1680667"><ele>25.0</ele><time>2026-04-23T15:07:12.322Z</time></trkpt><trkpt lat="34.0183067" lon="8.1682767"><ele>25.0</ele><time>2026-04-23T15:07:13.321Z</time></trkpt><trkpt lat="34.0181533" lon="8.1684867"><ele>25.0</ele><time>2026-04-23T15:07:14.321Z</time></trkpt><trkpt lat="34.0180017" lon="8.1686983"><ele>25.0</ele><time>2026-04-23T15:07:15.322Z</time></trkpt><trkpt lat="34.0178433" lon="8.168905"><ele>24.5</ele><time>2026-04-23T15:07:16.321Z</time></trkpt><trkpt lat="34.0176833" lon="8.1691033"><ele>24.0</ele><time>2026-04-23T15:07:17.321Z</time></trkpt><trkpt lat="34.017535" lon="8.169315"><ele>25.0</ele><time>2026-04-23T15:07:18.322Z</time></trkpt><trkpt lat="34.0173867" lon="8.16952"><ele>26.0</ele><time>2026-04-23T15:07:19.321Z</time></trkpt><trkpt lat="34.01723" lon="8.1697267"><ele>26.5</ele><time>2026-04-23T15:07:20.322Z</time></trkpt><trkpt lat="34.01708" lon="8.1699417"><ele>27.0</ele><time>2026-04-23T15:07:21.322Z</time></trkpt><trkpt lat="34.01692" lon="8.1701483"><ele>27.0</ele><time>2026-04-23T15:07:22.322Z</time></trkpt><trkpt lat="34.0167667" lon="8.17035"><ele>27.0</ele><time>2026-04-23T15:07:23.322Z</time></trkpt><trkpt lat="34.0166133" lon="8.17056"><ele>28.0</ele><time>2026-04-23T15:07:24.322Z</time></trkpt><trkpt lat="34.0164667" lon="8.1707667"><ele>29.0</ele><time>2026-04-23T15:07:25.321Z</time></trkpt><trkpt lat="34.0163067" lon="8.1709633"><ele>29.0</ele><time>2026-04-23T15:07:26.321Z</time></trkpt><trkpt lat="34.0161483" lon="8.17116"><ele>29.0</ele><time>2026-04-23T15:07:27.321Z</time></trkpt><trkpt lat="34.0159967" lon="8.171365"><ele>29.0</ele><time>2026-04-23T15:07:28.321Z</time></trkpt><trkpt lat="34.0158333" lon="8.1715683"><ele>29.0</ele><time>2026-04-23T15:07:29.321Z</time></trkpt><trkpt lat="34.015675" lon="8.17177"><ele>29.5</ele><time>2026-04-23T15:07:30.321Z</time></trkpt><trkpt lat="34.015515" lon="8.1719683"><ele>30.0</ele><time>2026-04-23T15:07:31.322Z</time></trkpt><trkpt lat="34.015365" lon="8.1721817"><ele>30.0</ele><time>2026-04-23T15:07:32.322Z</time></trkpt><trkpt lat="34.0152083" lon="8.1723933"><ele>30.0</ele><time>2026-04-23T15:07:33.322Z</time></trkpt><trkpt lat="34.01506" lon="8.1726033"><ele>31.0</ele><time>2026-04-23T15:07:34.321Z</time></trkpt><trkpt lat="34.0149067" lon="8.1728117"><ele>32.0</ele><time>2026-04-23T15:07:35.321Z</time></trkpt><trkpt lat="34.0147583" lon="8.1730233"><ele>31.5</ele><time>2026-04-23T15:07:36.322Z</time></trkpt><trkpt lat="34.0145967" lon="8.1732217"><ele>31.0</ele><time>2026-04-23T15:07:37.322Z</time></trkpt><trkpt lat="34.0144467" lon="8.173425"><ele>31.0</ele><time>2026-04-23T15:07:38.322Z</time></trkpt><trkpt lat="34.0143" lon="8.1736317"><ele>31.0</ele><time>2026-04-23T15:07:39.321Z</time></trkpt><trkpt lat="34.0141533" lon="8.1738367"><ele>33.5</ele><time>2026-04-23T15:07:40.322Z</time></trkpt><trkpt lat="34.0139967" lon="8.1740433"><ele>36.0</ele><time>2026-04-23T15:07:41.322Z</time></trkpt><trkpt lat="34.0138417" lon="8.1742483"><ele>36.0</ele><time>2026-04-23T15:07:42.321Z</time></trkpt><trkpt lat="34.0136967" lon="8.1744517"><ele>36.0</ele><time>2026-04-23T15:07:43.321Z</time></trkpt><trkpt lat="34.013545" lon="8.1746583"><ele>36.0</ele><time>2026-04-23T15:07:44.321Z</time></trkpt><trkpt lat="34.013395" lon="8.1748733"><ele>36.0</ele><time>2026-04-23T15:07:45.322Z</time></trkpt><trkpt lat="34.0132383" lon="8.1750917"><ele>36.0</ele><time>2026-04-23T15:07:46.322Z</time></trkpt><trkpt lat="34.0130817" lon="8.1752883"><ele>36.0</ele><time>2026-04-23T15:07:47.322Z</time></trkpt><trkpt lat="34.01293" lon="8.1754933"><ele>37.5</ele><time>2026-04-23T15:07:48.321Z</time></trkpt><trkpt lat="34.0127733" lon="8.1756967"><ele>39.0</ele><time>2026-04-23T15:07:49.321Z</time></trkpt><trkpt lat="34.0126183" lon="8.1759017"><ele>39.5</ele><time>2026-04-23T15:07:50.322Z</time></trkpt><trkpt lat="34.0124633" lon="8.176115"><ele>40.0</ele><time>2026-04-23T15:07:51.321Z</time></trkpt><trkpt lat="34.0123" lon="8.1763133"><ele>40.0</ele><time>2026-04-23T15:07:52.322Z</time></trkpt><trkpt lat="34.01215" lon="8.17652"><ele>40.0</ele><time>2026-04-23T15:07:53.321Z</time></trkpt><trkpt lat="34.0119967" lon="8.176725"><ele>40.0</ele><time>2026-04-23T15:07:54.321Z</time></trkpt><trkpt lat="34.0118367" lon="8.1769283"><ele>40.0</ele><time>2026-04-23T15:07:55.321Z</time></trkpt><trkpt lat="34.0116817" lon="8.177135"><ele>40.0</ele><time>2026-04-23T15:07:56.321Z</time></trkpt><trkpt lat="34.01153" lon="8.1773317"><ele>40.0</ele><time>2026-04-23T15:07:57.321Z</time></trkpt><trkpt lat="34.0113883" lon="8.1775317"><ele>40.0</ele><time>2026-04-23T15:07:58.322Z</time></trkpt><trkpt lat="34.0112567" lon="8.1777233"><ele>40.333333333333336</ele><time>2026-04-23T15:07:59.322Z</time></trkpt><trkpt lat="34.011135" lon="8.1778967"><ele>40.666666666666664</ele><time>2026-04-23T15:08:00.322Z</time></trkpt><trkpt lat="34.01102" lon="8.1780667"><ele>41.0</ele><time>2026-04-23T15:08:01.321Z</time></trkpt><trkpt lat="34.0109" lon="8.178225"><ele>43.0</ele><time>2026-04-23T15:08:02.322Z</time></trkpt><trkpt lat="34.0107883" lon="8.178365"><ele>45.0</ele><time>2026-04-23T15:08:03.321Z</time></trkpt><trkpt lat="34.0106883" lon="8.1785017"><ele>47.0</ele><time>2026-04-23T15:08:04.322Z</time></trkpt><trkpt lat="34.0106017" lon="8.1786367"><ele>47.0</ele><time>2026-04-23T15:08:05.322Z</time></trkpt><trkpt lat="34.0105067" lon="8.1787533"><ele>47.0</ele><time>2026-04-23T15:08:06.322Z</time></trkpt><trkpt lat="34.0104167" lon="8.178865"><ele>47.0</ele><time>2026-04-23T15:08:07.321Z</time></trkpt><trkpt lat="34.01027" lon="8.1790417"><ele>47.5</ele><time>2026-04-23T15:08:09.321Z</time></trkpt><trkpt lat="34.0102267" lon="8.179105"><ele>48.0</ele><time>2026-04-23T15:08:10.322Z</time></trkpt><trkpt lat="34.01016" lon="8.1791767"><ele>48.5</ele><time>2026-04-23T15:08:12.322Z</time></trkpt><trkpt lat="34.01009" lon="8.17922"><ele>49.0</ele><time>2026-04-23T15:08:14.322Z</time></trkpt><trkpt lat="34.00999" lon="8.1792267"><ele>49.50000000000001</ele><time>2026-04-23T15:08:16.322Z</time></trkpt><trkpt lat="34.0099283" lon="8.1792067"><ele>50.0</ele><time>2026-04-23T15:08:17.321Z</time></trkpt><trkpt lat="34.009855" lon="8.1791633"><ele>50.0</ele><time>2026-04-23T15:08:18.322Z</time></trkpt><trkpt lat="34.00978" lon="8.179095"><ele>50.0</ele><time>2026-04-23T15:08:19.321Z</time></trkpt><trkpt lat="34.0097033" lon="8.1790017"><ele>50.0</ele><time>2026-04-23T15:08:20.322Z</time></trkpt><trkpt lat="34.00962" lon="8.1789117"><ele>50.0</ele><time>2026-04-23T15:08:21.321Z</time></trkpt><trkpt lat="34.009525" lon="8.1788183"><ele>50.0</ele><time>2026-04-23T15:08:22.32Z</time></trkpt><trkpt lat="34.009425" lon="8.178725"><ele>49.5</ele><time>2026-04-23T15:08:23.321Z</time></trkpt><trkpt lat="34.0093233" lon="8.1786217"><ele>49.0</ele><time>2026-04-23T15:08:24.321Z</time></trkpt><trkpt lat="34.0092117" lon="8.1785217"><ele>48.5</ele><time>2026-04-23T15:08:25.32Z</time></trkpt><trkpt lat="34.0091033" lon="8.178415"><ele>48.0</ele><time>2026-04-23T15:08:26.321Z</time></trkpt><trkpt lat="34.008865" lon="8.1781917"><ele>48.5</ele><time>2026-04-23T15:08:28.32Z</time></trkpt><trkpt lat="34.0087367" lon="8.1780783"><ele>49.0</ele><time>2026-04-23T15:08:29.32Z</time></trkpt><trkpt lat="34.0084883" lon="8.177835"><ele>49.0</ele><time>2026-04-23T15:08:31.32Z</time></trkpt><trkpt lat="34.0083567" lon="8.17771"><ele>49.0</ele><time>2026-04-23T15:08:32.321Z</time></trkpt><trkpt lat="34.008225" lon="8.1775767"><ele>49.0</ele><time>2026-04-23T15:08:33.32Z</time></trkpt><trkpt lat="34.00809" lon="8.177445"><ele>50.0</ele><time>2026-04-23T15:08:34.321Z</time></trkpt><trkpt lat="34.0079633" lon="8.1773167"><ele>51.0</ele><time>2026-04-23T15:08:35.321Z</time></trkpt><trkpt lat="34.0078283" lon="8.1771917"><ele>52.0</ele><time>2026-04-23T15:08:36.321Z</time></trkpt><trkpt lat="34.0076983" lon="8.1770633"><ele>52.0</ele><time>2026-04-23T15:08:37.321Z</time></trkpt><trkpt lat="34.00757" lon="8.1769333"><ele>52.0</ele><time>2026-04-23T15:08:38.321Z</time></trkpt><trkpt lat="34.00744" lon="8.1768083"><ele>52.0</ele><time>2026-04-23T15:08:39.321Z</time></trkpt><trkpt lat="34.0073117" lon="8.176675"><ele>53.0</ele><time>2026-04-23T15:08:40.32Z</time></trkpt><trkpt lat="34.00718" lon="8.176535"><ele>54.0</ele><time>2026-04-23T15:08:41.321Z</time></trkpt><trkpt lat="34.00704" lon="8.176405"><ele>55.0</ele><time>2026-04-23T15:08:42.32Z</time></trkpt><trkpt lat="34.0068933" lon="8.176275"><ele>55.0</ele><time>2026-04-23T15:08:43.321Z</time></trkpt><trkpt lat="34.006745" lon="8.1761467"><ele>55.0</ele><time>2026-04-23T15:08:44.32Z</time></trkpt><trkpt lat="34.0066" lon="8.17602"><ele>55.0</ele><time>2026-04-23T15:08:45.321Z</time></trkpt><trkpt lat="34.00646" lon="8.17589"><ele>55.0</ele><time>2026-04-23T15:08:46.32Z</time></trkpt><trkpt lat="34.0063283" lon="8.1757567"><ele>55.0</ele><time>2026-04-23T15:08:47.321Z</time></trkpt><trkpt lat="34.0061967" lon="8.1756367"><ele>55.0</ele><time>2026-04-23T15:08:48.321Z</time></trkpt><trkpt lat="34.006075" lon="8.1755133"><ele>54.666666666666664</ele><time>2026-04-23T15:08:49.32Z</time></trkpt><trkpt lat="34.0059383" lon="8.1753867"><ele>54.33333333333333</ele><time>2026-04-23T15:08:50.321Z</time></trkpt><trkpt lat="34.0058067" lon="8.1752467"><ele>54.0</ele><time>2026-04-23T15:08:51.32Z</time></trkpt><trkpt lat="34.005675" lon="8.1751133"><ele>54.0</ele><time>2026-04-23T15:08:52.321Z</time></trkpt><trkpt lat="34.0055417" lon="8.1749883"><ele>54.0</ele><time>2026-04-23T15:08:53.321Z</time></trkpt><trkpt lat="34.0054117" lon="8.174865"><ele>54.0</ele><time>2026-04-23T15:08:54.321Z</time></trkpt><trkpt lat="34.0052917" lon="8.1747367"><ele>54.0</ele><time>2026-04-23T15:08:55.32Z</time></trkpt><trkpt lat="34.0051667" lon="8.1746117"><ele>54.0</ele><time>2026-04-23T15:08:56.32Z</time></trkpt><trkpt lat="34.0050383" lon="8.1744933"><ele>54.0</ele><time>2026-04-23T15:08:57.32Z</time></trkpt><trkpt lat="34.004915" lon="8.174375"><ele>54.0</ele><time>2026-04-23T15:08:58.32Z</time></trkpt><trkpt lat="34.0047883" lon="8.1742583"><ele>54.0</ele><time>2026-04-23T15:08:59.321Z</time></trkpt><trkpt lat="34.0046633" lon="8.174145"><ele>54.0</ele><time>2026-04-23T15:09:00.32Z</time></trkpt><trkpt lat="34.00454" lon="8.1740367"><ele>53.66666666666667</ele><time>2026-04-23T15:09:01.321Z</time></trkpt><trkpt lat="34.0044117" lon="8.1739333"><ele>53.333333333333336</ele><time>2026-04-23T15:09:02.32Z</time></trkpt><trkpt lat="34.00426" lon="8.1738517"><ele>53.0</ele><time>2026-04-23T15:09:03.32Z</time></trkpt><trkpt lat="34.0041033" lon="8.1737717"><ele>53.0</ele><time>2026-04-23T15:09:04.321Z</time></trkpt><trkpt lat="34.0039483" lon="8.173695"><ele>53.0</ele><time>2026-04-23T15:09:05.321Z</time></trkpt><trkpt lat="34.00379" lon="8.1736067"><ele>53.0</ele><time>2026-04-23T15:09:06.32Z</time></trkpt><trkpt lat="34.00363" lon="8.1735267"><ele>53.0</ele><time>2026-04-23T15:09:07.321Z</time></trkpt><trkpt lat="34.0034583" lon="8.173445"><ele>53.0</ele><time>2026-04-23T15:09:08.321Z</time></trkpt><trkpt lat="34.00328" lon="8.1733633"><ele>53.0</ele><time>2026-04-23T15:09:09.321Z</time></trkpt><trkpt lat="34.0030983" lon="8.1732783"><ele>52.333333333333336</ele><time>2026-04-23T15:09:10.321Z</time></trkpt><trkpt lat="34.0029117" lon="8.1731983"><ele>51.66666666666667</ele><time>2026-04-23T15:09:11.321Z</time></trkpt><trkpt lat="34.00272" lon="8.1731067"><ele>51.0</ele><time>2026-04-23T15:09:12.321Z</time></trkpt><trkpt lat="34.00253" lon="8.1730217"><ele>51.33333333333333</ele><time>2026-04-23T15:09:13.321Z</time></trkpt><trkpt lat="34.0023467" lon="8.1729333"><ele>51.666666666666664</ele><time>2026-04-23T15:09:14.32Z</time></trkpt><trkpt lat="34.0021617" lon="8.1728533"><ele>52.0</ele><time>2026-04-23T15:09:15.321Z</time></trkpt><trkpt lat="34.0019867" lon="8.1727683"><ele>52.0</ele><time>2026-04-23T15:09:16.321Z</time></trkpt><trkpt lat="34.0018317" lon="8.1726983"><ele>52.0</ele><time>2026-04-23T15:09:17.32Z</time></trkpt><trkpt lat="34.0016767" lon="8.172635"><ele>52.0</ele><time>2026-04-23T15:09:18.321Z</time></trkpt><trkpt lat="34.0015333" lon="8.172565"><ele>54.33333333333333</ele><time>2026-04-23T15:09:19.32Z</time></trkpt><trkpt lat="34.0013883" lon="8.1725"><ele>56.66666666666667</ele><time>2026-04-23T15:09:20.32Z</time></trkpt><trkpt lat="34.001245" lon="8.172435"><ele>59.0</ele><time>2026-04-23T15:09:21.321Z</time></trkpt><trkpt lat="34.0011" lon="8.1723717"><ele>59.75</ele><time>2026-04-23T15:09:22.32Z</time></trkpt><trkpt lat="34.000965" lon="8.1723217"><ele>60.5</ele><time>2026-04-23T15:09:23.32Z</time></trkpt><trkpt lat="34.0008433" lon="8.17227"><ele>61.25</ele><time>2026-04-23T15:09:24.321Z</time></trkpt><trkpt lat="34.0007317" lon="8.1722083"><ele>62.0</ele><time>2026-04-23T15:09:25.32Z</time></trkpt><trkpt lat="34.0006117" lon="8.1721467"><ele>62.0</ele><time>2026-04-23T15:09:26.32Z</time></trkpt><trkpt lat="34.0004867" lon="8.1720867"><ele>62.0</ele><time>2026-04-23T15:09:27.32Z</time></trkpt><trkpt lat="34.0003633" lon="8.1720233"><ele>62.0</ele><time>2026-04-23T15:09:28.32Z</time></trkpt><trkpt lat="34.000245" lon="8.171955"><ele>62.0</ele><time>2026-04-23T15:09:29.32Z</time></trkpt><trkpt lat="34.0001217" lon="8.171885"><ele>62.0</ele><time>2026-04-23T15:09:30.321Z</time></trkpt><trkpt lat="33.999995" lon="8.17182"><ele>62.0</ele><time>2026-04-23T15:09:31.321Z</time></trkpt><trkpt lat="33.99987" lon="8.1717633"><ele>62.0</ele><time>2026-04-23T15:09:32.32Z</time></trkpt><trkpt lat="33.99975" lon="8.17171"><ele>62.0</ele><time>2026-04-23T15:09:33.321Z</time></trkpt><trkpt lat="33.999635" lon="8.1716667"><ele>62.0</ele><time>2026-04-23T15:09:34.321Z</time></trkpt><trkpt lat="33.99953" lon="8.171625"><ele>62.0</ele><time>2026-04-23T15:09:35.32Z</time></trkpt><trkpt lat="33.999435" lon="8.1715833"><ele>62.0</ele><time>2026-04-23T15:09:36.321Z</time></trkpt><trkpt lat="33.99935" lon="8.1715467"><ele>62.0</ele><time>2026-04-23T15:09:37.32Z</time></trkpt><trkpt lat="33.999275" lon="8.17151"><ele>62.0</ele><time>2026-04-23T15:09:38.321Z</time></trkpt><trkpt lat="33.9991983" lon="8.1714817"><ele>62.28571428571429</ele><time>2026-04-23T15:09:39.32Z</time></trkpt><trkpt lat="33.9991267" lon="8.1714533"><ele>62.57142857142858</ele><time>2026-04-23T15:09:40.32Z</time></trkpt><trkpt lat="33.9990617" lon="8.17143"><ele>62.85714285714286</ele><time>2026-04-23T15:09:41.32Z</time></trkpt><trkpt lat="33.9989933" lon="8.1714017"><ele>63.14285714285714</ele><time>2026-04-23T15:09:42.32Z</time></trkpt><trkpt lat="33.9989267" lon="8.1713767"><ele>63.42857142857142</ele><time>2026-04-23T15:09:43.321Z</time></trkpt><trkpt lat="33.9988583" lon="8.171345"><ele>63.71428571428571</ele><time>2026-04-23T15:09:44.32Z</time></trkpt><trkpt lat="33.9987883" lon="8.17131"><ele>64.0</ele><time>2026-04-23T15:09:45.32Z</time></trkpt><trkpt lat="33.9987117" lon="8.171275"><ele>64.0</ele><time>2026-04-23T15:09:46.321Z</time></trkpt><trkpt lat="33.9986267" lon="8.171235"><ele>64.0</ele><time>2026-04-23T15:09:47.32Z</time></trkpt><trkpt lat="33.9985317" lon="8.17119"><ele>64.0</ele><time>2026-04-23T15:09:48.321Z</time></trkpt><trkpt lat="33.9984317" lon="8.1711483"><ele>64.0</ele><time>2026-04-23T15:09:49.321Z</time></trkpt><trkpt lat="33.9983317" lon="8.1711067"><ele>64.0</ele><time>2026-04-23T15:09:50.32Z</time></trkpt><trkpt lat="33.9982333" lon="8.1710583"><ele>64.0</ele><time>2026-04-23T15:09:51.32Z</time></trkpt><trkpt lat="33.9981333" lon="8.17101"><ele>64.0</ele><time>2026-04-23T15:09:52.32Z</time></trkpt><trkpt lat="33.9980417" lon="8.1709583"><ele>64.0</ele><time>2026-04-23T15:09:53.32Z</time></trkpt><trkpt lat="33.997955" lon="8.1709133"><ele>64.0</ele><time>2026-04-23T15:09:54.32Z</time></trkpt><trkpt lat="33.9978783" lon="8.1708567"><ele>64.0</ele><time>2026-04-23T15:09:55.321Z</time></trkpt><trkpt lat="33.9978" lon="8.1708067"><ele>64.0</ele><time>2026-04-23T15:09:56.32Z</time></trkpt><trkpt lat="33.9977333" lon="8.170765"><ele>64.0</ele><time>2026-04-23T15:09:57.321Z</time></trkpt><trkpt lat="33.9976767" lon="8.17072"><ele>64.0</ele><time>2026-04-23T15:09:58.321Z</time></trkpt><trkpt lat="33.9976233" lon="8.1706683"><ele>64.0</ele><time>2026-04-23T15:09:59.32Z</time></trkpt><trkpt lat="33.9975367" lon="8.1705633"><ele>64.0</ele><time>2026-04-23T15:10:01.32Z</time></trkpt><trkpt lat="33.9974383" lon="8.1704633"><ele>63.166666666666664</ele><time>2026-04-23T15:10:03.32Z</time></trkpt><trkpt lat="33.9973767" lon="8.1704283"><ele>62.33333333333333</ele><time>2026-04-23T15:10:04.32Z</time></trkpt><trkpt lat="33.9973033" lon="8.170405"><ele>61.5</ele><time>2026-04-23T15:10:05.321Z</time></trkpt><trkpt lat="33.9972133" lon="8.1703883"><ele>60.66666666666667</ele><time>2026-04-23T15:10:06.32Z</time></trkpt><trkpt lat="33.9971233" lon="8.1703467"><ele>59.833333333333336</ele><time>2026-04-23T15:10:07.32Z</time></trkpt><trkpt lat="33.9970333" lon="8.17028"><ele>59.0</ele><time>2026-04-23T15:10:08.321Z</time></trkpt><trkpt lat="33.9969333" lon="8.1702183"><ele>59.0</ele><time>2026-04-23T15:10:09.321Z</time></trkpt><trkpt lat="33.9968317" lon="8.170145"><ele>59.0</ele><time>2026-04-23T15:10:10.321Z</time></trkpt><trkpt lat="33.99673" lon="8.1700567"><ele>59.0</ele><time>2026-04-23T15:10:11.32Z</time></trkpt><trkpt lat="33.9966217" lon="8.16996"><ele>59.0</ele><time>2026-04-23T15:10:12.32Z</time></trkpt><trkpt lat="33.9965083" lon="8.1698567"><ele>57.0</ele><time>2026-04-23T15:10:13.32Z</time></trkpt><trkpt lat="33.9963833" lon="8.1697533"><ele>55.0</ele><time>2026-04-23T15:10:14.321Z</time></trkpt><trkpt lat="33.996255" lon="8.16965"><ele>53.0</ele><time>2026-04-23T15:10:15.32Z</time></trkpt><trkpt lat="33.9961233" lon="8.169545"><ele>53.0</ele><time>2026-04-23T15:10:16.321Z</time></trkpt><trkpt lat="33.9959917" lon="8.1694383"><ele>53.0</ele><time>2026-04-23T15:10:17.32Z</time></trkpt><trkpt lat="33.99585" lon="8.1693367"><ele>53.0</ele><time>2026-04-23T15:10:18.32Z</time></trkpt><trkpt lat="33.9957217" lon="8.169225"><ele>52.66666666666667</ele><time>2026-04-23T15:10:19.321Z</time></trkpt><trkpt lat="33.9955883" lon="8.1691133"><ele>52.33333333333333</ele><time>2026-04-23T15:10:20.32Z</time></trkpt><trkpt lat="33.9954567" lon="8.1690017"><ele>52.0</ele><time>2026-04-23T15:10:21.321Z</time></trkpt><trkpt lat="33.995325" lon="8.168885"><ele>51.666666666666664</ele><time>2026-04-23T15:10:22.321Z</time></trkpt><trkpt lat="33.9952" lon="8.16877"><ele>51.33333333333333</ele><time>2026-04-23T15:10:23.321Z</time></trkpt><trkpt lat="33.995065" lon="8.1686633"><ele>51.0</ele><time>2026-04-23T15:10:24.32Z</time></trkpt><trkpt lat="33.9949217" lon="8.16855"><ele>51.0</ele><time>2026-04-23T15:10:25.32Z</time></trkpt><trkpt lat="33.9947917" lon="8.1684233"><ele>51.0</ele><time>2026-04-23T15:10:26.32Z</time></trkpt><trkpt lat="33.9946567" lon="8.16829"><ele>51.0</ele><time>2026-04-23T15:10:27.321Z</time></trkpt><trkpt lat="33.99452" lon="8.1681617"><ele>50.33333333333333</ele><time>2026-04-23T15:10:28.321Z</time></trkpt><trkpt lat="33.9943967" lon="8.16803"><ele>49.666666666666664</ele><time>2026-04-23T15:10:29.32Z</time></trkpt><trkpt lat="33.99428" lon="8.1678883"><ele>49.0</ele><time>2026-04-23T15:10:30.32Z</time></trkpt><trkpt lat="33.9941683" lon="8.1677217"><ele>49.0</ele><time>2026-04-23T15:10:31.321Z</time></trkpt><trkpt lat="33.9940733" lon="8.167555"><ele>49.0</ele><time>2026-04-23T15:10:32.321Z</time></trkpt><trkpt lat="33.9939983" lon="8.1673733"><ele>49.0</ele><time>2026-04-23T15:10:33.321Z</time></trkpt><trkpt lat="33.993935" lon="8.1671867"><ele>49.666666666666664</ele><time>2026-04-23T15:10:34.32Z</time></trkpt><trkpt lat="33.993885" lon="8.1669917"><ele>50.33333333333333</ele><time>2026-04-23T15:10:35.32Z</time></trkpt><trkpt lat="33.9938383" lon="8.1667867"><ele>51.0</ele><time>2026-04-23T15:10:36.321Z</time></trkpt><trkpt lat="33.993795" lon="8.16658"><ele>51.5</ele><time>2026-04-23T15:10:37.321Z</time></trkpt><trkpt lat="33.99376" lon="8.166365"><ele>52.0</ele><time>2026-04-23T15:10:38.321Z</time></trkpt><trkpt lat="33.993675" lon="8.1659467"><ele>52.0</ele><time>2026-04-23T15:10:40.321Z</time></trkpt><trkpt lat="33.9936183" lon="8.1657333"><ele>52.0</ele><time>2026-04-23T15:10:41.32Z</time></trkpt><trkpt lat="33.9935517" lon="8.1655233"><ele>52.0</ele><time>2026-04-23T15:10:42.32Z</time></trkpt><trkpt lat="33.9934733" lon="8.165325"><ele>52.33333333333333</ele><time>2026-04-23T15:10:43.321Z</time></trkpt><trkpt lat="33.993385" lon="8.1651217"><ele>52.66666666666667</ele><time>2026-04-23T15:10:44.321Z</time></trkpt><trkpt lat="33.99329" lon="8.1649333"><ele>53.0</ele><time>2026-04-23T15:10:45.32Z</time></trkpt><trkpt lat="33.9931883" lon="8.164745"><ele>54.66666666666667</ele><time>2026-04-23T15:10:46.321Z</time></trkpt><trkpt lat="33.9930833" lon="8.164575"><ele>56.33333333333333</ele><time>2026-04-23T15:10:47.32Z</time></trkpt><trkpt lat="33.9929767" lon="8.164425"><ele>58.0</ele><time>2026-04-23T15:10:48.32Z</time></trkpt><trkpt lat="33.992885" lon="8.1642833"><ele>57.0</ele><time>2026-04-23T15:10:49.32Z</time></trkpt><trkpt lat="33.9926883" lon="8.1640067"><ele>56.0</ele><time>2026-04-23T15:10:51.32Z</time></trkpt><trkpt lat="33.9925717" lon="8.1638583"><ele>56.333333333333336</ele><time>2026-04-23T15:10:52.32Z</time></trkpt><trkpt lat="33.9924567" lon="8.1637"><ele>56.66666666666667</ele><time>2026-04-23T15:10:53.32Z</time></trkpt><trkpt lat="33.9923483" lon="8.1635333"><ele>57.0</ele><time>2026-04-23T15:10:54.321Z</time></trkpt><trkpt lat="33.99224" lon="8.1633683"><ele>57.0</ele><time>2026-04-23T15:10:55.321Z</time></trkpt><trkpt lat="33.992135" lon="8.1632"><ele>57.0</ele><time>2026-04-23T15:10:56.321Z</time></trkpt><trkpt lat="33.9920283" lon="8.16303"><ele>57.0</ele><time>2026-04-23T15:10:57.321Z</time></trkpt><trkpt lat="33.991925" lon="8.162855"><ele>58.0</ele><time>2026-04-23T15:10:58.32Z</time></trkpt><trkpt lat="33.991815" lon="8.1626917"><ele>59.0</ele><time>2026-04-23T15:10:59.321Z</time></trkpt><trkpt lat="33.9917067" lon="8.1625233"><ele>60.0</ele><time>2026-04-23T15:11:00.32Z</time></trkpt><trkpt lat="33.9915967" lon="8.162355"><ele>61.66666666666667</ele><time>2026-04-23T15:11:01.321Z</time></trkpt><trkpt lat="33.99149" lon="8.1621817"><ele>63.333333333333336</ele><time>2026-04-23T15:11:02.321Z</time></trkpt><trkpt lat="33.991375" lon="8.1620033"><ele>65.0</ele><time>2026-04-23T15:11:03.321Z</time></trkpt><trkpt lat="33.9912583" lon="8.1618283"><ele>65.0</ele><time>2026-04-23T15:11:04.321Z</time></trkpt><trkpt lat="33.9911417" lon="8.161655"><ele>65.0</ele><time>2026-04-23T15:11:05.321Z</time></trkpt><trkpt lat="33.9910167" lon="8.1615"><ele>65.0</ele><time>2026-04-23T15:11:06.321Z</time></trkpt><trkpt lat="33.990885" lon="8.161345"><ele>66.66666666666667</ele><time>2026-04-23T15:11:07.32Z</time></trkpt><trkpt lat="33.9907467" lon="8.16119"><ele>68.33333333333333</ele><time>2026-04-23T15:11:08.32Z</time></trkpt><trkpt lat="33.9906133" lon="8.1610433"><ele>70.0</ele><time>2026-04-23T15:11:09.321Z</time></trkpt><trkpt lat="33.990475" lon="8.1609033"><ele>70.0</ele><time>2026-04-23T15:11:10.321Z</time></trkpt><trkpt lat="33.990335" lon="8.1607733"><ele>70.0</ele><time>2026-04-23T15:11:11.32Z</time></trkpt><trkpt lat="33.990195" lon="8.1606383"><ele>70.0</ele><time>2026-04-23T15:11:12.32Z</time></trkpt><trkpt lat="33.9900433" lon="8.1605083"><ele>71.0</ele><time>2026-04-23T15:11:13.321Z</time></trkpt><trkpt lat="33.9898917" lon="8.1603933"><ele>72.0</ele><time>2026-04-23T15:11:14.321Z</time></trkpt><trkpt lat="33.9897333" lon="8.1602817"><ele>73.0</ele><time>2026-04-23T15:11:15.321Z</time></trkpt><trkpt lat="33.9895817" lon="8.160195"><ele>73.0</ele><time>2026-04-23T15:11:16.32Z</time></trkpt><trkpt lat="33.989435" lon="8.1601183"><ele>73.0</ele><time>2026-04-23T15:11:17.32Z</time></trkpt><trkpt lat="33.989295" lon="8.1600467"><ele>73.0</ele><time>2026-04-23T15:11:18.321Z</time></trkpt><trkpt lat="33.9891567" lon="8.1599667"><ele>74.0</ele><time>2026-04-23T15:11:19.32Z</time></trkpt><trkpt lat="33.9890233" lon="8.159885"><ele>75.0</ele><time>2026-04-23T15:11:20.321Z</time></trkpt><trkpt lat="33.988885" lon="8.159815"><ele>76.0</ele><time>2026-04-23T15:11:21.32Z</time></trkpt><trkpt lat="33.9887467" lon="8.1597317"><ele>76.33333333333333</ele><time>2026-04-23T15:11:22.32Z</time></trkpt><trkpt lat="33.9886033" lon="8.1596617"><ele>76.66666666666667</ele><time>2026-04-23T15:11:23.321Z</time></trkpt><trkpt lat="33.9884583" lon="8.159595"><ele>77.0</ele><time>2026-04-23T15:11:24.32Z</time></trkpt><trkpt lat="33.9883167" lon="8.1595217"><ele>77.25</ele><time>2026-04-23T15:11:25.32Z</time></trkpt><trkpt lat="33.9881783" lon="8.1594567"><ele>77.5</ele><time>2026-04-23T15:11:26.321Z</time></trkpt><trkpt lat="33.9880417" lon="8.1593967"><ele>77.75</ele><time>2026-04-23T15:11:27.321Z</time></trkpt><trkpt lat="33.9879067" lon="8.1593267"><ele>78.0</ele><time>2026-04-23T15:11:28.321Z</time></trkpt><trkpt lat="33.987785" lon="8.15926"><ele>78.0</ele><time>2026-04-23T15:11:29.32Z</time></trkpt><trkpt lat="33.9876633" lon="8.15921"><ele>78.0</ele><time>2026-04-23T15:11:30.321Z</time></trkpt><trkpt lat="33.98755" lon="8.1591567"><ele>78.0</ele><time>2026-04-23T15:11:31.32Z</time></trkpt><trkpt lat="33.9874517" lon="8.1591033"><ele>78.0</ele><time>2026-04-23T15:11:32.321Z</time></trkpt><trkpt lat="33.9873583" lon="8.159065"><ele>77.6</ele><time>2026-04-23T15:11:33.321Z</time></trkpt><trkpt lat="33.9872717" lon="8.1590283"><ele>77.19999999999999</ele><time>2026-04-23T15:11:34.32Z</time></trkpt><trkpt lat="33.987185" lon="8.1589867"><ele>76.8</ele><time>2026-04-23T15:11:35.32Z</time></trkpt><trkpt lat="33.9870967" lon="8.1589433"><ele>76.39999999999999</ele><time>2026-04-23T15:11:36.32Z</time></trkpt><trkpt lat="33.9870083" lon="8.158895"><ele>76.0</ele><time>2026-04-23T15:11:37.321Z</time></trkpt><trkpt lat="33.9869117" lon="8.1588467"><ele>76.0</ele><time>2026-04-23T15:11:38.32Z</time></trkpt><trkpt lat="33.98681" lon="8.1588"><ele>76.0</ele><time>2026-04-23T15:11:39.32Z</time></trkpt><trkpt lat="33.9867033" lon="8.1587583"><ele>76.0</ele><time>2026-04-23T15:11:40.321Z</time></trkpt><trkpt lat="33.986595" lon="8.158715"><ele>76.0</ele><time>2026-04-23T15:11:41.32Z</time></trkpt><trkpt lat="33.9864883" lon="8.1586617"><ele>75.75</ele><time>2026-04-23T15:11:42.32Z</time></trkpt><trkpt lat="33.9863717" lon="8.1586167"><ele>75.5</ele><time>2026-04-23T15:11:43.319Z</time></trkpt><trkpt lat="33.9862533" lon="8.15857"><ele>75.25</ele><time>2026-04-23T15:11:44.319Z</time></trkpt><trkpt lat="33.986135" lon="8.1585083"><ele>75.0</ele><time>2026-04-23T15:11:45.319Z</time></trkpt><trkpt lat="33.9860117" lon="8.15845"><ele>75.0</ele><time>2026-04-23T15:11:46.32Z</time></trkpt><trkpt lat="33.9858833" lon="8.1583883"><ele>75.0</ele><time>2026-04-23T15:11:47.319Z</time></trkpt><trkpt lat="33.9857517" lon="8.1583267"><ele>75.0</ele><time>2026-04-23T15:11:48.319Z</time></trkpt><trkpt lat="33.9856167" lon="8.1582583"><ele>75.0</ele><time>2026-04-23T15:11:49.319Z</time></trkpt><trkpt lat="33.9854817" lon="8.1581967"><ele>75.0</ele><time>2026-04-23T15:11:50.32Z</time></trkpt><trkpt lat="33.985335" lon="8.1581483"><ele>75.0</ele><time>2026-04-23T15:11:51.32Z</time></trkpt><trkpt lat="33.9851817" lon="8.1581083"><ele>75.0</ele><time>2026-04-23T15:11:52.319Z</time></trkpt><trkpt lat="33.9850317" lon="8.15806"><ele>74.33333333333333</ele><time>2026-04-23T15:11:53.32Z</time></trkpt><trkpt lat="33.9848783" lon="8.158015"><ele>73.66666666666666</ele><time>2026-04-23T15:11:54.32Z</time></trkpt><trkpt lat="33.9847133" lon="8.15798"><ele>73.0</ele><time>2026-04-23T15:11:55.32Z</time></trkpt><trkpt lat="33.9845517" lon="8.1579333"><ele>73.0</ele><time>2026-04-23T15:11:56.319Z</time></trkpt><trkpt lat="33.9843783" lon="8.1579"><ele>73.0</ele><time>2026-04-23T15:11:57.32Z</time></trkpt><trkpt lat="33.9842067" lon="8.15786"><ele>73.0</ele><time>2026-04-23T15:11:58.319Z</time></trkpt><trkpt lat="33.9840433" lon="8.157815"><ele>72.66666666666666</ele><time>2026-04-23T15:11:59.32Z</time></trkpt><trkpt lat="33.9838783" lon="8.1577717"><ele>72.33333333333333</ele><time>2026-04-23T15:12:00.32Z</time></trkpt><trkpt lat="33.983715" lon="8.1577267"><ele>72.0</ele><time>2026-04-23T15:12:01.32Z</time></trkpt><trkpt lat="33.9835483" lon="8.157685"><ele>72.0</ele><time>2026-04-23T15:12:02.32Z</time></trkpt><trkpt lat="33.98338" lon="8.1576383"><ele>72.0</ele><time>2026-04-23T15:12:03.319Z</time></trkpt><trkpt lat="33.983205" lon="8.1575917"><ele>72.0</ele><time>2026-04-23T15:12:04.32Z</time></trkpt><trkpt lat="33.9830317" lon="8.157535"><ele>72.0</ele><time>2026-04-23T15:12:05.319Z</time></trkpt><trkpt lat="33.9828567" lon="8.1574933"><ele>72.0</ele><time>2026-04-23T15:12:06.319Z</time></trkpt><trkpt lat="33.98268" lon="8.157445"><ele>72.0</ele><time>2026-04-23T15:12:07.319Z</time></trkpt><trkpt lat="33.9825067" lon="8.1574017"><ele>71.33333333333333</ele><time>2026-04-23T15:12:08.32Z</time></trkpt><trkpt lat="33.98233" lon="8.1573567"><ele>70.66666666666666</ele><time>2026-04-23T15:12:09.319Z</time></trkpt><trkpt lat="33.9821483" lon="8.157305"><ele>70.0</ele><time>2026-04-23T15:12:10.319Z</time></trkpt><trkpt lat="33.9819667" lon="8.157255"><ele>70.0</ele><time>2026-04-23T15:12:11.319Z</time></trkpt><trkpt lat="33.9817867" lon="8.1572133"><ele>70.0</ele><time>2026-04-23T15:12:12.32Z</time></trkpt><trkpt lat="33.9816067" lon="8.1571683"><ele>70.0</ele><time>2026-04-23T15:12:13.319Z</time></trkpt><trkpt lat="33.9814283" lon="8.15712"><ele>69.66666666666666</ele><time>2026-04-23T15:12:14.319Z</time></trkpt><trkpt lat="33.9812417" lon="8.157075"><ele>69.33333333333333</ele><time>2026-04-23T15:12:15.32Z</time></trkpt><trkpt lat="33.9810533" lon="8.157025"><ele>69.0</ele><time>2026-04-23T15:12:16.32Z</time></trkpt><trkpt lat="33.9808567" lon="8.1569767"><ele>69.0</ele><time>2026-04-23T15:12:17.319Z</time></trkpt><trkpt lat="33.9806667" lon="8.1569417"><ele>69.0</ele><time>2026-04-23T15:12:18.319Z</time></trkpt><trkpt lat="33.98048" lon="8.1568933"><ele>69.0</ele><time>2026-04-23T15:12:19.32Z</time></trkpt><trkpt lat="33.9802917" lon="8.1568483"><ele>69.0</ele><time>2026-04-23T15:12:20.319Z</time></trkpt><trkpt lat="33.9801017" lon="8.1568033"><ele>69.0</ele><time>2026-04-23T15:12:21.319Z</time></trkpt><trkpt lat="33.9799083" lon="8.1567533"><ele>69.0</ele><time>2026-04-23T15:12:22.319Z</time></trkpt><trkpt lat="33.97971" lon="8.156715"><ele>69.33333333333333</ele><time>2026-04-23T15:12:23.32Z</time></trkpt><trkpt lat="33.97952" lon="8.1566717"><ele>69.66666666666666</ele><time>2026-04-23T15:12:24.32Z</time></trkpt><trkpt lat="33.97933" lon="8.1566283"><ele>70.0</ele><time>2026-04-23T15:12:25.32Z</time></trkpt><trkpt lat="33.979135" lon="8.15658"><ele>69.33333333333333</ele><time>2026-04-23T15:12:26.319Z</time></trkpt><trkpt lat="33.978945" lon="8.1565317"><ele>68.66666666666667</ele><time>2026-04-23T15:12:27.319Z</time></trkpt><trkpt lat="33.9787567" lon="8.1564883"><ele>68.0</ele><time>2026-04-23T15:12:28.319Z</time></trkpt><trkpt lat="33.9785667" lon="8.156435"><ele>68.0</ele><time>2026-04-23T15:12:29.319Z</time></trkpt><trkpt lat="33.9783683" lon="8.156385"><ele>68.0</ele><time>2026-04-23T15:12:30.319Z</time></trkpt><trkpt lat="33.97818" lon="8.15635"><ele>68.0</ele><time>2026-04-23T15:12:31.32Z</time></trkpt><trkpt lat="33.9779867" lon="8.1563033"><ele>68.33333333333334</ele><time>2026-04-23T15:12:32.32Z</time></trkpt><trkpt lat="33.9777983" lon="8.1562517"><ele>68.66666666666667</ele><time>2026-04-23T15:12:33.32Z</time></trkpt><trkpt lat="33.9776017" lon="8.156205"><ele>69.0</ele><time>2026-04-23T15:12:34.319Z</time></trkpt><trkpt lat="33.9774017" lon="8.1561483"><ele>69.0</ele><time>2026-04-23T15:12:35.32Z</time></trkpt><trkpt lat="33.9772033" lon="8.1561017"><ele>69.0</ele><time>2026-04-23T15:12:36.319Z</time></trkpt><trkpt lat="33.9770017" lon="8.1560483"><ele>69.0</ele><time>2026-04-23T15:12:37.319Z</time></trkpt><trkpt lat="33.9768" lon="8.1560033"><ele>69.33333333333333</ele><time>2026-04-23T15:12:38.32Z</time></trkpt><trkpt lat="33.9765933" lon="8.155965"><ele>69.66666666666666</ele><time>2026-04-23T15:12:39.32Z</time></trkpt><trkpt lat="33.97639" lon="8.1559183"><ele>70.0</ele><time>2026-04-23T15:12:40.32Z</time></trkpt><trkpt lat="33.9761833" lon="8.1558667"><ele>70.0</ele><time>2026-04-23T15:12:41.32Z</time></trkpt><trkpt lat="33.9759717" lon="8.15582"><ele>70.0</ele><time>2026-04-23T15:12:42.319Z</time></trkpt><trkpt lat="33.9757617" lon="8.1557717"><ele>70.0</ele><time>2026-04-23T15:12:43.319Z</time></trkpt><trkpt lat="33.9755517" lon="8.1557133"><ele>69.66666666666666</ele><time>2026-04-23T15:12:44.319Z</time></trkpt><trkpt lat="33.9753467" lon="8.1556633"><ele>69.33333333333333</ele><time>2026-04-23T15:12:45.32Z</time></trkpt><trkpt lat="33.975145" lon="8.15561"><ele>69.0</ele><time>2026-04-23T15:12:46.319Z</time></trkpt><trkpt lat="33.97494" lon="8.15555"><ele>68.66666666666667</ele><time>2026-04-23T15:12:47.319Z</time></trkpt><trkpt lat="33.9747317" lon="8.1555"><ele>68.33333333333334</ele><time>2026-04-23T15:12:48.32Z</time></trkpt><trkpt lat="33.9745283" lon="8.1554467"><ele>68.0</ele><time>2026-04-23T15:12:49.319Z</time></trkpt><trkpt lat="33.9743117" lon="8.155395"><ele>67.33333333333334</ele><time>2026-04-23T15:12:50.32Z</time></trkpt><trkpt lat="33.974095" lon="8.1553467"><ele>66.66666666666667</ele><time>2026-04-23T15:12:51.32Z</time></trkpt><trkpt lat="33.9738783" lon="8.1553017"><ele>66.0</ele><time>2026-04-23T15:12:52.32Z</time></trkpt><trkpt lat="33.9736683" lon="8.1552533"><ele>66.0</ele><time>2026-04-23T15:12:53.319Z</time></trkpt><trkpt lat="33.9734517" lon="8.1551967"><ele>66.0</ele><time>2026-04-23T15:12:54.32Z</time></trkpt><trkpt lat="33.9732383" lon="8.15514"><ele>66.0</ele><time>2026-04-23T15:12:55.319Z</time></trkpt><trkpt lat="33.9730233" lon="8.15509"><ele>66.66666666666667</ele><time>2026-04-23T15:12:56.319Z</time></trkpt><trkpt lat="33.9728133" lon="8.1550433"><ele>67.33333333333334</ele><time>2026-04-23T15:12:57.319Z</time></trkpt><trkpt lat="33.9725967" lon="8.1549933"><ele>68.0</ele><time>2026-04-23T15:12:58.32Z</time></trkpt><trkpt lat="33.9723833" lon="8.154935"><ele>68.33333333333334</ele><time>2026-04-23T15:12:59.32Z</time></trkpt><trkpt lat="33.9721617" lon="8.15489"><ele>68.66666666666667</ele><time>2026-04-23T15:13:00.32Z</time></trkpt><trkpt lat="33.9719433" lon="8.15484"><ele>69.0</ele><time>2026-04-23T15:13:01.32Z</time></trkpt><trkpt lat="33.9717317" lon="8.1547817"><ele>68.33333333333333</ele><time>2026-04-23T15:13:02.319Z</time></trkpt><trkpt lat="33.97152" lon="8.154725"><ele>67.66666666666666</ele><time>2026-04-23T15:13:03.32Z</time></trkpt><trkpt lat="33.9713067" lon="8.154665"><ele>67.0</ele><time>2026-04-23T15:13:04.32Z</time></trkpt><trkpt lat="33.97109" lon="8.1546033"><ele>67.0</ele><time>2026-04-23T15:13:05.319Z</time></trkpt><trkpt lat="33.9708733" lon="8.1545517"><ele>67.0</ele><time>2026-04-23T15:13:06.32Z</time></trkpt><trkpt lat="33.9706533" lon="8.1544917"><ele>67.0</ele><time>2026-04-23T15:13:07.319Z</time></trkpt><trkpt lat="33.9704333" lon="8.15444"><ele>67.5</ele><time>2026-04-23T15:13:08.319Z</time></trkpt><trkpt lat="33.9702133" lon="8.1543833"><ele>68.0</ele><time>2026-04-23T15:13:09.32Z</time></trkpt><trkpt lat="33.9699883" lon="8.1543317"><ele>68.66666666666667</ele><time>2026-04-23T15:13:10.319Z</time></trkpt><trkpt lat="33.9697733" lon="8.15427"><ele>69.33333333333333</ele><time>2026-04-23T15:13:11.319Z</time></trkpt><trkpt lat="33.9695633" lon="8.154215"><ele>70.0</ele><time>2026-04-23T15:13:12.32Z</time></trkpt><trkpt lat="33.9693517" lon="8.1541633"><ele>70.0</ele><time>2026-04-23T15:13:13.319Z</time></trkpt><trkpt lat="33.9691383" lon="8.1541133"><ele>70.0</ele><time>2026-04-23T15:13:14.32Z</time></trkpt><trkpt lat="33.96892" lon="8.154065"><ele>70.0</ele><time>2026-04-23T15:13:15.319Z</time></trkpt><trkpt lat="33.9687017" lon="8.1540133"><ele>70.33333333333333</ele><time>2026-04-23T15:13:16.319Z</time></trkpt><trkpt lat="33.968485" lon="8.15396"><ele>70.66666666666667</ele><time>2026-04-23T15:13:17.32Z</time></trkpt><trkpt lat="33.9682717" lon="8.1539"><ele>71.0</ele><time>2026-04-23T15:13:18.319Z</time></trkpt><trkpt lat="33.968055" lon="8.1538467"><ele>71.0</ele><time>2026-04-23T15:13:19.319Z</time></trkpt><trkpt lat="33.967835" lon="8.1538"><ele>71.0</ele><time>2026-04-23T15:13:20.32Z</time></trkpt><trkpt lat="33.9676183" lon="8.153755"><ele>71.0</ele><time>2026-04-23T15:13:21.32Z</time></trkpt><trkpt lat="33.9673933" lon="8.1537067"><ele>71.0</ele><time>2026-04-23T15:13:22.319Z</time></trkpt><trkpt lat="33.9671767" lon="8.15365"><ele>71.0</ele><time>2026-04-23T15:13:23.319Z</time></trkpt><trkpt lat="33.96696" lon="8.153595"><ele>71.0</ele><time>2026-04-23T15:13:24.319Z</time></trkpt><trkpt lat="33.96674" lon="8.153545"><ele>71.0</ele><time>2026-04-23T15:13:25.319Z</time></trkpt><trkpt lat="33.9665233" lon="8.1534883"><ele>71.0</ele><time>2026-04-23T15:13:26.319Z</time></trkpt><trkpt lat="33.966305" lon="8.15343"><ele>71.0</ele><time>2026-04-23T15:13:27.319Z</time></trkpt><trkpt lat="33.9660833" lon="8.15338"><ele>71.0</ele><time>2026-04-23T15:13:28.319Z</time></trkpt><trkpt lat="33.9658617" lon="8.1533233"><ele>71.0</ele><time>2026-04-23T15:13:29.319Z</time></trkpt><trkpt lat="33.9656367" lon="8.1532733"><ele>71.0</ele><time>2026-04-23T15:13:30.319Z</time></trkpt><trkpt lat="33.9654083" lon="8.1532183"><ele>71.0</ele><time>2026-04-23T15:13:31.319Z</time></trkpt><trkpt lat="33.96518" lon="8.1531633"><ele>70.5</ele><time>2026-04-23T15:13:32.32Z</time></trkpt><trkpt lat="33.9649517" lon="8.1531117"><ele>70.0</ele><time>2026-04-23T15:13:33.32Z</time></trkpt><trkpt lat="33.964725" lon="8.1530517"><ele>70.0</ele><time>2026-04-23T15:13:34.32Z</time></trkpt><trkpt lat="33.964495" lon="8.153"><ele>70.0</ele><time>2026-04-23T15:13:35.32Z</time></trkpt><trkpt lat="33.9642733" lon="8.1529467"><ele>70.5</ele><time>2026-04-23T15:13:36.32Z</time></trkpt><trkpt lat="33.9640517" lon="8.1528833"><ele>71.0</ele><time>2026-04-23T15:13:37.32Z</time></trkpt><trkpt lat="33.9638267" lon="8.152825"><ele>71.0</ele><time>2026-04-23T15:13:38.319Z</time></trkpt><trkpt lat="33.963605" lon="8.152775"><ele>71.0</ele><time>2026-04-23T15:13:39.32Z</time></trkpt><trkpt lat="33.9633783" lon="8.1527317"><ele>72.0</ele><time>2026-04-23T15:13:40.32Z</time></trkpt><trkpt lat="33.9631567" lon="8.1526733"><ele>73.0</ele><time>2026-04-23T15:13:41.32Z</time></trkpt><trkpt lat="33.96293" lon="8.15262"><ele>73.0</ele><time>2026-04-23T15:13:42.319Z</time></trkpt><trkpt lat="33.9627083" lon="8.1525667"><ele>73.0</ele><time>2026-04-23T15:13:43.319Z</time></trkpt><trkpt lat="33.9624967" lon="8.1525033"><ele>73.0</ele><time>2026-04-23T15:13:44.319Z</time></trkpt><trkpt lat="33.9622783" lon="8.1524433"><ele>72.33333333333333</ele><time>2026-04-23T15:13:45.32Z</time></trkpt><trkpt lat="33.9620617" lon="8.152395"><ele>71.66666666666667</ele><time>2026-04-23T15:13:46.319Z</time></trkpt><trkpt lat="33.9618367" lon="8.1523467"><ele>71.0</ele><time>2026-04-23T15:13:47.32Z</time></trkpt><trkpt lat="33.9616167" lon="8.1522883"><ele>70.5</ele><time>2026-04-23T15:13:48.32Z</time></trkpt><trkpt lat="33.9613933" lon="8.152235"><ele>70.0</ele><time>2026-04-23T15:13:49.319Z</time></trkpt><trkpt lat="33.9611733" lon="8.1521767"><ele>70.0</ele><time>2026-04-23T15:13:50.32Z</time></trkpt><trkpt lat="33.960955" lon="8.1521217"><ele>70.0</ele><time>2026-04-23T15:13:51.32Z</time></trkpt><trkpt lat="33.96074" lon="8.1520633"><ele>70.0</ele><time>2026-04-23T15:13:52.319Z</time></trkpt><trkpt lat="33.9605183" lon="8.1520133"><ele>69.5</ele><time>2026-04-23T15:13:53.319Z</time></trkpt><trkpt lat="33.960295" lon="8.1519617"><ele>69.0</ele><time>2026-04-23T15:13:54.319Z</time></trkpt><trkpt lat="33.9600767" lon="8.15191"><ele>69.33333333333333</ele><time>2026-04-23T15:13:55.319Z</time></trkpt><trkpt lat="33.95986" lon="8.1518633"><ele>69.66666666666666</ele><time>2026-04-23T15:13:56.32Z</time></trkpt><trkpt lat="33.9596417" lon="8.15181"><ele>70.0</ele><time>2026-04-23T15:13:57.32Z</time></trkpt><trkpt lat="33.9594267" lon="8.1517517"><ele>70.0</ele><time>2026-04-23T15:13:58.319Z</time></trkpt><trkpt lat="33.9592133" lon="8.1516967"><ele>70.0</ele><time>2026-04-23T15:13:59.32Z</time></trkpt><trkpt lat="33.9589933" lon="8.1516367"><ele>70.0</ele><time>2026-04-23T15:14:00.319Z</time></trkpt><trkpt lat="33.9587717" lon="8.151585"><ele>69.33333333333333</ele><time>2026-04-23T15:14:01.319Z</time></trkpt><trkpt lat="33.95855" lon="8.1515333"><ele>68.66666666666667</ele><time>2026-04-23T15:14:02.319Z</time></trkpt><trkpt lat="33.9583317" lon="8.1514817"><ele>68.0</ele><time>2026-04-23T15:14:03.32Z</time></trkpt><trkpt lat="33.958115" lon="8.1514317"><ele>68.0</ele><time>2026-04-23T15:14:04.319Z</time></trkpt><trkpt lat="33.9578983" lon="8.1513767"><ele>68.0</ele><time>2026-04-23T15:14:05.319Z</time></trkpt><trkpt lat="33.9576733" lon="8.15133"><ele>68.0</ele><time>2026-04-23T15:14:06.32Z</time></trkpt><trkpt lat="33.9574583" lon="8.1512833"><ele>68.0</ele><time>2026-04-23T15:14:07.319Z</time></trkpt><trkpt lat="33.9572433" lon="8.15123"><ele>68.0</ele><time>2026-04-23T15:14:08.32Z</time></trkpt><trkpt lat="33.9570317" lon="8.151175"><ele>68.0</ele><time>2026-04-23T15:14:09.32Z</time></trkpt><trkpt lat="33.9568183" lon="8.1511183"><ele>68.0</ele><time>2026-04-23T15:14:10.319Z</time></trkpt><trkpt lat="33.9566017" lon="8.1510683"><ele>68.0</ele><time>2026-04-23T15:14:11.32Z</time></trkpt><trkpt lat="33.9563867" lon="8.15102"><ele>68.66666666666667</ele><time>2026-04-23T15:14:12.32Z</time></trkpt><trkpt lat="33.9561683" lon="8.15097"><ele>69.33333333333333</ele><time>2026-04-23T15:14:13.32Z</time></trkpt><trkpt lat="33.9559483" lon="8.1509217"><ele>70.0</ele><time>2026-04-23T15:14:14.32Z</time></trkpt><trkpt lat="33.9557283" lon="8.1508683"><ele>70.0</ele><time>2026-04-23T15:14:15.319Z</time></trkpt><trkpt lat="33.95551" lon="8.1508167"><ele>70.0</ele><time>2026-04-23T15:14:16.32Z</time></trkpt><trkpt lat="33.955295" lon="8.1507617"><ele>70.0</ele><time>2026-04-23T15:14:17.319Z</time></trkpt><trkpt lat="33.9550783" lon="8.150705"><ele>70.0</ele><time>2026-04-23T15:14:18.319Z</time></trkpt><trkpt lat="33.9548667" lon="8.1506367"><ele>70.0</ele><time>2026-04-23T15:14:19.32Z</time></trkpt><trkpt lat="33.9546483" lon="8.1505783"><ele>70.0</ele><time>2026-04-23T15:14:20.32Z</time></trkpt><trkpt lat="33.95443" lon="8.1505217"><ele>70.0</ele><time>2026-04-23T15:14:21.319Z</time></trkpt><trkpt lat="33.954205" lon="8.1504767"><ele>70.0</ele><time>2026-04-23T15:14:22.319Z</time></trkpt><trkpt lat="33.953985" lon="8.150425"><ele>70.33333333333333</ele><time>2026-04-23T15:14:23.32Z</time></trkpt><trkpt lat="33.95377" lon="8.1503683"><ele>70.66666666666667</ele><time>2026-04-23T15:14:24.319Z</time></trkpt><trkpt lat="33.9535583" lon="8.150315"><ele>71.0</ele><time>2026-04-23T15:14:25.32Z</time></trkpt><trkpt lat="33.9533467" lon="8.1502617"><ele>72.33333333333334</ele><time>2026-04-23T15:14:26.319Z</time></trkpt><trkpt lat="33.9531417" lon="8.1502133"><ele>73.66666666666667</ele><time>2026-04-23T15:14:27.32Z</time></trkpt><trkpt lat="33.9529433" lon="8.1501633"><ele>75.0</ele><time>2026-04-23T15:14:28.32Z</time></trkpt><trkpt lat="33.9527483" lon="8.1501133"><ele>75.0</ele><time>2026-04-23T15:14:29.32Z</time></trkpt><trkpt lat="33.9525567" lon="8.1500717"><ele>75.0</ele><time>2026-04-23T15:14:30.319Z</time></trkpt><trkpt lat="33.9523717" lon="8.15003"><ele>75.0</ele><time>2026-04-23T15:14:31.32Z</time></trkpt><trkpt lat="33.9521883" lon="8.149985"><ele>75.0</ele><time>2026-04-23T15:14:32.32Z</time></trkpt><trkpt lat="33.9520167" lon="8.1499333"><ele>75.0</ele><time>2026-04-23T15:14:33.319Z</time></trkpt><trkpt lat="33.9518433" lon="8.1498933"><ele>75.0</ele><time>2026-04-23T15:14:34.32Z</time></trkpt><trkpt lat="33.95167" lon="8.149845"><ele>76.0</ele><time>2026-04-23T15:14:35.319Z</time></trkpt><trkpt lat="33.9514967" lon="8.1498"><ele>77.0</ele><time>2026-04-23T15:14:36.32Z</time></trkpt><trkpt lat="33.9513333" lon="8.14975"><ele>78.0</ele><time>2026-04-23T15:14:37.319Z</time></trkpt><trkpt lat="33.95117" lon="8.1497017"><ele>78.0</ele><time>2026-04-23T15:14:38.32Z</time></trkpt><trkpt lat="33.95102" lon="8.1496533"><ele>78.0</ele><time>2026-04-23T15:14:39.32Z</time></trkpt><trkpt lat="33.9508833" lon="8.14961"><ele>78.0</ele><time>2026-04-23T15:14:40.32Z</time></trkpt><trkpt lat="33.9507633" lon="8.149565"><ele>78.0</ele><time>2026-04-23T15:14:41.32Z</time></trkpt><trkpt lat="33.9506517" lon="8.1495133"><ele>78.2</ele><time>2026-04-23T15:14:42.32Z</time></trkpt><trkpt lat="33.9505533" lon="8.1494617"><ele>78.4</ele><time>2026-04-23T15:14:43.32Z</time></trkpt><trkpt lat="33.9504633" lon="8.149405"><ele>78.60000000000001</ele><time>2026-04-23T15:14:44.319Z</time></trkpt><trkpt lat="33.950385" lon="8.1493483"><ele>78.8</ele><time>2026-04-23T15:14:45.32Z</time></trkpt><trkpt lat="33.9503183" lon="8.1493017"><ele>79.0</ele><time>2026-04-23T15:14:46.32Z</time></trkpt><trkpt lat="33.95024" lon="8.1492633"><ele>79.0</ele><time>2026-04-23T15:14:47.319Z</time></trkpt><trkpt lat="33.95015" lon="8.1492533"><ele>79.0</ele><time>2026-04-23T15:14:48.319Z</time></trkpt><trkpt lat="33.9500567" lon="8.1492667"><ele>79.0</ele><time>2026-04-23T15:14:49.319Z</time></trkpt><trkpt lat="33.949965" lon="8.1492717"><ele>79.0</ele><time>2026-04-23T15:14:50.319Z</time></trkpt><trkpt lat="33.949875" lon="8.149265"><ele>79.0</ele><time>2026-04-23T15:14:51.319Z</time></trkpt><trkpt lat="33.9497833" lon="8.149245"><ele>79.0</ele><time>2026-04-23T15:14:52.32Z</time></trkpt><trkpt lat="33.949675" lon="8.1492167"><ele>79.0</ele><time>2026-04-23T15:14:53.319Z</time></trkpt><trkpt lat="33.9495633" lon="8.1491833"><ele>79.0</ele><time>2026-04-23T15:14:54.319Z</time></trkpt><trkpt lat="33.9494433" lon="8.14914"><ele>79.0</ele><time>2026-04-23T15:14:55.32Z</time></trkpt><trkpt lat="33.9493167" lon="8.1490933"><ele>78.75</ele><time>2026-04-23T15:14:56.32Z</time></trkpt><trkpt lat="33.94918" lon="8.1490467"><ele>78.5</ele><time>2026-04-23T15:14:57.319Z</time></trkpt><trkpt lat="33.9490383" lon="8.1489983"><ele>78.25</ele><time>2026-04-23T15:14:58.319Z</time></trkpt><trkpt lat="33.94889" lon="8.1489467"><ele>78.0</ele><time>2026-04-23T15:14:59.32Z</time></trkpt><trkpt lat="33.9487433" lon="8.14889"><ele>78.0</ele><time>2026-04-23T15:15:00.32Z</time></trkpt><trkpt lat="33.9485883" lon="8.14883"><ele>78.0</ele><time>2026-04-23T15:15:01.32Z</time></trkpt><trkpt lat="33.9484217" lon="8.1487817"><ele>78.0</ele><time>2026-04-23T15:15:02.319Z</time></trkpt><trkpt lat="33.9482567" lon="8.1487283"><ele>79.33333333333333</ele><time>2026-04-23T15:15:03.32Z</time></trkpt><trkpt lat="33.9480917" lon="8.1486733"><ele>80.66666666666666</ele><time>2026-04-23T15:15:04.319Z</time></trkpt><trkpt lat="33.9479217" lon="8.1486183"><ele>82.0</ele><time>2026-04-23T15:15:05.319Z</time></trkpt><trkpt lat="33.9477517" lon="8.1485583"><ele>82.0</ele><time>2026-04-23T15:15:06.319Z</time></trkpt><trkpt lat="33.9475867" lon="8.148485"><ele>82.0</ele><time>2026-04-23T15:15:07.32Z</time></trkpt><trkpt lat="33.947425" lon="8.1483967"><ele>82.0</ele><time>2026-04-23T15:15:08.32Z</time></trkpt><trkpt lat="33.9472633" lon="8.148305"><ele>81.33333333333333</ele><time>2026-04-23T15:15:09.318Z</time></trkpt><trkpt lat="33.94711" lon="8.1482067"><ele>80.66666666666667</ele><time>2026-04-23T15:15:10.318Z</time></trkpt><trkpt lat="33.9469517" lon="8.1481033"><ele>80.0</ele><time>2026-04-23T15:15:11.319Z</time></trkpt><trkpt lat="33.9467933" lon="8.14799"><ele>81.0</ele><time>2026-04-23T15:15:12.318Z</time></trkpt><trkpt lat="33.9466317" lon="8.1478867"><ele>82.0</ele><time>2026-04-23T15:15:13.319Z</time></trkpt><trkpt lat="33.9464733" lon="8.1477733"><ele>83.0</ele><time>2026-04-23T15:15:14.318Z</time></trkpt><trkpt lat="33.9463117" lon="8.147665"><ele>83.0</ele><time>2026-04-23T15:15:15.319Z</time></trkpt><trkpt lat="33.94615" lon="8.1475583"><ele>83.0</ele><time>2026-04-23T15:15:16.318Z</time></trkpt><trkpt lat="33.9459917" lon="8.147445"><ele>83.0</ele><time>2026-04-23T15:15:17.318Z</time></trkpt><trkpt lat="33.94584" lon="8.1473317"><ele>83.33333333333334</ele><time>2026-04-23T15:15:18.318Z</time></trkpt><trkpt lat="33.945675" lon="8.1472367"><ele>83.66666666666667</ele><time>2026-04-23T15:15:19.319Z</time></trkpt><trkpt lat="33.9455183" lon="8.14713"><ele>84.0</ele><time>2026-04-23T15:15:20.318Z</time></trkpt><trkpt lat="33.9453633" lon="8.147025"><ele>84.0</ele><time>2026-04-23T15:15:21.318Z</time></trkpt><trkpt lat="33.9452167" lon="8.1469233"><ele>84.0</ele><time>2026-04-23T15:15:22.318Z</time></trkpt><trkpt lat="33.9450667" lon="8.146815"><ele>84.0</ele><time>2026-04-23T15:15:23.318Z</time></trkpt><trkpt lat="33.9449233" lon="8.1467183"><ele>83.33333333333333</ele><time>2026-04-23T15:15:24.318Z</time></trkpt><trkpt lat="33.9447767" lon="8.14662"><ele>82.66666666666666</ele><time>2026-04-23T15:15:25.318Z</time></trkpt><trkpt lat="33.9446317" lon="8.1465217"><ele>82.0</ele><time>2026-04-23T15:15:26.318Z</time></trkpt><trkpt lat="33.9444833" lon="8.1464167"><ele>82.0</ele><time>2026-04-23T15:15:27.318Z</time></trkpt><trkpt lat="33.94434" lon="8.14632"><ele>82.0</ele><time>2026-04-23T15:15:28.319Z</time></trkpt><trkpt lat="33.944195" lon="8.1462133"><ele>82.0</ele><time>2026-04-23T15:15:29.318Z</time></trkpt><trkpt lat="33.9440467" lon="8.1461083"><ele>82.33333333333333</ele><time>2026-04-23T15:15:30.319Z</time></trkpt><trkpt lat="33.9438967" lon="8.1460067"><ele>82.66666666666667</ele><time>2026-04-23T15:15:31.318Z</time></trkpt><trkpt lat="33.943765" lon="8.1459017"><ele>83.0</ele><time>2026-04-23T15:15:32.318Z</time></trkpt><trkpt lat="33.943625" lon="8.1458017"><ele>82.66666666666667</ele><time>2026-04-23T15:15:33.318Z</time></trkpt><trkpt lat="33.9434817" lon="8.1456983"><ele>82.33333333333333</ele><time>2026-04-23T15:15:34.318Z</time></trkpt><trkpt lat="33.943345" lon="8.1455883"><ele>82.0</ele><time>2026-04-23T15:15:35.318Z</time></trkpt><trkpt lat="33.9432033" lon="8.145495"><ele>81.66666666666666</ele><time>2026-04-23T15:15:36.318Z</time></trkpt><trkpt lat="33.9430583" lon="8.1454033"><ele>81.33333333333333</ele><time>2026-04-23T15:15:37.318Z</time></trkpt><trkpt lat="33.9429067" lon="8.1453117"><ele>81.0</ele><time>2026-04-23T15:15:38.318Z</time></trkpt><trkpt lat="33.9427583" lon="8.1452167"><ele>81.0</ele><time>2026-04-23T15:15:39.318Z</time></trkpt><trkpt lat="33.9426183" lon="8.1451183"><ele>81.0</ele><time>2026-04-23T15:15:40.319Z</time></trkpt><trkpt lat="33.9424733" lon="8.1450183"><ele>81.0</ele><time>2026-04-23T15:15:41.318Z</time></trkpt><trkpt lat="33.94233" lon="8.1449083"><ele>81.33333333333333</ele><time>2026-04-23T15:15:42.318Z</time></trkpt><trkpt lat="33.9421867" lon="8.14481"><ele>81.66666666666666</ele><time>2026-04-23T15:15:43.318Z</time></trkpt><trkpt lat="33.94204" lon="8.1447067"><ele>82.0</ele><time>2026-04-23T15:15:44.319Z</time></trkpt><trkpt lat="33.9418883" lon="8.1446117"><ele>82.0</ele><time>2026-04-23T15:15:45.318Z</time></trkpt><trkpt lat="33.94174" lon="8.1445067"><ele>82.0</ele><time>2026-04-23T15:15:46.319Z</time></trkpt><trkpt lat="33.9415883" lon="8.1444017"><ele>82.0</ele><time>2026-04-23T15:15:47.318Z</time></trkpt><trkpt lat="33.94144" lon="8.14429"><ele>82.0</ele><time>2026-04-23T15:15:48.319Z</time></trkpt><trkpt lat="33.941295" lon="8.14418"><ele>82.0</ele><time>2026-04-23T15:15:49.318Z</time></trkpt><trkpt lat="33.9411467" lon="8.14408"><ele>82.0</ele><time>2026-04-23T15:15:50.319Z</time></trkpt><trkpt lat="33.9409967" lon="8.1439933"><ele>82.0</ele><time>2026-04-23T15:15:51.318Z</time></trkpt><trkpt lat="33.9408533" lon="8.1438983"><ele>82.0</ele><time>2026-04-23T15:15:52.318Z</time></trkpt><trkpt lat="33.9407083" lon="8.143805"><ele>82.0</ele><time>2026-04-23T15:15:53.319Z</time></trkpt><trkpt lat="33.9405683" lon="8.1437133"><ele>82.0</ele><time>2026-04-23T15:15:54.318Z</time></trkpt><trkpt lat="33.940435" lon="8.14362"><ele>82.0</ele><time>2026-04-23T15:15:55.318Z</time></trkpt><trkpt lat="33.9402933" lon="8.143535"><ele>82.0</ele><time>2026-04-23T15:15:56.318Z</time></trkpt><trkpt lat="33.9401583" lon="8.1434317"><ele>81.0</ele><time>2026-04-23T15:15:57.318Z</time></trkpt><trkpt lat="33.9400217" lon="8.1433317"><ele>80.0</ele><time>2026-04-23T15:15:58.319Z</time></trkpt><trkpt lat="33.9398867" lon="8.1432383"><ele>79.0</ele><time>2026-04-23T15:15:59.318Z</time></trkpt><trkpt lat="33.9397583" lon="8.143155"><ele>78.75</ele><time>2026-04-23T15:16:00.318Z</time></trkpt><trkpt lat="33.9396333" lon="8.1430683"><ele>78.5</ele><time>2026-04-23T15:16:01.319Z</time></trkpt><trkpt lat="33.9395117" lon="8.14298"><ele>78.25</ele><time>2026-04-23T15:16:02.318Z</time></trkpt><trkpt lat="33.9393967" lon="8.1428917"><ele>78.0</ele><time>2026-04-23T15:16:03.319Z</time></trkpt><trkpt lat="33.939285" lon="8.1428133"><ele>77.6</ele><time>2026-04-23T15:16:04.319Z</time></trkpt><trkpt lat="33.93918" lon="8.1427317"><ele>77.19999999999999</ele><time>2026-04-23T15:16:05.318Z</time></trkpt><trkpt lat="33.9390817" lon="8.142665"><ele>76.8</ele><time>2026-04-23T15:16:06.319Z</time></trkpt><trkpt lat="33.9389883" lon="8.1426067"><ele>76.39999999999999</ele><time>2026-04-23T15:16:07.318Z</time></trkpt><trkpt lat="33.9389" lon="8.1425483"><ele>76.0</ele><time>2026-04-23T15:16:08.318Z</time></trkpt><trkpt lat="33.938825" lon="8.1424967"><ele>76.0</ele><time>2026-04-23T15:16:09.318Z</time></trkpt><trkpt lat="33.93876" lon="8.1424417"><ele>76.0</ele><time>2026-04-23T15:16:10.319Z</time></trkpt><trkpt lat="33.9386983" lon="8.1424067"><ele>76.0</ele><time>2026-04-23T15:16:11.319Z</time></trkpt><trkpt lat="33.9386417" lon="8.14237"><ele>76.0</ele><time>2026-04-23T15:16:12.318Z</time></trkpt><trkpt lat="33.9385617" lon="8.142305"><ele>76.0</ele><time>2026-04-23T15:16:14.319Z</time></trkpt><trkpt lat="33.9384667" lon="8.14226"><ele>76.0</ele><time>2026-04-23T15:16:16.318Z</time></trkpt><trkpt lat="33.9383783" lon="8.1422033"><ele>75.8</ele><time>2026-04-23T15:16:18.319Z</time></trkpt><trkpt lat="33.9382717" lon="8.1421317"><ele>75.6</ele><time>2026-04-23T15:16:20.318Z</time></trkpt><trkpt lat="33.93821" lon="8.1420917"><ele>75.4</ele><time>2026-04-23T15:16:21.318Z</time></trkpt><trkpt lat="33.9381333" lon="8.1420467"><ele>75.2</ele><time>2026-04-23T15:16:22.319Z</time></trkpt><trkpt lat="33.938055" lon="8.1419967"><ele>75.0</ele><time>2026-04-23T15:16:23.318Z</time></trkpt><trkpt lat="33.93798" lon="8.1419333"><ele>75.0</ele><time>2026-04-23T15:16:24.319Z</time></trkpt><trkpt lat="33.9378983" lon="8.1418767"><ele>75.0</ele><time>2026-04-23T15:16:25.319Z</time></trkpt><trkpt lat="33.9378167" lon="8.141815"><ele>75.0</ele><time>2026-04-23T15:16:26.318Z</time></trkpt><trkpt lat="33.9377333" lon="8.1417517"><ele>75.0</ele><time>2026-04-23T15:16:27.319Z</time></trkpt><trkpt lat="33.9376433" lon="8.1416967"><ele>75.0</ele><time>2026-04-23T15:16:28.318Z</time></trkpt><trkpt lat="33.9375467" lon="8.1416483"><ele>74.8</ele><time>2026-04-23T15:16:29.318Z</time></trkpt><trkpt lat="33.93746" lon="8.1415917"><ele>74.6</ele><time>2026-04-23T15:16:30.318Z</time></trkpt><trkpt lat="33.937365" lon="8.1415467"><ele>74.4</ele><time>2026-04-23T15:16:31.319Z</time></trkpt><trkpt lat="33.9372617" lon="8.1415017"><ele>74.2</ele><time>2026-04-23T15:16:32.318Z</time></trkpt><trkpt lat="33.9371617" lon="8.1414483"><ele>74.0</ele><time>2026-04-23T15:16:33.319Z</time></trkpt><trkpt lat="33.93707" lon="8.141395"><ele>74.0</ele><time>2026-04-23T15:16:34.319Z</time></trkpt><trkpt lat="33.936975" lon="8.1413433"><ele>74.0</ele><time>2026-04-23T15:16:35.319Z</time></trkpt><trkpt lat="33.9368783" lon="8.14129"><ele>74.0</ele><time>2026-04-23T15:16:36.319Z</time></trkpt><trkpt lat="33.936785" lon="8.1412367"><ele>74.0</ele><time>2026-04-23T15:16:37.318Z</time></trkpt><trkpt lat="33.936685" lon="8.1411917"><ele>74.0</ele><time>2026-04-23T15:16:38.318Z</time></trkpt><trkpt lat="33.93658" lon="8.14115"><ele>73.5</ele><time>2026-04-23T15:16:39.318Z</time></trkpt><trkpt lat="33.9364733" lon="8.1411067"><ele>73.0</ele><time>2026-04-23T15:16:40.319Z</time></trkpt><trkpt lat="33.9363633" lon="8.1410633"><ele>72.5</ele><time>2026-04-23T15:16:41.319Z</time></trkpt><trkpt lat="33.93625" lon="8.1410217"><ele>72.0</ele><time>2026-04-23T15:16:42.318Z</time></trkpt><trkpt lat="33.9361467" lon="8.140975"><ele>72.0</ele><time>2026-04-23T15:16:43.319Z</time></trkpt><trkpt lat="33.93604" lon="8.1409333"><ele>72.0</ele><time>2026-04-23T15:16:44.318Z</time></trkpt><trkpt lat="33.9359433" lon="8.1408967"><ele>72.0</ele><time>2026-04-23T15:16:45.319Z</time></trkpt><trkpt lat="33.9358583" lon="8.1408617"><ele>72.0</ele><time>2026-04-23T15:16:46.318Z</time></trkpt><trkpt lat="33.9357783" lon="8.1408417"><ele>72.0</ele><time>2026-04-23T15:16:47.318Z</time></trkpt><trkpt lat="33.9357017" lon="8.1408083"><ele>71.4</ele><time>2026-04-23T15:16:48.318Z</time></trkpt><trkpt lat="33.9356133" lon="8.1407717"><ele>70.80000000000001</ele><time>2026-04-23T15:16:49.319Z</time></trkpt><trkpt lat="33.9355167" lon="8.1407333"><ele>70.2</ele><time>2026-04-23T15:16:50.319Z</time></trkpt><trkpt lat="33.9354083" lon="8.1406917"><ele>69.60000000000001</ele><time>2026-04-23T15:16:51.319Z</time></trkpt><trkpt lat="33.9352883" lon="8.1406433"><ele>69.0</ele><time>2026-04-23T15:16:52.319Z</time></trkpt><trkpt lat="33.9351633" lon="8.1405833"><ele>68.25</ele><time>2026-04-23T15:16:53.319Z</time></trkpt><trkpt lat="33.9350217" lon="8.1405183"><ele>67.5</ele><time>2026-04-23T15:16:54.318Z</time></trkpt><trkpt lat="33.934885" lon="8.14046"><ele>66.75</ele><time>2026-04-23T15:16:55.319Z</time></trkpt><trkpt lat="33.9347467" lon="8.140405"><ele>66.0</ele><time>2026-04-23T15:16:56.319Z</time></trkpt><trkpt lat="33.9346033" lon="8.1403483"><ele>66.0</ele><time>2026-04-23T15:16:57.318Z</time></trkpt><trkpt lat="33.934465" lon="8.140295"><ele>66.0</ele><time>2026-04-23T15:16:58.318Z</time></trkpt><trkpt lat="33.934325" lon="8.140235"><ele>66.0</ele><time>2026-04-23T15:16:59.319Z</time></trkpt><trkpt lat="33.9341933" lon="8.14017"><ele>66.0</ele><time>2026-04-23T15:17:00.319Z</time></trkpt><trkpt lat="33.934065" lon="8.1401217"><ele>65.0</ele><time>2026-04-23T15:17:01.318Z</time></trkpt><trkpt lat="33.933945" lon="8.140075"><ele>64.0</ele><time>2026-04-23T15:17:02.319Z</time></trkpt><trkpt lat="33.933825" lon="8.14002"><ele>63.0</ele><time>2026-04-23T15:17:03.318Z</time></trkpt><trkpt lat="33.9337" lon="8.1399633"><ele>62.0</ele><time>2026-04-23T15:17:04.319Z</time></trkpt><trkpt lat="33.9335817" lon="8.13991"><ele>62.25</ele><time>2026-04-23T15:17:05.318Z</time></trkpt><trkpt lat="33.9334633" lon="8.1398567"><ele>62.5</ele><time>2026-04-23T15:17:06.318Z</time></trkpt><trkpt lat="33.9333417" lon="8.1398033"><ele>62.75</ele><time>2026-04-23T15:17:07.319Z</time></trkpt><trkpt lat="33.93322" lon="8.139755"><ele>63.0</ele><time>2026-04-23T15:17:08.318Z</time></trkpt><trkpt lat="33.9330983" lon="8.1397067"><ele>62.25</ele><time>2026-04-23T15:17:09.319Z</time></trkpt><trkpt lat="33.9329767" lon="8.13966"><ele>61.5</ele><time>2026-04-23T15:17:10.318Z</time></trkpt><trkpt lat="33.9328583" lon="8.1396117"><ele>60.75</ele><time>2026-04-23T15:17:11.318Z</time></trkpt><trkpt lat="33.9327433" lon="8.1395683"><ele>60.0</ele><time>2026-04-23T15:17:12.319Z</time></trkpt><trkpt lat="33.9326367" lon="8.13953"><ele>58.6</ele><time>2026-04-23T15:17:13.318Z</time></trkpt><trkpt lat="33.932535" lon="8.1394933"><ele>57.2</ele><time>2026-04-23T15:17:14.319Z</time></trkpt><trkpt lat="33.93244" lon="8.139455"><ele>55.8</ele><time>2026-04-23T15:17:15.319Z</time></trkpt><trkpt lat="33.9323517" lon="8.13942"><ele>54.4</ele><time>2026-04-23T15:17:16.318Z</time></trkpt><trkpt lat="33.9322617" lon="8.1393833"><ele>53.0</ele><time>2026-04-23T15:17:17.319Z</time></trkpt><trkpt lat="33.9321717" lon="8.1393467"><ele>53.0</ele><time>2026-04-23T15:17:18.319Z</time></trkpt><trkpt lat="33.932085" lon="8.1393117"><ele>53.0</ele><time>2026-04-23T15:17:19.319Z</time></trkpt><trkpt lat="33.93199" lon="8.139265"><ele>53.0</ele><time>2026-04-23T15:17:20.319Z</time></trkpt><trkpt lat="33.9318933" lon="8.139225"><ele>53.0</ele><time>2026-04-23T15:17:21.318Z</time></trkpt><trkpt lat="33.9318017" lon="8.1391867"><ele>53.0</ele><time>2026-04-23T15:17:22.319Z</time></trkpt><trkpt lat="33.9317067" lon="8.1391533"><ele>52.4</ele><time>2026-04-23T15:17:23.318Z</time></trkpt><trkpt lat="33.93161" lon="8.139115"><ele>51.8</ele><time>2026-04-23T15:17:24.318Z</time></trkpt><trkpt lat="33.9315117" lon="8.1390783"><ele>51.2</ele><time>2026-04-23T15:17:25.319Z</time></trkpt><trkpt lat="33.9314083" lon="8.1390383"><ele>50.6</ele><time>2026-04-23T15:17:26.318Z</time></trkpt><trkpt lat="33.9313067" lon="8.1390017"><ele>50.0</ele><time>2026-04-23T15:17:27.319Z</time></trkpt><trkpt lat="33.9312067" lon="8.13896"><ele>50.0</ele><time>2026-04-23T15:17:28.318Z</time></trkpt><trkpt lat="33.9311083" lon="8.138915"><ele>50.0</ele><time>2026-04-23T15:17:29.319Z</time></trkpt><trkpt lat="33.9310083" lon="8.13887"><ele>50.0</ele><time>2026-04-23T15:17:30.319Z</time></trkpt><trkpt lat="33.930905" lon="8.1388283"><ele>50.0</ele><time>2026-04-23T15:17:31.319Z</time></trkpt><trkpt lat="33.9307983" lon="8.1387917"><ele>50.0</ele><time>2026-04-23T15:17:32.318Z</time></trkpt><trkpt lat="33.9306933" lon="8.1387517"><ele>49.25</ele><time>2026-04-23T15:17:33.318Z</time></trkpt><trkpt lat="33.930585" lon="8.138705"><ele>48.5</ele><time>2026-04-23T15:17:34.319Z</time></trkpt><trkpt lat="33.9304817" lon="8.13865"><ele>47.75</ele><time>2026-04-23T15:17:35.319Z</time></trkpt><trkpt lat="33.9303683" lon="8.1386017"><ele>47.0</ele><time>2026-04-23T15:17:36.318Z</time></trkpt><trkpt lat="33.93025" lon="8.138555"><ele>47.0</ele><time>2026-04-23T15:17:37.318Z</time></trkpt><trkpt lat="33.9301383" lon="8.1385083"><ele>47.0</ele><time>2026-04-23T15:17:38.319Z</time></trkpt><trkpt lat="33.9300183" lon="8.1384633"><ele>47.0</ele><time>2026-04-23T15:17:39.318Z</time></trkpt><trkpt lat="33.929895" lon="8.1384167"><ele>47.0</ele><time>2026-04-23T15:17:40.319Z</time></trkpt><trkpt lat="33.9297717" lon="8.1383733"><ele>47.0</ele><time>2026-04-23T15:17:41.318Z</time></trkpt><trkpt lat="33.9296483" lon="8.13833"><ele>47.0</ele><time>2026-04-23T15:17:42.319Z</time></trkpt><trkpt lat="33.92953" lon="8.1382933"><ele>47.0</ele><time>2026-04-23T15:17:43.319Z</time></trkpt><trkpt lat="33.9294167" lon="8.1382683"><ele>47.0</ele><time>2026-04-23T15:17:44.319Z</time></trkpt><trkpt lat="33.9292917" lon="8.1382367"><ele>46.75</ele><time>2026-04-23T15:17:45.319Z</time></trkpt><trkpt lat="33.9291583" lon="8.1382167"><ele>46.5</ele><time>2026-04-23T15:17:46.319Z</time></trkpt><trkpt lat="33.9290267" lon="8.1381933"><ele>46.25</ele><time>2026-04-23T15:17:47.319Z</time></trkpt><trkpt lat="33.9289017" lon="8.138175"><ele>46.0</ele><time>2026-04-23T15:17:48.319Z</time></trkpt><trkpt lat="33.9287783" lon="8.138175"><ele>46.0</ele><time>2026-04-23T15:17:49.319Z</time></trkpt><trkpt lat="33.9286483" lon="8.1381817"><ele>46.0</ele><time>2026-04-23T15:17:50.318Z</time></trkpt><trkpt lat="33.9285283" lon="8.1381917"><ele>46.0</ele><time>2026-04-23T15:17:51.319Z</time></trkpt><trkpt lat="33.9284117" lon="8.1381867"><ele>46.0</ele><time>2026-04-23T15:17:52.318Z</time></trkpt><trkpt lat="33.928305" lon="8.138185"><ele>46.0</ele><time>2026-04-23T15:17:53.318Z</time></trkpt><trkpt lat="33.9282017" lon="8.13818"><ele>46.0</ele><time>2026-04-23T15:17:54.319Z</time></trkpt><trkpt lat="33.928095" lon="8.138175"><ele>46.0</ele><time>2026-04-23T15:17:55.318Z</time></trkpt><trkpt lat="33.9279933" lon="8.13818"><ele>46.0</ele><time>2026-04-23T15:17:56.318Z</time></trkpt><trkpt lat="33.927885" lon="8.138185"><ele>46.0</ele><time>2026-04-23T15:17:57.319Z</time></trkpt><trkpt lat="33.92777" lon="8.138185"><ele>46.0</ele><time>2026-04-23T15:17:58.319Z</time></trkpt><trkpt lat="33.9276583" lon="8.1381783"><ele>46.0</ele><time>2026-04-23T15:17:59.319Z</time></trkpt><trkpt lat="33.9275483" lon="8.1381633"><ele>46.0</ele><time>2026-04-23T15:18:00.319Z</time></trkpt><trkpt lat="33.9274333" lon="8.13815"><ele>46.0</ele><time>2026-04-23T15:18:01.319Z</time></trkpt><trkpt lat="33.927325" lon="8.1381333"><ele>46.0</ele><time>2026-04-23T15:18:02.318Z</time></trkpt><trkpt lat="33.9272233" lon="8.1381033"><ele>46.0</ele><time>2026-04-23T15:18:03.318Z</time></trkpt><trkpt lat="33.9271183" lon="8.1380767"><ele>46.0</ele><time>2026-04-23T15:18:04.318Z</time></trkpt><trkpt lat="33.9270117" lon="8.1380383"><ele>46.0</ele><time>2026-04-23T15:18:05.318Z</time></trkpt><trkpt lat="33.9269033" lon="8.137995"><ele>46.0</ele><time>2026-04-23T15:18:06.318Z</time></trkpt><trkpt lat="33.926795" lon="8.1379517"><ele>46.0</ele><time>2026-04-23T15:18:07.319Z</time></trkpt><trkpt lat="33.926685" lon="8.13791"><ele>45.75</ele><time>2026-04-23T15:18:08.319Z</time></trkpt><trkpt lat="33.9265767" lon="8.1378767"><ele>45.5</ele><time>2026-04-23T15:18:09.318Z</time></trkpt><trkpt lat="33.926465" lon="8.137835"><ele>45.25</ele><time>2026-04-23T15:18:10.318Z</time></trkpt><trkpt lat="33.9263483" lon="8.137795"><ele>45.0</ele><time>2026-04-23T15:18:11.318Z</time></trkpt><trkpt lat="33.9262367" lon="8.1377567"><ele>45.0</ele><time>2026-04-23T15:18:12.319Z</time></trkpt><trkpt lat="33.926125" lon="8.1377017"><ele>45.0</ele><time>2026-04-23T15:18:13.319Z</time></trkpt><trkpt lat="33.9260083" lon="8.1376567"><ele>45.0</ele><time>2026-04-23T15:18:14.318Z</time></trkpt><trkpt lat="33.9258917" lon="8.1376117"><ele>45.0</ele><time>2026-04-23T15:18:15.318Z</time></trkpt><trkpt lat="33.92579" lon="8.13757"><ele>44.833333333333336</ele><time>2026-04-23T15:18:16.319Z</time></trkpt><trkpt lat="33.9256883" lon="8.1375417"><ele>44.666666666666664</ele><time>2026-04-23T15:18:17.318Z</time></trkpt><trkpt lat="33.925605" lon="8.1375117"><ele>44.5</ele><time>2026-04-23T15:18:18.319Z</time></trkpt><trkpt lat="33.9255233" lon="8.1374883"><ele>44.33333333333333</ele><time>2026-04-23T15:18:19.319Z</time></trkpt><trkpt lat="33.9254467" lon="8.137465"><ele>44.166666666666664</ele><time>2026-04-23T15:18:20.319Z</time></trkpt><trkpt lat="33.9253717" lon="8.1374417"><ele>44.0</ele><time>2026-04-23T15:18:21.318Z</time></trkpt><trkpt lat="33.9252933" lon="8.1374217"><ele>44.0</ele><time>2026-04-23T15:18:22.319Z</time></trkpt><trkpt lat="33.9252133" lon="8.137395"><ele>44.0</ele><time>2026-04-23T15:18:23.318Z</time></trkpt><trkpt lat="33.9251367" lon="8.13737"><ele>44.0</ele><time>2026-04-23T15:18:24.319Z</time></trkpt><trkpt lat="33.9250583" lon="8.1373483"><ele>44.0</ele><time>2026-04-23T15:18:25.319Z</time></trkpt><trkpt lat="33.924985" lon="8.1373367"><ele>44.0</ele><time>2026-04-23T15:18:26.318Z</time></trkpt><trkpt lat="33.924915" lon="8.137315"><ele>44.0</ele><time>2026-04-23T15:18:27.318Z</time></trkpt><trkpt lat="33.92485" lon="8.137305"><ele>44.33333333333333</ele><time>2026-04-23T15:18:28.319Z</time></trkpt><trkpt lat="33.9247217" lon="8.1372617"><ele>44.666666666666664</ele><time>2026-04-23T15:18:30.318Z</time></trkpt><trkpt lat="33.9246533" lon="8.1372317"><ele>45.0</ele><time>2026-04-23T15:18:31.318Z</time></trkpt><trkpt lat="33.92458" lon="8.1372067"><ele>45.333333333333336</ele><time>2026-04-23T15:18:32.318Z</time></trkpt><trkpt lat="33.9245" lon="8.13718"><ele>45.66666666666667</ele><time>2026-04-23T15:18:33.318Z</time></trkpt><trkpt lat="33.924425" lon="8.13716"><ele>46.0</ele><time>2026-04-23T15:18:34.318Z</time></trkpt><trkpt lat="33.9243467" lon="8.13714"><ele>46.0</ele><time>2026-04-23T15:18:35.318Z</time></trkpt><trkpt lat="33.92428" lon="8.13712"><ele>46.0</ele><time>2026-04-23T15:18:36.319Z</time></trkpt><trkpt lat="33.9241933" lon="8.137095"><ele>46.0</ele><time>2026-04-23T15:18:38.318Z</time></trkpt><trkpt lat="33.9241167" lon="8.1370517"><ele>46.0</ele><time>2026-04-23T15:18:41.318Z</time></trkpt><trkpt lat="33.92406" lon="8.136995"><ele>46.0</ele><time>2026-04-23T15:18:43.317Z</time></trkpt><trkpt lat="33.9239883" lon="8.136945"><ele>46.0</ele><time>2026-04-23T15:18:45.318Z</time></trkpt><trkpt lat="33.9238783" lon="8.136765"><ele>46.333333333333336</ele><time>2026-04-23T15:18:48.318Z</time></trkpt><trkpt lat="33.9238433" lon="8.13668"><ele>46.66666666666667</ele><time>2026-04-23T15:18:49.317Z</time></trkpt><trkpt lat="33.9238117" lon="8.1365867"><ele>47.0</ele><time>2026-04-23T15:18:50.317Z</time></trkpt><trkpt lat="33.9237633" lon="8.1365"><ele>47.333333333333336</ele><time>2026-04-23T15:18:51.318Z</time></trkpt><trkpt lat="33.9237183" lon="8.13641"><ele>47.666666666666664</ele><time>2026-04-23T15:18:52.317Z</time></trkpt><trkpt lat="33.9236867" lon="8.13633"><ele>48.0</ele><time>2026-04-23T15:18:53.318Z</time></trkpt><trkpt lat="33.92365" lon="8.1362483"><ele>48.2</ele><time>2026-04-23T15:18:54.318Z</time></trkpt><trkpt lat="33.9236217" lon="8.1361733"><ele>48.4</ele><time>2026-04-23T15:18:55.317Z</time></trkpt><trkpt lat="33.923595" lon="8.1360983"><ele>48.6</ele><time>2026-04-23T15:18:56.317Z</time></trkpt><trkpt lat="33.9235417" lon="8.1359683"><ele>48.800000000000004</ele><time>2026-04-23T15:18:58.317Z</time></trkpt><trkpt lat="33.9234833" lon="8.135855"><ele>49.0</ele><time>2026-04-23T15:19:00.318Z</time></trkpt><trkpt lat="33.9234267" lon="8.13572"><ele>49.33333333333333</ele><time>2026-04-23T15:19:02.318Z</time></trkpt><trkpt lat="33.9233717" lon="8.135595"><ele>49.666666666666664</ele><time>2026-04-23T15:19:04.318Z</time></trkpt><trkpt lat="33.9233133" lon="8.135475"><ele>50.0</ele><time>2026-04-23T15:19:06.318Z</time></trkpt><trkpt lat="33.923275" lon="8.1354033"><ele>50.33333333333333</ele><time>2026-04-23T15:19:07.318Z</time></trkpt><trkpt lat="33.9232367" lon="8.13533"><ele>50.666666666666664</ele><time>2026-04-23T15:19:08.318Z</time></trkpt><trkpt lat="33.9231967" lon="8.1352567"><ele>51.0</ele><time>2026-04-23T15:19:09.317Z</time></trkpt><trkpt lat="33.92316" lon="8.1351883"><ele>51.0</ele><time>2026-04-23T15:19:10.318Z</time></trkpt><trkpt lat="33.9231317" lon="8.13512"><ele>51.0</ele><time>2026-04-23T15:19:11.317Z</time></trkpt><trkpt lat="33.9230567" lon="8.1349933"><ele>51.0</ele><time>2026-04-23T15:19:13.317Z</time></trkpt><trkpt lat="33.923015" lon="8.1349217"><ele>51.0</ele><time>2026-04-23T15:19:14.318Z</time></trkpt><trkpt lat="33.9229783" lon="8.1348533"><ele>51.0</ele><time>2026-04-23T15:19:15.317Z</time></trkpt><trkpt lat="33.9229383" lon="8.1347567"><ele>51.0</ele><time>2026-04-23T15:19:17.317Z</time></trkpt><trkpt lat="33.92289" lon="8.134685"><ele>51.199999999999996</ele><time>2026-04-23T15:19:20.317Z</time></trkpt><trkpt lat="33.9228417" lon="8.1345983"><ele>51.4</ele><time>2026-04-23T15:19:22.318Z</time></trkpt><trkpt lat="33.9227783" lon="8.1344717"><ele>51.6</ele><time>2026-04-23T15:19:24.318Z</time></trkpt><trkpt lat="33.9227267" lon="8.1343767"><ele>51.8</ele><time>2026-04-23T15:19:26.317Z</time></trkpt><trkpt lat="33.922705" lon="8.13429"><ele>52.0</ele><time>2026-04-23T15:19:29.317Z</time></trkpt><trkpt lat="33.922645" lon="8.1342067"><ele>51.99999999999999</ele><time>2026-04-23T15:19:32.317Z</time></trkpt><trkpt lat="33.9226033" lon="8.13413"><ele>52.0</ele><time>2026-04-23T15:19:34.318Z</time></trkpt><trkpt lat="33.92256" lon="8.1340683"><ele>52.0</ele><time>2026-04-23T15:19:36.318Z</time></trkpt><trkpt lat="33.92252" lon="8.1339983"><ele>52.0</ele><time>2026-04-23T15:19:38.317Z</time></trkpt><trkpt lat="33.9224583" lon="8.133905"><ele>51.99999999999999</ele><time>2026-04-23T15:19:40.317Z</time></trkpt><trkpt lat="33.9224033" lon="8.13379"><ele>52.0</ele><time>2026-04-23T15:19:42.317Z</time></trkpt><trkpt lat="33.9223467" lon="8.1336533"><ele>51.857142857142854</ele><time>2026-04-23T15:19:44.317Z</time></trkpt><trkpt lat="33.9223183" lon="8.1335733"><ele>51.714285714285715</ele><time>2026-04-23T15:19:45.318Z</time></trkpt><trkpt lat="33.9222933" lon="8.1334967"><ele>51.57142857142857</ele><time>2026-04-23T15:19:46.317Z</time></trkpt><trkpt lat="33.9222667" lon="8.1334183"><ele>51.42857142857143</ele><time>2026-04-23T15:19:47.317Z</time></trkpt><trkpt lat="33.9222433" lon="8.1333417"><ele>51.28571428571429</ele><time>2026-04-23T15:19:48.317Z</time></trkpt><trkpt lat="33.922215" lon="8.1332583"><ele>51.142857142857146</ele><time>2026-04-23T15:19:49.318Z</time></trkpt><trkpt lat="33.9221833" lon="8.133175"><ele>51.0</ele><time>2026-04-23T15:19:50.317Z</time></trkpt><trkpt lat="33.9221667" lon="8.133085"><ele>50.666666666666664</ele><time>2026-04-23T15:19:51.318Z</time></trkpt><trkpt lat="33.9221367" lon="8.1329917"><ele>50.33333333333333</ele><time>2026-04-23T15:19:52.317Z</time></trkpt><trkpt lat="33.9221067" lon="8.1328917"><ele>50.0</ele><time>2026-04-23T15:19:53.318Z</time></trkpt><trkpt lat="33.9220817" lon="8.132795"><ele>49.666666666666664</ele><time>2026-04-23T15:19:54.317Z</time></trkpt><trkpt lat="33.9220517" lon="8.1327"><ele>49.33333333333333</ele><time>2026-04-23T15:19:55.318Z</time></trkpt><trkpt lat="33.922025" lon="8.1326067"><ele>49.0</ele><time>2026-04-23T15:19:56.318Z</time></trkpt><trkpt lat="33.9219983" lon="8.13251"><ele>49.0</ele><time>2026-04-23T15:19:57.317Z</time></trkpt><trkpt lat="33.9219717" lon="8.1324117"><ele>49.0</ele><time>2026-04-23T15:19:58.318Z</time></trkpt><trkpt lat="33.921945" lon="8.1323117"><ele>49.0</ele><time>2026-04-23T15:19:59.317Z</time></trkpt><trkpt lat="33.921915" lon="8.132205"><ele>49.0</ele><time>2026-04-23T15:20:00.317Z</time></trkpt><trkpt lat="33.92188" lon="8.1321033"><ele>49.0</ele><time>2026-04-23T15:20:01.317Z</time></trkpt><trkpt lat="33.9218467" lon="8.1319967"><ele>48.6</ele><time>2026-04-23T15:20:02.317Z</time></trkpt><trkpt lat="33.9218117" lon="8.1319033"><ele>48.2</ele><time>2026-04-23T15:20:03.318Z</time></trkpt><trkpt lat="33.92178" lon="8.1317917"><ele>47.800000000000004</ele><time>2026-04-23T15:20:04.317Z</time></trkpt><trkpt lat="33.921755" lon="8.1316767"><ele>47.400000000000006</ele><time>2026-04-23T15:20:05.317Z</time></trkpt><trkpt lat="33.92172" lon="8.13156"><ele>47.0</ele><time>2026-04-23T15:20:06.318Z</time></trkpt><trkpt lat="33.9216833" lon="8.13144"><ele>47.0</ele><time>2026-04-23T15:20:07.317Z</time></trkpt><trkpt lat="33.921645" lon="8.1313217"><ele>47.0</ele><time>2026-04-23T15:20:08.317Z</time></trkpt><trkpt lat="33.9216083" lon="8.1312033"><ele>47.0</ele><time>2026-04-23T15:20:09.317Z</time></trkpt><trkpt lat="33.92159" lon="8.1310983"><ele>47.0</ele><time>2026-04-23T15:20:10.317Z</time></trkpt><trkpt lat="33.921575" lon="8.130995"><ele>47.0</ele><time>2026-04-23T15:20:11.318Z</time></trkpt><trkpt lat="33.9215633" lon="8.1308833"><ele>47.0</ele><time>2026-04-23T15:20:12.318Z</time></trkpt><trkpt lat="33.9215583" lon="8.1307767"><ele>47.0</ele><time>2026-04-23T15:20:13.318Z</time></trkpt><trkpt lat="33.9215583" lon="8.1306767"><ele>47.0</ele><time>2026-04-23T15:20:14.317Z</time></trkpt><trkpt lat="33.9215633" lon="8.130565"><ele>47.0</ele><time>2026-04-23T15:20:15.318Z</time></trkpt><trkpt lat="33.9215583" lon="8.1304667"><ele>47.0</ele><time>2026-04-23T15:20:16.318Z</time></trkpt><trkpt lat="33.921555" lon="8.130375"><ele>47.0</ele><time>2026-04-23T15:20:17.317Z</time></trkpt><trkpt lat="33.92155" lon="8.1302883"><ele>46.714285714285715</ele><time>2026-04-23T15:20:18.317Z</time></trkpt><trkpt lat="33.92154" lon="8.1302033"><ele>46.42857142857143</ele><time>2026-04-23T15:20:19.317Z</time></trkpt><trkpt lat="33.9215333" lon="8.13012"><ele>46.14285714285714</ele><time>2026-04-23T15:20:20.317Z</time></trkpt><trkpt lat="33.9215283" lon="8.1300367"><ele>45.85714285714286</ele><time>2026-04-23T15:20:21.317Z</time></trkpt><trkpt lat="33.9215217" lon="8.1299467"><ele>45.57142857142858</ele><time>2026-04-23T15:20:22.317Z</time></trkpt><trkpt lat="33.9215217" lon="8.1298533"><ele>45.285714285714285</ele><time>2026-04-23T15:20:23.317Z</time></trkpt><trkpt lat="33.921515" lon="8.1297583"><ele>45.0</ele><time>2026-04-23T15:20:24.317Z</time></trkpt><trkpt lat="33.9215067" lon="8.12966"><ele>44.833333333333336</ele><time>2026-04-23T15:20:25.317Z</time></trkpt><trkpt lat="33.9215067" lon="8.1295567"><ele>44.666666666666664</ele><time>2026-04-23T15:20:26.317Z</time></trkpt><trkpt lat="33.9215067" lon="8.1294583"><ele>44.5</ele><time>2026-04-23T15:20:27.318Z</time></trkpt><trkpt lat="33.9215033" lon="8.129365"><ele>44.33333333333333</ele><time>2026-04-23T15:20:28.317Z</time></trkpt><trkpt lat="33.9215" lon="8.1292667"><ele>44.166666666666664</ele><time>2026-04-23T15:20:29.317Z</time></trkpt><trkpt lat="33.9215017" lon="8.1291683"><ele>44.0</ele><time>2026-04-23T15:20:30.318Z</time></trkpt><trkpt lat="33.921505" lon="8.12908"><ele>44.142857142857146</ele><time>2026-04-23T15:20:31.318Z</time></trkpt><trkpt lat="33.9215033" lon="8.128995"><ele>44.285714285714285</ele><time>2026-04-23T15:20:32.317Z</time></trkpt><trkpt lat="33.9215" lon="8.12891"><ele>44.42857142857143</ele><time>2026-04-23T15:20:33.318Z</time></trkpt><trkpt lat="33.9214933" lon="8.1288217"><ele>44.57142857142857</ele><time>2026-04-23T15:20:34.318Z</time></trkpt><trkpt lat="33.9214917" lon="8.12873"><ele>44.714285714285715</ele><time>2026-04-23T15:20:35.318Z</time></trkpt><trkpt lat="33.9214867" lon="8.1286367"><ele>44.857142857142854</ele><time>2026-04-23T15:20:36.318Z</time></trkpt><trkpt lat="33.9214817" lon="8.1285433"><ele>45.0</ele><time>2026-04-23T15:20:37.318Z</time></trkpt><trkpt lat="33.9214783" lon="8.128445"><ele>45.0</ele><time>2026-04-23T15:20:38.317Z</time></trkpt><trkpt lat="33.921475" lon="8.1283417"><ele>45.0</ele><time>2026-04-23T15:20:39.318Z</time></trkpt><trkpt lat="33.9214733" lon="8.1282467"><ele>45.0</ele><time>2026-04-23T15:20:40.318Z</time></trkpt><trkpt lat="33.9214783" lon="8.128145"><ele>45.0</ele><time>2026-04-23T15:20:41.317Z</time></trkpt><trkpt lat="33.9214767" lon="8.1280433"><ele>45.0</ele><time>2026-04-23T15:20:42.318Z</time></trkpt><trkpt lat="33.9214783" lon="8.127945"><ele>45.0</ele><time>2026-04-23T15:20:43.317Z</time></trkpt><trkpt lat="33.9214833" lon="8.1278367"><ele>45.166666666666664</ele><time>2026-04-23T15:20:44.317Z</time></trkpt><trkpt lat="33.92148" lon="8.1277383"><ele>45.333333333333336</ele><time>2026-04-23T15:20:45.318Z</time></trkpt><trkpt lat="33.9214783" lon="8.1276367"><ele>45.5</ele><time>2026-04-23T15:20:46.317Z</time></trkpt><trkpt lat="33.92147" lon="8.127545"><ele>45.66666666666667</ele><time>2026-04-23T15:20:47.317Z</time></trkpt><trkpt lat="33.9214617" lon="8.1274517"><ele>45.833333333333336</ele><time>2026-04-23T15:20:48.317Z</time></trkpt><trkpt lat="33.9214583" lon="8.127355"><ele>46.0</ele><time>2026-04-23T15:20:49.317Z</time></trkpt><trkpt lat="33.9214517" lon="8.127265"><ele>46.0</ele><time>2026-04-23T15:20:50.317Z</time></trkpt><trkpt lat="33.921445" lon="8.1271833"><ele>46.0</ele><time>2026-04-23T15:20:51.317Z</time></trkpt><trkpt lat="33.921445" lon="8.127105"><ele>46.0</ele><time>2026-04-23T15:20:52.318Z</time></trkpt><trkpt lat="33.9214517" lon="8.1270233"><ele>46.0</ele><time>2026-04-23T15:20:53.318Z</time></trkpt><trkpt lat="33.92145" lon="8.1269417"><ele>46.0</ele><time>2026-04-23T15:20:54.317Z</time></trkpt><trkpt lat="33.921445" lon="8.12686"><ele>46.0</ele><time>2026-04-23T15:20:55.318Z</time></trkpt><trkpt lat="33.9214467" lon="8.12677"><ele>46.0</ele><time>2026-04-23T15:20:56.317Z</time></trkpt><trkpt lat="33.921445" lon="8.1266767"><ele>46.0</ele><time>2026-04-23T15:20:57.317Z</time></trkpt><trkpt lat="33.92145" lon="8.1265817"><ele>46.0</ele><time>2026-04-23T15:20:58.317Z</time></trkpt><trkpt lat="33.9214483" lon="8.126475"><ele>46.0</ele><time>2026-04-23T15:20:59.318Z</time></trkpt><trkpt lat="33.9214383" lon="8.12637"><ele>46.0</ele><time>2026-04-23T15:21:00.318Z</time></trkpt><trkpt lat="33.92143" lon="8.1262533"><ele>46.0</ele><time>2026-04-23T15:21:01.318Z</time></trkpt><trkpt lat="33.9214217" lon="8.126135"><ele>46.16666666666667</ele><time>2026-04-23T15:21:02.318Z</time></trkpt><trkpt lat="33.921425" lon="8.1260283"><ele>46.333333333333336</ele><time>2026-04-23T15:21:03.317Z</time></trkpt><trkpt lat="33.9214233" lon="8.12592"><ele>46.5</ele><time>2026-04-23T15:21:04.317Z</time></trkpt><trkpt lat="33.9214183" lon="8.12581"><ele>46.666666666666664</ele><time>2026-04-23T15:21:05.318Z</time></trkpt><trkpt lat="33.9214117" lon="8.1257183"><ele>46.83333333333333</ele><time>2026-04-23T15:21:06.317Z</time></trkpt><trkpt lat="33.92141" lon="8.12563"><ele>47.0</ele><time>2026-04-23T15:21:07.317Z</time></trkpt><trkpt lat="33.9214083" lon="8.1255467"><ele>47.6</ele><time>2026-04-23T15:21:08.318Z</time></trkpt><trkpt lat="33.9214017" lon="8.1254667"><ele>48.2</ele><time>2026-04-23T15:21:09.318Z</time></trkpt><trkpt lat="33.9213983" lon="8.1252983"><ele>48.8</ele><time>2026-04-23T15:21:11.318Z</time></trkpt><trkpt lat="33.9214" lon="8.1251933"><ele>49.4</ele><time>2026-04-23T15:21:12.317Z</time></trkpt><trkpt lat="33.9213983" lon="8.1250817"><ele>50.0</ele><time>2026-04-23T15:21:13.317Z</time></trkpt><trkpt lat="33.9213917" lon="8.124965"><ele>50.8</ele><time>2026-04-23T15:21:14.318Z</time></trkpt><trkpt lat="33.9213867" lon="8.124845"><ele>51.6</ele><time>2026-04-23T15:21:15.318Z</time></trkpt><trkpt lat="33.921375" lon="8.1247317"><ele>52.400000000000006</ele><time>2026-04-23T15:21:16.318Z</time></trkpt><trkpt lat="33.9213667" lon="8.1246133"><ele>53.2</ele><time>2026-04-23T15:21:17.318Z</time></trkpt><trkpt lat="33.9213633" lon="8.124515"><ele>54.0</ele><time>2026-04-23T15:21:18.318Z</time></trkpt><trkpt lat="33.9213633" lon="8.1244167"><ele>54.0</ele><time>2026-04-23T15:21:19.317Z</time></trkpt><trkpt lat="33.9213533" lon="8.1243133"><ele>54.00000000000001</ele><time>2026-04-23T15:21:20.318Z</time></trkpt><trkpt lat="33.9213417" lon="8.124205"><ele>54.00000000000001</ele><time>2026-04-23T15:21:21.317Z</time></trkpt><trkpt lat="33.921335" lon="8.12409"><ele>54.0</ele><time>2026-04-23T15:21:22.318Z</time></trkpt><trkpt lat="33.9213383" lon="8.123975"><ele>54.0</ele><time>2026-04-23T15:21:23.318Z</time></trkpt><trkpt lat="33.9213467" lon="8.1238617"><ele>54.333333333333336</ele><time>2026-04-23T15:21:24.318Z</time></trkpt><trkpt lat="33.9213517" lon="8.12375"><ele>54.66666666666667</ele><time>2026-04-23T15:21:25.317Z</time></trkpt><trkpt lat="33.9213433" lon="8.1236417"><ele>55.0</ele><time>2026-04-23T15:21:26.317Z</time></trkpt><trkpt lat="33.9213417" lon="8.1235383"><ele>55.333333333333336</ele><time>2026-04-23T15:21:27.317Z</time></trkpt><trkpt lat="33.9213433" lon="8.1234333"><ele>55.66666666666667</ele><time>2026-04-23T15:21:28.317Z</time></trkpt><trkpt lat="33.921335" lon="8.1233267"><ele>56.0</ele><time>2026-04-23T15:21:29.317Z</time></trkpt><trkpt lat="33.921325" lon="8.1232133"><ele>56.599999999999994</ele><time>2026-04-23T15:21:30.317Z</time></trkpt><trkpt lat="33.9213133" lon="8.123095"><ele>57.199999999999996</ele><time>2026-04-23T15:21:31.317Z</time></trkpt><trkpt lat="33.92131" lon="8.122975"><ele>57.800000000000004</ele><time>2026-04-23T15:21:32.318Z</time></trkpt><trkpt lat="33.921305" lon="8.12285"><ele>58.400000000000006</ele><time>2026-04-23T15:21:33.317Z</time></trkpt><trkpt lat="33.9213067" lon="8.1227233"><ele>59.0</ele><time>2026-04-23T15:21:34.318Z</time></trkpt><trkpt lat="33.9212983" lon="8.1225917"><ele>59.0</ele><time>2026-04-23T15:21:35.317Z</time></trkpt><trkpt lat="33.9212917" lon="8.1224667"><ele>59.00000000000001</ele><time>2026-04-23T15:21:36.318Z</time></trkpt><trkpt lat="33.92128" lon="8.1223383"><ele>59.00000000000001</ele><time>2026-04-23T15:21:37.317Z</time></trkpt><trkpt lat="33.9212717" lon="8.1221967"><ele>59.0</ele><time>2026-04-23T15:21:38.317Z</time></trkpt><trkpt lat="33.9212667" lon="8.12206"><ele>59.0</ele><time>2026-04-23T15:21:39.317Z</time></trkpt><trkpt lat="33.92129" lon="8.1219533"><ele>59.75</ele><time>2026-04-23T15:21:40.317Z</time></trkpt><trkpt lat="33.9212883" lon="8.12181"><ele>60.5</ele><time>2026-04-23T15:21:41.318Z</time></trkpt><trkpt lat="33.9212867" lon="8.12167"><ele>61.25</ele><time>2026-04-23T15:21:42.318Z</time></trkpt><trkpt lat="33.92128" lon="8.12152"><ele>62.0</ele><time>2026-04-23T15:21:43.318Z</time></trkpt><trkpt lat="33.9212683" lon="8.1213633"><ele>62.25</ele><time>2026-04-23T15:21:44.318Z</time></trkpt><trkpt lat="33.9212617" lon="8.121205"><ele>62.5</ele><time>2026-04-23T15:21:45.318Z</time></trkpt><trkpt lat="33.9212567" lon="8.1210517"><ele>62.75</ele><time>2026-04-23T15:21:46.317Z</time></trkpt><trkpt lat="33.9212533" lon="8.1208933"><ele>63.0</ele><time>2026-04-23T15:21:47.317Z</time></trkpt><trkpt lat="33.9212483" lon="8.1207283"><ele>65.0</ele><time>2026-04-23T15:21:48.318Z</time></trkpt><trkpt lat="33.9212467" lon="8.1204067"><ele>67.0</ele><time>2026-04-23T15:21:50.317Z</time></trkpt><trkpt lat="33.9212467" lon="8.1202517"><ele>69.0</ele><time>2026-04-23T15:21:51.318Z</time></trkpt><trkpt lat="33.921235" lon="8.1201017"><ele>69.0</ele><time>2026-04-23T15:21:52.317Z</time></trkpt><trkpt lat="33.9212283" lon="8.11996"><ele>69.0</ele><time>2026-04-23T15:21:53.317Z</time></trkpt><trkpt lat="33.9212183" lon="8.119825"><ele>69.0</ele><time>2026-04-23T15:21:54.317Z</time></trkpt><trkpt lat="33.921215" lon="8.1196933"><ele>69.0</ele><time>2026-04-23T15:21:55.318Z</time></trkpt><trkpt lat="33.9212067" lon="8.1195733"><ele>69.0</ele><time>2026-04-23T15:21:56.318Z</time></trkpt><trkpt lat="33.921195" lon="8.1194467"><ele>69.5</ele><time>2026-04-23T15:21:57.317Z</time></trkpt><trkpt lat="33.921195" lon="8.11933"><ele>70.0</ele><time>2026-04-23T15:21:58.318Z</time></trkpt><trkpt lat="33.921195" lon="8.1192333"><ele>70.5</ele><time>2026-04-23T15:21:59.318Z</time></trkpt><trkpt lat="33.9212317" lon="8.1191267"><ele>71.0</ele><time>2026-04-23T15:22:01.318Z</time></trkpt><trkpt lat="33.92123" lon="8.119045"><ele>71.5</ele><time>2026-04-23T15:23:42.316Z</time></trkpt><trkpt lat="33.92119" lon="8.1189367"><ele>72.0</ele><time>2026-04-23T15:23:57.316Z</time></trkpt><trkpt lat="33.9211817" lon="8.1188533"><ele>72.2</ele><time>2026-04-23T15:23:58.317Z</time></trkpt><trkpt lat="33.921175" lon="8.1187567"><ele>72.4</ele><time>2026-04-23T15:23:59.316Z</time></trkpt><trkpt lat="33.9211733" lon="8.1186467"><ele>72.6</ele><time>2026-04-23T15:24:00.316Z</time></trkpt><trkpt lat="33.9211683" lon="8.1185317"><ele>72.8</ele><time>2026-04-23T15:24:01.317Z</time></trkpt><trkpt lat="33.9211633" lon="8.1184167"><ele>73.0</ele><time>2026-04-23T15:24:02.317Z</time></trkpt><trkpt lat="33.921165" lon="8.1183033"><ele>73.6</ele><time>2026-04-23T15:24:03.316Z</time></trkpt><trkpt lat="33.9211633" lon="8.1181883"><ele>74.19999999999999</ele><time>2026-04-23T15:24:04.316Z</time></trkpt><trkpt lat="33.92116" lon="8.1180667"><ele>74.8</ele><time>2026-04-23T15:24:05.316Z</time></trkpt><trkpt lat="33.921155" lon="8.1179483"><ele>75.39999999999999</ele><time>2026-04-23T15:24:06.316Z</time></trkpt><trkpt lat="33.92114" lon="8.1178267"><ele>76.0</ele><time>2026-04-23T15:24:07.316Z</time></trkpt><trkpt lat="33.92113" lon="8.1177017"><ele>76.0</ele><time>2026-04-23T15:24:08.317Z</time></trkpt><trkpt lat="33.9211217" lon="8.1175717"><ele>76.0</ele><time>2026-04-23T15:24:09.317Z</time></trkpt><trkpt lat="33.92111" lon="8.1174383"><ele>76.0</ele><time>2026-04-23T15:24:10.317Z</time></trkpt><trkpt lat="33.9210967" lon="8.1173033"><ele>76.0</ele><time>2026-04-23T15:24:11.316Z</time></trkpt><trkpt lat="33.92108" lon="8.1171717"><ele>76.0</ele><time>2026-04-23T15:24:12.316Z</time></trkpt><trkpt lat="33.9210617" lon="8.1170433"><ele>77.0</ele><time>2026-04-23T15:24:13.317Z</time></trkpt><trkpt lat="33.9210417" lon="8.1169133"><ele>78.0</ele><time>2026-04-23T15:24:14.317Z</time></trkpt><trkpt lat="33.9210167" lon="8.1167883"><ele>79.0</ele><time>2026-04-23T15:24:15.317Z</time></trkpt><trkpt lat="33.9209833" lon="8.1166583"><ele>80.0</ele><time>2026-04-23T15:24:16.316Z</time></trkpt><trkpt lat="33.920955" lon="8.1165217"><ele>81.0</ele><time>2026-04-23T15:24:17.316Z</time></trkpt><trkpt lat="33.9209267" lon="8.1163833"><ele>81.75</ele><time>2026-04-23T15:24:18.316Z</time></trkpt><trkpt lat="33.9209017" lon="8.1162417"><ele>82.5</ele><time>2026-04-23T15:24:19.317Z</time></trkpt><trkpt lat="33.9208733" lon="8.1160967"><ele>83.25</ele><time>2026-04-23T15:24:20.316Z</time></trkpt><trkpt lat="33.9208467" lon="8.115945"><ele>84.0</ele><time>2026-04-23T15:24:21.316Z</time></trkpt><trkpt lat="33.9208167" lon="8.1158017"><ele>84.66666666666667</ele><time>2026-04-23T15:24:22.316Z</time></trkpt><trkpt lat="33.920785" lon="8.1156583"><ele>85.33333333333334</ele><time>2026-04-23T15:24:23.316Z</time></trkpt><trkpt lat="33.9207517" lon="8.11551"><ele>86.0</ele><time>2026-04-23T15:24:24.317Z</time></trkpt><trkpt lat="33.920695" lon="8.1152633"><ele>86.0</ele><time>2026-04-23T15:24:26.316Z</time></trkpt><trkpt lat="33.9206683" lon="8.1151333"><ele>86.0</ele><time>2026-04-23T15:24:27.316Z</time></trkpt><trkpt lat="33.9206467" lon="8.1150067"><ele>86.0</ele><time>2026-04-23T15:24:28.317Z</time></trkpt><trkpt lat="33.9205817" lon="8.114655"><ele>86.0</ele><time>2026-04-23T15:24:31.317Z</time></trkpt><trkpt lat="33.920555" lon="8.11452"><ele>86.0</ele><time>2026-04-23T15:24:32.317Z</time></trkpt><trkpt lat="33.920515" lon="8.114385"><ele>86.0</ele><time>2026-04-23T15:24:33.316Z</time></trkpt><trkpt lat="33.9204733" lon="8.1142517"><ele>86.0</ele><time>2026-04-23T15:24:34.316Z</time></trkpt><trkpt lat="33.920435" lon="8.1141017"><ele>86.0</ele><time>2026-04-23T15:24:35.317Z</time></trkpt><trkpt lat="33.9204033" lon="8.1139483"><ele>86.0</ele><time>2026-04-23T15:24:36.316Z</time></trkpt><trkpt lat="33.920365" lon="8.1137983"><ele>86.0</ele><time>2026-04-23T15:24:37.316Z</time></trkpt><trkpt lat="33.9203233" lon="8.11364"><ele>86.0</ele><time>2026-04-23T15:24:38.317Z</time></trkpt><trkpt lat="33.9202883" lon="8.113465"><ele>86.0</ele><time>2026-04-23T15:24:39.317Z</time></trkpt><trkpt lat="33.920255" lon="8.1132817"><ele>86.0</ele><time>2026-04-23T15:24:40.316Z</time></trkpt><trkpt lat="33.9202217" lon="8.1131017"><ele>86.0</ele><time>2026-04-23T15:24:41.317Z</time></trkpt><trkpt lat="33.9201883" lon="8.1129283"><ele>86.33333333333334</ele><time>2026-04-23T15:24:42.317Z</time></trkpt><trkpt lat="33.9201467" lon="8.1127517"><ele>86.66666666666667</ele><time>2026-04-23T15:24:43.317Z</time></trkpt><trkpt lat="33.9201067" lon="8.1125683"><ele>87.0</ele><time>2026-04-23T15:24:44.316Z</time></trkpt><trkpt lat="33.9200683" lon="8.11239"><ele>87.0</ele><time>2026-04-23T15:24:45.316Z</time></trkpt><trkpt lat="33.92003" lon="8.112205"><ele>87.0</ele><time>2026-04-23T15:24:46.317Z</time></trkpt><trkpt lat="33.9200033" lon="8.11202"><ele>87.0</ele><time>2026-04-23T15:24:47.316Z</time></trkpt><trkpt lat="33.9199683" lon="8.1118567"><ele>87.0</ele><time>2026-04-23T15:24:48.317Z</time></trkpt><trkpt lat="33.9199383" lon="8.1117067"><ele>87.0</ele><time>2026-04-23T15:24:49.317Z</time></trkpt><trkpt lat="33.9199067" lon="8.1115717"><ele>87.0</ele><time>2026-04-23T15:24:50.316Z</time></trkpt><trkpt lat="33.91988" lon="8.1114567"><ele>87.0</ele><time>2026-04-23T15:24:51.316Z</time></trkpt><trkpt lat="33.9198617" lon="8.1113767"><ele>87.0</ele><time>2026-04-23T15:24:52.316Z</time></trkpt><trkpt lat="33.9198317" lon="8.11128"><ele>87.0</ele><time>2026-04-23T15:24:54.316Z</time></trkpt><trkpt lat="33.919785" lon="8.111175"><ele>87.0</ele><time>2026-04-23T15:24:56.317Z</time></trkpt><trkpt lat="33.9197167" lon="8.1111117"><ele>87.0</ele><time>2026-04-23T15:24:58.316Z</time></trkpt><trkpt lat="33.9195783" lon="8.111165"><ele>87.0</ele><time>2026-04-23T15:25:01.317Z</time></trkpt><trkpt lat="33.919515" lon="8.1112083"><ele>87.0</ele><time>2026-04-23T15:25:02.317Z</time></trkpt><trkpt lat="33.9194417" lon="8.1112433"><ele>87.0</ele><time>2026-04-23T15:25:03.317Z</time></trkpt><trkpt lat="33.919355" lon="8.1112767"><ele>87.0</ele><time>2026-04-23T15:25:04.316Z</time></trkpt><trkpt lat="33.9192583" lon="8.11131"><ele>87.0</ele><time>2026-04-23T15:25:05.317Z</time></trkpt><trkpt lat="33.919155" lon="8.1113433"><ele>87.0</ele><time>2026-04-23T15:25:06.317Z</time></trkpt><trkpt lat="33.9190517" lon="8.1113717"><ele>87.0</ele><time>2026-04-23T15:25:07.317Z</time></trkpt><trkpt lat="33.9189367" lon="8.111405"><ele>87.25</ele><time>2026-04-23T15:25:08.317Z</time></trkpt><trkpt lat="33.9188167" lon="8.1114433"><ele>87.5</ele><time>2026-04-23T15:25:09.316Z</time></trkpt><trkpt lat="33.9186967" lon="8.1114833"><ele>87.75</ele><time>2026-04-23T15:25:10.317Z</time></trkpt><trkpt lat="33.9185733" lon="8.1115117"><ele>88.0</ele><time>2026-04-23T15:25:11.316Z</time></trkpt><trkpt lat="33.91845" lon="8.1115317"><ele>88.0</ele><time>2026-04-23T15:25:12.316Z</time></trkpt><trkpt lat="33.91833" lon="8.1115583"><ele>88.0</ele><time>2026-04-23T15:25:13.316Z</time></trkpt><trkpt lat="33.9182067" lon="8.11158"><ele>88.0</ele><time>2026-04-23T15:25:14.316Z</time></trkpt><trkpt lat="33.9180817" lon="8.1115983"><ele>88.0</ele><time>2026-04-23T15:25:15.316Z</time></trkpt><trkpt lat="33.917955" lon="8.1116133"><ele>87.5</ele><time>2026-04-23T15:25:16.317Z</time></trkpt><trkpt lat="33.9178317" lon="8.1116167"><ele>87.0</ele><time>2026-04-23T15:25:17.317Z</time></trkpt><trkpt lat="33.91771" lon="8.1116317"><ele>86.5</ele><time>2026-04-23T15:25:18.317Z</time></trkpt><trkpt lat="33.9176017" lon="8.1116367"><ele>86.0</ele><time>2026-04-23T15:25:19.317Z</time></trkpt><trkpt lat="33.9175033" lon="8.11165"><ele>86.0</ele><time>2026-04-23T15:25:20.317Z</time></trkpt><trkpt lat="33.91741" lon="8.1116583"><ele>86.0</ele><time>2026-04-23T15:25:21.317Z</time></trkpt><trkpt lat="33.9173167" lon="8.1116683"><ele>86.0</ele><time>2026-04-23T15:25:22.316Z</time></trkpt><trkpt lat="33.9172317" lon="8.111675"><ele>86.0</ele><time>2026-04-23T15:25:23.316Z</time></trkpt><trkpt lat="33.91715" lon="8.1116817"><ele>86.0</ele><time>2026-04-23T15:25:24.316Z</time></trkpt><trkpt lat="33.9170633" lon="8.1116983"><ele>86.0</ele><time>2026-04-23T15:25:25.316Z</time></trkpt><trkpt lat="33.9169733" lon="8.1117033"><ele>86.0</ele><time>2026-04-23T15:25:26.316Z</time></trkpt><trkpt lat="33.9168833" lon="8.1117033"><ele>86.0</ele><time>2026-04-23T15:25:27.317Z</time></trkpt><trkpt lat="33.9167967" lon="8.111705"><ele>86.0</ele><time>2026-04-23T15:25:28.317Z</time></trkpt><trkpt lat="33.9167233" lon="8.111705"><ele>86.0</ele><time>2026-04-23T15:25:29.316Z</time></trkpt><trkpt lat="33.9166467" lon="8.1117167"><ele>86.0</ele><time>2026-04-23T15:25:30.316Z</time></trkpt><trkpt lat="33.91658" lon="8.1117267"><ele>86.0</ele><time>2026-04-23T15:25:31.316Z</time></trkpt><trkpt lat="33.916465" lon="8.1117333"><ele>85.8</ele><time>2026-04-23T15:25:33.317Z</time></trkpt><trkpt lat="33.91639" lon="8.1117267"><ele>85.6</ele><time>2026-04-23T15:25:35.317Z</time></trkpt><trkpt lat="33.9163117" lon="8.111735"><ele>85.4</ele><time>2026-04-23T15:25:54.315Z</time></trkpt><trkpt lat="33.9161883" lon="8.11175"><ele>85.2</ele><time>2026-04-23T15:25:56.315Z</time></trkpt><trkpt lat="33.916095" lon="8.1117683"><ele>85.0</ele><time>2026-04-23T15:25:57.315Z</time></trkpt><trkpt lat="33.9159833" lon="8.1117817"><ele>83.75</ele><time>2026-04-23T15:25:58.315Z</time></trkpt><trkpt lat="33.9158617" lon="8.111795"><ele>82.5</ele><time>2026-04-23T15:25:59.316Z</time></trkpt><trkpt lat="33.91574" lon="8.1118133"><ele>81.25</ele><time>2026-04-23T15:26:00.316Z</time></trkpt><trkpt lat="33.9156167" lon="8.11183"><ele>80.0</ele><time>2026-04-23T15:26:01.315Z</time></trkpt><trkpt lat="33.915485" lon="8.1118483"><ele>80.0</ele><time>2026-04-23T15:26:02.315Z</time></trkpt><trkpt lat="33.9153483" lon="8.1118717"><ele>80.0</ele><time>2026-04-23T15:26:03.315Z</time></trkpt><trkpt lat="33.91521" lon="8.1119083"><ele>80.0</ele><time>2026-04-23T15:26:04.316Z</time></trkpt><trkpt lat="33.915065" lon="8.11195"><ele>80.0</ele><time>2026-04-23T15:26:05.315Z</time></trkpt><trkpt lat="33.91493" lon="8.1119967"><ele>79.33333333333334</ele><time>2026-04-23T15:26:06.316Z</time></trkpt><trkpt lat="33.91478" lon="8.11205"><ele>78.66666666666667</ele><time>2026-04-23T15:26:07.315Z</time></trkpt><trkpt lat="33.914625" lon="8.1121167"><ele>78.0</ele><time>2026-04-23T15:26:08.316Z</time></trkpt><trkpt lat="33.914475" lon="8.112195"><ele>78.0</ele><time>2026-04-23T15:26:09.316Z</time></trkpt><trkpt lat="33.9143317" lon="8.112285"><ele>78.0</ele><time>2026-04-23T15:26:10.315Z</time></trkpt><trkpt lat="33.9141883" lon="8.1123817"><ele>78.0</ele><time>2026-04-23T15:26:11.315Z</time></trkpt><trkpt lat="33.9140533" lon="8.112485"><ele>78.33333333333333</ele><time>2026-04-23T15:26:12.316Z</time></trkpt><trkpt lat="33.9139233" lon="8.1125867"><ele>78.66666666666666</ele><time>2026-04-23T15:26:13.316Z</time></trkpt><trkpt lat="33.913795" lon="8.1126817"><ele>79.0</ele><time>2026-04-23T15:26:14.316Z</time></trkpt><trkpt lat="33.9136667" lon="8.112765"><ele>79.0</ele><time>2026-04-23T15:26:15.315Z</time></trkpt><trkpt lat="33.9135367" lon="8.1128367"><ele>79.0</ele><time>2026-04-23T15:26:16.316Z</time></trkpt><trkpt lat="33.91341" lon="8.1129"><ele>79.0</ele><time>2026-04-23T15:26:17.315Z</time></trkpt><trkpt lat="33.9132983" lon="8.11297"><ele>79.0</ele><time>2026-04-23T15:26:18.316Z</time></trkpt><trkpt lat="33.9131967" lon="8.1130483"><ele>79.25</ele><time>2026-04-23T15:26:19.316Z</time></trkpt><trkpt lat="33.91311" lon="8.1131483"><ele>79.5</ele><time>2026-04-23T15:26:20.316Z</time></trkpt><trkpt lat="33.913035" lon="8.1132733"><ele>79.75</ele><time>2026-04-23T15:26:21.316Z</time></trkpt><trkpt lat="33.9129783" lon="8.1134033"><ele>80.0</ele><time>2026-04-23T15:26:22.315Z</time></trkpt><trkpt lat="33.9129433" lon="8.1135383"><ele>80.0</ele><time>2026-04-23T15:26:23.315Z</time></trkpt><trkpt lat="33.9129433" lon="8.1136683"><ele>80.0</ele><time>2026-04-23T15:26:24.315Z</time></trkpt><trkpt lat="33.912975" lon="8.11379"><ele>80.0</ele><time>2026-04-23T15:26:25.316Z</time></trkpt><trkpt lat="33.9130083" lon="8.1139"><ele>80.0</ele><time>2026-04-23T15:26:26.316Z</time></trkpt><trkpt lat="33.9130367" lon="8.114"><ele>80.0</ele><time>2026-04-23T15:26:27.316Z</time></trkpt><trkpt lat="33.9130667" lon="8.1140867"><ele>80.0</ele><time>2026-04-23T15:26:28.316Z</time></trkpt><trkpt lat="33.91309" lon="8.1141633"><ele>80.0</ele><time>2026-04-23T15:26:29.316Z</time></trkpt><trkpt lat="33.9130833" lon="8.11425"><ele>80.0</ele><time>2026-04-23T15:26:31.316Z</time></trkpt><trkpt lat="33.9130183" lon="8.1142417"><ele>80.0</ele><time>2026-04-23T15:26:34.316Z</time></trkpt><trkpt lat="33.9129567" lon="8.114165"><ele>80.0</ele><time>2026-04-23T15:26:41.315Z</time></trkpt><trkpt lat="33.9128917" lon="8.11405"><ele>80.0</ele><time>2026-04-23T15:26:43.315Z</time></trkpt><trkpt lat="33.91285" lon="8.1139867"><ele>80.0</ele><time>2026-04-23T15:26:44.316Z</time></trkpt><trkpt lat="33.9127817" lon="8.11387"><ele>80.0</ele><time>2026-04-23T15:26:46.315Z</time></trkpt><trkpt lat="33.91272" lon="8.1137567"><ele>80.0</ele><time>2026-04-23T15:26:48.316Z</time></trkpt><trkpt lat="33.91268" lon="8.11367"><ele>80.0</ele><time>2026-04-23T15:26:50.315Z</time></trkpt><trkpt lat="33.9126183" lon="8.1136233"><ele>80.0</ele><time>2026-04-23T15:26:52.316Z</time></trkpt><trkpt lat="33.9125383" lon="8.1136117"><ele>70.0</ele><time>2026-04-23T15:26:55.316Z</time></trkpt></trkseg></trk></gpx>